<?xml version="1.0" encoding="UTF-8" standalone="no" ?>
<gpx xmlns="http://www.topografix.com/GPX/1/1" xmlns:xsi="http://www.w3.org/2001/XMLSchema-instance" xsi:schemaLocation="http://www.topografix.com/GPX/1/1 http://www.topografix.com/GPX/1/1/gpx.xsd" version="1.1" creator="VisuGPX - https://www.visugpx.com">
  <metadata>
    <name>2017-04-21 Bike ride-Amberieux en Dombes O via Monthieux</name>
    <desc><![CDATA[2017-04-21 Bike ride-Amberieux en Dombes O via Monthieux]]></desc>
  </metadata>
  <wpt lat="45.92454" lon="4.73708">
    <ele>174</ele>
    <name><![CDATA[2017-04-21 10:48 (Start)]]></name>
  </wpt>
  <wpt lat="45.92463" lon="4.73705">
    <ele>174</ele>
    <name><![CDATA[2017-04-21 10:48 (End)]]></name>
    <desc><![CDATA[Created by Google My Tracks on Android  Name: 2017-04-21 10:48 Activity type: biking Description: - Total distance: 46.60 km (29.0 mi) Total time: 2:31:22 Moving time: 2:21:11 Average speed: 18.47 km/h (11.5 mi/h) Average moving speed: 19.80 km/h (12.3 mi/h) Max speed: 45.31 km/h (28.2 mi/h) Average pace: 3:15 min/km (5:14 min/mi) Average moving pace: 3:02 min/km (4:53 min/mi) Fastest pace: 1:19 min/km (2:08 min/mi) Max elevation: 368 m (1207 ft) Min elevation: 165 m (540 ft) Elevation gain: 737 m (2419 ft) Max grade: 28 % Min grade: -18 % Recorded: 21/04/2017 10:48]]></desc>
  </wpt>
  <trk>
    <name><![CDATA[2017-04-21 10:48]]></name>
    <trkseg>
      <trkpt lat="45.92454" lon="4.73708">
        <ele>174</ele>
        <time>2017-04-21T08:48:08.101Z</time>
      </trkpt>
      <trkpt lat="45.92462" lon="4.73704">
        <ele>174</ele>
        <time>2017-04-21T08:48:48Z</time>
      </trkpt>
      <trkpt lat="45.92463" lon="4.73702">
        <ele>174</ele>
        <time>2017-04-21T08:48:49Z</time>
      </trkpt>
      <trkpt lat="45.92464" lon="4.73691">
        <ele>174</ele>
        <time>2017-04-21T08:48:53Z</time>
      </trkpt>
      <trkpt lat="45.92464" lon="4.73686">
        <ele>174</ele>
        <time>2017-04-21T08:48:54Z</time>
      </trkpt>
      <trkpt lat="45.92466" lon="4.73674">
        <ele>174</ele>
        <time>2017-04-21T08:48:56Z</time>
      </trkpt>
      <trkpt lat="45.92467" lon="4.73669">
        <ele>174</ele>
        <time>2017-04-21T08:48:57Z</time>
      </trkpt>
      <trkpt lat="45.9247" lon="4.73657">
        <ele>174</ele>
        <time>2017-04-21T08:48:59Z</time>
      </trkpt>
      <trkpt lat="45.92471" lon="4.73652">
        <ele>174</ele>
        <time>2017-04-21T08:49:00Z</time>
      </trkpt>
      <trkpt lat="45.92473" lon="4.73641">
        <ele>174</ele>
        <time>2017-04-21T08:49:02Z</time>
      </trkpt>
      <trkpt lat="45.92475" lon="4.73637">
        <ele>174</ele>
        <time>2017-04-21T08:49:03Z</time>
      </trkpt>
      <trkpt lat="45.92483" lon="4.73639">
        <ele>174</ele>
        <time>2017-04-21T08:49:05Z</time>
      </trkpt>
      <trkpt lat="45.92487" lon="4.73639">
        <ele>174</ele>
        <time>2017-04-21T08:49:06Z</time>
      </trkpt>
      <trkpt lat="45.92494" lon="4.73639">
        <ele>174</ele>
        <time>2017-04-21T08:49:08Z</time>
      </trkpt>
      <trkpt lat="45.92498" lon="4.73639">
        <ele>174</ele>
        <time>2017-04-21T08:49:09Z</time>
      </trkpt>
      <trkpt lat="45.92503" lon="4.7364">
        <ele>174</ele>
        <time>2017-04-21T08:49:10Z</time>
      </trkpt>
      <trkpt lat="45.92507" lon="4.73639">
        <ele>174</ele>
        <time>2017-04-21T08:49:11Z</time>
      </trkpt>
      <trkpt lat="45.92516" lon="4.73641">
        <ele>174</ele>
        <time>2017-04-21T08:49:13Z</time>
      </trkpt>
      <trkpt lat="45.92521" lon="4.73642">
        <ele>173</ele>
        <time>2017-04-21T08:49:14Z</time>
      </trkpt>
      <trkpt lat="45.92526" lon="4.73642">
        <ele>173</ele>
        <time>2017-04-21T08:49:15Z</time>
      </trkpt>
      <trkpt lat="45.92531" lon="4.73641">
        <ele>173</ele>
        <time>2017-04-21T08:49:16Z</time>
      </trkpt>
      <trkpt lat="45.92536" lon="4.73639">
        <ele>173</ele>
        <time>2017-04-21T08:49:17Z</time>
      </trkpt>
      <trkpt lat="45.92541" lon="4.73638">
        <ele>173</ele>
        <time>2017-04-21T08:49:18Z</time>
      </trkpt>
      <trkpt lat="45.92545" lon="4.73636">
        <ele>173</ele>
        <time>2017-04-21T08:49:19Z</time>
      </trkpt>
      <trkpt lat="45.9255" lon="4.73635">
        <ele>173</ele>
        <time>2017-04-21T08:49:20Z</time>
      </trkpt>
      <trkpt lat="45.92559" lon="4.73635">
        <ele>173</ele>
        <time>2017-04-21T08:49:22Z</time>
      </trkpt>
      <trkpt lat="45.92564" lon="4.73634">
        <ele>173</ele>
        <time>2017-04-21T08:49:23Z</time>
      </trkpt>
      <trkpt lat="45.92569" lon="4.73632">
        <ele>173</ele>
        <time>2017-04-21T08:49:24Z</time>
      </trkpt>
      <trkpt lat="45.92574" lon="4.73631">
        <ele>173</ele>
        <time>2017-04-21T08:49:25Z</time>
      </trkpt>
      <trkpt lat="45.92579" lon="4.73628">
        <ele>173</ele>
        <time>2017-04-21T08:49:26Z</time>
      </trkpt>
      <trkpt lat="45.92584" lon="4.73626">
        <ele>172</ele>
        <time>2017-04-21T08:49:27Z</time>
      </trkpt>
      <trkpt lat="45.9259" lon="4.73623">
        <ele>173</ele>
        <time>2017-04-21T08:49:28Z</time>
      </trkpt>
      <trkpt lat="45.92595" lon="4.73622">
        <ele>173</ele>
        <time>2017-04-21T08:49:29Z</time>
      </trkpt>
      <trkpt lat="45.926" lon="4.7362">
        <ele>173</ele>
        <time>2017-04-21T08:49:30Z</time>
      </trkpt>
      <trkpt lat="45.92606" lon="4.73621">
        <ele>173</ele>
        <time>2017-04-21T08:49:31Z</time>
      </trkpt>
      <trkpt lat="45.92609" lon="4.73621">
        <ele>173</ele>
        <time>2017-04-21T08:49:32Z</time>
      </trkpt>
      <trkpt lat="45.92614" lon="4.73631">
        <ele>173</ele>
        <time>2017-04-21T08:49:33Z</time>
      </trkpt>
      <trkpt lat="45.92618" lon="4.73638">
        <ele>173</ele>
        <time>2017-04-21T08:49:34Z</time>
      </trkpt>
      <trkpt lat="45.92621" lon="4.73645">
        <ele>173</ele>
        <time>2017-04-21T08:49:35Z</time>
      </trkpt>
      <trkpt lat="45.92623" lon="4.73653">
        <ele>173</ele>
        <time>2017-04-21T08:49:36Z</time>
      </trkpt>
      <trkpt lat="45.92626" lon="4.7366">
        <ele>173</ele>
        <time>2017-04-21T08:49:37Z</time>
      </trkpt>
      <trkpt lat="45.92629" lon="4.73667">
        <ele>173</ele>
        <time>2017-04-21T08:49:38Z</time>
      </trkpt>
      <trkpt lat="45.92633" lon="4.73673">
        <ele>173</ele>
        <time>2017-04-21T08:49:39Z</time>
      </trkpt>
      <trkpt lat="45.92636" lon="4.73678">
        <ele>173</ele>
        <time>2017-04-21T08:49:40Z</time>
      </trkpt>
      <trkpt lat="45.9264" lon="4.73684">
        <ele>173</ele>
        <time>2017-04-21T08:49:41Z</time>
      </trkpt>
      <trkpt lat="45.92644" lon="4.7369">
        <ele>173</ele>
        <time>2017-04-21T08:49:42Z</time>
      </trkpt>
      <trkpt lat="45.92649" lon="4.73695">
        <ele>173</ele>
        <time>2017-04-21T08:49:43Z</time>
      </trkpt>
      <trkpt lat="45.92654" lon="4.73699">
        <ele>173</ele>
        <time>2017-04-21T08:49:44Z</time>
      </trkpt>
      <trkpt lat="45.92659" lon="4.73703">
        <ele>173</ele>
        <time>2017-04-21T08:49:45Z</time>
      </trkpt>
      <trkpt lat="45.92664" lon="4.73706">
        <ele>173</ele>
        <time>2017-04-21T08:49:46Z</time>
      </trkpt>
      <trkpt lat="45.9267" lon="4.73708">
        <ele>174</ele>
        <time>2017-04-21T08:49:47Z</time>
      </trkpt>
      <trkpt lat="45.92676" lon="4.7371">
        <ele>174</ele>
        <time>2017-04-21T08:49:48Z</time>
      </trkpt>
      <trkpt lat="45.92681" lon="4.73712">
        <ele>173</ele>
        <time>2017-04-21T08:49:49Z</time>
      </trkpt>
      <trkpt lat="45.92687" lon="4.73713">
        <ele>173</ele>
        <time>2017-04-21T08:49:50Z</time>
      </trkpt>
      <trkpt lat="45.92693" lon="4.73715">
        <ele>173</ele>
        <time>2017-04-21T08:49:51Z</time>
      </trkpt>
      <trkpt lat="45.92698" lon="4.73716">
        <ele>173</ele>
        <time>2017-04-21T08:49:52Z</time>
      </trkpt>
      <trkpt lat="45.92704" lon="4.73717">
        <ele>173</ele>
        <time>2017-04-21T08:49:53Z</time>
      </trkpt>
      <trkpt lat="45.92709" lon="4.73719">
        <ele>173</ele>
        <time>2017-04-21T08:49:54Z</time>
      </trkpt>
      <trkpt lat="45.92714" lon="4.73721">
        <ele>173</ele>
        <time>2017-04-21T08:49:55Z</time>
      </trkpt>
      <trkpt lat="45.9272" lon="4.73722">
        <ele>173</ele>
        <time>2017-04-21T08:49:56Z</time>
      </trkpt>
      <trkpt lat="45.92725" lon="4.73723">
        <ele>173</ele>
        <time>2017-04-21T08:49:57Z</time>
      </trkpt>
      <trkpt lat="45.92732" lon="4.73722">
        <ele>173</ele>
        <time>2017-04-21T08:49:58Z</time>
      </trkpt>
      <trkpt lat="45.92738" lon="4.73722">
        <ele>173</ele>
        <time>2017-04-21T08:49:59Z</time>
      </trkpt>
      <trkpt lat="45.92745" lon="4.73722">
        <ele>173</ele>
        <time>2017-04-21T08:50:00Z</time>
      </trkpt>
      <trkpt lat="45.9275" lon="4.73723">
        <ele>172</ele>
        <time>2017-04-21T08:50:01Z</time>
      </trkpt>
      <trkpt lat="45.92755" lon="4.73725">
        <ele>172</ele>
        <time>2017-04-21T08:50:02Z</time>
      </trkpt>
      <trkpt lat="45.9276" lon="4.73726">
        <ele>172</ele>
        <time>2017-04-21T08:50:03Z</time>
      </trkpt>
      <trkpt lat="45.92765" lon="4.73728">
        <ele>172</ele>
        <time>2017-04-21T08:50:04Z</time>
      </trkpt>
      <trkpt lat="45.92769" lon="4.73729">
        <ele>172</ele>
        <time>2017-04-21T08:50:05Z</time>
      </trkpt>
      <trkpt lat="45.92776" lon="4.73726">
        <ele>172</ele>
        <time>2017-04-21T08:50:07Z</time>
      </trkpt>
      <trkpt lat="45.92779" lon="4.73722">
        <ele>172</ele>
        <time>2017-04-21T08:50:08Z</time>
      </trkpt>
      <trkpt lat="45.92784" lon="4.73711">
        <ele>172</ele>
        <time>2017-04-21T08:50:10Z</time>
      </trkpt>
      <trkpt lat="45.92786" lon="4.73704">
        <ele>172</ele>
        <time>2017-04-21T08:50:11Z</time>
      </trkpt>
      <trkpt lat="45.92787" lon="4.73697">
        <ele>172</ele>
        <time>2017-04-21T08:50:12Z</time>
      </trkpt>
      <trkpt lat="45.92788" lon="4.7369">
        <ele>172</ele>
        <time>2017-04-21T08:50:13Z</time>
      </trkpt>
      <trkpt lat="45.92791" lon="4.73682">
        <ele>172</ele>
        <time>2017-04-21T08:50:14Z</time>
      </trkpt>
      <trkpt lat="45.92793" lon="4.73675">
        <ele>172</ele>
        <time>2017-04-21T08:50:15Z</time>
      </trkpt>
      <trkpt lat="45.92795" lon="4.73668">
        <ele>172</ele>
        <time>2017-04-21T08:50:16Z</time>
      </trkpt>
      <trkpt lat="45.92797" lon="4.7366">
        <ele>172</ele>
        <time>2017-04-21T08:50:17Z</time>
      </trkpt>
      <trkpt lat="45.92798" lon="4.73653">
        <ele>172</ele>
        <time>2017-04-21T08:50:18Z</time>
      </trkpt>
      <trkpt lat="45.92799" lon="4.73646">
        <ele>172</ele>
        <time>2017-04-21T08:50:19Z</time>
      </trkpt>
      <trkpt lat="45.92802" lon="4.7364">
        <ele>172</ele>
        <time>2017-04-21T08:50:20Z</time>
      </trkpt>
      <trkpt lat="45.92804" lon="4.73635">
        <ele>172</ele>
        <time>2017-04-21T08:50:21Z</time>
      </trkpt>
      <trkpt lat="45.92811" lon="4.73627">
        <ele>172</ele>
        <time>2017-04-21T08:50:28Z</time>
      </trkpt>
      <trkpt lat="45.92812" lon="4.73627">
        <ele>172</ele>
        <time>2017-04-21T08:50:29Z</time>
      </trkpt>
      <trkpt lat="45.92813" lon="4.73626">
        <ele>172</ele>
        <time>2017-04-21T08:50:30Z</time>
      </trkpt>
      <trkpt lat="45.92814" lon="4.73625">
        <ele>172</ele>
        <time>2017-04-21T08:50:31Z</time>
      </trkpt>
      <trkpt lat="45.92816" lon="4.73622">
        <ele>172</ele>
        <time>2017-04-21T08:50:32Z</time>
      </trkpt>
      <trkpt lat="45.92816" lon="4.73609">
        <ele>172</ele>
        <time>2017-04-21T08:50:35Z</time>
      </trkpt>
      <trkpt lat="45.92816" lon="4.73604">
        <ele>172</ele>
        <time>2017-04-21T08:50:36Z</time>
      </trkpt>
      <trkpt lat="45.92816" lon="4.73593">
        <ele>171</ele>
        <time>2017-04-21T08:50:38Z</time>
      </trkpt>
      <trkpt lat="45.92816" lon="4.73587">
        <ele>171</ele>
        <time>2017-04-21T08:50:39Z</time>
      </trkpt>
      <trkpt lat="45.92817" lon="4.7358">
        <ele>171</ele>
        <time>2017-04-21T08:50:40Z</time>
      </trkpt>
      <trkpt lat="45.92817" lon="4.73573">
        <ele>171</ele>
        <time>2017-04-21T08:50:41Z</time>
      </trkpt>
      <trkpt lat="45.92817" lon="4.73566">
        <ele>171</ele>
        <time>2017-04-21T08:50:42Z</time>
      </trkpt>
      <trkpt lat="45.92818" lon="4.73559">
        <ele>171</ele>
        <time>2017-04-21T08:50:43Z</time>
      </trkpt>
      <trkpt lat="45.92818" lon="4.73552">
        <ele>171</ele>
        <time>2017-04-21T08:50:44Z</time>
      </trkpt>
      <trkpt lat="45.92818" lon="4.73545">
        <ele>171</ele>
        <time>2017-04-21T08:50:45Z</time>
      </trkpt>
      <trkpt lat="45.92819" lon="4.73538">
        <ele>172</ele>
        <time>2017-04-21T08:50:46Z</time>
      </trkpt>
      <trkpt lat="45.92819" lon="4.73531">
        <ele>172</ele>
        <time>2017-04-21T08:50:47Z</time>
      </trkpt>
      <trkpt lat="45.9282" lon="4.73523">
        <ele>172</ele>
        <time>2017-04-21T08:50:48Z</time>
      </trkpt>
      <trkpt lat="45.92822" lon="4.73516">
        <ele>172</ele>
        <time>2017-04-21T08:50:49Z</time>
      </trkpt>
      <trkpt lat="45.92823" lon="4.73508">
        <ele>172</ele>
        <time>2017-04-21T08:50:50Z</time>
      </trkpt>
      <trkpt lat="45.92824" lon="4.735">
        <ele>172</ele>
        <time>2017-04-21T08:50:51Z</time>
      </trkpt>
      <trkpt lat="45.92825" lon="4.73491">
        <ele>172</ele>
        <time>2017-04-21T08:50:52Z</time>
      </trkpt>
      <trkpt lat="45.92826" lon="4.73483">
        <ele>172</ele>
        <time>2017-04-21T08:50:53Z</time>
      </trkpt>
      <trkpt lat="45.92827" lon="4.73475">
        <ele>172</ele>
        <time>2017-04-21T08:50:54Z</time>
      </trkpt>
      <trkpt lat="45.92828" lon="4.73467">
        <ele>172</ele>
        <time>2017-04-21T08:50:55Z</time>
      </trkpt>
      <trkpt lat="45.92829" lon="4.73458">
        <ele>172</ele>
        <time>2017-04-21T08:50:56Z</time>
      </trkpt>
      <trkpt lat="45.9283" lon="4.7345">
        <ele>172</ele>
        <time>2017-04-21T08:50:57Z</time>
      </trkpt>
      <trkpt lat="45.92832" lon="4.73442">
        <ele>172</ele>
        <time>2017-04-21T08:50:58Z</time>
      </trkpt>
      <trkpt lat="45.92833" lon="4.73433">
        <ele>172</ele>
        <time>2017-04-21T08:50:59Z</time>
      </trkpt>
      <trkpt lat="45.92835" lon="4.73425">
        <ele>172</ele>
        <time>2017-04-21T08:51:00Z</time>
      </trkpt>
      <trkpt lat="45.92837" lon="4.73416">
        <ele>172</ele>
        <time>2017-04-21T08:51:01Z</time>
      </trkpt>
      <trkpt lat="45.9284" lon="4.73407">
        <ele>172</ele>
        <time>2017-04-21T08:51:02Z</time>
      </trkpt>
      <trkpt lat="45.92842" lon="4.73397">
        <ele>172</ele>
        <time>2017-04-21T08:51:03Z</time>
      </trkpt>
      <trkpt lat="45.92843" lon="4.73388">
        <ele>172</ele>
        <time>2017-04-21T08:51:04Z</time>
      </trkpt>
      <trkpt lat="45.92844" lon="4.73379">
        <ele>172</ele>
        <time>2017-04-21T08:51:05Z</time>
      </trkpt>
      <trkpt lat="45.92845" lon="4.7337">
        <ele>171</ele>
        <time>2017-04-21T08:51:06Z</time>
      </trkpt>
      <trkpt lat="45.92846" lon="4.73361">
        <ele>171</ele>
        <time>2017-04-21T08:51:07Z</time>
      </trkpt>
      <trkpt lat="45.92847" lon="4.73353">
        <ele>171</ele>
        <time>2017-04-21T08:51:08Z</time>
      </trkpt>
      <trkpt lat="45.92848" lon="4.73345">
        <ele>171</ele>
        <time>2017-04-21T08:51:09Z</time>
      </trkpt>
      <trkpt lat="45.92848" lon="4.73336">
        <ele>171</ele>
        <time>2017-04-21T08:51:10Z</time>
      </trkpt>
      <trkpt lat="45.92849" lon="4.73327">
        <ele>171</ele>
        <time>2017-04-21T08:51:11Z</time>
      </trkpt>
      <trkpt lat="45.92849" lon="4.73318">
        <ele>171</ele>
        <time>2017-04-21T08:51:12Z</time>
      </trkpt>
      <trkpt lat="45.9285" lon="4.73309">
        <ele>171</ele>
        <time>2017-04-21T08:51:13Z</time>
      </trkpt>
      <trkpt lat="45.9285" lon="4.733">
        <ele>171</ele>
        <time>2017-04-21T08:51:14Z</time>
      </trkpt>
      <trkpt lat="45.92851" lon="4.73292">
        <ele>171</ele>
        <time>2017-04-21T08:51:15Z</time>
      </trkpt>
      <trkpt lat="45.92852" lon="4.73283">
        <ele>171</ele>
        <time>2017-04-21T08:51:16Z</time>
      </trkpt>
      <trkpt lat="45.92853" lon="4.73274">
        <ele>171</ele>
        <time>2017-04-21T08:51:17Z</time>
      </trkpt>
      <trkpt lat="45.92854" lon="4.73266">
        <ele>171</ele>
        <time>2017-04-21T08:51:18Z</time>
      </trkpt>
      <trkpt lat="45.92855" lon="4.73258">
        <ele>171</ele>
        <time>2017-04-21T08:51:19Z</time>
      </trkpt>
      <trkpt lat="45.92856" lon="4.73249">
        <ele>171</ele>
        <time>2017-04-21T08:51:20Z</time>
      </trkpt>
      <trkpt lat="45.92857" lon="4.73241">
        <ele>171</ele>
        <time>2017-04-21T08:51:21Z</time>
      </trkpt>
      <trkpt lat="45.92858" lon="4.73232">
        <ele>171</ele>
        <time>2017-04-21T08:51:22Z</time>
      </trkpt>
      <trkpt lat="45.92859" lon="4.73223">
        <ele>171</ele>
        <time>2017-04-21T08:51:23Z</time>
      </trkpt>
      <trkpt lat="45.92861" lon="4.73214">
        <ele>171</ele>
        <time>2017-04-21T08:51:24Z</time>
      </trkpt>
      <trkpt lat="45.92862" lon="4.73206">
        <ele>171</ele>
        <time>2017-04-21T08:51:25Z</time>
      </trkpt>
      <trkpt lat="45.92863" lon="4.73197">
        <ele>171</ele>
        <time>2017-04-21T08:51:26Z</time>
      </trkpt>
      <trkpt lat="45.92864" lon="4.73188">
        <ele>171</ele>
        <time>2017-04-21T08:51:27Z</time>
      </trkpt>
      <trkpt lat="45.92865" lon="4.7318">
        <ele>171</ele>
        <time>2017-04-21T08:51:28Z</time>
      </trkpt>
      <trkpt lat="45.92866" lon="4.73171">
        <ele>171</ele>
        <time>2017-04-21T08:51:29Z</time>
      </trkpt>
      <trkpt lat="45.92868" lon="4.73162">
        <ele>171</ele>
        <time>2017-04-21T08:51:30Z</time>
      </trkpt>
      <trkpt lat="45.92869" lon="4.73153">
        <ele>171</ele>
        <time>2017-04-21T08:51:31Z</time>
      </trkpt>
      <trkpt lat="45.9287" lon="4.73144">
        <ele>171</ele>
        <time>2017-04-21T08:51:32Z</time>
      </trkpt>
      <trkpt lat="45.92871" lon="4.73136">
        <ele>171</ele>
        <time>2017-04-21T08:51:33Z</time>
      </trkpt>
      <trkpt lat="45.92872" lon="4.73128">
        <ele>171</ele>
        <time>2017-04-21T08:51:34Z</time>
      </trkpt>
      <trkpt lat="45.92873" lon="4.73119">
        <ele>172</ele>
        <time>2017-04-21T08:51:35Z</time>
      </trkpt>
      <trkpt lat="45.92875" lon="4.73111">
        <ele>172</ele>
        <time>2017-04-21T08:51:36Z</time>
      </trkpt>
      <trkpt lat="45.92877" lon="4.73104">
        <ele>172</ele>
        <time>2017-04-21T08:51:37Z</time>
      </trkpt>
      <trkpt lat="45.92878" lon="4.73097">
        <ele>172</ele>
        <time>2017-04-21T08:51:38Z</time>
      </trkpt>
      <trkpt lat="45.92881" lon="4.73089">
        <ele>172</ele>
        <time>2017-04-21T08:51:39Z</time>
      </trkpt>
      <trkpt lat="45.92884" lon="4.73082">
        <ele>172</ele>
        <time>2017-04-21T08:51:40Z</time>
      </trkpt>
      <trkpt lat="45.92887" lon="4.73074">
        <ele>172</ele>
        <time>2017-04-21T08:51:41Z</time>
      </trkpt>
      <trkpt lat="45.9289" lon="4.73068">
        <ele>172</ele>
        <time>2017-04-21T08:51:42Z</time>
      </trkpt>
      <trkpt lat="45.92894" lon="4.73061">
        <ele>172</ele>
        <time>2017-04-21T08:51:43Z</time>
      </trkpt>
      <trkpt lat="45.92897" lon="4.73055">
        <ele>172</ele>
        <time>2017-04-21T08:51:44Z</time>
      </trkpt>
      <trkpt lat="45.92901" lon="4.73048">
        <ele>172</ele>
        <time>2017-04-21T08:51:45Z</time>
      </trkpt>
      <trkpt lat="45.92905" lon="4.73041">
        <ele>172</ele>
        <time>2017-04-21T08:51:46Z</time>
      </trkpt>
      <trkpt lat="45.92909" lon="4.73035">
        <ele>172</ele>
        <time>2017-04-21T08:51:47Z</time>
      </trkpt>
      <trkpt lat="45.92914" lon="4.73029">
        <ele>172</ele>
        <time>2017-04-21T08:51:48Z</time>
      </trkpt>
      <trkpt lat="45.92919" lon="4.73024">
        <ele>172</ele>
        <time>2017-04-21T08:51:49Z</time>
      </trkpt>
      <trkpt lat="45.92923" lon="4.73018">
        <ele>172</ele>
        <time>2017-04-21T08:51:50Z</time>
      </trkpt>
      <trkpt lat="45.92928" lon="4.73013">
        <ele>172</ele>
        <time>2017-04-21T08:51:51Z</time>
      </trkpt>
      <trkpt lat="45.92933" lon="4.73007">
        <ele>171</ele>
        <time>2017-04-21T08:51:52Z</time>
      </trkpt>
      <trkpt lat="45.92937" lon="4.73001">
        <ele>171</ele>
        <time>2017-04-21T08:51:53Z</time>
      </trkpt>
      <trkpt lat="45.92942" lon="4.72995">
        <ele>171</ele>
        <time>2017-04-21T08:51:54Z</time>
      </trkpt>
      <trkpt lat="45.92947" lon="4.72989">
        <ele>171</ele>
        <time>2017-04-21T08:51:55Z</time>
      </trkpt>
      <trkpt lat="45.92951" lon="4.72984">
        <ele>171</ele>
        <time>2017-04-21T08:51:56Z</time>
      </trkpt>
      <trkpt lat="45.92956" lon="4.72978">
        <ele>171</ele>
        <time>2017-04-21T08:51:57Z</time>
      </trkpt>
      <trkpt lat="45.92961" lon="4.72972">
        <ele>171</ele>
        <time>2017-04-21T08:51:58Z</time>
      </trkpt>
      <trkpt lat="45.92965" lon="4.72966">
        <ele>171</ele>
        <time>2017-04-21T08:51:59Z</time>
      </trkpt>
      <trkpt lat="45.92971" lon="4.7296">
        <ele>171</ele>
        <time>2017-04-21T08:52:00Z</time>
      </trkpt>
      <trkpt lat="45.92976" lon="4.72953">
        <ele>171</ele>
        <time>2017-04-21T08:52:01Z</time>
      </trkpt>
      <trkpt lat="45.92981" lon="4.72948">
        <ele>171</ele>
        <time>2017-04-21T08:52:02Z</time>
      </trkpt>
      <trkpt lat="45.92986" lon="4.72943">
        <ele>171</ele>
        <time>2017-04-21T08:52:03Z</time>
      </trkpt>
      <trkpt lat="45.92991" lon="4.72936">
        <ele>171</ele>
        <time>2017-04-21T08:52:04Z</time>
      </trkpt>
      <trkpt lat="45.92996" lon="4.7293">
        <ele>171</ele>
        <time>2017-04-21T08:52:05Z</time>
      </trkpt>
      <trkpt lat="45.93001" lon="4.72925">
        <ele>170</ele>
        <time>2017-04-21T08:52:06Z</time>
      </trkpt>
      <trkpt lat="45.93006" lon="4.72918">
        <ele>171</ele>
        <time>2017-04-21T08:52:07Z</time>
      </trkpt>
      <trkpt lat="45.93011" lon="4.72912">
        <ele>171</ele>
        <time>2017-04-21T08:52:08Z</time>
      </trkpt>
      <trkpt lat="45.93016" lon="4.72906">
        <ele>172</ele>
        <time>2017-04-21T08:52:09Z</time>
      </trkpt>
      <trkpt lat="45.93021" lon="4.72901">
        <ele>172</ele>
        <time>2017-04-21T08:52:10Z</time>
      </trkpt>
      <trkpt lat="45.93026" lon="4.72894">
        <ele>172</ele>
        <time>2017-04-21T08:52:11Z</time>
      </trkpt>
      <trkpt lat="45.93031" lon="4.72887">
        <ele>172</ele>
        <time>2017-04-21T08:52:12Z</time>
      </trkpt>
      <trkpt lat="45.93037" lon="4.72882">
        <ele>172</ele>
        <time>2017-04-21T08:52:13Z</time>
      </trkpt>
      <trkpt lat="45.93042" lon="4.72876">
        <ele>172</ele>
        <time>2017-04-21T08:52:14Z</time>
      </trkpt>
      <trkpt lat="45.93047" lon="4.7287">
        <ele>172</ele>
        <time>2017-04-21T08:52:15Z</time>
      </trkpt>
      <trkpt lat="45.93052" lon="4.72864">
        <ele>172</ele>
        <time>2017-04-21T08:52:16Z</time>
      </trkpt>
      <trkpt lat="45.93058" lon="4.72858">
        <ele>172</ele>
        <time>2017-04-21T08:52:17Z</time>
      </trkpt>
      <trkpt lat="45.93062" lon="4.72852">
        <ele>172</ele>
        <time>2017-04-21T08:52:18Z</time>
      </trkpt>
      <trkpt lat="45.93067" lon="4.72846">
        <ele>172</ele>
        <time>2017-04-21T08:52:19Z</time>
      </trkpt>
      <trkpt lat="45.93072" lon="4.7284">
        <ele>173</ele>
        <time>2017-04-21T08:52:20Z</time>
      </trkpt>
      <trkpt lat="45.93077" lon="4.72834">
        <ele>173</ele>
        <time>2017-04-21T08:52:21Z</time>
      </trkpt>
      <trkpt lat="45.93082" lon="4.72829">
        <ele>173</ele>
        <time>2017-04-21T08:52:22Z</time>
      </trkpt>
      <trkpt lat="45.93088" lon="4.72823">
        <ele>172</ele>
        <time>2017-04-21T08:52:23Z</time>
      </trkpt>
      <trkpt lat="45.93094" lon="4.72818">
        <ele>172</ele>
        <time>2017-04-21T08:52:24Z</time>
      </trkpt>
      <trkpt lat="45.93097" lon="4.72814">
        <ele>172</ele>
        <time>2017-04-21T08:52:25Z</time>
      </trkpt>
      <trkpt lat="45.93102" lon="4.7281">
        <ele>172</ele>
        <time>2017-04-21T08:52:26Z</time>
      </trkpt>
      <trkpt lat="45.93107" lon="4.72805">
        <ele>171</ele>
        <time>2017-04-21T08:52:27Z</time>
      </trkpt>
      <trkpt lat="45.93112" lon="4.72799">
        <ele>171</ele>
        <time>2017-04-21T08:52:28Z</time>
      </trkpt>
      <trkpt lat="45.93117" lon="4.72793">
        <ele>171</ele>
        <time>2017-04-21T08:52:29Z</time>
      </trkpt>
      <trkpt lat="45.93122" lon="4.72788">
        <ele>171</ele>
        <time>2017-04-21T08:52:30Z</time>
      </trkpt>
      <trkpt lat="45.93127" lon="4.72783">
        <ele>171</ele>
        <time>2017-04-21T08:52:31Z</time>
      </trkpt>
      <trkpt lat="45.93131" lon="4.72778">
        <ele>171</ele>
        <time>2017-04-21T08:52:32Z</time>
      </trkpt>
      <trkpt lat="45.93137" lon="4.7277">
        <ele>171</ele>
        <time>2017-04-21T08:52:33Z</time>
      </trkpt>
      <trkpt lat="45.93142" lon="4.72763">
        <ele>171</ele>
        <time>2017-04-21T08:52:34Z</time>
      </trkpt>
      <trkpt lat="45.93147" lon="4.72754">
        <ele>170</ele>
        <time>2017-04-21T08:52:35Z</time>
      </trkpt>
      <trkpt lat="45.93152" lon="4.72748">
        <ele>170</ele>
        <time>2017-04-21T08:52:36Z</time>
      </trkpt>
      <trkpt lat="45.93158" lon="4.72742">
        <ele>170</ele>
        <time>2017-04-21T08:52:37Z</time>
      </trkpt>
      <trkpt lat="45.93163" lon="4.72736">
        <ele>170</ele>
        <time>2017-04-21T08:52:38Z</time>
      </trkpt>
      <trkpt lat="45.93168" lon="4.7273">
        <ele>170</ele>
        <time>2017-04-21T08:52:39Z</time>
      </trkpt>
      <trkpt lat="45.93173" lon="4.72724">
        <ele>170</ele>
        <time>2017-04-21T08:52:40Z</time>
      </trkpt>
      <trkpt lat="45.93178" lon="4.72717">
        <ele>169</ele>
        <time>2017-04-21T08:52:41Z</time>
      </trkpt>
      <trkpt lat="45.93183" lon="4.72711">
        <ele>169</ele>
        <time>2017-04-21T08:52:42Z</time>
      </trkpt>
      <trkpt lat="45.93188" lon="4.72705">
        <ele>169</ele>
        <time>2017-04-21T08:52:43Z</time>
      </trkpt>
      <trkpt lat="45.93193" lon="4.72699">
        <ele>169</ele>
        <time>2017-04-21T08:52:44Z</time>
      </trkpt>
      <trkpt lat="45.93198" lon="4.72694">
        <ele>169</ele>
        <time>2017-04-21T08:52:45Z</time>
      </trkpt>
      <trkpt lat="45.93202" lon="4.72688">
        <ele>169</ele>
        <time>2017-04-21T08:52:46Z</time>
      </trkpt>
      <trkpt lat="45.93206" lon="4.72682">
        <ele>169</ele>
        <time>2017-04-21T08:52:47Z</time>
      </trkpt>
      <trkpt lat="45.93211" lon="4.72677">
        <ele>169</ele>
        <time>2017-04-21T08:52:48Z</time>
      </trkpt>
      <trkpt lat="45.93216" lon="4.72671">
        <ele>169</ele>
        <time>2017-04-21T08:52:49Z</time>
      </trkpt>
      <trkpt lat="45.93222" lon="4.72666">
        <ele>170</ele>
        <time>2017-04-21T08:52:50Z</time>
      </trkpt>
      <trkpt lat="45.93227" lon="4.7266">
        <ele>170</ele>
        <time>2017-04-21T08:52:51Z</time>
      </trkpt>
      <trkpt lat="45.93232" lon="4.72654">
        <ele>170</ele>
        <time>2017-04-21T08:52:52Z</time>
      </trkpt>
      <trkpt lat="45.93237" lon="4.72648">
        <ele>170</ele>
        <time>2017-04-21T08:52:53Z</time>
      </trkpt>
      <trkpt lat="45.93242" lon="4.72642">
        <ele>170</ele>
        <time>2017-04-21T08:52:54Z</time>
      </trkpt>
      <trkpt lat="45.93248" lon="4.72636">
        <ele>170</ele>
        <time>2017-04-21T08:52:55Z</time>
      </trkpt>
      <trkpt lat="45.93253" lon="4.7263">
        <ele>170</ele>
        <time>2017-04-21T08:52:56Z</time>
      </trkpt>
      <trkpt lat="45.93258" lon="4.72625">
        <ele>170</ele>
        <time>2017-04-21T08:52:57Z</time>
      </trkpt>
      <trkpt lat="45.93262" lon="4.7262">
        <ele>170</ele>
        <time>2017-04-21T08:52:58Z</time>
      </trkpt>
      <trkpt lat="45.93266" lon="4.72615">
        <ele>170</ele>
        <time>2017-04-21T08:52:59Z</time>
      </trkpt>
      <trkpt lat="45.93271" lon="4.7261">
        <ele>170</ele>
        <time>2017-04-21T08:53:00Z</time>
      </trkpt>
      <trkpt lat="45.93276" lon="4.72604">
        <ele>170</ele>
        <time>2017-04-21T08:53:01Z</time>
      </trkpt>
      <trkpt lat="45.93281" lon="4.72597">
        <ele>170</ele>
        <time>2017-04-21T08:53:02Z</time>
      </trkpt>
      <trkpt lat="45.93286" lon="4.72592">
        <ele>170</ele>
        <time>2017-04-21T08:53:03Z</time>
      </trkpt>
      <trkpt lat="45.93291" lon="4.72586">
        <ele>170</ele>
        <time>2017-04-21T08:53:04Z</time>
      </trkpt>
      <trkpt lat="45.93295" lon="4.7258">
        <ele>171</ele>
        <time>2017-04-21T08:53:05Z</time>
      </trkpt>
      <trkpt lat="45.93299" lon="4.72575">
        <ele>171</ele>
        <time>2017-04-21T08:53:06Z</time>
      </trkpt>
      <trkpt lat="45.93305" lon="4.72571">
        <ele>171</ele>
        <time>2017-04-21T08:53:07Z</time>
      </trkpt>
      <trkpt lat="45.93309" lon="4.72568">
        <ele>171</ele>
        <time>2017-04-21T08:53:08Z</time>
      </trkpt>
      <trkpt lat="45.93314" lon="4.72563">
        <ele>171</ele>
        <time>2017-04-21T08:53:09Z</time>
      </trkpt>
      <trkpt lat="45.93319" lon="4.72557">
        <ele>171</ele>
        <time>2017-04-21T08:53:10Z</time>
      </trkpt>
      <trkpt lat="45.93324" lon="4.72551">
        <ele>172</ele>
        <time>2017-04-21T08:53:11Z</time>
      </trkpt>
      <trkpt lat="45.93328" lon="4.72546">
        <ele>172</ele>
        <time>2017-04-21T08:53:12Z</time>
      </trkpt>
      <trkpt lat="45.93333" lon="4.7254">
        <ele>172</ele>
        <time>2017-04-21T08:53:13Z</time>
      </trkpt>
      <trkpt lat="45.93338" lon="4.72534">
        <ele>172</ele>
        <time>2017-04-21T08:53:14Z</time>
      </trkpt>
      <trkpt lat="45.93343" lon="4.72528">
        <ele>172</ele>
        <time>2017-04-21T08:53:15Z</time>
      </trkpt>
      <trkpt lat="45.93349" lon="4.72522">
        <ele>172</ele>
        <time>2017-04-21T08:53:16Z</time>
      </trkpt>
      <trkpt lat="45.93354" lon="4.72517">
        <ele>172</ele>
        <time>2017-04-21T08:53:17Z</time>
      </trkpt>
      <trkpt lat="45.93358" lon="4.72511">
        <ele>172</ele>
        <time>2017-04-21T08:53:18Z</time>
      </trkpt>
      <trkpt lat="45.93363" lon="4.72506">
        <ele>172</ele>
        <time>2017-04-21T08:53:19Z</time>
      </trkpt>
      <trkpt lat="45.93368" lon="4.725">
        <ele>172</ele>
        <time>2017-04-21T08:53:20Z</time>
      </trkpt>
      <trkpt lat="45.93373" lon="4.72494">
        <ele>173</ele>
        <time>2017-04-21T08:53:21Z</time>
      </trkpt>
      <trkpt lat="45.93377" lon="4.72489">
        <ele>173</ele>
        <time>2017-04-21T08:53:22Z</time>
      </trkpt>
      <trkpt lat="45.93381" lon="4.72484">
        <ele>173</ele>
        <time>2017-04-21T08:53:23Z</time>
      </trkpt>
      <trkpt lat="45.93384" lon="4.72478">
        <ele>173</ele>
        <time>2017-04-21T08:53:24Z</time>
      </trkpt>
      <trkpt lat="45.93388" lon="4.72471">
        <ele>173</ele>
        <time>2017-04-21T08:53:25Z</time>
      </trkpt>
      <trkpt lat="45.93391" lon="4.72464">
        <ele>173</ele>
        <time>2017-04-21T08:53:26Z</time>
      </trkpt>
      <trkpt lat="45.93393" lon="4.72457">
        <ele>173</ele>
        <time>2017-04-21T08:53:27Z</time>
      </trkpt>
      <trkpt lat="45.93395" lon="4.72451">
        <ele>173</ele>
        <time>2017-04-21T08:53:28Z</time>
      </trkpt>
      <trkpt lat="45.93397" lon="4.72445">
        <ele>173</ele>
        <time>2017-04-21T08:53:29Z</time>
      </trkpt>
      <trkpt lat="45.934" lon="4.72439">
        <ele>173</ele>
        <time>2017-04-21T08:53:30Z</time>
      </trkpt>
      <trkpt lat="45.93404" lon="4.72432">
        <ele>173</ele>
        <time>2017-04-21T08:53:31Z</time>
      </trkpt>
      <trkpt lat="45.93408" lon="4.72426">
        <ele>174</ele>
        <time>2017-04-21T08:53:32Z</time>
      </trkpt>
      <trkpt lat="45.93412" lon="4.72422">
        <ele>174</ele>
        <time>2017-04-21T08:53:33Z</time>
      </trkpt>
      <trkpt lat="45.93418" lon="4.72418">
        <ele>174</ele>
        <time>2017-04-21T08:53:34Z</time>
      </trkpt>
      <trkpt lat="45.93424" lon="4.72415">
        <ele>174</ele>
        <time>2017-04-21T08:53:35Z</time>
      </trkpt>
      <trkpt lat="45.9343" lon="4.72412">
        <ele>174</ele>
        <time>2017-04-21T08:53:36Z</time>
      </trkpt>
      <trkpt lat="45.93436" lon="4.72407">
        <ele>174</ele>
        <time>2017-04-21T08:53:37Z</time>
      </trkpt>
      <trkpt lat="45.93442" lon="4.72402">
        <ele>173</ele>
        <time>2017-04-21T08:53:38Z</time>
      </trkpt>
      <trkpt lat="45.93448" lon="4.72397">
        <ele>173</ele>
        <time>2017-04-21T08:53:39Z</time>
      </trkpt>
      <trkpt lat="45.93453" lon="4.72392">
        <ele>173</ele>
        <time>2017-04-21T08:53:40Z</time>
      </trkpt>
      <trkpt lat="45.93457" lon="4.72388">
        <ele>173</ele>
        <time>2017-04-21T08:53:41Z</time>
      </trkpt>
      <trkpt lat="45.93461" lon="4.72383">
        <ele>173</ele>
        <time>2017-04-21T08:53:42Z</time>
      </trkpt>
      <trkpt lat="45.93466" lon="4.72377">
        <ele>173</ele>
        <time>2017-04-21T08:53:43Z</time>
      </trkpt>
      <trkpt lat="45.9347" lon="4.7237">
        <ele>173</ele>
        <time>2017-04-21T08:53:44Z</time>
      </trkpt>
      <trkpt lat="45.93474" lon="4.72365">
        <ele>173</ele>
        <time>2017-04-21T08:53:45Z</time>
      </trkpt>
      <trkpt lat="45.93478" lon="4.72359">
        <ele>173</ele>
        <time>2017-04-21T08:53:46Z</time>
      </trkpt>
      <trkpt lat="45.93483" lon="4.72354">
        <ele>173</ele>
        <time>2017-04-21T08:53:47Z</time>
      </trkpt>
      <trkpt lat="45.93487" lon="4.72347">
        <ele>173</ele>
        <time>2017-04-21T08:53:48Z</time>
      </trkpt>
      <trkpt lat="45.93491" lon="4.72342">
        <ele>173</ele>
        <time>2017-04-21T08:53:49Z</time>
      </trkpt>
      <trkpt lat="45.93495" lon="4.72336">
        <ele>173</ele>
        <time>2017-04-21T08:53:50Z</time>
      </trkpt>
      <trkpt lat="45.93498" lon="4.72331">
        <ele>173</ele>
        <time>2017-04-21T08:53:51Z</time>
      </trkpt>
      <trkpt lat="45.93502" lon="4.72326">
        <ele>173</ele>
        <time>2017-04-21T08:53:52Z</time>
      </trkpt>
      <trkpt lat="45.93506" lon="4.7232">
        <ele>173</ele>
        <time>2017-04-21T08:53:53Z</time>
      </trkpt>
      <trkpt lat="45.9351" lon="4.72314">
        <ele>173</ele>
        <time>2017-04-21T08:53:54Z</time>
      </trkpt>
      <trkpt lat="45.93514" lon="4.72308">
        <ele>173</ele>
        <time>2017-04-21T08:53:55Z</time>
      </trkpt>
      <trkpt lat="45.93517" lon="4.72301">
        <ele>172</ele>
        <time>2017-04-21T08:53:56Z</time>
      </trkpt>
      <trkpt lat="45.93521" lon="4.72294">
        <ele>172</ele>
        <time>2017-04-21T08:53:57Z</time>
      </trkpt>
      <trkpt lat="45.93524" lon="4.72286">
        <ele>172</ele>
        <time>2017-04-21T08:53:58Z</time>
      </trkpt>
      <trkpt lat="45.93527" lon="4.72279">
        <ele>172</ele>
        <time>2017-04-21T08:53:59Z</time>
      </trkpt>
      <trkpt lat="45.93529" lon="4.72272">
        <ele>172</ele>
        <time>2017-04-21T08:54:00Z</time>
      </trkpt>
      <trkpt lat="45.93532" lon="4.72265">
        <ele>172</ele>
        <time>2017-04-21T08:54:01Z</time>
      </trkpt>
      <trkpt lat="45.93535" lon="4.72259">
        <ele>172</ele>
        <time>2017-04-21T08:54:02Z</time>
      </trkpt>
      <trkpt lat="45.93538" lon="4.72252">
        <ele>172</ele>
        <time>2017-04-21T08:54:03Z</time>
      </trkpt>
      <trkpt lat="45.93541" lon="4.72244">
        <ele>172</ele>
        <time>2017-04-21T08:54:04Z</time>
      </trkpt>
      <trkpt lat="45.93544" lon="4.72237">
        <ele>172</ele>
        <time>2017-04-21T08:54:05Z</time>
      </trkpt>
      <trkpt lat="45.93547" lon="4.72231">
        <ele>172</ele>
        <time>2017-04-21T08:54:06Z</time>
      </trkpt>
      <trkpt lat="45.93551" lon="4.72227">
        <ele>172</ele>
        <time>2017-04-21T08:54:07Z</time>
      </trkpt>
      <trkpt lat="45.93556" lon="4.72225">
        <ele>173</ele>
        <time>2017-04-21T08:54:08Z</time>
      </trkpt>
      <trkpt lat="45.93562" lon="4.72226">
        <ele>173</ele>
        <time>2017-04-21T08:54:09Z</time>
      </trkpt>
      <trkpt lat="45.93568" lon="4.72228">
        <ele>173</ele>
        <time>2017-04-21T08:54:10Z</time>
      </trkpt>
      <trkpt lat="45.93572" lon="4.72232">
        <ele>173</ele>
        <time>2017-04-21T08:54:11Z</time>
      </trkpt>
      <trkpt lat="45.93576" lon="4.72237">
        <ele>173</ele>
        <time>2017-04-21T08:54:12Z</time>
      </trkpt>
      <trkpt lat="45.93581" lon="4.72242">
        <ele>173</ele>
        <time>2017-04-21T08:54:13Z</time>
      </trkpt>
      <trkpt lat="45.93585" lon="4.72247">
        <ele>173</ele>
        <time>2017-04-21T08:54:14Z</time>
      </trkpt>
      <trkpt lat="45.93589" lon="4.72251">
        <ele>173</ele>
        <time>2017-04-21T08:54:15Z</time>
      </trkpt>
      <trkpt lat="45.93593" lon="4.72255">
        <ele>173</ele>
        <time>2017-04-21T08:54:16Z</time>
      </trkpt>
      <trkpt lat="45.93597" lon="4.72258">
        <ele>173</ele>
        <time>2017-04-21T08:54:17Z</time>
      </trkpt>
      <trkpt lat="45.93601" lon="4.72263">
        <ele>173</ele>
        <time>2017-04-21T08:54:18Z</time>
      </trkpt>
      <trkpt lat="45.93606" lon="4.72267">
        <ele>173</ele>
        <time>2017-04-21T08:54:19Z</time>
      </trkpt>
      <trkpt lat="45.9361" lon="4.72271">
        <ele>172</ele>
        <time>2017-04-21T08:54:20Z</time>
      </trkpt>
      <trkpt lat="45.93614" lon="4.72274">
        <ele>172</ele>
        <time>2017-04-21T08:54:21Z</time>
      </trkpt>
      <trkpt lat="45.93618" lon="4.72278">
        <ele>172</ele>
        <time>2017-04-21T08:54:22Z</time>
      </trkpt>
      <trkpt lat="45.93623" lon="4.72282">
        <ele>172</ele>
        <time>2017-04-21T08:54:23Z</time>
      </trkpt>
      <trkpt lat="45.93627" lon="4.72287">
        <ele>172</ele>
        <time>2017-04-21T08:54:24Z</time>
      </trkpt>
      <trkpt lat="45.93632" lon="4.72291">
        <ele>172</ele>
        <time>2017-04-21T08:54:25Z</time>
      </trkpt>
      <trkpt lat="45.93636" lon="4.72296">
        <ele>172</ele>
        <time>2017-04-21T08:54:26Z</time>
      </trkpt>
      <trkpt lat="45.93641" lon="4.723">
        <ele>172</ele>
        <time>2017-04-21T08:54:27Z</time>
      </trkpt>
      <trkpt lat="45.93647" lon="4.72306">
        <ele>172</ele>
        <time>2017-04-21T08:54:28Z</time>
      </trkpt>
      <trkpt lat="45.93652" lon="4.72312">
        <ele>172</ele>
        <time>2017-04-21T08:54:29Z</time>
      </trkpt>
      <trkpt lat="45.93657" lon="4.72316">
        <ele>172</ele>
        <time>2017-04-21T08:54:30Z</time>
      </trkpt>
      <trkpt lat="45.93662" lon="4.72321">
        <ele>172</ele>
        <time>2017-04-21T08:54:31Z</time>
      </trkpt>
      <trkpt lat="45.93667" lon="4.72326">
        <ele>171</ele>
        <time>2017-04-21T08:54:32Z</time>
      </trkpt>
      <trkpt lat="45.93672" lon="4.72331">
        <ele>171</ele>
        <time>2017-04-21T08:54:33Z</time>
      </trkpt>
      <trkpt lat="45.93678" lon="4.72335">
        <ele>171</ele>
        <time>2017-04-21T08:54:34Z</time>
      </trkpt>
      <trkpt lat="45.93683" lon="4.7234">
        <ele>171</ele>
        <time>2017-04-21T08:54:35Z</time>
      </trkpt>
      <trkpt lat="45.93688" lon="4.72344">
        <ele>171</ele>
        <time>2017-04-21T08:54:36Z</time>
      </trkpt>
      <trkpt lat="45.93693" lon="4.72349">
        <ele>171</ele>
        <time>2017-04-21T08:54:37Z</time>
      </trkpt>
      <trkpt lat="45.93697" lon="4.72354">
        <ele>171</ele>
        <time>2017-04-21T08:54:38Z</time>
      </trkpt>
      <trkpt lat="45.93702" lon="4.7236">
        <ele>171</ele>
        <time>2017-04-21T08:54:39Z</time>
      </trkpt>
      <trkpt lat="45.93707" lon="4.72366">
        <ele>171</ele>
        <time>2017-04-21T08:54:40Z</time>
      </trkpt>
      <trkpt lat="45.93712" lon="4.72371">
        <ele>172</ele>
        <time>2017-04-21T08:54:41Z</time>
      </trkpt>
      <trkpt lat="45.93717" lon="4.72376">
        <ele>171</ele>
        <time>2017-04-21T08:54:42Z</time>
      </trkpt>
      <trkpt lat="45.93722" lon="4.72381">
        <ele>171</ele>
        <time>2017-04-21T08:54:43Z</time>
      </trkpt>
      <trkpt lat="45.93727" lon="4.72385">
        <ele>171</ele>
        <time>2017-04-21T08:54:44Z</time>
      </trkpt>
      <trkpt lat="45.93731" lon="4.7239">
        <ele>171</ele>
        <time>2017-04-21T08:54:45Z</time>
      </trkpt>
      <trkpt lat="45.93735" lon="4.72395">
        <ele>171</ele>
        <time>2017-04-21T08:54:46Z</time>
      </trkpt>
      <trkpt lat="45.9374" lon="4.72399">
        <ele>171</ele>
        <time>2017-04-21T08:54:47Z</time>
      </trkpt>
      <trkpt lat="45.93745" lon="4.72404">
        <ele>171</ele>
        <time>2017-04-21T08:54:48Z</time>
      </trkpt>
      <trkpt lat="45.9375" lon="4.72409">
        <ele>171</ele>
        <time>2017-04-21T08:54:49Z</time>
      </trkpt>
      <trkpt lat="45.93755" lon="4.72414">
        <ele>171</ele>
        <time>2017-04-21T08:54:50Z</time>
      </trkpt>
      <trkpt lat="45.9376" lon="4.72419">
        <ele>171</ele>
        <time>2017-04-21T08:54:51Z</time>
      </trkpt>
      <trkpt lat="45.93765" lon="4.72424">
        <ele>171</ele>
        <time>2017-04-21T08:54:52Z</time>
      </trkpt>
      <trkpt lat="45.9377" lon="4.72429">
        <ele>171</ele>
        <time>2017-04-21T08:54:53Z</time>
      </trkpt>
      <trkpt lat="45.93776" lon="4.72433">
        <ele>171</ele>
        <time>2017-04-21T08:54:54Z</time>
      </trkpt>
      <trkpt lat="45.93781" lon="4.72438">
        <ele>172</ele>
        <time>2017-04-21T08:54:55Z</time>
      </trkpt>
      <trkpt lat="45.93786" lon="4.72442">
        <ele>172</ele>
        <time>2017-04-21T08:54:56Z</time>
      </trkpt>
      <trkpt lat="45.93791" lon="4.72447">
        <ele>172</ele>
        <time>2017-04-21T08:54:57Z</time>
      </trkpt>
      <trkpt lat="45.93796" lon="4.72452">
        <ele>172</ele>
        <time>2017-04-21T08:54:58Z</time>
      </trkpt>
      <trkpt lat="45.93802" lon="4.72456">
        <ele>172</ele>
        <time>2017-04-21T08:54:59Z</time>
      </trkpt>
      <trkpt lat="45.93806" lon="4.72462">
        <ele>172</ele>
        <time>2017-04-21T08:55:00Z</time>
      </trkpt>
      <trkpt lat="45.9381" lon="4.72468">
        <ele>172</ele>
        <time>2017-04-21T08:55:01Z</time>
      </trkpt>
      <trkpt lat="45.93816" lon="4.72472">
        <ele>172</ele>
        <time>2017-04-21T08:55:02Z</time>
      </trkpt>
      <trkpt lat="45.9382" lon="4.72477">
        <ele>172</ele>
        <time>2017-04-21T08:55:03Z</time>
      </trkpt>
      <trkpt lat="45.93825" lon="4.72481">
        <ele>173</ele>
        <time>2017-04-21T08:55:04Z</time>
      </trkpt>
      <trkpt lat="45.9383" lon="4.72485">
        <ele>173</ele>
        <time>2017-04-21T08:55:05Z</time>
      </trkpt>
      <trkpt lat="45.93834" lon="4.72489">
        <ele>173</ele>
        <time>2017-04-21T08:55:06Z</time>
      </trkpt>
      <trkpt lat="45.93838" lon="4.72492">
        <ele>173</ele>
        <time>2017-04-21T08:55:07Z</time>
      </trkpt>
      <trkpt lat="45.93842" lon="4.72496">
        <ele>173</ele>
        <time>2017-04-21T08:55:08Z</time>
      </trkpt>
      <trkpt lat="45.93847" lon="4.72499">
        <ele>173</ele>
        <time>2017-04-21T08:55:09Z</time>
      </trkpt>
      <trkpt lat="45.93852" lon="4.72502">
        <ele>173</ele>
        <time>2017-04-21T08:55:10Z</time>
      </trkpt>
      <trkpt lat="45.93857" lon="4.72512">
        <ele>173</ele>
        <time>2017-04-21T08:55:11Z</time>
      </trkpt>
      <trkpt lat="45.93861" lon="4.72515">
        <ele>173</ele>
        <time>2017-04-21T08:55:12Z</time>
      </trkpt>
      <trkpt lat="45.93866" lon="4.72516">
        <ele>173</ele>
        <time>2017-04-21T08:55:13Z</time>
      </trkpt>
      <trkpt lat="45.93875" lon="4.72516">
        <ele>173</ele>
        <time>2017-04-21T08:55:15Z</time>
      </trkpt>
      <trkpt lat="45.93878" lon="4.72514">
        <ele>173</ele>
        <time>2017-04-21T08:55:16Z</time>
      </trkpt>
      <trkpt lat="45.93881" lon="4.72509">
        <ele>173</ele>
        <time>2017-04-21T08:55:17Z</time>
      </trkpt>
      <trkpt lat="45.93886" lon="4.72504">
        <ele>173</ele>
        <time>2017-04-21T08:55:18Z</time>
      </trkpt>
      <trkpt lat="45.9389" lon="4.72498">
        <ele>172</ele>
        <time>2017-04-21T08:55:19Z</time>
      </trkpt>
      <trkpt lat="45.93894" lon="4.72492">
        <ele>172</ele>
        <time>2017-04-21T08:55:20Z</time>
      </trkpt>
      <trkpt lat="45.93899" lon="4.72487">
        <ele>172</ele>
        <time>2017-04-21T08:55:21Z</time>
      </trkpt>
      <trkpt lat="45.93903" lon="4.7248">
        <ele>172</ele>
        <time>2017-04-21T08:55:22Z</time>
      </trkpt>
      <trkpt lat="45.93908" lon="4.72475">
        <ele>172</ele>
        <time>2017-04-21T08:55:23Z</time>
      </trkpt>
      <trkpt lat="45.93913" lon="4.7247">
        <ele>172</ele>
        <time>2017-04-21T08:55:24Z</time>
      </trkpt>
      <trkpt lat="45.93918" lon="4.72464">
        <ele>171</ele>
        <time>2017-04-21T08:55:25Z</time>
      </trkpt>
      <trkpt lat="45.93923" lon="4.72458">
        <ele>171</ele>
        <time>2017-04-21T08:55:26Z</time>
      </trkpt>
      <trkpt lat="45.93928" lon="4.72451">
        <ele>171</ele>
        <time>2017-04-21T08:55:27Z</time>
      </trkpt>
      <trkpt lat="45.93932" lon="4.72446">
        <ele>171</ele>
        <time>2017-04-21T08:55:28Z</time>
      </trkpt>
      <trkpt lat="45.93937" lon="4.7244">
        <ele>171</ele>
        <time>2017-04-21T08:55:29Z</time>
      </trkpt>
      <trkpt lat="45.93941" lon="4.72435">
        <ele>171</ele>
        <time>2017-04-21T08:55:30Z</time>
      </trkpt>
      <trkpt lat="45.93945" lon="4.72431">
        <ele>171</ele>
        <time>2017-04-21T08:55:31Z</time>
      </trkpt>
      <trkpt lat="45.9395" lon="4.72427">
        <ele>171</ele>
        <time>2017-04-21T08:55:32Z</time>
      </trkpt>
      <trkpt lat="45.93954" lon="4.72422">
        <ele>171</ele>
        <time>2017-04-21T08:55:33Z</time>
      </trkpt>
      <trkpt lat="45.93959" lon="4.72416">
        <ele>171</ele>
        <time>2017-04-21T08:55:34Z</time>
      </trkpt>
      <trkpt lat="45.93963" lon="4.72411">
        <ele>171</ele>
        <time>2017-04-21T08:55:35Z</time>
      </trkpt>
      <trkpt lat="45.93968" lon="4.72405">
        <ele>171</ele>
        <time>2017-04-21T08:55:36Z</time>
      </trkpt>
      <trkpt lat="45.93973" lon="4.72399">
        <ele>171</ele>
        <time>2017-04-21T08:55:37Z</time>
      </trkpt>
      <trkpt lat="45.93977" lon="4.72393">
        <ele>171</ele>
        <time>2017-04-21T08:55:38Z</time>
      </trkpt>
      <trkpt lat="45.93982" lon="4.72388">
        <ele>171</ele>
        <time>2017-04-21T08:55:39Z</time>
      </trkpt>
      <trkpt lat="45.93987" lon="4.72382">
        <ele>171</ele>
        <time>2017-04-21T08:55:40Z</time>
      </trkpt>
      <trkpt lat="45.93992" lon="4.72376">
        <ele>171</ele>
        <time>2017-04-21T08:55:41Z</time>
      </trkpt>
      <trkpt lat="45.93996" lon="4.72371">
        <ele>171</ele>
        <time>2017-04-21T08:55:42Z</time>
      </trkpt>
      <trkpt lat="45.94001" lon="4.72366">
        <ele>171</ele>
        <time>2017-04-21T08:55:43Z</time>
      </trkpt>
      <trkpt lat="45.94005" lon="4.7236">
        <ele>171</ele>
        <time>2017-04-21T08:55:44Z</time>
      </trkpt>
      <trkpt lat="45.94009" lon="4.72355">
        <ele>171</ele>
        <time>2017-04-21T08:55:45Z</time>
      </trkpt>
      <trkpt lat="45.94013" lon="4.7235">
        <ele>171</ele>
        <time>2017-04-21T08:55:46Z</time>
      </trkpt>
      <trkpt lat="45.94018" lon="4.72343">
        <ele>171</ele>
        <time>2017-04-21T08:55:47Z</time>
      </trkpt>
      <trkpt lat="45.94022" lon="4.72336">
        <ele>171</ele>
        <time>2017-04-21T08:55:48Z</time>
      </trkpt>
      <trkpt lat="45.94026" lon="4.72331">
        <ele>171</ele>
        <time>2017-04-21T08:55:49Z</time>
      </trkpt>
      <trkpt lat="45.94031" lon="4.72326">
        <ele>171</ele>
        <time>2017-04-21T08:55:50Z</time>
      </trkpt>
      <trkpt lat="45.94035" lon="4.7232">
        <ele>171</ele>
        <time>2017-04-21T08:55:51Z</time>
      </trkpt>
      <trkpt lat="45.9404" lon="4.72313">
        <ele>171</ele>
        <time>2017-04-21T08:55:52Z</time>
      </trkpt>
      <trkpt lat="45.94044" lon="4.72307">
        <ele>171</ele>
        <time>2017-04-21T08:55:53Z</time>
      </trkpt>
      <trkpt lat="45.94049" lon="4.723">
        <ele>171</ele>
        <time>2017-04-21T08:55:54Z</time>
      </trkpt>
      <trkpt lat="45.94053" lon="4.72294">
        <ele>171</ele>
        <time>2017-04-21T08:55:55Z</time>
      </trkpt>
      <trkpt lat="45.94058" lon="4.72288">
        <ele>171</ele>
        <time>2017-04-21T08:55:56Z</time>
      </trkpt>
      <trkpt lat="45.94062" lon="4.72283">
        <ele>171</ele>
        <time>2017-04-21T08:55:57Z</time>
      </trkpt>
      <trkpt lat="45.94067" lon="4.72278">
        <ele>171</ele>
        <time>2017-04-21T08:55:58Z</time>
      </trkpt>
      <trkpt lat="45.94072" lon="4.72273">
        <ele>171</ele>
        <time>2017-04-21T08:55:59Z</time>
      </trkpt>
      <trkpt lat="45.94078" lon="4.72269">
        <ele>171</ele>
        <time>2017-04-21T08:56:00Z</time>
      </trkpt>
      <trkpt lat="45.94083" lon="4.72266">
        <ele>171</ele>
        <time>2017-04-21T08:56:01Z</time>
      </trkpt>
      <trkpt lat="45.94089" lon="4.72264">
        <ele>171</ele>
        <time>2017-04-21T08:56:02Z</time>
      </trkpt>
      <trkpt lat="45.94095" lon="4.72264">
        <ele>171</ele>
        <time>2017-04-21T08:56:03Z</time>
      </trkpt>
      <trkpt lat="45.94101" lon="4.72264">
        <ele>171</ele>
        <time>2017-04-21T08:56:04Z</time>
      </trkpt>
      <trkpt lat="45.94106" lon="4.72266">
        <ele>171</ele>
        <time>2017-04-21T08:56:05Z</time>
      </trkpt>
      <trkpt lat="45.94112" lon="4.72268">
        <ele>171</ele>
        <time>2017-04-21T08:56:06Z</time>
      </trkpt>
      <trkpt lat="45.94117" lon="4.7227">
        <ele>171</ele>
        <time>2017-04-21T08:56:07Z</time>
      </trkpt>
      <trkpt lat="45.94122" lon="4.72273">
        <ele>171</ele>
        <time>2017-04-21T08:56:08Z</time>
      </trkpt>
      <trkpt lat="45.94128" lon="4.72276">
        <ele>171</ele>
        <time>2017-04-21T08:56:09Z</time>
      </trkpt>
      <trkpt lat="45.94133" lon="4.72279">
        <ele>171</ele>
        <time>2017-04-21T08:56:10Z</time>
      </trkpt>
      <trkpt lat="45.94138" lon="4.72281">
        <ele>171</ele>
        <time>2017-04-21T08:56:11Z</time>
      </trkpt>
      <trkpt lat="45.94143" lon="4.72284">
        <ele>171</ele>
        <time>2017-04-21T08:56:12Z</time>
      </trkpt>
      <trkpt lat="45.94148" lon="4.72286">
        <ele>171</ele>
        <time>2017-04-21T08:56:13Z</time>
      </trkpt>
      <trkpt lat="45.94154" lon="4.72287">
        <ele>171</ele>
        <time>2017-04-21T08:56:14Z</time>
      </trkpt>
      <trkpt lat="45.94159" lon="4.72288">
        <ele>171</ele>
        <time>2017-04-21T08:56:15Z</time>
      </trkpt>
      <trkpt lat="45.94165" lon="4.72289">
        <ele>171</ele>
        <time>2017-04-21T08:56:16Z</time>
      </trkpt>
      <trkpt lat="45.9417" lon="4.7229">
        <ele>171</ele>
        <time>2017-04-21T08:56:17Z</time>
      </trkpt>
      <trkpt lat="45.94175" lon="4.72291">
        <ele>171</ele>
        <time>2017-04-21T08:56:18Z</time>
      </trkpt>
      <trkpt lat="45.9418" lon="4.72291">
        <ele>171</ele>
        <time>2017-04-21T08:56:19Z</time>
      </trkpt>
      <trkpt lat="45.94185" lon="4.72291">
        <ele>171</ele>
        <time>2017-04-21T08:56:20Z</time>
      </trkpt>
      <trkpt lat="45.94191" lon="4.72291">
        <ele>171</ele>
        <time>2017-04-21T08:56:21Z</time>
      </trkpt>
      <trkpt lat="45.94196" lon="4.72292">
        <ele>171</ele>
        <time>2017-04-21T08:56:22Z</time>
      </trkpt>
      <trkpt lat="45.94201" lon="4.72292">
        <ele>171</ele>
        <time>2017-04-21T08:56:23Z</time>
      </trkpt>
      <trkpt lat="45.94206" lon="4.72292">
        <ele>171</ele>
        <time>2017-04-21T08:56:24Z</time>
      </trkpt>
      <trkpt lat="45.94211" lon="4.72292">
        <ele>171</ele>
        <time>2017-04-21T08:56:25Z</time>
      </trkpt>
      <trkpt lat="45.94217" lon="4.72291">
        <ele>171</ele>
        <time>2017-04-21T08:56:26Z</time>
      </trkpt>
      <trkpt lat="45.94222" lon="4.72291">
        <ele>171</ele>
        <time>2017-04-21T08:56:27Z</time>
      </trkpt>
      <trkpt lat="45.94228" lon="4.7229">
        <ele>171</ele>
        <time>2017-04-21T08:56:28Z</time>
      </trkpt>
      <trkpt lat="45.94233" lon="4.72288">
        <ele>171</ele>
        <time>2017-04-21T08:56:29Z</time>
      </trkpt>
      <trkpt lat="45.94237" lon="4.72287">
        <ele>171</ele>
        <time>2017-04-21T08:56:30Z</time>
      </trkpt>
      <trkpt lat="45.94242" lon="4.72285">
        <ele>171</ele>
        <time>2017-04-21T08:56:31Z</time>
      </trkpt>
      <trkpt lat="45.94247" lon="4.72283">
        <ele>171</ele>
        <time>2017-04-21T08:56:32Z</time>
      </trkpt>
      <trkpt lat="45.94251" lon="4.72282">
        <ele>171</ele>
        <time>2017-04-21T08:56:33Z</time>
      </trkpt>
      <trkpt lat="45.94256" lon="4.7228">
        <ele>171</ele>
        <time>2017-04-21T08:56:34Z</time>
      </trkpt>
      <trkpt lat="45.94264" lon="4.7228">
        <ele>171</ele>
        <time>2017-04-21T08:56:36Z</time>
      </trkpt>
      <trkpt lat="45.94267" lon="4.72281">
        <ele>171</ele>
        <time>2017-04-21T08:56:37Z</time>
      </trkpt>
      <trkpt lat="45.94272" lon="4.72285">
        <ele>171</ele>
        <time>2017-04-21T08:56:39Z</time>
      </trkpt>
      <trkpt lat="45.94274" lon="4.7229">
        <ele>171</ele>
        <time>2017-04-21T08:56:40Z</time>
      </trkpt>
      <trkpt lat="45.94279" lon="4.723">
        <ele>171</ele>
        <time>2017-04-21T08:56:42Z</time>
      </trkpt>
      <trkpt lat="45.94282" lon="4.72305">
        <ele>171</ele>
        <time>2017-04-21T08:56:43Z</time>
      </trkpt>
      <trkpt lat="45.94286" lon="4.72311">
        <ele>171</ele>
        <time>2017-04-21T08:56:44Z</time>
      </trkpt>
      <trkpt lat="45.94289" lon="4.72318">
        <ele>171</ele>
        <time>2017-04-21T08:56:45Z</time>
      </trkpt>
      <trkpt lat="45.94292" lon="4.72324">
        <ele>171</ele>
        <time>2017-04-21T08:56:46Z</time>
      </trkpt>
      <trkpt lat="45.94296" lon="4.7233">
        <ele>171</ele>
        <time>2017-04-21T08:56:47Z</time>
      </trkpt>
      <trkpt lat="45.94299" lon="4.72336">
        <ele>172</ele>
        <time>2017-04-21T08:56:48Z</time>
      </trkpt>
      <trkpt lat="45.94301" lon="4.72343">
        <ele>172</ele>
        <time>2017-04-21T08:56:49Z</time>
      </trkpt>
      <trkpt lat="45.94305" lon="4.7235">
        <ele>172</ele>
        <time>2017-04-21T08:56:50Z</time>
      </trkpt>
      <trkpt lat="45.94308" lon="4.72356">
        <ele>172</ele>
        <time>2017-04-21T08:56:51Z</time>
      </trkpt>
      <trkpt lat="45.94312" lon="4.72363">
        <ele>172</ele>
        <time>2017-04-21T08:56:52Z</time>
      </trkpt>
      <trkpt lat="45.94315" lon="4.7237">
        <ele>172</ele>
        <time>2017-04-21T08:56:53Z</time>
      </trkpt>
      <trkpt lat="45.94318" lon="4.72377">
        <ele>172</ele>
        <time>2017-04-21T08:56:54Z</time>
      </trkpt>
      <trkpt lat="45.94322" lon="4.72384">
        <ele>172</ele>
        <time>2017-04-21T08:56:55Z</time>
      </trkpt>
      <trkpt lat="45.94325" lon="4.7239">
        <ele>172</ele>
        <time>2017-04-21T08:56:56Z</time>
      </trkpt>
      <trkpt lat="45.94328" lon="4.72397">
        <ele>172</ele>
        <time>2017-04-21T08:56:57Z</time>
      </trkpt>
      <trkpt lat="45.94331" lon="4.72404">
        <ele>173</ele>
        <time>2017-04-21T08:56:58Z</time>
      </trkpt>
      <trkpt lat="45.94334" lon="4.72411">
        <ele>173</ele>
        <time>2017-04-21T08:56:59Z</time>
      </trkpt>
      <trkpt lat="45.94337" lon="4.72419">
        <ele>173</ele>
        <time>2017-04-21T08:57:00Z</time>
      </trkpt>
      <trkpt lat="45.94341" lon="4.72426">
        <ele>173</ele>
        <time>2017-04-21T08:57:01Z</time>
      </trkpt>
      <trkpt lat="45.94344" lon="4.72433">
        <ele>173</ele>
        <time>2017-04-21T08:57:02Z</time>
      </trkpt>
      <trkpt lat="45.94348" lon="4.72441">
        <ele>173</ele>
        <time>2017-04-21T08:57:03Z</time>
      </trkpt>
      <trkpt lat="45.94351" lon="4.72448">
        <ele>173</ele>
        <time>2017-04-21T08:57:04Z</time>
      </trkpt>
      <trkpt lat="45.94354" lon="4.72455">
        <ele>173</ele>
        <time>2017-04-21T08:57:05Z</time>
      </trkpt>
      <trkpt lat="45.94358" lon="4.72463">
        <ele>173</ele>
        <time>2017-04-21T08:57:06Z</time>
      </trkpt>
      <trkpt lat="45.94361" lon="4.7247">
        <ele>173</ele>
        <time>2017-04-21T08:57:07Z</time>
      </trkpt>
      <trkpt lat="45.94364" lon="4.72477">
        <ele>173</ele>
        <time>2017-04-21T08:57:08Z</time>
      </trkpt>
      <trkpt lat="45.94367" lon="4.72484">
        <ele>173</ele>
        <time>2017-04-21T08:57:09Z</time>
      </trkpt>
      <trkpt lat="45.94371" lon="4.72491">
        <ele>173</ele>
        <time>2017-04-21T08:57:10Z</time>
      </trkpt>
      <trkpt lat="45.94373" lon="4.72499">
        <ele>173</ele>
        <time>2017-04-21T08:57:11Z</time>
      </trkpt>
      <trkpt lat="45.94376" lon="4.72506">
        <ele>174</ele>
        <time>2017-04-21T08:57:12Z</time>
      </trkpt>
      <trkpt lat="45.94378" lon="4.72513">
        <ele>174</ele>
        <time>2017-04-21T08:57:13Z</time>
      </trkpt>
      <trkpt lat="45.94381" lon="4.72521">
        <ele>174</ele>
        <time>2017-04-21T08:57:14Z</time>
      </trkpt>
      <trkpt lat="45.94383" lon="4.72528">
        <ele>174</ele>
        <time>2017-04-21T08:57:15Z</time>
      </trkpt>
      <trkpt lat="45.94385" lon="4.72536">
        <ele>174</ele>
        <time>2017-04-21T08:57:16Z</time>
      </trkpt>
      <trkpt lat="45.94387" lon="4.72544">
        <ele>173</ele>
        <time>2017-04-21T08:57:17Z</time>
      </trkpt>
      <trkpt lat="45.94388" lon="4.72553">
        <ele>173</ele>
        <time>2017-04-21T08:57:18Z</time>
      </trkpt>
      <trkpt lat="45.94389" lon="4.72561">
        <ele>173</ele>
        <time>2017-04-21T08:57:19Z</time>
      </trkpt>
      <trkpt lat="45.94391" lon="4.72569">
        <ele>173</ele>
        <time>2017-04-21T08:57:20Z</time>
      </trkpt>
      <trkpt lat="45.94392" lon="4.72577">
        <ele>173</ele>
        <time>2017-04-21T08:57:21Z</time>
      </trkpt>
      <trkpt lat="45.94393" lon="4.72585">
        <ele>173</ele>
        <time>2017-04-21T08:57:22Z</time>
      </trkpt>
      <trkpt lat="45.94395" lon="4.72594">
        <ele>173</ele>
        <time>2017-04-21T08:57:23Z</time>
      </trkpt>
      <trkpt lat="45.94396" lon="4.72603">
        <ele>173</ele>
        <time>2017-04-21T08:57:24Z</time>
      </trkpt>
      <trkpt lat="45.94396" lon="4.72611">
        <ele>173</ele>
        <time>2017-04-21T08:57:25Z</time>
      </trkpt>
      <trkpt lat="45.94397" lon="4.72619">
        <ele>173</ele>
        <time>2017-04-21T08:57:26Z</time>
      </trkpt>
      <trkpt lat="45.94399" lon="4.72628">
        <ele>174</ele>
        <time>2017-04-21T08:57:27Z</time>
      </trkpt>
      <trkpt lat="45.944" lon="4.72636">
        <ele>174</ele>
        <time>2017-04-21T08:57:28Z</time>
      </trkpt>
      <trkpt lat="45.94401" lon="4.72644">
        <ele>174</ele>
        <time>2017-04-21T08:57:29Z</time>
      </trkpt>
      <trkpt lat="45.94402" lon="4.72652">
        <ele>174</ele>
        <time>2017-04-21T08:57:30Z</time>
      </trkpt>
      <trkpt lat="45.94404" lon="4.72661">
        <ele>174</ele>
        <time>2017-04-21T08:57:31Z</time>
      </trkpt>
      <trkpt lat="45.94405" lon="4.72669">
        <ele>173</ele>
        <time>2017-04-21T08:57:32Z</time>
      </trkpt>
      <trkpt lat="45.94406" lon="4.72677">
        <ele>173</ele>
        <time>2017-04-21T08:57:33Z</time>
      </trkpt>
      <trkpt lat="45.94407" lon="4.72686">
        <ele>173</ele>
        <time>2017-04-21T08:57:34Z</time>
      </trkpt>
      <trkpt lat="45.94408" lon="4.72694">
        <ele>173</ele>
        <time>2017-04-21T08:57:35Z</time>
      </trkpt>
      <trkpt lat="45.94409" lon="4.72702">
        <ele>172</ele>
        <time>2017-04-21T08:57:36Z</time>
      </trkpt>
      <trkpt lat="45.94409" lon="4.7271">
        <ele>172</ele>
        <time>2017-04-21T08:57:37Z</time>
      </trkpt>
      <trkpt lat="45.9441" lon="4.72717">
        <ele>172</ele>
        <time>2017-04-21T08:57:38Z</time>
      </trkpt>
      <trkpt lat="45.94411" lon="4.72725">
        <ele>172</ele>
        <time>2017-04-21T08:57:39Z</time>
      </trkpt>
      <trkpt lat="45.94412" lon="4.72733">
        <ele>172</ele>
        <time>2017-04-21T08:57:40Z</time>
      </trkpt>
      <trkpt lat="45.94413" lon="4.72741">
        <ele>171</ele>
        <time>2017-04-21T08:57:41Z</time>
      </trkpt>
      <trkpt lat="45.94414" lon="4.72748">
        <ele>171</ele>
        <time>2017-04-21T08:57:42Z</time>
      </trkpt>
      <trkpt lat="45.94415" lon="4.72756">
        <ele>170</ele>
        <time>2017-04-21T08:57:43Z</time>
      </trkpt>
      <trkpt lat="45.94417" lon="4.72764">
        <ele>170</ele>
        <time>2017-04-21T08:57:44Z</time>
      </trkpt>
      <trkpt lat="45.94418" lon="4.72772">
        <ele>169</ele>
        <time>2017-04-21T08:57:45Z</time>
      </trkpt>
      <trkpt lat="45.94419" lon="4.7278">
        <ele>168</ele>
        <time>2017-04-21T08:57:46Z</time>
      </trkpt>
      <trkpt lat="45.9442" lon="4.72788">
        <ele>168</ele>
        <time>2017-04-21T08:57:47Z</time>
      </trkpt>
      <trkpt lat="45.94421" lon="4.72796">
        <ele>168</ele>
        <time>2017-04-21T08:57:48Z</time>
      </trkpt>
      <trkpt lat="45.94422" lon="4.72804">
        <ele>167</ele>
        <time>2017-04-21T08:57:49Z</time>
      </trkpt>
      <trkpt lat="45.94422" lon="4.72812">
        <ele>167</ele>
        <time>2017-04-21T08:57:50Z</time>
      </trkpt>
      <trkpt lat="45.94423" lon="4.72819">
        <ele>167</ele>
        <time>2017-04-21T08:57:51Z</time>
      </trkpt>
      <trkpt lat="45.94424" lon="4.72827">
        <ele>166</ele>
        <time>2017-04-21T08:57:52Z</time>
      </trkpt>
      <trkpt lat="45.94426" lon="4.72835">
        <ele>166</ele>
        <time>2017-04-21T08:57:53Z</time>
      </trkpt>
      <trkpt lat="45.94427" lon="4.72842">
        <ele>166</ele>
        <time>2017-04-21T08:57:54Z</time>
      </trkpt>
      <trkpt lat="45.94428" lon="4.7285">
        <ele>166</ele>
        <time>2017-04-21T08:57:55Z</time>
      </trkpt>
      <trkpt lat="45.94429" lon="4.72858">
        <ele>166</ele>
        <time>2017-04-21T08:57:56Z</time>
      </trkpt>
      <trkpt lat="45.9443" lon="4.72865">
        <ele>166</ele>
        <time>2017-04-21T08:57:57Z</time>
      </trkpt>
      <trkpt lat="45.94431" lon="4.72871">
        <ele>166</ele>
        <time>2017-04-21T08:57:58Z</time>
      </trkpt>
      <trkpt lat="45.94433" lon="4.72878">
        <ele>166</ele>
        <time>2017-04-21T08:57:59Z</time>
      </trkpt>
      <trkpt lat="45.94433" lon="4.72885">
        <ele>166</ele>
        <time>2017-04-21T08:58:00Z</time>
      </trkpt>
      <trkpt lat="45.94434" lon="4.72892">
        <ele>166</ele>
        <time>2017-04-21T08:58:01Z</time>
      </trkpt>
      <trkpt lat="45.94435" lon="4.72904">
        <ele>166</ele>
        <time>2017-04-21T08:58:03Z</time>
      </trkpt>
      <trkpt lat="45.94436" lon="4.72911">
        <ele>166</ele>
        <time>2017-04-21T08:58:04Z</time>
      </trkpt>
      <trkpt lat="45.94437" lon="4.72917">
        <ele>167</ele>
        <time>2017-04-21T08:58:05Z</time>
      </trkpt>
      <trkpt lat="45.94438" lon="4.72924">
        <ele>167</ele>
        <time>2017-04-21T08:58:06Z</time>
      </trkpt>
      <trkpt lat="45.94439" lon="4.72931">
        <ele>167</ele>
        <time>2017-04-21T08:58:07Z</time>
      </trkpt>
      <trkpt lat="45.9444" lon="4.72938">
        <ele>167</ele>
        <time>2017-04-21T08:58:08Z</time>
      </trkpt>
      <trkpt lat="45.94442" lon="4.72946">
        <ele>167</ele>
        <time>2017-04-21T08:58:09Z</time>
      </trkpt>
      <trkpt lat="45.94443" lon="4.72954">
        <ele>167</ele>
        <time>2017-04-21T08:58:10Z</time>
      </trkpt>
      <trkpt lat="45.94444" lon="4.72963">
        <ele>167</ele>
        <time>2017-04-21T08:58:11Z</time>
      </trkpt>
      <trkpt lat="45.94445" lon="4.72971">
        <ele>167</ele>
        <time>2017-04-21T08:58:12Z</time>
      </trkpt>
      <trkpt lat="45.94446" lon="4.72981">
        <ele>167</ele>
        <time>2017-04-21T08:58:13Z</time>
      </trkpt>
      <trkpt lat="45.94447" lon="4.7299">
        <ele>167</ele>
        <time>2017-04-21T08:58:14Z</time>
      </trkpt>
      <trkpt lat="45.94449" lon="4.72999">
        <ele>167</ele>
        <time>2017-04-21T08:58:15Z</time>
      </trkpt>
      <trkpt lat="45.9445" lon="4.73008">
        <ele>169</ele>
        <time>2017-04-21T08:58:16Z</time>
      </trkpt>
      <trkpt lat="45.94451" lon="4.73018">
        <ele>169</ele>
        <time>2017-04-21T08:58:17Z</time>
      </trkpt>
      <trkpt lat="45.94452" lon="4.73027">
        <ele>169</ele>
        <time>2017-04-21T08:58:18Z</time>
      </trkpt>
      <trkpt lat="45.94454" lon="4.73037">
        <ele>169</ele>
        <time>2017-04-21T08:58:19Z</time>
      </trkpt>
      <trkpt lat="45.94455" lon="4.73047">
        <ele>169</ele>
        <time>2017-04-21T08:58:20Z</time>
      </trkpt>
      <trkpt lat="45.94457" lon="4.73057">
        <ele>170</ele>
        <time>2017-04-21T08:58:21Z</time>
      </trkpt>
      <trkpt lat="45.94459" lon="4.73068">
        <ele>170</ele>
        <time>2017-04-21T08:58:22Z</time>
      </trkpt>
      <trkpt lat="45.9446" lon="4.73078">
        <ele>170</ele>
        <time>2017-04-21T08:58:23Z</time>
      </trkpt>
      <trkpt lat="45.94461" lon="4.73088">
        <ele>171</ele>
        <time>2017-04-21T08:58:24Z</time>
      </trkpt>
      <trkpt lat="45.94462" lon="4.73097">
        <ele>171</ele>
        <time>2017-04-21T08:58:25Z</time>
      </trkpt>
      <trkpt lat="45.94463" lon="4.73106">
        <ele>172</ele>
        <time>2017-04-21T08:58:26Z</time>
      </trkpt>
      <trkpt lat="45.94464" lon="4.73115">
        <ele>172</ele>
        <time>2017-04-21T08:58:27Z</time>
      </trkpt>
      <trkpt lat="45.94465" lon="4.73123">
        <ele>172</ele>
        <time>2017-04-21T08:58:28Z</time>
      </trkpt>
      <trkpt lat="45.94467" lon="4.73131">
        <ele>172</ele>
        <time>2017-04-21T08:58:29Z</time>
      </trkpt>
      <trkpt lat="45.94468" lon="4.73139">
        <ele>172</ele>
        <time>2017-04-21T08:58:30Z</time>
      </trkpt>
      <trkpt lat="45.94469" lon="4.73146">
        <ele>172</ele>
        <time>2017-04-21T08:58:31Z</time>
      </trkpt>
      <trkpt lat="45.9447" lon="4.73154">
        <ele>172</ele>
        <time>2017-04-21T08:58:32Z</time>
      </trkpt>
      <trkpt lat="45.94471" lon="4.73162">
        <ele>172</ele>
        <time>2017-04-21T08:58:33Z</time>
      </trkpt>
      <trkpt lat="45.94472" lon="4.7317">
        <ele>174</ele>
        <time>2017-04-21T08:58:34Z</time>
      </trkpt>
      <trkpt lat="45.94473" lon="4.73177">
        <ele>174</ele>
        <time>2017-04-21T08:58:35Z</time>
      </trkpt>
      <trkpt lat="45.94473" lon="4.73184">
        <ele>174</ele>
        <time>2017-04-21T08:58:36Z</time>
      </trkpt>
      <trkpt lat="45.94474" lon="4.73192">
        <ele>174</ele>
        <time>2017-04-21T08:58:37Z</time>
      </trkpt>
      <trkpt lat="45.94476" lon="4.732">
        <ele>174</ele>
        <time>2017-04-21T08:58:38Z</time>
      </trkpt>
      <trkpt lat="45.94477" lon="4.73208">
        <ele>175</ele>
        <time>2017-04-21T08:58:39Z</time>
      </trkpt>
      <trkpt lat="45.94478" lon="4.73215">
        <ele>175</ele>
        <time>2017-04-21T08:58:40Z</time>
      </trkpt>
      <trkpt lat="45.94479" lon="4.73222">
        <ele>175</ele>
        <time>2017-04-21T08:58:41Z</time>
      </trkpt>
      <trkpt lat="45.9448" lon="4.73229">
        <ele>175</ele>
        <time>2017-04-21T08:58:42Z</time>
      </trkpt>
      <trkpt lat="45.94482" lon="4.73241">
        <ele>175</ele>
        <time>2017-04-21T08:58:44Z</time>
      </trkpt>
      <trkpt lat="45.94483" lon="4.73247">
        <ele>175</ele>
        <time>2017-04-21T08:58:45Z</time>
      </trkpt>
      <trkpt lat="45.94485" lon="4.73258">
        <ele>176</ele>
        <time>2017-04-21T08:58:47Z</time>
      </trkpt>
      <trkpt lat="45.94486" lon="4.73265">
        <ele>177</ele>
        <time>2017-04-21T08:58:48Z</time>
      </trkpt>
      <trkpt lat="45.94487" lon="4.73271">
        <ele>177</ele>
        <time>2017-04-21T08:58:49Z</time>
      </trkpt>
      <trkpt lat="45.94487" lon="4.73278">
        <ele>177</ele>
        <time>2017-04-21T08:58:50Z</time>
      </trkpt>
      <trkpt lat="45.94489" lon="4.7329">
        <ele>177</ele>
        <time>2017-04-21T08:58:52Z</time>
      </trkpt>
      <trkpt lat="45.94489" lon="4.73296">
        <ele>177</ele>
        <time>2017-04-21T08:58:53Z</time>
      </trkpt>
      <trkpt lat="45.9449" lon="4.73308">
        <ele>177</ele>
        <time>2017-04-21T08:58:55Z</time>
      </trkpt>
      <trkpt lat="45.94491" lon="4.73313">
        <ele>177</ele>
        <time>2017-04-21T08:58:56Z</time>
      </trkpt>
      <trkpt lat="45.94491" lon="4.73325">
        <ele>177</ele>
        <time>2017-04-21T08:58:58Z</time>
      </trkpt>
      <trkpt lat="45.94492" lon="4.73331">
        <ele>177</ele>
        <time>2017-04-21T08:58:59Z</time>
      </trkpt>
      <trkpt lat="45.94492" lon="4.73343">
        <ele>178</ele>
        <time>2017-04-21T08:59:01Z</time>
      </trkpt>
      <trkpt lat="45.94493" lon="4.73349">
        <ele>178</ele>
        <time>2017-04-21T08:59:02Z</time>
      </trkpt>
      <trkpt lat="45.94494" lon="4.73361">
        <ele>179</ele>
        <time>2017-04-21T08:59:04Z</time>
      </trkpt>
      <trkpt lat="45.94495" lon="4.73367">
        <ele>179</ele>
        <time>2017-04-21T08:59:05Z</time>
      </trkpt>
      <trkpt lat="45.94497" lon="4.73379">
        <ele>179</ele>
        <time>2017-04-21T08:59:07Z</time>
      </trkpt>
      <trkpt lat="45.94497" lon="4.73385">
        <ele>179</ele>
        <time>2017-04-21T08:59:08Z</time>
      </trkpt>
      <trkpt lat="45.94499" lon="4.73396">
        <ele>179</ele>
        <time>2017-04-21T08:59:10Z</time>
      </trkpt>
      <trkpt lat="45.945" lon="4.73402">
        <ele>180</ele>
        <time>2017-04-21T08:59:11Z</time>
      </trkpt>
      <trkpt lat="45.94499" lon="4.73413">
        <ele>180</ele>
        <time>2017-04-21T08:59:13Z</time>
      </trkpt>
      <trkpt lat="45.94498" lon="4.73419">
        <ele>180</ele>
        <time>2017-04-21T08:59:14Z</time>
      </trkpt>
      <trkpt lat="45.94498" lon="4.7343">
        <ele>181</ele>
        <time>2017-04-21T08:59:16Z</time>
      </trkpt>
      <trkpt lat="45.94499" lon="4.73436">
        <ele>181</ele>
        <time>2017-04-21T08:59:17Z</time>
      </trkpt>
      <trkpt lat="45.94499" lon="4.73446">
        <ele>181</ele>
        <time>2017-04-21T08:59:19Z</time>
      </trkpt>
      <trkpt lat="45.94499" lon="4.73451">
        <ele>182</ele>
        <time>2017-04-21T08:59:20Z</time>
      </trkpt>
      <trkpt lat="45.945" lon="4.73461">
        <ele>181</ele>
        <time>2017-04-21T08:59:22Z</time>
      </trkpt>
      <trkpt lat="45.94501" lon="4.73467">
        <ele>181</ele>
        <time>2017-04-21T08:59:23Z</time>
      </trkpt>
      <trkpt lat="45.94501" lon="4.73476">
        <ele>182</ele>
        <time>2017-04-21T08:59:25Z</time>
      </trkpt>
      <trkpt lat="45.94501" lon="4.73481">
        <ele>182</ele>
        <time>2017-04-21T08:59:26Z</time>
      </trkpt>
      <trkpt lat="45.94499" lon="4.73492">
        <ele>183</ele>
        <time>2017-04-21T08:59:28Z</time>
      </trkpt>
      <trkpt lat="45.94498" lon="4.73498">
        <ele>183</ele>
        <time>2017-04-21T08:59:29Z</time>
      </trkpt>
      <trkpt lat="45.94497" lon="4.73509">
        <ele>184</ele>
        <time>2017-04-21T08:59:31Z</time>
      </trkpt>
      <trkpt lat="45.94497" lon="4.73514">
        <ele>184</ele>
        <time>2017-04-21T08:59:32Z</time>
      </trkpt>
      <trkpt lat="45.94497" lon="4.73526">
        <ele>184</ele>
        <time>2017-04-21T08:59:35Z</time>
      </trkpt>
      <trkpt lat="45.94497" lon="4.7353">
        <ele>184</ele>
        <time>2017-04-21T08:59:36Z</time>
      </trkpt>
      <trkpt lat="45.94496" lon="4.7354">
        <ele>184</ele>
        <time>2017-04-21T08:59:38Z</time>
      </trkpt>
      <trkpt lat="45.94496" lon="4.73544">
        <ele>185</ele>
        <time>2017-04-21T08:59:39Z</time>
      </trkpt>
      <trkpt lat="45.94496" lon="4.73554">
        <ele>185</ele>
        <time>2017-04-21T08:59:41Z</time>
      </trkpt>
      <trkpt lat="45.94496" lon="4.73559">
        <ele>185</ele>
        <time>2017-04-21T08:59:42Z</time>
      </trkpt>
      <trkpt lat="45.94496" lon="4.73569">
        <ele>185</ele>
        <time>2017-04-21T08:59:44Z</time>
      </trkpt>
      <trkpt lat="45.94495" lon="4.73574">
        <ele>185</ele>
        <time>2017-04-21T08:59:45Z</time>
      </trkpt>
      <trkpt lat="45.94495" lon="4.73584">
        <ele>185</ele>
        <time>2017-04-21T08:59:47Z</time>
      </trkpt>
      <trkpt lat="45.94495" lon="4.73589">
        <ele>185</ele>
        <time>2017-04-21T08:59:48Z</time>
      </trkpt>
      <trkpt lat="45.94494" lon="4.73599">
        <ele>185</ele>
        <time>2017-04-21T08:59:50Z</time>
      </trkpt>
      <trkpt lat="45.94493" lon="4.73605">
        <ele>186</ele>
        <time>2017-04-21T08:59:51Z</time>
      </trkpt>
      <trkpt lat="45.94491" lon="4.73616">
        <ele>186</ele>
        <time>2017-04-21T08:59:53Z</time>
      </trkpt>
      <trkpt lat="45.9449" lon="4.73623">
        <ele>186</ele>
        <time>2017-04-21T08:59:54Z</time>
      </trkpt>
      <trkpt lat="45.94488" lon="4.73629">
        <ele>186</ele>
        <time>2017-04-21T08:59:55Z</time>
      </trkpt>
      <trkpt lat="45.94487" lon="4.73635">
        <ele>186</ele>
        <time>2017-04-21T08:59:56Z</time>
      </trkpt>
      <trkpt lat="45.94487" lon="4.73648">
        <ele>186</ele>
        <time>2017-04-21T08:59:58Z</time>
      </trkpt>
      <trkpt lat="45.94487" lon="4.73653">
        <ele>186</ele>
        <time>2017-04-21T08:59:59Z</time>
      </trkpt>
      <trkpt lat="45.94486" lon="4.73664">
        <ele>185</ele>
        <time>2017-04-21T09:00:01Z</time>
      </trkpt>
      <trkpt lat="45.94485" lon="4.73669">
        <ele>185</ele>
        <time>2017-04-21T09:00:02Z</time>
      </trkpt>
      <trkpt lat="45.94485" lon="4.7368">
        <ele>186</ele>
        <time>2017-04-21T09:00:04Z</time>
      </trkpt>
      <trkpt lat="45.94483" lon="4.73687">
        <ele>186</ele>
        <time>2017-04-21T09:00:05Z</time>
      </trkpt>
      <trkpt lat="45.94482" lon="4.73694">
        <ele>186</ele>
        <time>2017-04-21T09:00:06Z</time>
      </trkpt>
      <trkpt lat="45.9448" lon="4.73701">
        <ele>186</ele>
        <time>2017-04-21T09:00:07Z</time>
      </trkpt>
      <trkpt lat="45.94479" lon="4.73709">
        <ele>186</ele>
        <time>2017-04-21T09:00:08Z</time>
      </trkpt>
      <trkpt lat="45.94478" lon="4.73716">
        <ele>186</ele>
        <time>2017-04-21T09:00:09Z</time>
      </trkpt>
      <trkpt lat="45.94477" lon="4.73724">
        <ele>186</ele>
        <time>2017-04-21T09:00:10Z</time>
      </trkpt>
      <trkpt lat="45.94476" lon="4.73731">
        <ele>186</ele>
        <time>2017-04-21T09:00:11Z</time>
      </trkpt>
      <trkpt lat="45.94475" lon="4.73739">
        <ele>186</ele>
        <time>2017-04-21T09:00:12Z</time>
      </trkpt>
      <trkpt lat="45.94475" lon="4.73749">
        <ele>186</ele>
        <time>2017-04-21T09:00:13Z</time>
      </trkpt>
      <trkpt lat="45.94476" lon="4.73758">
        <ele>186</ele>
        <time>2017-04-21T09:00:14Z</time>
      </trkpt>
      <trkpt lat="45.94478" lon="4.73766">
        <ele>186</ele>
        <time>2017-04-21T09:00:15Z</time>
      </trkpt>
      <trkpt lat="45.94484" lon="4.73773">
        <ele>186</ele>
        <time>2017-04-21T09:00:17Z</time>
      </trkpt>
      <trkpt lat="45.94488" lon="4.73777">
        <ele>186</ele>
        <time>2017-04-21T09:00:18Z</time>
      </trkpt>
      <trkpt lat="45.94492" lon="4.7378">
        <ele>186</ele>
        <time>2017-04-21T09:00:19Z</time>
      </trkpt>
      <trkpt lat="45.94496" lon="4.73784">
        <ele>186</ele>
        <time>2017-04-21T09:00:20Z</time>
      </trkpt>
      <trkpt lat="45.945" lon="4.73788">
        <ele>186</ele>
        <time>2017-04-21T09:00:21Z</time>
      </trkpt>
      <trkpt lat="45.94504" lon="4.73792">
        <ele>186</ele>
        <time>2017-04-21T09:00:22Z</time>
      </trkpt>
      <trkpt lat="45.94508" lon="4.73797">
        <ele>186</ele>
        <time>2017-04-21T09:00:23Z</time>
      </trkpt>
      <trkpt lat="45.94512" lon="4.73801">
        <ele>186</ele>
        <time>2017-04-21T09:00:24Z</time>
      </trkpt>
      <trkpt lat="45.94517" lon="4.73806">
        <ele>186</ele>
        <time>2017-04-21T09:00:25Z</time>
      </trkpt>
      <trkpt lat="45.94521" lon="4.73811">
        <ele>186</ele>
        <time>2017-04-21T09:00:26Z</time>
      </trkpt>
      <trkpt lat="45.94525" lon="4.73815">
        <ele>186</ele>
        <time>2017-04-21T09:00:27Z</time>
      </trkpt>
      <trkpt lat="45.94529" lon="4.73819">
        <ele>186</ele>
        <time>2017-04-21T09:00:28Z</time>
      </trkpt>
      <trkpt lat="45.94533" lon="4.73823">
        <ele>186</ele>
        <time>2017-04-21T09:00:29Z</time>
      </trkpt>
      <trkpt lat="45.94537" lon="4.73826">
        <ele>186</ele>
        <time>2017-04-21T09:00:30Z</time>
      </trkpt>
      <trkpt lat="45.94541" lon="4.7383">
        <ele>186</ele>
        <time>2017-04-21T09:00:31Z</time>
      </trkpt>
      <trkpt lat="45.94545" lon="4.73833">
        <ele>186</ele>
        <time>2017-04-21T09:00:32Z</time>
      </trkpt>
      <trkpt lat="45.94549" lon="4.73837">
        <ele>186</ele>
        <time>2017-04-21T09:00:33Z</time>
      </trkpt>
      <trkpt lat="45.94553" lon="4.73841">
        <ele>186</ele>
        <time>2017-04-21T09:00:34Z</time>
      </trkpt>
      <trkpt lat="45.94556" lon="4.73844">
        <ele>186</ele>
        <time>2017-04-21T09:00:35Z</time>
      </trkpt>
      <trkpt lat="45.9456" lon="4.73849">
        <ele>186</ele>
        <time>2017-04-21T09:00:36Z</time>
      </trkpt>
      <trkpt lat="45.94564" lon="4.73853">
        <ele>186</ele>
        <time>2017-04-21T09:00:37Z</time>
      </trkpt>
      <trkpt lat="45.94567" lon="4.73857">
        <ele>186</ele>
        <time>2017-04-21T09:00:38Z</time>
      </trkpt>
      <trkpt lat="45.94571" lon="4.73861">
        <ele>186</ele>
        <time>2017-04-21T09:00:39Z</time>
      </trkpt>
      <trkpt lat="45.94574" lon="4.73865">
        <ele>186</ele>
        <time>2017-04-21T09:00:40Z</time>
      </trkpt>
      <trkpt lat="45.94578" lon="4.73869">
        <ele>186</ele>
        <time>2017-04-21T09:00:41Z</time>
      </trkpt>
      <trkpt lat="45.94582" lon="4.73873">
        <ele>186</ele>
        <time>2017-04-21T09:00:42Z</time>
      </trkpt>
      <trkpt lat="45.94586" lon="4.73877">
        <ele>187</ele>
        <time>2017-04-21T09:00:43Z</time>
      </trkpt>
      <trkpt lat="45.94589" lon="4.73881">
        <ele>187</ele>
        <time>2017-04-21T09:00:44Z</time>
      </trkpt>
      <trkpt lat="45.94593" lon="4.73885">
        <ele>187</ele>
        <time>2017-04-21T09:00:45Z</time>
      </trkpt>
      <trkpt lat="45.94596" lon="4.73889">
        <ele>187</ele>
        <time>2017-04-21T09:00:46Z</time>
      </trkpt>
      <trkpt lat="45.946" lon="4.73893">
        <ele>187</ele>
        <time>2017-04-21T09:00:47Z</time>
      </trkpt>
      <trkpt lat="45.94603" lon="4.73897">
        <ele>187</ele>
        <time>2017-04-21T09:00:48Z</time>
      </trkpt>
      <trkpt lat="45.94607" lon="4.73902">
        <ele>187</ele>
        <time>2017-04-21T09:00:49Z</time>
      </trkpt>
      <trkpt lat="45.9461" lon="4.73906">
        <ele>187</ele>
        <time>2017-04-21T09:00:50Z</time>
      </trkpt>
      <trkpt lat="45.94614" lon="4.7391">
        <ele>187</ele>
        <time>2017-04-21T09:00:51Z</time>
      </trkpt>
      <trkpt lat="45.94617" lon="4.73915">
        <ele>187</ele>
        <time>2017-04-21T09:00:52Z</time>
      </trkpt>
      <trkpt lat="45.9462" lon="4.73919">
        <ele>187</ele>
        <time>2017-04-21T09:00:53Z</time>
      </trkpt>
      <trkpt lat="45.94624" lon="4.73924">
        <ele>187</ele>
        <time>2017-04-21T09:00:54Z</time>
      </trkpt>
      <trkpt lat="45.94627" lon="4.73928">
        <ele>187</ele>
        <time>2017-04-21T09:00:55Z</time>
      </trkpt>
      <trkpt lat="45.9463" lon="4.73932">
        <ele>187</ele>
        <time>2017-04-21T09:00:56Z</time>
      </trkpt>
      <trkpt lat="45.94637" lon="4.73941">
        <ele>187</ele>
        <time>2017-04-21T09:00:58Z</time>
      </trkpt>
      <trkpt lat="45.9464" lon="4.73945">
        <ele>187</ele>
        <time>2017-04-21T09:00:59Z</time>
      </trkpt>
      <trkpt lat="45.94647" lon="4.73953">
        <ele>187</ele>
        <time>2017-04-21T09:01:01Z</time>
      </trkpt>
      <trkpt lat="45.9465" lon="4.73957">
        <ele>187</ele>
        <time>2017-04-21T09:01:02Z</time>
      </trkpt>
      <trkpt lat="45.94657" lon="4.73966">
        <ele>187</ele>
        <time>2017-04-21T09:01:04Z</time>
      </trkpt>
      <trkpt lat="45.9466" lon="4.73971">
        <ele>187</ele>
        <time>2017-04-21T09:01:05Z</time>
      </trkpt>
      <trkpt lat="45.94663" lon="4.73976">
        <ele>187</ele>
        <time>2017-04-21T09:01:06Z</time>
      </trkpt>
      <trkpt lat="45.94667" lon="4.73981">
        <ele>187</ele>
        <time>2017-04-21T09:01:07Z</time>
      </trkpt>
      <trkpt lat="45.9467" lon="4.73986">
        <ele>187</ele>
        <time>2017-04-21T09:01:08Z</time>
      </trkpt>
      <trkpt lat="45.94674" lon="4.73991">
        <ele>187</ele>
        <time>2017-04-21T09:01:09Z</time>
      </trkpt>
      <trkpt lat="45.94677" lon="4.73995">
        <ele>187</ele>
        <time>2017-04-21T09:01:10Z</time>
      </trkpt>
      <trkpt lat="45.94681" lon="4.74">
        <ele>187</ele>
        <time>2017-04-21T09:01:11Z</time>
      </trkpt>
      <trkpt lat="45.94684" lon="4.74005">
        <ele>187</ele>
        <time>2017-04-21T09:01:12Z</time>
      </trkpt>
      <trkpt lat="45.94687" lon="4.7401">
        <ele>187</ele>
        <time>2017-04-21T09:01:13Z</time>
      </trkpt>
      <trkpt lat="45.94691" lon="4.74015">
        <ele>187</ele>
        <time>2017-04-21T09:01:14Z</time>
      </trkpt>
      <trkpt lat="45.94694" lon="4.74019">
        <ele>187</ele>
        <time>2017-04-21T09:01:15Z</time>
      </trkpt>
      <trkpt lat="45.94698" lon="4.74024">
        <ele>187</ele>
        <time>2017-04-21T09:01:16Z</time>
      </trkpt>
      <trkpt lat="45.94701" lon="4.74028">
        <ele>187</ele>
        <time>2017-04-21T09:01:17Z</time>
      </trkpt>
      <trkpt lat="45.94704" lon="4.74033">
        <ele>187</ele>
        <time>2017-04-21T09:01:18Z</time>
      </trkpt>
      <trkpt lat="45.94708" lon="4.74038">
        <ele>187</ele>
        <time>2017-04-21T09:01:19Z</time>
      </trkpt>
      <trkpt lat="45.94712" lon="4.74043">
        <ele>187</ele>
        <time>2017-04-21T09:01:20Z</time>
      </trkpt>
      <trkpt lat="45.94716" lon="4.74048">
        <ele>187</ele>
        <time>2017-04-21T09:01:21Z</time>
      </trkpt>
      <trkpt lat="45.94719" lon="4.74053">
        <ele>187</ele>
        <time>2017-04-21T09:01:22Z</time>
      </trkpt>
      <trkpt lat="45.94723" lon="4.74058">
        <ele>188</ele>
        <time>2017-04-21T09:01:23Z</time>
      </trkpt>
      <trkpt lat="45.94727" lon="4.74062">
        <ele>188</ele>
        <time>2017-04-21T09:01:24Z</time>
      </trkpt>
      <trkpt lat="45.9473" lon="4.74067">
        <ele>188</ele>
        <time>2017-04-21T09:01:25Z</time>
      </trkpt>
      <trkpt lat="45.94734" lon="4.74072">
        <ele>188</ele>
        <time>2017-04-21T09:01:26Z</time>
      </trkpt>
      <trkpt lat="45.94738" lon="4.74077">
        <ele>188</ele>
        <time>2017-04-21T09:01:27Z</time>
      </trkpt>
      <trkpt lat="45.94742" lon="4.74082">
        <ele>188</ele>
        <time>2017-04-21T09:01:28Z</time>
      </trkpt>
      <trkpt lat="45.94746" lon="4.74087">
        <ele>188</ele>
        <time>2017-04-21T09:01:29Z</time>
      </trkpt>
      <trkpt lat="45.94749" lon="4.74092">
        <ele>188</ele>
        <time>2017-04-21T09:01:30Z</time>
      </trkpt>
      <trkpt lat="45.94753" lon="4.74097">
        <ele>189</ele>
        <time>2017-04-21T09:01:31Z</time>
      </trkpt>
      <trkpt lat="45.94757" lon="4.74102">
        <ele>189</ele>
        <time>2017-04-21T09:01:32Z</time>
      </trkpt>
      <trkpt lat="45.9476" lon="4.74107">
        <ele>189</ele>
        <time>2017-04-21T09:01:33Z</time>
      </trkpt>
      <trkpt lat="45.94763" lon="4.74111">
        <ele>189</ele>
        <time>2017-04-21T09:01:34Z</time>
      </trkpt>
      <trkpt lat="45.94767" lon="4.74116">
        <ele>189</ele>
        <time>2017-04-21T09:01:35Z</time>
      </trkpt>
      <trkpt lat="45.9477" lon="4.7412">
        <ele>189</ele>
        <time>2017-04-21T09:01:36Z</time>
      </trkpt>
      <trkpt lat="45.94773" lon="4.74125">
        <ele>189</ele>
        <time>2017-04-21T09:01:37Z</time>
      </trkpt>
      <trkpt lat="45.94777" lon="4.74129">
        <ele>189</ele>
        <time>2017-04-21T09:01:38Z</time>
      </trkpt>
      <trkpt lat="45.9478" lon="4.74134">
        <ele>189</ele>
        <time>2017-04-21T09:01:39Z</time>
      </trkpt>
      <trkpt lat="45.94784" lon="4.74139">
        <ele>189</ele>
        <time>2017-04-21T09:01:40Z</time>
      </trkpt>
      <trkpt lat="45.94788" lon="4.74143">
        <ele>189</ele>
        <time>2017-04-21T09:01:41Z</time>
      </trkpt>
      <trkpt lat="45.94791" lon="4.74148">
        <ele>189</ele>
        <time>2017-04-21T09:01:42Z</time>
      </trkpt>
      <trkpt lat="45.94794" lon="4.74153">
        <ele>189</ele>
        <time>2017-04-21T09:01:43Z</time>
      </trkpt>
      <trkpt lat="45.94798" lon="4.74158">
        <ele>189</ele>
        <time>2017-04-21T09:01:44Z</time>
      </trkpt>
      <trkpt lat="45.94801" lon="4.74163">
        <ele>189</ele>
        <time>2017-04-21T09:01:45Z</time>
      </trkpt>
      <trkpt lat="45.94804" lon="4.74168">
        <ele>189</ele>
        <time>2017-04-21T09:01:46Z</time>
      </trkpt>
      <trkpt lat="45.94807" lon="4.74174">
        <ele>189</ele>
        <time>2017-04-21T09:01:47Z</time>
      </trkpt>
      <trkpt lat="45.9481" lon="4.74179">
        <ele>189</ele>
        <time>2017-04-21T09:01:48Z</time>
      </trkpt>
      <trkpt lat="45.94813" lon="4.74184">
        <ele>189</ele>
        <time>2017-04-21T09:01:49Z</time>
      </trkpt>
      <trkpt lat="45.94816" lon="4.7419">
        <ele>189</ele>
        <time>2017-04-21T09:01:50Z</time>
      </trkpt>
      <trkpt lat="45.94819" lon="4.74195">
        <ele>189</ele>
        <time>2017-04-21T09:01:51Z</time>
      </trkpt>
      <trkpt lat="45.94822" lon="4.74201">
        <ele>189</ele>
        <time>2017-04-21T09:01:52Z</time>
      </trkpt>
      <trkpt lat="45.94825" lon="4.74207">
        <ele>189</ele>
        <time>2017-04-21T09:01:53Z</time>
      </trkpt>
      <trkpt lat="45.94828" lon="4.74213">
        <ele>188</ele>
        <time>2017-04-21T09:01:54Z</time>
      </trkpt>
      <trkpt lat="45.94831" lon="4.74219">
        <ele>188</ele>
        <time>2017-04-21T09:01:55Z</time>
      </trkpt>
      <trkpt lat="45.94834" lon="4.74226">
        <ele>190</ele>
        <time>2017-04-21T09:01:56Z</time>
      </trkpt>
      <trkpt lat="45.94837" lon="4.74232">
        <ele>190</ele>
        <time>2017-04-21T09:01:57Z</time>
      </trkpt>
      <trkpt lat="45.94839" lon="4.74238">
        <ele>190</ele>
        <time>2017-04-21T09:01:58Z</time>
      </trkpt>
      <trkpt lat="45.94842" lon="4.74243">
        <ele>189</ele>
        <time>2017-04-21T09:01:59Z</time>
      </trkpt>
      <trkpt lat="45.94845" lon="4.74249">
        <ele>190</ele>
        <time>2017-04-21T09:02:00Z</time>
      </trkpt>
      <trkpt lat="45.94849" lon="4.74255">
        <ele>190</ele>
        <time>2017-04-21T09:02:01Z</time>
      </trkpt>
      <trkpt lat="45.94852" lon="4.7426">
        <ele>190</ele>
        <time>2017-04-21T09:02:02Z</time>
      </trkpt>
      <trkpt lat="45.94855" lon="4.74266">
        <ele>190</ele>
        <time>2017-04-21T09:02:03Z</time>
      </trkpt>
      <trkpt lat="45.94858" lon="4.74272">
        <ele>190</ele>
        <time>2017-04-21T09:02:04Z</time>
      </trkpt>
      <trkpt lat="45.94861" lon="4.74278">
        <ele>190</ele>
        <time>2017-04-21T09:02:05Z</time>
      </trkpt>
      <trkpt lat="45.94864" lon="4.74284">
        <ele>191</ele>
        <time>2017-04-21T09:02:06Z</time>
      </trkpt>
      <trkpt lat="45.94867" lon="4.7429">
        <ele>191</ele>
        <time>2017-04-21T09:02:07Z</time>
      </trkpt>
      <trkpt lat="45.9487" lon="4.74296">
        <ele>191</ele>
        <time>2017-04-21T09:02:08Z</time>
      </trkpt>
      <trkpt lat="45.94873" lon="4.74302">
        <ele>191</ele>
        <time>2017-04-21T09:02:09Z</time>
      </trkpt>
      <trkpt lat="45.94876" lon="4.74308">
        <ele>191</ele>
        <time>2017-04-21T09:02:10Z</time>
      </trkpt>
      <trkpt lat="45.94878" lon="4.74314">
        <ele>191</ele>
        <time>2017-04-21T09:02:11Z</time>
      </trkpt>
      <trkpt lat="45.94881" lon="4.74319">
        <ele>191</ele>
        <time>2017-04-21T09:02:12Z</time>
      </trkpt>
      <trkpt lat="45.94884" lon="4.74324">
        <ele>191</ele>
        <time>2017-04-21T09:02:13Z</time>
      </trkpt>
      <trkpt lat="45.94887" lon="4.7433">
        <ele>191</ele>
        <time>2017-04-21T09:02:14Z</time>
      </trkpt>
      <trkpt lat="45.9489" lon="4.74336">
        <ele>191</ele>
        <time>2017-04-21T09:02:15Z</time>
      </trkpt>
      <trkpt lat="45.94893" lon="4.74342">
        <ele>191</ele>
        <time>2017-04-21T09:02:16Z</time>
      </trkpt>
      <trkpt lat="45.94895" lon="4.74348">
        <ele>191</ele>
        <time>2017-04-21T09:02:17Z</time>
      </trkpt>
      <trkpt lat="45.94898" lon="4.74354">
        <ele>191</ele>
        <time>2017-04-21T09:02:18Z</time>
      </trkpt>
      <trkpt lat="45.94901" lon="4.7436">
        <ele>191</ele>
        <time>2017-04-21T09:02:19Z</time>
      </trkpt>
      <trkpt lat="45.94904" lon="4.74366">
        <ele>191</ele>
        <time>2017-04-21T09:02:20Z</time>
      </trkpt>
      <trkpt lat="45.94907" lon="4.74372">
        <ele>191</ele>
        <time>2017-04-21T09:02:21Z</time>
      </trkpt>
      <trkpt lat="45.94909" lon="4.74378">
        <ele>191</ele>
        <time>2017-04-21T09:02:22Z</time>
      </trkpt>
      <trkpt lat="45.94912" lon="4.74384">
        <ele>191</ele>
        <time>2017-04-21T09:02:23Z</time>
      </trkpt>
      <trkpt lat="45.94915" lon="4.74389">
        <ele>191</ele>
        <time>2017-04-21T09:02:24Z</time>
      </trkpt>
      <trkpt lat="45.94918" lon="4.74395">
        <ele>192</ele>
        <time>2017-04-21T09:02:25Z</time>
      </trkpt>
      <trkpt lat="45.94921" lon="4.74401">
        <ele>192</ele>
        <time>2017-04-21T09:02:26Z</time>
      </trkpt>
      <trkpt lat="45.94924" lon="4.74407">
        <ele>192</ele>
        <time>2017-04-21T09:02:27Z</time>
      </trkpt>
      <trkpt lat="45.94927" lon="4.74413">
        <ele>192</ele>
        <time>2017-04-21T09:02:28Z</time>
      </trkpt>
      <trkpt lat="45.9493" lon="4.74418">
        <ele>192</ele>
        <time>2017-04-21T09:02:29Z</time>
      </trkpt>
      <trkpt lat="45.94934" lon="4.74424">
        <ele>192</ele>
        <time>2017-04-21T09:02:30Z</time>
      </trkpt>
      <trkpt lat="45.94937" lon="4.74429">
        <ele>192</ele>
        <time>2017-04-21T09:02:31Z</time>
      </trkpt>
      <trkpt lat="45.94939" lon="4.74435">
        <ele>192</ele>
        <time>2017-04-21T09:02:32Z</time>
      </trkpt>
      <trkpt lat="45.94942" lon="4.7444">
        <ele>192</ele>
        <time>2017-04-21T09:02:33Z</time>
      </trkpt>
      <trkpt lat="45.94945" lon="4.74446">
        <ele>192</ele>
        <time>2017-04-21T09:02:34Z</time>
      </trkpt>
      <trkpt lat="45.94948" lon="4.74452">
        <ele>192</ele>
        <time>2017-04-21T09:02:35Z</time>
      </trkpt>
      <trkpt lat="45.94951" lon="4.74457">
        <ele>192</ele>
        <time>2017-04-21T09:02:36Z</time>
      </trkpt>
      <trkpt lat="45.94953" lon="4.74462">
        <ele>193</ele>
        <time>2017-04-21T09:02:37Z</time>
      </trkpt>
      <trkpt lat="45.94956" lon="4.74468">
        <ele>193</ele>
        <time>2017-04-21T09:02:38Z</time>
      </trkpt>
      <trkpt lat="45.9496" lon="4.74474">
        <ele>193</ele>
        <time>2017-04-21T09:02:39Z</time>
      </trkpt>
      <trkpt lat="45.94963" lon="4.74479">
        <ele>193</ele>
        <time>2017-04-21T09:02:40Z</time>
      </trkpt>
      <trkpt lat="45.94966" lon="4.74485">
        <ele>193</ele>
        <time>2017-04-21T09:02:41Z</time>
      </trkpt>
      <trkpt lat="45.94969" lon="4.74491">
        <ele>193</ele>
        <time>2017-04-21T09:02:42Z</time>
      </trkpt>
      <trkpt lat="45.94972" lon="4.74497">
        <ele>193</ele>
        <time>2017-04-21T09:02:43Z</time>
      </trkpt>
      <trkpt lat="45.94975" lon="4.74503">
        <ele>193</ele>
        <time>2017-04-21T09:02:44Z</time>
      </trkpt>
      <trkpt lat="45.94978" lon="4.74509">
        <ele>193</ele>
        <time>2017-04-21T09:02:45Z</time>
      </trkpt>
      <trkpt lat="45.94981" lon="4.74514">
        <ele>193</ele>
        <time>2017-04-21T09:02:46Z</time>
      </trkpt>
      <trkpt lat="45.94984" lon="4.7452">
        <ele>193</ele>
        <time>2017-04-21T09:02:47Z</time>
      </trkpt>
      <trkpt lat="45.94987" lon="4.74525">
        <ele>193</ele>
        <time>2017-04-21T09:02:48Z</time>
      </trkpt>
      <trkpt lat="45.94989" lon="4.74531">
        <ele>193</ele>
        <time>2017-04-21T09:02:49Z</time>
      </trkpt>
      <trkpt lat="45.94992" lon="4.74536">
        <ele>193</ele>
        <time>2017-04-21T09:02:50Z</time>
      </trkpt>
      <trkpt lat="45.94995" lon="4.74541">
        <ele>193</ele>
        <time>2017-04-21T09:02:51Z</time>
      </trkpt>
      <trkpt lat="45.94998" lon="4.74547">
        <ele>193</ele>
        <time>2017-04-21T09:02:52Z</time>
      </trkpt>
      <trkpt lat="45.95" lon="4.74553">
        <ele>194</ele>
        <time>2017-04-21T09:02:53Z</time>
      </trkpt>
      <trkpt lat="45.95003" lon="4.74558">
        <ele>194</ele>
        <time>2017-04-21T09:02:54Z</time>
      </trkpt>
      <trkpt lat="45.95006" lon="4.74564">
        <ele>194</ele>
        <time>2017-04-21T09:02:55Z</time>
      </trkpt>
      <trkpt lat="45.95009" lon="4.7457">
        <ele>194</ele>
        <time>2017-04-21T09:02:56Z</time>
      </trkpt>
      <trkpt lat="45.95011" lon="4.74575">
        <ele>194</ele>
        <time>2017-04-21T09:02:57Z</time>
      </trkpt>
      <trkpt lat="45.95014" lon="4.74581">
        <ele>194</ele>
        <time>2017-04-21T09:02:58Z</time>
      </trkpt>
      <trkpt lat="45.95017" lon="4.74586">
        <ele>194</ele>
        <time>2017-04-21T09:02:59Z</time>
      </trkpt>
      <trkpt lat="45.9502" lon="4.74592">
        <ele>194</ele>
        <time>2017-04-21T09:03:00Z</time>
      </trkpt>
      <trkpt lat="45.95023" lon="4.74597">
        <ele>194</ele>
        <time>2017-04-21T09:03:01Z</time>
      </trkpt>
      <trkpt lat="45.95027" lon="4.74603">
        <ele>194</ele>
        <time>2017-04-21T09:03:02Z</time>
      </trkpt>
      <trkpt lat="45.95029" lon="4.74609">
        <ele>194</ele>
        <time>2017-04-21T09:03:03Z</time>
      </trkpt>
      <trkpt lat="45.95032" lon="4.74614">
        <ele>194</ele>
        <time>2017-04-21T09:03:04Z</time>
      </trkpt>
      <trkpt lat="45.95035" lon="4.74619">
        <ele>194</ele>
        <time>2017-04-21T09:03:05Z</time>
      </trkpt>
      <trkpt lat="45.95038" lon="4.74625">
        <ele>194</ele>
        <time>2017-04-21T09:03:06Z</time>
      </trkpt>
      <trkpt lat="45.95041" lon="4.7463">
        <ele>194</ele>
        <time>2017-04-21T09:03:07Z</time>
      </trkpt>
      <trkpt lat="45.95044" lon="4.74636">
        <ele>194</ele>
        <time>2017-04-21T09:03:08Z</time>
      </trkpt>
      <trkpt lat="45.95048" lon="4.74642">
        <ele>194</ele>
        <time>2017-04-21T09:03:09Z</time>
      </trkpt>
      <trkpt lat="45.95051" lon="4.74647">
        <ele>194</ele>
        <time>2017-04-21T09:03:10Z</time>
      </trkpt>
      <trkpt lat="45.95054" lon="4.74653">
        <ele>194</ele>
        <time>2017-04-21T09:03:11Z</time>
      </trkpt>
      <trkpt lat="45.95058" lon="4.74658">
        <ele>194</ele>
        <time>2017-04-21T09:03:12Z</time>
      </trkpt>
      <trkpt lat="45.95061" lon="4.74664">
        <ele>195</ele>
        <time>2017-04-21T09:03:13Z</time>
      </trkpt>
      <trkpt lat="45.95064" lon="4.7467">
        <ele>194</ele>
        <time>2017-04-21T09:03:14Z</time>
      </trkpt>
      <trkpt lat="45.95068" lon="4.74676">
        <ele>194</ele>
        <time>2017-04-21T09:03:15Z</time>
      </trkpt>
      <trkpt lat="45.95071" lon="4.74681">
        <ele>194</ele>
        <time>2017-04-21T09:03:16Z</time>
      </trkpt>
      <trkpt lat="45.95074" lon="4.74687">
        <ele>194</ele>
        <time>2017-04-21T09:03:17Z</time>
      </trkpt>
      <trkpt lat="45.95078" lon="4.74693">
        <ele>194</ele>
        <time>2017-04-21T09:03:18Z</time>
      </trkpt>
      <trkpt lat="45.95081" lon="4.74699">
        <ele>194</ele>
        <time>2017-04-21T09:03:19Z</time>
      </trkpt>
      <trkpt lat="45.95085" lon="4.74706">
        <ele>194</ele>
        <time>2017-04-21T09:03:20Z</time>
      </trkpt>
      <trkpt lat="45.95088" lon="4.74712">
        <ele>194</ele>
        <time>2017-04-21T09:03:21Z</time>
      </trkpt>
      <trkpt lat="45.95091" lon="4.74718">
        <ele>194</ele>
        <time>2017-04-21T09:03:22Z</time>
      </trkpt>
      <trkpt lat="45.95095" lon="4.74723">
        <ele>194</ele>
        <time>2017-04-21T09:03:23Z</time>
      </trkpt>
      <trkpt lat="45.95098" lon="4.74729">
        <ele>194</ele>
        <time>2017-04-21T09:03:24Z</time>
      </trkpt>
      <trkpt lat="45.95101" lon="4.74735">
        <ele>194</ele>
        <time>2017-04-21T09:03:25Z</time>
      </trkpt>
      <trkpt lat="45.95105" lon="4.74741">
        <ele>194</ele>
        <time>2017-04-21T09:03:26Z</time>
      </trkpt>
      <trkpt lat="45.95108" lon="4.74746">
        <ele>194</ele>
        <time>2017-04-21T09:03:27Z</time>
      </trkpt>
      <trkpt lat="45.95112" lon="4.74752">
        <ele>194</ele>
        <time>2017-04-21T09:03:28Z</time>
      </trkpt>
      <trkpt lat="45.95115" lon="4.74757">
        <ele>194</ele>
        <time>2017-04-21T09:03:29Z</time>
      </trkpt>
      <trkpt lat="45.95118" lon="4.74763">
        <ele>194</ele>
        <time>2017-04-21T09:03:30Z</time>
      </trkpt>
      <trkpt lat="45.95121" lon="4.74768">
        <ele>194</ele>
        <time>2017-04-21T09:03:31Z</time>
      </trkpt>
      <trkpt lat="45.95124" lon="4.74774">
        <ele>194</ele>
        <time>2017-04-21T09:03:32Z</time>
      </trkpt>
      <trkpt lat="45.95128" lon="4.7478">
        <ele>194</ele>
        <time>2017-04-21T09:03:33Z</time>
      </trkpt>
      <trkpt lat="45.95131" lon="4.74786">
        <ele>194</ele>
        <time>2017-04-21T09:03:34Z</time>
      </trkpt>
      <trkpt lat="45.95135" lon="4.74791">
        <ele>194</ele>
        <time>2017-04-21T09:03:35Z</time>
      </trkpt>
      <trkpt lat="45.95138" lon="4.74797">
        <ele>194</ele>
        <time>2017-04-21T09:03:36Z</time>
      </trkpt>
      <trkpt lat="45.95142" lon="4.74802">
        <ele>194</ele>
        <time>2017-04-21T09:03:37Z</time>
      </trkpt>
      <trkpt lat="45.95145" lon="4.74808">
        <ele>194</ele>
        <time>2017-04-21T09:03:38Z</time>
      </trkpt>
      <trkpt lat="45.95149" lon="4.74814">
        <ele>194</ele>
        <time>2017-04-21T09:03:39Z</time>
      </trkpt>
      <trkpt lat="45.95152" lon="4.7482">
        <ele>194</ele>
        <time>2017-04-21T09:03:40Z</time>
      </trkpt>
      <trkpt lat="45.95156" lon="4.74825">
        <ele>194</ele>
        <time>2017-04-21T09:03:41Z</time>
      </trkpt>
      <trkpt lat="45.9516" lon="4.74831">
        <ele>194</ele>
        <time>2017-04-21T09:03:42Z</time>
      </trkpt>
      <trkpt lat="45.95164" lon="4.74837">
        <ele>194</ele>
        <time>2017-04-21T09:03:43Z</time>
      </trkpt>
      <trkpt lat="45.95167" lon="4.74843">
        <ele>194</ele>
        <time>2017-04-21T09:03:44Z</time>
      </trkpt>
      <trkpt lat="45.95171" lon="4.74849">
        <ele>194</ele>
        <time>2017-04-21T09:03:45Z</time>
      </trkpt>
      <trkpt lat="45.95174" lon="4.74854">
        <ele>194</ele>
        <time>2017-04-21T09:03:46Z</time>
      </trkpt>
      <trkpt lat="45.95178" lon="4.7486">
        <ele>194</ele>
        <time>2017-04-21T09:03:47Z</time>
      </trkpt>
      <trkpt lat="45.95182" lon="4.74865">
        <ele>194</ele>
        <time>2017-04-21T09:03:48Z</time>
      </trkpt>
      <trkpt lat="45.95186" lon="4.74871">
        <ele>194</ele>
        <time>2017-04-21T09:03:49Z</time>
      </trkpt>
      <trkpt lat="45.95189" lon="4.74877">
        <ele>194</ele>
        <time>2017-04-21T09:03:50Z</time>
      </trkpt>
      <trkpt lat="45.95193" lon="4.74883">
        <ele>194</ele>
        <time>2017-04-21T09:03:51Z</time>
      </trkpt>
      <trkpt lat="45.95196" lon="4.74889">
        <ele>194</ele>
        <time>2017-04-21T09:03:52Z</time>
      </trkpt>
      <trkpt lat="45.952" lon="4.74895">
        <ele>194</ele>
        <time>2017-04-21T09:03:53Z</time>
      </trkpt>
      <trkpt lat="45.95204" lon="4.749">
        <ele>194</ele>
        <time>2017-04-21T09:03:54Z</time>
      </trkpt>
      <trkpt lat="45.95208" lon="4.74905">
        <ele>194</ele>
        <time>2017-04-21T09:03:55Z</time>
      </trkpt>
      <trkpt lat="45.95211" lon="4.7491">
        <ele>193</ele>
        <time>2017-04-21T09:03:56Z</time>
      </trkpt>
      <trkpt lat="45.95214" lon="4.74915">
        <ele>193</ele>
        <time>2017-04-21T09:03:57Z</time>
      </trkpt>
      <trkpt lat="45.95218" lon="4.7492">
        <ele>192</ele>
        <time>2017-04-21T09:03:58Z</time>
      </trkpt>
      <trkpt lat="45.95221" lon="4.74926">
        <ele>192</ele>
        <time>2017-04-21T09:03:59Z</time>
      </trkpt>
      <trkpt lat="45.95224" lon="4.74931">
        <ele>192</ele>
        <time>2017-04-21T09:04:00Z</time>
      </trkpt>
      <trkpt lat="45.95228" lon="4.74937">
        <ele>192</ele>
        <time>2017-04-21T09:04:01Z</time>
      </trkpt>
      <trkpt lat="45.95232" lon="4.74942">
        <ele>192</ele>
        <time>2017-04-21T09:04:02Z</time>
      </trkpt>
      <trkpt lat="45.95236" lon="4.74948">
        <ele>192</ele>
        <time>2017-04-21T09:04:03Z</time>
      </trkpt>
      <trkpt lat="45.9524" lon="4.74954">
        <ele>192</ele>
        <time>2017-04-21T09:04:04Z</time>
      </trkpt>
      <trkpt lat="45.95243" lon="4.7496">
        <ele>191</ele>
        <time>2017-04-21T09:04:05Z</time>
      </trkpt>
      <trkpt lat="45.95247" lon="4.74966">
        <ele>191</ele>
        <time>2017-04-21T09:04:06Z</time>
      </trkpt>
      <trkpt lat="45.95251" lon="4.74972">
        <ele>192</ele>
        <time>2017-04-21T09:04:07Z</time>
      </trkpt>
      <trkpt lat="45.95254" lon="4.74978">
        <ele>192</ele>
        <time>2017-04-21T09:04:08Z</time>
      </trkpt>
      <trkpt lat="45.95258" lon="4.74983">
        <ele>192</ele>
        <time>2017-04-21T09:04:09Z</time>
      </trkpt>
      <trkpt lat="45.95262" lon="4.74989">
        <ele>192</ele>
        <time>2017-04-21T09:04:10Z</time>
      </trkpt>
      <trkpt lat="45.95266" lon="4.74995">
        <ele>192</ele>
        <time>2017-04-21T09:04:11Z</time>
      </trkpt>
      <trkpt lat="45.95269" lon="4.75001">
        <ele>191</ele>
        <time>2017-04-21T09:04:12Z</time>
      </trkpt>
      <trkpt lat="45.95273" lon="4.75007">
        <ele>191</ele>
        <time>2017-04-21T09:04:13Z</time>
      </trkpt>
      <trkpt lat="45.95276" lon="4.75013">
        <ele>191</ele>
        <time>2017-04-21T09:04:14Z</time>
      </trkpt>
      <trkpt lat="45.9528" lon="4.75019">
        <ele>191</ele>
        <time>2017-04-21T09:04:15Z</time>
      </trkpt>
      <trkpt lat="45.95284" lon="4.75024">
        <ele>191</ele>
        <time>2017-04-21T09:04:16Z</time>
      </trkpt>
      <trkpt lat="45.95287" lon="4.7503">
        <ele>191</ele>
        <time>2017-04-21T09:04:17Z</time>
      </trkpt>
      <trkpt lat="45.95291" lon="4.75036">
        <ele>191</ele>
        <time>2017-04-21T09:04:18Z</time>
      </trkpt>
      <trkpt lat="45.95294" lon="4.75042">
        <ele>191</ele>
        <time>2017-04-21T09:04:19Z</time>
      </trkpt>
      <trkpt lat="45.95298" lon="4.75049">
        <ele>191</ele>
        <time>2017-04-21T09:04:20Z</time>
      </trkpt>
      <trkpt lat="45.95302" lon="4.75055">
        <ele>191</ele>
        <time>2017-04-21T09:04:21Z</time>
      </trkpt>
      <trkpt lat="45.95306" lon="4.75062">
        <ele>192</ele>
        <time>2017-04-21T09:04:22Z</time>
      </trkpt>
      <trkpt lat="45.9531" lon="4.75068">
        <ele>192</ele>
        <time>2017-04-21T09:04:23Z</time>
      </trkpt>
      <trkpt lat="45.95314" lon="4.75075">
        <ele>192</ele>
        <time>2017-04-21T09:04:24Z</time>
      </trkpt>
      <trkpt lat="45.95318" lon="4.75081">
        <ele>192</ele>
        <time>2017-04-21T09:04:25Z</time>
      </trkpt>
      <trkpt lat="45.95322" lon="4.75087">
        <ele>191</ele>
        <time>2017-04-21T09:04:26Z</time>
      </trkpt>
      <trkpt lat="45.95326" lon="4.75093">
        <ele>191</ele>
        <time>2017-04-21T09:04:27Z</time>
      </trkpt>
      <trkpt lat="45.95329" lon="4.75099">
        <ele>191</ele>
        <time>2017-04-21T09:04:28Z</time>
      </trkpt>
      <trkpt lat="45.95333" lon="4.75105">
        <ele>190</ele>
        <time>2017-04-21T09:04:29Z</time>
      </trkpt>
      <trkpt lat="45.95337" lon="4.7511">
        <ele>192</ele>
        <time>2017-04-21T09:04:30Z</time>
      </trkpt>
      <trkpt lat="45.95341" lon="4.75116">
        <ele>192</ele>
        <time>2017-04-21T09:04:31Z</time>
      </trkpt>
      <trkpt lat="45.95345" lon="4.75122">
        <ele>191</ele>
        <time>2017-04-21T09:04:32Z</time>
      </trkpt>
      <trkpt lat="45.95348" lon="4.75128">
        <ele>191</ele>
        <time>2017-04-21T09:04:33Z</time>
      </trkpt>
      <trkpt lat="45.95352" lon="4.75134">
        <ele>191</ele>
        <time>2017-04-21T09:04:34Z</time>
      </trkpt>
      <trkpt lat="45.95356" lon="4.7514">
        <ele>191</ele>
        <time>2017-04-21T09:04:35Z</time>
      </trkpt>
      <trkpt lat="45.9536" lon="4.75147">
        <ele>191</ele>
        <time>2017-04-21T09:04:36Z</time>
      </trkpt>
      <trkpt lat="45.95363" lon="4.75153">
        <ele>191</ele>
        <time>2017-04-21T09:04:37Z</time>
      </trkpt>
      <trkpt lat="45.95367" lon="4.75159">
        <ele>191</ele>
        <time>2017-04-21T09:04:38Z</time>
      </trkpt>
      <trkpt lat="45.95371" lon="4.75166">
        <ele>191</ele>
        <time>2017-04-21T09:04:39Z</time>
      </trkpt>
      <trkpt lat="45.95375" lon="4.75172">
        <ele>189</ele>
        <time>2017-04-21T09:04:40Z</time>
      </trkpt>
      <trkpt lat="45.95379" lon="4.75179">
        <ele>189</ele>
        <time>2017-04-21T09:04:41Z</time>
      </trkpt>
      <trkpt lat="45.95384" lon="4.75186">
        <ele>189</ele>
        <time>2017-04-21T09:04:42Z</time>
      </trkpt>
      <trkpt lat="45.95388" lon="4.75192">
        <ele>189</ele>
        <time>2017-04-21T09:04:43Z</time>
      </trkpt>
      <trkpt lat="45.95392" lon="4.75199">
        <ele>189</ele>
        <time>2017-04-21T09:04:44Z</time>
      </trkpt>
      <trkpt lat="45.95395" lon="4.75206">
        <ele>189</ele>
        <time>2017-04-21T09:04:45Z</time>
      </trkpt>
      <trkpt lat="45.95399" lon="4.75213">
        <ele>188</ele>
        <time>2017-04-21T09:04:46Z</time>
      </trkpt>
      <trkpt lat="45.95403" lon="4.7522">
        <ele>188</ele>
        <time>2017-04-21T09:04:47Z</time>
      </trkpt>
      <trkpt lat="45.95407" lon="4.75227">
        <ele>188</ele>
        <time>2017-04-21T09:04:48Z</time>
      </trkpt>
      <trkpt lat="45.95411" lon="4.75234">
        <ele>189</ele>
        <time>2017-04-21T09:04:49Z</time>
      </trkpt>
      <trkpt lat="45.95415" lon="4.75241">
        <ele>189</ele>
        <time>2017-04-21T09:04:50Z</time>
      </trkpt>
      <trkpt lat="45.95419" lon="4.75249">
        <ele>189</ele>
        <time>2017-04-21T09:04:51Z</time>
      </trkpt>
      <trkpt lat="45.95424" lon="4.75257">
        <ele>189</ele>
        <time>2017-04-21T09:04:52Z</time>
      </trkpt>
      <trkpt lat="45.95428" lon="4.75264">
        <ele>189</ele>
        <time>2017-04-21T09:04:53Z</time>
      </trkpt>
      <trkpt lat="45.95432" lon="4.75271">
        <ele>189</ele>
        <time>2017-04-21T09:04:54Z</time>
      </trkpt>
      <trkpt lat="45.95437" lon="4.75278">
        <ele>188</ele>
        <time>2017-04-21T09:04:55Z</time>
      </trkpt>
      <trkpt lat="45.9544" lon="4.75286">
        <ele>188</ele>
        <time>2017-04-21T09:04:56Z</time>
      </trkpt>
      <trkpt lat="45.95444" lon="4.75293">
        <ele>188</ele>
        <time>2017-04-21T09:04:57Z</time>
      </trkpt>
      <trkpt lat="45.95448" lon="4.75299">
        <ele>188</ele>
        <time>2017-04-21T09:04:58Z</time>
      </trkpt>
      <trkpt lat="45.95452" lon="4.75307">
        <ele>188</ele>
        <time>2017-04-21T09:04:59Z</time>
      </trkpt>
      <trkpt lat="45.95456" lon="4.75314">
        <ele>188</ele>
        <time>2017-04-21T09:05:00Z</time>
      </trkpt>
      <trkpt lat="45.9546" lon="4.75321">
        <ele>188</ele>
        <time>2017-04-21T09:05:01Z</time>
      </trkpt>
      <trkpt lat="45.95465" lon="4.75328">
        <ele>188</ele>
        <time>2017-04-21T09:05:02Z</time>
      </trkpt>
      <trkpt lat="45.95469" lon="4.75335">
        <ele>186</ele>
        <time>2017-04-21T09:05:03Z</time>
      </trkpt>
      <trkpt lat="45.95472" lon="4.75343">
        <ele>186</ele>
        <time>2017-04-21T09:05:04Z</time>
      </trkpt>
      <trkpt lat="45.95476" lon="4.75351">
        <ele>186</ele>
        <time>2017-04-21T09:05:05Z</time>
      </trkpt>
      <trkpt lat="45.9548" lon="4.75359">
        <ele>186</ele>
        <time>2017-04-21T09:05:06Z</time>
      </trkpt>
      <trkpt lat="45.95484" lon="4.75367">
        <ele>185</ele>
        <time>2017-04-21T09:05:07Z</time>
      </trkpt>
      <trkpt lat="45.95488" lon="4.75376">
        <ele>185</ele>
        <time>2017-04-21T09:05:08Z</time>
      </trkpt>
      <trkpt lat="45.95491" lon="4.75384">
        <ele>185</ele>
        <time>2017-04-21T09:05:09Z</time>
      </trkpt>
      <trkpt lat="45.95495" lon="4.75392">
        <ele>185</ele>
        <time>2017-04-21T09:05:10Z</time>
      </trkpt>
      <trkpt lat="45.95498" lon="4.75401">
        <ele>185</ele>
        <time>2017-04-21T09:05:11Z</time>
      </trkpt>
      <trkpt lat="45.95501" lon="4.7541">
        <ele>186</ele>
        <time>2017-04-21T09:05:12Z</time>
      </trkpt>
      <trkpt lat="45.95503" lon="4.75419">
        <ele>185</ele>
        <time>2017-04-21T09:05:13Z</time>
      </trkpt>
      <trkpt lat="45.95505" lon="4.75428">
        <ele>186</ele>
        <time>2017-04-21T09:05:14Z</time>
      </trkpt>
      <trkpt lat="45.95507" lon="4.75438">
        <ele>186</ele>
        <time>2017-04-21T09:05:15Z</time>
      </trkpt>
      <trkpt lat="45.95508" lon="4.75448">
        <ele>187</ele>
        <time>2017-04-21T09:05:16Z</time>
      </trkpt>
      <trkpt lat="45.95508" lon="4.75458">
        <ele>186</ele>
        <time>2017-04-21T09:05:17Z</time>
      </trkpt>
      <trkpt lat="45.95508" lon="4.75468">
        <ele>186</ele>
        <time>2017-04-21T09:05:18Z</time>
      </trkpt>
      <trkpt lat="45.95508" lon="4.75477">
        <ele>186</ele>
        <time>2017-04-21T09:05:19Z</time>
      </trkpt>
      <trkpt lat="45.95509" lon="4.75487">
        <ele>186</ele>
        <time>2017-04-21T09:05:20Z</time>
      </trkpt>
      <trkpt lat="45.95511" lon="4.75495">
        <ele>185</ele>
        <time>2017-04-21T09:05:21Z</time>
      </trkpt>
      <trkpt lat="45.95516" lon="4.75501">
        <ele>185</ele>
        <time>2017-04-21T09:05:22Z</time>
      </trkpt>
      <trkpt lat="45.95521" lon="4.75504">
        <ele>185</ele>
        <time>2017-04-21T09:05:23Z</time>
      </trkpt>
      <trkpt lat="45.95526" lon="4.75507">
        <ele>185</ele>
        <time>2017-04-21T09:05:24Z</time>
      </trkpt>
      <trkpt lat="45.95531" lon="4.75511">
        <ele>185</ele>
        <time>2017-04-21T09:05:25Z</time>
      </trkpt>
      <trkpt lat="45.95535" lon="4.75516">
        <ele>186</ele>
        <time>2017-04-21T09:05:26Z</time>
      </trkpt>
      <trkpt lat="45.9554" lon="4.75521">
        <ele>186</ele>
        <time>2017-04-21T09:05:27Z</time>
      </trkpt>
      <trkpt lat="45.95544" lon="4.75525">
        <ele>186</ele>
        <time>2017-04-21T09:05:28Z</time>
      </trkpt>
      <trkpt lat="45.95549" lon="4.7553">
        <ele>186</ele>
        <time>2017-04-21T09:05:29Z</time>
      </trkpt>
      <trkpt lat="45.95554" lon="4.75535">
        <ele>186</ele>
        <time>2017-04-21T09:05:30Z</time>
      </trkpt>
      <trkpt lat="45.95559" lon="4.7554">
        <ele>186</ele>
        <time>2017-04-21T09:05:31Z</time>
      </trkpt>
      <trkpt lat="45.95563" lon="4.75545">
        <ele>186</ele>
        <time>2017-04-21T09:05:32Z</time>
      </trkpt>
      <trkpt lat="45.95568" lon="4.7555">
        <ele>186</ele>
        <time>2017-04-21T09:05:33Z</time>
      </trkpt>
      <trkpt lat="45.95572" lon="4.75554">
        <ele>186</ele>
        <time>2017-04-21T09:05:34Z</time>
      </trkpt>
      <trkpt lat="45.95576" lon="4.75559">
        <ele>186</ele>
        <time>2017-04-21T09:05:35Z</time>
      </trkpt>
      <trkpt lat="45.9558" lon="4.75564">
        <ele>186</ele>
        <time>2017-04-21T09:05:36Z</time>
      </trkpt>
      <trkpt lat="45.95584" lon="4.7557">
        <ele>187</ele>
        <time>2017-04-21T09:05:37Z</time>
      </trkpt>
      <trkpt lat="45.95587" lon="4.75576">
        <ele>187</ele>
        <time>2017-04-21T09:05:38Z</time>
      </trkpt>
      <trkpt lat="45.9559" lon="4.75582">
        <ele>187</ele>
        <time>2017-04-21T09:05:39Z</time>
      </trkpt>
      <trkpt lat="45.95593" lon="4.75589">
        <ele>187</ele>
        <time>2017-04-21T09:05:40Z</time>
      </trkpt>
      <trkpt lat="45.95595" lon="4.75596">
        <ele>187</ele>
        <time>2017-04-21T09:05:41Z</time>
      </trkpt>
      <trkpt lat="45.95598" lon="4.75603">
        <ele>187</ele>
        <time>2017-04-21T09:05:42Z</time>
      </trkpt>
      <trkpt lat="45.95601" lon="4.7561">
        <ele>187</ele>
        <time>2017-04-21T09:05:43Z</time>
      </trkpt>
      <trkpt lat="45.95604" lon="4.75617">
        <ele>188</ele>
        <time>2017-04-21T09:05:44Z</time>
      </trkpt>
      <trkpt lat="45.95606" lon="4.75625">
        <ele>188</ele>
        <time>2017-04-21T09:05:45Z</time>
      </trkpt>
      <trkpt lat="45.95609" lon="4.75632">
        <ele>188</ele>
        <time>2017-04-21T09:05:46Z</time>
      </trkpt>
      <trkpt lat="45.95611" lon="4.7564">
        <ele>188</ele>
        <time>2017-04-21T09:05:47Z</time>
      </trkpt>
      <trkpt lat="45.95613" lon="4.75648">
        <ele>188</ele>
        <time>2017-04-21T09:05:48Z</time>
      </trkpt>
      <trkpt lat="45.95615" lon="4.75655">
        <ele>188</ele>
        <time>2017-04-21T09:05:49Z</time>
      </trkpt>
      <trkpt lat="45.95616" lon="4.75663">
        <ele>188</ele>
        <time>2017-04-21T09:05:50Z</time>
      </trkpt>
      <trkpt lat="45.95618" lon="4.75671">
        <ele>187</ele>
        <time>2017-04-21T09:05:51Z</time>
      </trkpt>
      <trkpt lat="45.95619" lon="4.75678">
        <ele>187</ele>
        <time>2017-04-21T09:05:52Z</time>
      </trkpt>
      <trkpt lat="45.9562" lon="4.75686">
        <ele>187</ele>
        <time>2017-04-21T09:05:53Z</time>
      </trkpt>
      <trkpt lat="45.95621" lon="4.75694">
        <ele>187</ele>
        <time>2017-04-21T09:05:54Z</time>
      </trkpt>
      <trkpt lat="45.95623" lon="4.75702">
        <ele>187</ele>
        <time>2017-04-21T09:05:55Z</time>
      </trkpt>
      <trkpt lat="45.95624" lon="4.7571">
        <ele>187</ele>
        <time>2017-04-21T09:05:56Z</time>
      </trkpt>
      <trkpt lat="45.95625" lon="4.75717">
        <ele>187</ele>
        <time>2017-04-21T09:05:57Z</time>
      </trkpt>
      <trkpt lat="45.95626" lon="4.75725">
        <ele>187</ele>
        <time>2017-04-21T09:05:58Z</time>
      </trkpt>
      <trkpt lat="45.95627" lon="4.75732">
        <ele>187</ele>
        <time>2017-04-21T09:05:59Z</time>
      </trkpt>
      <trkpt lat="45.95628" lon="4.7574">
        <ele>187</ele>
        <time>2017-04-21T09:06:00Z</time>
      </trkpt>
      <trkpt lat="45.9563" lon="4.75748">
        <ele>187</ele>
        <time>2017-04-21T09:06:01Z</time>
      </trkpt>
      <trkpt lat="45.95631" lon="4.75756">
        <ele>186</ele>
        <time>2017-04-21T09:06:02Z</time>
      </trkpt>
      <trkpt lat="45.95632" lon="4.75764">
        <ele>186</ele>
        <time>2017-04-21T09:06:03Z</time>
      </trkpt>
      <trkpt lat="45.95633" lon="4.75772">
        <ele>185</ele>
        <time>2017-04-21T09:06:04Z</time>
      </trkpt>
      <trkpt lat="45.95634" lon="4.7578">
        <ele>185</ele>
        <time>2017-04-21T09:06:05Z</time>
      </trkpt>
      <trkpt lat="45.95635" lon="4.75789">
        <ele>185</ele>
        <time>2017-04-21T09:06:06Z</time>
      </trkpt>
      <trkpt lat="45.95636" lon="4.75798">
        <ele>185</ele>
        <time>2017-04-21T09:06:07Z</time>
      </trkpt>
      <trkpt lat="45.95637" lon="4.75807">
        <ele>185</ele>
        <time>2017-04-21T09:06:08Z</time>
      </trkpt>
      <trkpt lat="45.95639" lon="4.75815">
        <ele>185</ele>
        <time>2017-04-21T09:06:09Z</time>
      </trkpt>
      <trkpt lat="45.95641" lon="4.75823">
        <ele>185</ele>
        <time>2017-04-21T09:06:10Z</time>
      </trkpt>
      <trkpt lat="45.95642" lon="4.7583">
        <ele>185</ele>
        <time>2017-04-21T09:06:11Z</time>
      </trkpt>
      <trkpt lat="45.95643" lon="4.75838">
        <ele>184</ele>
        <time>2017-04-21T09:06:12Z</time>
      </trkpt>
      <trkpt lat="45.95645" lon="4.75846">
        <ele>184</ele>
        <time>2017-04-21T09:06:13Z</time>
      </trkpt>
      <trkpt lat="45.95647" lon="4.75853">
        <ele>184</ele>
        <time>2017-04-21T09:06:14Z</time>
      </trkpt>
      <trkpt lat="45.95649" lon="4.75861">
        <ele>184</ele>
        <time>2017-04-21T09:06:15Z</time>
      </trkpt>
      <trkpt lat="45.95652" lon="4.75869">
        <ele>184</ele>
        <time>2017-04-21T09:06:16Z</time>
      </trkpt>
      <trkpt lat="45.95655" lon="4.75877">
        <ele>184</ele>
        <time>2017-04-21T09:06:17Z</time>
      </trkpt>
      <trkpt lat="45.95657" lon="4.75885">
        <ele>184</ele>
        <time>2017-04-21T09:06:18Z</time>
      </trkpt>
      <trkpt lat="45.9566" lon="4.75893">
        <ele>184</ele>
        <time>2017-04-21T09:06:19Z</time>
      </trkpt>
      <trkpt lat="45.95663" lon="4.75901">
        <ele>184</ele>
        <time>2017-04-21T09:06:20Z</time>
      </trkpt>
      <trkpt lat="45.95666" lon="4.75908">
        <ele>184</ele>
        <time>2017-04-21T09:06:21Z</time>
      </trkpt>
      <trkpt lat="45.95669" lon="4.75916">
        <ele>184</ele>
        <time>2017-04-21T09:06:22Z</time>
      </trkpt>
      <trkpt lat="45.95672" lon="4.75923">
        <ele>184</ele>
        <time>2017-04-21T09:06:23Z</time>
      </trkpt>
      <trkpt lat="45.95675" lon="4.7593">
        <ele>185</ele>
        <time>2017-04-21T09:06:24Z</time>
      </trkpt>
      <trkpt lat="45.95678" lon="4.75937">
        <ele>185</ele>
        <time>2017-04-21T09:06:25Z</time>
      </trkpt>
      <trkpt lat="45.95681" lon="4.75944">
        <ele>185</ele>
        <time>2017-04-21T09:06:26Z</time>
      </trkpt>
      <trkpt lat="45.95685" lon="4.75951">
        <ele>185</ele>
        <time>2017-04-21T09:06:27Z</time>
      </trkpt>
      <trkpt lat="45.95688" lon="4.75958">
        <ele>185</ele>
        <time>2017-04-21T09:06:28Z</time>
      </trkpt>
      <trkpt lat="45.95691" lon="4.75964">
        <ele>185</ele>
        <time>2017-04-21T09:06:29Z</time>
      </trkpt>
      <trkpt lat="45.95694" lon="4.7597">
        <ele>185</ele>
        <time>2017-04-21T09:06:30Z</time>
      </trkpt>
      <trkpt lat="45.95696" lon="4.75976">
        <ele>185</ele>
        <time>2017-04-21T09:06:31Z</time>
      </trkpt>
      <trkpt lat="45.95699" lon="4.75982">
        <ele>185</ele>
        <time>2017-04-21T09:06:32Z</time>
      </trkpt>
      <trkpt lat="45.95703" lon="4.75988">
        <ele>185</ele>
        <time>2017-04-21T09:06:33Z</time>
      </trkpt>
      <trkpt lat="45.95706" lon="4.75994">
        <ele>185</ele>
        <time>2017-04-21T09:06:34Z</time>
      </trkpt>
      <trkpt lat="45.95709" lon="4.76">
        <ele>184</ele>
        <time>2017-04-21T09:06:35Z</time>
      </trkpt>
      <trkpt lat="45.95711" lon="4.76006">
        <ele>184</ele>
        <time>2017-04-21T09:06:36Z</time>
      </trkpt>
      <trkpt lat="45.95714" lon="4.76013">
        <ele>184</ele>
        <time>2017-04-21T09:06:37Z</time>
      </trkpt>
      <trkpt lat="45.95717" lon="4.76018">
        <ele>184</ele>
        <time>2017-04-21T09:06:38Z</time>
      </trkpt>
      <trkpt lat="45.9572" lon="4.76024">
        <ele>184</ele>
        <time>2017-04-21T09:06:39Z</time>
      </trkpt>
      <trkpt lat="45.95722" lon="4.7603">
        <ele>184</ele>
        <time>2017-04-21T09:06:40Z</time>
      </trkpt>
      <trkpt lat="45.95725" lon="4.76036">
        <ele>184</ele>
        <time>2017-04-21T09:06:41Z</time>
      </trkpt>
      <trkpt lat="45.95728" lon="4.76042">
        <ele>184</ele>
        <time>2017-04-21T09:06:42Z</time>
      </trkpt>
      <trkpt lat="45.9573" lon="4.76049">
        <ele>184</ele>
        <time>2017-04-21T09:06:43Z</time>
      </trkpt>
      <trkpt lat="45.95733" lon="4.76055">
        <ele>184</ele>
        <time>2017-04-21T09:06:44Z</time>
      </trkpt>
      <trkpt lat="45.95736" lon="4.76061">
        <ele>184</ele>
        <time>2017-04-21T09:06:45Z</time>
      </trkpt>
      <trkpt lat="45.95739" lon="4.76067">
        <ele>184</ele>
        <time>2017-04-21T09:06:46Z</time>
      </trkpt>
      <trkpt lat="45.95742" lon="4.76073">
        <ele>185</ele>
        <time>2017-04-21T09:06:47Z</time>
      </trkpt>
      <trkpt lat="45.95744" lon="4.76079">
        <ele>185</ele>
        <time>2017-04-21T09:06:48Z</time>
      </trkpt>
      <trkpt lat="45.95747" lon="4.76086">
        <ele>185</ele>
        <time>2017-04-21T09:06:49Z</time>
      </trkpt>
      <trkpt lat="45.95749" lon="4.76092">
        <ele>185</ele>
        <time>2017-04-21T09:06:50Z</time>
      </trkpt>
      <trkpt lat="45.95751" lon="4.76099">
        <ele>186</ele>
        <time>2017-04-21T09:06:51Z</time>
      </trkpt>
      <trkpt lat="45.95753" lon="4.76105">
        <ele>186</ele>
        <time>2017-04-21T09:06:52Z</time>
      </trkpt>
      <trkpt lat="45.95755" lon="4.76112">
        <ele>186</ele>
        <time>2017-04-21T09:06:53Z</time>
      </trkpt>
      <trkpt lat="45.95756" lon="4.7612">
        <ele>186</ele>
        <time>2017-04-21T09:06:54Z</time>
      </trkpt>
      <trkpt lat="45.95757" lon="4.76127">
        <ele>186</ele>
        <time>2017-04-21T09:06:55Z</time>
      </trkpt>
      <trkpt lat="45.95758" lon="4.76135">
        <ele>186</ele>
        <time>2017-04-21T09:06:56Z</time>
      </trkpt>
      <trkpt lat="45.95759" lon="4.76142">
        <ele>186</ele>
        <time>2017-04-21T09:06:57Z</time>
      </trkpt>
      <trkpt lat="45.9576" lon="4.7615">
        <ele>186</ele>
        <time>2017-04-21T09:06:58Z</time>
      </trkpt>
      <trkpt lat="45.95761" lon="4.76157">
        <ele>186</ele>
        <time>2017-04-21T09:06:59Z</time>
      </trkpt>
      <trkpt lat="45.95762" lon="4.76165">
        <ele>186</ele>
        <time>2017-04-21T09:07:00Z</time>
      </trkpt>
      <trkpt lat="45.95762" lon="4.76173">
        <ele>185</ele>
        <time>2017-04-21T09:07:01Z</time>
      </trkpt>
      <trkpt lat="45.95763" lon="4.76181">
        <ele>186</ele>
        <time>2017-04-21T09:07:02Z</time>
      </trkpt>
      <trkpt lat="45.95763" lon="4.76188">
        <ele>186</ele>
        <time>2017-04-21T09:07:03Z</time>
      </trkpt>
      <trkpt lat="45.95763" lon="4.76196">
        <ele>186</ele>
        <time>2017-04-21T09:07:04Z</time>
      </trkpt>
      <trkpt lat="45.95764" lon="4.76204">
        <ele>186</ele>
        <time>2017-04-21T09:07:05Z</time>
      </trkpt>
      <trkpt lat="45.95764" lon="4.76211">
        <ele>186</ele>
        <time>2017-04-21T09:07:06Z</time>
      </trkpt>
      <trkpt lat="45.95765" lon="4.76218">
        <ele>186</ele>
        <time>2017-04-21T09:07:07Z</time>
      </trkpt>
      <trkpt lat="45.95764" lon="4.76226">
        <ele>186</ele>
        <time>2017-04-21T09:07:08Z</time>
      </trkpt>
      <trkpt lat="45.95765" lon="4.76233">
        <ele>186</ele>
        <time>2017-04-21T09:07:09Z</time>
      </trkpt>
      <trkpt lat="45.95765" lon="4.76241">
        <ele>186</ele>
        <time>2017-04-21T09:07:10Z</time>
      </trkpt>
      <trkpt lat="45.95765" lon="4.76249">
        <ele>185</ele>
        <time>2017-04-21T09:07:11Z</time>
      </trkpt>
      <trkpt lat="45.95766" lon="4.76257">
        <ele>185</ele>
        <time>2017-04-21T09:07:12Z</time>
      </trkpt>
      <trkpt lat="45.95767" lon="4.76265">
        <ele>185</ele>
        <time>2017-04-21T09:07:13Z</time>
      </trkpt>
      <trkpt lat="45.95767" lon="4.76272">
        <ele>186</ele>
        <time>2017-04-21T09:07:14Z</time>
      </trkpt>
      <trkpt lat="45.95768" lon="4.76279">
        <ele>186</ele>
        <time>2017-04-21T09:07:15Z</time>
      </trkpt>
      <trkpt lat="45.95768" lon="4.76287">
        <ele>186</ele>
        <time>2017-04-21T09:07:16Z</time>
      </trkpt>
      <trkpt lat="45.95769" lon="4.76294">
        <ele>186</ele>
        <time>2017-04-21T09:07:17Z</time>
      </trkpt>
      <trkpt lat="45.95769" lon="4.76301">
        <ele>186</ele>
        <time>2017-04-21T09:07:18Z</time>
      </trkpt>
      <trkpt lat="45.95769" lon="4.76308">
        <ele>186</ele>
        <time>2017-04-21T09:07:19Z</time>
      </trkpt>
      <trkpt lat="45.9577" lon="4.76315">
        <ele>185</ele>
        <time>2017-04-21T09:07:20Z</time>
      </trkpt>
      <trkpt lat="45.9577" lon="4.76323">
        <ele>185</ele>
        <time>2017-04-21T09:07:21Z</time>
      </trkpt>
      <trkpt lat="45.95771" lon="4.76331">
        <ele>185</ele>
        <time>2017-04-21T09:07:22Z</time>
      </trkpt>
      <trkpt lat="45.95771" lon="4.76339">
        <ele>186</ele>
        <time>2017-04-21T09:07:23Z</time>
      </trkpt>
      <trkpt lat="45.95771" lon="4.76346">
        <ele>186</ele>
        <time>2017-04-21T09:07:24Z</time>
      </trkpt>
      <trkpt lat="45.95772" lon="4.76354">
        <ele>186</ele>
        <time>2017-04-21T09:07:25Z</time>
      </trkpt>
      <trkpt lat="45.95772" lon="4.76361">
        <ele>186</ele>
        <time>2017-04-21T09:07:26Z</time>
      </trkpt>
      <trkpt lat="45.95773" lon="4.76369">
        <ele>186</ele>
        <time>2017-04-21T09:07:27Z</time>
      </trkpt>
      <trkpt lat="45.95773" lon="4.76377">
        <ele>186</ele>
        <time>2017-04-21T09:07:28Z</time>
      </trkpt>
      <trkpt lat="45.95774" lon="4.76384">
        <ele>186</ele>
        <time>2017-04-21T09:07:29Z</time>
      </trkpt>
      <trkpt lat="45.95775" lon="4.76392">
        <ele>186</ele>
        <time>2017-04-21T09:07:30Z</time>
      </trkpt>
      <trkpt lat="45.95775" lon="4.76399">
        <ele>186</ele>
        <time>2017-04-21T09:07:31Z</time>
      </trkpt>
      <trkpt lat="45.95776" lon="4.76406">
        <ele>186</ele>
        <time>2017-04-21T09:07:32Z</time>
      </trkpt>
      <trkpt lat="45.95777" lon="4.76414">
        <ele>186</ele>
        <time>2017-04-21T09:07:33Z</time>
      </trkpt>
      <trkpt lat="45.95778" lon="4.76421">
        <ele>186</ele>
        <time>2017-04-21T09:07:34Z</time>
      </trkpt>
      <trkpt lat="45.95778" lon="4.76428">
        <ele>186</ele>
        <time>2017-04-21T09:07:35Z</time>
      </trkpt>
      <trkpt lat="45.95779" lon="4.76435">
        <ele>186</ele>
        <time>2017-04-21T09:07:36Z</time>
      </trkpt>
      <trkpt lat="45.9578" lon="4.76442">
        <ele>186</ele>
        <time>2017-04-21T09:07:37Z</time>
      </trkpt>
      <trkpt lat="45.95781" lon="4.76449">
        <ele>186</ele>
        <time>2017-04-21T09:07:38Z</time>
      </trkpt>
      <trkpt lat="45.95782" lon="4.76456">
        <ele>186</ele>
        <time>2017-04-21T09:07:39Z</time>
      </trkpt>
      <trkpt lat="45.95783" lon="4.76463">
        <ele>186</ele>
        <time>2017-04-21T09:07:40Z</time>
      </trkpt>
      <trkpt lat="45.95783" lon="4.7647">
        <ele>186</ele>
        <time>2017-04-21T09:07:41Z</time>
      </trkpt>
      <trkpt lat="45.95784" lon="4.76477">
        <ele>186</ele>
        <time>2017-04-21T09:07:42Z</time>
      </trkpt>
      <trkpt lat="45.95785" lon="4.76485">
        <ele>186</ele>
        <time>2017-04-21T09:07:43Z</time>
      </trkpt>
      <trkpt lat="45.95786" lon="4.76492">
        <ele>186</ele>
        <time>2017-04-21T09:07:44Z</time>
      </trkpt>
      <trkpt lat="45.95786" lon="4.76499">
        <ele>186</ele>
        <time>2017-04-21T09:07:45Z</time>
      </trkpt>
      <trkpt lat="45.95788" lon="4.76507">
        <ele>187</ele>
        <time>2017-04-21T09:07:46Z</time>
      </trkpt>
      <trkpt lat="45.95789" lon="4.76515">
        <ele>187</ele>
        <time>2017-04-21T09:07:47Z</time>
      </trkpt>
      <trkpt lat="45.9579" lon="4.76522">
        <ele>187</ele>
        <time>2017-04-21T09:07:48Z</time>
      </trkpt>
      <trkpt lat="45.95791" lon="4.7653">
        <ele>187</ele>
        <time>2017-04-21T09:07:49Z</time>
      </trkpt>
      <trkpt lat="45.95792" lon="4.76537">
        <ele>187</ele>
        <time>2017-04-21T09:07:50Z</time>
      </trkpt>
      <trkpt lat="45.95793" lon="4.76545">
        <ele>187</ele>
        <time>2017-04-21T09:07:51Z</time>
      </trkpt>
      <trkpt lat="45.95794" lon="4.76552">
        <ele>187</ele>
        <time>2017-04-21T09:07:52Z</time>
      </trkpt>
      <trkpt lat="45.95795" lon="4.76559">
        <ele>187</ele>
        <time>2017-04-21T09:07:53Z</time>
      </trkpt>
      <trkpt lat="45.95796" lon="4.76567">
        <ele>187</ele>
        <time>2017-04-21T09:07:54Z</time>
      </trkpt>
      <trkpt lat="45.95797" lon="4.76575">
        <ele>187</ele>
        <time>2017-04-21T09:07:55Z</time>
      </trkpt>
      <trkpt lat="45.95798" lon="4.76582">
        <ele>187</ele>
        <time>2017-04-21T09:07:56Z</time>
      </trkpt>
      <trkpt lat="45.95799" lon="4.7659">
        <ele>187</ele>
        <time>2017-04-21T09:07:57Z</time>
      </trkpt>
      <trkpt lat="45.958" lon="4.76598">
        <ele>187</ele>
        <time>2017-04-21T09:07:58Z</time>
      </trkpt>
      <trkpt lat="45.95802" lon="4.76605">
        <ele>187</ele>
        <time>2017-04-21T09:07:59Z</time>
      </trkpt>
      <trkpt lat="45.95803" lon="4.76612">
        <ele>188</ele>
        <time>2017-04-21T09:08:00Z</time>
      </trkpt>
      <trkpt lat="45.95804" lon="4.76619">
        <ele>188</ele>
        <time>2017-04-21T09:08:01Z</time>
      </trkpt>
      <trkpt lat="45.95805" lon="4.76626">
        <ele>188</ele>
        <time>2017-04-21T09:08:02Z</time>
      </trkpt>
      <trkpt lat="45.95806" lon="4.76634">
        <ele>188</ele>
        <time>2017-04-21T09:08:03Z</time>
      </trkpt>
      <trkpt lat="45.95807" lon="4.76641">
        <ele>188</ele>
        <time>2017-04-21T09:08:04Z</time>
      </trkpt>
      <trkpt lat="45.95808" lon="4.76649">
        <ele>188</ele>
        <time>2017-04-21T09:08:05Z</time>
      </trkpt>
      <trkpt lat="45.95809" lon="4.76657">
        <ele>188</ele>
        <time>2017-04-21T09:08:06Z</time>
      </trkpt>
      <trkpt lat="45.9581" lon="4.76665">
        <ele>188</ele>
        <time>2017-04-21T09:08:07Z</time>
      </trkpt>
      <trkpt lat="45.95812" lon="4.76673">
        <ele>189</ele>
        <time>2017-04-21T09:08:08Z</time>
      </trkpt>
      <trkpt lat="45.95812" lon="4.76681">
        <ele>189</ele>
        <time>2017-04-21T09:08:09Z</time>
      </trkpt>
      <trkpt lat="45.95813" lon="4.76689">
        <ele>189</ele>
        <time>2017-04-21T09:08:10Z</time>
      </trkpt>
      <trkpt lat="45.95814" lon="4.76697">
        <ele>189</ele>
        <time>2017-04-21T09:08:11Z</time>
      </trkpt>
      <trkpt lat="45.95815" lon="4.76705">
        <ele>189</ele>
        <time>2017-04-21T09:08:12Z</time>
      </trkpt>
      <trkpt lat="45.95816" lon="4.76713">
        <ele>189</ele>
        <time>2017-04-21T09:08:13Z</time>
      </trkpt>
      <trkpt lat="45.95817" lon="4.7672">
        <ele>189</ele>
        <time>2017-04-21T09:08:14Z</time>
      </trkpt>
      <trkpt lat="45.95818" lon="4.76728">
        <ele>190</ele>
        <time>2017-04-21T09:08:15Z</time>
      </trkpt>
      <trkpt lat="45.95819" lon="4.76736">
        <ele>190</ele>
        <time>2017-04-21T09:08:16Z</time>
      </trkpt>
      <trkpt lat="45.9582" lon="4.76744">
        <ele>190</ele>
        <time>2017-04-21T09:08:17Z</time>
      </trkpt>
      <trkpt lat="45.95821" lon="4.76752">
        <ele>190</ele>
        <time>2017-04-21T09:08:18Z</time>
      </trkpt>
      <trkpt lat="45.95822" lon="4.7676">
        <ele>190</ele>
        <time>2017-04-21T09:08:19Z</time>
      </trkpt>
      <trkpt lat="45.95823" lon="4.76768">
        <ele>190</ele>
        <time>2017-04-21T09:08:20Z</time>
      </trkpt>
      <trkpt lat="45.95823" lon="4.76776">
        <ele>190</ele>
        <time>2017-04-21T09:08:21Z</time>
      </trkpt>
      <trkpt lat="45.95824" lon="4.76784">
        <ele>190</ele>
        <time>2017-04-21T09:08:22Z</time>
      </trkpt>
      <trkpt lat="45.95825" lon="4.76792">
        <ele>190</ele>
        <time>2017-04-21T09:08:23Z</time>
      </trkpt>
      <trkpt lat="45.95825" lon="4.768">
        <ele>190</ele>
        <time>2017-04-21T09:08:24Z</time>
      </trkpt>
      <trkpt lat="45.95825" lon="4.76808">
        <ele>190</ele>
        <time>2017-04-21T09:08:25Z</time>
      </trkpt>
      <trkpt lat="45.95824" lon="4.76816">
        <ele>190</ele>
        <time>2017-04-21T09:08:26Z</time>
      </trkpt>
      <trkpt lat="45.95824" lon="4.76824">
        <ele>190</ele>
        <time>2017-04-21T09:08:27Z</time>
      </trkpt>
      <trkpt lat="45.95823" lon="4.76831">
        <ele>190</ele>
        <time>2017-04-21T09:08:28Z</time>
      </trkpt>
      <trkpt lat="45.95822" lon="4.76839">
        <ele>190</ele>
        <time>2017-04-21T09:08:29Z</time>
      </trkpt>
      <trkpt lat="45.95821" lon="4.76847">
        <ele>190</ele>
        <time>2017-04-21T09:08:30Z</time>
      </trkpt>
      <trkpt lat="45.9582" lon="4.76855">
        <ele>189</ele>
        <time>2017-04-21T09:08:31Z</time>
      </trkpt>
      <trkpt lat="45.95819" lon="4.76862">
        <ele>189</ele>
        <time>2017-04-21T09:08:32Z</time>
      </trkpt>
      <trkpt lat="45.95817" lon="4.76869">
        <ele>189</ele>
        <time>2017-04-21T09:08:33Z</time>
      </trkpt>
      <trkpt lat="45.95817" lon="4.76876">
        <ele>189</ele>
        <time>2017-04-21T09:08:34Z</time>
      </trkpt>
      <trkpt lat="45.95816" lon="4.76883">
        <ele>189</ele>
        <time>2017-04-21T09:08:35Z</time>
      </trkpt>
      <trkpt lat="45.95815" lon="4.76891">
        <ele>189</ele>
        <time>2017-04-21T09:08:36Z</time>
      </trkpt>
      <trkpt lat="45.95813" lon="4.76898">
        <ele>189</ele>
        <time>2017-04-21T09:08:37Z</time>
      </trkpt>
      <trkpt lat="45.95812" lon="4.76907">
        <ele>189</ele>
        <time>2017-04-21T09:08:38Z</time>
      </trkpt>
      <trkpt lat="45.9581" lon="4.76915">
        <ele>189</ele>
        <time>2017-04-21T09:08:39Z</time>
      </trkpt>
      <trkpt lat="45.95809" lon="4.76923">
        <ele>189</ele>
        <time>2017-04-21T09:08:40Z</time>
      </trkpt>
      <trkpt lat="45.95808" lon="4.76931">
        <ele>189</ele>
        <time>2017-04-21T09:08:41Z</time>
      </trkpt>
      <trkpt lat="45.95806" lon="4.76938">
        <ele>189</ele>
        <time>2017-04-21T09:08:42Z</time>
      </trkpt>
      <trkpt lat="45.95805" lon="4.76946">
        <ele>189</ele>
        <time>2017-04-21T09:08:43Z</time>
      </trkpt>
      <trkpt lat="45.95804" lon="4.76954">
        <ele>189</ele>
        <time>2017-04-21T09:08:44Z</time>
      </trkpt>
      <trkpt lat="45.95803" lon="4.76962">
        <ele>189</ele>
        <time>2017-04-21T09:08:45Z</time>
      </trkpt>
      <trkpt lat="45.95801" lon="4.76969">
        <ele>189</ele>
        <time>2017-04-21T09:08:46Z</time>
      </trkpt>
      <trkpt lat="45.958" lon="4.76976">
        <ele>189</ele>
        <time>2017-04-21T09:08:47Z</time>
      </trkpt>
      <trkpt lat="45.958" lon="4.76983">
        <ele>189</ele>
        <time>2017-04-21T09:08:48Z</time>
      </trkpt>
      <trkpt lat="45.958" lon="4.7699">
        <ele>189</ele>
        <time>2017-04-21T09:08:49Z</time>
      </trkpt>
      <trkpt lat="45.958" lon="4.76998">
        <ele>189</ele>
        <time>2017-04-21T09:08:50Z</time>
      </trkpt>
      <trkpt lat="45.95801" lon="4.77005">
        <ele>190</ele>
        <time>2017-04-21T09:08:51Z</time>
      </trkpt>
      <trkpt lat="45.95802" lon="4.77012">
        <ele>190</ele>
        <time>2017-04-21T09:08:52Z</time>
      </trkpt>
      <trkpt lat="45.95804" lon="4.77019">
        <ele>190</ele>
        <time>2017-04-21T09:08:53Z</time>
      </trkpt>
      <trkpt lat="45.95805" lon="4.77026">
        <ele>190</ele>
        <time>2017-04-21T09:08:54Z</time>
      </trkpt>
      <trkpt lat="45.95808" lon="4.77033">
        <ele>190</ele>
        <time>2017-04-21T09:08:55Z</time>
      </trkpt>
      <trkpt lat="45.9581" lon="4.77039">
        <ele>190</ele>
        <time>2017-04-21T09:08:56Z</time>
      </trkpt>
      <trkpt lat="45.95813" lon="4.77045">
        <ele>190</ele>
        <time>2017-04-21T09:08:57Z</time>
      </trkpt>
      <trkpt lat="45.95815" lon="4.77051">
        <ele>190</ele>
        <time>2017-04-21T09:08:58Z</time>
      </trkpt>
      <trkpt lat="45.95818" lon="4.77057">
        <ele>190</ele>
        <time>2017-04-21T09:08:59Z</time>
      </trkpt>
      <trkpt lat="45.95821" lon="4.77063">
        <ele>190</ele>
        <time>2017-04-21T09:09:00Z</time>
      </trkpt>
      <trkpt lat="45.95823" lon="4.7707">
        <ele>191</ele>
        <time>2017-04-21T09:09:01Z</time>
      </trkpt>
      <trkpt lat="45.95826" lon="4.77076">
        <ele>191</ele>
        <time>2017-04-21T09:09:02Z</time>
      </trkpt>
      <trkpt lat="45.95828" lon="4.77083">
        <ele>191</ele>
        <time>2017-04-21T09:09:03Z</time>
      </trkpt>
      <trkpt lat="45.95831" lon="4.77089">
        <ele>191</ele>
        <time>2017-04-21T09:09:04Z</time>
      </trkpt>
      <trkpt lat="45.95833" lon="4.77096">
        <ele>191</ele>
        <time>2017-04-21T09:09:05Z</time>
      </trkpt>
      <trkpt lat="45.95835" lon="4.77103">
        <ele>193</ele>
        <time>2017-04-21T09:09:06Z</time>
      </trkpt>
      <trkpt lat="45.95837" lon="4.7711">
        <ele>193</ele>
        <time>2017-04-21T09:09:07Z</time>
      </trkpt>
      <trkpt lat="45.95839" lon="4.77117">
        <ele>193</ele>
        <time>2017-04-21T09:09:08Z</time>
      </trkpt>
      <trkpt lat="45.95841" lon="4.77123">
        <ele>193</ele>
        <time>2017-04-21T09:09:09Z</time>
      </trkpt>
      <trkpt lat="45.95843" lon="4.7713">
        <ele>193</ele>
        <time>2017-04-21T09:09:10Z</time>
      </trkpt>
      <trkpt lat="45.95845" lon="4.77136">
        <ele>193</ele>
        <time>2017-04-21T09:09:11Z</time>
      </trkpt>
      <trkpt lat="45.95848" lon="4.77148">
        <ele>192</ele>
        <time>2017-04-21T09:09:13Z</time>
      </trkpt>
      <trkpt lat="45.95849" lon="4.77153">
        <ele>192</ele>
        <time>2017-04-21T09:09:14Z</time>
      </trkpt>
      <trkpt lat="45.95852" lon="4.77164">
        <ele>192</ele>
        <time>2017-04-21T09:09:16Z</time>
      </trkpt>
      <trkpt lat="45.95854" lon="4.7717">
        <ele>192</ele>
        <time>2017-04-21T09:09:17Z</time>
      </trkpt>
      <trkpt lat="45.95855" lon="4.77176">
        <ele>192</ele>
        <time>2017-04-21T09:09:18Z</time>
      </trkpt>
      <trkpt lat="45.95857" lon="4.77182">
        <ele>192</ele>
        <time>2017-04-21T09:09:19Z</time>
      </trkpt>
      <trkpt lat="45.95858" lon="4.77189">
        <ele>192</ele>
        <time>2017-04-21T09:09:20Z</time>
      </trkpt>
      <trkpt lat="45.9586" lon="4.77195">
        <ele>192</ele>
        <time>2017-04-21T09:09:21Z</time>
      </trkpt>
      <trkpt lat="45.95862" lon="4.77202">
        <ele>192</ele>
        <time>2017-04-21T09:09:22Z</time>
      </trkpt>
      <trkpt lat="45.95863" lon="4.77209">
        <ele>192</ele>
        <time>2017-04-21T09:09:23Z</time>
      </trkpt>
      <trkpt lat="45.95864" lon="4.77216">
        <ele>193</ele>
        <time>2017-04-21T09:09:24Z</time>
      </trkpt>
      <trkpt lat="45.95866" lon="4.77222">
        <ele>193</ele>
        <time>2017-04-21T09:09:25Z</time>
      </trkpt>
      <trkpt lat="45.95868" lon="4.77229">
        <ele>193</ele>
        <time>2017-04-21T09:09:26Z</time>
      </trkpt>
      <trkpt lat="45.95869" lon="4.77235">
        <ele>193</ele>
        <time>2017-04-21T09:09:27Z</time>
      </trkpt>
      <trkpt lat="45.9587" lon="4.77242">
        <ele>193</ele>
        <time>2017-04-21T09:09:28Z</time>
      </trkpt>
      <trkpt lat="45.95871" lon="4.77248">
        <ele>193</ele>
        <time>2017-04-21T09:09:29Z</time>
      </trkpt>
      <trkpt lat="45.95872" lon="4.77254">
        <ele>192</ele>
        <time>2017-04-21T09:09:30Z</time>
      </trkpt>
      <trkpt lat="45.95874" lon="4.77261">
        <ele>193</ele>
        <time>2017-04-21T09:09:31Z</time>
      </trkpt>
      <trkpt lat="45.95876" lon="4.77267">
        <ele>193</ele>
        <time>2017-04-21T09:09:32Z</time>
      </trkpt>
      <trkpt lat="45.95877" lon="4.77274">
        <ele>193</ele>
        <time>2017-04-21T09:09:33Z</time>
      </trkpt>
      <trkpt lat="45.95878" lon="4.77281">
        <ele>193</ele>
        <time>2017-04-21T09:09:34Z</time>
      </trkpt>
      <trkpt lat="45.95879" lon="4.77287">
        <ele>193</ele>
        <time>2017-04-21T09:09:35Z</time>
      </trkpt>
      <trkpt lat="45.9588" lon="4.77294">
        <ele>193</ele>
        <time>2017-04-21T09:09:36Z</time>
      </trkpt>
      <trkpt lat="45.95881" lon="4.773">
        <ele>193</ele>
        <time>2017-04-21T09:09:37Z</time>
      </trkpt>
      <trkpt lat="45.95883" lon="4.77306">
        <ele>193</ele>
        <time>2017-04-21T09:09:38Z</time>
      </trkpt>
      <trkpt lat="45.95885" lon="4.77313">
        <ele>193</ele>
        <time>2017-04-21T09:09:39Z</time>
      </trkpt>
      <trkpt lat="45.95886" lon="4.77319">
        <ele>193</ele>
        <time>2017-04-21T09:09:40Z</time>
      </trkpt>
      <trkpt lat="45.95888" lon="4.77325">
        <ele>193</ele>
        <time>2017-04-21T09:09:41Z</time>
      </trkpt>
      <trkpt lat="45.9589" lon="4.77331">
        <ele>193</ele>
        <time>2017-04-21T09:09:42Z</time>
      </trkpt>
      <trkpt lat="45.95892" lon="4.77338">
        <ele>193</ele>
        <time>2017-04-21T09:09:43Z</time>
      </trkpt>
      <trkpt lat="45.95894" lon="4.77345">
        <ele>193</ele>
        <time>2017-04-21T09:09:44Z</time>
      </trkpt>
      <trkpt lat="45.95896" lon="4.77351">
        <ele>193</ele>
        <time>2017-04-21T09:09:45Z</time>
      </trkpt>
      <trkpt lat="45.95899" lon="4.77362">
        <ele>193</ele>
        <time>2017-04-21T09:09:47Z</time>
      </trkpt>
      <trkpt lat="45.95901" lon="4.77368">
        <ele>193</ele>
        <time>2017-04-21T09:09:48Z</time>
      </trkpt>
      <trkpt lat="45.95903" lon="4.77374">
        <ele>193</ele>
        <time>2017-04-21T09:09:49Z</time>
      </trkpt>
      <trkpt lat="45.95906" lon="4.7738">
        <ele>193</ele>
        <time>2017-04-21T09:09:50Z</time>
      </trkpt>
      <trkpt lat="45.95908" lon="4.77385">
        <ele>193</ele>
        <time>2017-04-21T09:09:51Z</time>
      </trkpt>
      <trkpt lat="45.95911" lon="4.77391">
        <ele>193</ele>
        <time>2017-04-21T09:09:52Z</time>
      </trkpt>
      <trkpt lat="45.95913" lon="4.77397">
        <ele>193</ele>
        <time>2017-04-21T09:09:53Z</time>
      </trkpt>
      <trkpt lat="45.95915" lon="4.77404">
        <ele>193</ele>
        <time>2017-04-21T09:09:54Z</time>
      </trkpt>
      <trkpt lat="45.95917" lon="4.77411">
        <ele>195</ele>
        <time>2017-04-21T09:09:55Z</time>
      </trkpt>
      <trkpt lat="45.95919" lon="4.77417">
        <ele>194</ele>
        <time>2017-04-21T09:09:56Z</time>
      </trkpt>
      <trkpt lat="45.95922" lon="4.77424">
        <ele>195</ele>
        <time>2017-04-21T09:09:57Z</time>
      </trkpt>
      <trkpt lat="45.95924" lon="4.7743">
        <ele>195</ele>
        <time>2017-04-21T09:09:58Z</time>
      </trkpt>
      <trkpt lat="45.95927" lon="4.77436">
        <ele>195</ele>
        <time>2017-04-21T09:09:59Z</time>
      </trkpt>
      <trkpt lat="45.95929" lon="4.77442">
        <ele>195</ele>
        <time>2017-04-21T09:10:00Z</time>
      </trkpt>
      <trkpt lat="45.95931" lon="4.77448">
        <ele>195</ele>
        <time>2017-04-21T09:10:01Z</time>
      </trkpt>
      <trkpt lat="45.95933" lon="4.77455">
        <ele>195</ele>
        <time>2017-04-21T09:10:02Z</time>
      </trkpt>
      <trkpt lat="45.95935" lon="4.77461">
        <ele>195</ele>
        <time>2017-04-21T09:10:03Z</time>
      </trkpt>
      <trkpt lat="45.95937" lon="4.77467">
        <ele>195</ele>
        <time>2017-04-21T09:10:04Z</time>
      </trkpt>
      <trkpt lat="45.95939" lon="4.77473">
        <ele>195</ele>
        <time>2017-04-21T09:10:05Z</time>
      </trkpt>
      <trkpt lat="45.95942" lon="4.77479">
        <ele>195</ele>
        <time>2017-04-21T09:10:06Z</time>
      </trkpt>
      <trkpt lat="45.95946" lon="4.7749">
        <ele>195</ele>
        <time>2017-04-21T09:10:08Z</time>
      </trkpt>
      <trkpt lat="45.95948" lon="4.77495">
        <ele>195</ele>
        <time>2017-04-21T09:10:09Z</time>
      </trkpt>
      <trkpt lat="45.95952" lon="4.77504">
        <ele>195</ele>
        <time>2017-04-21T09:10:11Z</time>
      </trkpt>
      <trkpt lat="45.95954" lon="4.77509">
        <ele>195</ele>
        <time>2017-04-21T09:10:12Z</time>
      </trkpt>
      <trkpt lat="45.95959" lon="4.77519">
        <ele>195</ele>
        <time>2017-04-21T09:10:14Z</time>
      </trkpt>
      <trkpt lat="45.95961" lon="4.77525">
        <ele>195</ele>
        <time>2017-04-21T09:10:15Z</time>
      </trkpt>
      <trkpt lat="45.95966" lon="4.77535">
        <ele>195</ele>
        <time>2017-04-21T09:10:17Z</time>
      </trkpt>
      <trkpt lat="45.95969" lon="4.77539">
        <ele>195</ele>
        <time>2017-04-21T09:10:18Z</time>
      </trkpt>
      <trkpt lat="45.95973" lon="4.77548">
        <ele>195</ele>
        <time>2017-04-21T09:10:20Z</time>
      </trkpt>
      <trkpt lat="45.95975" lon="4.77553">
        <ele>195</ele>
        <time>2017-04-21T09:10:21Z</time>
      </trkpt>
      <trkpt lat="45.95977" lon="4.77558">
        <ele>195</ele>
        <time>2017-04-21T09:10:22Z</time>
      </trkpt>
      <trkpt lat="45.95979" lon="4.77564">
        <ele>196</ele>
        <time>2017-04-21T09:10:23Z</time>
      </trkpt>
      <trkpt lat="45.95982" lon="4.77571">
        <ele>196</ele>
        <time>2017-04-21T09:10:24Z</time>
      </trkpt>
      <trkpt lat="45.95984" lon="4.77578">
        <ele>196</ele>
        <time>2017-04-21T09:10:25Z</time>
      </trkpt>
      <trkpt lat="45.95986" lon="4.77585">
        <ele>195</ele>
        <time>2017-04-21T09:10:26Z</time>
      </trkpt>
      <trkpt lat="45.95989" lon="4.77591">
        <ele>195</ele>
        <time>2017-04-21T09:10:27Z</time>
      </trkpt>
      <trkpt lat="45.95992" lon="4.77597">
        <ele>195</ele>
        <time>2017-04-21T09:10:28Z</time>
      </trkpt>
      <trkpt lat="45.95996" lon="4.77602">
        <ele>195</ele>
        <time>2017-04-21T09:10:29Z</time>
      </trkpt>
      <trkpt lat="45.95999" lon="4.77606">
        <ele>195</ele>
        <time>2017-04-21T09:10:30Z</time>
      </trkpt>
      <trkpt lat="45.96003" lon="4.7761">
        <ele>198</ele>
        <time>2017-04-21T09:10:31Z</time>
      </trkpt>
      <trkpt lat="45.96009" lon="4.77618">
        <ele>199</ele>
        <time>2017-04-21T09:10:33Z</time>
      </trkpt>
      <trkpt lat="45.96012" lon="4.77622">
        <ele>199</ele>
        <time>2017-04-21T09:10:34Z</time>
      </trkpt>
      <trkpt lat="45.96019" lon="4.7763">
        <ele>199</ele>
        <time>2017-04-21T09:10:36Z</time>
      </trkpt>
      <trkpt lat="45.96022" lon="4.77634">
        <ele>199</ele>
        <time>2017-04-21T09:10:37Z</time>
      </trkpt>
      <trkpt lat="45.96026" lon="4.77638">
        <ele>199</ele>
        <time>2017-04-21T09:10:38Z</time>
      </trkpt>
      <trkpt lat="45.96029" lon="4.77642">
        <ele>199</ele>
        <time>2017-04-21T09:10:39Z</time>
      </trkpt>
      <trkpt lat="45.96033" lon="4.77646">
        <ele>199</ele>
        <time>2017-04-21T09:10:40Z</time>
      </trkpt>
      <trkpt lat="45.96037" lon="4.7765">
        <ele>199</ele>
        <time>2017-04-21T09:10:41Z</time>
      </trkpt>
      <trkpt lat="45.96043" lon="4.77658">
        <ele>199</ele>
        <time>2017-04-21T09:10:43Z</time>
      </trkpt>
      <trkpt lat="45.96046" lon="4.77662">
        <ele>199</ele>
        <time>2017-04-21T09:10:44Z</time>
      </trkpt>
      <trkpt lat="45.96053" lon="4.7767">
        <ele>197</ele>
        <time>2017-04-21T09:10:46Z</time>
      </trkpt>
      <trkpt lat="45.96056" lon="4.77674">
        <ele>197</ele>
        <time>2017-04-21T09:10:47Z</time>
      </trkpt>
      <trkpt lat="45.96063" lon="4.77682">
        <ele>198</ele>
        <time>2017-04-21T09:10:49Z</time>
      </trkpt>
      <trkpt lat="45.96066" lon="4.77686">
        <ele>198</ele>
        <time>2017-04-21T09:10:50Z</time>
      </trkpt>
      <trkpt lat="45.96071" lon="4.77695">
        <ele>197</ele>
        <time>2017-04-21T09:10:52Z</time>
      </trkpt>
      <trkpt lat="45.96074" lon="4.77699">
        <ele>197</ele>
        <time>2017-04-21T09:10:53Z</time>
      </trkpt>
      <trkpt lat="45.9608" lon="4.77709">
        <ele>197</ele>
        <time>2017-04-21T09:10:55Z</time>
      </trkpt>
      <trkpt lat="45.96082" lon="4.77714">
        <ele>196</ele>
        <time>2017-04-21T09:10:56Z</time>
      </trkpt>
      <trkpt lat="45.96088" lon="4.77724">
        <ele>199</ele>
        <time>2017-04-21T09:10:58Z</time>
      </trkpt>
      <trkpt lat="45.96091" lon="4.77729">
        <ele>198</ele>
        <time>2017-04-21T09:10:59Z</time>
      </trkpt>
      <trkpt lat="45.96096" lon="4.77738">
        <ele>198</ele>
        <time>2017-04-21T09:11:01Z</time>
      </trkpt>
      <trkpt lat="45.96099" lon="4.77743">
        <ele>198</ele>
        <time>2017-04-21T09:11:02Z</time>
      </trkpt>
      <trkpt lat="45.96105" lon="4.77752">
        <ele>197</ele>
        <time>2017-04-21T09:11:04Z</time>
      </trkpt>
      <trkpt lat="45.96108" lon="4.77757">
        <ele>197</ele>
        <time>2017-04-21T09:11:05Z</time>
      </trkpt>
      <trkpt lat="45.96113" lon="4.77766">
        <ele>197</ele>
        <time>2017-04-21T09:11:07Z</time>
      </trkpt>
      <trkpt lat="45.96116" lon="4.77771">
        <ele>197</ele>
        <time>2017-04-21T09:11:08Z</time>
      </trkpt>
      <trkpt lat="45.96122" lon="4.7778">
        <ele>197</ele>
        <time>2017-04-21T09:11:10Z</time>
      </trkpt>
      <trkpt lat="45.96125" lon="4.77784">
        <ele>197</ele>
        <time>2017-04-21T09:11:11Z</time>
      </trkpt>
      <trkpt lat="45.96131" lon="4.77792">
        <ele>197</ele>
        <time>2017-04-21T09:11:13Z</time>
      </trkpt>
      <trkpt lat="45.96133" lon="4.77797">
        <ele>197</ele>
        <time>2017-04-21T09:11:14Z</time>
      </trkpt>
      <trkpt lat="45.96138" lon="4.77808">
        <ele>198</ele>
        <time>2017-04-21T09:11:16Z</time>
      </trkpt>
      <trkpt lat="45.9614" lon="4.77813">
        <ele>198</ele>
        <time>2017-04-21T09:11:17Z</time>
      </trkpt>
      <trkpt lat="45.96145" lon="4.77823">
        <ele>198</ele>
        <time>2017-04-21T09:11:19Z</time>
      </trkpt>
      <trkpt lat="45.96147" lon="4.77828">
        <ele>198</ele>
        <time>2017-04-21T09:11:20Z</time>
      </trkpt>
      <trkpt lat="45.9615" lon="4.77833">
        <ele>198</ele>
        <time>2017-04-21T09:11:21Z</time>
      </trkpt>
      <trkpt lat="45.96154" lon="4.77838">
        <ele>197</ele>
        <time>2017-04-21T09:11:22Z</time>
      </trkpt>
      <trkpt lat="45.96158" lon="4.77843">
        <ele>197</ele>
        <time>2017-04-21T09:11:23Z</time>
      </trkpt>
      <trkpt lat="45.96161" lon="4.77849">
        <ele>197</ele>
        <time>2017-04-21T09:11:24Z</time>
      </trkpt>
      <trkpt lat="45.96165" lon="4.77854">
        <ele>196</ele>
        <time>2017-04-21T09:11:25Z</time>
      </trkpt>
      <trkpt lat="45.96168" lon="4.77859">
        <ele>201</ele>
        <time>2017-04-21T09:11:26Z</time>
      </trkpt>
      <trkpt lat="45.96171" lon="4.77864">
        <ele>201</ele>
        <time>2017-04-21T09:11:27Z</time>
      </trkpt>
      <trkpt lat="45.96174" lon="4.7787">
        <ele>201</ele>
        <time>2017-04-21T09:11:28Z</time>
      </trkpt>
      <trkpt lat="45.96177" lon="4.77876">
        <ele>201</ele>
        <time>2017-04-21T09:11:29Z</time>
      </trkpt>
      <trkpt lat="45.96181" lon="4.77881">
        <ele>201</ele>
        <time>2017-04-21T09:11:30Z</time>
      </trkpt>
      <trkpt lat="45.96184" lon="4.77886">
        <ele>201</ele>
        <time>2017-04-21T09:11:31Z</time>
      </trkpt>
      <trkpt lat="45.96187" lon="4.77891">
        <ele>201</ele>
        <time>2017-04-21T09:11:32Z</time>
      </trkpt>
      <trkpt lat="45.9619" lon="4.77897">
        <ele>201</ele>
        <time>2017-04-21T09:11:33Z</time>
      </trkpt>
      <trkpt lat="45.96193" lon="4.77902">
        <ele>201</ele>
        <time>2017-04-21T09:11:34Z</time>
      </trkpt>
      <trkpt lat="45.96196" lon="4.77908">
        <ele>201</ele>
        <time>2017-04-21T09:11:35Z</time>
      </trkpt>
      <trkpt lat="45.962" lon="4.77913">
        <ele>201</ele>
        <time>2017-04-21T09:11:36Z</time>
      </trkpt>
      <trkpt lat="45.96204" lon="4.77918">
        <ele>198</ele>
        <time>2017-04-21T09:11:37Z</time>
      </trkpt>
      <trkpt lat="45.96207" lon="4.77924">
        <ele>199</ele>
        <time>2017-04-21T09:11:38Z</time>
      </trkpt>
      <trkpt lat="45.96211" lon="4.77929">
        <ele>199</ele>
        <time>2017-04-21T09:11:39Z</time>
      </trkpt>
      <trkpt lat="45.96215" lon="4.77935">
        <ele>199</ele>
        <time>2017-04-21T09:11:40Z</time>
      </trkpt>
      <trkpt lat="45.96218" lon="4.77941">
        <ele>199</ele>
        <time>2017-04-21T09:11:41Z</time>
      </trkpt>
      <trkpt lat="45.96221" lon="4.77946">
        <ele>199</ele>
        <time>2017-04-21T09:11:42Z</time>
      </trkpt>
      <trkpt lat="45.96225" lon="4.77951">
        <ele>199</ele>
        <time>2017-04-21T09:11:43Z</time>
      </trkpt>
      <trkpt lat="45.96229" lon="4.77954">
        <ele>199</ele>
        <time>2017-04-21T09:11:44Z</time>
      </trkpt>
      <trkpt lat="45.96233" lon="4.77958">
        <ele>199</ele>
        <time>2017-04-21T09:11:45Z</time>
      </trkpt>
      <trkpt lat="45.96237" lon="4.77961">
        <ele>199</ele>
        <time>2017-04-21T09:11:46Z</time>
      </trkpt>
      <trkpt lat="45.96241" lon="4.77965">
        <ele>199</ele>
        <time>2017-04-21T09:11:47Z</time>
      </trkpt>
      <trkpt lat="45.96246" lon="4.77969">
        <ele>198</ele>
        <time>2017-04-21T09:11:48Z</time>
      </trkpt>
      <trkpt lat="45.9625" lon="4.77972">
        <ele>198</ele>
        <time>2017-04-21T09:11:49Z</time>
      </trkpt>
      <trkpt lat="45.96254" lon="4.77975">
        <ele>203</ele>
        <time>2017-04-21T09:11:50Z</time>
      </trkpt>
      <trkpt lat="45.96258" lon="4.77979">
        <ele>202</ele>
        <time>2017-04-21T09:11:51Z</time>
      </trkpt>
      <trkpt lat="45.96262" lon="4.77982">
        <ele>202</ele>
        <time>2017-04-21T09:11:52Z</time>
      </trkpt>
      <trkpt lat="45.96266" lon="4.77985">
        <ele>202</ele>
        <time>2017-04-21T09:11:53Z</time>
      </trkpt>
      <trkpt lat="45.9627" lon="4.77988">
        <ele>202</ele>
        <time>2017-04-21T09:11:54Z</time>
      </trkpt>
      <trkpt lat="45.96274" lon="4.77993">
        <ele>202</ele>
        <time>2017-04-21T09:11:55Z</time>
      </trkpt>
      <trkpt lat="45.96279" lon="4.77997">
        <ele>203</ele>
        <time>2017-04-21T09:11:56Z</time>
      </trkpt>
      <trkpt lat="45.96283" lon="4.78001">
        <ele>198</ele>
        <time>2017-04-21T09:11:57Z</time>
      </trkpt>
      <trkpt lat="45.96287" lon="4.78005">
        <ele>199</ele>
        <time>2017-04-21T09:11:58Z</time>
      </trkpt>
      <trkpt lat="45.96291" lon="4.78009">
        <ele>199</ele>
        <time>2017-04-21T09:11:59Z</time>
      </trkpt>
      <trkpt lat="45.96295" lon="4.78013">
        <ele>199</ele>
        <time>2017-04-21T09:12:00Z</time>
      </trkpt>
      <trkpt lat="45.963" lon="4.78018">
        <ele>199</ele>
        <time>2017-04-21T09:12:01Z</time>
      </trkpt>
      <trkpt lat="45.96303" lon="4.78023">
        <ele>199</ele>
        <time>2017-04-21T09:12:02Z</time>
      </trkpt>
      <trkpt lat="45.96307" lon="4.78028">
        <ele>199</ele>
        <time>2017-04-21T09:12:03Z</time>
      </trkpt>
      <trkpt lat="45.96311" lon="4.78034">
        <ele>199</ele>
        <time>2017-04-21T09:12:04Z</time>
      </trkpt>
      <trkpt lat="45.96315" lon="4.78039">
        <ele>199</ele>
        <time>2017-04-21T09:12:05Z</time>
      </trkpt>
      <trkpt lat="45.96319" lon="4.78044">
        <ele>199</ele>
        <time>2017-04-21T09:12:06Z</time>
      </trkpt>
      <trkpt lat="45.96322" lon="4.78048">
        <ele>199</ele>
        <time>2017-04-21T09:12:07Z</time>
      </trkpt>
      <trkpt lat="45.96326" lon="4.78054">
        <ele>199</ele>
        <time>2017-04-21T09:12:08Z</time>
      </trkpt>
      <trkpt lat="45.96331" lon="4.78059">
        <ele>199</ele>
        <time>2017-04-21T09:12:09Z</time>
      </trkpt>
      <trkpt lat="45.96335" lon="4.78065">
        <ele>201</ele>
        <time>2017-04-21T09:12:10Z</time>
      </trkpt>
      <trkpt lat="45.9634" lon="4.7807">
        <ele>201</ele>
        <time>2017-04-21T09:12:11Z</time>
      </trkpt>
      <trkpt lat="45.96344" lon="4.78075">
        <ele>201</ele>
        <time>2017-04-21T09:12:12Z</time>
      </trkpt>
      <trkpt lat="45.96349" lon="4.7808">
        <ele>201</ele>
        <time>2017-04-21T09:12:13Z</time>
      </trkpt>
      <trkpt lat="45.96353" lon="4.78085">
        <ele>199</ele>
        <time>2017-04-21T09:12:14Z</time>
      </trkpt>
      <trkpt lat="45.96357" lon="4.78089">
        <ele>199</ele>
        <time>2017-04-21T09:12:15Z</time>
      </trkpt>
      <trkpt lat="45.96362" lon="4.78093">
        <ele>199</ele>
        <time>2017-04-21T09:12:16Z</time>
      </trkpt>
      <trkpt lat="45.96366" lon="4.78097">
        <ele>199</ele>
        <time>2017-04-21T09:12:17Z</time>
      </trkpt>
      <trkpt lat="45.9637" lon="4.781">
        <ele>199</ele>
        <time>2017-04-21T09:12:18Z</time>
      </trkpt>
      <trkpt lat="45.96374" lon="4.78104">
        <ele>199</ele>
        <time>2017-04-21T09:12:19Z</time>
      </trkpt>
      <trkpt lat="45.96378" lon="4.78108">
        <ele>199</ele>
        <time>2017-04-21T09:12:20Z</time>
      </trkpt>
      <trkpt lat="45.96382" lon="4.78112">
        <ele>200</ele>
        <time>2017-04-21T09:12:21Z</time>
      </trkpt>
      <trkpt lat="45.96386" lon="4.78116">
        <ele>200</ele>
        <time>2017-04-21T09:12:22Z</time>
      </trkpt>
      <trkpt lat="45.9639" lon="4.7812">
        <ele>200</ele>
        <time>2017-04-21T09:12:23Z</time>
      </trkpt>
      <trkpt lat="45.96394" lon="4.78124">
        <ele>199</ele>
        <time>2017-04-21T09:12:24Z</time>
      </trkpt>
      <trkpt lat="45.96399" lon="4.78127">
        <ele>199</ele>
        <time>2017-04-21T09:12:25Z</time>
      </trkpt>
      <trkpt lat="45.96403" lon="4.7813">
        <ele>199</ele>
        <time>2017-04-21T09:12:26Z</time>
      </trkpt>
      <trkpt lat="45.96407" lon="4.78133">
        <ele>199</ele>
        <time>2017-04-21T09:12:27Z</time>
      </trkpt>
      <trkpt lat="45.96411" lon="4.78137">
        <ele>199</ele>
        <time>2017-04-21T09:12:28Z</time>
      </trkpt>
      <trkpt lat="45.96415" lon="4.78142">
        <ele>199</ele>
        <time>2017-04-21T09:12:29Z</time>
      </trkpt>
      <trkpt lat="45.9642" lon="4.78146">
        <ele>202</ele>
        <time>2017-04-21T09:12:30Z</time>
      </trkpt>
      <trkpt lat="45.96424" lon="4.7815">
        <ele>202</ele>
        <time>2017-04-21T09:12:31Z</time>
      </trkpt>
      <trkpt lat="45.96429" lon="4.78154">
        <ele>202</ele>
        <time>2017-04-21T09:12:32Z</time>
      </trkpt>
      <trkpt lat="45.96433" lon="4.78158">
        <ele>202</ele>
        <time>2017-04-21T09:12:33Z</time>
      </trkpt>
      <trkpt lat="45.96438" lon="4.78163">
        <ele>202</ele>
        <time>2017-04-21T09:12:34Z</time>
      </trkpt>
      <trkpt lat="45.96443" lon="4.78167">
        <ele>203</ele>
        <time>2017-04-21T09:12:35Z</time>
      </trkpt>
      <trkpt lat="45.96447" lon="4.78171">
        <ele>199</ele>
        <time>2017-04-21T09:12:36Z</time>
      </trkpt>
      <trkpt lat="45.96452" lon="4.78175">
        <ele>200</ele>
        <time>2017-04-21T09:12:37Z</time>
      </trkpt>
      <trkpt lat="45.96457" lon="4.78179">
        <ele>200</ele>
        <time>2017-04-21T09:12:38Z</time>
      </trkpt>
      <trkpt lat="45.96461" lon="4.78183">
        <ele>200</ele>
        <time>2017-04-21T09:12:39Z</time>
      </trkpt>
      <trkpt lat="45.96466" lon="4.78186">
        <ele>200</ele>
        <time>2017-04-21T09:12:40Z</time>
      </trkpt>
      <trkpt lat="45.96471" lon="4.78189">
        <ele>200</ele>
        <time>2017-04-21T09:12:41Z</time>
      </trkpt>
      <trkpt lat="45.96476" lon="4.78192">
        <ele>200</ele>
        <time>2017-04-21T09:12:42Z</time>
      </trkpt>
      <trkpt lat="45.9648" lon="4.78195">
        <ele>200</ele>
        <time>2017-04-21T09:12:43Z</time>
      </trkpt>
      <trkpt lat="45.96485" lon="4.78197">
        <ele>200</ele>
        <time>2017-04-21T09:12:44Z</time>
      </trkpt>
      <trkpt lat="45.96489" lon="4.782">
        <ele>200</ele>
        <time>2017-04-21T09:12:45Z</time>
      </trkpt>
      <trkpt lat="45.96493" lon="4.78204">
        <ele>200</ele>
        <time>2017-04-21T09:12:46Z</time>
      </trkpt>
      <trkpt lat="45.96497" lon="4.78208">
        <ele>200</ele>
        <time>2017-04-21T09:12:47Z</time>
      </trkpt>
      <trkpt lat="45.965" lon="4.78213">
        <ele>205</ele>
        <time>2017-04-21T09:12:48Z</time>
      </trkpt>
      <trkpt lat="45.96504" lon="4.78219">
        <ele>204</ele>
        <time>2017-04-21T09:12:49Z</time>
      </trkpt>
      <trkpt lat="45.96507" lon="4.78224">
        <ele>204</ele>
        <time>2017-04-21T09:12:50Z</time>
      </trkpt>
      <trkpt lat="45.96509" lon="4.78229">
        <ele>203</ele>
        <time>2017-04-21T09:12:51Z</time>
      </trkpt>
      <trkpt lat="45.96512" lon="4.78234">
        <ele>203</ele>
        <time>2017-04-21T09:12:52Z</time>
      </trkpt>
      <trkpt lat="45.96515" lon="4.78239">
        <ele>203</ele>
        <time>2017-04-21T09:12:53Z</time>
      </trkpt>
      <trkpt lat="45.96518" lon="4.78244">
        <ele>203</ele>
        <time>2017-04-21T09:12:54Z</time>
      </trkpt>
      <trkpt lat="45.96522" lon="4.78249">
        <ele>203</ele>
        <time>2017-04-21T09:12:55Z</time>
      </trkpt>
      <trkpt lat="45.96525" lon="4.78254">
        <ele>200</ele>
        <time>2017-04-21T09:12:56Z</time>
      </trkpt>
      <trkpt lat="45.96528" lon="4.78259">
        <ele>200</ele>
        <time>2017-04-21T09:12:57Z</time>
      </trkpt>
      <trkpt lat="45.96531" lon="4.78265">
        <ele>200</ele>
        <time>2017-04-21T09:12:58Z</time>
      </trkpt>
      <trkpt lat="45.96535" lon="4.7827">
        <ele>200</ele>
        <time>2017-04-21T09:12:59Z</time>
      </trkpt>
      <trkpt lat="45.96538" lon="4.78275">
        <ele>200</ele>
        <time>2017-04-21T09:13:00Z</time>
      </trkpt>
      <trkpt lat="45.96542" lon="4.7828">
        <ele>200</ele>
        <time>2017-04-21T09:13:01Z</time>
      </trkpt>
      <trkpt lat="45.96545" lon="4.78285">
        <ele>200</ele>
        <time>2017-04-21T09:13:02Z</time>
      </trkpt>
      <trkpt lat="45.96549" lon="4.78289">
        <ele>200</ele>
        <time>2017-04-21T09:13:03Z</time>
      </trkpt>
      <trkpt lat="45.96553" lon="4.78293">
        <ele>200</ele>
        <time>2017-04-21T09:13:04Z</time>
      </trkpt>
      <trkpt lat="45.96557" lon="4.78298">
        <ele>200</ele>
        <time>2017-04-21T09:13:05Z</time>
      </trkpt>
      <trkpt lat="45.96562" lon="4.78303">
        <ele>200</ele>
        <time>2017-04-21T09:13:06Z</time>
      </trkpt>
      <trkpt lat="45.96566" lon="4.78307">
        <ele>200</ele>
        <time>2017-04-21T09:13:07Z</time>
      </trkpt>
      <trkpt lat="45.9657" lon="4.78311">
        <ele>199</ele>
        <time>2017-04-21T09:13:08Z</time>
      </trkpt>
      <trkpt lat="45.96574" lon="4.78316">
        <ele>199</ele>
        <time>2017-04-21T09:13:09Z</time>
      </trkpt>
      <trkpt lat="45.96578" lon="4.7832">
        <ele>199</ele>
        <time>2017-04-21T09:13:10Z</time>
      </trkpt>
      <trkpt lat="45.96582" lon="4.78324">
        <ele>199</ele>
        <time>2017-04-21T09:13:11Z</time>
      </trkpt>
      <trkpt lat="45.96587" lon="4.78328">
        <ele>200</ele>
        <time>2017-04-21T09:13:12Z</time>
      </trkpt>
      <trkpt lat="45.96591" lon="4.78332">
        <ele>200</ele>
        <time>2017-04-21T09:13:13Z</time>
      </trkpt>
      <trkpt lat="45.96595" lon="4.78336">
        <ele>199</ele>
        <time>2017-04-21T09:13:14Z</time>
      </trkpt>
      <trkpt lat="45.96599" lon="4.7834">
        <ele>200</ele>
        <time>2017-04-21T09:13:15Z</time>
      </trkpt>
      <trkpt lat="45.96603" lon="4.78344">
        <ele>200</ele>
        <time>2017-04-21T09:13:16Z</time>
      </trkpt>
      <trkpt lat="45.96608" lon="4.78348">
        <ele>200</ele>
        <time>2017-04-21T09:13:17Z</time>
      </trkpt>
      <trkpt lat="45.96612" lon="4.78353">
        <ele>200</ele>
        <time>2017-04-21T09:13:18Z</time>
      </trkpt>
      <trkpt lat="45.96617" lon="4.78357">
        <ele>201</ele>
        <time>2017-04-21T09:13:19Z</time>
      </trkpt>
      <trkpt lat="45.96621" lon="4.78361">
        <ele>201</ele>
        <time>2017-04-21T09:13:20Z</time>
      </trkpt>
      <trkpt lat="45.96626" lon="4.78365">
        <ele>201</ele>
        <time>2017-04-21T09:13:21Z</time>
      </trkpt>
      <trkpt lat="45.9663" lon="4.78369">
        <ele>201</ele>
        <time>2017-04-21T09:13:22Z</time>
      </trkpt>
      <trkpt lat="45.96634" lon="4.78372">
        <ele>201</ele>
        <time>2017-04-21T09:13:23Z</time>
      </trkpt>
      <trkpt lat="45.96638" lon="4.78376">
        <ele>201</ele>
        <time>2017-04-21T09:13:24Z</time>
      </trkpt>
      <trkpt lat="45.96642" lon="4.7838">
        <ele>201</ele>
        <time>2017-04-21T09:13:25Z</time>
      </trkpt>
      <trkpt lat="45.96646" lon="4.78383">
        <ele>201</ele>
        <time>2017-04-21T09:13:26Z</time>
      </trkpt>
      <trkpt lat="45.9665" lon="4.78387">
        <ele>201</ele>
        <time>2017-04-21T09:13:27Z</time>
      </trkpt>
      <trkpt lat="45.96654" lon="4.7839">
        <ele>201</ele>
        <time>2017-04-21T09:13:28Z</time>
      </trkpt>
      <trkpt lat="45.96658" lon="4.78394">
        <ele>201</ele>
        <time>2017-04-21T09:13:29Z</time>
      </trkpt>
      <trkpt lat="45.96662" lon="4.78398">
        <ele>201</ele>
        <time>2017-04-21T09:13:30Z</time>
      </trkpt>
      <trkpt lat="45.96666" lon="4.78402">
        <ele>201</ele>
        <time>2017-04-21T09:13:31Z</time>
      </trkpt>
      <trkpt lat="45.9667" lon="4.78406">
        <ele>203</ele>
        <time>2017-04-21T09:13:32Z</time>
      </trkpt>
      <trkpt lat="45.96674" lon="4.78409">
        <ele>203</ele>
        <time>2017-04-21T09:13:33Z</time>
      </trkpt>
      <trkpt lat="45.96678" lon="4.78413">
        <ele>203</ele>
        <time>2017-04-21T09:13:34Z</time>
      </trkpt>
      <trkpt lat="45.96682" lon="4.78416">
        <ele>204</ele>
        <time>2017-04-21T09:13:35Z</time>
      </trkpt>
      <trkpt lat="45.96686" lon="4.7842">
        <ele>202</ele>
        <time>2017-04-21T09:13:36Z</time>
      </trkpt>
      <trkpt lat="45.96693" lon="4.78426">
        <ele>202</ele>
        <time>2017-04-21T09:13:38Z</time>
      </trkpt>
      <trkpt lat="45.96697" lon="4.7843">
        <ele>203</ele>
        <time>2017-04-21T09:13:39Z</time>
      </trkpt>
      <trkpt lat="45.96701" lon="4.78434">
        <ele>203</ele>
        <time>2017-04-21T09:13:40Z</time>
      </trkpt>
      <trkpt lat="45.96705" lon="4.78438">
        <ele>203</ele>
        <time>2017-04-21T09:13:41Z</time>
      </trkpt>
      <trkpt lat="45.96709" lon="4.78442">
        <ele>203</ele>
        <time>2017-04-21T09:13:42Z</time>
      </trkpt>
      <trkpt lat="45.96714" lon="4.78447">
        <ele>203</ele>
        <time>2017-04-21T09:13:43Z</time>
      </trkpt>
      <trkpt lat="45.96718" lon="4.78451">
        <ele>203</ele>
        <time>2017-04-21T09:13:44Z</time>
      </trkpt>
      <trkpt lat="45.96723" lon="4.78456">
        <ele>203</ele>
        <time>2017-04-21T09:13:45Z</time>
      </trkpt>
      <trkpt lat="45.96728" lon="4.78462">
        <ele>203</ele>
        <time>2017-04-21T09:13:46Z</time>
      </trkpt>
      <trkpt lat="45.96732" lon="4.78467">
        <ele>203</ele>
        <time>2017-04-21T09:13:47Z</time>
      </trkpt>
      <trkpt lat="45.96737" lon="4.78471">
        <ele>203</ele>
        <time>2017-04-21T09:13:48Z</time>
      </trkpt>
      <trkpt lat="45.96741" lon="4.78475">
        <ele>203</ele>
        <time>2017-04-21T09:13:49Z</time>
      </trkpt>
      <trkpt lat="45.96746" lon="4.78479">
        <ele>203</ele>
        <time>2017-04-21T09:13:50Z</time>
      </trkpt>
      <trkpt lat="45.96751" lon="4.78484">
        <ele>205</ele>
        <time>2017-04-21T09:13:51Z</time>
      </trkpt>
      <trkpt lat="45.96755" lon="4.78489">
        <ele>204</ele>
        <time>2017-04-21T09:13:52Z</time>
      </trkpt>
      <trkpt lat="45.96759" lon="4.78494">
        <ele>204</ele>
        <time>2017-04-21T09:13:53Z</time>
      </trkpt>
      <trkpt lat="45.96762" lon="4.785">
        <ele>204</ele>
        <time>2017-04-21T09:13:54Z</time>
      </trkpt>
      <trkpt lat="45.96766" lon="4.78505">
        <ele>203</ele>
        <time>2017-04-21T09:13:55Z</time>
      </trkpt>
      <trkpt lat="45.9677" lon="4.78511">
        <ele>203</ele>
        <time>2017-04-21T09:13:56Z</time>
      </trkpt>
      <trkpt lat="45.96773" lon="4.78516">
        <ele>203</ele>
        <time>2017-04-21T09:13:57Z</time>
      </trkpt>
      <trkpt lat="45.96776" lon="4.78521">
        <ele>203</ele>
        <time>2017-04-21T09:13:58Z</time>
      </trkpt>
      <trkpt lat="45.96779" lon="4.78526">
        <ele>203</ele>
        <time>2017-04-21T09:13:59Z</time>
      </trkpt>
      <trkpt lat="45.96783" lon="4.78532">
        <ele>203</ele>
        <time>2017-04-21T09:14:00Z</time>
      </trkpt>
      <trkpt lat="45.96786" lon="4.78537">
        <ele>203</ele>
        <time>2017-04-21T09:14:01Z</time>
      </trkpt>
      <trkpt lat="45.9679" lon="4.78543">
        <ele>203</ele>
        <time>2017-04-21T09:14:02Z</time>
      </trkpt>
      <trkpt lat="45.96794" lon="4.78548">
        <ele>203</ele>
        <time>2017-04-21T09:14:03Z</time>
      </trkpt>
      <trkpt lat="45.96798" lon="4.78553">
        <ele>203</ele>
        <time>2017-04-21T09:14:04Z</time>
      </trkpt>
      <trkpt lat="45.96801" lon="4.78558">
        <ele>203</ele>
        <time>2017-04-21T09:14:05Z</time>
      </trkpt>
      <trkpt lat="45.96805" lon="4.78564">
        <ele>203</ele>
        <time>2017-04-21T09:14:06Z</time>
      </trkpt>
      <trkpt lat="45.96808" lon="4.78569">
        <ele>203</ele>
        <time>2017-04-21T09:14:07Z</time>
      </trkpt>
      <trkpt lat="45.96814" lon="4.78579">
        <ele>203</ele>
        <time>2017-04-21T09:14:09Z</time>
      </trkpt>
      <trkpt lat="45.96817" lon="4.78583">
        <ele>203</ele>
        <time>2017-04-21T09:14:10Z</time>
      </trkpt>
      <trkpt lat="45.96821" lon="4.78593">
        <ele>202</ele>
        <time>2017-04-21T09:14:12Z</time>
      </trkpt>
      <trkpt lat="45.96823" lon="4.78599">
        <ele>202</ele>
        <time>2017-04-21T09:14:13Z</time>
      </trkpt>
      <trkpt lat="45.96824" lon="4.78605">
        <ele>202</ele>
        <time>2017-04-21T09:14:14Z</time>
      </trkpt>
      <trkpt lat="45.96827" lon="4.78612">
        <ele>202</ele>
        <time>2017-04-21T09:14:15Z</time>
      </trkpt>
      <trkpt lat="45.96829" lon="4.78618">
        <ele>202</ele>
        <time>2017-04-21T09:14:16Z</time>
      </trkpt>
      <trkpt lat="45.96832" lon="4.78625">
        <ele>201</ele>
        <time>2017-04-21T09:14:17Z</time>
      </trkpt>
      <trkpt lat="45.96834" lon="4.78632">
        <ele>203</ele>
        <time>2017-04-21T09:14:18Z</time>
      </trkpt>
      <trkpt lat="45.96836" lon="4.78638">
        <ele>203</ele>
        <time>2017-04-21T09:14:19Z</time>
      </trkpt>
      <trkpt lat="45.96839" lon="4.78644">
        <ele>203</ele>
        <time>2017-04-21T09:14:20Z</time>
      </trkpt>
      <trkpt lat="45.96842" lon="4.78649">
        <ele>203</ele>
        <time>2017-04-21T09:14:21Z</time>
      </trkpt>
      <trkpt lat="45.96845" lon="4.78655">
        <ele>202</ele>
        <time>2017-04-21T09:14:22Z</time>
      </trkpt>
      <trkpt lat="45.96847" lon="4.7866">
        <ele>202</ele>
        <time>2017-04-21T09:14:23Z</time>
      </trkpt>
      <trkpt lat="45.9685" lon="4.78665">
        <ele>202</ele>
        <time>2017-04-21T09:14:24Z</time>
      </trkpt>
      <trkpt lat="45.96853" lon="4.78671">
        <ele>202</ele>
        <time>2017-04-21T09:14:25Z</time>
      </trkpt>
      <trkpt lat="45.96856" lon="4.78677">
        <ele>202</ele>
        <time>2017-04-21T09:14:26Z</time>
      </trkpt>
      <trkpt lat="45.96857" lon="4.78682">
        <ele>202</ele>
        <time>2017-04-21T09:14:27Z</time>
      </trkpt>
      <trkpt lat="45.96862" lon="4.78693">
        <ele>202</ele>
        <time>2017-04-21T09:14:29Z</time>
      </trkpt>
      <trkpt lat="45.96864" lon="4.78699">
        <ele>202</ele>
        <time>2017-04-21T09:14:30Z</time>
      </trkpt>
      <trkpt lat="45.96866" lon="4.78705">
        <ele>202</ele>
        <time>2017-04-21T09:14:31Z</time>
      </trkpt>
      <trkpt lat="45.96868" lon="4.7871">
        <ele>202</ele>
        <time>2017-04-21T09:14:32Z</time>
      </trkpt>
      <trkpt lat="45.96871" lon="4.78716">
        <ele>202</ele>
        <time>2017-04-21T09:14:33Z</time>
      </trkpt>
      <trkpt lat="45.96874" lon="4.78721">
        <ele>202</ele>
        <time>2017-04-21T09:14:34Z</time>
      </trkpt>
      <trkpt lat="45.96876" lon="4.78727">
        <ele>202</ele>
        <time>2017-04-21T09:14:35Z</time>
      </trkpt>
      <trkpt lat="45.96879" lon="4.78732">
        <ele>202</ele>
        <time>2017-04-21T09:14:36Z</time>
      </trkpt>
      <trkpt lat="45.96882" lon="4.78738">
        <ele>202</ele>
        <time>2017-04-21T09:14:37Z</time>
      </trkpt>
      <trkpt lat="45.96885" lon="4.78744">
        <ele>202</ele>
        <time>2017-04-21T09:14:38Z</time>
      </trkpt>
      <trkpt lat="45.96888" lon="4.7875">
        <ele>202</ele>
        <time>2017-04-21T09:14:39Z</time>
      </trkpt>
      <trkpt lat="45.96891" lon="4.78756">
        <ele>201</ele>
        <time>2017-04-21T09:14:40Z</time>
      </trkpt>
      <trkpt lat="45.96894" lon="4.78761">
        <ele>201</ele>
        <time>2017-04-21T09:14:41Z</time>
      </trkpt>
      <trkpt lat="45.96897" lon="4.78767">
        <ele>201</ele>
        <time>2017-04-21T09:14:42Z</time>
      </trkpt>
      <trkpt lat="45.969" lon="4.78772">
        <ele>201</ele>
        <time>2017-04-21T09:14:43Z</time>
      </trkpt>
      <trkpt lat="45.96903" lon="4.78778">
        <ele>201</ele>
        <time>2017-04-21T09:14:44Z</time>
      </trkpt>
      <trkpt lat="45.96906" lon="4.78784">
        <ele>201</ele>
        <time>2017-04-21T09:14:45Z</time>
      </trkpt>
      <trkpt lat="45.96909" lon="4.7879">
        <ele>201</ele>
        <time>2017-04-21T09:14:46Z</time>
      </trkpt>
      <trkpt lat="45.96911" lon="4.78795">
        <ele>201</ele>
        <time>2017-04-21T09:14:47Z</time>
      </trkpt>
      <trkpt lat="45.96914" lon="4.788">
        <ele>201</ele>
        <time>2017-04-21T09:14:48Z</time>
      </trkpt>
      <trkpt lat="45.96917" lon="4.78806">
        <ele>203</ele>
        <time>2017-04-21T09:14:49Z</time>
      </trkpt>
      <trkpt lat="45.9692" lon="4.78811">
        <ele>202</ele>
        <time>2017-04-21T09:14:50Z</time>
      </trkpt>
      <trkpt lat="45.96923" lon="4.78816">
        <ele>202</ele>
        <time>2017-04-21T09:14:51Z</time>
      </trkpt>
      <trkpt lat="45.96926" lon="4.78821">
        <ele>202</ele>
        <time>2017-04-21T09:14:52Z</time>
      </trkpt>
      <trkpt lat="45.96929" lon="4.78827">
        <ele>202</ele>
        <time>2017-04-21T09:14:53Z</time>
      </trkpt>
      <trkpt lat="45.96933" lon="4.78832">
        <ele>202</ele>
        <time>2017-04-21T09:14:54Z</time>
      </trkpt>
      <trkpt lat="45.96936" lon="4.78837">
        <ele>202</ele>
        <time>2017-04-21T09:14:55Z</time>
      </trkpt>
      <trkpt lat="45.96939" lon="4.78841">
        <ele>202</ele>
        <time>2017-04-21T09:14:56Z</time>
      </trkpt>
      <trkpt lat="45.96943" lon="4.78846">
        <ele>202</ele>
        <time>2017-04-21T09:14:57Z</time>
      </trkpt>
      <trkpt lat="45.96947" lon="4.7885">
        <ele>202</ele>
        <time>2017-04-21T09:14:58Z</time>
      </trkpt>
      <trkpt lat="45.9695" lon="4.78855">
        <ele>202</ele>
        <time>2017-04-21T09:14:59Z</time>
      </trkpt>
      <trkpt lat="45.96954" lon="4.78859">
        <ele>203</ele>
        <time>2017-04-21T09:15:00Z</time>
      </trkpt>
      <trkpt lat="45.96958" lon="4.78863">
        <ele>203</ele>
        <time>2017-04-21T09:15:01Z</time>
      </trkpt>
      <trkpt lat="45.96961" lon="4.78867">
        <ele>203</ele>
        <time>2017-04-21T09:15:02Z</time>
      </trkpt>
      <trkpt lat="45.96965" lon="4.78872">
        <ele>203</ele>
        <time>2017-04-21T09:15:03Z</time>
      </trkpt>
      <trkpt lat="45.96968" lon="4.78876">
        <ele>203</ele>
        <time>2017-04-21T09:15:04Z</time>
      </trkpt>
      <trkpt lat="45.96975" lon="4.78885">
        <ele>203</ele>
        <time>2017-04-21T09:15:06Z</time>
      </trkpt>
      <trkpt lat="45.96978" lon="4.78889">
        <ele>203</ele>
        <time>2017-04-21T09:15:07Z</time>
      </trkpt>
      <trkpt lat="45.96982" lon="4.78894">
        <ele>203</ele>
        <time>2017-04-21T09:15:08Z</time>
      </trkpt>
      <trkpt lat="45.96985" lon="4.78898">
        <ele>203</ele>
        <time>2017-04-21T09:15:09Z</time>
      </trkpt>
      <trkpt lat="45.96989" lon="4.78902">
        <ele>203</ele>
        <time>2017-04-21T09:15:10Z</time>
      </trkpt>
      <trkpt lat="45.96993" lon="4.78907">
        <ele>204</ele>
        <time>2017-04-21T09:15:11Z</time>
      </trkpt>
      <trkpt lat="45.96997" lon="4.78911">
        <ele>204</ele>
        <time>2017-04-21T09:15:12Z</time>
      </trkpt>
      <trkpt lat="45.97" lon="4.78916">
        <ele>204</ele>
        <time>2017-04-21T09:15:13Z</time>
      </trkpt>
      <trkpt lat="45.97004" lon="4.7892">
        <ele>204</ele>
        <time>2017-04-21T09:15:14Z</time>
      </trkpt>
      <trkpt lat="45.97008" lon="4.78925">
        <ele>204</ele>
        <time>2017-04-21T09:15:15Z</time>
      </trkpt>
      <trkpt lat="45.97011" lon="4.7893">
        <ele>205</ele>
        <time>2017-04-21T09:15:16Z</time>
      </trkpt>
      <trkpt lat="45.97014" lon="4.78934">
        <ele>205</ele>
        <time>2017-04-21T09:15:17Z</time>
      </trkpt>
      <trkpt lat="45.97018" lon="4.78939">
        <ele>205</ele>
        <time>2017-04-21T09:15:18Z</time>
      </trkpt>
      <trkpt lat="45.97021" lon="4.78943">
        <ele>205</ele>
        <time>2017-04-21T09:15:19Z</time>
      </trkpt>
      <trkpt lat="45.97024" lon="4.78948">
        <ele>205</ele>
        <time>2017-04-21T09:15:20Z</time>
      </trkpt>
      <trkpt lat="45.97027" lon="4.78953">
        <ele>205</ele>
        <time>2017-04-21T09:15:21Z</time>
      </trkpt>
      <trkpt lat="45.9703" lon="4.78959">
        <ele>205</ele>
        <time>2017-04-21T09:15:22Z</time>
      </trkpt>
      <trkpt lat="45.97033" lon="4.78965">
        <ele>205</ele>
        <time>2017-04-21T09:15:23Z</time>
      </trkpt>
      <trkpt lat="45.97036" lon="4.7897">
        <ele>205</ele>
        <time>2017-04-21T09:15:24Z</time>
      </trkpt>
      <trkpt lat="45.97038" lon="4.78976">
        <ele>204</ele>
        <time>2017-04-21T09:15:25Z</time>
      </trkpt>
      <trkpt lat="45.97041" lon="4.78982">
        <ele>204</ele>
        <time>2017-04-21T09:15:26Z</time>
      </trkpt>
      <trkpt lat="45.97044" lon="4.78988">
        <ele>204</ele>
        <time>2017-04-21T09:15:27Z</time>
      </trkpt>
      <trkpt lat="45.97046" lon="4.78994">
        <ele>204</ele>
        <time>2017-04-21T09:15:28Z</time>
      </trkpt>
      <trkpt lat="45.97048" lon="4.79">
        <ele>203</ele>
        <time>2017-04-21T09:15:29Z</time>
      </trkpt>
      <trkpt lat="45.97049" lon="4.79007">
        <ele>203</ele>
        <time>2017-04-21T09:15:30Z</time>
      </trkpt>
      <trkpt lat="45.97051" lon="4.79013">
        <ele>203</ele>
        <time>2017-04-21T09:15:31Z</time>
      </trkpt>
      <trkpt lat="45.97053" lon="4.79019">
        <ele>203</ele>
        <time>2017-04-21T09:15:32Z</time>
      </trkpt>
      <trkpt lat="45.97055" lon="4.79025">
        <ele>203</ele>
        <time>2017-04-21T09:15:33Z</time>
      </trkpt>
      <trkpt lat="45.97058" lon="4.79031">
        <ele>203</ele>
        <time>2017-04-21T09:15:34Z</time>
      </trkpt>
      <trkpt lat="45.9706" lon="4.79038">
        <ele>203</ele>
        <time>2017-04-21T09:15:35Z</time>
      </trkpt>
      <trkpt lat="45.97062" lon="4.79045">
        <ele>203</ele>
        <time>2017-04-21T09:15:36Z</time>
      </trkpt>
      <trkpt lat="45.97063" lon="4.79051">
        <ele>203</ele>
        <time>2017-04-21T09:15:37Z</time>
      </trkpt>
      <trkpt lat="45.97065" lon="4.79058">
        <ele>203</ele>
        <time>2017-04-21T09:15:38Z</time>
      </trkpt>
      <trkpt lat="45.97066" lon="4.79065">
        <ele>203</ele>
        <time>2017-04-21T09:15:39Z</time>
      </trkpt>
      <trkpt lat="45.97068" lon="4.79072">
        <ele>203</ele>
        <time>2017-04-21T09:15:40Z</time>
      </trkpt>
      <trkpt lat="45.9707" lon="4.7908">
        <ele>204</ele>
        <time>2017-04-21T09:15:41Z</time>
      </trkpt>
      <trkpt lat="45.97071" lon="4.79087">
        <ele>204</ele>
        <time>2017-04-21T09:15:42Z</time>
      </trkpt>
      <trkpt lat="45.97073" lon="4.79095">
        <ele>204</ele>
        <time>2017-04-21T09:15:43Z</time>
      </trkpt>
      <trkpt lat="45.97075" lon="4.79102">
        <ele>204</ele>
        <time>2017-04-21T09:15:44Z</time>
      </trkpt>
      <trkpt lat="45.97077" lon="4.79108">
        <ele>204</ele>
        <time>2017-04-21T09:15:45Z</time>
      </trkpt>
      <trkpt lat="45.97079" lon="4.79115">
        <ele>204</ele>
        <time>2017-04-21T09:15:46Z</time>
      </trkpt>
      <trkpt lat="45.97082" lon="4.79121">
        <ele>204</ele>
        <time>2017-04-21T09:15:47Z</time>
      </trkpt>
      <trkpt lat="45.97084" lon="4.79127">
        <ele>206</ele>
        <time>2017-04-21T09:15:48Z</time>
      </trkpt>
      <trkpt lat="45.97088" lon="4.79132">
        <ele>206</ele>
        <time>2017-04-21T09:15:49Z</time>
      </trkpt>
      <trkpt lat="45.97091" lon="4.79138">
        <ele>206</ele>
        <time>2017-04-21T09:15:50Z</time>
      </trkpt>
      <trkpt lat="45.97094" lon="4.79143">
        <ele>206</ele>
        <time>2017-04-21T09:15:51Z</time>
      </trkpt>
      <trkpt lat="45.97098" lon="4.79149">
        <ele>206</ele>
        <time>2017-04-21T09:15:52Z</time>
      </trkpt>
      <trkpt lat="45.97101" lon="4.79155">
        <ele>206</ele>
        <time>2017-04-21T09:15:53Z</time>
      </trkpt>
      <trkpt lat="45.97104" lon="4.79161">
        <ele>206</ele>
        <time>2017-04-21T09:15:54Z</time>
      </trkpt>
      <trkpt lat="45.97107" lon="4.79167">
        <ele>205</ele>
        <time>2017-04-21T09:15:55Z</time>
      </trkpt>
      <trkpt lat="45.9711" lon="4.79174">
        <ele>205</ele>
        <time>2017-04-21T09:15:56Z</time>
      </trkpt>
      <trkpt lat="45.97113" lon="4.7918">
        <ele>205</ele>
        <time>2017-04-21T09:15:57Z</time>
      </trkpt>
      <trkpt lat="45.97116" lon="4.79186">
        <ele>206</ele>
        <time>2017-04-21T09:15:58Z</time>
      </trkpt>
      <trkpt lat="45.97119" lon="4.79192">
        <ele>206</ele>
        <time>2017-04-21T09:15:59Z</time>
      </trkpt>
      <trkpt lat="45.97121" lon="4.79198">
        <ele>206</ele>
        <time>2017-04-21T09:16:00Z</time>
      </trkpt>
      <trkpt lat="45.97123" lon="4.79204">
        <ele>206</ele>
        <time>2017-04-21T09:16:01Z</time>
      </trkpt>
      <trkpt lat="45.97126" lon="4.7921">
        <ele>205</ele>
        <time>2017-04-21T09:16:02Z</time>
      </trkpt>
      <trkpt lat="45.97128" lon="4.79216">
        <ele>205</ele>
        <time>2017-04-21T09:16:03Z</time>
      </trkpt>
      <trkpt lat="45.97131" lon="4.79223">
        <ele>205</ele>
        <time>2017-04-21T09:16:04Z</time>
      </trkpt>
      <trkpt lat="45.97134" lon="4.79229">
        <ele>205</ele>
        <time>2017-04-21T09:16:05Z</time>
      </trkpt>
      <trkpt lat="45.97136" lon="4.79236">
        <ele>205</ele>
        <time>2017-04-21T09:16:06Z</time>
      </trkpt>
      <trkpt lat="45.97138" lon="4.79242">
        <ele>205</ele>
        <time>2017-04-21T09:16:07Z</time>
      </trkpt>
      <trkpt lat="45.97141" lon="4.79249">
        <ele>205</ele>
        <time>2017-04-21T09:16:08Z</time>
      </trkpt>
      <trkpt lat="45.97144" lon="4.79255">
        <ele>204</ele>
        <time>2017-04-21T09:16:09Z</time>
      </trkpt>
      <trkpt lat="45.97147" lon="4.79262">
        <ele>204</ele>
        <time>2017-04-21T09:16:10Z</time>
      </trkpt>
      <trkpt lat="45.9715" lon="4.79268">
        <ele>204</ele>
        <time>2017-04-21T09:16:11Z</time>
      </trkpt>
      <trkpt lat="45.97153" lon="4.79275">
        <ele>204</ele>
        <time>2017-04-21T09:16:12Z</time>
      </trkpt>
      <trkpt lat="45.97155" lon="4.79282">
        <ele>204</ele>
        <time>2017-04-21T09:16:13Z</time>
      </trkpt>
      <trkpt lat="45.97158" lon="4.79288">
        <ele>204</ele>
        <time>2017-04-21T09:16:14Z</time>
      </trkpt>
      <trkpt lat="45.9716" lon="4.79295">
        <ele>204</ele>
        <time>2017-04-21T09:16:15Z</time>
      </trkpt>
      <trkpt lat="45.97161" lon="4.79301">
        <ele>204</ele>
        <time>2017-04-21T09:16:16Z</time>
      </trkpt>
      <trkpt lat="45.97163" lon="4.79308">
        <ele>204</ele>
        <time>2017-04-21T09:16:17Z</time>
      </trkpt>
      <trkpt lat="45.97166" lon="4.79314">
        <ele>205</ele>
        <time>2017-04-21T09:16:18Z</time>
      </trkpt>
      <trkpt lat="45.97168" lon="4.79319">
        <ele>206</ele>
        <time>2017-04-21T09:16:19Z</time>
      </trkpt>
      <trkpt lat="45.97171" lon="4.79325">
        <ele>206</ele>
        <time>2017-04-21T09:16:20Z</time>
      </trkpt>
      <trkpt lat="45.97174" lon="4.79331">
        <ele>206</ele>
        <time>2017-04-21T09:16:21Z</time>
      </trkpt>
      <trkpt lat="45.97177" lon="4.79336">
        <ele>206</ele>
        <time>2017-04-21T09:16:22Z</time>
      </trkpt>
      <trkpt lat="45.9718" lon="4.79341">
        <ele>206</ele>
        <time>2017-04-21T09:16:23Z</time>
      </trkpt>
      <trkpt lat="45.97183" lon="4.79347">
        <ele>207</ele>
        <time>2017-04-21T09:16:24Z</time>
      </trkpt>
      <trkpt lat="45.97186" lon="4.79353">
        <ele>207</ele>
        <time>2017-04-21T09:16:25Z</time>
      </trkpt>
      <trkpt lat="45.97188" lon="4.7936">
        <ele>207</ele>
        <time>2017-04-21T09:16:26Z</time>
      </trkpt>
      <trkpt lat="45.9719" lon="4.79366">
        <ele>207</ele>
        <time>2017-04-21T09:16:27Z</time>
      </trkpt>
      <trkpt lat="45.97192" lon="4.79372">
        <ele>207</ele>
        <time>2017-04-21T09:16:28Z</time>
      </trkpt>
      <trkpt lat="45.97195" lon="4.79378">
        <ele>207</ele>
        <time>2017-04-21T09:16:29Z</time>
      </trkpt>
      <trkpt lat="45.97197" lon="4.79384">
        <ele>207</ele>
        <time>2017-04-21T09:16:30Z</time>
      </trkpt>
      <trkpt lat="45.97199" lon="4.7939">
        <ele>207</ele>
        <time>2017-04-21T09:16:31Z</time>
      </trkpt>
      <trkpt lat="45.97202" lon="4.79395">
        <ele>207</ele>
        <time>2017-04-21T09:16:32Z</time>
      </trkpt>
      <trkpt lat="45.97204" lon="4.794">
        <ele>208</ele>
        <time>2017-04-21T09:16:33Z</time>
      </trkpt>
      <trkpt lat="45.97209" lon="4.7941">
        <ele>208</ele>
        <time>2017-04-21T09:16:35Z</time>
      </trkpt>
      <trkpt lat="45.9721" lon="4.79415">
        <ele>208</ele>
        <time>2017-04-21T09:16:36Z</time>
      </trkpt>
      <trkpt lat="45.97215" lon="4.79424">
        <ele>208</ele>
        <time>2017-04-21T09:16:38Z</time>
      </trkpt>
      <trkpt lat="45.97217" lon="4.7943">
        <ele>208</ele>
        <time>2017-04-21T09:16:39Z</time>
      </trkpt>
      <trkpt lat="45.97219" lon="4.79436">
        <ele>208</ele>
        <time>2017-04-21T09:16:40Z</time>
      </trkpt>
      <trkpt lat="45.97221" lon="4.79442">
        <ele>209</ele>
        <time>2017-04-21T09:16:41Z</time>
      </trkpt>
      <trkpt lat="45.97223" lon="4.79448">
        <ele>209</ele>
        <time>2017-04-21T09:16:42Z</time>
      </trkpt>
      <trkpt lat="45.97225" lon="4.79454">
        <ele>209</ele>
        <time>2017-04-21T09:16:43Z</time>
      </trkpt>
      <trkpt lat="45.97228" lon="4.7946">
        <ele>209</ele>
        <time>2017-04-21T09:16:44Z</time>
      </trkpt>
      <trkpt lat="45.9723" lon="4.79466">
        <ele>209</ele>
        <time>2017-04-21T09:16:45Z</time>
      </trkpt>
      <trkpt lat="45.97232" lon="4.79472">
        <ele>209</ele>
        <time>2017-04-21T09:16:46Z</time>
      </trkpt>
      <trkpt lat="45.97234" lon="4.79478">
        <ele>209</ele>
        <time>2017-04-21T09:16:47Z</time>
      </trkpt>
      <trkpt lat="45.97236" lon="4.79489">
        <ele>210</ele>
        <time>2017-04-21T09:16:49Z</time>
      </trkpt>
      <trkpt lat="45.97238" lon="4.79496">
        <ele>210</ele>
        <time>2017-04-21T09:16:50Z</time>
      </trkpt>
      <trkpt lat="45.9724" lon="4.79507">
        <ele>210</ele>
        <time>2017-04-21T09:16:52Z</time>
      </trkpt>
      <trkpt lat="45.97242" lon="4.79513">
        <ele>210</ele>
        <time>2017-04-21T09:16:53Z</time>
      </trkpt>
      <trkpt lat="45.97244" lon="4.79525">
        <ele>210</ele>
        <time>2017-04-21T09:16:55Z</time>
      </trkpt>
      <trkpt lat="45.97244" lon="4.79531">
        <ele>210</ele>
        <time>2017-04-21T09:16:56Z</time>
      </trkpt>
      <trkpt lat="45.97247" lon="4.79543">
        <ele>210</ele>
        <time>2017-04-21T09:16:58Z</time>
      </trkpt>
      <trkpt lat="45.97248" lon="4.79549">
        <ele>210</ele>
        <time>2017-04-21T09:16:59Z</time>
      </trkpt>
      <trkpt lat="45.97249" lon="4.79555">
        <ele>210</ele>
        <time>2017-04-21T09:17:00Z</time>
      </trkpt>
      <trkpt lat="45.9725" lon="4.79561">
        <ele>213</ele>
        <time>2017-04-21T09:17:01Z</time>
      </trkpt>
      <trkpt lat="45.97252" lon="4.79573">
        <ele>212</ele>
        <time>2017-04-21T09:17:03Z</time>
      </trkpt>
      <trkpt lat="45.97253" lon="4.79579">
        <ele>211</ele>
        <time>2017-04-21T09:17:04Z</time>
      </trkpt>
      <trkpt lat="45.97252" lon="4.79587">
        <ele>211</ele>
        <time>2017-04-21T09:17:05Z</time>
      </trkpt>
      <trkpt lat="45.97251" lon="4.79594">
        <ele>212</ele>
        <time>2017-04-21T09:17:06Z</time>
      </trkpt>
      <trkpt lat="45.97251" lon="4.79601">
        <ele>212</ele>
        <time>2017-04-21T09:17:07Z</time>
      </trkpt>
      <trkpt lat="45.97251" lon="4.79608">
        <ele>213</ele>
        <time>2017-04-21T09:17:08Z</time>
      </trkpt>
      <trkpt lat="45.97251" lon="4.79615">
        <ele>213</ele>
        <time>2017-04-21T09:17:09Z</time>
      </trkpt>
      <trkpt lat="45.97252" lon="4.79622">
        <ele>213</ele>
        <time>2017-04-21T09:17:10Z</time>
      </trkpt>
      <trkpt lat="45.97253" lon="4.79629">
        <ele>213</ele>
        <time>2017-04-21T09:17:11Z</time>
      </trkpt>
      <trkpt lat="45.97253" lon="4.79636">
        <ele>212</ele>
        <time>2017-04-21T09:17:12Z</time>
      </trkpt>
      <trkpt lat="45.97253" lon="4.79647">
        <ele>212</ele>
        <time>2017-04-21T09:17:14Z</time>
      </trkpt>
      <trkpt lat="45.97253" lon="4.79653">
        <ele>211</ele>
        <time>2017-04-21T09:17:15Z</time>
      </trkpt>
      <trkpt lat="45.97253" lon="4.7966">
        <ele>210</ele>
        <time>2017-04-21T09:17:16Z</time>
      </trkpt>
      <trkpt lat="45.97252" lon="4.79667">
        <ele>208</ele>
        <time>2017-04-21T09:17:17Z</time>
      </trkpt>
      <trkpt lat="45.9725" lon="4.79674">
        <ele>210</ele>
        <time>2017-04-21T09:17:18Z</time>
      </trkpt>
      <trkpt lat="45.97249" lon="4.79681">
        <ele>208</ele>
        <time>2017-04-21T09:17:19Z</time>
      </trkpt>
      <trkpt lat="45.97247" lon="4.79688">
        <ele>208</ele>
        <time>2017-04-21T09:17:20Z</time>
      </trkpt>
      <trkpt lat="45.97246" lon="4.79695">
        <ele>208</ele>
        <time>2017-04-21T09:17:21Z</time>
      </trkpt>
      <trkpt lat="45.97245" lon="4.79702">
        <ele>208</ele>
        <time>2017-04-21T09:17:22Z</time>
      </trkpt>
      <trkpt lat="45.97245" lon="4.79709">
        <ele>209</ele>
        <time>2017-04-21T09:17:23Z</time>
      </trkpt>
      <trkpt lat="45.97244" lon="4.79716">
        <ele>209</ele>
        <time>2017-04-21T09:17:24Z</time>
      </trkpt>
      <trkpt lat="45.97243" lon="4.79723">
        <ele>209</ele>
        <time>2017-04-21T09:17:25Z</time>
      </trkpt>
      <trkpt lat="45.97241" lon="4.7973">
        <ele>209</ele>
        <time>2017-04-21T09:17:26Z</time>
      </trkpt>
      <trkpt lat="45.9724" lon="4.79737">
        <ele>209</ele>
        <time>2017-04-21T09:17:27Z</time>
      </trkpt>
      <trkpt lat="45.97239" lon="4.79744">
        <ele>209</ele>
        <time>2017-04-21T09:17:28Z</time>
      </trkpt>
      <trkpt lat="45.97238" lon="4.7975">
        <ele>209</ele>
        <time>2017-04-21T09:17:29Z</time>
      </trkpt>
      <trkpt lat="45.97237" lon="4.79757">
        <ele>209</ele>
        <time>2017-04-21T09:17:30Z</time>
      </trkpt>
      <trkpt lat="45.97236" lon="4.79764">
        <ele>209</ele>
        <time>2017-04-21T09:17:31Z</time>
      </trkpt>
      <trkpt lat="45.97235" lon="4.79771">
        <ele>210</ele>
        <time>2017-04-21T09:17:32Z</time>
      </trkpt>
      <trkpt lat="45.97235" lon="4.79779">
        <ele>210</ele>
        <time>2017-04-21T09:17:33Z</time>
      </trkpt>
      <trkpt lat="45.97236" lon="4.79786">
        <ele>210</ele>
        <time>2017-04-21T09:17:34Z</time>
      </trkpt>
      <trkpt lat="45.97237" lon="4.79793">
        <ele>210</ele>
        <time>2017-04-21T09:17:35Z</time>
      </trkpt>
      <trkpt lat="45.97237" lon="4.79806">
        <ele>210</ele>
        <time>2017-04-21T09:17:37Z</time>
      </trkpt>
      <trkpt lat="45.97237" lon="4.79812">
        <ele>210</ele>
        <time>2017-04-21T09:17:38Z</time>
      </trkpt>
      <trkpt lat="45.97237" lon="4.79823">
        <ele>211</ele>
        <time>2017-04-21T09:17:40Z</time>
      </trkpt>
      <trkpt lat="45.97237" lon="4.79829">
        <ele>211</ele>
        <time>2017-04-21T09:17:41Z</time>
      </trkpt>
      <trkpt lat="45.97236" lon="4.79835">
        <ele>211</ele>
        <time>2017-04-21T09:17:42Z</time>
      </trkpt>
      <trkpt lat="45.97236" lon="4.79842">
        <ele>211</ele>
        <time>2017-04-21T09:17:43Z</time>
      </trkpt>
      <trkpt lat="45.97235" lon="4.79848">
        <ele>211</ele>
        <time>2017-04-21T09:17:44Z</time>
      </trkpt>
      <trkpt lat="45.97236" lon="4.79855">
        <ele>211</ele>
        <time>2017-04-21T09:17:45Z</time>
      </trkpt>
      <trkpt lat="45.97237" lon="4.79862">
        <ele>211</ele>
        <time>2017-04-21T09:17:46Z</time>
      </trkpt>
      <trkpt lat="45.97238" lon="4.79868">
        <ele>211</ele>
        <time>2017-04-21T09:17:47Z</time>
      </trkpt>
      <trkpt lat="45.97241" lon="4.79877">
        <ele>211</ele>
        <time>2017-04-21T09:17:49Z</time>
      </trkpt>
      <trkpt lat="45.97243" lon="4.79881">
        <ele>211</ele>
        <time>2017-04-21T09:17:50Z</time>
      </trkpt>
      <trkpt lat="45.97245" lon="4.7989">
        <ele>211</ele>
        <time>2017-04-21T09:17:52Z</time>
      </trkpt>
      <trkpt lat="45.97246" lon="4.79894">
        <ele>211</ele>
        <time>2017-04-21T09:17:53Z</time>
      </trkpt>
      <trkpt lat="45.97248" lon="4.79905">
        <ele>212</ele>
        <time>2017-04-21T09:17:56Z</time>
      </trkpt>
      <trkpt lat="45.97249" lon="4.79908">
        <ele>212</ele>
        <time>2017-04-21T09:17:57Z</time>
      </trkpt>
      <trkpt lat="45.97256" lon="4.79914">
        <ele>212</ele>
        <time>2017-04-21T09:18:00Z</time>
      </trkpt>
      <trkpt lat="45.97259" lon="4.79916">
        <ele>212</ele>
        <time>2017-04-21T09:18:01Z</time>
      </trkpt>
      <trkpt lat="45.97267" lon="4.79917">
        <ele>212</ele>
        <time>2017-04-21T09:18:03Z</time>
      </trkpt>
      <trkpt lat="45.97271" lon="4.79916">
        <ele>213</ele>
        <time>2017-04-21T09:18:04Z</time>
      </trkpt>
      <trkpt lat="45.97278" lon="4.79915">
        <ele>213</ele>
        <time>2017-04-21T09:18:06Z</time>
      </trkpt>
      <trkpt lat="45.97282" lon="4.79914">
        <ele>213</ele>
        <time>2017-04-21T09:18:07Z</time>
      </trkpt>
      <trkpt lat="45.97289" lon="4.79913">
        <ele>213</ele>
        <time>2017-04-21T09:18:09Z</time>
      </trkpt>
      <trkpt lat="45.97293" lon="4.79912">
        <ele>213</ele>
        <time>2017-04-21T09:18:10Z</time>
      </trkpt>
      <trkpt lat="45.97301" lon="4.79913">
        <ele>213</ele>
        <time>2017-04-21T09:18:12Z</time>
      </trkpt>
      <trkpt lat="45.97304" lon="4.79913">
        <ele>213</ele>
        <time>2017-04-21T09:18:13Z</time>
      </trkpt>
      <trkpt lat="45.97312" lon="4.79912">
        <ele>213</ele>
        <time>2017-04-21T09:18:15Z</time>
      </trkpt>
      <trkpt lat="45.97316" lon="4.79911">
        <ele>213</ele>
        <time>2017-04-21T09:18:16Z</time>
      </trkpt>
      <trkpt lat="45.97324" lon="4.79909">
        <ele>213</ele>
        <time>2017-04-21T09:18:18Z</time>
      </trkpt>
      <trkpt lat="45.97328" lon="4.79908">
        <ele>213</ele>
        <time>2017-04-21T09:18:19Z</time>
      </trkpt>
      <trkpt lat="45.97336" lon="4.79907">
        <ele>214</ele>
        <time>2017-04-21T09:18:21Z</time>
      </trkpt>
      <trkpt lat="45.97341" lon="4.79906">
        <ele>215</ele>
        <time>2017-04-21T09:18:22Z</time>
      </trkpt>
      <trkpt lat="45.97348" lon="4.79905">
        <ele>215</ele>
        <time>2017-04-21T09:18:24Z</time>
      </trkpt>
      <trkpt lat="45.97352" lon="4.79904">
        <ele>216</ele>
        <time>2017-04-21T09:18:25Z</time>
      </trkpt>
      <trkpt lat="45.97359" lon="4.79904">
        <ele>216</ele>
        <time>2017-04-21T09:18:27Z</time>
      </trkpt>
      <trkpt lat="45.97361" lon="4.79905">
        <ele>216</ele>
        <time>2017-04-21T09:18:28Z</time>
      </trkpt>
      <trkpt lat="45.97367" lon="4.79903">
        <ele>217</ele>
        <time>2017-04-21T09:18:30Z</time>
      </trkpt>
      <trkpt lat="45.97371" lon="4.79902">
        <ele>217</ele>
        <time>2017-04-21T09:18:31Z</time>
      </trkpt>
      <trkpt lat="45.97377" lon="4.799">
        <ele>217</ele>
        <time>2017-04-21T09:18:33Z</time>
      </trkpt>
      <trkpt lat="45.97381" lon="4.79899">
        <ele>217</ele>
        <time>2017-04-21T09:18:34Z</time>
      </trkpt>
      <trkpt lat="45.97388" lon="4.799">
        <ele>217</ele>
        <time>2017-04-21T09:18:36Z</time>
      </trkpt>
      <trkpt lat="45.97392" lon="4.79899">
        <ele>217</ele>
        <time>2017-04-21T09:18:37Z</time>
      </trkpt>
      <trkpt lat="45.974" lon="4.79898">
        <ele>217</ele>
        <time>2017-04-21T09:18:39Z</time>
      </trkpt>
      <trkpt lat="45.97403" lon="4.79898">
        <ele>217</ele>
        <time>2017-04-21T09:18:40Z</time>
      </trkpt>
      <trkpt lat="45.97411" lon="4.79897">
        <ele>217</ele>
        <time>2017-04-21T09:18:42Z</time>
      </trkpt>
      <trkpt lat="45.97415" lon="4.79896">
        <ele>217</ele>
        <time>2017-04-21T09:18:43Z</time>
      </trkpt>
      <trkpt lat="45.97422" lon="4.79895">
        <ele>219</ele>
        <time>2017-04-21T09:18:45Z</time>
      </trkpt>
      <trkpt lat="45.97426" lon="4.79895">
        <ele>219</ele>
        <time>2017-04-21T09:18:46Z</time>
      </trkpt>
      <trkpt lat="45.97433" lon="4.79895">
        <ele>220</ele>
        <time>2017-04-21T09:18:48Z</time>
      </trkpt>
      <trkpt lat="45.97437" lon="4.79894">
        <ele>220</ele>
        <time>2017-04-21T09:18:49Z</time>
      </trkpt>
      <trkpt lat="45.97444" lon="4.79894">
        <ele>220</ele>
        <time>2017-04-21T09:18:51Z</time>
      </trkpt>
      <trkpt lat="45.97447" lon="4.79893">
        <ele>220</ele>
        <time>2017-04-21T09:18:52Z</time>
      </trkpt>
      <trkpt lat="45.97455" lon="4.79893">
        <ele>220</ele>
        <time>2017-04-21T09:18:54Z</time>
      </trkpt>
      <trkpt lat="45.97459" lon="4.79892">
        <ele>221</ele>
        <time>2017-04-21T09:18:55Z</time>
      </trkpt>
      <trkpt lat="45.97466" lon="4.79891">
        <ele>221</ele>
        <time>2017-04-21T09:18:57Z</time>
      </trkpt>
      <trkpt lat="45.97469" lon="4.79891">
        <ele>221</ele>
        <time>2017-04-21T09:18:58Z</time>
      </trkpt>
      <trkpt lat="45.97477" lon="4.79891">
        <ele>221</ele>
        <time>2017-04-21T09:19:00Z</time>
      </trkpt>
      <trkpt lat="45.9748" lon="4.79892">
        <ele>221</ele>
        <time>2017-04-21T09:19:01Z</time>
      </trkpt>
      <trkpt lat="45.97487" lon="4.79891">
        <ele>221</ele>
        <time>2017-04-21T09:19:03Z</time>
      </trkpt>
      <trkpt lat="45.97491" lon="4.7989">
        <ele>221</ele>
        <time>2017-04-21T09:19:04Z</time>
      </trkpt>
      <trkpt lat="45.97497" lon="4.7989">
        <ele>221</ele>
        <time>2017-04-21T09:19:06Z</time>
      </trkpt>
      <trkpt lat="45.975" lon="4.79889">
        <ele>221</ele>
        <time>2017-04-21T09:19:07Z</time>
      </trkpt>
      <trkpt lat="45.97507" lon="4.79888">
        <ele>221</ele>
        <time>2017-04-21T09:19:09Z</time>
      </trkpt>
      <trkpt lat="45.9751" lon="4.79888">
        <ele>221</ele>
        <time>2017-04-21T09:19:10Z</time>
      </trkpt>
      <trkpt lat="45.97516" lon="4.79886">
        <ele>221</ele>
        <time>2017-04-21T09:19:12Z</time>
      </trkpt>
      <trkpt lat="45.97519" lon="4.79886">
        <ele>221</ele>
        <time>2017-04-21T09:19:13Z</time>
      </trkpt>
      <trkpt lat="45.97526" lon="4.79885">
        <ele>221</ele>
        <time>2017-04-21T09:19:15Z</time>
      </trkpt>
      <trkpt lat="45.97529" lon="4.79885">
        <ele>221</ele>
        <time>2017-04-21T09:19:16Z</time>
      </trkpt>
      <trkpt lat="45.97535" lon="4.79884">
        <ele>221</ele>
        <time>2017-04-21T09:19:18Z</time>
      </trkpt>
      <trkpt lat="45.97538" lon="4.79883">
        <ele>222</ele>
        <time>2017-04-21T09:19:19Z</time>
      </trkpt>
      <trkpt lat="45.97545" lon="4.79882">
        <ele>222</ele>
        <time>2017-04-21T09:19:21Z</time>
      </trkpt>
      <trkpt lat="45.97548" lon="4.79881">
        <ele>221</ele>
        <time>2017-04-21T09:19:22Z</time>
      </trkpt>
      <trkpt lat="45.97555" lon="4.7988">
        <ele>221</ele>
        <time>2017-04-21T09:19:24Z</time>
      </trkpt>
      <trkpt lat="45.97558" lon="4.7988">
        <ele>221</ele>
        <time>2017-04-21T09:19:25Z</time>
      </trkpt>
      <trkpt lat="45.97565" lon="4.79877">
        <ele>221</ele>
        <time>2017-04-21T09:19:27Z</time>
      </trkpt>
      <trkpt lat="45.97568" lon="4.79876">
        <ele>222</ele>
        <time>2017-04-21T09:19:28Z</time>
      </trkpt>
      <trkpt lat="45.97575" lon="4.79874">
        <ele>222</ele>
        <time>2017-04-21T09:19:30Z</time>
      </trkpt>
      <trkpt lat="45.97578" lon="4.79874">
        <ele>222</ele>
        <time>2017-04-21T09:19:31Z</time>
      </trkpt>
      <trkpt lat="45.97587" lon="4.79871">
        <ele>221</ele>
        <time>2017-04-21T09:19:34Z</time>
      </trkpt>
      <trkpt lat="45.9759" lon="4.7987">
        <ele>221</ele>
        <time>2017-04-21T09:19:35Z</time>
      </trkpt>
      <trkpt lat="45.97596" lon="4.79867">
        <ele>221</ele>
        <time>2017-04-21T09:19:37Z</time>
      </trkpt>
      <trkpt lat="45.97599" lon="4.79866">
        <ele>221</ele>
        <time>2017-04-21T09:19:38Z</time>
      </trkpt>
      <trkpt lat="45.97606" lon="4.79863">
        <ele>221</ele>
        <time>2017-04-21T09:19:40Z</time>
      </trkpt>
      <trkpt lat="45.97609" lon="4.79862">
        <ele>221</ele>
        <time>2017-04-21T09:19:41Z</time>
      </trkpt>
      <trkpt lat="45.97615" lon="4.79859">
        <ele>221</ele>
        <time>2017-04-21T09:19:43Z</time>
      </trkpt>
      <trkpt lat="45.97618" lon="4.79858">
        <ele>221</ele>
        <time>2017-04-21T09:19:44Z</time>
      </trkpt>
      <trkpt lat="45.97625" lon="4.79855">
        <ele>221</ele>
        <time>2017-04-21T09:19:46Z</time>
      </trkpt>
      <trkpt lat="45.97628" lon="4.79854">
        <ele>221</ele>
        <time>2017-04-21T09:19:47Z</time>
      </trkpt>
      <trkpt lat="45.97635" lon="4.79851">
        <ele>221</ele>
        <time>2017-04-21T09:19:49Z</time>
      </trkpt>
      <trkpt lat="45.97639" lon="4.7985">
        <ele>221</ele>
        <time>2017-04-21T09:19:50Z</time>
      </trkpt>
      <trkpt lat="45.97647" lon="4.79848">
        <ele>221</ele>
        <time>2017-04-21T09:19:52Z</time>
      </trkpt>
      <trkpt lat="45.97651" lon="4.79847">
        <ele>221</ele>
        <time>2017-04-21T09:19:53Z</time>
      </trkpt>
      <trkpt lat="45.97659" lon="4.79844">
        <ele>221</ele>
        <time>2017-04-21T09:19:55Z</time>
      </trkpt>
      <trkpt lat="45.97663" lon="4.79843">
        <ele>221</ele>
        <time>2017-04-21T09:19:56Z</time>
      </trkpt>
      <trkpt lat="45.97671" lon="4.79841">
        <ele>221</ele>
        <time>2017-04-21T09:19:58Z</time>
      </trkpt>
      <trkpt lat="45.97675" lon="4.79839">
        <ele>221</ele>
        <time>2017-04-21T09:19:59Z</time>
      </trkpt>
      <trkpt lat="45.97682" lon="4.79837">
        <ele>221</ele>
        <time>2017-04-21T09:20:01Z</time>
      </trkpt>
      <trkpt lat="45.97686" lon="4.79836">
        <ele>221</ele>
        <time>2017-04-21T09:20:02Z</time>
      </trkpt>
      <trkpt lat="45.97694" lon="4.79835">
        <ele>220</ele>
        <time>2017-04-21T09:20:04Z</time>
      </trkpt>
      <trkpt lat="45.97697" lon="4.79834">
        <ele>220</ele>
        <time>2017-04-21T09:20:05Z</time>
      </trkpt>
      <trkpt lat="45.97705" lon="4.79832">
        <ele>223</ele>
        <time>2017-04-21T09:20:07Z</time>
      </trkpt>
      <trkpt lat="45.97709" lon="4.79831">
        <ele>223</ele>
        <time>2017-04-21T09:20:08Z</time>
      </trkpt>
      <trkpt lat="45.97714" lon="4.79831">
        <ele>223</ele>
        <time>2017-04-21T09:20:09Z</time>
      </trkpt>
      <trkpt lat="45.97718" lon="4.7983">
        <ele>223</ele>
        <time>2017-04-21T09:20:10Z</time>
      </trkpt>
      <trkpt lat="45.97727" lon="4.79829">
        <ele>223</ele>
        <time>2017-04-21T09:20:12Z</time>
      </trkpt>
      <trkpt lat="45.97732" lon="4.79828">
        <ele>223</ele>
        <time>2017-04-21T09:20:13Z</time>
      </trkpt>
      <trkpt lat="45.97736" lon="4.79827">
        <ele>223</ele>
        <time>2017-04-21T09:20:14Z</time>
      </trkpt>
      <trkpt lat="45.97741" lon="4.79827">
        <ele>223</ele>
        <time>2017-04-21T09:20:15Z</time>
      </trkpt>
      <trkpt lat="45.97749" lon="4.79825">
        <ele>222</ele>
        <time>2017-04-21T09:20:17Z</time>
      </trkpt>
      <trkpt lat="45.97754" lon="4.79824">
        <ele>222</ele>
        <time>2017-04-21T09:20:18Z</time>
      </trkpt>
      <trkpt lat="45.97758" lon="4.79824">
        <ele>223</ele>
        <time>2017-04-21T09:20:19Z</time>
      </trkpt>
      <trkpt lat="45.97763" lon="4.79823">
        <ele>223</ele>
        <time>2017-04-21T09:20:20Z</time>
      </trkpt>
      <trkpt lat="45.97767" lon="4.79822">
        <ele>223</ele>
        <time>2017-04-21T09:20:21Z</time>
      </trkpt>
      <trkpt lat="45.97772" lon="4.79821">
        <ele>223</ele>
        <time>2017-04-21T09:20:22Z</time>
      </trkpt>
      <trkpt lat="45.97777" lon="4.79821">
        <ele>223</ele>
        <time>2017-04-21T09:20:23Z</time>
      </trkpt>
      <trkpt lat="45.97781" lon="4.7982">
        <ele>223</ele>
        <time>2017-04-21T09:20:24Z</time>
      </trkpt>
      <trkpt lat="45.97786" lon="4.79819">
        <ele>223</ele>
        <time>2017-04-21T09:20:25Z</time>
      </trkpt>
      <trkpt lat="45.9779" lon="4.79818">
        <ele>223</ele>
        <time>2017-04-21T09:20:26Z</time>
      </trkpt>
      <trkpt lat="45.97795" lon="4.79818">
        <ele>223</ele>
        <time>2017-04-21T09:20:27Z</time>
      </trkpt>
      <trkpt lat="45.978" lon="4.79817">
        <ele>223</ele>
        <time>2017-04-21T09:20:28Z</time>
      </trkpt>
      <trkpt lat="45.97808" lon="4.79815">
        <ele>223</ele>
        <time>2017-04-21T09:20:30Z</time>
      </trkpt>
      <trkpt lat="45.97813" lon="4.79814">
        <ele>223</ele>
        <time>2017-04-21T09:20:31Z</time>
      </trkpt>
      <trkpt lat="45.97821" lon="4.79813">
        <ele>223</ele>
        <time>2017-04-21T09:20:33Z</time>
      </trkpt>
      <trkpt lat="45.97826" lon="4.79812">
        <ele>223</ele>
        <time>2017-04-21T09:20:34Z</time>
      </trkpt>
      <trkpt lat="45.9783" lon="4.79812">
        <ele>223</ele>
        <time>2017-04-21T09:20:35Z</time>
      </trkpt>
      <trkpt lat="45.97835" lon="4.79811">
        <ele>224</ele>
        <time>2017-04-21T09:20:36Z</time>
      </trkpt>
      <trkpt lat="45.9784" lon="4.7981">
        <ele>224</ele>
        <time>2017-04-21T09:20:37Z</time>
      </trkpt>
      <trkpt lat="45.97845" lon="4.79809">
        <ele>224</ele>
        <time>2017-04-21T09:20:38Z</time>
      </trkpt>
      <trkpt lat="45.97849" lon="4.79808">
        <ele>224</ele>
        <time>2017-04-21T09:20:39Z</time>
      </trkpt>
      <trkpt lat="45.97854" lon="4.79807">
        <ele>224</ele>
        <time>2017-04-21T09:20:40Z</time>
      </trkpt>
      <trkpt lat="45.97862" lon="4.79805">
        <ele>224</ele>
        <time>2017-04-21T09:20:42Z</time>
      </trkpt>
      <trkpt lat="45.97867" lon="4.79804">
        <ele>224</ele>
        <time>2017-04-21T09:20:43Z</time>
      </trkpt>
      <trkpt lat="45.97871" lon="4.79804">
        <ele>224</ele>
        <time>2017-04-21T09:20:44Z</time>
      </trkpt>
      <trkpt lat="45.97876" lon="4.79803">
        <ele>224</ele>
        <time>2017-04-21T09:20:45Z</time>
      </trkpt>
      <trkpt lat="45.97881" lon="4.79802">
        <ele>224</ele>
        <time>2017-04-21T09:20:46Z</time>
      </trkpt>
      <trkpt lat="45.97886" lon="4.79801">
        <ele>224</ele>
        <time>2017-04-21T09:20:47Z</time>
      </trkpt>
      <trkpt lat="45.9789" lon="4.798">
        <ele>224</ele>
        <time>2017-04-21T09:20:48Z</time>
      </trkpt>
      <trkpt lat="45.97895" lon="4.79799">
        <ele>224</ele>
        <time>2017-04-21T09:20:49Z</time>
      </trkpt>
      <trkpt lat="45.979" lon="4.79798">
        <ele>224</ele>
        <time>2017-04-21T09:20:50Z</time>
      </trkpt>
      <trkpt lat="45.97905" lon="4.79797">
        <ele>224</ele>
        <time>2017-04-21T09:20:51Z</time>
      </trkpt>
      <trkpt lat="45.9791" lon="4.79797">
        <ele>224</ele>
        <time>2017-04-21T09:20:52Z</time>
      </trkpt>
      <trkpt lat="45.97915" lon="4.79796">
        <ele>224</ele>
        <time>2017-04-21T09:20:53Z</time>
      </trkpt>
      <trkpt lat="45.97921" lon="4.79795">
        <ele>224</ele>
        <time>2017-04-21T09:20:54Z</time>
      </trkpt>
      <trkpt lat="45.97926" lon="4.79794">
        <ele>224</ele>
        <time>2017-04-21T09:20:55Z</time>
      </trkpt>
      <trkpt lat="45.97931" lon="4.79793">
        <ele>224</ele>
        <time>2017-04-21T09:20:56Z</time>
      </trkpt>
      <trkpt lat="45.97936" lon="4.79792">
        <ele>224</ele>
        <time>2017-04-21T09:20:57Z</time>
      </trkpt>
      <trkpt lat="45.97942" lon="4.7979">
        <ele>224</ele>
        <time>2017-04-21T09:20:58Z</time>
      </trkpt>
      <trkpt lat="45.97947" lon="4.79789">
        <ele>224</ele>
        <time>2017-04-21T09:20:59Z</time>
      </trkpt>
      <trkpt lat="45.97952" lon="4.79788">
        <ele>224</ele>
        <time>2017-04-21T09:21:00Z</time>
      </trkpt>
      <trkpt lat="45.97957" lon="4.79788">
        <ele>224</ele>
        <time>2017-04-21T09:21:01Z</time>
      </trkpt>
      <trkpt lat="45.97965" lon="4.79786">
        <ele>224</ele>
        <time>2017-04-21T09:21:03Z</time>
      </trkpt>
      <trkpt lat="45.97969" lon="4.79785">
        <ele>224</ele>
        <time>2017-04-21T09:21:04Z</time>
      </trkpt>
      <trkpt lat="45.97978" lon="4.79785">
        <ele>224</ele>
        <time>2017-04-21T09:21:06Z</time>
      </trkpt>
      <trkpt lat="45.97982" lon="4.79784">
        <ele>224</ele>
        <time>2017-04-21T09:21:07Z</time>
      </trkpt>
      <trkpt lat="45.97987" lon="4.79784">
        <ele>224</ele>
        <time>2017-04-21T09:21:08Z</time>
      </trkpt>
      <trkpt lat="45.97991" lon="4.79783">
        <ele>224</ele>
        <time>2017-04-21T09:21:09Z</time>
      </trkpt>
      <trkpt lat="45.98" lon="4.79783">
        <ele>223</ele>
        <time>2017-04-21T09:21:11Z</time>
      </trkpt>
      <trkpt lat="45.98005" lon="4.79782">
        <ele>223</ele>
        <time>2017-04-21T09:21:12Z</time>
      </trkpt>
      <trkpt lat="45.9801" lon="4.79781">
        <ele>223</ele>
        <time>2017-04-21T09:21:13Z</time>
      </trkpt>
      <trkpt lat="45.98014" lon="4.79781">
        <ele>223</ele>
        <time>2017-04-21T09:21:14Z</time>
      </trkpt>
      <trkpt lat="45.98019" lon="4.7978">
        <ele>223</ele>
        <time>2017-04-21T09:21:15Z</time>
      </trkpt>
      <trkpt lat="45.98023" lon="4.79779">
        <ele>223</ele>
        <time>2017-04-21T09:21:16Z</time>
      </trkpt>
      <trkpt lat="45.98028" lon="4.79779">
        <ele>223</ele>
        <time>2017-04-21T09:21:17Z</time>
      </trkpt>
      <trkpt lat="45.98033" lon="4.79778">
        <ele>223</ele>
        <time>2017-04-21T09:21:18Z</time>
      </trkpt>
      <trkpt lat="45.98038" lon="4.79778">
        <ele>223</ele>
        <time>2017-04-21T09:21:19Z</time>
      </trkpt>
      <trkpt lat="45.98042" lon="4.79778">
        <ele>223</ele>
        <time>2017-04-21T09:21:20Z</time>
      </trkpt>
      <trkpt lat="45.98047" lon="4.79778">
        <ele>223</ele>
        <time>2017-04-21T09:21:21Z</time>
      </trkpt>
      <trkpt lat="45.98052" lon="4.79777">
        <ele>223</ele>
        <time>2017-04-21T09:21:22Z</time>
      </trkpt>
      <trkpt lat="45.98057" lon="4.79776">
        <ele>223</ele>
        <time>2017-04-21T09:21:23Z</time>
      </trkpt>
      <trkpt lat="45.98061" lon="4.79776">
        <ele>223</ele>
        <time>2017-04-21T09:21:24Z</time>
      </trkpt>
      <trkpt lat="45.98066" lon="4.79776">
        <ele>223</ele>
        <time>2017-04-21T09:21:25Z</time>
      </trkpt>
      <trkpt lat="45.98071" lon="4.79775">
        <ele>223</ele>
        <time>2017-04-21T09:21:26Z</time>
      </trkpt>
      <trkpt lat="45.98075" lon="4.79774">
        <ele>223</ele>
        <time>2017-04-21T09:21:27Z</time>
      </trkpt>
      <trkpt lat="45.9808" lon="4.79774">
        <ele>223</ele>
        <time>2017-04-21T09:21:28Z</time>
      </trkpt>
      <trkpt lat="45.98084" lon="4.79773">
        <ele>223</ele>
        <time>2017-04-21T09:21:29Z</time>
      </trkpt>
      <trkpt lat="45.98089" lon="4.79772">
        <ele>223</ele>
        <time>2017-04-21T09:21:30Z</time>
      </trkpt>
      <trkpt lat="45.98097" lon="4.79772">
        <ele>223</ele>
        <time>2017-04-21T09:21:32Z</time>
      </trkpt>
      <trkpt lat="45.98102" lon="4.79771">
        <ele>224</ele>
        <time>2017-04-21T09:21:33Z</time>
      </trkpt>
      <trkpt lat="45.98111" lon="4.7977">
        <ele>224</ele>
        <time>2017-04-21T09:21:35Z</time>
      </trkpt>
      <trkpt lat="45.98115" lon="4.7977">
        <ele>224</ele>
        <time>2017-04-21T09:21:36Z</time>
      </trkpt>
      <trkpt lat="45.9812" lon="4.79769">
        <ele>224</ele>
        <time>2017-04-21T09:21:37Z</time>
      </trkpt>
      <trkpt lat="45.98125" lon="4.79769">
        <ele>224</ele>
        <time>2017-04-21T09:21:38Z</time>
      </trkpt>
      <trkpt lat="45.9813" lon="4.79768">
        <ele>224</ele>
        <time>2017-04-21T09:21:39Z</time>
      </trkpt>
      <trkpt lat="45.98135" lon="4.79768">
        <ele>224</ele>
        <time>2017-04-21T09:21:40Z</time>
      </trkpt>
      <trkpt lat="45.9814" lon="4.79767">
        <ele>224</ele>
        <time>2017-04-21T09:21:41Z</time>
      </trkpt>
      <trkpt lat="45.98145" lon="4.79766">
        <ele>224</ele>
        <time>2017-04-21T09:21:42Z</time>
      </trkpt>
      <trkpt lat="45.98149" lon="4.79766">
        <ele>225</ele>
        <time>2017-04-21T09:21:43Z</time>
      </trkpt>
      <trkpt lat="45.98154" lon="4.79767">
        <ele>225</ele>
        <time>2017-04-21T09:21:44Z</time>
      </trkpt>
      <trkpt lat="45.98161" lon="4.79773">
        <ele>225</ele>
        <time>2017-04-21T09:21:46Z</time>
      </trkpt>
      <trkpt lat="45.98165" lon="4.79776">
        <ele>225</ele>
        <time>2017-04-21T09:21:47Z</time>
      </trkpt>
      <trkpt lat="45.98171" lon="4.79784">
        <ele>226</ele>
        <time>2017-04-21T09:21:49Z</time>
      </trkpt>
      <trkpt lat="45.98173" lon="4.7979">
        <ele>226</ele>
        <time>2017-04-21T09:21:50Z</time>
      </trkpt>
      <trkpt lat="45.98176" lon="4.79795">
        <ele>226</ele>
        <time>2017-04-21T09:21:51Z</time>
      </trkpt>
      <trkpt lat="45.98178" lon="4.79802">
        <ele>225</ele>
        <time>2017-04-21T09:21:52Z</time>
      </trkpt>
      <trkpt lat="45.9818" lon="4.79808">
        <ele>225</ele>
        <time>2017-04-21T09:21:53Z</time>
      </trkpt>
      <trkpt lat="45.98182" lon="4.79815">
        <ele>225</ele>
        <time>2017-04-21T09:21:54Z</time>
      </trkpt>
      <trkpt lat="45.98185" lon="4.79821">
        <ele>225</ele>
        <time>2017-04-21T09:21:55Z</time>
      </trkpt>
      <trkpt lat="45.98188" lon="4.79828">
        <ele>225</ele>
        <time>2017-04-21T09:21:56Z</time>
      </trkpt>
      <trkpt lat="45.9819" lon="4.79836">
        <ele>225</ele>
        <time>2017-04-21T09:21:57Z</time>
      </trkpt>
      <trkpt lat="45.98193" lon="4.79844">
        <ele>225</ele>
        <time>2017-04-21T09:21:58Z</time>
      </trkpt>
      <trkpt lat="45.98196" lon="4.79852">
        <ele>225</ele>
        <time>2017-04-21T09:21:59Z</time>
      </trkpt>
      <trkpt lat="45.98199" lon="4.7986">
        <ele>225</ele>
        <time>2017-04-21T09:22:00Z</time>
      </trkpt>
      <trkpt lat="45.98202" lon="4.79868">
        <ele>225</ele>
        <time>2017-04-21T09:22:01Z</time>
      </trkpt>
      <trkpt lat="45.98205" lon="4.79876">
        <ele>225</ele>
        <time>2017-04-21T09:22:02Z</time>
      </trkpt>
      <trkpt lat="45.98208" lon="4.79884">
        <ele>225</ele>
        <time>2017-04-21T09:22:03Z</time>
      </trkpt>
      <trkpt lat="45.98211" lon="4.79892">
        <ele>225</ele>
        <time>2017-04-21T09:22:04Z</time>
      </trkpt>
      <trkpt lat="45.98213" lon="4.799">
        <ele>225</ele>
        <time>2017-04-21T09:22:05Z</time>
      </trkpt>
      <trkpt lat="45.98216" lon="4.79907">
        <ele>225</ele>
        <time>2017-04-21T09:22:06Z</time>
      </trkpt>
      <trkpt lat="45.98219" lon="4.79914">
        <ele>225</ele>
        <time>2017-04-21T09:22:07Z</time>
      </trkpt>
      <trkpt lat="45.98222" lon="4.79921">
        <ele>225</ele>
        <time>2017-04-21T09:22:08Z</time>
      </trkpt>
      <trkpt lat="45.98225" lon="4.79928">
        <ele>225</ele>
        <time>2017-04-21T09:22:09Z</time>
      </trkpt>
      <trkpt lat="45.98227" lon="4.79935">
        <ele>225</ele>
        <time>2017-04-21T09:22:10Z</time>
      </trkpt>
      <trkpt lat="45.9823" lon="4.79943">
        <ele>225</ele>
        <time>2017-04-21T09:22:11Z</time>
      </trkpt>
      <trkpt lat="45.98233" lon="4.79949">
        <ele>225</ele>
        <time>2017-04-21T09:22:12Z</time>
      </trkpt>
      <trkpt lat="45.98235" lon="4.79955">
        <ele>225</ele>
        <time>2017-04-21T09:22:13Z</time>
      </trkpt>
      <trkpt lat="45.98237" lon="4.79962">
        <ele>225</ele>
        <time>2017-04-21T09:22:14Z</time>
      </trkpt>
      <trkpt lat="45.98239" lon="4.79968">
        <ele>225</ele>
        <time>2017-04-21T09:22:15Z</time>
      </trkpt>
      <trkpt lat="45.98242" lon="4.79974">
        <ele>225</ele>
        <time>2017-04-21T09:22:16Z</time>
      </trkpt>
      <trkpt lat="45.98244" lon="4.7998">
        <ele>225</ele>
        <time>2017-04-21T09:22:17Z</time>
      </trkpt>
      <trkpt lat="45.98247" lon="4.79986">
        <ele>226</ele>
        <time>2017-04-21T09:22:18Z</time>
      </trkpt>
      <trkpt lat="45.9825" lon="4.79993">
        <ele>226</ele>
        <time>2017-04-21T09:22:19Z</time>
      </trkpt>
      <trkpt lat="45.98252" lon="4.8">
        <ele>226</ele>
        <time>2017-04-21T09:22:20Z</time>
      </trkpt>
      <trkpt lat="45.98254" lon="4.80007">
        <ele>227</ele>
        <time>2017-04-21T09:22:21Z</time>
      </trkpt>
      <trkpt lat="45.98256" lon="4.80014">
        <ele>228</ele>
        <time>2017-04-21T09:22:22Z</time>
      </trkpt>
      <trkpt lat="45.98259" lon="4.80021">
        <ele>228</ele>
        <time>2017-04-21T09:22:23Z</time>
      </trkpt>
      <trkpt lat="45.98261" lon="4.80028">
        <ele>228</ele>
        <time>2017-04-21T09:22:24Z</time>
      </trkpt>
      <trkpt lat="45.98263" lon="4.80035">
        <ele>228</ele>
        <time>2017-04-21T09:22:25Z</time>
      </trkpt>
      <trkpt lat="45.98265" lon="4.80042">
        <ele>228</ele>
        <time>2017-04-21T09:22:26Z</time>
      </trkpt>
      <trkpt lat="45.98267" lon="4.80048">
        <ele>229</ele>
        <time>2017-04-21T09:22:27Z</time>
      </trkpt>
      <trkpt lat="45.9827" lon="4.80055">
        <ele>229</ele>
        <time>2017-04-21T09:22:28Z</time>
      </trkpt>
      <trkpt lat="45.98272" lon="4.80062">
        <ele>228</ele>
        <time>2017-04-21T09:22:29Z</time>
      </trkpt>
      <trkpt lat="45.98274" lon="4.80069">
        <ele>228</ele>
        <time>2017-04-21T09:22:30Z</time>
      </trkpt>
      <trkpt lat="45.98277" lon="4.80077">
        <ele>228</ele>
        <time>2017-04-21T09:22:31Z</time>
      </trkpt>
      <trkpt lat="45.98279" lon="4.80084">
        <ele>228</ele>
        <time>2017-04-21T09:22:32Z</time>
      </trkpt>
      <trkpt lat="45.98282" lon="4.80091">
        <ele>228</ele>
        <time>2017-04-21T09:22:33Z</time>
      </trkpt>
      <trkpt lat="45.98284" lon="4.80097">
        <ele>228</ele>
        <time>2017-04-21T09:22:34Z</time>
      </trkpt>
      <trkpt lat="45.98286" lon="4.80104">
        <ele>228</ele>
        <time>2017-04-21T09:22:35Z</time>
      </trkpt>
      <trkpt lat="45.98288" lon="4.80112">
        <ele>228</ele>
        <time>2017-04-21T09:22:36Z</time>
      </trkpt>
      <trkpt lat="45.9829" lon="4.80118">
        <ele>228</ele>
        <time>2017-04-21T09:22:37Z</time>
      </trkpt>
      <trkpt lat="45.98292" lon="4.80125">
        <ele>228</ele>
        <time>2017-04-21T09:22:38Z</time>
      </trkpt>
      <trkpt lat="45.98295" lon="4.8013">
        <ele>228</ele>
        <time>2017-04-21T09:22:39Z</time>
      </trkpt>
      <trkpt lat="45.98297" lon="4.80137">
        <ele>228</ele>
        <time>2017-04-21T09:22:40Z</time>
      </trkpt>
      <trkpt lat="45.98299" lon="4.80142">
        <ele>228</ele>
        <time>2017-04-21T09:22:41Z</time>
      </trkpt>
      <trkpt lat="45.98302" lon="4.80147">
        <ele>228</ele>
        <time>2017-04-21T09:22:42Z</time>
      </trkpt>
      <trkpt lat="45.98305" lon="4.80154">
        <ele>228</ele>
        <time>2017-04-21T09:22:43Z</time>
      </trkpt>
      <trkpt lat="45.98307" lon="4.8016">
        <ele>228</ele>
        <time>2017-04-21T09:22:44Z</time>
      </trkpt>
      <trkpt lat="45.98309" lon="4.80167">
        <ele>228</ele>
        <time>2017-04-21T09:22:45Z</time>
      </trkpt>
      <trkpt lat="45.98311" lon="4.80173">
        <ele>227</ele>
        <time>2017-04-21T09:22:46Z</time>
      </trkpt>
      <trkpt lat="45.98313" lon="4.80179">
        <ele>227</ele>
        <time>2017-04-21T09:22:47Z</time>
      </trkpt>
      <trkpt lat="45.98315" lon="4.80185">
        <ele>227</ele>
        <time>2017-04-21T09:22:48Z</time>
      </trkpt>
      <trkpt lat="45.98317" lon="4.80192">
        <ele>227</ele>
        <time>2017-04-21T09:22:49Z</time>
      </trkpt>
      <trkpt lat="45.98319" lon="4.80198">
        <ele>227</ele>
        <time>2017-04-21T09:22:50Z</time>
      </trkpt>
      <trkpt lat="45.98321" lon="4.80205">
        <ele>227</ele>
        <time>2017-04-21T09:22:51Z</time>
      </trkpt>
      <trkpt lat="45.98324" lon="4.80212">
        <ele>227</ele>
        <time>2017-04-21T09:22:52Z</time>
      </trkpt>
      <trkpt lat="45.98326" lon="4.80219">
        <ele>227</ele>
        <time>2017-04-21T09:22:53Z</time>
      </trkpt>
      <trkpt lat="45.98327" lon="4.80226">
        <ele>228</ele>
        <time>2017-04-21T09:22:54Z</time>
      </trkpt>
      <trkpt lat="45.98327" lon="4.80233">
        <ele>228</ele>
        <time>2017-04-21T09:22:55Z</time>
      </trkpt>
      <trkpt lat="45.98325" lon="4.8024">
        <ele>228</ele>
        <time>2017-04-21T09:22:56Z</time>
      </trkpt>
      <trkpt lat="45.98323" lon="4.80247">
        <ele>229</ele>
        <time>2017-04-21T09:22:57Z</time>
      </trkpt>
      <trkpt lat="45.98322" lon="4.80254">
        <ele>228</ele>
        <time>2017-04-21T09:22:58Z</time>
      </trkpt>
      <trkpt lat="45.9832" lon="4.80261">
        <ele>228</ele>
        <time>2017-04-21T09:22:59Z</time>
      </trkpt>
      <trkpt lat="45.98319" lon="4.80269">
        <ele>227</ele>
        <time>2017-04-21T09:23:00Z</time>
      </trkpt>
      <trkpt lat="45.98317" lon="4.80277">
        <ele>227</ele>
        <time>2017-04-21T09:23:01Z</time>
      </trkpt>
      <trkpt lat="45.98315" lon="4.80285">
        <ele>226</ele>
        <time>2017-04-21T09:23:02Z</time>
      </trkpt>
      <trkpt lat="45.98313" lon="4.80293">
        <ele>226</ele>
        <time>2017-04-21T09:23:03Z</time>
      </trkpt>
      <trkpt lat="45.98312" lon="4.80301">
        <ele>226</ele>
        <time>2017-04-21T09:23:04Z</time>
      </trkpt>
      <trkpt lat="45.9831" lon="4.80309">
        <ele>226</ele>
        <time>2017-04-21T09:23:05Z</time>
      </trkpt>
      <trkpt lat="45.98308" lon="4.80317">
        <ele>226</ele>
        <time>2017-04-21T09:23:06Z</time>
      </trkpt>
      <trkpt lat="45.98306" lon="4.80327">
        <ele>226</ele>
        <time>2017-04-21T09:23:07Z</time>
      </trkpt>
      <trkpt lat="45.98304" lon="4.80336">
        <ele>226</ele>
        <time>2017-04-21T09:23:08Z</time>
      </trkpt>
      <trkpt lat="45.98302" lon="4.80345">
        <ele>225</ele>
        <time>2017-04-21T09:23:09Z</time>
      </trkpt>
      <trkpt lat="45.983" lon="4.80355">
        <ele>225</ele>
        <time>2017-04-21T09:23:10Z</time>
      </trkpt>
      <trkpt lat="45.98297" lon="4.80364">
        <ele>225</ele>
        <time>2017-04-21T09:23:11Z</time>
      </trkpt>
      <trkpt lat="45.98295" lon="4.80374">
        <ele>224</ele>
        <time>2017-04-21T09:23:12Z</time>
      </trkpt>
      <trkpt lat="45.98293" lon="4.80382">
        <ele>224</ele>
        <time>2017-04-21T09:23:13Z</time>
      </trkpt>
      <trkpt lat="45.98291" lon="4.80392">
        <ele>224</ele>
        <time>2017-04-21T09:23:14Z</time>
      </trkpt>
      <trkpt lat="45.98288" lon="4.80401">
        <ele>224</ele>
        <time>2017-04-21T09:23:15Z</time>
      </trkpt>
      <trkpt lat="45.98286" lon="4.80411">
        <ele>224</ele>
        <time>2017-04-21T09:23:16Z</time>
      </trkpt>
      <trkpt lat="45.98284" lon="4.8042">
        <ele>223</ele>
        <time>2017-04-21T09:23:17Z</time>
      </trkpt>
      <trkpt lat="45.98283" lon="4.80427">
        <ele>223</ele>
        <time>2017-04-21T09:23:18Z</time>
      </trkpt>
      <trkpt lat="45.98281" lon="4.80435">
        <ele>223</ele>
        <time>2017-04-21T09:23:19Z</time>
      </trkpt>
      <trkpt lat="45.98278" lon="4.80444">
        <ele>223</ele>
        <time>2017-04-21T09:23:20Z</time>
      </trkpt>
      <trkpt lat="45.98276" lon="4.80453">
        <ele>223</ele>
        <time>2017-04-21T09:23:21Z</time>
      </trkpt>
      <trkpt lat="45.98274" lon="4.80461">
        <ele>223</ele>
        <time>2017-04-21T09:23:22Z</time>
      </trkpt>
      <trkpt lat="45.98272" lon="4.80468">
        <ele>223</ele>
        <time>2017-04-21T09:23:23Z</time>
      </trkpt>
      <trkpt lat="45.98269" lon="4.80477">
        <ele>223</ele>
        <time>2017-04-21T09:23:24Z</time>
      </trkpt>
      <trkpt lat="45.98267" lon="4.80483">
        <ele>223</ele>
        <time>2017-04-21T09:23:25Z</time>
      </trkpt>
      <trkpt lat="45.98266" lon="4.8049">
        <ele>223</ele>
        <time>2017-04-21T09:23:26Z</time>
      </trkpt>
      <trkpt lat="45.98264" lon="4.80497">
        <ele>223</ele>
        <time>2017-04-21T09:23:27Z</time>
      </trkpt>
      <trkpt lat="45.98263" lon="4.80503">
        <ele>223</ele>
        <time>2017-04-21T09:23:28Z</time>
      </trkpt>
      <trkpt lat="45.98261" lon="4.80516">
        <ele>223</ele>
        <time>2017-04-21T09:23:30Z</time>
      </trkpt>
      <trkpt lat="45.98259" lon="4.80521">
        <ele>223</ele>
        <time>2017-04-21T09:23:31Z</time>
      </trkpt>
      <trkpt lat="45.98258" lon="4.80526">
        <ele>223</ele>
        <time>2017-04-21T09:23:32Z</time>
      </trkpt>
      <trkpt lat="45.98256" lon="4.80534">
        <ele>224</ele>
        <time>2017-04-21T09:23:33Z</time>
      </trkpt>
      <trkpt lat="45.98253" lon="4.80541">
        <ele>224</ele>
        <time>2017-04-21T09:23:34Z</time>
      </trkpt>
      <trkpt lat="45.9825" lon="4.80548">
        <ele>224</ele>
        <time>2017-04-21T09:23:35Z</time>
      </trkpt>
      <trkpt lat="45.98248" lon="4.80555">
        <ele>223</ele>
        <time>2017-04-21T09:23:36Z</time>
      </trkpt>
      <trkpt lat="45.98246" lon="4.80562">
        <ele>223</ele>
        <time>2017-04-21T09:23:37Z</time>
      </trkpt>
      <trkpt lat="45.98244" lon="4.8057">
        <ele>224</ele>
        <time>2017-04-21T09:23:38Z</time>
      </trkpt>
      <trkpt lat="45.98242" lon="4.80579">
        <ele>224</ele>
        <time>2017-04-21T09:23:39Z</time>
      </trkpt>
      <trkpt lat="45.98239" lon="4.80589">
        <ele>224</ele>
        <time>2017-04-21T09:23:40Z</time>
      </trkpt>
      <trkpt lat="45.98236" lon="4.80597">
        <ele>224</ele>
        <time>2017-04-21T09:23:41Z</time>
      </trkpt>
      <trkpt lat="45.98233" lon="4.80604">
        <ele>224</ele>
        <time>2017-04-21T09:23:42Z</time>
      </trkpt>
      <trkpt lat="45.98231" lon="4.8061">
        <ele>224</ele>
        <time>2017-04-21T09:23:43Z</time>
      </trkpt>
      <trkpt lat="45.98228" lon="4.80616">
        <ele>224</ele>
        <time>2017-04-21T09:23:44Z</time>
      </trkpt>
      <trkpt lat="45.98226" lon="4.80622">
        <ele>224</ele>
        <time>2017-04-21T09:23:45Z</time>
      </trkpt>
      <trkpt lat="45.98223" lon="4.80628">
        <ele>224</ele>
        <time>2017-04-21T09:23:46Z</time>
      </trkpt>
      <trkpt lat="45.98222" lon="4.80635">
        <ele>224</ele>
        <time>2017-04-21T09:23:47Z</time>
      </trkpt>
      <trkpt lat="45.98219" lon="4.80647">
        <ele>224</ele>
        <time>2017-04-21T09:23:49Z</time>
      </trkpt>
      <trkpt lat="45.98218" lon="4.80652">
        <ele>224</ele>
        <time>2017-04-21T09:23:50Z</time>
      </trkpt>
      <trkpt lat="45.98214" lon="4.80661">
        <ele>224</ele>
        <time>2017-04-21T09:23:52Z</time>
      </trkpt>
      <trkpt lat="45.98211" lon="4.80664">
        <ele>224</ele>
        <time>2017-04-21T09:23:53Z</time>
      </trkpt>
      <trkpt lat="45.98205" lon="4.80669">
        <ele>224</ele>
        <time>2017-04-21T09:23:55Z</time>
      </trkpt>
      <trkpt lat="45.98203" lon="4.80672">
        <ele>225</ele>
        <time>2017-04-21T09:23:56Z</time>
      </trkpt>
      <trkpt lat="45.98196" lon="4.80675">
        <ele>225</ele>
        <time>2017-04-21T09:23:58Z</time>
      </trkpt>
      <trkpt lat="45.98193" lon="4.80678">
        <ele>225</ele>
        <time>2017-04-21T09:23:59Z</time>
      </trkpt>
      <trkpt lat="45.98188" lon="4.80679">
        <ele>225</ele>
        <time>2017-04-21T09:24:00Z</time>
      </trkpt>
      <trkpt lat="45.98184" lon="4.80681">
        <ele>225</ele>
        <time>2017-04-21T09:24:01Z</time>
      </trkpt>
      <trkpt lat="45.98179" lon="4.80681">
        <ele>225</ele>
        <time>2017-04-21T09:24:02Z</time>
      </trkpt>
      <trkpt lat="45.98175" lon="4.80683">
        <ele>225</ele>
        <time>2017-04-21T09:24:03Z</time>
      </trkpt>
      <trkpt lat="45.98167" lon="4.80684">
        <ele>225</ele>
        <time>2017-04-21T09:24:05Z</time>
      </trkpt>
      <trkpt lat="45.98163" lon="4.80684">
        <ele>227</ele>
        <time>2017-04-21T09:24:06Z</time>
      </trkpt>
      <trkpt lat="45.98155" lon="4.80685">
        <ele>227</ele>
        <time>2017-04-21T09:24:08Z</time>
      </trkpt>
      <trkpt lat="45.98152" lon="4.80685">
        <ele>227</ele>
        <time>2017-04-21T09:24:09Z</time>
      </trkpt>
      <trkpt lat="45.98144" lon="4.80686">
        <ele>228</ele>
        <time>2017-04-21T09:24:11Z</time>
      </trkpt>
      <trkpt lat="45.9814" lon="4.80687">
        <ele>228</ele>
        <time>2017-04-21T09:24:12Z</time>
      </trkpt>
      <trkpt lat="45.98132" lon="4.80688">
        <ele>228</ele>
        <time>2017-04-21T09:24:14Z</time>
      </trkpt>
      <trkpt lat="45.98127" lon="4.80689">
        <ele>228</ele>
        <time>2017-04-21T09:24:15Z</time>
      </trkpt>
      <trkpt lat="45.9812" lon="4.80689">
        <ele>228</ele>
        <time>2017-04-21T09:24:17Z</time>
      </trkpt>
      <trkpt lat="45.98116" lon="4.8069">
        <ele>228</ele>
        <time>2017-04-21T09:24:18Z</time>
      </trkpt>
      <trkpt lat="45.98108" lon="4.8069">
        <ele>228</ele>
        <time>2017-04-21T09:24:20Z</time>
      </trkpt>
      <trkpt lat="45.98104" lon="4.8069">
        <ele>228</ele>
        <time>2017-04-21T09:24:21Z</time>
      </trkpt>
      <trkpt lat="45.98097" lon="4.8069">
        <ele>228</ele>
        <time>2017-04-21T09:24:23Z</time>
      </trkpt>
      <trkpt lat="45.98094" lon="4.80689">
        <ele>228</ele>
        <time>2017-04-21T09:24:24Z</time>
      </trkpt>
      <trkpt lat="45.98087" lon="4.8069">
        <ele>228</ele>
        <time>2017-04-21T09:24:26Z</time>
      </trkpt>
      <trkpt lat="45.98083" lon="4.8069">
        <ele>229</ele>
        <time>2017-04-21T09:24:27Z</time>
      </trkpt>
      <trkpt lat="45.98076" lon="4.8069">
        <ele>230</ele>
        <time>2017-04-21T09:24:29Z</time>
      </trkpt>
      <trkpt lat="45.98073" lon="4.8069">
        <ele>230</ele>
        <time>2017-04-21T09:24:30Z</time>
      </trkpt>
      <trkpt lat="45.98066" lon="4.80691">
        <ele>230</ele>
        <time>2017-04-21T09:24:32Z</time>
      </trkpt>
      <trkpt lat="45.98063" lon="4.80691">
        <ele>230</ele>
        <time>2017-04-21T09:24:33Z</time>
      </trkpt>
      <trkpt lat="45.98055" lon="4.80693">
        <ele>230</ele>
        <time>2017-04-21T09:24:36Z</time>
      </trkpt>
      <trkpt lat="45.98052" lon="4.80694">
        <ele>230</ele>
        <time>2017-04-21T09:24:37Z</time>
      </trkpt>
      <trkpt lat="45.98046" lon="4.80694">
        <ele>230</ele>
        <time>2017-04-21T09:24:39Z</time>
      </trkpt>
      <trkpt lat="45.98043" lon="4.80695">
        <ele>230</ele>
        <time>2017-04-21T09:24:40Z</time>
      </trkpt>
      <trkpt lat="45.98036" lon="4.80697">
        <ele>230</ele>
        <time>2017-04-21T09:24:42Z</time>
      </trkpt>
      <trkpt lat="45.98033" lon="4.80698">
        <ele>230</ele>
        <time>2017-04-21T09:24:43Z</time>
      </trkpt>
      <trkpt lat="45.98029" lon="4.80709">
        <ele>231</ele>
        <time>2017-04-21T09:24:46Z</time>
      </trkpt>
      <trkpt lat="45.98029" lon="4.80714">
        <ele>231</ele>
        <time>2017-04-21T09:24:47Z</time>
      </trkpt>
      <trkpt lat="45.98031" lon="4.80725">
        <ele>231</ele>
        <time>2017-04-21T09:24:50Z</time>
      </trkpt>
      <trkpt lat="45.98032" lon="4.80728">
        <ele>231</ele>
        <time>2017-04-21T09:24:51Z</time>
      </trkpt>
      <trkpt lat="45.98034" lon="4.80739">
        <ele>231</ele>
        <time>2017-04-21T09:24:54Z</time>
      </trkpt>
      <trkpt lat="45.98035" lon="4.80743">
        <ele>231</ele>
        <time>2017-04-21T09:24:55Z</time>
      </trkpt>
      <trkpt lat="45.98038" lon="4.80755">
        <ele>233</ele>
        <time>2017-04-21T09:24:58Z</time>
      </trkpt>
      <trkpt lat="45.98039" lon="4.80758">
        <ele>233</ele>
        <time>2017-04-21T09:24:59Z</time>
      </trkpt>
      <trkpt lat="45.98042" lon="4.8077">
        <ele>233</ele>
        <time>2017-04-21T09:25:02Z</time>
      </trkpt>
      <trkpt lat="45.98043" lon="4.80774">
        <ele>233</ele>
        <time>2017-04-21T09:25:03Z</time>
      </trkpt>
      <trkpt lat="45.98046" lon="4.80785">
        <ele>233</ele>
        <time>2017-04-21T09:25:06Z</time>
      </trkpt>
      <trkpt lat="45.98046" lon="4.80789">
        <ele>233</ele>
        <time>2017-04-21T09:25:07Z</time>
      </trkpt>
      <trkpt lat="45.98049" lon="4.808">
        <ele>234</ele>
        <time>2017-04-21T09:25:10Z</time>
      </trkpt>
      <trkpt lat="45.98049" lon="4.80804">
        <ele>234</ele>
        <time>2017-04-21T09:25:11Z</time>
      </trkpt>
      <trkpt lat="45.98052" lon="4.80816">
        <ele>234</ele>
        <time>2017-04-21T09:25:14Z</time>
      </trkpt>
      <trkpt lat="45.98054" lon="4.80819">
        <ele>234</ele>
        <time>2017-04-21T09:25:15Z</time>
      </trkpt>
      <trkpt lat="45.98056" lon="4.80831">
        <ele>234</ele>
        <time>2017-04-21T09:25:18Z</time>
      </trkpt>
      <trkpt lat="45.98057" lon="4.80835">
        <ele>236</ele>
        <time>2017-04-21T09:25:19Z</time>
      </trkpt>
      <trkpt lat="45.98059" lon="4.80846">
        <ele>236</ele>
        <time>2017-04-21T09:25:22Z</time>
      </trkpt>
      <trkpt lat="45.98061" lon="4.8085">
        <ele>236</ele>
        <time>2017-04-21T09:25:23Z</time>
      </trkpt>
      <trkpt lat="45.98064" lon="4.80859">
        <ele>236</ele>
        <time>2017-04-21T09:25:26Z</time>
      </trkpt>
      <trkpt lat="45.98065" lon="4.80862">
        <ele>237</ele>
        <time>2017-04-21T09:25:27Z</time>
      </trkpt>
      <trkpt lat="45.98067" lon="4.80872">
        <ele>237</ele>
        <time>2017-04-21T09:25:30Z</time>
      </trkpt>
      <trkpt lat="45.98068" lon="4.80875">
        <ele>237</ele>
        <time>2017-04-21T09:25:31Z</time>
      </trkpt>
      <trkpt lat="45.98071" lon="4.80885">
        <ele>237</ele>
        <time>2017-04-21T09:25:34Z</time>
      </trkpt>
      <trkpt lat="45.98072" lon="4.80888">
        <ele>238</ele>
        <time>2017-04-21T09:25:35Z</time>
      </trkpt>
      <trkpt lat="45.98074" lon="4.80897">
        <ele>238</ele>
        <time>2017-04-21T09:25:38Z</time>
      </trkpt>
      <trkpt lat="45.98075" lon="4.80901">
        <ele>238</ele>
        <time>2017-04-21T09:25:39Z</time>
      </trkpt>
      <trkpt lat="45.98078" lon="4.80913">
        <ele>239</ele>
        <time>2017-04-21T09:25:43Z</time>
      </trkpt>
      <trkpt lat="45.98078" lon="4.80916">
        <ele>239</ele>
        <time>2017-04-21T09:25:44Z</time>
      </trkpt>
      <trkpt lat="45.98078" lon="4.80925">
        <ele>240</ele>
        <time>2017-04-21T09:25:46Z</time>
      </trkpt>
      <trkpt lat="45.9808" lon="4.80929">
        <ele>240</ele>
        <time>2017-04-21T09:25:47Z</time>
      </trkpt>
      <trkpt lat="45.98083" lon="4.80941">
        <ele>240</ele>
        <time>2017-04-21T09:25:50Z</time>
      </trkpt>
      <trkpt lat="45.98084" lon="4.80944">
        <ele>238</ele>
        <time>2017-04-21T09:25:51Z</time>
      </trkpt>
      <trkpt lat="45.98087" lon="4.80954">
        <ele>238</ele>
        <time>2017-04-21T09:25:54Z</time>
      </trkpt>
      <trkpt lat="45.98089" lon="4.80957">
        <ele>239</ele>
        <time>2017-04-21T09:25:55Z</time>
      </trkpt>
      <trkpt lat="45.98091" lon="4.80967">
        <ele>239</ele>
        <time>2017-04-21T09:25:58Z</time>
      </trkpt>
      <trkpt lat="45.98092" lon="4.80971">
        <ele>239</ele>
        <time>2017-04-21T09:25:59Z</time>
      </trkpt>
      <trkpt lat="45.98095" lon="4.80981">
        <ele>239</ele>
        <time>2017-04-21T09:26:02Z</time>
      </trkpt>
      <trkpt lat="45.98096" lon="4.80984">
        <ele>240</ele>
        <time>2017-04-21T09:26:03Z</time>
      </trkpt>
      <trkpt lat="45.98099" lon="4.80996">
        <ele>240</ele>
        <time>2017-04-21T09:26:06Z</time>
      </trkpt>
      <trkpt lat="45.98101" lon="4.81001">
        <ele>242</ele>
        <time>2017-04-21T09:26:07Z</time>
      </trkpt>
      <trkpt lat="45.98105" lon="4.81011">
        <ele>242</ele>
        <time>2017-04-21T09:26:09Z</time>
      </trkpt>
      <trkpt lat="45.98107" lon="4.81016">
        <ele>242</ele>
        <time>2017-04-21T09:26:10Z</time>
      </trkpt>
      <trkpt lat="45.98111" lon="4.81026">
        <ele>242</ele>
        <time>2017-04-21T09:26:12Z</time>
      </trkpt>
      <trkpt lat="45.98112" lon="4.81031">
        <ele>242</ele>
        <time>2017-04-21T09:26:13Z</time>
      </trkpt>
      <trkpt lat="45.98115" lon="4.81041">
        <ele>242</ele>
        <time>2017-04-21T09:26:15Z</time>
      </trkpt>
      <trkpt lat="45.98117" lon="4.81047">
        <ele>243</ele>
        <time>2017-04-21T09:26:16Z</time>
      </trkpt>
      <trkpt lat="45.98121" lon="4.81058">
        <ele>243</ele>
        <time>2017-04-21T09:26:18Z</time>
      </trkpt>
      <trkpt lat="45.98123" lon="4.81063">
        <ele>243</ele>
        <time>2017-04-21T09:26:19Z</time>
      </trkpt>
      <trkpt lat="45.98125" lon="4.81073">
        <ele>243</ele>
        <time>2017-04-21T09:26:21Z</time>
      </trkpt>
      <trkpt lat="45.98127" lon="4.81077">
        <ele>243</ele>
        <time>2017-04-21T09:26:22Z</time>
      </trkpt>
      <trkpt lat="45.98129" lon="4.81086">
        <ele>245</ele>
        <time>2017-04-21T09:26:24Z</time>
      </trkpt>
      <trkpt lat="45.98131" lon="4.81091">
        <ele>245</ele>
        <time>2017-04-21T09:26:25Z</time>
      </trkpt>
      <trkpt lat="45.98135" lon="4.81101">
        <ele>245</ele>
        <time>2017-04-21T09:26:27Z</time>
      </trkpt>
      <trkpt lat="45.98137" lon="4.81105">
        <ele>245</ele>
        <time>2017-04-21T09:26:28Z</time>
      </trkpt>
      <trkpt lat="45.98141" lon="4.81114">
        <ele>245</ele>
        <time>2017-04-21T09:26:30Z</time>
      </trkpt>
      <trkpt lat="45.98143" lon="4.81119">
        <ele>245</ele>
        <time>2017-04-21T09:26:31Z</time>
      </trkpt>
      <trkpt lat="45.98146" lon="4.81128">
        <ele>245</ele>
        <time>2017-04-21T09:26:33Z</time>
      </trkpt>
      <trkpt lat="45.98148" lon="4.81133">
        <ele>245</ele>
        <time>2017-04-21T09:26:34Z</time>
      </trkpt>
      <trkpt lat="45.98151" lon="4.81142">
        <ele>245</ele>
        <time>2017-04-21T09:26:36Z</time>
      </trkpt>
      <trkpt lat="45.98153" lon="4.81146">
        <ele>245</ele>
        <time>2017-04-21T09:26:37Z</time>
      </trkpt>
      <trkpt lat="45.98157" lon="4.81155">
        <ele>245</ele>
        <time>2017-04-21T09:26:39Z</time>
      </trkpt>
      <trkpt lat="45.98158" lon="4.8116">
        <ele>245</ele>
        <time>2017-04-21T09:26:40Z</time>
      </trkpt>
      <trkpt lat="45.98162" lon="4.8117">
        <ele>245</ele>
        <time>2017-04-21T09:26:42Z</time>
      </trkpt>
      <trkpt lat="45.98163" lon="4.81175">
        <ele>246</ele>
        <time>2017-04-21T09:26:43Z</time>
      </trkpt>
      <trkpt lat="45.98164" lon="4.81184">
        <ele>246</ele>
        <time>2017-04-21T09:26:45Z</time>
      </trkpt>
      <trkpt lat="45.98165" lon="4.81188">
        <ele>246</ele>
        <time>2017-04-21T09:26:46Z</time>
      </trkpt>
      <trkpt lat="45.98168" lon="4.81198">
        <ele>245</ele>
        <time>2017-04-21T09:26:48Z</time>
      </trkpt>
      <trkpt lat="45.98169" lon="4.81203">
        <ele>245</ele>
        <time>2017-04-21T09:26:49Z</time>
      </trkpt>
      <trkpt lat="45.9817" lon="4.81213">
        <ele>246</ele>
        <time>2017-04-21T09:26:51Z</time>
      </trkpt>
      <trkpt lat="45.98171" lon="4.81218">
        <ele>246</ele>
        <time>2017-04-21T09:26:52Z</time>
      </trkpt>
      <trkpt lat="45.98173" lon="4.81228">
        <ele>246</ele>
        <time>2017-04-21T09:26:54Z</time>
      </trkpt>
      <trkpt lat="45.98173" lon="4.81233">
        <ele>246</ele>
        <time>2017-04-21T09:26:55Z</time>
      </trkpt>
      <trkpt lat="45.98176" lon="4.81242">
        <ele>247</ele>
        <time>2017-04-21T09:26:57Z</time>
      </trkpt>
      <trkpt lat="45.98177" lon="4.81247">
        <ele>247</ele>
        <time>2017-04-21T09:26:58Z</time>
      </trkpt>
      <trkpt lat="45.98179" lon="4.81256">
        <ele>247</ele>
        <time>2017-04-21T09:27:00Z</time>
      </trkpt>
      <trkpt lat="45.9818" lon="4.81261">
        <ele>247</ele>
        <time>2017-04-21T09:27:01Z</time>
      </trkpt>
      <trkpt lat="45.98182" lon="4.81271">
        <ele>247</ele>
        <time>2017-04-21T09:27:03Z</time>
      </trkpt>
      <trkpt lat="45.98183" lon="4.81277">
        <ele>247</ele>
        <time>2017-04-21T09:27:04Z</time>
      </trkpt>
      <trkpt lat="45.98185" lon="4.81289">
        <ele>247</ele>
        <time>2017-04-21T09:27:06Z</time>
      </trkpt>
      <trkpt lat="45.98185" lon="4.81295">
        <ele>247</ele>
        <time>2017-04-21T09:27:07Z</time>
      </trkpt>
      <trkpt lat="45.98186" lon="4.81302">
        <ele>247</ele>
        <time>2017-04-21T09:27:08Z</time>
      </trkpt>
      <trkpt lat="45.98187" lon="4.81309">
        <ele>247</ele>
        <time>2017-04-21T09:27:09Z</time>
      </trkpt>
      <trkpt lat="45.98187" lon="4.81316">
        <ele>247</ele>
        <time>2017-04-21T09:27:10Z</time>
      </trkpt>
      <trkpt lat="45.98188" lon="4.81323">
        <ele>247</ele>
        <time>2017-04-21T09:27:11Z</time>
      </trkpt>
      <trkpt lat="45.98189" lon="4.8133">
        <ele>247</ele>
        <time>2017-04-21T09:27:12Z</time>
      </trkpt>
      <trkpt lat="45.9819" lon="4.81336">
        <ele>248</ele>
        <time>2017-04-21T09:27:13Z</time>
      </trkpt>
      <trkpt lat="45.98192" lon="4.81348">
        <ele>248</ele>
        <time>2017-04-21T09:27:15Z</time>
      </trkpt>
      <trkpt lat="45.98193" lon="4.81353">
        <ele>248</ele>
        <time>2017-04-21T09:27:16Z</time>
      </trkpt>
      <trkpt lat="45.98194" lon="4.81365">
        <ele>248</ele>
        <time>2017-04-21T09:27:18Z</time>
      </trkpt>
      <trkpt lat="45.98195" lon="4.8137">
        <ele>248</ele>
        <time>2017-04-21T09:27:19Z</time>
      </trkpt>
      <trkpt lat="45.98197" lon="4.81382">
        <ele>248</ele>
        <time>2017-04-21T09:27:21Z</time>
      </trkpt>
      <trkpt lat="45.98199" lon="4.81388">
        <ele>248</ele>
        <time>2017-04-21T09:27:22Z</time>
      </trkpt>
      <trkpt lat="45.98202" lon="4.81393">
        <ele>248</ele>
        <time>2017-04-21T09:27:23Z</time>
      </trkpt>
      <trkpt lat="45.98204" lon="4.81399">
        <ele>248</ele>
        <time>2017-04-21T09:27:24Z</time>
      </trkpt>
      <trkpt lat="45.98206" lon="4.81405">
        <ele>248</ele>
        <time>2017-04-21T09:27:25Z</time>
      </trkpt>
      <trkpt lat="45.98208" lon="4.81411">
        <ele>248</ele>
        <time>2017-04-21T09:27:26Z</time>
      </trkpt>
      <trkpt lat="45.98211" lon="4.81423">
        <ele>249</ele>
        <time>2017-04-21T09:27:28Z</time>
      </trkpt>
      <trkpt lat="45.98212" lon="4.81429">
        <ele>249</ele>
        <time>2017-04-21T09:27:29Z</time>
      </trkpt>
      <trkpt lat="45.98216" lon="4.8144">
        <ele>249</ele>
        <time>2017-04-21T09:27:31Z</time>
      </trkpt>
      <trkpt lat="45.98218" lon="4.81445">
        <ele>249</ele>
        <time>2017-04-21T09:27:32Z</time>
      </trkpt>
      <trkpt lat="45.98222" lon="4.81457">
        <ele>249</ele>
        <time>2017-04-21T09:27:34Z</time>
      </trkpt>
      <trkpt lat="45.98223" lon="4.81463">
        <ele>249</ele>
        <time>2017-04-21T09:27:35Z</time>
      </trkpt>
      <trkpt lat="45.98225" lon="4.81469">
        <ele>249</ele>
        <time>2017-04-21T09:27:36Z</time>
      </trkpt>
      <trkpt lat="45.98227" lon="4.81475">
        <ele>249</ele>
        <time>2017-04-21T09:27:37Z</time>
      </trkpt>
      <trkpt lat="45.9823" lon="4.8148">
        <ele>249</ele>
        <time>2017-04-21T09:27:38Z</time>
      </trkpt>
      <trkpt lat="45.98232" lon="4.81486">
        <ele>249</ele>
        <time>2017-04-21T09:27:39Z</time>
      </trkpt>
      <trkpt lat="45.98234" lon="4.81492">
        <ele>249</ele>
        <time>2017-04-21T09:27:40Z</time>
      </trkpt>
      <trkpt lat="45.98236" lon="4.81499">
        <ele>249</ele>
        <time>2017-04-21T09:27:41Z</time>
      </trkpt>
      <trkpt lat="45.98238" lon="4.81505">
        <ele>249</ele>
        <time>2017-04-21T09:27:42Z</time>
      </trkpt>
      <trkpt lat="45.9824" lon="4.81512">
        <ele>249</ele>
        <time>2017-04-21T09:27:43Z</time>
      </trkpt>
      <trkpt lat="45.98243" lon="4.81518">
        <ele>249</ele>
        <time>2017-04-21T09:27:44Z</time>
      </trkpt>
      <trkpt lat="45.98245" lon="4.81525">
        <ele>249</ele>
        <time>2017-04-21T09:27:45Z</time>
      </trkpt>
      <trkpt lat="45.98247" lon="4.81532">
        <ele>249</ele>
        <time>2017-04-21T09:27:46Z</time>
      </trkpt>
      <trkpt lat="45.98249" lon="4.81538">
        <ele>249</ele>
        <time>2017-04-21T09:27:47Z</time>
      </trkpt>
      <trkpt lat="45.98252" lon="4.81544">
        <ele>247</ele>
        <time>2017-04-21T09:27:48Z</time>
      </trkpt>
      <trkpt lat="45.98254" lon="4.81551">
        <ele>247</ele>
        <time>2017-04-21T09:27:49Z</time>
      </trkpt>
      <trkpt lat="45.98256" lon="4.81557">
        <ele>247</ele>
        <time>2017-04-21T09:27:50Z</time>
      </trkpt>
      <trkpt lat="45.98258" lon="4.81563">
        <ele>247</ele>
        <time>2017-04-21T09:27:51Z</time>
      </trkpt>
      <trkpt lat="45.9826" lon="4.81569">
        <ele>247</ele>
        <time>2017-04-21T09:27:52Z</time>
      </trkpt>
      <trkpt lat="45.98262" lon="4.81576">
        <ele>247</ele>
        <time>2017-04-21T09:27:53Z</time>
      </trkpt>
      <trkpt lat="45.98263" lon="4.81582">
        <ele>247</ele>
        <time>2017-04-21T09:27:54Z</time>
      </trkpt>
      <trkpt lat="45.98265" lon="4.81588">
        <ele>247</ele>
        <time>2017-04-21T09:27:55Z</time>
      </trkpt>
      <trkpt lat="45.98267" lon="4.81594">
        <ele>247</ele>
        <time>2017-04-21T09:27:56Z</time>
      </trkpt>
      <trkpt lat="45.9827" lon="4.816">
        <ele>247</ele>
        <time>2017-04-21T09:27:57Z</time>
      </trkpt>
      <trkpt lat="45.98272" lon="4.81607">
        <ele>247</ele>
        <time>2017-04-21T09:27:58Z</time>
      </trkpt>
      <trkpt lat="45.98274" lon="4.81613">
        <ele>247</ele>
        <time>2017-04-21T09:27:59Z</time>
      </trkpt>
      <trkpt lat="45.98277" lon="4.81619">
        <ele>247</ele>
        <time>2017-04-21T09:28:00Z</time>
      </trkpt>
      <trkpt lat="45.98281" lon="4.81625">
        <ele>247</ele>
        <time>2017-04-21T09:28:01Z</time>
      </trkpt>
      <trkpt lat="45.98284" lon="4.81631">
        <ele>247</ele>
        <time>2017-04-21T09:28:02Z</time>
      </trkpt>
      <trkpt lat="45.98287" lon="4.81636">
        <ele>247</ele>
        <time>2017-04-21T09:28:03Z</time>
      </trkpt>
      <trkpt lat="45.98291" lon="4.8164">
        <ele>247</ele>
        <time>2017-04-21T09:28:04Z</time>
      </trkpt>
      <trkpt lat="45.98295" lon="4.81644">
        <ele>247</ele>
        <time>2017-04-21T09:28:05Z</time>
      </trkpt>
      <trkpt lat="45.98299" lon="4.81648">
        <ele>247</ele>
        <time>2017-04-21T09:28:06Z</time>
      </trkpt>
      <trkpt lat="45.98302" lon="4.81651">
        <ele>247</ele>
        <time>2017-04-21T09:28:07Z</time>
      </trkpt>
      <trkpt lat="45.98306" lon="4.81655">
        <ele>246</ele>
        <time>2017-04-21T09:28:08Z</time>
      </trkpt>
      <trkpt lat="45.98311" lon="4.81659">
        <ele>246</ele>
        <time>2017-04-21T09:28:09Z</time>
      </trkpt>
      <trkpt lat="45.98315" lon="4.81663">
        <ele>246</ele>
        <time>2017-04-21T09:28:10Z</time>
      </trkpt>
      <trkpt lat="45.9832" lon="4.81667">
        <ele>246</ele>
        <time>2017-04-21T09:28:11Z</time>
      </trkpt>
      <trkpt lat="45.98325" lon="4.81671">
        <ele>246</ele>
        <time>2017-04-21T09:28:12Z</time>
      </trkpt>
      <trkpt lat="45.9833" lon="4.81674">
        <ele>246</ele>
        <time>2017-04-21T09:28:13Z</time>
      </trkpt>
      <trkpt lat="45.98336" lon="4.81676">
        <ele>245</ele>
        <time>2017-04-21T09:28:14Z</time>
      </trkpt>
      <trkpt lat="45.98342" lon="4.81678">
        <ele>245</ele>
        <time>2017-04-21T09:28:15Z</time>
      </trkpt>
      <trkpt lat="45.98349" lon="4.81679">
        <ele>245</ele>
        <time>2017-04-21T09:28:16Z</time>
      </trkpt>
      <trkpt lat="45.98355" lon="4.81679">
        <ele>245</ele>
        <time>2017-04-21T09:28:17Z</time>
      </trkpt>
      <trkpt lat="45.98361" lon="4.81679">
        <ele>244</ele>
        <time>2017-04-21T09:28:18Z</time>
      </trkpt>
      <trkpt lat="45.98367" lon="4.81679">
        <ele>244</ele>
        <time>2017-04-21T09:28:19Z</time>
      </trkpt>
      <trkpt lat="45.98373" lon="4.81679">
        <ele>244</ele>
        <time>2017-04-21T09:28:20Z</time>
      </trkpt>
      <trkpt lat="45.98379" lon="4.81678">
        <ele>244</ele>
        <time>2017-04-21T09:28:21Z</time>
      </trkpt>
      <trkpt lat="45.98385" lon="4.81676">
        <ele>243</ele>
        <time>2017-04-21T09:28:22Z</time>
      </trkpt>
      <trkpt lat="45.9839" lon="4.81674">
        <ele>243</ele>
        <time>2017-04-21T09:28:23Z</time>
      </trkpt>
      <trkpt lat="45.98396" lon="4.81673">
        <ele>243</ele>
        <time>2017-04-21T09:28:24Z</time>
      </trkpt>
      <trkpt lat="45.98401" lon="4.81671">
        <ele>242</ele>
        <time>2017-04-21T09:28:25Z</time>
      </trkpt>
      <trkpt lat="45.98406" lon="4.8167">
        <ele>242</ele>
        <time>2017-04-21T09:28:26Z</time>
      </trkpt>
      <trkpt lat="45.98412" lon="4.81669">
        <ele>242</ele>
        <time>2017-04-21T09:28:27Z</time>
      </trkpt>
      <trkpt lat="45.98417" lon="4.81669">
        <ele>241</ele>
        <time>2017-04-21T09:28:28Z</time>
      </trkpt>
      <trkpt lat="45.98422" lon="4.8167">
        <ele>241</ele>
        <time>2017-04-21T09:28:29Z</time>
      </trkpt>
      <trkpt lat="45.98427" lon="4.81671">
        <ele>240</ele>
        <time>2017-04-21T09:28:30Z</time>
      </trkpt>
      <trkpt lat="45.98431" lon="4.81674">
        <ele>240</ele>
        <time>2017-04-21T09:28:31Z</time>
      </trkpt>
      <trkpt lat="45.98435" lon="4.81678">
        <ele>240</ele>
        <time>2017-04-21T09:28:32Z</time>
      </trkpt>
      <trkpt lat="45.98439" lon="4.81683">
        <ele>240</ele>
        <time>2017-04-21T09:28:33Z</time>
      </trkpt>
      <trkpt lat="45.98443" lon="4.81689">
        <ele>239</ele>
        <time>2017-04-21T09:28:34Z</time>
      </trkpt>
      <trkpt lat="45.98446" lon="4.81695">
        <ele>239</ele>
        <time>2017-04-21T09:28:35Z</time>
      </trkpt>
      <trkpt lat="45.98449" lon="4.81701">
        <ele>239</ele>
        <time>2017-04-21T09:28:36Z</time>
      </trkpt>
      <trkpt lat="45.98453" lon="4.81708">
        <ele>239</ele>
        <time>2017-04-21T09:28:37Z</time>
      </trkpt>
      <trkpt lat="45.98457" lon="4.81714">
        <ele>239</ele>
        <time>2017-04-21T09:28:38Z</time>
      </trkpt>
      <trkpt lat="45.98461" lon="4.81721">
        <ele>239</ele>
        <time>2017-04-21T09:28:39Z</time>
      </trkpt>
      <trkpt lat="45.98466" lon="4.81727">
        <ele>239</ele>
        <time>2017-04-21T09:28:40Z</time>
      </trkpt>
      <trkpt lat="45.98471" lon="4.81734">
        <ele>239</ele>
        <time>2017-04-21T09:28:41Z</time>
      </trkpt>
      <trkpt lat="45.98477" lon="4.8174">
        <ele>238</ele>
        <time>2017-04-21T09:28:42Z</time>
      </trkpt>
      <trkpt lat="45.98484" lon="4.81745">
        <ele>238</ele>
        <time>2017-04-21T09:28:43Z</time>
      </trkpt>
      <trkpt lat="45.9849" lon="4.81751">
        <ele>238</ele>
        <time>2017-04-21T09:28:44Z</time>
      </trkpt>
      <trkpt lat="45.98496" lon="4.81758">
        <ele>238</ele>
        <time>2017-04-21T09:28:45Z</time>
      </trkpt>
      <trkpt lat="45.98502" lon="4.81765">
        <ele>237</ele>
        <time>2017-04-21T09:28:46Z</time>
      </trkpt>
      <trkpt lat="45.98508" lon="4.81773">
        <ele>238</ele>
        <time>2017-04-21T09:28:47Z</time>
      </trkpt>
      <trkpt lat="45.98514" lon="4.81781">
        <ele>238</ele>
        <time>2017-04-21T09:28:48Z</time>
      </trkpt>
      <trkpt lat="45.98519" lon="4.8179">
        <ele>238</ele>
        <time>2017-04-21T09:28:49Z</time>
      </trkpt>
      <trkpt lat="45.98525" lon="4.81798">
        <ele>238</ele>
        <time>2017-04-21T09:28:50Z</time>
      </trkpt>
      <trkpt lat="45.98531" lon="4.81805">
        <ele>238</ele>
        <time>2017-04-21T09:28:51Z</time>
      </trkpt>
      <trkpt lat="45.98537" lon="4.8181">
        <ele>238</ele>
        <time>2017-04-21T09:28:52Z</time>
      </trkpt>
      <trkpt lat="45.98543" lon="4.81813">
        <ele>238</ele>
        <time>2017-04-21T09:28:53Z</time>
      </trkpt>
      <trkpt lat="45.98549" lon="4.81813">
        <ele>238</ele>
        <time>2017-04-21T09:28:54Z</time>
      </trkpt>
      <trkpt lat="45.98555" lon="4.8181">
        <ele>238</ele>
        <time>2017-04-21T09:28:55Z</time>
      </trkpt>
      <trkpt lat="45.9856" lon="4.81806">
        <ele>238</ele>
        <time>2017-04-21T09:28:56Z</time>
      </trkpt>
      <trkpt lat="45.98564" lon="4.818">
        <ele>238</ele>
        <time>2017-04-21T09:28:57Z</time>
      </trkpt>
      <trkpt lat="45.98568" lon="4.81794">
        <ele>238</ele>
        <time>2017-04-21T09:28:58Z</time>
      </trkpt>
      <trkpt lat="45.98572" lon="4.81788">
        <ele>238</ele>
        <time>2017-04-21T09:28:59Z</time>
      </trkpt>
      <trkpt lat="45.98576" lon="4.81783">
        <ele>238</ele>
        <time>2017-04-21T09:29:00Z</time>
      </trkpt>
      <trkpt lat="45.9858" lon="4.81779">
        <ele>238</ele>
        <time>2017-04-21T09:29:01Z</time>
      </trkpt>
      <trkpt lat="45.98585" lon="4.81776">
        <ele>238</ele>
        <time>2017-04-21T09:29:02Z</time>
      </trkpt>
      <trkpt lat="45.9859" lon="4.81773">
        <ele>238</ele>
        <time>2017-04-21T09:29:03Z</time>
      </trkpt>
      <trkpt lat="45.98596" lon="4.81771">
        <ele>238</ele>
        <time>2017-04-21T09:29:04Z</time>
      </trkpt>
      <trkpt lat="45.98601" lon="4.81769">
        <ele>238</ele>
        <time>2017-04-21T09:29:05Z</time>
      </trkpt>
      <trkpt lat="45.98606" lon="4.81767">
        <ele>238</ele>
        <time>2017-04-21T09:29:06Z</time>
      </trkpt>
      <trkpt lat="45.98611" lon="4.81765">
        <ele>238</ele>
        <time>2017-04-21T09:29:07Z</time>
      </trkpt>
      <trkpt lat="45.98617" lon="4.81764">
        <ele>238</ele>
        <time>2017-04-21T09:29:08Z</time>
      </trkpt>
      <trkpt lat="45.98622" lon="4.81762">
        <ele>238</ele>
        <time>2017-04-21T09:29:09Z</time>
      </trkpt>
      <trkpt lat="45.98627" lon="4.8176">
        <ele>238</ele>
        <time>2017-04-21T09:29:10Z</time>
      </trkpt>
      <trkpt lat="45.98633" lon="4.81758">
        <ele>238</ele>
        <time>2017-04-21T09:29:11Z</time>
      </trkpt>
      <trkpt lat="45.98638" lon="4.81756">
        <ele>238</ele>
        <time>2017-04-21T09:29:12Z</time>
      </trkpt>
      <trkpt lat="45.98643" lon="4.81754">
        <ele>238</ele>
        <time>2017-04-21T09:29:13Z</time>
      </trkpt>
      <trkpt lat="45.98648" lon="4.81752">
        <ele>238</ele>
        <time>2017-04-21T09:29:14Z</time>
      </trkpt>
      <trkpt lat="45.98653" lon="4.8175">
        <ele>237</ele>
        <time>2017-04-21T09:29:15Z</time>
      </trkpt>
      <trkpt lat="45.98658" lon="4.81749">
        <ele>238</ele>
        <time>2017-04-21T09:29:16Z</time>
      </trkpt>
      <trkpt lat="45.98663" lon="4.81747">
        <ele>238</ele>
        <time>2017-04-21T09:29:17Z</time>
      </trkpt>
      <trkpt lat="45.98668" lon="4.81746">
        <ele>238</ele>
        <time>2017-04-21T09:29:18Z</time>
      </trkpt>
      <trkpt lat="45.98673" lon="4.81745">
        <ele>238</ele>
        <time>2017-04-21T09:29:19Z</time>
      </trkpt>
      <trkpt lat="45.98678" lon="4.81745">
        <ele>238</ele>
        <time>2017-04-21T09:29:20Z</time>
      </trkpt>
      <trkpt lat="45.98684" lon="4.81743">
        <ele>238</ele>
        <time>2017-04-21T09:29:21Z</time>
      </trkpt>
      <trkpt lat="45.98689" lon="4.81742">
        <ele>238</ele>
        <time>2017-04-21T09:29:22Z</time>
      </trkpt>
      <trkpt lat="45.98694" lon="4.8174">
        <ele>238</ele>
        <time>2017-04-21T09:29:23Z</time>
      </trkpt>
      <trkpt lat="45.98698" lon="4.81738">
        <ele>239</ele>
        <time>2017-04-21T09:29:24Z</time>
      </trkpt>
      <trkpt lat="45.98704" lon="4.81737">
        <ele>239</ele>
        <time>2017-04-21T09:29:25Z</time>
      </trkpt>
      <trkpt lat="45.98709" lon="4.81736">
        <ele>239</ele>
        <time>2017-04-21T09:29:26Z</time>
      </trkpt>
      <trkpt lat="45.98713" lon="4.81736">
        <ele>239</ele>
        <time>2017-04-21T09:29:27Z</time>
      </trkpt>
      <trkpt lat="45.98719" lon="4.81737">
        <ele>239</ele>
        <time>2017-04-21T09:29:28Z</time>
      </trkpt>
      <trkpt lat="45.98723" lon="4.81741">
        <ele>239</ele>
        <time>2017-04-21T09:29:29Z</time>
      </trkpt>
      <trkpt lat="45.98727" lon="4.81745">
        <ele>239</ele>
        <time>2017-04-21T09:29:30Z</time>
      </trkpt>
      <trkpt lat="45.9873" lon="4.81751">
        <ele>240</ele>
        <time>2017-04-21T09:29:31Z</time>
      </trkpt>
      <trkpt lat="45.98732" lon="4.81757">
        <ele>240</ele>
        <time>2017-04-21T09:29:32Z</time>
      </trkpt>
      <trkpt lat="45.98734" lon="4.81763">
        <ele>240</ele>
        <time>2017-04-21T09:29:33Z</time>
      </trkpt>
      <trkpt lat="45.98737" lon="4.81768">
        <ele>240</ele>
        <time>2017-04-21T09:29:34Z</time>
      </trkpt>
      <trkpt lat="45.98741" lon="4.81775">
        <ele>240</ele>
        <time>2017-04-21T09:29:35Z</time>
      </trkpt>
      <trkpt lat="45.98744" lon="4.81781">
        <ele>240</ele>
        <time>2017-04-21T09:29:36Z</time>
      </trkpt>
      <trkpt lat="45.98747" lon="4.81787">
        <ele>240</ele>
        <time>2017-04-21T09:29:37Z</time>
      </trkpt>
      <trkpt lat="45.98751" lon="4.81794">
        <ele>240</ele>
        <time>2017-04-21T09:29:38Z</time>
      </trkpt>
      <trkpt lat="45.98755" lon="4.81801">
        <ele>240</ele>
        <time>2017-04-21T09:29:39Z</time>
      </trkpt>
      <trkpt lat="45.98758" lon="4.81807">
        <ele>240</ele>
        <time>2017-04-21T09:29:40Z</time>
      </trkpt>
      <trkpt lat="45.98761" lon="4.81814">
        <ele>240</ele>
        <time>2017-04-21T09:29:41Z</time>
      </trkpt>
      <trkpt lat="45.98764" lon="4.81822">
        <ele>240</ele>
        <time>2017-04-21T09:29:42Z</time>
      </trkpt>
      <trkpt lat="45.98768" lon="4.81829">
        <ele>240</ele>
        <time>2017-04-21T09:29:43Z</time>
      </trkpt>
      <trkpt lat="45.98773" lon="4.81836">
        <ele>239</ele>
        <time>2017-04-21T09:29:44Z</time>
      </trkpt>
      <trkpt lat="45.98776" lon="4.81843">
        <ele>239</ele>
        <time>2017-04-21T09:29:45Z</time>
      </trkpt>
      <trkpt lat="45.9878" lon="4.81851">
        <ele>239</ele>
        <time>2017-04-21T09:29:46Z</time>
      </trkpt>
      <trkpt lat="45.98783" lon="4.81859">
        <ele>239</ele>
        <time>2017-04-21T09:29:47Z</time>
      </trkpt>
      <trkpt lat="45.98786" lon="4.81867">
        <ele>239</ele>
        <time>2017-04-21T09:29:48Z</time>
      </trkpt>
      <trkpt lat="45.98789" lon="4.81875">
        <ele>239</ele>
        <time>2017-04-21T09:29:49Z</time>
      </trkpt>
      <trkpt lat="45.98792" lon="4.81884">
        <ele>239</ele>
        <time>2017-04-21T09:29:50Z</time>
      </trkpt>
      <trkpt lat="45.98795" lon="4.81892">
        <ele>239</ele>
        <time>2017-04-21T09:29:51Z</time>
      </trkpt>
      <trkpt lat="45.98797" lon="4.819">
        <ele>239</ele>
        <time>2017-04-21T09:29:52Z</time>
      </trkpt>
      <trkpt lat="45.988" lon="4.81909">
        <ele>239</ele>
        <time>2017-04-21T09:29:53Z</time>
      </trkpt>
      <trkpt lat="45.98802" lon="4.81916">
        <ele>239</ele>
        <time>2017-04-21T09:29:54Z</time>
      </trkpt>
      <trkpt lat="45.98806" lon="4.81924">
        <ele>239</ele>
        <time>2017-04-21T09:29:55Z</time>
      </trkpt>
      <trkpt lat="45.98807" lon="4.81932">
        <ele>239</ele>
        <time>2017-04-21T09:29:56Z</time>
      </trkpt>
      <trkpt lat="45.98809" lon="4.8194">
        <ele>239</ele>
        <time>2017-04-21T09:29:57Z</time>
      </trkpt>
      <trkpt lat="45.9881" lon="4.81949">
        <ele>239</ele>
        <time>2017-04-21T09:29:58Z</time>
      </trkpt>
      <trkpt lat="45.98811" lon="4.81957">
        <ele>239</ele>
        <time>2017-04-21T09:29:59Z</time>
      </trkpt>
      <trkpt lat="45.98811" lon="4.81964">
        <ele>239</ele>
        <time>2017-04-21T09:30:00Z</time>
      </trkpt>
      <trkpt lat="45.98813" lon="4.81972">
        <ele>239</ele>
        <time>2017-04-21T09:30:01Z</time>
      </trkpt>
      <trkpt lat="45.98814" lon="4.8198">
        <ele>239</ele>
        <time>2017-04-21T09:30:02Z</time>
      </trkpt>
      <trkpt lat="45.98815" lon="4.81988">
        <ele>238</ele>
        <time>2017-04-21T09:30:03Z</time>
      </trkpt>
      <trkpt lat="45.98816" lon="4.81995">
        <ele>238</ele>
        <time>2017-04-21T09:30:04Z</time>
      </trkpt>
      <trkpt lat="45.98817" lon="4.82003">
        <ele>238</ele>
        <time>2017-04-21T09:30:05Z</time>
      </trkpt>
      <trkpt lat="45.98818" lon="4.82011">
        <ele>238</ele>
        <time>2017-04-21T09:30:06Z</time>
      </trkpt>
      <trkpt lat="45.98819" lon="4.82018">
        <ele>238</ele>
        <time>2017-04-21T09:30:07Z</time>
      </trkpt>
      <trkpt lat="45.98821" lon="4.82026">
        <ele>238</ele>
        <time>2017-04-21T09:30:08Z</time>
      </trkpt>
      <trkpt lat="45.98822" lon="4.82034">
        <ele>238</ele>
        <time>2017-04-21T09:30:09Z</time>
      </trkpt>
      <trkpt lat="45.98824" lon="4.82042">
        <ele>238</ele>
        <time>2017-04-21T09:30:10Z</time>
      </trkpt>
      <trkpt lat="45.98825" lon="4.82049">
        <ele>238</ele>
        <time>2017-04-21T09:30:11Z</time>
      </trkpt>
      <trkpt lat="45.98826" lon="4.82057">
        <ele>237</ele>
        <time>2017-04-21T09:30:12Z</time>
      </trkpt>
      <trkpt lat="45.98827" lon="4.82064">
        <ele>237</ele>
        <time>2017-04-21T09:30:13Z</time>
      </trkpt>
      <trkpt lat="45.98828" lon="4.82071">
        <ele>237</ele>
        <time>2017-04-21T09:30:14Z</time>
      </trkpt>
      <trkpt lat="45.98829" lon="4.82078">
        <ele>237</ele>
        <time>2017-04-21T09:30:15Z</time>
      </trkpt>
      <trkpt lat="45.9883" lon="4.82086">
        <ele>236</ele>
        <time>2017-04-21T09:30:16Z</time>
      </trkpt>
      <trkpt lat="45.98831" lon="4.82094">
        <ele>237</ele>
        <time>2017-04-21T09:30:17Z</time>
      </trkpt>
      <trkpt lat="45.98832" lon="4.82102">
        <ele>237</ele>
        <time>2017-04-21T09:30:18Z</time>
      </trkpt>
      <trkpt lat="45.98834" lon="4.82111">
        <ele>236</ele>
        <time>2017-04-21T09:30:19Z</time>
      </trkpt>
      <trkpt lat="45.98836" lon="4.8212">
        <ele>236</ele>
        <time>2017-04-21T09:30:20Z</time>
      </trkpt>
      <trkpt lat="45.98838" lon="4.82129">
        <ele>236</ele>
        <time>2017-04-21T09:30:21Z</time>
      </trkpt>
      <trkpt lat="45.9884" lon="4.82137">
        <ele>236</ele>
        <time>2017-04-21T09:30:22Z</time>
      </trkpt>
      <trkpt lat="45.98841" lon="4.82146">
        <ele>236</ele>
        <time>2017-04-21T09:30:23Z</time>
      </trkpt>
      <trkpt lat="45.98843" lon="4.82154">
        <ele>236</ele>
        <time>2017-04-21T09:30:24Z</time>
      </trkpt>
      <trkpt lat="45.98846" lon="4.82162">
        <ele>236</ele>
        <time>2017-04-21T09:30:25Z</time>
      </trkpt>
      <trkpt lat="45.98848" lon="4.82169">
        <ele>236</ele>
        <time>2017-04-21T09:30:26Z</time>
      </trkpt>
      <trkpt lat="45.9885" lon="4.82176">
        <ele>236</ele>
        <time>2017-04-21T09:30:27Z</time>
      </trkpt>
      <trkpt lat="45.98852" lon="4.82183">
        <ele>236</ele>
        <time>2017-04-21T09:30:28Z</time>
      </trkpt>
      <trkpt lat="45.98854" lon="4.8219">
        <ele>236</ele>
        <time>2017-04-21T09:30:29Z</time>
      </trkpt>
      <trkpt lat="45.98857" lon="4.82197">
        <ele>236</ele>
        <time>2017-04-21T09:30:30Z</time>
      </trkpt>
      <trkpt lat="45.9886" lon="4.82203">
        <ele>236</ele>
        <time>2017-04-21T09:30:31Z</time>
      </trkpt>
      <trkpt lat="45.98862" lon="4.82209">
        <ele>236</ele>
        <time>2017-04-21T09:30:32Z</time>
      </trkpt>
      <trkpt lat="45.98865" lon="4.82216">
        <ele>236</ele>
        <time>2017-04-21T09:30:33Z</time>
      </trkpt>
      <trkpt lat="45.98868" lon="4.82222">
        <ele>236</ele>
        <time>2017-04-21T09:30:34Z</time>
      </trkpt>
      <trkpt lat="45.98871" lon="4.82229">
        <ele>236</ele>
        <time>2017-04-21T09:30:35Z</time>
      </trkpt>
      <trkpt lat="45.98873" lon="4.82235">
        <ele>236</ele>
        <time>2017-04-21T09:30:36Z</time>
      </trkpt>
      <trkpt lat="45.98876" lon="4.82242">
        <ele>236</ele>
        <time>2017-04-21T09:30:37Z</time>
      </trkpt>
      <trkpt lat="45.98879" lon="4.82248">
        <ele>236</ele>
        <time>2017-04-21T09:30:38Z</time>
      </trkpt>
      <trkpt lat="45.98882" lon="4.82255">
        <ele>237</ele>
        <time>2017-04-21T09:30:39Z</time>
      </trkpt>
      <trkpt lat="45.98885" lon="4.82262">
        <ele>236</ele>
        <time>2017-04-21T09:30:40Z</time>
      </trkpt>
      <trkpt lat="45.98889" lon="4.82268">
        <ele>236</ele>
        <time>2017-04-21T09:30:41Z</time>
      </trkpt>
      <trkpt lat="45.98893" lon="4.82274">
        <ele>236</ele>
        <time>2017-04-21T09:30:42Z</time>
      </trkpt>
      <trkpt lat="45.98897" lon="4.82279">
        <ele>236</ele>
        <time>2017-04-21T09:30:43Z</time>
      </trkpt>
      <trkpt lat="45.989" lon="4.82285">
        <ele>236</ele>
        <time>2017-04-21T09:30:44Z</time>
      </trkpt>
      <trkpt lat="45.98905" lon="4.8229">
        <ele>237</ele>
        <time>2017-04-21T09:30:45Z</time>
      </trkpt>
      <trkpt lat="45.98909" lon="4.82295">
        <ele>237</ele>
        <time>2017-04-21T09:30:46Z</time>
      </trkpt>
      <trkpt lat="45.98914" lon="4.82299">
        <ele>237</ele>
        <time>2017-04-21T09:30:47Z</time>
      </trkpt>
      <trkpt lat="45.98918" lon="4.82304">
        <ele>234</ele>
        <time>2017-04-21T09:30:48Z</time>
      </trkpt>
      <trkpt lat="45.98923" lon="4.82309">
        <ele>235</ele>
        <time>2017-04-21T09:30:49Z</time>
      </trkpt>
      <trkpt lat="45.98928" lon="4.82315">
        <ele>235</ele>
        <time>2017-04-21T09:30:50Z</time>
      </trkpt>
      <trkpt lat="45.98932" lon="4.8232">
        <ele>235</ele>
        <time>2017-04-21T09:30:51Z</time>
      </trkpt>
      <trkpt lat="45.98937" lon="4.82326">
        <ele>235</ele>
        <time>2017-04-21T09:30:52Z</time>
      </trkpt>
      <trkpt lat="45.98941" lon="4.82331">
        <ele>234</ele>
        <time>2017-04-21T09:30:53Z</time>
      </trkpt>
      <trkpt lat="45.98944" lon="4.82338">
        <ele>235</ele>
        <time>2017-04-21T09:30:54Z</time>
      </trkpt>
      <trkpt lat="45.98948" lon="4.82344">
        <ele>235</ele>
        <time>2017-04-21T09:30:55Z</time>
      </trkpt>
      <trkpt lat="45.98951" lon="4.82351">
        <ele>235</ele>
        <time>2017-04-21T09:30:56Z</time>
      </trkpt>
      <trkpt lat="45.98954" lon="4.82357">
        <ele>235</ele>
        <time>2017-04-21T09:30:57Z</time>
      </trkpt>
      <trkpt lat="45.98957" lon="4.82364">
        <ele>235</ele>
        <time>2017-04-21T09:30:58Z</time>
      </trkpt>
      <trkpt lat="45.9896" lon="4.82371">
        <ele>235</ele>
        <time>2017-04-21T09:30:59Z</time>
      </trkpt>
      <trkpt lat="45.98962" lon="4.82378">
        <ele>235</ele>
        <time>2017-04-21T09:31:00Z</time>
      </trkpt>
      <trkpt lat="45.98964" lon="4.82385">
        <ele>235</ele>
        <time>2017-04-21T09:31:01Z</time>
      </trkpt>
      <trkpt lat="45.98966" lon="4.82392">
        <ele>235</ele>
        <time>2017-04-21T09:31:02Z</time>
      </trkpt>
      <trkpt lat="45.98968" lon="4.82399">
        <ele>235</ele>
        <time>2017-04-21T09:31:03Z</time>
      </trkpt>
      <trkpt lat="45.98969" lon="4.82407">
        <ele>235</ele>
        <time>2017-04-21T09:31:04Z</time>
      </trkpt>
      <trkpt lat="45.98971" lon="4.82416">
        <ele>235</ele>
        <time>2017-04-21T09:31:05Z</time>
      </trkpt>
      <trkpt lat="45.98972" lon="4.82424">
        <ele>236</ele>
        <time>2017-04-21T09:31:06Z</time>
      </trkpt>
      <trkpt lat="45.98975" lon="4.82432">
        <ele>236</ele>
        <time>2017-04-21T09:31:07Z</time>
      </trkpt>
      <trkpt lat="45.98977" lon="4.82441">
        <ele>236</ele>
        <time>2017-04-21T09:31:08Z</time>
      </trkpt>
      <trkpt lat="45.98979" lon="4.82449">
        <ele>236</ele>
        <time>2017-04-21T09:31:09Z</time>
      </trkpt>
      <trkpt lat="45.98981" lon="4.82456">
        <ele>236</ele>
        <time>2017-04-21T09:31:10Z</time>
      </trkpt>
      <trkpt lat="45.98983" lon="4.82464">
        <ele>236</ele>
        <time>2017-04-21T09:31:11Z</time>
      </trkpt>
      <trkpt lat="45.98984" lon="4.82471">
        <ele>236</ele>
        <time>2017-04-21T09:31:12Z</time>
      </trkpt>
      <trkpt lat="45.98986" lon="4.82478">
        <ele>236</ele>
        <time>2017-04-21T09:31:13Z</time>
      </trkpt>
      <trkpt lat="45.98988" lon="4.82485">
        <ele>236</ele>
        <time>2017-04-21T09:31:14Z</time>
      </trkpt>
      <trkpt lat="45.98991" lon="4.82492">
        <ele>236</ele>
        <time>2017-04-21T09:31:15Z</time>
      </trkpt>
      <trkpt lat="45.98993" lon="4.82498">
        <ele>235</ele>
        <time>2017-04-21T09:31:16Z</time>
      </trkpt>
      <trkpt lat="45.98996" lon="4.82505">
        <ele>236</ele>
        <time>2017-04-21T09:31:17Z</time>
      </trkpt>
      <trkpt lat="45.98999" lon="4.82511">
        <ele>236</ele>
        <time>2017-04-21T09:31:18Z</time>
      </trkpt>
      <trkpt lat="45.99002" lon="4.82518">
        <ele>235</ele>
        <time>2017-04-21T09:31:19Z</time>
      </trkpt>
      <trkpt lat="45.99005" lon="4.82524">
        <ele>235</ele>
        <time>2017-04-21T09:31:20Z</time>
      </trkpt>
      <trkpt lat="45.99009" lon="4.8253">
        <ele>235</ele>
        <time>2017-04-21T09:31:21Z</time>
      </trkpt>
      <trkpt lat="45.99013" lon="4.82536">
        <ele>235</ele>
        <time>2017-04-21T09:31:22Z</time>
      </trkpt>
      <trkpt lat="45.99017" lon="4.82541">
        <ele>235</ele>
        <time>2017-04-21T09:31:23Z</time>
      </trkpt>
      <trkpt lat="45.99021" lon="4.82547">
        <ele>235</ele>
        <time>2017-04-21T09:31:24Z</time>
      </trkpt>
      <trkpt lat="45.99025" lon="4.82552">
        <ele>235</ele>
        <time>2017-04-21T09:31:25Z</time>
      </trkpt>
      <trkpt lat="45.99029" lon="4.82556">
        <ele>235</ele>
        <time>2017-04-21T09:31:26Z</time>
      </trkpt>
      <trkpt lat="45.99034" lon="4.8256">
        <ele>235</ele>
        <time>2017-04-21T09:31:27Z</time>
      </trkpt>
      <trkpt lat="45.99039" lon="4.82563">
        <ele>235</ele>
        <time>2017-04-21T09:31:28Z</time>
      </trkpt>
      <trkpt lat="45.99043" lon="4.82566">
        <ele>235</ele>
        <time>2017-04-21T09:31:29Z</time>
      </trkpt>
      <trkpt lat="45.99048" lon="4.82569">
        <ele>235</ele>
        <time>2017-04-21T09:31:30Z</time>
      </trkpt>
      <trkpt lat="45.99053" lon="4.82572">
        <ele>235</ele>
        <time>2017-04-21T09:31:31Z</time>
      </trkpt>
      <trkpt lat="45.99058" lon="4.82574">
        <ele>235</ele>
        <time>2017-04-21T09:31:32Z</time>
      </trkpt>
      <trkpt lat="45.99062" lon="4.82575">
        <ele>235</ele>
        <time>2017-04-21T09:31:33Z</time>
      </trkpt>
      <trkpt lat="45.9907" lon="4.82581">
        <ele>235</ele>
        <time>2017-04-21T09:31:35Z</time>
      </trkpt>
      <trkpt lat="45.99072" lon="4.82585">
        <ele>235</ele>
        <time>2017-04-21T09:31:36Z</time>
      </trkpt>
      <trkpt lat="45.99071" lon="4.82595">
        <ele>235</ele>
        <time>2017-04-21T09:31:39Z</time>
      </trkpt>
      <trkpt lat="45.99069" lon="4.82599">
        <ele>235</ele>
        <time>2017-04-21T09:31:40Z</time>
      </trkpt>
      <trkpt lat="45.99064" lon="4.82608">
        <ele>236</ele>
        <time>2017-04-21T09:31:42Z</time>
      </trkpt>
      <trkpt lat="45.99063" lon="4.82613">
        <ele>236</ele>
        <time>2017-04-21T09:31:43Z</time>
      </trkpt>
      <trkpt lat="45.99058" lon="4.82622">
        <ele>236</ele>
        <time>2017-04-21T09:31:45Z</time>
      </trkpt>
      <trkpt lat="45.99056" lon="4.82626">
        <ele>236</ele>
        <time>2017-04-21T09:31:46Z</time>
      </trkpt>
      <trkpt lat="45.99053" lon="4.82635">
        <ele>236</ele>
        <time>2017-04-21T09:31:48Z</time>
      </trkpt>
      <trkpt lat="45.99052" lon="4.82639">
        <ele>236</ele>
        <time>2017-04-21T09:31:49Z</time>
      </trkpt>
      <trkpt lat="45.99048" lon="4.82648">
        <ele>236</ele>
        <time>2017-04-21T09:31:51Z</time>
      </trkpt>
      <trkpt lat="45.99046" lon="4.82652">
        <ele>236</ele>
        <time>2017-04-21T09:31:52Z</time>
      </trkpt>
      <trkpt lat="45.99042" lon="4.8266">
        <ele>236</ele>
        <time>2017-04-21T09:31:54Z</time>
      </trkpt>
      <trkpt lat="45.9904" lon="4.82663">
        <ele>236</ele>
        <time>2017-04-21T09:31:55Z</time>
      </trkpt>
      <trkpt lat="45.99037" lon="4.8267">
        <ele>238</ele>
        <time>2017-04-21T09:31:57Z</time>
      </trkpt>
      <trkpt lat="45.99035" lon="4.82675">
        <ele>238</ele>
        <time>2017-04-21T09:31:58Z</time>
      </trkpt>
      <trkpt lat="45.99032" lon="4.82683">
        <ele>238</ele>
        <time>2017-04-21T09:32:00Z</time>
      </trkpt>
      <trkpt lat="45.9903" lon="4.82688">
        <ele>238</ele>
        <time>2017-04-21T09:32:01Z</time>
      </trkpt>
      <trkpt lat="45.99027" lon="4.82695">
        <ele>238</ele>
        <time>2017-04-21T09:32:03Z</time>
      </trkpt>
      <trkpt lat="45.99025" lon="4.82699">
        <ele>238</ele>
        <time>2017-04-21T09:32:04Z</time>
      </trkpt>
      <trkpt lat="45.99021" lon="4.82709">
        <ele>238</ele>
        <time>2017-04-21T09:32:07Z</time>
      </trkpt>
      <trkpt lat="45.99019" lon="4.82712">
        <ele>239</ele>
        <time>2017-04-21T09:32:08Z</time>
      </trkpt>
      <trkpt lat="45.99016" lon="4.8272">
        <ele>239</ele>
        <time>2017-04-21T09:32:10Z</time>
      </trkpt>
      <trkpt lat="45.99015" lon="4.82724">
        <ele>239</ele>
        <time>2017-04-21T09:32:11Z</time>
      </trkpt>
      <trkpt lat="45.99011" lon="4.82731">
        <ele>239</ele>
        <time>2017-04-21T09:32:13Z</time>
      </trkpt>
      <trkpt lat="45.99009" lon="4.82735">
        <ele>240</ele>
        <time>2017-04-21T09:32:14Z</time>
      </trkpt>
      <trkpt lat="45.99004" lon="4.82746">
        <ele>240</ele>
        <time>2017-04-21T09:32:17Z</time>
      </trkpt>
      <trkpt lat="45.99003" lon="4.8275">
        <ele>241</ele>
        <time>2017-04-21T09:32:18Z</time>
      </trkpt>
      <trkpt lat="45.98999" lon="4.8276">
        <ele>243</ele>
        <time>2017-04-21T09:32:21Z</time>
      </trkpt>
      <trkpt lat="45.98998" lon="4.82762">
        <ele>244</ele>
        <time>2017-04-21T09:32:22Z</time>
      </trkpt>
      <trkpt lat="45.98995" lon="4.82772">
        <ele>245</ele>
        <time>2017-04-21T09:32:25Z</time>
      </trkpt>
      <trkpt lat="45.98993" lon="4.82774">
        <ele>246</ele>
        <time>2017-04-21T09:32:26Z</time>
      </trkpt>
      <trkpt lat="45.98987" lon="4.82783">
        <ele>247</ele>
        <time>2017-04-21T09:32:30Z</time>
      </trkpt>
      <trkpt lat="45.98985" lon="4.82786">
        <ele>247</ele>
        <time>2017-04-21T09:32:31Z</time>
      </trkpt>
      <trkpt lat="45.98981" lon="4.82796">
        <ele>248</ele>
        <time>2017-04-21T09:32:34Z</time>
      </trkpt>
      <trkpt lat="45.9898" lon="4.828">
        <ele>248</ele>
        <time>2017-04-21T09:32:35Z</time>
      </trkpt>
      <trkpt lat="45.98976" lon="4.82809">
        <ele>248</ele>
        <time>2017-04-21T09:32:38Z</time>
      </trkpt>
      <trkpt lat="45.98975" lon="4.82813">
        <ele>248</ele>
        <time>2017-04-21T09:32:39Z</time>
      </trkpt>
      <trkpt lat="45.98971" lon="4.82822">
        <ele>249</ele>
        <time>2017-04-21T09:32:42Z</time>
      </trkpt>
      <trkpt lat="45.9897" lon="4.82825">
        <ele>249</ele>
        <time>2017-04-21T09:32:43Z</time>
      </trkpt>
      <trkpt lat="45.98966" lon="4.82835">
        <ele>252</ele>
        <time>2017-04-21T09:32:46Z</time>
      </trkpt>
      <trkpt lat="45.98965" lon="4.82837">
        <ele>252</ele>
        <time>2017-04-21T09:32:47Z</time>
      </trkpt>
      <trkpt lat="45.98961" lon="4.82847">
        <ele>252</ele>
        <time>2017-04-21T09:32:50Z</time>
      </trkpt>
      <trkpt lat="45.9896" lon="4.8285">
        <ele>252</ele>
        <time>2017-04-21T09:32:51Z</time>
      </trkpt>
      <trkpt lat="45.98956" lon="4.82859">
        <ele>252</ele>
        <time>2017-04-21T09:32:54Z</time>
      </trkpt>
      <trkpt lat="45.98955" lon="4.82862">
        <ele>252</ele>
        <time>2017-04-21T09:32:55Z</time>
      </trkpt>
      <trkpt lat="45.98951" lon="4.82871">
        <ele>253</ele>
        <time>2017-04-21T09:32:58Z</time>
      </trkpt>
      <trkpt lat="45.9895" lon="4.82874">
        <ele>253</ele>
        <time>2017-04-21T09:32:59Z</time>
      </trkpt>
      <trkpt lat="45.98946" lon="4.82883">
        <ele>253</ele>
        <time>2017-04-21T09:33:02Z</time>
      </trkpt>
      <trkpt lat="45.98945" lon="4.82885">
        <ele>253</ele>
        <time>2017-04-21T09:33:03Z</time>
      </trkpt>
      <trkpt lat="45.9894" lon="4.82893">
        <ele>253</ele>
        <time>2017-04-21T09:33:06Z</time>
      </trkpt>
      <trkpt lat="45.98939" lon="4.82895">
        <ele>253</ele>
        <time>2017-04-21T09:33:07Z</time>
      </trkpt>
      <trkpt lat="45.98935" lon="4.82904">
        <ele>254</ele>
        <time>2017-04-21T09:33:10Z</time>
      </trkpt>
      <trkpt lat="45.98934" lon="4.82906">
        <ele>254</ele>
        <time>2017-04-21T09:33:11Z</time>
      </trkpt>
      <trkpt lat="45.9893" lon="4.82916">
        <ele>254</ele>
        <time>2017-04-21T09:33:15Z</time>
      </trkpt>
      <trkpt lat="45.98929" lon="4.82919">
        <ele>255</ele>
        <time>2017-04-21T09:33:16Z</time>
      </trkpt>
      <trkpt lat="45.98925" lon="4.8293">
        <ele>255</ele>
        <time>2017-04-21T09:33:20Z</time>
      </trkpt>
      <trkpt lat="45.98924" lon="4.82933">
        <ele>255</ele>
        <time>2017-04-21T09:33:21Z</time>
      </trkpt>
      <trkpt lat="45.9892" lon="4.82941">
        <ele>255</ele>
        <time>2017-04-21T09:33:24Z</time>
      </trkpt>
      <trkpt lat="45.98918" lon="4.82944">
        <ele>255</ele>
        <time>2017-04-21T09:33:25Z</time>
      </trkpt>
      <trkpt lat="45.98914" lon="4.82954">
        <ele>258</ele>
        <time>2017-04-21T09:33:29Z</time>
      </trkpt>
      <trkpt lat="45.98913" lon="4.82956">
        <ele>258</ele>
        <time>2017-04-21T09:33:30Z</time>
      </trkpt>
      <trkpt lat="45.98908" lon="4.82963">
        <ele>259</ele>
        <time>2017-04-21T09:33:33Z</time>
      </trkpt>
      <trkpt lat="45.98906" lon="4.82965">
        <ele>259</ele>
        <time>2017-04-21T09:33:34Z</time>
      </trkpt>
      <trkpt lat="45.989" lon="4.82973">
        <ele>259</ele>
        <time>2017-04-21T09:33:38Z</time>
      </trkpt>
      <trkpt lat="45.98898" lon="4.82974">
        <ele>259</ele>
        <time>2017-04-21T09:33:39Z</time>
      </trkpt>
      <trkpt lat="45.98891" lon="4.8298">
        <ele>259</ele>
        <time>2017-04-21T09:33:43Z</time>
      </trkpt>
      <trkpt lat="45.98889" lon="4.82981">
        <ele>259</ele>
        <time>2017-04-21T09:33:44Z</time>
      </trkpt>
      <trkpt lat="45.98882" lon="4.82986">
        <ele>259</ele>
        <time>2017-04-21T09:33:48Z</time>
      </trkpt>
      <trkpt lat="45.9888" lon="4.82987">
        <ele>260</ele>
        <time>2017-04-21T09:33:49Z</time>
      </trkpt>
      <trkpt lat="45.98873" lon="4.82993">
        <ele>260</ele>
        <time>2017-04-21T09:33:53Z</time>
      </trkpt>
      <trkpt lat="45.98871" lon="4.82994">
        <ele>260</ele>
        <time>2017-04-21T09:33:54Z</time>
      </trkpt>
      <trkpt lat="45.98864" lon="4.83">
        <ele>261</ele>
        <time>2017-04-21T09:33:58Z</time>
      </trkpt>
      <trkpt lat="45.98862" lon="4.83001">
        <ele>260</ele>
        <time>2017-04-21T09:33:59Z</time>
      </trkpt>
      <trkpt lat="45.98854" lon="4.83007">
        <ele>261</ele>
        <time>2017-04-21T09:34:03Z</time>
      </trkpt>
      <trkpt lat="45.98853" lon="4.83009">
        <ele>261</ele>
        <time>2017-04-21T09:34:04Z</time>
      </trkpt>
      <trkpt lat="45.98847" lon="4.83014">
        <ele>261</ele>
        <time>2017-04-21T09:34:08Z</time>
      </trkpt>
      <trkpt lat="45.98845" lon="4.83016">
        <ele>261</ele>
        <time>2017-04-21T09:34:09Z</time>
      </trkpt>
      <trkpt lat="45.98838" lon="4.83023">
        <ele>261</ele>
        <time>2017-04-21T09:34:13Z</time>
      </trkpt>
      <trkpt lat="45.98834" lon="4.83024">
        <ele>261</ele>
        <time>2017-04-21T09:34:14Z</time>
      </trkpt>
      <trkpt lat="45.98827" lon="4.83028">
        <ele>264</ele>
        <time>2017-04-21T09:34:17Z</time>
      </trkpt>
      <trkpt lat="45.98823" lon="4.83031">
        <ele>264</ele>
        <time>2017-04-21T09:34:18Z</time>
      </trkpt>
      <trkpt lat="45.98818" lon="4.83035">
        <ele>264</ele>
        <time>2017-04-21T09:34:20Z</time>
      </trkpt>
      <trkpt lat="45.98815" lon="4.83037">
        <ele>264</ele>
        <time>2017-04-21T09:34:21Z</time>
      </trkpt>
      <trkpt lat="45.98807" lon="4.83042">
        <ele>264</ele>
        <time>2017-04-21T09:34:24Z</time>
      </trkpt>
      <trkpt lat="45.98805" lon="4.83044">
        <ele>264</ele>
        <time>2017-04-21T09:34:25Z</time>
      </trkpt>
      <trkpt lat="45.98797" lon="4.8305">
        <ele>265</ele>
        <time>2017-04-21T09:34:28Z</time>
      </trkpt>
      <trkpt lat="45.98794" lon="4.83051">
        <ele>265</ele>
        <time>2017-04-21T09:34:29Z</time>
      </trkpt>
      <trkpt lat="45.98788" lon="4.83057">
        <ele>265</ele>
        <time>2017-04-21T09:34:32Z</time>
      </trkpt>
      <trkpt lat="45.98785" lon="4.83058">
        <ele>265</ele>
        <time>2017-04-21T09:34:33Z</time>
      </trkpt>
      <trkpt lat="45.98779" lon="4.83063">
        <ele>265</ele>
        <time>2017-04-21T09:34:36Z</time>
      </trkpt>
      <trkpt lat="45.98777" lon="4.83066">
        <ele>265</ele>
        <time>2017-04-21T09:34:37Z</time>
      </trkpt>
      <trkpt lat="45.98771" lon="4.83073">
        <ele>266</ele>
        <time>2017-04-21T09:34:40Z</time>
      </trkpt>
      <trkpt lat="45.98768" lon="4.83075">
        <ele>266</ele>
        <time>2017-04-21T09:34:41Z</time>
      </trkpt>
      <trkpt lat="45.98761" lon="4.83081">
        <ele>266</ele>
        <time>2017-04-21T09:34:44Z</time>
      </trkpt>
      <trkpt lat="45.98759" lon="4.83083">
        <ele>266</ele>
        <time>2017-04-21T09:34:45Z</time>
      </trkpt>
      <trkpt lat="45.98751" lon="4.8309">
        <ele>266</ele>
        <time>2017-04-21T09:34:48Z</time>
      </trkpt>
      <trkpt lat="45.98748" lon="4.83092">
        <ele>267</ele>
        <time>2017-04-21T09:34:49Z</time>
      </trkpt>
      <trkpt lat="45.98741" lon="4.83098">
        <ele>267</ele>
        <time>2017-04-21T09:34:52Z</time>
      </trkpt>
      <trkpt lat="45.98738" lon="4.831">
        <ele>267</ele>
        <time>2017-04-21T09:34:53Z</time>
      </trkpt>
      <trkpt lat="45.98733" lon="4.83104">
        <ele>267</ele>
        <time>2017-04-21T09:34:55Z</time>
      </trkpt>
      <trkpt lat="45.9873" lon="4.83107">
        <ele>267</ele>
        <time>2017-04-21T09:34:56Z</time>
      </trkpt>
      <trkpt lat="45.98725" lon="4.83111">
        <ele>267</ele>
        <time>2017-04-21T09:34:58Z</time>
      </trkpt>
      <trkpt lat="45.98722" lon="4.83113">
        <ele>267</ele>
        <time>2017-04-21T09:34:59Z</time>
      </trkpt>
      <trkpt lat="45.98716" lon="4.83118">
        <ele>267</ele>
        <time>2017-04-21T09:35:01Z</time>
      </trkpt>
      <trkpt lat="45.98713" lon="4.83121">
        <ele>267</ele>
        <time>2017-04-21T09:35:02Z</time>
      </trkpt>
      <trkpt lat="45.98707" lon="4.83126">
        <ele>266</ele>
        <time>2017-04-21T09:35:04Z</time>
      </trkpt>
      <trkpt lat="45.98704" lon="4.83128">
        <ele>266</ele>
        <time>2017-04-21T09:35:05Z</time>
      </trkpt>
      <trkpt lat="45.98698" lon="4.83133">
        <ele>266</ele>
        <time>2017-04-21T09:35:07Z</time>
      </trkpt>
      <trkpt lat="45.98694" lon="4.83135">
        <ele>266</ele>
        <time>2017-04-21T09:35:08Z</time>
      </trkpt>
      <trkpt lat="45.98689" lon="4.83141">
        <ele>266</ele>
        <time>2017-04-21T09:35:10Z</time>
      </trkpt>
      <trkpt lat="45.98686" lon="4.83143">
        <ele>266</ele>
        <time>2017-04-21T09:35:11Z</time>
      </trkpt>
      <trkpt lat="45.9868" lon="4.83147">
        <ele>266</ele>
        <time>2017-04-21T09:35:13Z</time>
      </trkpt>
      <trkpt lat="45.98677" lon="4.83149">
        <ele>266</ele>
        <time>2017-04-21T09:35:14Z</time>
      </trkpt>
      <trkpt lat="45.9867" lon="4.83154">
        <ele>266</ele>
        <time>2017-04-21T09:35:16Z</time>
      </trkpt>
      <trkpt lat="45.98667" lon="4.83156">
        <ele>267</ele>
        <time>2017-04-21T09:35:17Z</time>
      </trkpt>
      <trkpt lat="45.9866" lon="4.8316">
        <ele>267</ele>
        <time>2017-04-21T09:35:19Z</time>
      </trkpt>
      <trkpt lat="45.98657" lon="4.83163">
        <ele>267</ele>
        <time>2017-04-21T09:35:20Z</time>
      </trkpt>
      <trkpt lat="45.9865" lon="4.83168">
        <ele>267</ele>
        <time>2017-04-21T09:35:22Z</time>
      </trkpt>
      <trkpt lat="45.98647" lon="4.83171">
        <ele>267</ele>
        <time>2017-04-21T09:35:23Z</time>
      </trkpt>
      <trkpt lat="45.9864" lon="4.83177">
        <ele>267</ele>
        <time>2017-04-21T09:35:25Z</time>
      </trkpt>
      <trkpt lat="45.98637" lon="4.8318">
        <ele>267</ele>
        <time>2017-04-21T09:35:26Z</time>
      </trkpt>
      <trkpt lat="45.98631" lon="4.83186">
        <ele>267</ele>
        <time>2017-04-21T09:35:28Z</time>
      </trkpt>
      <trkpt lat="45.98628" lon="4.8319">
        <ele>267</ele>
        <time>2017-04-21T09:35:29Z</time>
      </trkpt>
      <trkpt lat="45.98622" lon="4.83197">
        <ele>267</ele>
        <time>2017-04-21T09:35:31Z</time>
      </trkpt>
      <trkpt lat="45.98619" lon="4.83201">
        <ele>267</ele>
        <time>2017-04-21T09:35:32Z</time>
      </trkpt>
      <trkpt lat="45.98614" lon="4.83209">
        <ele>267</ele>
        <time>2017-04-21T09:35:34Z</time>
      </trkpt>
      <trkpt lat="45.98611" lon="4.83212">
        <ele>267</ele>
        <time>2017-04-21T09:35:35Z</time>
      </trkpt>
      <trkpt lat="45.98606" lon="4.83219">
        <ele>267</ele>
        <time>2017-04-21T09:35:37Z</time>
      </trkpt>
      <trkpt lat="45.98603" lon="4.83223">
        <ele>267</ele>
        <time>2017-04-21T09:35:38Z</time>
      </trkpt>
      <trkpt lat="45.98598" lon="4.83231">
        <ele>268</ele>
        <time>2017-04-21T09:35:40Z</time>
      </trkpt>
      <trkpt lat="45.98596" lon="4.83235">
        <ele>268</ele>
        <time>2017-04-21T09:35:41Z</time>
      </trkpt>
      <trkpt lat="45.9859" lon="4.83242">
        <ele>268</ele>
        <time>2017-04-21T09:35:43Z</time>
      </trkpt>
      <trkpt lat="45.98588" lon="4.83246">
        <ele>268</ele>
        <time>2017-04-21T09:35:44Z</time>
      </trkpt>
      <trkpt lat="45.98582" lon="4.83253">
        <ele>268</ele>
        <time>2017-04-21T09:35:46Z</time>
      </trkpt>
      <trkpt lat="45.9858" lon="4.83257">
        <ele>268</ele>
        <time>2017-04-21T09:35:47Z</time>
      </trkpt>
      <trkpt lat="45.98574" lon="4.83264">
        <ele>269</ele>
        <time>2017-04-21T09:35:49Z</time>
      </trkpt>
      <trkpt lat="45.98571" lon="4.83268">
        <ele>269</ele>
        <time>2017-04-21T09:35:50Z</time>
      </trkpt>
      <trkpt lat="45.98566" lon="4.83276">
        <ele>269</ele>
        <time>2017-04-21T09:35:52Z</time>
      </trkpt>
      <trkpt lat="45.98563" lon="4.8328">
        <ele>269</ele>
        <time>2017-04-21T09:35:53Z</time>
      </trkpt>
      <trkpt lat="45.98557" lon="4.83288">
        <ele>269</ele>
        <time>2017-04-21T09:35:55Z</time>
      </trkpt>
      <trkpt lat="45.98554" lon="4.83292">
        <ele>269</ele>
        <time>2017-04-21T09:35:56Z</time>
      </trkpt>
      <trkpt lat="45.98549" lon="4.833">
        <ele>269</ele>
        <time>2017-04-21T09:35:58Z</time>
      </trkpt>
      <trkpt lat="45.98546" lon="4.83304">
        <ele>269</ele>
        <time>2017-04-21T09:35:59Z</time>
      </trkpt>
      <trkpt lat="45.9854" lon="4.83311">
        <ele>269</ele>
        <time>2017-04-21T09:36:01Z</time>
      </trkpt>
      <trkpt lat="45.98538" lon="4.83315">
        <ele>269</ele>
        <time>2017-04-21T09:36:02Z</time>
      </trkpt>
      <trkpt lat="45.98532" lon="4.83323">
        <ele>269</ele>
        <time>2017-04-21T09:36:04Z</time>
      </trkpt>
      <trkpt lat="45.98529" lon="4.83327">
        <ele>269</ele>
        <time>2017-04-21T09:36:05Z</time>
      </trkpt>
      <trkpt lat="45.98523" lon="4.83333">
        <ele>270</ele>
        <time>2017-04-21T09:36:07Z</time>
      </trkpt>
      <trkpt lat="45.9852" lon="4.83337">
        <ele>270</ele>
        <time>2017-04-21T09:36:08Z</time>
      </trkpt>
      <trkpt lat="45.98514" lon="4.83346">
        <ele>270</ele>
        <time>2017-04-21T09:36:10Z</time>
      </trkpt>
      <trkpt lat="45.98511" lon="4.8335">
        <ele>270</ele>
        <time>2017-04-21T09:36:11Z</time>
      </trkpt>
      <trkpt lat="45.98505" lon="4.8336">
        <ele>269</ele>
        <time>2017-04-21T09:36:13Z</time>
      </trkpt>
      <trkpt lat="45.98501" lon="4.83364">
        <ele>269</ele>
        <time>2017-04-21T09:36:14Z</time>
      </trkpt>
      <trkpt lat="45.98498" lon="4.83369">
        <ele>270</ele>
        <time>2017-04-21T09:36:15Z</time>
      </trkpt>
      <trkpt lat="45.98494" lon="4.83373">
        <ele>270</ele>
        <time>2017-04-21T09:36:16Z</time>
      </trkpt>
      <trkpt lat="45.9849" lon="4.83377">
        <ele>269</ele>
        <time>2017-04-21T09:36:17Z</time>
      </trkpt>
      <trkpt lat="45.98487" lon="4.83382">
        <ele>269</ele>
        <time>2017-04-21T09:36:18Z</time>
      </trkpt>
      <trkpt lat="45.98484" lon="4.83387">
        <ele>269</ele>
        <time>2017-04-21T09:36:19Z</time>
      </trkpt>
      <trkpt lat="45.9848" lon="4.83392">
        <ele>269</ele>
        <time>2017-04-21T09:36:20Z</time>
      </trkpt>
      <trkpt lat="45.98477" lon="4.83397">
        <ele>269</ele>
        <time>2017-04-21T09:36:21Z</time>
      </trkpt>
      <trkpt lat="45.98473" lon="4.83402">
        <ele>269</ele>
        <time>2017-04-21T09:36:22Z</time>
      </trkpt>
      <trkpt lat="45.9847" lon="4.83407">
        <ele>269</ele>
        <time>2017-04-21T09:36:23Z</time>
      </trkpt>
      <trkpt lat="45.98466" lon="4.83412">
        <ele>269</ele>
        <time>2017-04-21T09:36:24Z</time>
      </trkpt>
      <trkpt lat="45.98463" lon="4.83417">
        <ele>269</ele>
        <time>2017-04-21T09:36:25Z</time>
      </trkpt>
      <trkpt lat="45.98459" lon="4.83422">
        <ele>269</ele>
        <time>2017-04-21T09:36:26Z</time>
      </trkpt>
      <trkpt lat="45.98455" lon="4.83427">
        <ele>269</ele>
        <time>2017-04-21T09:36:27Z</time>
      </trkpt>
      <trkpt lat="45.98452" lon="4.83431">
        <ele>268</ele>
        <time>2017-04-21T09:36:28Z</time>
      </trkpt>
      <trkpt lat="45.98448" lon="4.83436">
        <ele>268</ele>
        <time>2017-04-21T09:36:29Z</time>
      </trkpt>
      <trkpt lat="45.98445" lon="4.8344">
        <ele>268</ele>
        <time>2017-04-21T09:36:30Z</time>
      </trkpt>
      <trkpt lat="45.98442" lon="4.83445">
        <ele>268</ele>
        <time>2017-04-21T09:36:31Z</time>
      </trkpt>
      <trkpt lat="45.98438" lon="4.8345">
        <ele>268</ele>
        <time>2017-04-21T09:36:32Z</time>
      </trkpt>
      <trkpt lat="45.98434" lon="4.83455">
        <ele>268</ele>
        <time>2017-04-21T09:36:33Z</time>
      </trkpt>
      <trkpt lat="45.9843" lon="4.83461">
        <ele>268</ele>
        <time>2017-04-21T09:36:34Z</time>
      </trkpt>
      <trkpt lat="45.98426" lon="4.83466">
        <ele>268</ele>
        <time>2017-04-21T09:36:35Z</time>
      </trkpt>
      <trkpt lat="45.98422" lon="4.83471">
        <ele>268</ele>
        <time>2017-04-21T09:36:36Z</time>
      </trkpt>
      <trkpt lat="45.98419" lon="4.83476">
        <ele>268</ele>
        <time>2017-04-21T09:36:37Z</time>
      </trkpt>
      <trkpt lat="45.98415" lon="4.83481">
        <ele>269</ele>
        <time>2017-04-21T09:36:38Z</time>
      </trkpt>
      <trkpt lat="45.98412" lon="4.83486">
        <ele>269</ele>
        <time>2017-04-21T09:36:39Z</time>
      </trkpt>
      <trkpt lat="45.98408" lon="4.8349">
        <ele>269</ele>
        <time>2017-04-21T09:36:40Z</time>
      </trkpt>
      <trkpt lat="45.98405" lon="4.83495">
        <ele>269</ele>
        <time>2017-04-21T09:36:41Z</time>
      </trkpt>
      <trkpt lat="45.98401" lon="4.83499">
        <ele>269</ele>
        <time>2017-04-21T09:36:42Z</time>
      </trkpt>
      <trkpt lat="45.98395" lon="4.83507">
        <ele>269</ele>
        <time>2017-04-21T09:36:44Z</time>
      </trkpt>
      <trkpt lat="45.98392" lon="4.83511">
        <ele>269</ele>
        <time>2017-04-21T09:36:45Z</time>
      </trkpt>
      <trkpt lat="45.98388" lon="4.83516">
        <ele>269</ele>
        <time>2017-04-21T09:36:46Z</time>
      </trkpt>
      <trkpt lat="45.98385" lon="4.83521">
        <ele>269</ele>
        <time>2017-04-21T09:36:47Z</time>
      </trkpt>
      <trkpt lat="45.98382" lon="4.83525">
        <ele>269</ele>
        <time>2017-04-21T09:36:48Z</time>
      </trkpt>
      <trkpt lat="45.98378" lon="4.8353">
        <ele>269</ele>
        <time>2017-04-21T09:36:49Z</time>
      </trkpt>
      <trkpt lat="45.98374" lon="4.83535">
        <ele>269</ele>
        <time>2017-04-21T09:36:50Z</time>
      </trkpt>
      <trkpt lat="45.98371" lon="4.8354">
        <ele>269</ele>
        <time>2017-04-21T09:36:51Z</time>
      </trkpt>
      <trkpt lat="45.98367" lon="4.83546">
        <ele>269</ele>
        <time>2017-04-21T09:36:52Z</time>
      </trkpt>
      <trkpt lat="45.98363" lon="4.83551">
        <ele>269</ele>
        <time>2017-04-21T09:36:53Z</time>
      </trkpt>
      <trkpt lat="45.98359" lon="4.83557">
        <ele>269</ele>
        <time>2017-04-21T09:36:54Z</time>
      </trkpt>
      <trkpt lat="45.98355" lon="4.83562">
        <ele>269</ele>
        <time>2017-04-21T09:36:55Z</time>
      </trkpt>
      <trkpt lat="45.98351" lon="4.83567">
        <ele>269</ele>
        <time>2017-04-21T09:36:56Z</time>
      </trkpt>
      <trkpt lat="45.98348" lon="4.83572">
        <ele>269</ele>
        <time>2017-04-21T09:36:57Z</time>
      </trkpt>
      <trkpt lat="45.98344" lon="4.83577">
        <ele>270</ele>
        <time>2017-04-21T09:36:58Z</time>
      </trkpt>
      <trkpt lat="45.98341" lon="4.83581">
        <ele>270</ele>
        <time>2017-04-21T09:36:59Z</time>
      </trkpt>
      <trkpt lat="45.98335" lon="4.8359">
        <ele>270</ele>
        <time>2017-04-21T09:37:01Z</time>
      </trkpt>
      <trkpt lat="45.98332" lon="4.83594">
        <ele>270</ele>
        <time>2017-04-21T09:37:02Z</time>
      </trkpt>
      <trkpt lat="45.98325" lon="4.83603">
        <ele>271</ele>
        <time>2017-04-21T09:37:04Z</time>
      </trkpt>
      <trkpt lat="45.98322" lon="4.83607">
        <ele>271</ele>
        <time>2017-04-21T09:37:05Z</time>
      </trkpt>
      <trkpt lat="45.98318" lon="4.83611">
        <ele>271</ele>
        <time>2017-04-21T09:37:06Z</time>
      </trkpt>
      <trkpt lat="45.98315" lon="4.83616">
        <ele>271</ele>
        <time>2017-04-21T09:37:07Z</time>
      </trkpt>
      <trkpt lat="45.98312" lon="4.83621">
        <ele>271</ele>
        <time>2017-04-21T09:37:08Z</time>
      </trkpt>
      <trkpt lat="45.98309" lon="4.83627">
        <ele>271</ele>
        <time>2017-04-21T09:37:09Z</time>
      </trkpt>
      <trkpt lat="45.98306" lon="4.83633">
        <ele>271</ele>
        <time>2017-04-21T09:37:10Z</time>
      </trkpt>
      <trkpt lat="45.98303" lon="4.83639">
        <ele>271</ele>
        <time>2017-04-21T09:37:11Z</time>
      </trkpt>
      <trkpt lat="45.98299" lon="4.8365">
        <ele>271</ele>
        <time>2017-04-21T09:37:13Z</time>
      </trkpt>
      <trkpt lat="45.98296" lon="4.83655">
        <ele>271</ele>
        <time>2017-04-21T09:37:14Z</time>
      </trkpt>
      <trkpt lat="45.98292" lon="4.83666">
        <ele>272</ele>
        <time>2017-04-21T09:37:16Z</time>
      </trkpt>
      <trkpt lat="45.9829" lon="4.83672">
        <ele>272</ele>
        <time>2017-04-21T09:37:17Z</time>
      </trkpt>
      <trkpt lat="45.98287" lon="4.83678">
        <ele>272</ele>
        <time>2017-04-21T09:37:18Z</time>
      </trkpt>
      <trkpt lat="45.98285" lon="4.83684">
        <ele>272</ele>
        <time>2017-04-21T09:37:19Z</time>
      </trkpt>
      <trkpt lat="45.98283" lon="4.8369">
        <ele>272</ele>
        <time>2017-04-21T09:37:20Z</time>
      </trkpt>
      <trkpt lat="45.98281" lon="4.83695">
        <ele>272</ele>
        <time>2017-04-21T09:37:21Z</time>
      </trkpt>
      <trkpt lat="45.98279" lon="4.83701">
        <ele>272</ele>
        <time>2017-04-21T09:37:22Z</time>
      </trkpt>
      <trkpt lat="45.98277" lon="4.83707">
        <ele>272</ele>
        <time>2017-04-21T09:37:23Z</time>
      </trkpt>
      <trkpt lat="45.98275" lon="4.83713">
        <ele>272</ele>
        <time>2017-04-21T09:37:24Z</time>
      </trkpt>
      <trkpt lat="45.98273" lon="4.83719">
        <ele>272</ele>
        <time>2017-04-21T09:37:25Z</time>
      </trkpt>
      <trkpt lat="45.98269" lon="4.8373">
        <ele>272</ele>
        <time>2017-04-21T09:37:27Z</time>
      </trkpt>
      <trkpt lat="45.98267" lon="4.83736">
        <ele>272</ele>
        <time>2017-04-21T09:37:28Z</time>
      </trkpt>
      <trkpt lat="45.98263" lon="4.83748">
        <ele>272</ele>
        <time>2017-04-21T09:37:30Z</time>
      </trkpt>
      <trkpt lat="45.98262" lon="4.83754">
        <ele>272</ele>
        <time>2017-04-21T09:37:31Z</time>
      </trkpt>
      <trkpt lat="45.9826" lon="4.8376">
        <ele>272</ele>
        <time>2017-04-21T09:37:32Z</time>
      </trkpt>
      <trkpt lat="45.98258" lon="4.83766">
        <ele>272</ele>
        <time>2017-04-21T09:37:33Z</time>
      </trkpt>
      <trkpt lat="45.98256" lon="4.83772">
        <ele>272</ele>
        <time>2017-04-21T09:37:34Z</time>
      </trkpt>
      <trkpt lat="45.98253" lon="4.83779">
        <ele>272</ele>
        <time>2017-04-21T09:37:35Z</time>
      </trkpt>
      <trkpt lat="45.98249" lon="4.8379">
        <ele>272</ele>
        <time>2017-04-21T09:37:37Z</time>
      </trkpt>
      <trkpt lat="45.98247" lon="4.83795">
        <ele>272</ele>
        <time>2017-04-21T09:37:38Z</time>
      </trkpt>
      <trkpt lat="45.98243" lon="4.83807">
        <ele>272</ele>
        <time>2017-04-21T09:37:40Z</time>
      </trkpt>
      <trkpt lat="45.98241" lon="4.83812">
        <ele>272</ele>
        <time>2017-04-21T09:37:41Z</time>
      </trkpt>
      <trkpt lat="45.98239" lon="4.83818">
        <ele>272</ele>
        <time>2017-04-21T09:37:42Z</time>
      </trkpt>
      <trkpt lat="45.98237" lon="4.83824">
        <ele>272</ele>
        <time>2017-04-21T09:37:43Z</time>
      </trkpt>
      <trkpt lat="45.98233" lon="4.83835">
        <ele>272</ele>
        <time>2017-04-21T09:37:45Z</time>
      </trkpt>
      <trkpt lat="45.98232" lon="4.83841">
        <ele>272</ele>
        <time>2017-04-21T09:37:46Z</time>
      </trkpt>
      <trkpt lat="45.9823" lon="4.83847">
        <ele>272</ele>
        <time>2017-04-21T09:37:47Z</time>
      </trkpt>
      <trkpt lat="45.98228" lon="4.83853">
        <ele>272</ele>
        <time>2017-04-21T09:37:48Z</time>
      </trkpt>
      <trkpt lat="45.98226" lon="4.8386">
        <ele>272</ele>
        <time>2017-04-21T09:37:49Z</time>
      </trkpt>
      <trkpt lat="45.98224" lon="4.83866">
        <ele>272</ele>
        <time>2017-04-21T09:37:50Z</time>
      </trkpt>
      <trkpt lat="45.9822" lon="4.83877">
        <ele>272</ele>
        <time>2017-04-21T09:37:52Z</time>
      </trkpt>
      <trkpt lat="45.98218" lon="4.83882">
        <ele>272</ele>
        <time>2017-04-21T09:37:53Z</time>
      </trkpt>
      <trkpt lat="45.98216" lon="4.83888">
        <ele>273</ele>
        <time>2017-04-21T09:37:54Z</time>
      </trkpt>
      <trkpt lat="45.98214" lon="4.83894">
        <ele>273</ele>
        <time>2017-04-21T09:37:55Z</time>
      </trkpt>
      <trkpt lat="45.98212" lon="4.83901">
        <ele>273</ele>
        <time>2017-04-21T09:37:56Z</time>
      </trkpt>
      <trkpt lat="45.9821" lon="4.83906">
        <ele>273</ele>
        <time>2017-04-21T09:37:57Z</time>
      </trkpt>
      <trkpt lat="45.98208" lon="4.83912">
        <ele>273</ele>
        <time>2017-04-21T09:37:58Z</time>
      </trkpt>
      <trkpt lat="45.98205" lon="4.83918">
        <ele>273</ele>
        <time>2017-04-21T09:37:59Z</time>
      </trkpt>
      <trkpt lat="45.98203" lon="4.83924">
        <ele>273</ele>
        <time>2017-04-21T09:38:00Z</time>
      </trkpt>
      <trkpt lat="45.98201" lon="4.83931">
        <ele>273</ele>
        <time>2017-04-21T09:38:01Z</time>
      </trkpt>
      <trkpt lat="45.98199" lon="4.83937">
        <ele>273</ele>
        <time>2017-04-21T09:38:02Z</time>
      </trkpt>
      <trkpt lat="45.98197" lon="4.83943">
        <ele>273</ele>
        <time>2017-04-21T09:38:03Z</time>
      </trkpt>
      <trkpt lat="45.98195" lon="4.83949">
        <ele>273</ele>
        <time>2017-04-21T09:38:04Z</time>
      </trkpt>
      <trkpt lat="45.98193" lon="4.83955">
        <ele>273</ele>
        <time>2017-04-21T09:38:05Z</time>
      </trkpt>
      <trkpt lat="45.98191" lon="4.83961">
        <ele>273</ele>
        <time>2017-04-21T09:38:06Z</time>
      </trkpt>
      <trkpt lat="45.98188" lon="4.83968">
        <ele>273</ele>
        <time>2017-04-21T09:38:07Z</time>
      </trkpt>
      <trkpt lat="45.98186" lon="4.83974">
        <ele>273</ele>
        <time>2017-04-21T09:38:08Z</time>
      </trkpt>
      <trkpt lat="45.98184" lon="4.8398">
        <ele>273</ele>
        <time>2017-04-21T09:38:09Z</time>
      </trkpt>
      <trkpt lat="45.98182" lon="4.83985">
        <ele>273</ele>
        <time>2017-04-21T09:38:10Z</time>
      </trkpt>
      <trkpt lat="45.98179" lon="4.83991">
        <ele>273</ele>
        <time>2017-04-21T09:38:11Z</time>
      </trkpt>
      <trkpt lat="45.98177" lon="4.83997">
        <ele>273</ele>
        <time>2017-04-21T09:38:12Z</time>
      </trkpt>
      <trkpt lat="45.98174" lon="4.84003">
        <ele>273</ele>
        <time>2017-04-21T09:38:13Z</time>
      </trkpt>
      <trkpt lat="45.98172" lon="4.84008">
        <ele>273</ele>
        <time>2017-04-21T09:38:14Z</time>
      </trkpt>
      <trkpt lat="45.98169" lon="4.84013">
        <ele>273</ele>
        <time>2017-04-21T09:38:15Z</time>
      </trkpt>
      <trkpt lat="45.98164" lon="4.84024">
        <ele>273</ele>
        <time>2017-04-21T09:38:17Z</time>
      </trkpt>
      <trkpt lat="45.98161" lon="4.84029">
        <ele>273</ele>
        <time>2017-04-21T09:38:18Z</time>
      </trkpt>
      <trkpt lat="45.98156" lon="4.84039">
        <ele>273</ele>
        <time>2017-04-21T09:38:20Z</time>
      </trkpt>
      <trkpt lat="45.98152" lon="4.84043">
        <ele>273</ele>
        <time>2017-04-21T09:38:21Z</time>
      </trkpt>
      <trkpt lat="45.98146" lon="4.84052">
        <ele>273</ele>
        <time>2017-04-21T09:38:23Z</time>
      </trkpt>
      <trkpt lat="45.98143" lon="4.84057">
        <ele>273</ele>
        <time>2017-04-21T09:38:24Z</time>
      </trkpt>
      <trkpt lat="45.98136" lon="4.84065">
        <ele>273</ele>
        <time>2017-04-21T09:38:26Z</time>
      </trkpt>
      <trkpt lat="45.98132" lon="4.84069">
        <ele>273</ele>
        <time>2017-04-21T09:38:27Z</time>
      </trkpt>
      <trkpt lat="45.98126" lon="4.84077">
        <ele>273</ele>
        <time>2017-04-21T09:38:29Z</time>
      </trkpt>
      <trkpt lat="45.98122" lon="4.84081">
        <ele>273</ele>
        <time>2017-04-21T09:38:30Z</time>
      </trkpt>
      <trkpt lat="45.98114" lon="4.84088">
        <ele>273</ele>
        <time>2017-04-21T09:38:32Z</time>
      </trkpt>
      <trkpt lat="45.98111" lon="4.84092">
        <ele>273</ele>
        <time>2017-04-21T09:38:33Z</time>
      </trkpt>
      <trkpt lat="45.98104" lon="4.84098">
        <ele>273</ele>
        <time>2017-04-21T09:38:35Z</time>
      </trkpt>
      <trkpt lat="45.981" lon="4.84102">
        <ele>273</ele>
        <time>2017-04-21T09:38:36Z</time>
      </trkpt>
      <trkpt lat="45.98093" lon="4.8411">
        <ele>273</ele>
        <time>2017-04-21T09:38:38Z</time>
      </trkpt>
      <trkpt lat="45.98089" lon="4.84113">
        <ele>273</ele>
        <time>2017-04-21T09:38:39Z</time>
      </trkpt>
      <trkpt lat="45.98081" lon="4.84119">
        <ele>273</ele>
        <time>2017-04-21T09:38:41Z</time>
      </trkpt>
      <trkpt lat="45.98077" lon="4.84123">
        <ele>273</ele>
        <time>2017-04-21T09:38:42Z</time>
      </trkpt>
      <trkpt lat="45.98073" lon="4.84127">
        <ele>273</ele>
        <time>2017-04-21T09:38:43Z</time>
      </trkpt>
      <trkpt lat="45.9807" lon="4.8413">
        <ele>273</ele>
        <time>2017-04-21T09:38:44Z</time>
      </trkpt>
      <trkpt lat="45.98066" lon="4.84134">
        <ele>273</ele>
        <time>2017-04-21T09:38:45Z</time>
      </trkpt>
      <trkpt lat="45.98062" lon="4.84138">
        <ele>273</ele>
        <time>2017-04-21T09:38:46Z</time>
      </trkpt>
      <trkpt lat="45.98058" lon="4.84142">
        <ele>273</ele>
        <time>2017-04-21T09:38:47Z</time>
      </trkpt>
      <trkpt lat="45.98054" lon="4.84145">
        <ele>273</ele>
        <time>2017-04-21T09:38:48Z</time>
      </trkpt>
      <trkpt lat="45.9805" lon="4.84149">
        <ele>273</ele>
        <time>2017-04-21T09:38:49Z</time>
      </trkpt>
      <trkpt lat="45.98046" lon="4.84153">
        <ele>273</ele>
        <time>2017-04-21T09:38:50Z</time>
      </trkpt>
      <trkpt lat="45.98042" lon="4.84157">
        <ele>273</ele>
        <time>2017-04-21T09:38:51Z</time>
      </trkpt>
      <trkpt lat="45.98039" lon="4.84161">
        <ele>273</ele>
        <time>2017-04-21T09:38:52Z</time>
      </trkpt>
      <trkpt lat="45.98031" lon="4.84168">
        <ele>273</ele>
        <time>2017-04-21T09:38:54Z</time>
      </trkpt>
      <trkpt lat="45.98028" lon="4.84171">
        <ele>274</ele>
        <time>2017-04-21T09:38:55Z</time>
      </trkpt>
      <trkpt lat="45.9802" lon="4.84177">
        <ele>274</ele>
        <time>2017-04-21T09:38:57Z</time>
      </trkpt>
      <trkpt lat="45.98017" lon="4.84181">
        <ele>274</ele>
        <time>2017-04-21T09:38:58Z</time>
      </trkpt>
      <trkpt lat="45.98013" lon="4.84186">
        <ele>274</ele>
        <time>2017-04-21T09:38:59Z</time>
      </trkpt>
      <trkpt lat="45.98008" lon="4.84189">
        <ele>274</ele>
        <time>2017-04-21T09:39:00Z</time>
      </trkpt>
      <trkpt lat="45.98004" lon="4.84193">
        <ele>274</ele>
        <time>2017-04-21T09:39:01Z</time>
      </trkpt>
      <trkpt lat="45.97999" lon="4.84197">
        <ele>274</ele>
        <time>2017-04-21T09:39:02Z</time>
      </trkpt>
      <trkpt lat="45.97995" lon="4.842">
        <ele>274</ele>
        <time>2017-04-21T09:39:03Z</time>
      </trkpt>
      <trkpt lat="45.97991" lon="4.84204">
        <ele>274</ele>
        <time>2017-04-21T09:39:04Z</time>
      </trkpt>
      <trkpt lat="45.97987" lon="4.84207">
        <ele>274</ele>
        <time>2017-04-21T09:39:05Z</time>
      </trkpt>
      <trkpt lat="45.97983" lon="4.84211">
        <ele>274</ele>
        <time>2017-04-21T09:39:06Z</time>
      </trkpt>
      <trkpt lat="45.97976" lon="4.84219">
        <ele>274</ele>
        <time>2017-04-21T09:39:08Z</time>
      </trkpt>
      <trkpt lat="45.97972" lon="4.84222">
        <ele>274</ele>
        <time>2017-04-21T09:39:09Z</time>
      </trkpt>
      <trkpt lat="45.97965" lon="4.84229">
        <ele>274</ele>
        <time>2017-04-21T09:39:11Z</time>
      </trkpt>
      <trkpt lat="45.97961" lon="4.84232">
        <ele>274</ele>
        <time>2017-04-21T09:39:12Z</time>
      </trkpt>
      <trkpt lat="45.97954" lon="4.84239">
        <ele>275</ele>
        <time>2017-04-21T09:39:14Z</time>
      </trkpt>
      <trkpt lat="45.9795" lon="4.84242">
        <ele>275</ele>
        <time>2017-04-21T09:39:15Z</time>
      </trkpt>
      <trkpt lat="45.97943" lon="4.84249">
        <ele>275</ele>
        <time>2017-04-21T09:39:17Z</time>
      </trkpt>
      <trkpt lat="45.9794" lon="4.84253">
        <ele>275</ele>
        <time>2017-04-21T09:39:18Z</time>
      </trkpt>
      <trkpt lat="45.97932" lon="4.8426">
        <ele>275</ele>
        <time>2017-04-21T09:39:20Z</time>
      </trkpt>
      <trkpt lat="45.97929" lon="4.84265">
        <ele>275</ele>
        <time>2017-04-21T09:39:21Z</time>
      </trkpt>
      <trkpt lat="45.97927" lon="4.8427">
        <ele>275</ele>
        <time>2017-04-21T09:39:22Z</time>
      </trkpt>
      <trkpt lat="45.97925" lon="4.84276">
        <ele>275</ele>
        <time>2017-04-21T09:39:23Z</time>
      </trkpt>
      <trkpt lat="45.97924" lon="4.84283">
        <ele>275</ele>
        <time>2017-04-21T09:39:24Z</time>
      </trkpt>
      <trkpt lat="45.97924" lon="4.8429">
        <ele>275</ele>
        <time>2017-04-21T09:39:25Z</time>
      </trkpt>
      <trkpt lat="45.97924" lon="4.84297">
        <ele>275</ele>
        <time>2017-04-21T09:39:26Z</time>
      </trkpt>
      <trkpt lat="45.97925" lon="4.84304">
        <ele>275</ele>
        <time>2017-04-21T09:39:27Z</time>
      </trkpt>
      <trkpt lat="45.97927" lon="4.84316">
        <ele>275</ele>
        <time>2017-04-21T09:39:29Z</time>
      </trkpt>
      <trkpt lat="45.97928" lon="4.84322">
        <ele>275</ele>
        <time>2017-04-21T09:39:30Z</time>
      </trkpt>
      <trkpt lat="45.97929" lon="4.84329">
        <ele>275</ele>
        <time>2017-04-21T09:39:31Z</time>
      </trkpt>
      <trkpt lat="45.9793" lon="4.84336">
        <ele>275</ele>
        <time>2017-04-21T09:39:32Z</time>
      </trkpt>
      <trkpt lat="45.97931" lon="4.84343">
        <ele>275</ele>
        <time>2017-04-21T09:39:33Z</time>
      </trkpt>
      <trkpt lat="45.97933" lon="4.84351">
        <ele>275</ele>
        <time>2017-04-21T09:39:34Z</time>
      </trkpt>
      <trkpt lat="45.97934" lon="4.84359">
        <ele>275</ele>
        <time>2017-04-21T09:39:35Z</time>
      </trkpt>
      <trkpt lat="45.97935" lon="4.84366">
        <ele>275</ele>
        <time>2017-04-21T09:39:36Z</time>
      </trkpt>
      <trkpt lat="45.97936" lon="4.84373">
        <ele>275</ele>
        <time>2017-04-21T09:39:37Z</time>
      </trkpt>
      <trkpt lat="45.97938" lon="4.84379">
        <ele>275</ele>
        <time>2017-04-21T09:39:38Z</time>
      </trkpt>
      <trkpt lat="45.97939" lon="4.84386">
        <ele>275</ele>
        <time>2017-04-21T09:39:39Z</time>
      </trkpt>
      <trkpt lat="45.9794" lon="4.84392">
        <ele>275</ele>
        <time>2017-04-21T09:39:40Z</time>
      </trkpt>
      <trkpt lat="45.97941" lon="4.84399">
        <ele>275</ele>
        <time>2017-04-21T09:39:41Z</time>
      </trkpt>
      <trkpt lat="45.97942" lon="4.84405">
        <ele>275</ele>
        <time>2017-04-21T09:39:42Z</time>
      </trkpt>
      <trkpt lat="45.97943" lon="4.84412">
        <ele>275</ele>
        <time>2017-04-21T09:39:43Z</time>
      </trkpt>
      <trkpt lat="45.97944" lon="4.84419">
        <ele>275</ele>
        <time>2017-04-21T09:39:44Z</time>
      </trkpt>
      <trkpt lat="45.97945" lon="4.84426">
        <ele>275</ele>
        <time>2017-04-21T09:39:45Z</time>
      </trkpt>
      <trkpt lat="45.97947" lon="4.84432">
        <ele>275</ele>
        <time>2017-04-21T09:39:46Z</time>
      </trkpt>
      <trkpt lat="45.97948" lon="4.84439">
        <ele>275</ele>
        <time>2017-04-21T09:39:47Z</time>
      </trkpt>
      <trkpt lat="45.97949" lon="4.84446">
        <ele>275</ele>
        <time>2017-04-21T09:39:48Z</time>
      </trkpt>
      <trkpt lat="45.9795" lon="4.84453">
        <ele>275</ele>
        <time>2017-04-21T09:39:49Z</time>
      </trkpt>
      <trkpt lat="45.97952" lon="4.8446">
        <ele>275</ele>
        <time>2017-04-21T09:39:50Z</time>
      </trkpt>
      <trkpt lat="45.97953" lon="4.84466">
        <ele>275</ele>
        <time>2017-04-21T09:39:51Z</time>
      </trkpt>
      <trkpt lat="45.97955" lon="4.84473">
        <ele>275</ele>
        <time>2017-04-21T09:39:52Z</time>
      </trkpt>
      <trkpt lat="45.97956" lon="4.84485">
        <ele>275</ele>
        <time>2017-04-21T09:39:54Z</time>
      </trkpt>
      <trkpt lat="45.97957" lon="4.84492">
        <ele>275</ele>
        <time>2017-04-21T09:39:55Z</time>
      </trkpt>
      <trkpt lat="45.97958" lon="4.84498">
        <ele>275</ele>
        <time>2017-04-21T09:39:56Z</time>
      </trkpt>
      <trkpt lat="45.97959" lon="4.84505">
        <ele>275</ele>
        <time>2017-04-21T09:39:57Z</time>
      </trkpt>
      <trkpt lat="45.9796" lon="4.84511">
        <ele>275</ele>
        <time>2017-04-21T09:39:58Z</time>
      </trkpt>
      <trkpt lat="45.97961" lon="4.84518">
        <ele>275</ele>
        <time>2017-04-21T09:39:59Z</time>
      </trkpt>
      <trkpt lat="45.97962" lon="4.84525">
        <ele>275</ele>
        <time>2017-04-21T09:40:00Z</time>
      </trkpt>
      <trkpt lat="45.97963" lon="4.84533">
        <ele>275</ele>
        <time>2017-04-21T09:40:01Z</time>
      </trkpt>
      <trkpt lat="45.97964" lon="4.8454">
        <ele>275</ele>
        <time>2017-04-21T09:40:02Z</time>
      </trkpt>
      <trkpt lat="45.97966" lon="4.84548">
        <ele>275</ele>
        <time>2017-04-21T09:40:03Z</time>
      </trkpt>
      <trkpt lat="45.97967" lon="4.84556">
        <ele>275</ele>
        <time>2017-04-21T09:40:04Z</time>
      </trkpt>
      <trkpt lat="45.97968" lon="4.84563">
        <ele>275</ele>
        <time>2017-04-21T09:40:05Z</time>
      </trkpt>
      <trkpt lat="45.97969" lon="4.84571">
        <ele>275</ele>
        <time>2017-04-21T09:40:06Z</time>
      </trkpt>
      <trkpt lat="45.9797" lon="4.84578">
        <ele>275</ele>
        <time>2017-04-21T09:40:07Z</time>
      </trkpt>
      <trkpt lat="45.97972" lon="4.84585">
        <ele>275</ele>
        <time>2017-04-21T09:40:08Z</time>
      </trkpt>
      <trkpt lat="45.97973" lon="4.84592">
        <ele>275</ele>
        <time>2017-04-21T09:40:09Z</time>
      </trkpt>
      <trkpt lat="45.97974" lon="4.84599">
        <ele>275</ele>
        <time>2017-04-21T09:40:10Z</time>
      </trkpt>
      <trkpt lat="45.97975" lon="4.84606">
        <ele>275</ele>
        <time>2017-04-21T09:40:11Z</time>
      </trkpt>
      <trkpt lat="45.97976" lon="4.84612">
        <ele>275</ele>
        <time>2017-04-21T09:40:12Z</time>
      </trkpt>
      <trkpt lat="45.97977" lon="4.84619">
        <ele>275</ele>
        <time>2017-04-21T09:40:13Z</time>
      </trkpt>
      <trkpt lat="45.97978" lon="4.84626">
        <ele>275</ele>
        <time>2017-04-21T09:40:14Z</time>
      </trkpt>
      <trkpt lat="45.97979" lon="4.84632">
        <ele>275</ele>
        <time>2017-04-21T09:40:15Z</time>
      </trkpt>
      <trkpt lat="45.9798" lon="4.84639">
        <ele>275</ele>
        <time>2017-04-21T09:40:16Z</time>
      </trkpt>
      <trkpt lat="45.97981" lon="4.84646">
        <ele>275</ele>
        <time>2017-04-21T09:40:17Z</time>
      </trkpt>
      <trkpt lat="45.97982" lon="4.84652">
        <ele>274</ele>
        <time>2017-04-21T09:40:18Z</time>
      </trkpt>
      <trkpt lat="45.97983" lon="4.84659">
        <ele>274</ele>
        <time>2017-04-21T09:40:19Z</time>
      </trkpt>
      <trkpt lat="45.97984" lon="4.84666">
        <ele>274</ele>
        <time>2017-04-21T09:40:20Z</time>
      </trkpt>
      <trkpt lat="45.97985" lon="4.84673">
        <ele>275</ele>
        <time>2017-04-21T09:40:21Z</time>
      </trkpt>
      <trkpt lat="45.97986" lon="4.84685">
        <ele>275</ele>
        <time>2017-04-21T09:40:23Z</time>
      </trkpt>
      <trkpt lat="45.97987" lon="4.84691">
        <ele>275</ele>
        <time>2017-04-21T09:40:24Z</time>
      </trkpt>
      <trkpt lat="45.97988" lon="4.84702">
        <ele>275</ele>
        <time>2017-04-21T09:40:26Z</time>
      </trkpt>
      <trkpt lat="45.97988" lon="4.84708">
        <ele>275</ele>
        <time>2017-04-21T09:40:27Z</time>
      </trkpt>
      <trkpt lat="45.97989" lon="4.8472">
        <ele>275</ele>
        <time>2017-04-21T09:40:29Z</time>
      </trkpt>
      <trkpt lat="45.9799" lon="4.84726">
        <ele>275</ele>
        <time>2017-04-21T09:40:30Z</time>
      </trkpt>
      <trkpt lat="45.9799" lon="4.84737">
        <ele>275</ele>
        <time>2017-04-21T09:40:32Z</time>
      </trkpt>
      <trkpt lat="45.97991" lon="4.84742">
        <ele>275</ele>
        <time>2017-04-21T09:40:33Z</time>
      </trkpt>
      <trkpt lat="45.97991" lon="4.84754">
        <ele>275</ele>
        <time>2017-04-21T09:40:35Z</time>
      </trkpt>
      <trkpt lat="45.97991" lon="4.84759">
        <ele>275</ele>
        <time>2017-04-21T09:40:36Z</time>
      </trkpt>
      <trkpt lat="45.97993" lon="4.84772">
        <ele>274</ele>
        <time>2017-04-21T09:40:38Z</time>
      </trkpt>
      <trkpt lat="45.97993" lon="4.84779">
        <ele>274</ele>
        <time>2017-04-21T09:40:39Z</time>
      </trkpt>
      <trkpt lat="45.97994" lon="4.84786">
        <ele>274</ele>
        <time>2017-04-21T09:40:40Z</time>
      </trkpt>
      <trkpt lat="45.97994" lon="4.84793">
        <ele>274</ele>
        <time>2017-04-21T09:40:41Z</time>
      </trkpt>
      <trkpt lat="45.97995" lon="4.848">
        <ele>274</ele>
        <time>2017-04-21T09:40:42Z</time>
      </trkpt>
      <trkpt lat="45.97995" lon="4.84806">
        <ele>274</ele>
        <time>2017-04-21T09:40:43Z</time>
      </trkpt>
      <trkpt lat="45.97995" lon="4.84812">
        <ele>273</ele>
        <time>2017-04-21T09:40:44Z</time>
      </trkpt>
      <trkpt lat="45.97995" lon="4.84819">
        <ele>273</ele>
        <time>2017-04-21T09:40:45Z</time>
      </trkpt>
      <trkpt lat="45.97996" lon="4.84826">
        <ele>273</ele>
        <time>2017-04-21T09:40:46Z</time>
      </trkpt>
      <trkpt lat="45.97996" lon="4.84834">
        <ele>272</ele>
        <time>2017-04-21T09:40:47Z</time>
      </trkpt>
      <trkpt lat="45.97997" lon="4.8484">
        <ele>272</ele>
        <time>2017-04-21T09:40:48Z</time>
      </trkpt>
      <trkpt lat="45.97997" lon="4.84847">
        <ele>272</ele>
        <time>2017-04-21T09:40:49Z</time>
      </trkpt>
      <trkpt lat="45.97999" lon="4.84854">
        <ele>272</ele>
        <time>2017-04-21T09:40:50Z</time>
      </trkpt>
      <trkpt lat="45.97999" lon="4.8486">
        <ele>272</ele>
        <time>2017-04-21T09:40:51Z</time>
      </trkpt>
      <trkpt lat="45.98" lon="4.84866">
        <ele>272</ele>
        <time>2017-04-21T09:40:52Z</time>
      </trkpt>
      <trkpt lat="45.98002" lon="4.84873">
        <ele>272</ele>
        <time>2017-04-21T09:40:53Z</time>
      </trkpt>
      <trkpt lat="45.98003" lon="4.8488">
        <ele>272</ele>
        <time>2017-04-21T09:40:54Z</time>
      </trkpt>
      <trkpt lat="45.98004" lon="4.84886">
        <ele>272</ele>
        <time>2017-04-21T09:40:55Z</time>
      </trkpt>
      <trkpt lat="45.98004" lon="4.84893">
        <ele>272</ele>
        <time>2017-04-21T09:40:56Z</time>
      </trkpt>
      <trkpt lat="45.98005" lon="4.84901">
        <ele>272</ele>
        <time>2017-04-21T09:40:57Z</time>
      </trkpt>
      <trkpt lat="45.98006" lon="4.84908">
        <ele>272</ele>
        <time>2017-04-21T09:40:58Z</time>
      </trkpt>
      <trkpt lat="45.98007" lon="4.84917">
        <ele>272</ele>
        <time>2017-04-21T09:40:59Z</time>
      </trkpt>
      <trkpt lat="45.98007" lon="4.84925">
        <ele>272</ele>
        <time>2017-04-21T09:41:00Z</time>
      </trkpt>
      <trkpt lat="45.98008" lon="4.84934">
        <ele>272</ele>
        <time>2017-04-21T09:41:01Z</time>
      </trkpt>
      <trkpt lat="45.98009" lon="4.84943">
        <ele>272</ele>
        <time>2017-04-21T09:41:02Z</time>
      </trkpt>
      <trkpt lat="45.9801" lon="4.84951">
        <ele>272</ele>
        <time>2017-04-21T09:41:03Z</time>
      </trkpt>
      <trkpt lat="45.9801" lon="4.84959">
        <ele>272</ele>
        <time>2017-04-21T09:41:04Z</time>
      </trkpt>
      <trkpt lat="45.98011" lon="4.84967">
        <ele>272</ele>
        <time>2017-04-21T09:41:05Z</time>
      </trkpt>
      <trkpt lat="45.98012" lon="4.84975">
        <ele>272</ele>
        <time>2017-04-21T09:41:06Z</time>
      </trkpt>
      <trkpt lat="45.98013" lon="4.84982">
        <ele>272</ele>
        <time>2017-04-21T09:41:07Z</time>
      </trkpt>
      <trkpt lat="45.98014" lon="4.8499">
        <ele>272</ele>
        <time>2017-04-21T09:41:08Z</time>
      </trkpt>
      <trkpt lat="45.98014" lon="4.84996">
        <ele>272</ele>
        <time>2017-04-21T09:41:09Z</time>
      </trkpt>
      <trkpt lat="45.98015" lon="4.85003">
        <ele>272</ele>
        <time>2017-04-21T09:41:10Z</time>
      </trkpt>
      <trkpt lat="45.98016" lon="4.8501">
        <ele>272</ele>
        <time>2017-04-21T09:41:11Z</time>
      </trkpt>
      <trkpt lat="45.98016" lon="4.85017">
        <ele>273</ele>
        <time>2017-04-21T09:41:12Z</time>
      </trkpt>
      <trkpt lat="45.98016" lon="4.85024">
        <ele>273</ele>
        <time>2017-04-21T09:41:13Z</time>
      </trkpt>
      <trkpt lat="45.98017" lon="4.85031">
        <ele>273</ele>
        <time>2017-04-21T09:41:14Z</time>
      </trkpt>
      <trkpt lat="45.98017" lon="4.85038">
        <ele>273</ele>
        <time>2017-04-21T09:41:15Z</time>
      </trkpt>
      <trkpt lat="45.98018" lon="4.85045">
        <ele>273</ele>
        <time>2017-04-21T09:41:16Z</time>
      </trkpt>
      <trkpt lat="45.98018" lon="4.85052">
        <ele>273</ele>
        <time>2017-04-21T09:41:17Z</time>
      </trkpt>
      <trkpt lat="45.98018" lon="4.85059">
        <ele>273</ele>
        <time>2017-04-21T09:41:18Z</time>
      </trkpt>
      <trkpt lat="45.98018" lon="4.85067">
        <ele>273</ele>
        <time>2017-04-21T09:41:19Z</time>
      </trkpt>
      <trkpt lat="45.98018" lon="4.85075">
        <ele>273</ele>
        <time>2017-04-21T09:41:20Z</time>
      </trkpt>
      <trkpt lat="45.98019" lon="4.85083">
        <ele>273</ele>
        <time>2017-04-21T09:41:21Z</time>
      </trkpt>
      <trkpt lat="45.9802" lon="4.85091">
        <ele>274</ele>
        <time>2017-04-21T09:41:22Z</time>
      </trkpt>
      <trkpt lat="45.9802" lon="4.85099">
        <ele>274</ele>
        <time>2017-04-21T09:41:23Z</time>
      </trkpt>
      <trkpt lat="45.98021" lon="4.85106">
        <ele>274</ele>
        <time>2017-04-21T09:41:24Z</time>
      </trkpt>
      <trkpt lat="45.98023" lon="4.85112">
        <ele>274</ele>
        <time>2017-04-21T09:41:25Z</time>
      </trkpt>
      <trkpt lat="45.98024" lon="4.85118">
        <ele>274</ele>
        <time>2017-04-21T09:41:26Z</time>
      </trkpt>
      <trkpt lat="45.98026" lon="4.85124">
        <ele>274</ele>
        <time>2017-04-21T09:41:27Z</time>
      </trkpt>
      <trkpt lat="45.98028" lon="4.8513">
        <ele>274</ele>
        <time>2017-04-21T09:41:28Z</time>
      </trkpt>
      <trkpt lat="45.98029" lon="4.85136">
        <ele>275</ele>
        <time>2017-04-21T09:41:29Z</time>
      </trkpt>
      <trkpt lat="45.98033" lon="4.85148">
        <ele>275</ele>
        <time>2017-04-21T09:41:31Z</time>
      </trkpt>
      <trkpt lat="45.98034" lon="4.85153">
        <ele>275</ele>
        <time>2017-04-21T09:41:32Z</time>
      </trkpt>
      <trkpt lat="45.98038" lon="4.85164">
        <ele>275</ele>
        <time>2017-04-21T09:41:34Z</time>
      </trkpt>
      <trkpt lat="45.98039" lon="4.85168">
        <ele>275</ele>
        <time>2017-04-21T09:41:35Z</time>
      </trkpt>
      <trkpt lat="45.98042" lon="4.85177">
        <ele>276</ele>
        <time>2017-04-21T09:41:37Z</time>
      </trkpt>
      <trkpt lat="45.98043" lon="4.85181">
        <ele>276</ele>
        <time>2017-04-21T09:41:38Z</time>
      </trkpt>
      <trkpt lat="45.98045" lon="4.85189">
        <ele>276</ele>
        <time>2017-04-21T09:41:40Z</time>
      </trkpt>
      <trkpt lat="45.98047" lon="4.85194">
        <ele>276</ele>
        <time>2017-04-21T09:41:41Z</time>
      </trkpt>
      <trkpt lat="45.98049" lon="4.85202">
        <ele>276</ele>
        <time>2017-04-21T09:41:43Z</time>
      </trkpt>
      <trkpt lat="45.98051" lon="4.85207">
        <ele>276</ele>
        <time>2017-04-21T09:41:44Z</time>
      </trkpt>
      <trkpt lat="45.98054" lon="4.85218">
        <ele>276</ele>
        <time>2017-04-21T09:41:46Z</time>
      </trkpt>
      <trkpt lat="45.98056" lon="4.85223">
        <ele>276</ele>
        <time>2017-04-21T09:41:47Z</time>
      </trkpt>
      <trkpt lat="45.98058" lon="4.85229">
        <ele>276</ele>
        <time>2017-04-21T09:41:48Z</time>
      </trkpt>
      <trkpt lat="45.98061" lon="4.85235">
        <ele>276</ele>
        <time>2017-04-21T09:41:49Z</time>
      </trkpt>
      <trkpt lat="45.98064" lon="4.85241">
        <ele>276</ele>
        <time>2017-04-21T09:41:50Z</time>
      </trkpt>
      <trkpt lat="45.98067" lon="4.85247">
        <ele>276</ele>
        <time>2017-04-21T09:41:51Z</time>
      </trkpt>
      <trkpt lat="45.9807" lon="4.85253">
        <ele>276</ele>
        <time>2017-04-21T09:41:52Z</time>
      </trkpt>
      <trkpt lat="45.98073" lon="4.85258">
        <ele>276</ele>
        <time>2017-04-21T09:41:53Z</time>
      </trkpt>
      <trkpt lat="45.98076" lon="4.85264">
        <ele>276</ele>
        <time>2017-04-21T09:41:54Z</time>
      </trkpt>
      <trkpt lat="45.98079" lon="4.85271">
        <ele>276</ele>
        <time>2017-04-21T09:41:55Z</time>
      </trkpt>
      <trkpt lat="45.98083" lon="4.85277">
        <ele>276</ele>
        <time>2017-04-21T09:41:56Z</time>
      </trkpt>
      <trkpt lat="45.98086" lon="4.85283">
        <ele>276</ele>
        <time>2017-04-21T09:41:57Z</time>
      </trkpt>
      <trkpt lat="45.98089" lon="4.85289">
        <ele>276</ele>
        <time>2017-04-21T09:41:58Z</time>
      </trkpt>
      <trkpt lat="45.98092" lon="4.85295">
        <ele>276</ele>
        <time>2017-04-21T09:41:59Z</time>
      </trkpt>
      <trkpt lat="45.98095" lon="4.85301">
        <ele>276</ele>
        <time>2017-04-21T09:42:00Z</time>
      </trkpt>
      <trkpt lat="45.98098" lon="4.85308">
        <ele>276</ele>
        <time>2017-04-21T09:42:01Z</time>
      </trkpt>
      <trkpt lat="45.98101" lon="4.85314">
        <ele>276</ele>
        <time>2017-04-21T09:42:02Z</time>
      </trkpt>
      <trkpt lat="45.98103" lon="4.8532">
        <ele>276</ele>
        <time>2017-04-21T09:42:03Z</time>
      </trkpt>
      <trkpt lat="45.98105" lon="4.85326">
        <ele>276</ele>
        <time>2017-04-21T09:42:04Z</time>
      </trkpt>
      <trkpt lat="45.98108" lon="4.85333">
        <ele>276</ele>
        <time>2017-04-21T09:42:05Z</time>
      </trkpt>
      <trkpt lat="45.98111" lon="4.8534">
        <ele>276</ele>
        <time>2017-04-21T09:42:06Z</time>
      </trkpt>
      <trkpt lat="45.98114" lon="4.85346">
        <ele>276</ele>
        <time>2017-04-21T09:42:07Z</time>
      </trkpt>
      <trkpt lat="45.98117" lon="4.85353">
        <ele>276</ele>
        <time>2017-04-21T09:42:08Z</time>
      </trkpt>
      <trkpt lat="45.98119" lon="4.8536">
        <ele>276</ele>
        <time>2017-04-21T09:42:09Z</time>
      </trkpt>
      <trkpt lat="45.98122" lon="4.85367">
        <ele>276</ele>
        <time>2017-04-21T09:42:10Z</time>
      </trkpt>
      <trkpt lat="45.98124" lon="4.85373">
        <ele>276</ele>
        <time>2017-04-21T09:42:11Z</time>
      </trkpt>
      <trkpt lat="45.98127" lon="4.8538">
        <ele>276</ele>
        <time>2017-04-21T09:42:12Z</time>
      </trkpt>
      <trkpt lat="45.9813" lon="4.85387">
        <ele>276</ele>
        <time>2017-04-21T09:42:13Z</time>
      </trkpt>
      <trkpt lat="45.98133" lon="4.85394">
        <ele>276</ele>
        <time>2017-04-21T09:42:14Z</time>
      </trkpt>
      <trkpt lat="45.98135" lon="4.85402">
        <ele>276</ele>
        <time>2017-04-21T09:42:15Z</time>
      </trkpt>
      <trkpt lat="45.98138" lon="4.85409">
        <ele>276</ele>
        <time>2017-04-21T09:42:16Z</time>
      </trkpt>
      <trkpt lat="45.98141" lon="4.85416">
        <ele>276</ele>
        <time>2017-04-21T09:42:17Z</time>
      </trkpt>
      <trkpt lat="45.98143" lon="4.85423">
        <ele>276</ele>
        <time>2017-04-21T09:42:18Z</time>
      </trkpt>
      <trkpt lat="45.98146" lon="4.85429">
        <ele>276</ele>
        <time>2017-04-21T09:42:19Z</time>
      </trkpt>
      <trkpt lat="45.98148" lon="4.85436">
        <ele>276</ele>
        <time>2017-04-21T09:42:20Z</time>
      </trkpt>
      <trkpt lat="45.9815" lon="4.85442">
        <ele>276</ele>
        <time>2017-04-21T09:42:21Z</time>
      </trkpt>
      <trkpt lat="45.98153" lon="4.85449">
        <ele>276</ele>
        <time>2017-04-21T09:42:22Z</time>
      </trkpt>
      <trkpt lat="45.98155" lon="4.85455">
        <ele>276</ele>
        <time>2017-04-21T09:42:23Z</time>
      </trkpt>
      <trkpt lat="45.98158" lon="4.85461">
        <ele>275</ele>
        <time>2017-04-21T09:42:24Z</time>
      </trkpt>
      <trkpt lat="45.9816" lon="4.85467">
        <ele>275</ele>
        <time>2017-04-21T09:42:25Z</time>
      </trkpt>
      <trkpt lat="45.98163" lon="4.85473">
        <ele>275</ele>
        <time>2017-04-21T09:42:26Z</time>
      </trkpt>
      <trkpt lat="45.98165" lon="4.85479">
        <ele>275</ele>
        <time>2017-04-21T09:42:27Z</time>
      </trkpt>
      <trkpt lat="45.98168" lon="4.85485">
        <ele>275</ele>
        <time>2017-04-21T09:42:28Z</time>
      </trkpt>
      <trkpt lat="45.98171" lon="4.85492">
        <ele>275</ele>
        <time>2017-04-21T09:42:29Z</time>
      </trkpt>
      <trkpt lat="45.98175" lon="4.85499">
        <ele>275</ele>
        <time>2017-04-21T09:42:30Z</time>
      </trkpt>
      <trkpt lat="45.98177" lon="4.85506">
        <ele>275</ele>
        <time>2017-04-21T09:42:31Z</time>
      </trkpt>
      <trkpt lat="45.9818" lon="4.85513">
        <ele>275</ele>
        <time>2017-04-21T09:42:32Z</time>
      </trkpt>
      <trkpt lat="45.98183" lon="4.85521">
        <ele>275</ele>
        <time>2017-04-21T09:42:33Z</time>
      </trkpt>
      <trkpt lat="45.98187" lon="4.85528">
        <ele>276</ele>
        <time>2017-04-21T09:42:34Z</time>
      </trkpt>
      <trkpt lat="45.98189" lon="4.85534">
        <ele>276</ele>
        <time>2017-04-21T09:42:35Z</time>
      </trkpt>
      <trkpt lat="45.98192" lon="4.85541">
        <ele>276</ele>
        <time>2017-04-21T09:42:36Z</time>
      </trkpt>
      <trkpt lat="45.98194" lon="4.85547">
        <ele>276</ele>
        <time>2017-04-21T09:42:37Z</time>
      </trkpt>
      <trkpt lat="45.98197" lon="4.85553">
        <ele>276</ele>
        <time>2017-04-21T09:42:38Z</time>
      </trkpt>
      <trkpt lat="45.98199" lon="4.85559">
        <ele>276</ele>
        <time>2017-04-21T09:42:39Z</time>
      </trkpt>
      <trkpt lat="45.98201" lon="4.85565">
        <ele>276</ele>
        <time>2017-04-21T09:42:40Z</time>
      </trkpt>
      <trkpt lat="45.98204" lon="4.85571">
        <ele>276</ele>
        <time>2017-04-21T09:42:41Z</time>
      </trkpt>
      <trkpt lat="45.98208" lon="4.85582">
        <ele>276</ele>
        <time>2017-04-21T09:42:43Z</time>
      </trkpt>
      <trkpt lat="45.9821" lon="4.85588">
        <ele>277</ele>
        <time>2017-04-21T09:42:44Z</time>
      </trkpt>
      <trkpt lat="45.98212" lon="4.85594">
        <ele>277</ele>
        <time>2017-04-21T09:42:45Z</time>
      </trkpt>
      <trkpt lat="45.98215" lon="4.85599">
        <ele>277</ele>
        <time>2017-04-21T09:42:46Z</time>
      </trkpt>
      <trkpt lat="45.98217" lon="4.85605">
        <ele>277</ele>
        <time>2017-04-21T09:42:47Z</time>
      </trkpt>
      <trkpt lat="45.98219" lon="4.85611">
        <ele>277</ele>
        <time>2017-04-21T09:42:48Z</time>
      </trkpt>
      <trkpt lat="45.98221" lon="4.85617">
        <ele>277</ele>
        <time>2017-04-21T09:42:49Z</time>
      </trkpt>
      <trkpt lat="45.98223" lon="4.85623">
        <ele>277</ele>
        <time>2017-04-21T09:42:50Z</time>
      </trkpt>
      <trkpt lat="45.98225" lon="4.85629">
        <ele>277</ele>
        <time>2017-04-21T09:42:51Z</time>
      </trkpt>
      <trkpt lat="45.98228" lon="4.85635">
        <ele>277</ele>
        <time>2017-04-21T09:42:52Z</time>
      </trkpt>
      <trkpt lat="45.9823" lon="4.8564">
        <ele>277</ele>
        <time>2017-04-21T09:42:53Z</time>
      </trkpt>
      <trkpt lat="45.98233" lon="4.85646">
        <ele>277</ele>
        <time>2017-04-21T09:42:54Z</time>
      </trkpt>
      <trkpt lat="45.98235" lon="4.85652">
        <ele>276</ele>
        <time>2017-04-21T09:42:55Z</time>
      </trkpt>
      <trkpt lat="45.98238" lon="4.85658">
        <ele>276</ele>
        <time>2017-04-21T09:42:56Z</time>
      </trkpt>
      <trkpt lat="45.9824" lon="4.85665">
        <ele>276</ele>
        <time>2017-04-21T09:42:57Z</time>
      </trkpt>
      <trkpt lat="45.98242" lon="4.85671">
        <ele>276</ele>
        <time>2017-04-21T09:42:58Z</time>
      </trkpt>
      <trkpt lat="45.98245" lon="4.85677">
        <ele>276</ele>
        <time>2017-04-21T09:42:59Z</time>
      </trkpt>
      <trkpt lat="45.98248" lon="4.85683">
        <ele>276</ele>
        <time>2017-04-21T09:43:00Z</time>
      </trkpt>
      <trkpt lat="45.9825" lon="4.85688">
        <ele>276</ele>
        <time>2017-04-21T09:43:01Z</time>
      </trkpt>
      <trkpt lat="45.98252" lon="4.85694">
        <ele>275</ele>
        <time>2017-04-21T09:43:02Z</time>
      </trkpt>
      <trkpt lat="45.98254" lon="4.857">
        <ele>275</ele>
        <time>2017-04-21T09:43:03Z</time>
      </trkpt>
      <trkpt lat="45.98257" lon="4.85705">
        <ele>275</ele>
        <time>2017-04-21T09:43:04Z</time>
      </trkpt>
      <trkpt lat="45.98259" lon="4.85711">
        <ele>275</ele>
        <time>2017-04-21T09:43:05Z</time>
      </trkpt>
      <trkpt lat="45.98261" lon="4.85716">
        <ele>275</ele>
        <time>2017-04-21T09:43:06Z</time>
      </trkpt>
      <trkpt lat="45.98264" lon="4.85722">
        <ele>275</ele>
        <time>2017-04-21T09:43:07Z</time>
      </trkpt>
      <trkpt lat="45.98266" lon="4.85728">
        <ele>275</ele>
        <time>2017-04-21T09:43:08Z</time>
      </trkpt>
      <trkpt lat="45.98268" lon="4.85734">
        <ele>275</ele>
        <time>2017-04-21T09:43:09Z</time>
      </trkpt>
      <trkpt lat="45.9827" lon="4.8574">
        <ele>275</ele>
        <time>2017-04-21T09:43:10Z</time>
      </trkpt>
      <trkpt lat="45.98273" lon="4.85747">
        <ele>275</ele>
        <time>2017-04-21T09:43:11Z</time>
      </trkpt>
      <trkpt lat="45.98275" lon="4.85753">
        <ele>275</ele>
        <time>2017-04-21T09:43:12Z</time>
      </trkpt>
      <trkpt lat="45.98278" lon="4.85759">
        <ele>275</ele>
        <time>2017-04-21T09:43:13Z</time>
      </trkpt>
      <trkpt lat="45.9828" lon="4.85765">
        <ele>275</ele>
        <time>2017-04-21T09:43:14Z</time>
      </trkpt>
      <trkpt lat="45.98283" lon="4.85772">
        <ele>275</ele>
        <time>2017-04-21T09:43:15Z</time>
      </trkpt>
      <trkpt lat="45.98285" lon="4.85778">
        <ele>275</ele>
        <time>2017-04-21T09:43:16Z</time>
      </trkpt>
      <trkpt lat="45.98288" lon="4.85784">
        <ele>275</ele>
        <time>2017-04-21T09:43:17Z</time>
      </trkpt>
      <trkpt lat="45.98291" lon="4.8579">
        <ele>275</ele>
        <time>2017-04-21T09:43:18Z</time>
      </trkpt>
      <trkpt lat="45.98293" lon="4.85796">
        <ele>275</ele>
        <time>2017-04-21T09:43:19Z</time>
      </trkpt>
      <trkpt lat="45.98296" lon="4.85802">
        <ele>275</ele>
        <time>2017-04-21T09:43:20Z</time>
      </trkpt>
      <trkpt lat="45.98298" lon="4.85808">
        <ele>275</ele>
        <time>2017-04-21T09:43:21Z</time>
      </trkpt>
      <trkpt lat="45.983" lon="4.85815">
        <ele>275</ele>
        <time>2017-04-21T09:43:22Z</time>
      </trkpt>
      <trkpt lat="45.98303" lon="4.85821">
        <ele>275</ele>
        <time>2017-04-21T09:43:23Z</time>
      </trkpt>
      <trkpt lat="45.98306" lon="4.85828">
        <ele>275</ele>
        <time>2017-04-21T09:43:24Z</time>
      </trkpt>
      <trkpt lat="45.98308" lon="4.85834">
        <ele>276</ele>
        <time>2017-04-21T09:43:25Z</time>
      </trkpt>
      <trkpt lat="45.98311" lon="4.85841">
        <ele>276</ele>
        <time>2017-04-21T09:43:26Z</time>
      </trkpt>
      <trkpt lat="45.98314" lon="4.85848">
        <ele>276</ele>
        <time>2017-04-21T09:43:27Z</time>
      </trkpt>
      <trkpt lat="45.98318" lon="4.85855">
        <ele>276</ele>
        <time>2017-04-21T09:43:28Z</time>
      </trkpt>
      <trkpt lat="45.9832" lon="4.85862">
        <ele>276</ele>
        <time>2017-04-21T09:43:29Z</time>
      </trkpt>
      <trkpt lat="45.98323" lon="4.85869">
        <ele>276</ele>
        <time>2017-04-21T09:43:30Z</time>
      </trkpt>
      <trkpt lat="45.98326" lon="4.85876">
        <ele>276</ele>
        <time>2017-04-21T09:43:31Z</time>
      </trkpt>
      <trkpt lat="45.98328" lon="4.85882">
        <ele>276</ele>
        <time>2017-04-21T09:43:32Z</time>
      </trkpt>
      <trkpt lat="45.9833" lon="4.85888">
        <ele>276</ele>
        <time>2017-04-21T09:43:33Z</time>
      </trkpt>
      <trkpt lat="45.98333" lon="4.85894">
        <ele>276</ele>
        <time>2017-04-21T09:43:34Z</time>
      </trkpt>
      <trkpt lat="45.98337" lon="4.85905">
        <ele>276</ele>
        <time>2017-04-21T09:43:36Z</time>
      </trkpt>
      <trkpt lat="45.98339" lon="4.8591">
        <ele>276</ele>
        <time>2017-04-21T09:43:37Z</time>
      </trkpt>
      <trkpt lat="45.98344" lon="4.85919">
        <ele>276</ele>
        <time>2017-04-21T09:43:39Z</time>
      </trkpt>
      <trkpt lat="45.98345" lon="4.85924">
        <ele>276</ele>
        <time>2017-04-21T09:43:40Z</time>
      </trkpt>
      <trkpt lat="45.9835" lon="4.85934">
        <ele>276</ele>
        <time>2017-04-21T09:43:42Z</time>
      </trkpt>
      <trkpt lat="45.98352" lon="4.85939">
        <ele>276</ele>
        <time>2017-04-21T09:43:43Z</time>
      </trkpt>
      <trkpt lat="45.98357" lon="4.85948">
        <ele>276</ele>
        <time>2017-04-21T09:43:45Z</time>
      </trkpt>
      <trkpt lat="45.98359" lon="4.85953">
        <ele>276</ele>
        <time>2017-04-21T09:43:46Z</time>
      </trkpt>
      <trkpt lat="45.98361" lon="4.85959">
        <ele>276</ele>
        <time>2017-04-21T09:43:47Z</time>
      </trkpt>
      <trkpt lat="45.98362" lon="4.85966">
        <ele>276</ele>
        <time>2017-04-21T09:43:48Z</time>
      </trkpt>
      <trkpt lat="45.98364" lon="4.85973">
        <ele>276</ele>
        <time>2017-04-21T09:43:49Z</time>
      </trkpt>
      <trkpt lat="45.98366" lon="4.85978">
        <ele>276</ele>
        <time>2017-04-21T09:43:50Z</time>
      </trkpt>
      <trkpt lat="45.98369" lon="4.8599">
        <ele>277</ele>
        <time>2017-04-21T09:43:52Z</time>
      </trkpt>
      <trkpt lat="45.98371" lon="4.85995">
        <ele>277</ele>
        <time>2017-04-21T09:43:53Z</time>
      </trkpt>
      <trkpt lat="45.98376" lon="4.86006">
        <ele>277</ele>
        <time>2017-04-21T09:43:55Z</time>
      </trkpt>
      <trkpt lat="45.98379" lon="4.86011">
        <ele>277</ele>
        <time>2017-04-21T09:43:56Z</time>
      </trkpt>
      <trkpt lat="45.98381" lon="4.86016">
        <ele>277</ele>
        <time>2017-04-21T09:43:57Z</time>
      </trkpt>
      <trkpt lat="45.98384" lon="4.86023">
        <ele>277</ele>
        <time>2017-04-21T09:43:58Z</time>
      </trkpt>
      <trkpt lat="45.98387" lon="4.86028">
        <ele>277</ele>
        <time>2017-04-21T09:43:59Z</time>
      </trkpt>
      <trkpt lat="45.98389" lon="4.86036">
        <ele>277</ele>
        <time>2017-04-21T09:44:00Z</time>
      </trkpt>
      <trkpt lat="45.98391" lon="4.86042">
        <ele>277</ele>
        <time>2017-04-21T09:44:01Z</time>
      </trkpt>
      <trkpt lat="45.98393" lon="4.86049">
        <ele>277</ele>
        <time>2017-04-21T09:44:02Z</time>
      </trkpt>
      <trkpt lat="45.98394" lon="4.86055">
        <ele>277</ele>
        <time>2017-04-21T09:44:03Z</time>
      </trkpt>
      <trkpt lat="45.98396" lon="4.86062">
        <ele>277</ele>
        <time>2017-04-21T09:44:04Z</time>
      </trkpt>
      <trkpt lat="45.98399" lon="4.86068">
        <ele>277</ele>
        <time>2017-04-21T09:44:05Z</time>
      </trkpt>
      <trkpt lat="45.98401" lon="4.86075">
        <ele>277</ele>
        <time>2017-04-21T09:44:06Z</time>
      </trkpt>
      <trkpt lat="45.98402" lon="4.86082">
        <ele>277</ele>
        <time>2017-04-21T09:44:07Z</time>
      </trkpt>
      <trkpt lat="45.98403" lon="4.86089">
        <ele>277</ele>
        <time>2017-04-21T09:44:08Z</time>
      </trkpt>
      <trkpt lat="45.98404" lon="4.86095">
        <ele>277</ele>
        <time>2017-04-21T09:44:09Z</time>
      </trkpt>
      <trkpt lat="45.98405" lon="4.86102">
        <ele>277</ele>
        <time>2017-04-21T09:44:10Z</time>
      </trkpt>
      <trkpt lat="45.98406" lon="4.86108">
        <ele>277</ele>
        <time>2017-04-21T09:44:11Z</time>
      </trkpt>
      <trkpt lat="45.98407" lon="4.86115">
        <ele>277</ele>
        <time>2017-04-21T09:44:12Z</time>
      </trkpt>
      <trkpt lat="45.98408" lon="4.86122">
        <ele>277</ele>
        <time>2017-04-21T09:44:13Z</time>
      </trkpt>
      <trkpt lat="45.98409" lon="4.86129">
        <ele>276</ele>
        <time>2017-04-21T09:44:14Z</time>
      </trkpt>
      <trkpt lat="45.9841" lon="4.86135">
        <ele>276</ele>
        <time>2017-04-21T09:44:15Z</time>
      </trkpt>
      <trkpt lat="45.98411" lon="4.86142">
        <ele>276</ele>
        <time>2017-04-21T09:44:16Z</time>
      </trkpt>
      <trkpt lat="45.98412" lon="4.86149">
        <ele>276</ele>
        <time>2017-04-21T09:44:17Z</time>
      </trkpt>
      <trkpt lat="45.98413" lon="4.86156">
        <ele>276</ele>
        <time>2017-04-21T09:44:18Z</time>
      </trkpt>
      <trkpt lat="45.98415" lon="4.86164">
        <ele>276</ele>
        <time>2017-04-21T09:44:19Z</time>
      </trkpt>
      <trkpt lat="45.98416" lon="4.86171">
        <ele>276</ele>
        <time>2017-04-21T09:44:20Z</time>
      </trkpt>
      <trkpt lat="45.98418" lon="4.86178">
        <ele>276</ele>
        <time>2017-04-21T09:44:21Z</time>
      </trkpt>
      <trkpt lat="45.98419" lon="4.86184">
        <ele>275</ele>
        <time>2017-04-21T09:44:22Z</time>
      </trkpt>
      <trkpt lat="45.9842" lon="4.86192">
        <ele>275</ele>
        <time>2017-04-21T09:44:23Z</time>
      </trkpt>
      <trkpt lat="45.98421" lon="4.86198">
        <ele>275</ele>
        <time>2017-04-21T09:44:24Z</time>
      </trkpt>
      <trkpt lat="45.98422" lon="4.86205">
        <ele>275</ele>
        <time>2017-04-21T09:44:25Z</time>
      </trkpt>
      <trkpt lat="45.98423" lon="4.86212">
        <ele>275</ele>
        <time>2017-04-21T09:44:26Z</time>
      </trkpt>
      <trkpt lat="45.98424" lon="4.86219">
        <ele>275</ele>
        <time>2017-04-21T09:44:27Z</time>
      </trkpt>
      <trkpt lat="45.98425" lon="4.86226">
        <ele>275</ele>
        <time>2017-04-21T09:44:28Z</time>
      </trkpt>
      <trkpt lat="45.98426" lon="4.86234">
        <ele>275</ele>
        <time>2017-04-21T09:44:29Z</time>
      </trkpt>
      <trkpt lat="45.98427" lon="4.86242">
        <ele>275</ele>
        <time>2017-04-21T09:44:30Z</time>
      </trkpt>
      <trkpt lat="45.98429" lon="4.8625">
        <ele>275</ele>
        <time>2017-04-21T09:44:31Z</time>
      </trkpt>
      <trkpt lat="45.9843" lon="4.86259">
        <ele>275</ele>
        <time>2017-04-21T09:44:32Z</time>
      </trkpt>
      <trkpt lat="45.98432" lon="4.86269">
        <ele>275</ele>
        <time>2017-04-21T09:44:33Z</time>
      </trkpt>
      <trkpt lat="45.98433" lon="4.86279">
        <ele>276</ele>
        <time>2017-04-21T09:44:34Z</time>
      </trkpt>
      <trkpt lat="45.98435" lon="4.86289">
        <ele>276</ele>
        <time>2017-04-21T09:44:35Z</time>
      </trkpt>
      <trkpt lat="45.98436" lon="4.86299">
        <ele>276</ele>
        <time>2017-04-21T09:44:36Z</time>
      </trkpt>
      <trkpt lat="45.98438" lon="4.8631">
        <ele>276</ele>
        <time>2017-04-21T09:44:37Z</time>
      </trkpt>
      <trkpt lat="45.9844" lon="4.8632">
        <ele>276</ele>
        <time>2017-04-21T09:44:38Z</time>
      </trkpt>
      <trkpt lat="45.98443" lon="4.86331">
        <ele>276</ele>
        <time>2017-04-21T09:44:39Z</time>
      </trkpt>
      <trkpt lat="45.98445" lon="4.86341">
        <ele>277</ele>
        <time>2017-04-21T09:44:40Z</time>
      </trkpt>
      <trkpt lat="45.98448" lon="4.86351">
        <ele>277</ele>
        <time>2017-04-21T09:44:41Z</time>
      </trkpt>
      <trkpt lat="45.98451" lon="4.86361">
        <ele>277</ele>
        <time>2017-04-21T09:44:42Z</time>
      </trkpt>
      <trkpt lat="45.98454" lon="4.8637">
        <ele>277</ele>
        <time>2017-04-21T09:44:43Z</time>
      </trkpt>
      <trkpt lat="45.98458" lon="4.86379">
        <ele>277</ele>
        <time>2017-04-21T09:44:44Z</time>
      </trkpt>
      <trkpt lat="45.98461" lon="4.86388">
        <ele>277</ele>
        <time>2017-04-21T09:44:45Z</time>
      </trkpt>
      <trkpt lat="45.98465" lon="4.86397">
        <ele>277</ele>
        <time>2017-04-21T09:44:46Z</time>
      </trkpt>
      <trkpt lat="45.98469" lon="4.86405">
        <ele>277</ele>
        <time>2017-04-21T09:44:47Z</time>
      </trkpt>
      <trkpt lat="45.98473" lon="4.86412">
        <ele>277</ele>
        <time>2017-04-21T09:44:48Z</time>
      </trkpt>
      <trkpt lat="45.98476" lon="4.8642">
        <ele>278</ele>
        <time>2017-04-21T09:44:49Z</time>
      </trkpt>
      <trkpt lat="45.98479" lon="4.86428">
        <ele>278</ele>
        <time>2017-04-21T09:44:50Z</time>
      </trkpt>
      <trkpt lat="45.98482" lon="4.86436">
        <ele>278</ele>
        <time>2017-04-21T09:44:51Z</time>
      </trkpt>
      <trkpt lat="45.98486" lon="4.86444">
        <ele>278</ele>
        <time>2017-04-21T09:44:52Z</time>
      </trkpt>
      <trkpt lat="45.98489" lon="4.8645">
        <ele>278</ele>
        <time>2017-04-21T09:44:53Z</time>
      </trkpt>
      <trkpt lat="45.98492" lon="4.86457">
        <ele>278</ele>
        <time>2017-04-21T09:44:54Z</time>
      </trkpt>
      <trkpt lat="45.98496" lon="4.86463">
        <ele>278</ele>
        <time>2017-04-21T09:44:55Z</time>
      </trkpt>
      <trkpt lat="45.98499" lon="4.8647">
        <ele>279</ele>
        <time>2017-04-21T09:44:56Z</time>
      </trkpt>
      <trkpt lat="45.98502" lon="4.86477">
        <ele>278</ele>
        <time>2017-04-21T09:44:57Z</time>
      </trkpt>
      <trkpt lat="45.98505" lon="4.86485">
        <ele>279</ele>
        <time>2017-04-21T09:44:58Z</time>
      </trkpt>
      <trkpt lat="45.98509" lon="4.86492">
        <ele>279</ele>
        <time>2017-04-21T09:44:59Z</time>
      </trkpt>
      <trkpt lat="45.98513" lon="4.86499">
        <ele>279</ele>
        <time>2017-04-21T09:45:00Z</time>
      </trkpt>
      <trkpt lat="45.98516" lon="4.86506">
        <ele>279</ele>
        <time>2017-04-21T09:45:01Z</time>
      </trkpt>
      <trkpt lat="45.9852" lon="4.86514">
        <ele>279</ele>
        <time>2017-04-21T09:45:02Z</time>
      </trkpt>
      <trkpt lat="45.98523" lon="4.86521">
        <ele>279</ele>
        <time>2017-04-21T09:45:03Z</time>
      </trkpt>
      <trkpt lat="45.98527" lon="4.86528">
        <ele>279</ele>
        <time>2017-04-21T09:45:04Z</time>
      </trkpt>
      <trkpt lat="45.98531" lon="4.86535">
        <ele>279</ele>
        <time>2017-04-21T09:45:05Z</time>
      </trkpt>
      <trkpt lat="45.98534" lon="4.86542">
        <ele>278</ele>
        <time>2017-04-21T09:45:06Z</time>
      </trkpt>
      <trkpt lat="45.98538" lon="4.8655">
        <ele>278</ele>
        <time>2017-04-21T09:45:07Z</time>
      </trkpt>
      <trkpt lat="45.98542" lon="4.86557">
        <ele>278</ele>
        <time>2017-04-21T09:45:08Z</time>
      </trkpt>
      <trkpt lat="45.98545" lon="4.86565">
        <ele>278</ele>
        <time>2017-04-21T09:45:09Z</time>
      </trkpt>
      <trkpt lat="45.98548" lon="4.86573">
        <ele>278</ele>
        <time>2017-04-21T09:45:10Z</time>
      </trkpt>
      <trkpt lat="45.98551" lon="4.86581">
        <ele>278</ele>
        <time>2017-04-21T09:45:11Z</time>
      </trkpt>
      <trkpt lat="45.98553" lon="4.86589">
        <ele>278</ele>
        <time>2017-04-21T09:45:12Z</time>
      </trkpt>
      <trkpt lat="45.98555" lon="4.86597">
        <ele>278</ele>
        <time>2017-04-21T09:45:13Z</time>
      </trkpt>
      <trkpt lat="45.98556" lon="4.86605">
        <ele>278</ele>
        <time>2017-04-21T09:45:14Z</time>
      </trkpt>
      <trkpt lat="45.98558" lon="4.86613">
        <ele>278</ele>
        <time>2017-04-21T09:45:15Z</time>
      </trkpt>
      <trkpt lat="45.98559" lon="4.86622">
        <ele>278</ele>
        <time>2017-04-21T09:45:16Z</time>
      </trkpt>
      <trkpt lat="45.98561" lon="4.8663">
        <ele>278</ele>
        <time>2017-04-21T09:45:17Z</time>
      </trkpt>
      <trkpt lat="45.98562" lon="4.86639">
        <ele>277</ele>
        <time>2017-04-21T09:45:18Z</time>
      </trkpt>
      <trkpt lat="45.98563" lon="4.86648">
        <ele>277</ele>
        <time>2017-04-21T09:45:19Z</time>
      </trkpt>
      <trkpt lat="45.98564" lon="4.86656">
        <ele>277</ele>
        <time>2017-04-21T09:45:20Z</time>
      </trkpt>
      <trkpt lat="45.98565" lon="4.86663">
        <ele>277</ele>
        <time>2017-04-21T09:45:21Z</time>
      </trkpt>
      <trkpt lat="45.98566" lon="4.86672">
        <ele>276</ele>
        <time>2017-04-21T09:45:22Z</time>
      </trkpt>
      <trkpt lat="45.98567" lon="4.86679">
        <ele>276</ele>
        <time>2017-04-21T09:45:23Z</time>
      </trkpt>
      <trkpt lat="45.98568" lon="4.86687">
        <ele>277</ele>
        <time>2017-04-21T09:45:24Z</time>
      </trkpt>
      <trkpt lat="45.98569" lon="4.86694">
        <ele>277</ele>
        <time>2017-04-21T09:45:25Z</time>
      </trkpt>
      <trkpt lat="45.98569" lon="4.867">
        <ele>277</ele>
        <time>2017-04-21T09:45:26Z</time>
      </trkpt>
      <trkpt lat="45.9857" lon="4.86707">
        <ele>277</ele>
        <time>2017-04-21T09:45:27Z</time>
      </trkpt>
      <trkpt lat="45.98571" lon="4.86714">
        <ele>277</ele>
        <time>2017-04-21T09:45:28Z</time>
      </trkpt>
      <trkpt lat="45.98572" lon="4.8672">
        <ele>277</ele>
        <time>2017-04-21T09:45:29Z</time>
      </trkpt>
      <trkpt lat="45.98573" lon="4.86726">
        <ele>277</ele>
        <time>2017-04-21T09:45:30Z</time>
      </trkpt>
      <trkpt lat="45.98575" lon="4.86738">
        <ele>277</ele>
        <time>2017-04-21T09:45:32Z</time>
      </trkpt>
      <trkpt lat="45.98576" lon="4.86744">
        <ele>276</ele>
        <time>2017-04-21T09:45:33Z</time>
      </trkpt>
      <trkpt lat="45.98579" lon="4.86756">
        <ele>277</ele>
        <time>2017-04-21T09:45:35Z</time>
      </trkpt>
      <trkpt lat="45.9858" lon="4.86762">
        <ele>277</ele>
        <time>2017-04-21T09:45:36Z</time>
      </trkpt>
      <trkpt lat="45.98582" lon="4.86768">
        <ele>277</ele>
        <time>2017-04-21T09:45:37Z</time>
      </trkpt>
      <trkpt lat="45.98582" lon="4.86774">
        <ele>277</ele>
        <time>2017-04-21T09:45:38Z</time>
      </trkpt>
      <trkpt lat="45.98582" lon="4.86781">
        <ele>277</ele>
        <time>2017-04-21T09:45:39Z</time>
      </trkpt>
      <trkpt lat="45.98583" lon="4.86789">
        <ele>277</ele>
        <time>2017-04-21T09:45:40Z</time>
      </trkpt>
      <trkpt lat="45.98584" lon="4.86796">
        <ele>276</ele>
        <time>2017-04-21T09:45:41Z</time>
      </trkpt>
      <trkpt lat="45.98585" lon="4.86803">
        <ele>276</ele>
        <time>2017-04-21T09:45:42Z</time>
      </trkpt>
      <trkpt lat="45.98585" lon="4.86811">
        <ele>276</ele>
        <time>2017-04-21T09:45:43Z</time>
      </trkpt>
      <trkpt lat="45.98586" lon="4.86819">
        <ele>276</ele>
        <time>2017-04-21T09:45:44Z</time>
      </trkpt>
      <trkpt lat="45.98587" lon="4.86828">
        <ele>277</ele>
        <time>2017-04-21T09:45:45Z</time>
      </trkpt>
      <trkpt lat="45.98587" lon="4.86837">
        <ele>277</ele>
        <time>2017-04-21T09:45:46Z</time>
      </trkpt>
      <trkpt lat="45.98587" lon="4.86846">
        <ele>277</ele>
        <time>2017-04-21T09:45:47Z</time>
      </trkpt>
      <trkpt lat="45.98587" lon="4.86855">
        <ele>277</ele>
        <time>2017-04-21T09:45:48Z</time>
      </trkpt>
      <trkpt lat="45.98586" lon="4.86864">
        <ele>277</ele>
        <time>2017-04-21T09:45:49Z</time>
      </trkpt>
      <trkpt lat="45.98586" lon="4.86873">
        <ele>277</ele>
        <time>2017-04-21T09:45:50Z</time>
      </trkpt>
      <trkpt lat="45.98586" lon="4.86883">
        <ele>278</ele>
        <time>2017-04-21T09:45:51Z</time>
      </trkpt>
      <trkpt lat="45.98586" lon="4.86893">
        <ele>278</ele>
        <time>2017-04-21T09:45:52Z</time>
      </trkpt>
      <trkpt lat="45.98586" lon="4.86903">
        <ele>278</ele>
        <time>2017-04-21T09:45:53Z</time>
      </trkpt>
      <trkpt lat="45.98587" lon="4.86912">
        <ele>279</ele>
        <time>2017-04-21T09:45:54Z</time>
      </trkpt>
      <trkpt lat="45.98587" lon="4.86923">
        <ele>279</ele>
        <time>2017-04-21T09:45:55Z</time>
      </trkpt>
      <trkpt lat="45.98586" lon="4.86935">
        <ele>279</ele>
        <time>2017-04-21T09:45:56Z</time>
      </trkpt>
      <trkpt lat="45.98586" lon="4.86945">
        <ele>279</ele>
        <time>2017-04-21T09:45:57Z</time>
      </trkpt>
      <trkpt lat="45.98585" lon="4.86955">
        <ele>279</ele>
        <time>2017-04-21T09:45:58Z</time>
      </trkpt>
      <trkpt lat="45.98585" lon="4.86965">
        <ele>279</ele>
        <time>2017-04-21T09:45:59Z</time>
      </trkpt>
      <trkpt lat="45.98586" lon="4.86974">
        <ele>279</ele>
        <time>2017-04-21T09:46:00Z</time>
      </trkpt>
      <trkpt lat="45.98586" lon="4.86984">
        <ele>279</ele>
        <time>2017-04-21T09:46:01Z</time>
      </trkpt>
      <trkpt lat="45.98587" lon="4.86995">
        <ele>280</ele>
        <time>2017-04-21T09:46:02Z</time>
      </trkpt>
      <trkpt lat="45.98587" lon="4.87004">
        <ele>280</ele>
        <time>2017-04-21T09:46:03Z</time>
      </trkpt>
      <trkpt lat="45.98589" lon="4.87014">
        <ele>279</ele>
        <time>2017-04-21T09:46:04Z</time>
      </trkpt>
      <trkpt lat="45.98591" lon="4.87022">
        <ele>279</ele>
        <time>2017-04-21T09:46:05Z</time>
      </trkpt>
      <trkpt lat="45.98593" lon="4.87031">
        <ele>279</ele>
        <time>2017-04-21T09:46:06Z</time>
      </trkpt>
      <trkpt lat="45.98596" lon="4.8704">
        <ele>279</ele>
        <time>2017-04-21T09:46:07Z</time>
      </trkpt>
      <trkpt lat="45.98598" lon="4.87049">
        <ele>279</ele>
        <time>2017-04-21T09:46:08Z</time>
      </trkpt>
      <trkpt lat="45.986" lon="4.87057">
        <ele>279</ele>
        <time>2017-04-21T09:46:09Z</time>
      </trkpt>
      <trkpt lat="45.98602" lon="4.87066">
        <ele>279</ele>
        <time>2017-04-21T09:46:10Z</time>
      </trkpt>
      <trkpt lat="45.98603" lon="4.87074">
        <ele>279</ele>
        <time>2017-04-21T09:46:11Z</time>
      </trkpt>
      <trkpt lat="45.98604" lon="4.87082">
        <ele>279</ele>
        <time>2017-04-21T09:46:12Z</time>
      </trkpt>
      <trkpt lat="45.98605" lon="4.8709">
        <ele>279</ele>
        <time>2017-04-21T09:46:13Z</time>
      </trkpt>
      <trkpt lat="45.98606" lon="4.87098">
        <ele>279</ele>
        <time>2017-04-21T09:46:14Z</time>
      </trkpt>
      <trkpt lat="45.98608" lon="4.87106">
        <ele>279</ele>
        <time>2017-04-21T09:46:15Z</time>
      </trkpt>
      <trkpt lat="45.98609" lon="4.87114">
        <ele>279</ele>
        <time>2017-04-21T09:46:16Z</time>
      </trkpt>
      <trkpt lat="45.98608" lon="4.87123">
        <ele>279</ele>
        <time>2017-04-21T09:46:17Z</time>
      </trkpt>
      <trkpt lat="45.98608" lon="4.87131">
        <ele>279</ele>
        <time>2017-04-21T09:46:18Z</time>
      </trkpt>
      <trkpt lat="45.98607" lon="4.8714">
        <ele>278</ele>
        <time>2017-04-21T09:46:19Z</time>
      </trkpt>
      <trkpt lat="45.98607" lon="4.87148">
        <ele>278</ele>
        <time>2017-04-21T09:46:20Z</time>
      </trkpt>
      <trkpt lat="45.98606" lon="4.87156">
        <ele>278</ele>
        <time>2017-04-21T09:46:21Z</time>
      </trkpt>
      <trkpt lat="45.98606" lon="4.87165">
        <ele>278</ele>
        <time>2017-04-21T09:46:22Z</time>
      </trkpt>
      <trkpt lat="45.98607" lon="4.87173">
        <ele>277</ele>
        <time>2017-04-21T09:46:23Z</time>
      </trkpt>
      <trkpt lat="45.98607" lon="4.87183">
        <ele>277</ele>
        <time>2017-04-21T09:46:24Z</time>
      </trkpt>
      <trkpt lat="45.98606" lon="4.87192">
        <ele>277</ele>
        <time>2017-04-21T09:46:25Z</time>
      </trkpt>
      <trkpt lat="45.98605" lon="4.87202">
        <ele>277</ele>
        <time>2017-04-21T09:46:26Z</time>
      </trkpt>
      <trkpt lat="45.98604" lon="4.87212">
        <ele>277</ele>
        <time>2017-04-21T09:46:27Z</time>
      </trkpt>
      <trkpt lat="45.98601" lon="4.87221">
        <ele>277</ele>
        <time>2017-04-21T09:46:28Z</time>
      </trkpt>
      <trkpt lat="45.98598" lon="4.87231">
        <ele>277</ele>
        <time>2017-04-21T09:46:29Z</time>
      </trkpt>
      <trkpt lat="45.98597" lon="4.87241">
        <ele>277</ele>
        <time>2017-04-21T09:46:30Z</time>
      </trkpt>
      <trkpt lat="45.98595" lon="4.8725">
        <ele>276</ele>
        <time>2017-04-21T09:46:31Z</time>
      </trkpt>
      <trkpt lat="45.98593" lon="4.8726">
        <ele>275</ele>
        <time>2017-04-21T09:46:32Z</time>
      </trkpt>
      <trkpt lat="45.98593" lon="4.87274">
        <ele>275</ele>
        <time>2017-04-21T09:46:33Z</time>
      </trkpt>
      <trkpt lat="45.98593" lon="4.87286">
        <ele>275</ele>
        <time>2017-04-21T09:46:34Z</time>
      </trkpt>
      <trkpt lat="45.98593" lon="4.87296">
        <ele>275</ele>
        <time>2017-04-21T09:46:35Z</time>
      </trkpt>
      <trkpt lat="45.98594" lon="4.87305">
        <ele>274</ele>
        <time>2017-04-21T09:46:36Z</time>
      </trkpt>
      <trkpt lat="45.98595" lon="4.87315">
        <ele>274</ele>
        <time>2017-04-21T09:46:37Z</time>
      </trkpt>
      <trkpt lat="45.98597" lon="4.87324">
        <ele>274</ele>
        <time>2017-04-21T09:46:38Z</time>
      </trkpt>
      <trkpt lat="45.98599" lon="4.87334">
        <ele>273</ele>
        <time>2017-04-21T09:46:39Z</time>
      </trkpt>
      <trkpt lat="45.98601" lon="4.87344">
        <ele>272</ele>
        <time>2017-04-21T09:46:40Z</time>
      </trkpt>
      <trkpt lat="45.98603" lon="4.87355">
        <ele>272</ele>
        <time>2017-04-21T09:46:41Z</time>
      </trkpt>
      <trkpt lat="45.98606" lon="4.87367">
        <ele>272</ele>
        <time>2017-04-21T09:46:42Z</time>
      </trkpt>
      <trkpt lat="45.98609" lon="4.87378">
        <ele>271</ele>
        <time>2017-04-21T09:46:43Z</time>
      </trkpt>
      <trkpt lat="45.98612" lon="4.87389">
        <ele>271</ele>
        <time>2017-04-21T09:46:44Z</time>
      </trkpt>
      <trkpt lat="45.98615" lon="4.87399">
        <ele>271</ele>
        <time>2017-04-21T09:46:45Z</time>
      </trkpt>
      <trkpt lat="45.98618" lon="4.87411">
        <ele>271</ele>
        <time>2017-04-21T09:46:46Z</time>
      </trkpt>
      <trkpt lat="45.9862" lon="4.87422">
        <ele>269</ele>
        <time>2017-04-21T09:46:47Z</time>
      </trkpt>
      <trkpt lat="45.98622" lon="4.87433">
        <ele>269</ele>
        <time>2017-04-21T09:46:48Z</time>
      </trkpt>
      <trkpt lat="45.98623" lon="4.87444">
        <ele>269</ele>
        <time>2017-04-21T09:46:49Z</time>
      </trkpt>
      <trkpt lat="45.98625" lon="4.87455">
        <ele>268</ele>
        <time>2017-04-21T09:46:50Z</time>
      </trkpt>
      <trkpt lat="45.98627" lon="4.87465">
        <ele>268</ele>
        <time>2017-04-21T09:46:51Z</time>
      </trkpt>
      <trkpt lat="45.98629" lon="4.87476">
        <ele>268</ele>
        <time>2017-04-21T09:46:52Z</time>
      </trkpt>
      <trkpt lat="45.98631" lon="4.87486">
        <ele>268</ele>
        <time>2017-04-21T09:46:53Z</time>
      </trkpt>
      <trkpt lat="45.98633" lon="4.87497">
        <ele>267</ele>
        <time>2017-04-21T09:46:54Z</time>
      </trkpt>
      <trkpt lat="45.98635" lon="4.87507">
        <ele>267</ele>
        <time>2017-04-21T09:46:55Z</time>
      </trkpt>
      <trkpt lat="45.98637" lon="4.87518">
        <ele>267</ele>
        <time>2017-04-21T09:46:56Z</time>
      </trkpt>
      <trkpt lat="45.98638" lon="4.87529">
        <ele>267</ele>
        <time>2017-04-21T09:46:57Z</time>
      </trkpt>
      <trkpt lat="45.98641" lon="4.87539">
        <ele>267</ele>
        <time>2017-04-21T09:46:58Z</time>
      </trkpt>
      <trkpt lat="45.98644" lon="4.87548">
        <ele>267</ele>
        <time>2017-04-21T09:46:59Z</time>
      </trkpt>
      <trkpt lat="45.98648" lon="4.87556">
        <ele>267</ele>
        <time>2017-04-21T09:47:00Z</time>
      </trkpt>
      <trkpt lat="45.98652" lon="4.87564">
        <ele>267</ele>
        <time>2017-04-21T09:47:01Z</time>
      </trkpt>
      <trkpt lat="45.98657" lon="4.87569">
        <ele>267</ele>
        <time>2017-04-21T09:47:02Z</time>
      </trkpt>
      <trkpt lat="45.98663" lon="4.87572">
        <ele>267</ele>
        <time>2017-04-21T09:47:03Z</time>
      </trkpt>
      <trkpt lat="45.9867" lon="4.87573">
        <ele>267</ele>
        <time>2017-04-21T09:47:04Z</time>
      </trkpt>
      <trkpt lat="45.98676" lon="4.87572">
        <ele>267</ele>
        <time>2017-04-21T09:47:05Z</time>
      </trkpt>
      <trkpt lat="45.98681" lon="4.87571">
        <ele>267</ele>
        <time>2017-04-21T09:47:06Z</time>
      </trkpt>
      <trkpt lat="45.98686" lon="4.87571">
        <ele>267</ele>
        <time>2017-04-21T09:47:07Z</time>
      </trkpt>
      <trkpt lat="45.98691" lon="4.87569">
        <ele>267</ele>
        <time>2017-04-21T09:47:08Z</time>
      </trkpt>
      <trkpt lat="45.98696" lon="4.87568">
        <ele>267</ele>
        <time>2017-04-21T09:47:09Z</time>
      </trkpt>
      <trkpt lat="45.98701" lon="4.87566">
        <ele>267</ele>
        <time>2017-04-21T09:47:10Z</time>
      </trkpt>
      <trkpt lat="45.98706" lon="4.87565">
        <ele>267</ele>
        <time>2017-04-21T09:47:11Z</time>
      </trkpt>
      <trkpt lat="45.98711" lon="4.87563">
        <ele>267</ele>
        <time>2017-04-21T09:47:12Z</time>
      </trkpt>
      <trkpt lat="45.98716" lon="4.87561">
        <ele>267</ele>
        <time>2017-04-21T09:47:13Z</time>
      </trkpt>
      <trkpt lat="45.98721" lon="4.87559">
        <ele>267</ele>
        <time>2017-04-21T09:47:14Z</time>
      </trkpt>
      <trkpt lat="45.98726" lon="4.87558">
        <ele>267</ele>
        <time>2017-04-21T09:47:15Z</time>
      </trkpt>
      <trkpt lat="45.98731" lon="4.8756">
        <ele>267</ele>
        <time>2017-04-21T09:47:16Z</time>
      </trkpt>
      <trkpt lat="45.98736" lon="4.87561">
        <ele>267</ele>
        <time>2017-04-21T09:47:17Z</time>
      </trkpt>
      <trkpt lat="45.98741" lon="4.87562">
        <ele>267</ele>
        <time>2017-04-21T09:47:18Z</time>
      </trkpt>
      <trkpt lat="45.98746" lon="4.87564">
        <ele>267</ele>
        <time>2017-04-21T09:47:19Z</time>
      </trkpt>
      <trkpt lat="45.98751" lon="4.87566">
        <ele>268</ele>
        <time>2017-04-21T09:47:20Z</time>
      </trkpt>
      <trkpt lat="45.98755" lon="4.87568">
        <ele>269</ele>
        <time>2017-04-21T09:47:21Z</time>
      </trkpt>
      <trkpt lat="45.9876" lon="4.8757">
        <ele>269</ele>
        <time>2017-04-21T09:47:22Z</time>
      </trkpt>
      <trkpt lat="45.98764" lon="4.87574">
        <ele>269</ele>
        <time>2017-04-21T09:47:23Z</time>
      </trkpt>
      <trkpt lat="45.98769" lon="4.87578">
        <ele>269</ele>
        <time>2017-04-21T09:47:24Z</time>
      </trkpt>
      <trkpt lat="45.98773" lon="4.87582">
        <ele>269</ele>
        <time>2017-04-21T09:47:25Z</time>
      </trkpt>
      <trkpt lat="45.98778" lon="4.87585">
        <ele>270</ele>
        <time>2017-04-21T09:47:26Z</time>
      </trkpt>
      <trkpt lat="45.98781" lon="4.87589">
        <ele>270</ele>
        <time>2017-04-21T09:47:27Z</time>
      </trkpt>
      <trkpt lat="45.98785" lon="4.87593">
        <ele>271</ele>
        <time>2017-04-21T09:47:28Z</time>
      </trkpt>
      <trkpt lat="45.98789" lon="4.87598">
        <ele>271</ele>
        <time>2017-04-21T09:47:29Z</time>
      </trkpt>
      <trkpt lat="45.98795" lon="4.87606">
        <ele>271</ele>
        <time>2017-04-21T09:47:31Z</time>
      </trkpt>
      <trkpt lat="45.98798" lon="4.8761">
        <ele>271</ele>
        <time>2017-04-21T09:47:32Z</time>
      </trkpt>
      <trkpt lat="45.98802" lon="4.87618">
        <ele>271</ele>
        <time>2017-04-21T09:47:34Z</time>
      </trkpt>
      <trkpt lat="45.98804" lon="4.87622">
        <ele>271</ele>
        <time>2017-04-21T09:47:35Z</time>
      </trkpt>
      <trkpt lat="45.98806" lon="4.87631">
        <ele>271</ele>
        <time>2017-04-21T09:47:37Z</time>
      </trkpt>
      <trkpt lat="45.98808" lon="4.87636">
        <ele>271</ele>
        <time>2017-04-21T09:47:38Z</time>
      </trkpt>
      <trkpt lat="45.98812" lon="4.87647">
        <ele>272</ele>
        <time>2017-04-21T09:47:40Z</time>
      </trkpt>
      <trkpt lat="45.98813" lon="4.87654">
        <ele>272</ele>
        <time>2017-04-21T09:47:41Z</time>
      </trkpt>
      <trkpt lat="45.98814" lon="4.8766">
        <ele>272</ele>
        <time>2017-04-21T09:47:42Z</time>
      </trkpt>
      <trkpt lat="45.98817" lon="4.87667">
        <ele>273</ele>
        <time>2017-04-21T09:47:43Z</time>
      </trkpt>
      <trkpt lat="45.9882" lon="4.87674">
        <ele>273</ele>
        <time>2017-04-21T09:47:44Z</time>
      </trkpt>
      <trkpt lat="45.98822" lon="4.8768">
        <ele>273</ele>
        <time>2017-04-21T09:47:45Z</time>
      </trkpt>
      <trkpt lat="45.98824" lon="4.87686">
        <ele>273</ele>
        <time>2017-04-21T09:47:46Z</time>
      </trkpt>
      <trkpt lat="45.98826" lon="4.87693">
        <ele>273</ele>
        <time>2017-04-21T09:47:47Z</time>
      </trkpt>
      <trkpt lat="45.98828" lon="4.87699">
        <ele>273</ele>
        <time>2017-04-21T09:47:48Z</time>
      </trkpt>
      <trkpt lat="45.9883" lon="4.87705">
        <ele>273</ele>
        <time>2017-04-21T09:47:49Z</time>
      </trkpt>
      <trkpt lat="45.98832" lon="4.87712">
        <ele>273</ele>
        <time>2017-04-21T09:47:50Z</time>
      </trkpt>
      <trkpt lat="45.98834" lon="4.87719">
        <ele>273</ele>
        <time>2017-04-21T09:47:51Z</time>
      </trkpt>
      <trkpt lat="45.98835" lon="4.87727">
        <ele>273</ele>
        <time>2017-04-21T09:47:52Z</time>
      </trkpt>
      <trkpt lat="45.98837" lon="4.87734">
        <ele>273</ele>
        <time>2017-04-21T09:47:53Z</time>
      </trkpt>
      <trkpt lat="45.98839" lon="4.87742">
        <ele>273</ele>
        <time>2017-04-21T09:47:54Z</time>
      </trkpt>
      <trkpt lat="45.98841" lon="4.87749">
        <ele>273</ele>
        <time>2017-04-21T09:47:55Z</time>
      </trkpt>
      <trkpt lat="45.98843" lon="4.87757">
        <ele>273</ele>
        <time>2017-04-21T09:47:56Z</time>
      </trkpt>
      <trkpt lat="45.98845" lon="4.87764">
        <ele>273</ele>
        <time>2017-04-21T09:47:57Z</time>
      </trkpt>
      <trkpt lat="45.98847" lon="4.8777">
        <ele>273</ele>
        <time>2017-04-21T09:47:58Z</time>
      </trkpt>
      <trkpt lat="45.9885" lon="4.87777">
        <ele>273</ele>
        <time>2017-04-21T09:47:59Z</time>
      </trkpt>
      <trkpt lat="45.98852" lon="4.87784">
        <ele>273</ele>
        <time>2017-04-21T09:48:00Z</time>
      </trkpt>
      <trkpt lat="45.98855" lon="4.87791">
        <ele>273</ele>
        <time>2017-04-21T09:48:01Z</time>
      </trkpt>
      <trkpt lat="45.98857" lon="4.87798">
        <ele>273</ele>
        <time>2017-04-21T09:48:02Z</time>
      </trkpt>
      <trkpt lat="45.9886" lon="4.87805">
        <ele>273</ele>
        <time>2017-04-21T09:48:03Z</time>
      </trkpt>
      <trkpt lat="45.98862" lon="4.87811">
        <ele>273</ele>
        <time>2017-04-21T09:48:04Z</time>
      </trkpt>
      <trkpt lat="45.98864" lon="4.8782">
        <ele>273</ele>
        <time>2017-04-21T09:48:05Z</time>
      </trkpt>
      <trkpt lat="45.98866" lon="4.87827">
        <ele>273</ele>
        <time>2017-04-21T09:48:06Z</time>
      </trkpt>
      <trkpt lat="45.98868" lon="4.87833">
        <ele>273</ele>
        <time>2017-04-21T09:48:07Z</time>
      </trkpt>
      <trkpt lat="45.98871" lon="4.87838">
        <ele>273</ele>
        <time>2017-04-21T09:48:08Z</time>
      </trkpt>
      <trkpt lat="45.98874" lon="4.87843">
        <ele>273</ele>
        <time>2017-04-21T09:48:09Z</time>
      </trkpt>
      <trkpt lat="45.98877" lon="4.87851">
        <ele>272</ele>
        <time>2017-04-21T09:48:10Z</time>
      </trkpt>
      <trkpt lat="45.9888" lon="4.87857">
        <ele>272</ele>
        <time>2017-04-21T09:48:11Z</time>
      </trkpt>
      <trkpt lat="45.98883" lon="4.87862">
        <ele>272</ele>
        <time>2017-04-21T09:48:12Z</time>
      </trkpt>
      <trkpt lat="45.98886" lon="4.87868">
        <ele>272</ele>
        <time>2017-04-21T09:48:13Z</time>
      </trkpt>
      <trkpt lat="45.98889" lon="4.87872">
        <ele>272</ele>
        <time>2017-04-21T09:48:14Z</time>
      </trkpt>
      <trkpt lat="45.98892" lon="4.87877">
        <ele>272</ele>
        <time>2017-04-21T09:48:15Z</time>
      </trkpt>
      <trkpt lat="45.98897" lon="4.87886">
        <ele>272</ele>
        <time>2017-04-21T09:48:17Z</time>
      </trkpt>
      <trkpt lat="45.98901" lon="4.8789">
        <ele>272</ele>
        <time>2017-04-21T09:48:18Z</time>
      </trkpt>
      <trkpt lat="45.98906" lon="4.87899">
        <ele>272</ele>
        <time>2017-04-21T09:48:20Z</time>
      </trkpt>
      <trkpt lat="45.98909" lon="4.87904">
        <ele>272</ele>
        <time>2017-04-21T09:48:21Z</time>
      </trkpt>
      <trkpt lat="45.98915" lon="4.87911">
        <ele>271</ele>
        <time>2017-04-21T09:48:23Z</time>
      </trkpt>
      <trkpt lat="45.98918" lon="4.87914">
        <ele>271</ele>
        <time>2017-04-21T09:48:24Z</time>
      </trkpt>
      <trkpt lat="45.98924" lon="4.87918">
        <ele>272</ele>
        <time>2017-04-21T09:48:26Z</time>
      </trkpt>
      <trkpt lat="45.98927" lon="4.8792">
        <ele>272</ele>
        <time>2017-04-21T09:48:27Z</time>
      </trkpt>
      <trkpt lat="45.98934" lon="4.87926">
        <ele>272</ele>
        <time>2017-04-21T09:48:29Z</time>
      </trkpt>
      <trkpt lat="45.98937" lon="4.87928">
        <ele>272</ele>
        <time>2017-04-21T09:48:30Z</time>
      </trkpt>
      <trkpt lat="45.98944" lon="4.87932">
        <ele>273</ele>
        <time>2017-04-21T09:48:32Z</time>
      </trkpt>
      <trkpt lat="45.98948" lon="4.87934">
        <ele>273</ele>
        <time>2017-04-21T09:48:33Z</time>
      </trkpt>
      <trkpt lat="45.98956" lon="4.87938">
        <ele>273</ele>
        <time>2017-04-21T09:48:35Z</time>
      </trkpt>
      <trkpt lat="45.98959" lon="4.8794">
        <ele>273</ele>
        <time>2017-04-21T09:48:36Z</time>
      </trkpt>
      <trkpt lat="45.98966" lon="4.87943">
        <ele>274</ele>
        <time>2017-04-21T09:48:38Z</time>
      </trkpt>
      <trkpt lat="45.9897" lon="4.87944">
        <ele>274</ele>
        <time>2017-04-21T09:48:39Z</time>
      </trkpt>
      <trkpt lat="45.98976" lon="4.87948">
        <ele>274</ele>
        <time>2017-04-21T09:48:41Z</time>
      </trkpt>
      <trkpt lat="45.9898" lon="4.8795">
        <ele>274</ele>
        <time>2017-04-21T09:48:42Z</time>
      </trkpt>
      <trkpt lat="45.98987" lon="4.87954">
        <ele>274</ele>
        <time>2017-04-21T09:48:44Z</time>
      </trkpt>
      <trkpt lat="45.9899" lon="4.87955">
        <ele>274</ele>
        <time>2017-04-21T09:48:45Z</time>
      </trkpt>
      <trkpt lat="45.98996" lon="4.87958">
        <ele>274</ele>
        <time>2017-04-21T09:48:47Z</time>
      </trkpt>
      <trkpt lat="45.98999" lon="4.8796">
        <ele>274</ele>
        <time>2017-04-21T09:48:48Z</time>
      </trkpt>
      <trkpt lat="45.99005" lon="4.87964">
        <ele>276</ele>
        <time>2017-04-21T09:48:50Z</time>
      </trkpt>
      <trkpt lat="45.99008" lon="4.87965">
        <ele>276</ele>
        <time>2017-04-21T09:48:51Z</time>
      </trkpt>
      <trkpt lat="45.99015" lon="4.8797">
        <ele>276</ele>
        <time>2017-04-21T09:48:53Z</time>
      </trkpt>
      <trkpt lat="45.99019" lon="4.87971">
        <ele>276</ele>
        <time>2017-04-21T09:48:54Z</time>
      </trkpt>
      <trkpt lat="45.99026" lon="4.87975">
        <ele>276</ele>
        <time>2017-04-21T09:48:56Z</time>
      </trkpt>
      <trkpt lat="45.9903" lon="4.87976">
        <ele>276</ele>
        <time>2017-04-21T09:48:57Z</time>
      </trkpt>
      <trkpt lat="45.99034" lon="4.87979">
        <ele>276</ele>
        <time>2017-04-21T09:48:58Z</time>
      </trkpt>
      <trkpt lat="45.99038" lon="4.87982">
        <ele>276</ele>
        <time>2017-04-21T09:48:59Z</time>
      </trkpt>
      <trkpt lat="45.99042" lon="4.87984">
        <ele>277</ele>
        <time>2017-04-21T09:49:00Z</time>
      </trkpt>
      <trkpt lat="45.99047" lon="4.87987">
        <ele>277</ele>
        <time>2017-04-21T09:49:01Z</time>
      </trkpt>
      <trkpt lat="45.99054" lon="4.87993">
        <ele>277</ele>
        <time>2017-04-21T09:49:03Z</time>
      </trkpt>
      <trkpt lat="45.99058" lon="4.87996">
        <ele>277</ele>
        <time>2017-04-21T09:49:04Z</time>
      </trkpt>
      <trkpt lat="45.99065" lon="4.88001">
        <ele>277</ele>
        <time>2017-04-21T09:49:06Z</time>
      </trkpt>
      <trkpt lat="45.99068" lon="4.88003">
        <ele>277</ele>
        <time>2017-04-21T09:49:07Z</time>
      </trkpt>
      <trkpt lat="45.99076" lon="4.88007">
        <ele>278</ele>
        <time>2017-04-21T09:49:09Z</time>
      </trkpt>
      <trkpt lat="45.9908" lon="4.88009">
        <ele>278</ele>
        <time>2017-04-21T09:49:10Z</time>
      </trkpt>
      <trkpt lat="45.99088" lon="4.88013">
        <ele>278</ele>
        <time>2017-04-21T09:49:12Z</time>
      </trkpt>
      <trkpt lat="45.99091" lon="4.88015">
        <ele>278</ele>
        <time>2017-04-21T09:49:13Z</time>
      </trkpt>
      <trkpt lat="45.99098" lon="4.88019">
        <ele>278</ele>
        <time>2017-04-21T09:49:15Z</time>
      </trkpt>
      <trkpt lat="45.99102" lon="4.88021">
        <ele>278</ele>
        <time>2017-04-21T09:49:16Z</time>
      </trkpt>
      <trkpt lat="45.99109" lon="4.88025">
        <ele>278</ele>
        <time>2017-04-21T09:49:18Z</time>
      </trkpt>
      <trkpt lat="45.99113" lon="4.88027">
        <ele>278</ele>
        <time>2017-04-21T09:49:19Z</time>
      </trkpt>
      <trkpt lat="45.99119" lon="4.88031">
        <ele>278</ele>
        <time>2017-04-21T09:49:21Z</time>
      </trkpt>
      <trkpt lat="45.99123" lon="4.88033">
        <ele>278</ele>
        <time>2017-04-21T09:49:22Z</time>
      </trkpt>
      <trkpt lat="45.9913" lon="4.88037">
        <ele>279</ele>
        <time>2017-04-21T09:49:24Z</time>
      </trkpt>
      <trkpt lat="45.99133" lon="4.88039">
        <ele>279</ele>
        <time>2017-04-21T09:49:25Z</time>
      </trkpt>
      <trkpt lat="45.9914" lon="4.88043">
        <ele>279</ele>
        <time>2017-04-21T09:49:27Z</time>
      </trkpt>
      <trkpt lat="45.99143" lon="4.88046">
        <ele>279</ele>
        <time>2017-04-21T09:49:28Z</time>
      </trkpt>
      <trkpt lat="45.9915" lon="4.8805">
        <ele>279</ele>
        <time>2017-04-21T09:49:30Z</time>
      </trkpt>
      <trkpt lat="45.99154" lon="4.88053">
        <ele>279</ele>
        <time>2017-04-21T09:49:31Z</time>
      </trkpt>
      <trkpt lat="45.99158" lon="4.88056">
        <ele>279</ele>
        <time>2017-04-21T09:49:32Z</time>
      </trkpt>
      <trkpt lat="45.99163" lon="4.88059">
        <ele>279</ele>
        <time>2017-04-21T09:49:33Z</time>
      </trkpt>
      <trkpt lat="45.9917" lon="4.88064">
        <ele>279</ele>
        <time>2017-04-21T09:49:35Z</time>
      </trkpt>
      <trkpt lat="45.99174" lon="4.88067">
        <ele>279</ele>
        <time>2017-04-21T09:49:36Z</time>
      </trkpt>
      <trkpt lat="45.99181" lon="4.88073">
        <ele>279</ele>
        <time>2017-04-21T09:49:38Z</time>
      </trkpt>
      <trkpt lat="45.99185" lon="4.88076">
        <ele>279</ele>
        <time>2017-04-21T09:49:39Z</time>
      </trkpt>
      <trkpt lat="45.99191" lon="4.88081">
        <ele>280</ele>
        <time>2017-04-21T09:49:41Z</time>
      </trkpt>
      <trkpt lat="45.99194" lon="4.88084">
        <ele>280</ele>
        <time>2017-04-21T09:49:42Z</time>
      </trkpt>
      <trkpt lat="45.992" lon="4.8809">
        <ele>280</ele>
        <time>2017-04-21T09:49:44Z</time>
      </trkpt>
      <trkpt lat="45.99204" lon="4.88093">
        <ele>280</ele>
        <time>2017-04-21T09:49:45Z</time>
      </trkpt>
      <trkpt lat="45.99211" lon="4.88099">
        <ele>280</ele>
        <time>2017-04-21T09:49:47Z</time>
      </trkpt>
      <trkpt lat="45.99214" lon="4.88101">
        <ele>280</ele>
        <time>2017-04-21T09:49:48Z</time>
      </trkpt>
      <trkpt lat="45.9922" lon="4.88107">
        <ele>280</ele>
        <time>2017-04-21T09:49:50Z</time>
      </trkpt>
      <trkpt lat="45.99223" lon="4.8811">
        <ele>280</ele>
        <time>2017-04-21T09:49:51Z</time>
      </trkpt>
      <trkpt lat="45.9923" lon="4.88116">
        <ele>280</ele>
        <time>2017-04-21T09:49:53Z</time>
      </trkpt>
      <trkpt lat="45.99233" lon="4.8812">
        <ele>280</ele>
        <time>2017-04-21T09:49:54Z</time>
      </trkpt>
      <trkpt lat="45.99241" lon="4.88126">
        <ele>280</ele>
        <time>2017-04-21T09:49:56Z</time>
      </trkpt>
      <trkpt lat="45.99244" lon="4.8813">
        <ele>280</ele>
        <time>2017-04-21T09:49:57Z</time>
      </trkpt>
      <trkpt lat="45.99251" lon="4.88136">
        <ele>283</ele>
        <time>2017-04-21T09:49:59Z</time>
      </trkpt>
      <trkpt lat="45.99254" lon="4.8814">
        <ele>283</ele>
        <time>2017-04-21T09:50:00Z</time>
      </trkpt>
      <trkpt lat="45.99261" lon="4.88145">
        <ele>283</ele>
        <time>2017-04-21T09:50:02Z</time>
      </trkpt>
      <trkpt lat="45.99265" lon="4.88149">
        <ele>283</ele>
        <time>2017-04-21T09:50:03Z</time>
      </trkpt>
      <trkpt lat="45.99272" lon="4.88155">
        <ele>283</ele>
        <time>2017-04-21T09:50:05Z</time>
      </trkpt>
      <trkpt lat="45.99276" lon="4.88158">
        <ele>283</ele>
        <time>2017-04-21T09:50:06Z</time>
      </trkpt>
      <trkpt lat="45.99284" lon="4.88165">
        <ele>284</ele>
        <time>2017-04-21T09:50:08Z</time>
      </trkpt>
      <trkpt lat="45.99287" lon="4.88168">
        <ele>284</ele>
        <time>2017-04-21T09:50:09Z</time>
      </trkpt>
      <trkpt lat="45.99295" lon="4.88175">
        <ele>284</ele>
        <time>2017-04-21T09:50:11Z</time>
      </trkpt>
      <trkpt lat="45.99298" lon="4.88178">
        <ele>284</ele>
        <time>2017-04-21T09:50:12Z</time>
      </trkpt>
      <trkpt lat="45.99305" lon="4.88184">
        <ele>285</ele>
        <time>2017-04-21T09:50:14Z</time>
      </trkpt>
      <trkpt lat="45.99309" lon="4.88187">
        <ele>285</ele>
        <time>2017-04-21T09:50:15Z</time>
      </trkpt>
      <trkpt lat="45.99316" lon="4.88193">
        <ele>285</ele>
        <time>2017-04-21T09:50:17Z</time>
      </trkpt>
      <trkpt lat="45.9932" lon="4.88197">
        <ele>285</ele>
        <time>2017-04-21T09:50:18Z</time>
      </trkpt>
      <trkpt lat="45.99323" lon="4.88201">
        <ele>285</ele>
        <time>2017-04-21T09:50:19Z</time>
      </trkpt>
      <trkpt lat="45.99327" lon="4.88204">
        <ele>285</ele>
        <time>2017-04-21T09:50:20Z</time>
      </trkpt>
      <trkpt lat="45.99331" lon="4.88208">
        <ele>285</ele>
        <time>2017-04-21T09:50:21Z</time>
      </trkpt>
      <trkpt lat="45.99335" lon="4.88212">
        <ele>287</ele>
        <time>2017-04-21T09:50:22Z</time>
      </trkpt>
      <trkpt lat="45.99342" lon="4.88219">
        <ele>287</ele>
        <time>2017-04-21T09:50:24Z</time>
      </trkpt>
      <trkpt lat="45.99346" lon="4.88222">
        <ele>287</ele>
        <time>2017-04-21T09:50:25Z</time>
      </trkpt>
      <trkpt lat="45.99353" lon="4.88229">
        <ele>287</ele>
        <time>2017-04-21T09:50:27Z</time>
      </trkpt>
      <trkpt lat="45.99357" lon="4.88233">
        <ele>287</ele>
        <time>2017-04-21T09:50:28Z</time>
      </trkpt>
      <trkpt lat="45.99364" lon="4.8824">
        <ele>287</ele>
        <time>2017-04-21T09:50:30Z</time>
      </trkpt>
      <trkpt lat="45.99367" lon="4.88244">
        <ele>287</ele>
        <time>2017-04-21T09:50:31Z</time>
      </trkpt>
      <trkpt lat="45.99373" lon="4.88253">
        <ele>285</ele>
        <time>2017-04-21T09:50:33Z</time>
      </trkpt>
      <trkpt lat="45.99376" lon="4.88258">
        <ele>285</ele>
        <time>2017-04-21T09:50:34Z</time>
      </trkpt>
      <trkpt lat="45.9938" lon="4.88268">
        <ele>285</ele>
        <time>2017-04-21T09:50:36Z</time>
      </trkpt>
      <trkpt lat="45.99382" lon="4.88273">
        <ele>284</ele>
        <time>2017-04-21T09:50:37Z</time>
      </trkpt>
      <trkpt lat="45.99387" lon="4.88283">
        <ele>284</ele>
        <time>2017-04-21T09:50:39Z</time>
      </trkpt>
      <trkpt lat="45.99389" lon="4.88289">
        <ele>284</ele>
        <time>2017-04-21T09:50:40Z</time>
      </trkpt>
      <trkpt lat="45.99392" lon="4.88295">
        <ele>284</ele>
        <time>2017-04-21T09:50:41Z</time>
      </trkpt>
      <trkpt lat="45.99395" lon="4.88302">
        <ele>284</ele>
        <time>2017-04-21T09:50:42Z</time>
      </trkpt>
      <trkpt lat="45.99398" lon="4.88308">
        <ele>284</ele>
        <time>2017-04-21T09:50:43Z</time>
      </trkpt>
      <trkpt lat="45.99401" lon="4.88315">
        <ele>283</ele>
        <time>2017-04-21T09:50:44Z</time>
      </trkpt>
      <trkpt lat="45.99404" lon="4.88321">
        <ele>283</ele>
        <time>2017-04-21T09:50:45Z</time>
      </trkpt>
      <trkpt lat="45.99407" lon="4.88328">
        <ele>283</ele>
        <time>2017-04-21T09:50:46Z</time>
      </trkpt>
      <trkpt lat="45.99409" lon="4.88334">
        <ele>282</ele>
        <time>2017-04-21T09:50:47Z</time>
      </trkpt>
      <trkpt lat="45.99412" lon="4.8834">
        <ele>282</ele>
        <time>2017-04-21T09:50:48Z</time>
      </trkpt>
      <trkpt lat="45.99415" lon="4.88346">
        <ele>282</ele>
        <time>2017-04-21T09:50:49Z</time>
      </trkpt>
      <trkpt lat="45.99417" lon="4.88352">
        <ele>282</ele>
        <time>2017-04-21T09:50:50Z</time>
      </trkpt>
      <trkpt lat="45.99421" lon="4.88363">
        <ele>283</ele>
        <time>2017-04-21T09:50:52Z</time>
      </trkpt>
      <trkpt lat="45.99423" lon="4.88369">
        <ele>283</ele>
        <time>2017-04-21T09:50:53Z</time>
      </trkpt>
      <trkpt lat="45.99426" lon="4.88375">
        <ele>283</ele>
        <time>2017-04-21T09:50:54Z</time>
      </trkpt>
      <trkpt lat="45.99429" lon="4.88382">
        <ele>283</ele>
        <time>2017-04-21T09:50:55Z</time>
      </trkpt>
      <trkpt lat="45.99432" lon="4.88388">
        <ele>283</ele>
        <time>2017-04-21T09:50:56Z</time>
      </trkpt>
      <trkpt lat="45.99435" lon="4.88395">
        <ele>283</ele>
        <time>2017-04-21T09:50:57Z</time>
      </trkpt>
      <trkpt lat="45.99439" lon="4.88401">
        <ele>283</ele>
        <time>2017-04-21T09:50:58Z</time>
      </trkpt>
      <trkpt lat="45.99443" lon="4.88407">
        <ele>283</ele>
        <time>2017-04-21T09:50:59Z</time>
      </trkpt>
      <trkpt lat="45.99448" lon="4.88412">
        <ele>283</ele>
        <time>2017-04-21T09:51:00Z</time>
      </trkpt>
      <trkpt lat="45.99453" lon="4.88416">
        <ele>283</ele>
        <time>2017-04-21T09:51:01Z</time>
      </trkpt>
      <trkpt lat="45.99458" lon="4.8842">
        <ele>283</ele>
        <time>2017-04-21T09:51:02Z</time>
      </trkpt>
      <trkpt lat="45.99462" lon="4.88423">
        <ele>284</ele>
        <time>2017-04-21T09:51:03Z</time>
      </trkpt>
      <trkpt lat="45.99466" lon="4.88427">
        <ele>284</ele>
        <time>2017-04-21T09:51:04Z</time>
      </trkpt>
      <trkpt lat="45.9947" lon="4.88431">
        <ele>284</ele>
        <time>2017-04-21T09:51:05Z</time>
      </trkpt>
      <trkpt lat="45.99474" lon="4.88436">
        <ele>284</ele>
        <time>2017-04-21T09:51:06Z</time>
      </trkpt>
      <trkpt lat="45.99477" lon="4.88441">
        <ele>284</ele>
        <time>2017-04-21T09:51:07Z</time>
      </trkpt>
      <trkpt lat="45.99481" lon="4.88446">
        <ele>284</ele>
        <time>2017-04-21T09:51:08Z</time>
      </trkpt>
      <trkpt lat="45.99484" lon="4.88451">
        <ele>284</ele>
        <time>2017-04-21T09:51:09Z</time>
      </trkpt>
      <trkpt lat="45.99487" lon="4.88456">
        <ele>284</ele>
        <time>2017-04-21T09:51:10Z</time>
      </trkpt>
      <trkpt lat="45.9949" lon="4.88461">
        <ele>284</ele>
        <time>2017-04-21T09:51:11Z</time>
      </trkpt>
      <trkpt lat="45.99492" lon="4.88467">
        <ele>284</ele>
        <time>2017-04-21T09:51:12Z</time>
      </trkpt>
      <trkpt lat="45.99496" lon="4.88473">
        <ele>284</ele>
        <time>2017-04-21T09:51:13Z</time>
      </trkpt>
      <trkpt lat="45.99499" lon="4.88479">
        <ele>284</ele>
        <time>2017-04-21T09:51:14Z</time>
      </trkpt>
      <trkpt lat="45.99502" lon="4.88486">
        <ele>284</ele>
        <time>2017-04-21T09:51:15Z</time>
      </trkpt>
      <trkpt lat="45.99505" lon="4.88493">
        <ele>284</ele>
        <time>2017-04-21T09:51:16Z</time>
      </trkpt>
      <trkpt lat="45.99509" lon="4.885">
        <ele>284</ele>
        <time>2017-04-21T09:51:17Z</time>
      </trkpt>
      <trkpt lat="45.99512" lon="4.88506">
        <ele>284</ele>
        <time>2017-04-21T09:51:18Z</time>
      </trkpt>
      <trkpt lat="45.99516" lon="4.88513">
        <ele>285</ele>
        <time>2017-04-21T09:51:19Z</time>
      </trkpt>
      <trkpt lat="45.99519" lon="4.88519">
        <ele>285</ele>
        <time>2017-04-21T09:51:20Z</time>
      </trkpt>
      <trkpt lat="45.99522" lon="4.88526">
        <ele>285</ele>
        <time>2017-04-21T09:51:21Z</time>
      </trkpt>
      <trkpt lat="45.99525" lon="4.88533">
        <ele>285</ele>
        <time>2017-04-21T09:51:22Z</time>
      </trkpt>
      <trkpt lat="45.99528" lon="4.88539">
        <ele>285</ele>
        <time>2017-04-21T09:51:23Z</time>
      </trkpt>
      <trkpt lat="45.99531" lon="4.88545">
        <ele>285</ele>
        <time>2017-04-21T09:51:24Z</time>
      </trkpt>
      <trkpt lat="45.99533" lon="4.88552">
        <ele>285</ele>
        <time>2017-04-21T09:51:25Z</time>
      </trkpt>
      <trkpt lat="45.99536" lon="4.88558">
        <ele>285</ele>
        <time>2017-04-21T09:51:26Z</time>
      </trkpt>
      <trkpt lat="45.99538" lon="4.88565">
        <ele>285</ele>
        <time>2017-04-21T09:51:27Z</time>
      </trkpt>
      <trkpt lat="45.9954" lon="4.88572">
        <ele>285</ele>
        <time>2017-04-21T09:51:28Z</time>
      </trkpt>
      <trkpt lat="45.99542" lon="4.88579">
        <ele>286</ele>
        <time>2017-04-21T09:51:29Z</time>
      </trkpt>
      <trkpt lat="45.99544" lon="4.88586">
        <ele>286</ele>
        <time>2017-04-21T09:51:30Z</time>
      </trkpt>
      <trkpt lat="45.99546" lon="4.88592">
        <ele>286</ele>
        <time>2017-04-21T09:51:31Z</time>
      </trkpt>
      <trkpt lat="45.99547" lon="4.88599">
        <ele>286</ele>
        <time>2017-04-21T09:51:32Z</time>
      </trkpt>
      <trkpt lat="45.99548" lon="4.88606">
        <ele>286</ele>
        <time>2017-04-21T09:51:33Z</time>
      </trkpt>
      <trkpt lat="45.99549" lon="4.88613">
        <ele>286</ele>
        <time>2017-04-21T09:51:34Z</time>
      </trkpt>
      <trkpt lat="45.9955" lon="4.8862">
        <ele>286</ele>
        <time>2017-04-21T09:51:35Z</time>
      </trkpt>
      <trkpt lat="45.9955" lon="4.88626">
        <ele>286</ele>
        <time>2017-04-21T09:51:36Z</time>
      </trkpt>
      <trkpt lat="45.99551" lon="4.88633">
        <ele>286</ele>
        <time>2017-04-21T09:51:37Z</time>
      </trkpt>
      <trkpt lat="45.99552" lon="4.88646">
        <ele>286</ele>
        <time>2017-04-21T09:51:39Z</time>
      </trkpt>
      <trkpt lat="45.99552" lon="4.88652">
        <ele>286</ele>
        <time>2017-04-21T09:51:40Z</time>
      </trkpt>
      <trkpt lat="45.99554" lon="4.88665">
        <ele>286</ele>
        <time>2017-04-21T09:51:42Z</time>
      </trkpt>
      <trkpt lat="45.99554" lon="4.88671">
        <ele>286</ele>
        <time>2017-04-21T09:51:43Z</time>
      </trkpt>
      <trkpt lat="45.99555" lon="4.88679">
        <ele>286</ele>
        <time>2017-04-21T09:51:44Z</time>
      </trkpt>
      <trkpt lat="45.99555" lon="4.88686">
        <ele>286</ele>
        <time>2017-04-21T09:51:45Z</time>
      </trkpt>
      <trkpt lat="45.99556" lon="4.88693">
        <ele>286</ele>
        <time>2017-04-21T09:51:46Z</time>
      </trkpt>
      <trkpt lat="45.99557" lon="4.88701">
        <ele>286</ele>
        <time>2017-04-21T09:51:47Z</time>
      </trkpt>
      <trkpt lat="45.99558" lon="4.88708">
        <ele>286</ele>
        <time>2017-04-21T09:51:48Z</time>
      </trkpt>
      <trkpt lat="45.99559" lon="4.88714">
        <ele>286</ele>
        <time>2017-04-21T09:51:49Z</time>
      </trkpt>
      <trkpt lat="45.9956" lon="4.88726">
        <ele>286</ele>
        <time>2017-04-21T09:51:51Z</time>
      </trkpt>
      <trkpt lat="45.99561" lon="4.88733">
        <ele>286</ele>
        <time>2017-04-21T09:51:52Z</time>
      </trkpt>
      <trkpt lat="45.99561" lon="4.88739">
        <ele>287</ele>
        <time>2017-04-21T09:51:53Z</time>
      </trkpt>
      <trkpt lat="45.99562" lon="4.88746">
        <ele>287</ele>
        <time>2017-04-21T09:51:54Z</time>
      </trkpt>
      <trkpt lat="45.99563" lon="4.88754">
        <ele>287</ele>
        <time>2017-04-21T09:51:55Z</time>
      </trkpt>
      <trkpt lat="45.99563" lon="4.88762">
        <ele>287</ele>
        <time>2017-04-21T09:51:56Z</time>
      </trkpt>
      <trkpt lat="45.99564" lon="4.88769">
        <ele>287</ele>
        <time>2017-04-21T09:51:57Z</time>
      </trkpt>
      <trkpt lat="45.99564" lon="4.88777">
        <ele>287</ele>
        <time>2017-04-21T09:51:58Z</time>
      </trkpt>
      <trkpt lat="45.99565" lon="4.88784">
        <ele>287</ele>
        <time>2017-04-21T09:51:59Z</time>
      </trkpt>
      <trkpt lat="45.99566" lon="4.88792">
        <ele>287</ele>
        <time>2017-04-21T09:52:00Z</time>
      </trkpt>
      <trkpt lat="45.99567" lon="4.88798">
        <ele>287</ele>
        <time>2017-04-21T09:52:01Z</time>
      </trkpt>
      <trkpt lat="45.99568" lon="4.88805">
        <ele>287</ele>
        <time>2017-04-21T09:52:02Z</time>
      </trkpt>
      <trkpt lat="45.99568" lon="4.88812">
        <ele>287</ele>
        <time>2017-04-21T09:52:03Z</time>
      </trkpt>
      <trkpt lat="45.99569" lon="4.88818">
        <ele>287</ele>
        <time>2017-04-21T09:52:04Z</time>
      </trkpt>
      <trkpt lat="45.9957" lon="4.88825">
        <ele>287</ele>
        <time>2017-04-21T09:52:05Z</time>
      </trkpt>
      <trkpt lat="45.9957" lon="4.88832">
        <ele>287</ele>
        <time>2017-04-21T09:52:06Z</time>
      </trkpt>
      <trkpt lat="45.99571" lon="4.88839">
        <ele>287</ele>
        <time>2017-04-21T09:52:07Z</time>
      </trkpt>
      <trkpt lat="45.99572" lon="4.88846">
        <ele>287</ele>
        <time>2017-04-21T09:52:08Z</time>
      </trkpt>
      <trkpt lat="45.99572" lon="4.88852">
        <ele>287</ele>
        <time>2017-04-21T09:52:09Z</time>
      </trkpt>
      <trkpt lat="45.99573" lon="4.88859">
        <ele>287</ele>
        <time>2017-04-21T09:52:10Z</time>
      </trkpt>
      <trkpt lat="45.99574" lon="4.88866">
        <ele>287</ele>
        <time>2017-04-21T09:52:11Z</time>
      </trkpt>
      <trkpt lat="45.99574" lon="4.88873">
        <ele>287</ele>
        <time>2017-04-21T09:52:12Z</time>
      </trkpt>
      <trkpt lat="45.99575" lon="4.8888">
        <ele>287</ele>
        <time>2017-04-21T09:52:13Z</time>
      </trkpt>
      <trkpt lat="45.99575" lon="4.88887">
        <ele>287</ele>
        <time>2017-04-21T09:52:14Z</time>
      </trkpt>
      <trkpt lat="45.99576" lon="4.88892">
        <ele>287</ele>
        <time>2017-04-21T09:52:15Z</time>
      </trkpt>
      <trkpt lat="45.99577" lon="4.88899">
        <ele>287</ele>
        <time>2017-04-21T09:52:16Z</time>
      </trkpt>
      <trkpt lat="45.99578" lon="4.88907">
        <ele>287</ele>
        <time>2017-04-21T09:52:17Z</time>
      </trkpt>
      <trkpt lat="45.99578" lon="4.88914">
        <ele>287</ele>
        <time>2017-04-21T09:52:18Z</time>
      </trkpt>
      <trkpt lat="45.99579" lon="4.88922">
        <ele>287</ele>
        <time>2017-04-21T09:52:19Z</time>
      </trkpt>
      <trkpt lat="45.99579" lon="4.88929">
        <ele>287</ele>
        <time>2017-04-21T09:52:20Z</time>
      </trkpt>
      <trkpt lat="45.9958" lon="4.88938">
        <ele>287</ele>
        <time>2017-04-21T09:52:21Z</time>
      </trkpt>
      <trkpt lat="45.99581" lon="4.88946">
        <ele>287</ele>
        <time>2017-04-21T09:52:22Z</time>
      </trkpt>
      <trkpt lat="45.99581" lon="4.88954">
        <ele>287</ele>
        <time>2017-04-21T09:52:23Z</time>
      </trkpt>
      <trkpt lat="45.99582" lon="4.88962">
        <ele>287</ele>
        <time>2017-04-21T09:52:24Z</time>
      </trkpt>
      <trkpt lat="45.99582" lon="4.88969">
        <ele>287</ele>
        <time>2017-04-21T09:52:25Z</time>
      </trkpt>
      <trkpt lat="45.99582" lon="4.88976">
        <ele>287</ele>
        <time>2017-04-21T09:52:26Z</time>
      </trkpt>
      <trkpt lat="45.99582" lon="4.88983">
        <ele>288</ele>
        <time>2017-04-21T09:52:27Z</time>
      </trkpt>
      <trkpt lat="45.99583" lon="4.88989">
        <ele>288</ele>
        <time>2017-04-21T09:52:28Z</time>
      </trkpt>
      <trkpt lat="45.99583" lon="4.88996">
        <ele>288</ele>
        <time>2017-04-21T09:52:29Z</time>
      </trkpt>
      <trkpt lat="45.99583" lon="4.89002">
        <ele>288</ele>
        <time>2017-04-21T09:52:30Z</time>
      </trkpt>
      <trkpt lat="45.99583" lon="4.89015">
        <ele>288</ele>
        <time>2017-04-21T09:52:32Z</time>
      </trkpt>
      <trkpt lat="45.99582" lon="4.89021">
        <ele>288</ele>
        <time>2017-04-21T09:52:33Z</time>
      </trkpt>
      <trkpt lat="45.99581" lon="4.89028">
        <ele>288</ele>
        <time>2017-04-21T09:52:34Z</time>
      </trkpt>
      <trkpt lat="45.99581" lon="4.89035">
        <ele>288</ele>
        <time>2017-04-21T09:52:35Z</time>
      </trkpt>
      <trkpt lat="45.99581" lon="4.89041">
        <ele>288</ele>
        <time>2017-04-21T09:52:36Z</time>
      </trkpt>
      <trkpt lat="45.9958" lon="4.89048">
        <ele>288</ele>
        <time>2017-04-21T09:52:37Z</time>
      </trkpt>
      <trkpt lat="45.99579" lon="4.89055">
        <ele>288</ele>
        <time>2017-04-21T09:52:38Z</time>
      </trkpt>
      <trkpt lat="45.99578" lon="4.89061">
        <ele>289</ele>
        <time>2017-04-21T09:52:39Z</time>
      </trkpt>
      <trkpt lat="45.99578" lon="4.89073">
        <ele>289</ele>
        <time>2017-04-21T09:52:41Z</time>
      </trkpt>
      <trkpt lat="45.99577" lon="4.8908">
        <ele>289</ele>
        <time>2017-04-21T09:52:42Z</time>
      </trkpt>
      <trkpt lat="45.99576" lon="4.89087">
        <ele>289</ele>
        <time>2017-04-21T09:52:43Z</time>
      </trkpt>
      <trkpt lat="45.99575" lon="4.89094">
        <ele>289</ele>
        <time>2017-04-21T09:52:44Z</time>
      </trkpt>
      <trkpt lat="45.99575" lon="4.89101">
        <ele>289</ele>
        <time>2017-04-21T09:52:45Z</time>
      </trkpt>
      <trkpt lat="45.99575" lon="4.89109">
        <ele>289</ele>
        <time>2017-04-21T09:52:46Z</time>
      </trkpt>
      <trkpt lat="45.99575" lon="4.89117">
        <ele>289</ele>
        <time>2017-04-21T09:52:47Z</time>
      </trkpt>
      <trkpt lat="45.99575" lon="4.89125">
        <ele>289</ele>
        <time>2017-04-21T09:52:48Z</time>
      </trkpt>
      <trkpt lat="45.99575" lon="4.89132">
        <ele>289</ele>
        <time>2017-04-21T09:52:49Z</time>
      </trkpt>
      <trkpt lat="45.99575" lon="4.89139">
        <ele>289</ele>
        <time>2017-04-21T09:52:50Z</time>
      </trkpt>
      <trkpt lat="45.99575" lon="4.89147">
        <ele>289</ele>
        <time>2017-04-21T09:52:51Z</time>
      </trkpt>
      <trkpt lat="45.99576" lon="4.89153">
        <ele>289</ele>
        <time>2017-04-21T09:52:52Z</time>
      </trkpt>
      <trkpt lat="45.99577" lon="4.89165">
        <ele>288</ele>
        <time>2017-04-21T09:52:54Z</time>
      </trkpt>
      <trkpt lat="45.99578" lon="4.89171">
        <ele>288</ele>
        <time>2017-04-21T09:52:55Z</time>
      </trkpt>
      <trkpt lat="45.99578" lon="4.89178">
        <ele>288</ele>
        <time>2017-04-21T09:52:56Z</time>
      </trkpt>
      <trkpt lat="45.99577" lon="4.89185">
        <ele>288</ele>
        <time>2017-04-21T09:52:57Z</time>
      </trkpt>
      <trkpt lat="45.99577" lon="4.89193">
        <ele>288</ele>
        <time>2017-04-21T09:52:58Z</time>
      </trkpt>
      <trkpt lat="45.99578" lon="4.892">
        <ele>288</ele>
        <time>2017-04-21T09:52:59Z</time>
      </trkpt>
      <trkpt lat="45.99578" lon="4.89207">
        <ele>288</ele>
        <time>2017-04-21T09:53:00Z</time>
      </trkpt>
      <trkpt lat="45.99579" lon="4.89214">
        <ele>288</ele>
        <time>2017-04-21T09:53:01Z</time>
      </trkpt>
      <trkpt lat="45.9958" lon="4.89222">
        <ele>288</ele>
        <time>2017-04-21T09:53:02Z</time>
      </trkpt>
      <trkpt lat="45.9958" lon="4.89229">
        <ele>288</ele>
        <time>2017-04-21T09:53:03Z</time>
      </trkpt>
      <trkpt lat="45.99581" lon="4.89235">
        <ele>288</ele>
        <time>2017-04-21T09:53:04Z</time>
      </trkpt>
      <trkpt lat="45.99581" lon="4.89242">
        <ele>288</ele>
        <time>2017-04-21T09:53:05Z</time>
      </trkpt>
      <trkpt lat="45.99581" lon="4.89249">
        <ele>288</ele>
        <time>2017-04-21T09:53:06Z</time>
      </trkpt>
      <trkpt lat="45.99582" lon="4.89255">
        <ele>288</ele>
        <time>2017-04-21T09:53:07Z</time>
      </trkpt>
      <trkpt lat="45.99582" lon="4.89262">
        <ele>288</ele>
        <time>2017-04-21T09:53:08Z</time>
      </trkpt>
      <trkpt lat="45.99583" lon="4.8927">
        <ele>288</ele>
        <time>2017-04-21T09:53:09Z</time>
      </trkpt>
      <trkpt lat="45.99583" lon="4.89277">
        <ele>288</ele>
        <time>2017-04-21T09:53:10Z</time>
      </trkpt>
      <trkpt lat="45.99583" lon="4.89284">
        <ele>288</ele>
        <time>2017-04-21T09:53:11Z</time>
      </trkpt>
      <trkpt lat="45.99583" lon="4.89291">
        <ele>288</ele>
        <time>2017-04-21T09:53:12Z</time>
      </trkpt>
      <trkpt lat="45.99584" lon="4.89298">
        <ele>289</ele>
        <time>2017-04-21T09:53:13Z</time>
      </trkpt>
      <trkpt lat="45.99585" lon="4.8931">
        <ele>289</ele>
        <time>2017-04-21T09:53:15Z</time>
      </trkpt>
      <trkpt lat="45.99585" lon="4.89317">
        <ele>289</ele>
        <time>2017-04-21T09:53:16Z</time>
      </trkpt>
      <trkpt lat="45.99586" lon="4.89323">
        <ele>289</ele>
        <time>2017-04-21T09:53:17Z</time>
      </trkpt>
      <trkpt lat="45.99586" lon="4.8933">
        <ele>289</ele>
        <time>2017-04-21T09:53:18Z</time>
      </trkpt>
      <trkpt lat="45.99587" lon="4.89337">
        <ele>289</ele>
        <time>2017-04-21T09:53:19Z</time>
      </trkpt>
      <trkpt lat="45.99587" lon="4.89344">
        <ele>289</ele>
        <time>2017-04-21T09:53:20Z</time>
      </trkpt>
      <trkpt lat="45.99588" lon="4.89351">
        <ele>289</ele>
        <time>2017-04-21T09:53:21Z</time>
      </trkpt>
      <trkpt lat="45.99588" lon="4.89359">
        <ele>289</ele>
        <time>2017-04-21T09:53:22Z</time>
      </trkpt>
      <trkpt lat="45.99589" lon="4.89367">
        <ele>289</ele>
        <time>2017-04-21T09:53:23Z</time>
      </trkpt>
      <trkpt lat="45.99589" lon="4.89375">
        <ele>289</ele>
        <time>2017-04-21T09:53:24Z</time>
      </trkpt>
      <trkpt lat="45.99589" lon="4.89383">
        <ele>290</ele>
        <time>2017-04-21T09:53:25Z</time>
      </trkpt>
      <trkpt lat="45.9959" lon="4.89391">
        <ele>290</ele>
        <time>2017-04-21T09:53:26Z</time>
      </trkpt>
      <trkpt lat="45.9959" lon="4.89399">
        <ele>290</ele>
        <time>2017-04-21T09:53:27Z</time>
      </trkpt>
      <trkpt lat="45.99591" lon="4.89407">
        <ele>290</ele>
        <time>2017-04-21T09:53:28Z</time>
      </trkpt>
      <trkpt lat="45.99592" lon="4.89415">
        <ele>290</ele>
        <time>2017-04-21T09:53:29Z</time>
      </trkpt>
      <trkpt lat="45.99592" lon="4.89423">
        <ele>290</ele>
        <time>2017-04-21T09:53:30Z</time>
      </trkpt>
      <trkpt lat="45.99592" lon="4.8943">
        <ele>290</ele>
        <time>2017-04-21T09:53:31Z</time>
      </trkpt>
      <trkpt lat="45.99592" lon="4.89437">
        <ele>290</ele>
        <time>2017-04-21T09:53:32Z</time>
      </trkpt>
      <trkpt lat="45.99593" lon="4.89444">
        <ele>290</ele>
        <time>2017-04-21T09:53:33Z</time>
      </trkpt>
      <trkpt lat="45.99593" lon="4.8945">
        <ele>290</ele>
        <time>2017-04-21T09:53:34Z</time>
      </trkpt>
      <trkpt lat="45.99594" lon="4.89463">
        <ele>290</ele>
        <time>2017-04-21T09:53:36Z</time>
      </trkpt>
      <trkpt lat="45.99595" lon="4.89469">
        <ele>290</ele>
        <time>2017-04-21T09:53:37Z</time>
      </trkpt>
      <trkpt lat="45.99595" lon="4.89482">
        <ele>290</ele>
        <time>2017-04-21T09:53:39Z</time>
      </trkpt>
      <trkpt lat="45.99596" lon="4.89488">
        <ele>290</ele>
        <time>2017-04-21T09:53:40Z</time>
      </trkpt>
      <trkpt lat="45.99596" lon="4.89495">
        <ele>290</ele>
        <time>2017-04-21T09:53:41Z</time>
      </trkpt>
      <trkpt lat="45.99597" lon="4.89502">
        <ele>290</ele>
        <time>2017-04-21T09:53:42Z</time>
      </trkpt>
      <trkpt lat="45.99597" lon="4.89509">
        <ele>290</ele>
        <time>2017-04-21T09:53:43Z</time>
      </trkpt>
      <trkpt lat="45.99597" lon="4.89515">
        <ele>290</ele>
        <time>2017-04-21T09:53:44Z</time>
      </trkpt>
      <trkpt lat="45.99598" lon="4.89527">
        <ele>291</ele>
        <time>2017-04-21T09:53:46Z</time>
      </trkpt>
      <trkpt lat="45.99598" lon="4.89533">
        <ele>291</ele>
        <time>2017-04-21T09:53:47Z</time>
      </trkpt>
      <trkpt lat="45.996" lon="4.89544">
        <ele>291</ele>
        <time>2017-04-21T09:53:50Z</time>
      </trkpt>
      <trkpt lat="45.996" lon="4.89545">
        <ele>291</ele>
        <time>2017-04-21T09:53:51Z</time>
      </trkpt>
      <trkpt lat="45.99601" lon="4.89545">
        <ele>291</ele>
        <time>2017-04-21T09:54:27Z</time>
      </trkpt>
      <trkpt lat="45.99605" lon="4.89541">
        <ele>291</ele>
        <time>2017-04-21T09:54:28Z</time>
      </trkpt>
      <trkpt lat="45.99602" lon="4.89548">
        <ele>291</ele>
        <time>2017-04-21T09:57:05Z</time>
      </trkpt>
      <trkpt lat="45.99602" lon="4.89553">
        <ele>291</ele>
        <time>2017-04-21T09:57:06Z</time>
      </trkpt>
      <trkpt lat="45.99603" lon="4.89564">
        <ele>291</ele>
        <time>2017-04-21T09:57:09Z</time>
      </trkpt>
      <trkpt lat="45.99603" lon="4.89568">
        <ele>291</ele>
        <time>2017-04-21T09:57:10Z</time>
      </trkpt>
      <trkpt lat="45.99603" lon="4.8958">
        <ele>291</ele>
        <time>2017-04-21T09:57:15Z</time>
      </trkpt>
      <trkpt lat="45.99603" lon="4.89582">
        <ele>291</ele>
        <time>2017-04-21T09:57:16Z</time>
      </trkpt>
      <trkpt lat="45.99604" lon="4.89571">
        <ele>291</ele>
        <time>2017-04-21T09:57:33Z</time>
      </trkpt>
      <trkpt lat="45.99605" lon="4.8957">
        <ele>291</ele>
        <time>2017-04-21T09:57:34Z</time>
      </trkpt>
      <trkpt lat="45.99614" lon="4.89566">
        <ele>291</ele>
        <time>2017-04-21T09:57:39Z</time>
      </trkpt>
      <trkpt lat="45.99615" lon="4.89566">
        <ele>291</ele>
        <time>2017-04-21T09:57:40Z</time>
      </trkpt>
      <trkpt lat="45.99624" lon="4.89563">
        <ele>291</ele>
        <time>2017-04-21T09:57:45Z</time>
      </trkpt>
      <trkpt lat="45.99625" lon="4.89562">
        <ele>291</ele>
        <time>2017-04-21T09:57:46Z</time>
      </trkpt>
      <trkpt lat="45.99634" lon="4.89558">
        <ele>291</ele>
        <time>2017-04-21T09:59:13Z</time>
      </trkpt>
      <trkpt lat="45.99636" lon="4.89557">
        <ele>291</ele>
        <time>2017-04-21T09:59:14Z</time>
      </trkpt>
      <trkpt lat="45.99645" lon="4.89557">
        <ele>291</ele>
        <time>2017-04-21T09:59:20Z</time>
      </trkpt>
      <trkpt lat="45.99646" lon="4.89557">
        <ele>291</ele>
        <time>2017-04-21T09:59:21Z</time>
      </trkpt>
      <trkpt lat="45.99654" lon="4.89555">
        <ele>291</ele>
        <time>2017-04-21T09:59:25Z</time>
      </trkpt>
      <trkpt lat="45.99656" lon="4.89554">
        <ele>291</ele>
        <time>2017-04-21T09:59:26Z</time>
      </trkpt>
      <trkpt lat="45.99664" lon="4.89554">
        <ele>291</ele>
        <time>2017-04-21T09:59:31Z</time>
      </trkpt>
      <trkpt lat="45.99665" lon="4.89555">
        <ele>291</ele>
        <time>2017-04-21T09:59:32Z</time>
      </trkpt>
      <trkpt lat="45.99673" lon="4.89556">
        <ele>290</ele>
        <time>2017-04-21T10:00:37Z</time>
      </trkpt>
      <trkpt lat="45.99677" lon="4.89555">
        <ele>290</ele>
        <time>2017-04-21T10:00:38Z</time>
      </trkpt>
      <trkpt lat="45.99685" lon="4.89561">
        <ele>290</ele>
        <time>2017-04-21T10:00:49Z</time>
      </trkpt>
      <trkpt lat="45.99686" lon="4.89561">
        <ele>290</ele>
        <time>2017-04-21T10:00:50Z</time>
      </trkpt>
      <trkpt lat="45.99678" lon="4.89556">
        <ele>290</ele>
        <time>2017-04-21T10:02:12Z</time>
      </trkpt>
      <trkpt lat="45.99677" lon="4.89556">
        <ele>290</ele>
        <time>2017-04-21T10:02:13Z</time>
      </trkpt>
      <trkpt lat="45.9967" lon="4.89558">
        <ele>290</ele>
        <time>2017-04-21T10:02:17Z</time>
      </trkpt>
      <trkpt lat="45.99668" lon="4.89558">
        <ele>290</ele>
        <time>2017-04-21T10:02:18Z</time>
      </trkpt>
      <trkpt lat="45.9966" lon="4.8956">
        <ele>291</ele>
        <time>2017-04-21T10:02:23Z</time>
      </trkpt>
      <trkpt lat="45.99658" lon="4.8956">
        <ele>291</ele>
        <time>2017-04-21T10:02:24Z</time>
      </trkpt>
      <trkpt lat="45.99649" lon="4.89561">
        <ele>291</ele>
        <time>2017-04-21T10:02:28Z</time>
      </trkpt>
      <trkpt lat="45.99647" lon="4.89561">
        <ele>291</ele>
        <time>2017-04-21T10:02:29Z</time>
      </trkpt>
      <trkpt lat="45.9964" lon="4.89563">
        <ele>291</ele>
        <time>2017-04-21T10:02:32Z</time>
      </trkpt>
      <trkpt lat="45.99638" lon="4.89564">
        <ele>291</ele>
        <time>2017-04-21T10:02:33Z</time>
      </trkpt>
      <trkpt lat="45.9963" lon="4.89565">
        <ele>291</ele>
        <time>2017-04-21T10:02:37Z</time>
      </trkpt>
      <trkpt lat="45.99628" lon="4.89566">
        <ele>291</ele>
        <time>2017-04-21T10:02:38Z</time>
      </trkpt>
      <trkpt lat="45.99619" lon="4.89566">
        <ele>291</ele>
        <time>2017-04-21T10:02:42Z</time>
      </trkpt>
      <trkpt lat="45.99616" lon="4.89566">
        <ele>291</ele>
        <time>2017-04-21T10:02:43Z</time>
      </trkpt>
      <trkpt lat="45.99608" lon="4.89572">
        <ele>291</ele>
        <time>2017-04-21T10:02:47Z</time>
      </trkpt>
      <trkpt lat="45.99607" lon="4.89573">
        <ele>291</ele>
        <time>2017-04-21T10:02:48Z</time>
      </trkpt>
      <trkpt lat="45.99606" lon="4.89583">
        <ele>291</ele>
        <time>2017-04-21T10:02:51Z</time>
      </trkpt>
      <trkpt lat="45.99605" lon="4.89587">
        <ele>292</ele>
        <time>2017-04-21T10:02:52Z</time>
      </trkpt>
      <trkpt lat="45.99606" lon="4.89597">
        <ele>292</ele>
        <time>2017-04-21T10:02:54Z</time>
      </trkpt>
      <trkpt lat="45.99607" lon="4.89604">
        <ele>291</ele>
        <time>2017-04-21T10:02:55Z</time>
      </trkpt>
      <trkpt lat="45.99606" lon="4.89616">
        <ele>291</ele>
        <time>2017-04-21T10:02:57Z</time>
      </trkpt>
      <trkpt lat="45.99607" lon="4.89622">
        <ele>291</ele>
        <time>2017-04-21T10:02:58Z</time>
      </trkpt>
      <trkpt lat="45.99608" lon="4.89634">
        <ele>291</ele>
        <time>2017-04-21T10:03:00Z</time>
      </trkpt>
      <trkpt lat="45.99608" lon="4.8964">
        <ele>291</ele>
        <time>2017-04-21T10:03:01Z</time>
      </trkpt>
      <trkpt lat="45.99608" lon="4.89646">
        <ele>291</ele>
        <time>2017-04-21T10:03:02Z</time>
      </trkpt>
      <trkpt lat="45.99608" lon="4.89653">
        <ele>291</ele>
        <time>2017-04-21T10:03:03Z</time>
      </trkpt>
      <trkpt lat="45.99608" lon="4.8966">
        <ele>291</ele>
        <time>2017-04-21T10:03:04Z</time>
      </trkpt>
      <trkpt lat="45.99607" lon="4.89667">
        <ele>291</ele>
        <time>2017-04-21T10:03:05Z</time>
      </trkpt>
      <trkpt lat="45.99607" lon="4.89674">
        <ele>291</ele>
        <time>2017-04-21T10:03:06Z</time>
      </trkpt>
      <trkpt lat="45.99607" lon="4.89681">
        <ele>291</ele>
        <time>2017-04-21T10:03:07Z</time>
      </trkpt>
      <trkpt lat="45.99607" lon="4.89688">
        <ele>291</ele>
        <time>2017-04-21T10:03:08Z</time>
      </trkpt>
      <trkpt lat="45.99607" lon="4.89694">
        <ele>291</ele>
        <time>2017-04-21T10:03:09Z</time>
      </trkpt>
      <trkpt lat="45.99606" lon="4.89706">
        <ele>292</ele>
        <time>2017-04-21T10:03:11Z</time>
      </trkpt>
      <trkpt lat="45.99606" lon="4.89711">
        <ele>292</ele>
        <time>2017-04-21T10:03:12Z</time>
      </trkpt>
      <trkpt lat="45.99605" lon="4.89723">
        <ele>292</ele>
        <time>2017-04-21T10:03:14Z</time>
      </trkpt>
      <trkpt lat="45.99604" lon="4.8973">
        <ele>292</ele>
        <time>2017-04-21T10:03:15Z</time>
      </trkpt>
      <trkpt lat="45.99603" lon="4.89737">
        <ele>292</ele>
        <time>2017-04-21T10:03:16Z</time>
      </trkpt>
      <trkpt lat="45.99603" lon="4.89744">
        <ele>292</ele>
        <time>2017-04-21T10:03:17Z</time>
      </trkpt>
      <trkpt lat="45.99601" lon="4.8975">
        <ele>292</ele>
        <time>2017-04-21T10:03:18Z</time>
      </trkpt>
      <trkpt lat="45.996" lon="4.89757">
        <ele>292</ele>
        <time>2017-04-21T10:03:19Z</time>
      </trkpt>
      <trkpt lat="45.99599" lon="4.89768">
        <ele>292</ele>
        <time>2017-04-21T10:03:21Z</time>
      </trkpt>
      <trkpt lat="45.99599" lon="4.89774">
        <ele>292</ele>
        <time>2017-04-21T10:03:22Z</time>
      </trkpt>
      <trkpt lat="45.99598" lon="4.89786">
        <ele>292</ele>
        <time>2017-04-21T10:03:24Z</time>
      </trkpt>
      <trkpt lat="45.99599" lon="4.89792">
        <ele>292</ele>
        <time>2017-04-21T10:03:25Z</time>
      </trkpt>
      <trkpt lat="45.99599" lon="4.89803">
        <ele>292</ele>
        <time>2017-04-21T10:03:27Z</time>
      </trkpt>
      <trkpt lat="45.99599" lon="4.89808">
        <ele>292</ele>
        <time>2017-04-21T10:03:28Z</time>
      </trkpt>
      <trkpt lat="45.99599" lon="4.89818">
        <ele>292</ele>
        <time>2017-04-21T10:03:30Z</time>
      </trkpt>
      <trkpt lat="45.996" lon="4.89824">
        <ele>293</ele>
        <time>2017-04-21T10:03:31Z</time>
      </trkpt>
      <trkpt lat="45.996" lon="4.8983">
        <ele>293</ele>
        <time>2017-04-21T10:03:32Z</time>
      </trkpt>
      <trkpt lat="45.996" lon="4.89838">
        <ele>293</ele>
        <time>2017-04-21T10:03:33Z</time>
      </trkpt>
      <trkpt lat="45.996" lon="4.89844">
        <ele>293</ele>
        <time>2017-04-21T10:03:34Z</time>
      </trkpt>
      <trkpt lat="45.996" lon="4.89852">
        <ele>293</ele>
        <time>2017-04-21T10:03:35Z</time>
      </trkpt>
      <trkpt lat="45.996" lon="4.8986">
        <ele>293</ele>
        <time>2017-04-21T10:03:36Z</time>
      </trkpt>
      <trkpt lat="45.996" lon="4.89867">
        <ele>293</ele>
        <time>2017-04-21T10:03:37Z</time>
      </trkpt>
      <trkpt lat="45.99601" lon="4.89875">
        <ele>293</ele>
        <time>2017-04-21T10:03:38Z</time>
      </trkpt>
      <trkpt lat="45.99601" lon="4.89882">
        <ele>292</ele>
        <time>2017-04-21T10:03:39Z</time>
      </trkpt>
      <trkpt lat="45.99601" lon="4.89888">
        <ele>292</ele>
        <time>2017-04-21T10:03:40Z</time>
      </trkpt>
      <trkpt lat="45.996" lon="4.89895">
        <ele>292</ele>
        <time>2017-04-21T10:03:41Z</time>
      </trkpt>
      <trkpt lat="45.996" lon="4.89907">
        <ele>292</ele>
        <time>2017-04-21T10:03:43Z</time>
      </trkpt>
      <trkpt lat="45.996" lon="4.89913">
        <ele>292</ele>
        <time>2017-04-21T10:03:44Z</time>
      </trkpt>
      <trkpt lat="45.996" lon="4.8992">
        <ele>293</ele>
        <time>2017-04-21T10:03:45Z</time>
      </trkpt>
      <trkpt lat="45.996" lon="4.89926">
        <ele>293</ele>
        <time>2017-04-21T10:03:46Z</time>
      </trkpt>
      <trkpt lat="45.996" lon="4.89933">
        <ele>293</ele>
        <time>2017-04-21T10:03:47Z</time>
      </trkpt>
      <trkpt lat="45.996" lon="4.8994">
        <ele>293</ele>
        <time>2017-04-21T10:03:48Z</time>
      </trkpt>
      <trkpt lat="45.99601" lon="4.89948">
        <ele>294</ele>
        <time>2017-04-21T10:03:49Z</time>
      </trkpt>
      <trkpt lat="45.99601" lon="4.89956">
        <ele>294</ele>
        <time>2017-04-21T10:03:50Z</time>
      </trkpt>
      <trkpt lat="45.99602" lon="4.89963">
        <ele>294</ele>
        <time>2017-04-21T10:03:51Z</time>
      </trkpt>
      <trkpt lat="45.99603" lon="4.89969">
        <ele>294</ele>
        <time>2017-04-21T10:03:52Z</time>
      </trkpt>
      <trkpt lat="45.99604" lon="4.89976">
        <ele>294</ele>
        <time>2017-04-21T10:03:53Z</time>
      </trkpt>
      <trkpt lat="45.99605" lon="4.89984">
        <ele>294</ele>
        <time>2017-04-21T10:03:54Z</time>
      </trkpt>
      <trkpt lat="45.99606" lon="4.89991">
        <ele>294</ele>
        <time>2017-04-21T10:03:55Z</time>
      </trkpt>
      <trkpt lat="45.99607" lon="4.89998">
        <ele>295</ele>
        <time>2017-04-21T10:03:56Z</time>
      </trkpt>
      <trkpt lat="45.99609" lon="4.9001">
        <ele>296</ele>
        <time>2017-04-21T10:03:58Z</time>
      </trkpt>
      <trkpt lat="45.9961" lon="4.90015">
        <ele>296</ele>
        <time>2017-04-21T10:03:59Z</time>
      </trkpt>
      <trkpt lat="45.99612" lon="4.90024">
        <ele>296</ele>
        <time>2017-04-21T10:04:01Z</time>
      </trkpt>
      <trkpt lat="45.99614" lon="4.90027">
        <ele>296</ele>
        <time>2017-04-21T10:04:02Z</time>
      </trkpt>
      <trkpt lat="45.99616" lon="4.90037">
        <ele>296</ele>
        <time>2017-04-21T10:04:04Z</time>
      </trkpt>
      <trkpt lat="45.99618" lon="4.90043">
        <ele>296</ele>
        <time>2017-04-21T10:04:05Z</time>
      </trkpt>
      <trkpt lat="45.99621" lon="4.90052">
        <ele>297</ele>
        <time>2017-04-21T10:04:07Z</time>
      </trkpt>
      <trkpt lat="45.99623" lon="4.90057">
        <ele>297</ele>
        <time>2017-04-21T10:04:08Z</time>
      </trkpt>
      <trkpt lat="45.99627" lon="4.90066">
        <ele>297</ele>
        <time>2017-04-21T10:04:10Z</time>
      </trkpt>
      <trkpt lat="45.9963" lon="4.9007">
        <ele>297</ele>
        <time>2017-04-21T10:04:11Z</time>
      </trkpt>
      <trkpt lat="45.99633" lon="4.9008">
        <ele>297</ele>
        <time>2017-04-21T10:04:13Z</time>
      </trkpt>
      <trkpt lat="45.99634" lon="4.90085">
        <ele>298</ele>
        <time>2017-04-21T10:04:14Z</time>
      </trkpt>
      <trkpt lat="45.99637" lon="4.90094">
        <ele>299</ele>
        <time>2017-04-21T10:04:16Z</time>
      </trkpt>
      <trkpt lat="45.99639" lon="4.90099">
        <ele>299</ele>
        <time>2017-04-21T10:04:17Z</time>
      </trkpt>
      <trkpt lat="45.99641" lon="4.9011">
        <ele>299</ele>
        <time>2017-04-21T10:04:19Z</time>
      </trkpt>
      <trkpt lat="45.99642" lon="4.90117">
        <ele>299</ele>
        <time>2017-04-21T10:04:20Z</time>
      </trkpt>
      <trkpt lat="45.99645" lon="4.90125">
        <ele>299</ele>
        <time>2017-04-21T10:04:22Z</time>
      </trkpt>
      <trkpt lat="45.99647" lon="4.90131">
        <ele>299</ele>
        <time>2017-04-21T10:04:23Z</time>
      </trkpt>
      <trkpt lat="45.99649" lon="4.90141">
        <ele>300</ele>
        <time>2017-04-21T10:04:25Z</time>
      </trkpt>
      <trkpt lat="45.9965" lon="4.90146">
        <ele>300</ele>
        <time>2017-04-21T10:04:26Z</time>
      </trkpt>
      <trkpt lat="45.99651" lon="4.90156">
        <ele>300</ele>
        <time>2017-04-21T10:04:28Z</time>
      </trkpt>
      <trkpt lat="45.99652" lon="4.90161">
        <ele>300</ele>
        <time>2017-04-21T10:04:29Z</time>
      </trkpt>
      <trkpt lat="45.99654" lon="4.9017">
        <ele>301</ele>
        <time>2017-04-21T10:04:31Z</time>
      </trkpt>
      <trkpt lat="45.99656" lon="4.90174">
        <ele>301</ele>
        <time>2017-04-21T10:04:32Z</time>
      </trkpt>
      <trkpt lat="45.99659" lon="4.90184">
        <ele>301</ele>
        <time>2017-04-21T10:04:34Z</time>
      </trkpt>
      <trkpt lat="45.9966" lon="4.90189">
        <ele>301</ele>
        <time>2017-04-21T10:04:35Z</time>
      </trkpt>
      <trkpt lat="45.99662" lon="4.90199">
        <ele>301</ele>
        <time>2017-04-21T10:04:37Z</time>
      </trkpt>
      <trkpt lat="45.99663" lon="4.90203">
        <ele>302</ele>
        <time>2017-04-21T10:04:38Z</time>
      </trkpt>
      <trkpt lat="45.99666" lon="4.90213">
        <ele>302</ele>
        <time>2017-04-21T10:04:40Z</time>
      </trkpt>
      <trkpt lat="45.99667" lon="4.90218">
        <ele>303</ele>
        <time>2017-04-21T10:04:41Z</time>
      </trkpt>
      <trkpt lat="45.9967" lon="4.90227">
        <ele>304</ele>
        <time>2017-04-21T10:04:43Z</time>
      </trkpt>
      <trkpt lat="45.99671" lon="4.90232">
        <ele>304</ele>
        <time>2017-04-21T10:04:44Z</time>
      </trkpt>
      <trkpt lat="45.99672" lon="4.90243">
        <ele>304</ele>
        <time>2017-04-21T10:04:46Z</time>
      </trkpt>
      <trkpt lat="45.99672" lon="4.90248">
        <ele>304</ele>
        <time>2017-04-21T10:04:47Z</time>
      </trkpt>
      <trkpt lat="45.99673" lon="4.90259">
        <ele>304</ele>
        <time>2017-04-21T10:04:49Z</time>
      </trkpt>
      <trkpt lat="45.99672" lon="4.90265">
        <ele>304</ele>
        <time>2017-04-21T10:04:50Z</time>
      </trkpt>
      <trkpt lat="45.99672" lon="4.90278">
        <ele>304</ele>
        <time>2017-04-21T10:04:52Z</time>
      </trkpt>
      <trkpt lat="45.99671" lon="4.90285">
        <ele>304</ele>
        <time>2017-04-21T10:04:53Z</time>
      </trkpt>
      <trkpt lat="45.99671" lon="4.90292">
        <ele>304</ele>
        <time>2017-04-21T10:04:54Z</time>
      </trkpt>
      <trkpt lat="45.9967" lon="4.90298">
        <ele>304</ele>
        <time>2017-04-21T10:04:55Z</time>
      </trkpt>
      <trkpt lat="45.99669" lon="4.90309">
        <ele>304</ele>
        <time>2017-04-21T10:04:57Z</time>
      </trkpt>
      <trkpt lat="45.99669" lon="4.90313">
        <ele>304</ele>
        <time>2017-04-21T10:04:58Z</time>
      </trkpt>
      <trkpt lat="45.99669" lon="4.90325">
        <ele>303</ele>
        <time>2017-04-21T10:05:03Z</time>
      </trkpt>
      <trkpt lat="45.99669" lon="4.90327">
        <ele>303</ele>
        <time>2017-04-21T10:05:04Z</time>
      </trkpt>
      <trkpt lat="45.99677" lon="4.90326">
        <ele>303</ele>
        <time>2017-04-21T10:05:09Z</time>
      </trkpt>
      <trkpt lat="45.99679" lon="4.90326">
        <ele>303</ele>
        <time>2017-04-21T10:05:10Z</time>
      </trkpt>
      <trkpt lat="45.99681" lon="4.90334">
        <ele>302</ele>
        <time>2017-04-21T10:05:13Z</time>
      </trkpt>
      <trkpt lat="45.99682" lon="4.90339">
        <ele>302</ele>
        <time>2017-04-21T10:05:14Z</time>
      </trkpt>
      <trkpt lat="45.9968" lon="4.90351">
        <ele>302</ele>
        <time>2017-04-21T10:05:16Z</time>
      </trkpt>
      <trkpt lat="45.99679" lon="4.90358">
        <ele>302</ele>
        <time>2017-04-21T10:05:17Z</time>
      </trkpt>
      <trkpt lat="45.99678" lon="4.90365">
        <ele>302</ele>
        <time>2017-04-21T10:05:18Z</time>
      </trkpt>
      <trkpt lat="45.99677" lon="4.90372">
        <ele>302</ele>
        <time>2017-04-21T10:05:19Z</time>
      </trkpt>
      <trkpt lat="45.99676" lon="4.90379">
        <ele>302</ele>
        <time>2017-04-21T10:05:20Z</time>
      </trkpt>
      <trkpt lat="45.99676" lon="4.90387">
        <ele>302</ele>
        <time>2017-04-21T10:05:21Z</time>
      </trkpt>
      <trkpt lat="45.99673" lon="4.90395">
        <ele>302</ele>
        <time>2017-04-21T10:05:22Z</time>
      </trkpt>
      <trkpt lat="45.9967" lon="4.90405">
        <ele>302</ele>
        <time>2017-04-21T10:05:23Z</time>
      </trkpt>
      <trkpt lat="45.99666" lon="4.90416">
        <ele>301</ele>
        <time>2017-04-21T10:05:25Z</time>
      </trkpt>
      <trkpt lat="45.99664" lon="4.90421">
        <ele>301</ele>
        <time>2017-04-21T10:05:26Z</time>
      </trkpt>
      <trkpt lat="45.99659" lon="4.9043">
        <ele>300</ele>
        <time>2017-04-21T10:05:28Z</time>
      </trkpt>
      <trkpt lat="45.99656" lon="4.90432">
        <ele>300</ele>
        <time>2017-04-21T10:05:29Z</time>
      </trkpt>
      <trkpt lat="45.99649" lon="4.90439">
        <ele>300</ele>
        <time>2017-04-21T10:05:31Z</time>
      </trkpt>
      <trkpt lat="45.99645" lon="4.90441">
        <ele>300</ele>
        <time>2017-04-21T10:05:32Z</time>
      </trkpt>
      <trkpt lat="45.99641" lon="4.90443">
        <ele>300</ele>
        <time>2017-04-21T10:05:33Z</time>
      </trkpt>
      <trkpt lat="45.99636" lon="4.90444">
        <ele>300</ele>
        <time>2017-04-21T10:05:34Z</time>
      </trkpt>
      <trkpt lat="45.99631" lon="4.90445">
        <ele>300</ele>
        <time>2017-04-21T10:05:35Z</time>
      </trkpt>
      <trkpt lat="45.99626" lon="4.90446">
        <ele>300</ele>
        <time>2017-04-21T10:05:36Z</time>
      </trkpt>
      <trkpt lat="45.99621" lon="4.90447">
        <ele>300</ele>
        <time>2017-04-21T10:05:37Z</time>
      </trkpt>
      <trkpt lat="45.99617" lon="4.90448">
        <ele>300</ele>
        <time>2017-04-21T10:05:38Z</time>
      </trkpt>
      <trkpt lat="45.99612" lon="4.90449">
        <ele>300</ele>
        <time>2017-04-21T10:05:39Z</time>
      </trkpt>
      <trkpt lat="45.99607" lon="4.9045">
        <ele>300</ele>
        <time>2017-04-21T10:05:40Z</time>
      </trkpt>
      <trkpt lat="45.99601" lon="4.90452">
        <ele>300</ele>
        <time>2017-04-21T10:05:41Z</time>
      </trkpt>
      <trkpt lat="45.99597" lon="4.90455">
        <ele>300</ele>
        <time>2017-04-21T10:05:42Z</time>
      </trkpt>
      <trkpt lat="45.99592" lon="4.90457">
        <ele>300</ele>
        <time>2017-04-21T10:05:43Z</time>
      </trkpt>
      <trkpt lat="45.99587" lon="4.9046">
        <ele>300</ele>
        <time>2017-04-21T10:05:44Z</time>
      </trkpt>
      <trkpt lat="45.99583" lon="4.90463">
        <ele>299</ele>
        <time>2017-04-21T10:05:45Z</time>
      </trkpt>
      <trkpt lat="45.99579" lon="4.90468">
        <ele>299</ele>
        <time>2017-04-21T10:05:46Z</time>
      </trkpt>
      <trkpt lat="45.99576" lon="4.90473">
        <ele>299</ele>
        <time>2017-04-21T10:05:47Z</time>
      </trkpt>
      <trkpt lat="45.99572" lon="4.90477">
        <ele>299</ele>
        <time>2017-04-21T10:05:48Z</time>
      </trkpt>
      <trkpt lat="45.99569" lon="4.90482">
        <ele>299</ele>
        <time>2017-04-21T10:05:49Z</time>
      </trkpt>
      <trkpt lat="45.99565" lon="4.90486">
        <ele>299</ele>
        <time>2017-04-21T10:05:50Z</time>
      </trkpt>
      <trkpt lat="45.99562" lon="4.9049">
        <ele>299</ele>
        <time>2017-04-21T10:05:51Z</time>
      </trkpt>
      <trkpt lat="45.99557" lon="4.90495">
        <ele>299</ele>
        <time>2017-04-21T10:05:52Z</time>
      </trkpt>
      <trkpt lat="45.99551" lon="4.90499">
        <ele>299</ele>
        <time>2017-04-21T10:05:53Z</time>
      </trkpt>
      <trkpt lat="45.99547" lon="4.90504">
        <ele>299</ele>
        <time>2017-04-21T10:05:54Z</time>
      </trkpt>
      <trkpt lat="45.99542" lon="4.90509">
        <ele>299</ele>
        <time>2017-04-21T10:05:55Z</time>
      </trkpt>
      <trkpt lat="45.99538" lon="4.90515">
        <ele>299</ele>
        <time>2017-04-21T10:05:56Z</time>
      </trkpt>
      <trkpt lat="45.99533" lon="4.90521">
        <ele>299</ele>
        <time>2017-04-21T10:05:57Z</time>
      </trkpt>
      <trkpt lat="45.99528" lon="4.90527">
        <ele>299</ele>
        <time>2017-04-21T10:05:58Z</time>
      </trkpt>
      <trkpt lat="45.99523" lon="4.90532">
        <ele>299</ele>
        <time>2017-04-21T10:05:59Z</time>
      </trkpt>
      <trkpt lat="45.99518" lon="4.90538">
        <ele>299</ele>
        <time>2017-04-21T10:06:00Z</time>
      </trkpt>
      <trkpt lat="45.99513" lon="4.90544">
        <ele>299</ele>
        <time>2017-04-21T10:06:01Z</time>
      </trkpt>
      <trkpt lat="45.99508" lon="4.90549">
        <ele>299</ele>
        <time>2017-04-21T10:06:02Z</time>
      </trkpt>
      <trkpt lat="45.99503" lon="4.90554">
        <ele>299</ele>
        <time>2017-04-21T10:06:03Z</time>
      </trkpt>
      <trkpt lat="45.99499" lon="4.9056">
        <ele>299</ele>
        <time>2017-04-21T10:06:04Z</time>
      </trkpt>
      <trkpt lat="45.99495" lon="4.90565">
        <ele>299</ele>
        <time>2017-04-21T10:06:05Z</time>
      </trkpt>
      <trkpt lat="45.9949" lon="4.9057">
        <ele>299</ele>
        <time>2017-04-21T10:06:06Z</time>
      </trkpt>
      <trkpt lat="45.99486" lon="4.90576">
        <ele>299</ele>
        <time>2017-04-21T10:06:07Z</time>
      </trkpt>
      <trkpt lat="45.99482" lon="4.90581">
        <ele>299</ele>
        <time>2017-04-21T10:06:08Z</time>
      </trkpt>
      <trkpt lat="45.99477" lon="4.90586">
        <ele>298</ele>
        <time>2017-04-21T10:06:09Z</time>
      </trkpt>
      <trkpt lat="45.99474" lon="4.90592">
        <ele>298</ele>
        <time>2017-04-21T10:06:10Z</time>
      </trkpt>
      <trkpt lat="45.9947" lon="4.90597">
        <ele>298</ele>
        <time>2017-04-21T10:06:11Z</time>
      </trkpt>
      <trkpt lat="45.99466" lon="4.90602">
        <ele>298</ele>
        <time>2017-04-21T10:06:12Z</time>
      </trkpt>
      <trkpt lat="45.99463" lon="4.90608">
        <ele>298</ele>
        <time>2017-04-21T10:06:13Z</time>
      </trkpt>
      <trkpt lat="45.99459" lon="4.90613">
        <ele>298</ele>
        <time>2017-04-21T10:06:14Z</time>
      </trkpt>
      <trkpt lat="45.99455" lon="4.90617">
        <ele>298</ele>
        <time>2017-04-21T10:06:15Z</time>
      </trkpt>
      <trkpt lat="45.99451" lon="4.90622">
        <ele>298</ele>
        <time>2017-04-21T10:06:16Z</time>
      </trkpt>
      <trkpt lat="45.99446" lon="4.90626">
        <ele>298</ele>
        <time>2017-04-21T10:06:17Z</time>
      </trkpt>
      <trkpt lat="45.99442" lon="4.90632">
        <ele>298</ele>
        <time>2017-04-21T10:06:18Z</time>
      </trkpt>
      <trkpt lat="45.99439" lon="4.90637">
        <ele>298</ele>
        <time>2017-04-21T10:06:19Z</time>
      </trkpt>
      <trkpt lat="45.99435" lon="4.90642">
        <ele>298</ele>
        <time>2017-04-21T10:06:20Z</time>
      </trkpt>
      <trkpt lat="45.99431" lon="4.90647">
        <ele>298</ele>
        <time>2017-04-21T10:06:21Z</time>
      </trkpt>
      <trkpt lat="45.99427" lon="4.90652">
        <ele>298</ele>
        <time>2017-04-21T10:06:22Z</time>
      </trkpt>
      <trkpt lat="45.99423" lon="4.90657">
        <ele>298</ele>
        <time>2017-04-21T10:06:23Z</time>
      </trkpt>
      <trkpt lat="45.99419" lon="4.90662">
        <ele>298</ele>
        <time>2017-04-21T10:06:24Z</time>
      </trkpt>
      <trkpt lat="45.99413" lon="4.90667">
        <ele>298</ele>
        <time>2017-04-21T10:06:25Z</time>
      </trkpt>
      <trkpt lat="45.99409" lon="4.90671">
        <ele>298</ele>
        <time>2017-04-21T10:06:26Z</time>
      </trkpt>
      <trkpt lat="45.99405" lon="4.90675">
        <ele>298</ele>
        <time>2017-04-21T10:06:27Z</time>
      </trkpt>
      <trkpt lat="45.994" lon="4.90679">
        <ele>298</ele>
        <time>2017-04-21T10:06:28Z</time>
      </trkpt>
      <trkpt lat="45.99396" lon="4.90683">
        <ele>298</ele>
        <time>2017-04-21T10:06:29Z</time>
      </trkpt>
      <trkpt lat="45.99393" lon="4.90687">
        <ele>298</ele>
        <time>2017-04-21T10:06:30Z</time>
      </trkpt>
      <trkpt lat="45.99389" lon="4.90691">
        <ele>298</ele>
        <time>2017-04-21T10:06:31Z</time>
      </trkpt>
      <trkpt lat="45.99386" lon="4.90696">
        <ele>298</ele>
        <time>2017-04-21T10:06:32Z</time>
      </trkpt>
      <trkpt lat="45.99382" lon="4.90701">
        <ele>298</ele>
        <time>2017-04-21T10:06:33Z</time>
      </trkpt>
      <trkpt lat="45.99378" lon="4.90705">
        <ele>298</ele>
        <time>2017-04-21T10:06:34Z</time>
      </trkpt>
      <trkpt lat="45.99374" lon="4.9071">
        <ele>299</ele>
        <time>2017-04-21T10:06:35Z</time>
      </trkpt>
      <trkpt lat="45.9937" lon="4.90714">
        <ele>299</ele>
        <time>2017-04-21T10:06:36Z</time>
      </trkpt>
      <trkpt lat="45.99364" lon="4.90723">
        <ele>299</ele>
        <time>2017-04-21T10:06:38Z</time>
      </trkpt>
      <trkpt lat="45.99361" lon="4.90727">
        <ele>299</ele>
        <time>2017-04-21T10:06:39Z</time>
      </trkpt>
      <trkpt lat="45.99354" lon="4.90733">
        <ele>299</ele>
        <time>2017-04-21T10:06:41Z</time>
      </trkpt>
      <trkpt lat="45.99351" lon="4.90736">
        <ele>299</ele>
        <time>2017-04-21T10:06:42Z</time>
      </trkpt>
      <trkpt lat="45.99345" lon="4.90744">
        <ele>299</ele>
        <time>2017-04-21T10:06:44Z</time>
      </trkpt>
      <trkpt lat="45.99342" lon="4.90748">
        <ele>300</ele>
        <time>2017-04-21T10:06:45Z</time>
      </trkpt>
      <trkpt lat="45.99336" lon="4.90755">
        <ele>300</ele>
        <time>2017-04-21T10:06:47Z</time>
      </trkpt>
      <trkpt lat="45.99333" lon="4.90758">
        <ele>300</ele>
        <time>2017-04-21T10:06:48Z</time>
      </trkpt>
      <trkpt lat="45.99327" lon="4.90765">
        <ele>300</ele>
        <time>2017-04-21T10:06:50Z</time>
      </trkpt>
      <trkpt lat="45.99324" lon="4.90769">
        <ele>300</ele>
        <time>2017-04-21T10:06:51Z</time>
      </trkpt>
      <trkpt lat="45.99318" lon="4.90777">
        <ele>300</ele>
        <time>2017-04-21T10:06:53Z</time>
      </trkpt>
      <trkpt lat="45.99315" lon="4.90781">
        <ele>300</ele>
        <time>2017-04-21T10:06:54Z</time>
      </trkpt>
      <trkpt lat="45.99311" lon="4.90786">
        <ele>300</ele>
        <time>2017-04-21T10:06:55Z</time>
      </trkpt>
      <trkpt lat="45.99308" lon="4.90791">
        <ele>300</ele>
        <time>2017-04-21T10:06:56Z</time>
      </trkpt>
      <trkpt lat="45.99304" lon="4.90795">
        <ele>300</ele>
        <time>2017-04-21T10:06:57Z</time>
      </trkpt>
      <trkpt lat="45.993" lon="4.908">
        <ele>300</ele>
        <time>2017-04-21T10:06:58Z</time>
      </trkpt>
      <trkpt lat="45.99296" lon="4.90804">
        <ele>300</ele>
        <time>2017-04-21T10:06:59Z</time>
      </trkpt>
      <trkpt lat="45.99291" lon="4.90809">
        <ele>300</ele>
        <time>2017-04-21T10:07:00Z</time>
      </trkpt>
      <trkpt lat="45.99286" lon="4.90814">
        <ele>300</ele>
        <time>2017-04-21T10:07:01Z</time>
      </trkpt>
      <trkpt lat="45.99282" lon="4.9082">
        <ele>300</ele>
        <time>2017-04-21T10:07:02Z</time>
      </trkpt>
      <trkpt lat="45.99278" lon="4.90825">
        <ele>300</ele>
        <time>2017-04-21T10:07:03Z</time>
      </trkpt>
      <trkpt lat="45.99274" lon="4.9083">
        <ele>300</ele>
        <time>2017-04-21T10:07:04Z</time>
      </trkpt>
      <trkpt lat="45.9927" lon="4.90835">
        <ele>300</ele>
        <time>2017-04-21T10:07:05Z</time>
      </trkpt>
      <trkpt lat="45.99265" lon="4.9084">
        <ele>300</ele>
        <time>2017-04-21T10:07:06Z</time>
      </trkpt>
      <trkpt lat="45.99262" lon="4.90845">
        <ele>300</ele>
        <time>2017-04-21T10:07:07Z</time>
      </trkpt>
      <trkpt lat="45.99258" lon="4.9085">
        <ele>300</ele>
        <time>2017-04-21T10:07:08Z</time>
      </trkpt>
      <trkpt lat="45.99254" lon="4.90855">
        <ele>300</ele>
        <time>2017-04-21T10:07:09Z</time>
      </trkpt>
      <trkpt lat="45.9925" lon="4.9086">
        <ele>300</ele>
        <time>2017-04-21T10:07:10Z</time>
      </trkpt>
      <trkpt lat="45.99246" lon="4.90865">
        <ele>300</ele>
        <time>2017-04-21T10:07:11Z</time>
      </trkpt>
      <trkpt lat="45.99243" lon="4.9087">
        <ele>300</ele>
        <time>2017-04-21T10:07:12Z</time>
      </trkpt>
      <trkpt lat="45.99239" lon="4.90875">
        <ele>300</ele>
        <time>2017-04-21T10:07:13Z</time>
      </trkpt>
      <trkpt lat="45.99235" lon="4.9088">
        <ele>299</ele>
        <time>2017-04-21T10:07:14Z</time>
      </trkpt>
      <trkpt lat="45.99232" lon="4.90885">
        <ele>299</ele>
        <time>2017-04-21T10:07:15Z</time>
      </trkpt>
      <trkpt lat="45.99228" lon="4.90889">
        <ele>299</ele>
        <time>2017-04-21T10:07:16Z</time>
      </trkpt>
      <trkpt lat="45.99224" lon="4.90894">
        <ele>299</ele>
        <time>2017-04-21T10:07:17Z</time>
      </trkpt>
      <trkpt lat="45.9922" lon="4.90899">
        <ele>299</ele>
        <time>2017-04-21T10:07:18Z</time>
      </trkpt>
      <trkpt lat="45.99217" lon="4.90904">
        <ele>299</ele>
        <time>2017-04-21T10:07:19Z</time>
      </trkpt>
      <trkpt lat="45.99213" lon="4.90909">
        <ele>299</ele>
        <time>2017-04-21T10:07:20Z</time>
      </trkpt>
      <trkpt lat="45.99209" lon="4.90914">
        <ele>299</ele>
        <time>2017-04-21T10:07:21Z</time>
      </trkpt>
      <trkpt lat="45.99205" lon="4.90919">
        <ele>300</ele>
        <time>2017-04-21T10:07:22Z</time>
      </trkpt>
      <trkpt lat="45.99201" lon="4.90924">
        <ele>300</ele>
        <time>2017-04-21T10:07:23Z</time>
      </trkpt>
      <trkpt lat="45.99198" lon="4.90929">
        <ele>300</ele>
        <time>2017-04-21T10:07:24Z</time>
      </trkpt>
      <trkpt lat="45.99194" lon="4.90933">
        <ele>300</ele>
        <time>2017-04-21T10:07:25Z</time>
      </trkpt>
      <trkpt lat="45.9919" lon="4.90938">
        <ele>300</ele>
        <time>2017-04-21T10:07:26Z</time>
      </trkpt>
      <trkpt lat="45.99186" lon="4.90943">
        <ele>300</ele>
        <time>2017-04-21T10:07:27Z</time>
      </trkpt>
      <trkpt lat="45.99182" lon="4.90948">
        <ele>300</ele>
        <time>2017-04-21T10:07:28Z</time>
      </trkpt>
      <trkpt lat="45.99178" lon="4.90952">
        <ele>300</ele>
        <time>2017-04-21T10:07:29Z</time>
      </trkpt>
      <trkpt lat="45.99174" lon="4.90957">
        <ele>300</ele>
        <time>2017-04-21T10:07:30Z</time>
      </trkpt>
      <trkpt lat="45.9917" lon="4.90963">
        <ele>300</ele>
        <time>2017-04-21T10:07:31Z</time>
      </trkpt>
      <trkpt lat="45.99166" lon="4.90968">
        <ele>300</ele>
        <time>2017-04-21T10:07:32Z</time>
      </trkpt>
      <trkpt lat="45.99162" lon="4.90973">
        <ele>300</ele>
        <time>2017-04-21T10:07:33Z</time>
      </trkpt>
      <trkpt lat="45.99158" lon="4.90978">
        <ele>301</ele>
        <time>2017-04-21T10:07:34Z</time>
      </trkpt>
      <trkpt lat="45.99155" lon="4.90983">
        <ele>301</ele>
        <time>2017-04-21T10:07:35Z</time>
      </trkpt>
      <trkpt lat="45.99151" lon="4.90988">
        <ele>301</ele>
        <time>2017-04-21T10:07:36Z</time>
      </trkpt>
      <trkpt lat="45.99147" lon="4.90993">
        <ele>301</ele>
        <time>2017-04-21T10:07:37Z</time>
      </trkpt>
      <trkpt lat="45.99142" lon="4.90999">
        <ele>301</ele>
        <time>2017-04-21T10:07:38Z</time>
      </trkpt>
      <trkpt lat="45.99138" lon="4.91004">
        <ele>301</ele>
        <time>2017-04-21T10:07:39Z</time>
      </trkpt>
      <trkpt lat="45.99133" lon="4.9101">
        <ele>301</ele>
        <time>2017-04-21T10:07:40Z</time>
      </trkpt>
      <trkpt lat="45.99128" lon="4.91016">
        <ele>301</ele>
        <time>2017-04-21T10:07:41Z</time>
      </trkpt>
      <trkpt lat="45.99123" lon="4.91022">
        <ele>301</ele>
        <time>2017-04-21T10:07:42Z</time>
      </trkpt>
      <trkpt lat="45.99119" lon="4.91027">
        <ele>301</ele>
        <time>2017-04-21T10:07:43Z</time>
      </trkpt>
      <trkpt lat="45.99112" lon="4.91032">
        <ele>301</ele>
        <time>2017-04-21T10:07:44Z</time>
      </trkpt>
      <trkpt lat="45.99108" lon="4.91038">
        <ele>301</ele>
        <time>2017-04-21T10:07:45Z</time>
      </trkpt>
      <trkpt lat="45.99102" lon="4.91043">
        <ele>301</ele>
        <time>2017-04-21T10:07:46Z</time>
      </trkpt>
      <trkpt lat="45.99098" lon="4.91048">
        <ele>301</ele>
        <time>2017-04-21T10:07:47Z</time>
      </trkpt>
      <trkpt lat="45.99093" lon="4.91054">
        <ele>301</ele>
        <time>2017-04-21T10:07:48Z</time>
      </trkpt>
      <trkpt lat="45.99089" lon="4.91059">
        <ele>300</ele>
        <time>2017-04-21T10:07:49Z</time>
      </trkpt>
      <trkpt lat="45.99084" lon="4.91064">
        <ele>300</ele>
        <time>2017-04-21T10:07:50Z</time>
      </trkpt>
      <trkpt lat="45.99079" lon="4.91069">
        <ele>300</ele>
        <time>2017-04-21T10:07:51Z</time>
      </trkpt>
      <trkpt lat="45.99075" lon="4.91074">
        <ele>300</ele>
        <time>2017-04-21T10:07:52Z</time>
      </trkpt>
      <trkpt lat="45.9907" lon="4.9108">
        <ele>300</ele>
        <time>2017-04-21T10:07:53Z</time>
      </trkpt>
      <trkpt lat="45.99065" lon="4.91085">
        <ele>300</ele>
        <time>2017-04-21T10:07:54Z</time>
      </trkpt>
      <trkpt lat="45.99061" lon="4.91091">
        <ele>300</ele>
        <time>2017-04-21T10:07:55Z</time>
      </trkpt>
      <trkpt lat="45.99056" lon="4.91097">
        <ele>299</ele>
        <time>2017-04-21T10:07:56Z</time>
      </trkpt>
      <trkpt lat="45.99051" lon="4.91102">
        <ele>299</ele>
        <time>2017-04-21T10:07:57Z</time>
      </trkpt>
      <trkpt lat="45.99046" lon="4.91108">
        <ele>299</ele>
        <time>2017-04-21T10:07:58Z</time>
      </trkpt>
      <trkpt lat="45.99041" lon="4.91114">
        <ele>299</ele>
        <time>2017-04-21T10:07:59Z</time>
      </trkpt>
      <trkpt lat="45.99036" lon="4.9112">
        <ele>299</ele>
        <time>2017-04-21T10:08:00Z</time>
      </trkpt>
      <trkpt lat="45.99032" lon="4.91126">
        <ele>299</ele>
        <time>2017-04-21T10:08:01Z</time>
      </trkpt>
      <trkpt lat="45.99027" lon="4.91132">
        <ele>299</ele>
        <time>2017-04-21T10:08:02Z</time>
      </trkpt>
      <trkpt lat="45.99022" lon="4.91138">
        <ele>299</ele>
        <time>2017-04-21T10:08:03Z</time>
      </trkpt>
      <trkpt lat="45.99017" lon="4.91144">
        <ele>299</ele>
        <time>2017-04-21T10:08:04Z</time>
      </trkpt>
      <trkpt lat="45.99013" lon="4.91149">
        <ele>299</ele>
        <time>2017-04-21T10:08:05Z</time>
      </trkpt>
      <trkpt lat="45.99008" lon="4.91156">
        <ele>299</ele>
        <time>2017-04-21T10:08:06Z</time>
      </trkpt>
      <trkpt lat="45.99003" lon="4.91162">
        <ele>299</ele>
        <time>2017-04-21T10:08:07Z</time>
      </trkpt>
      <trkpt lat="45.98999" lon="4.91168">
        <ele>299</ele>
        <time>2017-04-21T10:08:08Z</time>
      </trkpt>
      <trkpt lat="45.98994" lon="4.91173">
        <ele>299</ele>
        <time>2017-04-21T10:08:09Z</time>
      </trkpt>
      <trkpt lat="45.9899" lon="4.91178">
        <ele>299</ele>
        <time>2017-04-21T10:08:10Z</time>
      </trkpt>
      <trkpt lat="45.98986" lon="4.91184">
        <ele>299</ele>
        <time>2017-04-21T10:08:11Z</time>
      </trkpt>
      <trkpt lat="45.98981" lon="4.91189">
        <ele>299</ele>
        <time>2017-04-21T10:08:12Z</time>
      </trkpt>
      <trkpt lat="45.98977" lon="4.91194">
        <ele>299</ele>
        <time>2017-04-21T10:08:13Z</time>
      </trkpt>
      <trkpt lat="45.98973" lon="4.91199">
        <ele>299</ele>
        <time>2017-04-21T10:08:14Z</time>
      </trkpt>
      <trkpt lat="45.98969" lon="4.91204">
        <ele>299</ele>
        <time>2017-04-21T10:08:15Z</time>
      </trkpt>
      <trkpt lat="45.98965" lon="4.91209">
        <ele>299</ele>
        <time>2017-04-21T10:08:16Z</time>
      </trkpt>
      <trkpt lat="45.98961" lon="4.91214">
        <ele>299</ele>
        <time>2017-04-21T10:08:17Z</time>
      </trkpt>
      <trkpt lat="45.98957" lon="4.9122">
        <ele>299</ele>
        <time>2017-04-21T10:08:18Z</time>
      </trkpt>
      <trkpt lat="45.98952" lon="4.91225">
        <ele>299</ele>
        <time>2017-04-21T10:08:19Z</time>
      </trkpt>
      <trkpt lat="45.98948" lon="4.91231">
        <ele>299</ele>
        <time>2017-04-21T10:08:20Z</time>
      </trkpt>
      <trkpt lat="45.98943" lon="4.91237">
        <ele>299</ele>
        <time>2017-04-21T10:08:21Z</time>
      </trkpt>
      <trkpt lat="45.98938" lon="4.91243">
        <ele>299</ele>
        <time>2017-04-21T10:08:22Z</time>
      </trkpt>
      <trkpt lat="45.98933" lon="4.91249">
        <ele>299</ele>
        <time>2017-04-21T10:08:23Z</time>
      </trkpt>
      <trkpt lat="45.98929" lon="4.91255">
        <ele>299</ele>
        <time>2017-04-21T10:08:24Z</time>
      </trkpt>
      <trkpt lat="45.98924" lon="4.91261">
        <ele>299</ele>
        <time>2017-04-21T10:08:25Z</time>
      </trkpt>
      <trkpt lat="45.9892" lon="4.91266">
        <ele>299</ele>
        <time>2017-04-21T10:08:26Z</time>
      </trkpt>
      <trkpt lat="45.98916" lon="4.91271">
        <ele>299</ele>
        <time>2017-04-21T10:08:27Z</time>
      </trkpt>
      <trkpt lat="45.98911" lon="4.91276">
        <ele>299</ele>
        <time>2017-04-21T10:08:28Z</time>
      </trkpt>
      <trkpt lat="45.98907" lon="4.91281">
        <ele>299</ele>
        <time>2017-04-21T10:08:29Z</time>
      </trkpt>
      <trkpt lat="45.98903" lon="4.91286">
        <ele>299</ele>
        <time>2017-04-21T10:08:30Z</time>
      </trkpt>
      <trkpt lat="45.98899" lon="4.9129">
        <ele>299</ele>
        <time>2017-04-21T10:08:31Z</time>
      </trkpt>
      <trkpt lat="45.98895" lon="4.91295">
        <ele>299</ele>
        <time>2017-04-21T10:08:32Z</time>
      </trkpt>
      <trkpt lat="45.98892" lon="4.913">
        <ele>299</ele>
        <time>2017-04-21T10:08:33Z</time>
      </trkpt>
      <trkpt lat="45.98888" lon="4.91305">
        <ele>299</ele>
        <time>2017-04-21T10:08:34Z</time>
      </trkpt>
      <trkpt lat="45.98884" lon="4.9131">
        <ele>299</ele>
        <time>2017-04-21T10:08:35Z</time>
      </trkpt>
      <trkpt lat="45.98879" lon="4.91316">
        <ele>299</ele>
        <time>2017-04-21T10:08:36Z</time>
      </trkpt>
      <trkpt lat="45.98875" lon="4.91321">
        <ele>299</ele>
        <time>2017-04-21T10:08:37Z</time>
      </trkpt>
      <trkpt lat="45.98871" lon="4.91326">
        <ele>298</ele>
        <time>2017-04-21T10:08:38Z</time>
      </trkpt>
      <trkpt lat="45.98867" lon="4.91331">
        <ele>298</ele>
        <time>2017-04-21T10:08:39Z</time>
      </trkpt>
      <trkpt lat="45.98862" lon="4.91336">
        <ele>298</ele>
        <time>2017-04-21T10:08:40Z</time>
      </trkpt>
      <trkpt lat="45.98858" lon="4.91341">
        <ele>298</ele>
        <time>2017-04-21T10:08:41Z</time>
      </trkpt>
      <trkpt lat="45.98854" lon="4.91346">
        <ele>298</ele>
        <time>2017-04-21T10:08:42Z</time>
      </trkpt>
      <trkpt lat="45.9885" lon="4.91351">
        <ele>298</ele>
        <time>2017-04-21T10:08:43Z</time>
      </trkpt>
      <trkpt lat="45.98845" lon="4.91356">
        <ele>298</ele>
        <time>2017-04-21T10:08:44Z</time>
      </trkpt>
      <trkpt lat="45.98841" lon="4.91361">
        <ele>298</ele>
        <time>2017-04-21T10:08:45Z</time>
      </trkpt>
      <trkpt lat="45.98836" lon="4.91366">
        <ele>298</ele>
        <time>2017-04-21T10:08:46Z</time>
      </trkpt>
      <trkpt lat="45.98831" lon="4.91372">
        <ele>298</ele>
        <time>2017-04-21T10:08:47Z</time>
      </trkpt>
      <trkpt lat="45.98826" lon="4.91378">
        <ele>298</ele>
        <time>2017-04-21T10:08:48Z</time>
      </trkpt>
      <trkpt lat="45.98821" lon="4.91384">
        <ele>298</ele>
        <time>2017-04-21T10:08:49Z</time>
      </trkpt>
      <trkpt lat="45.98816" lon="4.9139">
        <ele>299</ele>
        <time>2017-04-21T10:08:50Z</time>
      </trkpt>
      <trkpt lat="45.98811" lon="4.91396">
        <ele>299</ele>
        <time>2017-04-21T10:08:51Z</time>
      </trkpt>
      <trkpt lat="45.98806" lon="4.91402">
        <ele>299</ele>
        <time>2017-04-21T10:08:52Z</time>
      </trkpt>
      <trkpt lat="45.98802" lon="4.91408">
        <ele>299</ele>
        <time>2017-04-21T10:08:53Z</time>
      </trkpt>
      <trkpt lat="45.98797" lon="4.91414">
        <ele>299</ele>
        <time>2017-04-21T10:08:54Z</time>
      </trkpt>
      <trkpt lat="45.98793" lon="4.9142">
        <ele>298</ele>
        <time>2017-04-21T10:08:55Z</time>
      </trkpt>
      <trkpt lat="45.98788" lon="4.91425">
        <ele>298</ele>
        <time>2017-04-21T10:08:56Z</time>
      </trkpt>
      <trkpt lat="45.98784" lon="4.9143">
        <ele>298</ele>
        <time>2017-04-21T10:08:57Z</time>
      </trkpt>
      <trkpt lat="45.98779" lon="4.91435">
        <ele>298</ele>
        <time>2017-04-21T10:08:58Z</time>
      </trkpt>
      <trkpt lat="45.98775" lon="4.9144">
        <ele>298</ele>
        <time>2017-04-21T10:08:59Z</time>
      </trkpt>
      <trkpt lat="45.9877" lon="4.91445">
        <ele>298</ele>
        <time>2017-04-21T10:09:00Z</time>
      </trkpt>
      <trkpt lat="45.98766" lon="4.9145">
        <ele>298</ele>
        <time>2017-04-21T10:09:01Z</time>
      </trkpt>
      <trkpt lat="45.98762" lon="4.91456">
        <ele>298</ele>
        <time>2017-04-21T10:09:02Z</time>
      </trkpt>
      <trkpt lat="45.98758" lon="4.91461">
        <ele>298</ele>
        <time>2017-04-21T10:09:03Z</time>
      </trkpt>
      <trkpt lat="45.98754" lon="4.91466">
        <ele>298</ele>
        <time>2017-04-21T10:09:04Z</time>
      </trkpt>
      <trkpt lat="45.98749" lon="4.91472">
        <ele>299</ele>
        <time>2017-04-21T10:09:05Z</time>
      </trkpt>
      <trkpt lat="45.98744" lon="4.91478">
        <ele>299</ele>
        <time>2017-04-21T10:09:06Z</time>
      </trkpt>
      <trkpt lat="45.98739" lon="4.91484">
        <ele>299</ele>
        <time>2017-04-21T10:09:07Z</time>
      </trkpt>
      <trkpt lat="45.98734" lon="4.91491">
        <ele>299</ele>
        <time>2017-04-21T10:09:08Z</time>
      </trkpt>
      <trkpt lat="45.98729" lon="4.91497">
        <ele>299</ele>
        <time>2017-04-21T10:09:09Z</time>
      </trkpt>
      <trkpt lat="45.98724" lon="4.91504">
        <ele>299</ele>
        <time>2017-04-21T10:09:10Z</time>
      </trkpt>
      <trkpt lat="45.98719" lon="4.91511">
        <ele>299</ele>
        <time>2017-04-21T10:09:11Z</time>
      </trkpt>
      <trkpt lat="45.98714" lon="4.91517">
        <ele>299</ele>
        <time>2017-04-21T10:09:12Z</time>
      </trkpt>
      <trkpt lat="45.98709" lon="4.91523">
        <ele>299</ele>
        <time>2017-04-21T10:09:13Z</time>
      </trkpt>
      <trkpt lat="45.98704" lon="4.91529">
        <ele>299</ele>
        <time>2017-04-21T10:09:14Z</time>
      </trkpt>
      <trkpt lat="45.987" lon="4.91534">
        <ele>299</ele>
        <time>2017-04-21T10:09:15Z</time>
      </trkpt>
      <trkpt lat="45.98695" lon="4.9154">
        <ele>299</ele>
        <time>2017-04-21T10:09:16Z</time>
      </trkpt>
      <trkpt lat="45.9869" lon="4.91546">
        <ele>299</ele>
        <time>2017-04-21T10:09:17Z</time>
      </trkpt>
      <trkpt lat="45.98686" lon="4.91552">
        <ele>299</ele>
        <time>2017-04-21T10:09:18Z</time>
      </trkpt>
      <trkpt lat="45.98681" lon="4.91558">
        <ele>299</ele>
        <time>2017-04-21T10:09:19Z</time>
      </trkpt>
      <trkpt lat="45.98677" lon="4.91564">
        <ele>299</ele>
        <time>2017-04-21T10:09:20Z</time>
      </trkpt>
      <trkpt lat="45.98672" lon="4.9157">
        <ele>299</ele>
        <time>2017-04-21T10:09:21Z</time>
      </trkpt>
      <trkpt lat="45.98668" lon="4.91576">
        <ele>299</ele>
        <time>2017-04-21T10:09:22Z</time>
      </trkpt>
      <trkpt lat="45.98663" lon="4.91582">
        <ele>299</ele>
        <time>2017-04-21T10:09:23Z</time>
      </trkpt>
      <trkpt lat="45.98659" lon="4.91587">
        <ele>299</ele>
        <time>2017-04-21T10:09:24Z</time>
      </trkpt>
      <trkpt lat="45.98654" lon="4.91593">
        <ele>299</ele>
        <time>2017-04-21T10:09:25Z</time>
      </trkpt>
      <trkpt lat="45.9865" lon="4.91599">
        <ele>299</ele>
        <time>2017-04-21T10:09:26Z</time>
      </trkpt>
      <trkpt lat="45.98645" lon="4.91605">
        <ele>298</ele>
        <time>2017-04-21T10:09:27Z</time>
      </trkpt>
      <trkpt lat="45.9864" lon="4.9161">
        <ele>298</ele>
        <time>2017-04-21T10:09:28Z</time>
      </trkpt>
      <trkpt lat="45.98635" lon="4.91616">
        <ele>298</ele>
        <time>2017-04-21T10:09:29Z</time>
      </trkpt>
      <trkpt lat="45.98629" lon="4.91622">
        <ele>298</ele>
        <time>2017-04-21T10:09:30Z</time>
      </trkpt>
      <trkpt lat="45.98624" lon="4.91627">
        <ele>298</ele>
        <time>2017-04-21T10:09:31Z</time>
      </trkpt>
      <trkpt lat="45.98618" lon="4.91633">
        <ele>298</ele>
        <time>2017-04-21T10:09:32Z</time>
      </trkpt>
      <trkpt lat="45.98614" lon="4.91638">
        <ele>298</ele>
        <time>2017-04-21T10:09:33Z</time>
      </trkpt>
      <trkpt lat="45.9861" lon="4.91644">
        <ele>298</ele>
        <time>2017-04-21T10:09:34Z</time>
      </trkpt>
      <trkpt lat="45.98606" lon="4.9165">
        <ele>298</ele>
        <time>2017-04-21T10:09:35Z</time>
      </trkpt>
      <trkpt lat="45.98602" lon="4.91655">
        <ele>298</ele>
        <time>2017-04-21T10:09:36Z</time>
      </trkpt>
      <trkpt lat="45.98598" lon="4.91661">
        <ele>298</ele>
        <time>2017-04-21T10:09:37Z</time>
      </trkpt>
      <trkpt lat="45.98593" lon="4.91666">
        <ele>298</ele>
        <time>2017-04-21T10:09:38Z</time>
      </trkpt>
      <trkpt lat="45.98589" lon="4.91671">
        <ele>298</ele>
        <time>2017-04-21T10:09:39Z</time>
      </trkpt>
      <trkpt lat="45.98584" lon="4.91676">
        <ele>298</ele>
        <time>2017-04-21T10:09:40Z</time>
      </trkpt>
      <trkpt lat="45.9858" lon="4.91681">
        <ele>298</ele>
        <time>2017-04-21T10:09:41Z</time>
      </trkpt>
      <trkpt lat="45.98575" lon="4.91687">
        <ele>298</ele>
        <time>2017-04-21T10:09:42Z</time>
      </trkpt>
      <trkpt lat="45.9857" lon="4.91692">
        <ele>298</ele>
        <time>2017-04-21T10:09:43Z</time>
      </trkpt>
      <trkpt lat="45.98565" lon="4.91698">
        <ele>298</ele>
        <time>2017-04-21T10:09:44Z</time>
      </trkpt>
      <trkpt lat="45.9856" lon="4.91704">
        <ele>298</ele>
        <time>2017-04-21T10:09:45Z</time>
      </trkpt>
      <trkpt lat="45.98554" lon="4.9171">
        <ele>298</ele>
        <time>2017-04-21T10:09:46Z</time>
      </trkpt>
      <trkpt lat="45.98549" lon="4.91716">
        <ele>298</ele>
        <time>2017-04-21T10:09:47Z</time>
      </trkpt>
      <trkpt lat="45.98544" lon="4.91722">
        <ele>298</ele>
        <time>2017-04-21T10:09:48Z</time>
      </trkpt>
      <trkpt lat="45.98539" lon="4.91729">
        <ele>297</ele>
        <time>2017-04-21T10:09:49Z</time>
      </trkpt>
      <trkpt lat="45.98533" lon="4.91735">
        <ele>297</ele>
        <time>2017-04-21T10:09:50Z</time>
      </trkpt>
      <trkpt lat="45.98529" lon="4.91742">
        <ele>297</ele>
        <time>2017-04-21T10:09:51Z</time>
      </trkpt>
      <trkpt lat="45.98524" lon="4.91748">
        <ele>297</ele>
        <time>2017-04-21T10:09:52Z</time>
      </trkpt>
      <trkpt lat="45.98519" lon="4.91753">
        <ele>297</ele>
        <time>2017-04-21T10:09:53Z</time>
      </trkpt>
      <trkpt lat="45.98514" lon="4.91758">
        <ele>297</ele>
        <time>2017-04-21T10:09:54Z</time>
      </trkpt>
      <trkpt lat="45.9851" lon="4.91764">
        <ele>297</ele>
        <time>2017-04-21T10:09:55Z</time>
      </trkpt>
      <trkpt lat="45.98505" lon="4.91769">
        <ele>297</ele>
        <time>2017-04-21T10:09:56Z</time>
      </trkpt>
      <trkpt lat="45.98501" lon="4.91774">
        <ele>297</ele>
        <time>2017-04-21T10:09:57Z</time>
      </trkpt>
      <trkpt lat="45.98497" lon="4.91779">
        <ele>297</ele>
        <time>2017-04-21T10:09:58Z</time>
      </trkpt>
      <trkpt lat="45.98493" lon="4.91784">
        <ele>297</ele>
        <time>2017-04-21T10:09:59Z</time>
      </trkpt>
      <trkpt lat="45.98489" lon="4.9179">
        <ele>297</ele>
        <time>2017-04-21T10:10:00Z</time>
      </trkpt>
      <trkpt lat="45.98484" lon="4.91795">
        <ele>297</ele>
        <time>2017-04-21T10:10:01Z</time>
      </trkpt>
      <trkpt lat="45.9848" lon="4.91801">
        <ele>297</ele>
        <time>2017-04-21T10:10:02Z</time>
      </trkpt>
      <trkpt lat="45.98476" lon="4.91806">
        <ele>297</ele>
        <time>2017-04-21T10:10:03Z</time>
      </trkpt>
      <trkpt lat="45.98472" lon="4.91811">
        <ele>297</ele>
        <time>2017-04-21T10:10:04Z</time>
      </trkpt>
      <trkpt lat="45.98467" lon="4.91817">
        <ele>297</ele>
        <time>2017-04-21T10:10:05Z</time>
      </trkpt>
      <trkpt lat="45.98463" lon="4.91822">
        <ele>297</ele>
        <time>2017-04-21T10:10:06Z</time>
      </trkpt>
      <trkpt lat="45.98458" lon="4.91828">
        <ele>297</ele>
        <time>2017-04-21T10:10:07Z</time>
      </trkpt>
      <trkpt lat="45.98453" lon="4.91834">
        <ele>297</ele>
        <time>2017-04-21T10:10:08Z</time>
      </trkpt>
      <trkpt lat="45.98448" lon="4.91839">
        <ele>297</ele>
        <time>2017-04-21T10:10:09Z</time>
      </trkpt>
      <trkpt lat="45.98443" lon="4.91846">
        <ele>297</ele>
        <time>2017-04-21T10:10:10Z</time>
      </trkpt>
      <trkpt lat="45.98438" lon="4.91852">
        <ele>297</ele>
        <time>2017-04-21T10:10:11Z</time>
      </trkpt>
      <trkpt lat="45.98433" lon="4.91858">
        <ele>297</ele>
        <time>2017-04-21T10:10:12Z</time>
      </trkpt>
      <trkpt lat="45.98428" lon="4.91863">
        <ele>297</ele>
        <time>2017-04-21T10:10:13Z</time>
      </trkpt>
      <trkpt lat="45.98424" lon="4.91869">
        <ele>297</ele>
        <time>2017-04-21T10:10:14Z</time>
      </trkpt>
      <trkpt lat="45.98419" lon="4.91874">
        <ele>297</ele>
        <time>2017-04-21T10:10:15Z</time>
      </trkpt>
      <trkpt lat="45.98415" lon="4.9188">
        <ele>297</ele>
        <time>2017-04-21T10:10:16Z</time>
      </trkpt>
      <trkpt lat="45.9841" lon="4.91885">
        <ele>297</ele>
        <time>2017-04-21T10:10:17Z</time>
      </trkpt>
      <trkpt lat="45.98406" lon="4.91891">
        <ele>297</ele>
        <time>2017-04-21T10:10:18Z</time>
      </trkpt>
      <trkpt lat="45.98401" lon="4.91896">
        <ele>297</ele>
        <time>2017-04-21T10:10:19Z</time>
      </trkpt>
      <trkpt lat="45.98397" lon="4.91901">
        <ele>297</ele>
        <time>2017-04-21T10:10:20Z</time>
      </trkpt>
      <trkpt lat="45.98392" lon="4.91906">
        <ele>297</ele>
        <time>2017-04-21T10:10:21Z</time>
      </trkpt>
      <trkpt lat="45.98388" lon="4.91912">
        <ele>298</ele>
        <time>2017-04-21T10:10:22Z</time>
      </trkpt>
      <trkpt lat="45.98383" lon="4.91917">
        <ele>297</ele>
        <time>2017-04-21T10:10:23Z</time>
      </trkpt>
      <trkpt lat="45.98379" lon="4.91922">
        <ele>297</ele>
        <time>2017-04-21T10:10:24Z</time>
      </trkpt>
      <trkpt lat="45.98375" lon="4.91927">
        <ele>298</ele>
        <time>2017-04-21T10:10:25Z</time>
      </trkpt>
      <trkpt lat="45.9837" lon="4.91933">
        <ele>298</ele>
        <time>2017-04-21T10:10:26Z</time>
      </trkpt>
      <trkpt lat="45.98366" lon="4.91938">
        <ele>298</ele>
        <time>2017-04-21T10:10:27Z</time>
      </trkpt>
      <trkpt lat="45.98362" lon="4.91943">
        <ele>298</ele>
        <time>2017-04-21T10:10:28Z</time>
      </trkpt>
      <trkpt lat="45.98359" lon="4.91947">
        <ele>298</ele>
        <time>2017-04-21T10:10:29Z</time>
      </trkpt>
      <trkpt lat="45.98355" lon="4.91952">
        <ele>298</ele>
        <time>2017-04-21T10:10:30Z</time>
      </trkpt>
      <trkpt lat="45.98351" lon="4.91958">
        <ele>298</ele>
        <time>2017-04-21T10:10:31Z</time>
      </trkpt>
      <trkpt lat="45.98346" lon="4.91963">
        <ele>297</ele>
        <time>2017-04-21T10:10:32Z</time>
      </trkpt>
      <trkpt lat="45.98342" lon="4.91969">
        <ele>297</ele>
        <time>2017-04-21T10:10:33Z</time>
      </trkpt>
      <trkpt lat="45.98337" lon="4.91974">
        <ele>297</ele>
        <time>2017-04-21T10:10:34Z</time>
      </trkpt>
      <trkpt lat="45.98332" lon="4.9198">
        <ele>298</ele>
        <time>2017-04-21T10:10:35Z</time>
      </trkpt>
      <trkpt lat="45.98327" lon="4.91986">
        <ele>298</ele>
        <time>2017-04-21T10:10:36Z</time>
      </trkpt>
      <trkpt lat="45.98323" lon="4.91992">
        <ele>298</ele>
        <time>2017-04-21T10:10:37Z</time>
      </trkpt>
      <trkpt lat="45.98318" lon="4.91998">
        <ele>298</ele>
        <time>2017-04-21T10:10:38Z</time>
      </trkpt>
      <trkpt lat="45.98313" lon="4.92004">
        <ele>298</ele>
        <time>2017-04-21T10:10:39Z</time>
      </trkpt>
      <trkpt lat="45.98308" lon="4.9201">
        <ele>298</ele>
        <time>2017-04-21T10:10:40Z</time>
      </trkpt>
      <trkpt lat="45.98304" lon="4.92016">
        <ele>298</ele>
        <time>2017-04-21T10:10:41Z</time>
      </trkpt>
      <trkpt lat="45.98299" lon="4.92022">
        <ele>298</ele>
        <time>2017-04-21T10:10:42Z</time>
      </trkpt>
      <trkpt lat="45.98294" lon="4.92027">
        <ele>298</ele>
        <time>2017-04-21T10:10:43Z</time>
      </trkpt>
      <trkpt lat="45.9829" lon="4.92032">
        <ele>298</ele>
        <time>2017-04-21T10:10:44Z</time>
      </trkpt>
      <trkpt lat="45.98286" lon="4.92037">
        <ele>298</ele>
        <time>2017-04-21T10:10:45Z</time>
      </trkpt>
      <trkpt lat="45.98282" lon="4.92042">
        <ele>298</ele>
        <time>2017-04-21T10:10:46Z</time>
      </trkpt>
      <trkpt lat="45.98279" lon="4.92047">
        <ele>298</ele>
        <time>2017-04-21T10:10:47Z</time>
      </trkpt>
      <trkpt lat="45.98275" lon="4.92052">
        <ele>298</ele>
        <time>2017-04-21T10:10:48Z</time>
      </trkpt>
      <trkpt lat="45.98271" lon="4.92057">
        <ele>298</ele>
        <time>2017-04-21T10:10:49Z</time>
      </trkpt>
      <trkpt lat="45.98267" lon="4.92061">
        <ele>298</ele>
        <time>2017-04-21T10:10:50Z</time>
      </trkpt>
      <trkpt lat="45.98263" lon="4.92066">
        <ele>298</ele>
        <time>2017-04-21T10:10:51Z</time>
      </trkpt>
      <trkpt lat="45.9826" lon="4.9207">
        <ele>299</ele>
        <time>2017-04-21T10:10:52Z</time>
      </trkpt>
      <trkpt lat="45.98256" lon="4.92075">
        <ele>299</ele>
        <time>2017-04-21T10:10:53Z</time>
      </trkpt>
      <trkpt lat="45.98253" lon="4.92079">
        <ele>299</ele>
        <time>2017-04-21T10:10:54Z</time>
      </trkpt>
      <trkpt lat="45.9825" lon="4.92084">
        <ele>299</ele>
        <time>2017-04-21T10:10:55Z</time>
      </trkpt>
      <trkpt lat="45.98246" lon="4.92088">
        <ele>299</ele>
        <time>2017-04-21T10:10:56Z</time>
      </trkpt>
      <trkpt lat="45.98242" lon="4.92092">
        <ele>299</ele>
        <time>2017-04-21T10:10:57Z</time>
      </trkpt>
      <trkpt lat="45.98238" lon="4.92097">
        <ele>299</ele>
        <time>2017-04-21T10:10:58Z</time>
      </trkpt>
      <trkpt lat="45.98234" lon="4.92101">
        <ele>299</ele>
        <time>2017-04-21T10:10:59Z</time>
      </trkpt>
      <trkpt lat="45.9823" lon="4.92106">
        <ele>299</ele>
        <time>2017-04-21T10:11:00Z</time>
      </trkpt>
      <trkpt lat="45.98226" lon="4.92111">
        <ele>299</ele>
        <time>2017-04-21T10:11:01Z</time>
      </trkpt>
      <trkpt lat="45.98222" lon="4.92115">
        <ele>299</ele>
        <time>2017-04-21T10:11:02Z</time>
      </trkpt>
      <trkpt lat="45.98217" lon="4.9212">
        <ele>299</ele>
        <time>2017-04-21T10:11:03Z</time>
      </trkpt>
      <trkpt lat="45.98214" lon="4.92124">
        <ele>299</ele>
        <time>2017-04-21T10:11:04Z</time>
      </trkpt>
      <trkpt lat="45.98209" lon="4.92128">
        <ele>299</ele>
        <time>2017-04-21T10:11:05Z</time>
      </trkpt>
      <trkpt lat="45.98204" lon="4.92132">
        <ele>299</ele>
        <time>2017-04-21T10:11:06Z</time>
      </trkpt>
      <trkpt lat="45.982" lon="4.92137">
        <ele>299</ele>
        <time>2017-04-21T10:11:07Z</time>
      </trkpt>
      <trkpt lat="45.98196" lon="4.92141">
        <ele>299</ele>
        <time>2017-04-21T10:11:08Z</time>
      </trkpt>
      <trkpt lat="45.98192" lon="4.92146">
        <ele>299</ele>
        <time>2017-04-21T10:11:09Z</time>
      </trkpt>
      <trkpt lat="45.98189" lon="4.92151">
        <ele>299</ele>
        <time>2017-04-21T10:11:10Z</time>
      </trkpt>
      <trkpt lat="45.98185" lon="4.92156">
        <ele>299</ele>
        <time>2017-04-21T10:11:11Z</time>
      </trkpt>
      <trkpt lat="45.98181" lon="4.92161">
        <ele>299</ele>
        <time>2017-04-21T10:11:12Z</time>
      </trkpt>
      <trkpt lat="45.98177" lon="4.92166">
        <ele>299</ele>
        <time>2017-04-21T10:11:13Z</time>
      </trkpt>
      <trkpt lat="45.98173" lon="4.9217">
        <ele>299</ele>
        <time>2017-04-21T10:11:14Z</time>
      </trkpt>
      <trkpt lat="45.9817" lon="4.92175">
        <ele>299</ele>
        <time>2017-04-21T10:11:15Z</time>
      </trkpt>
      <trkpt lat="45.98166" lon="4.92179">
        <ele>299</ele>
        <time>2017-04-21T10:11:16Z</time>
      </trkpt>
      <trkpt lat="45.98162" lon="4.92185">
        <ele>299</ele>
        <time>2017-04-21T10:11:17Z</time>
      </trkpt>
      <trkpt lat="45.98158" lon="4.9219">
        <ele>299</ele>
        <time>2017-04-21T10:11:18Z</time>
      </trkpt>
      <trkpt lat="45.98153" lon="4.92196">
        <ele>299</ele>
        <time>2017-04-21T10:11:19Z</time>
      </trkpt>
      <trkpt lat="45.98149" lon="4.92201">
        <ele>299</ele>
        <time>2017-04-21T10:11:20Z</time>
      </trkpt>
      <trkpt lat="45.98144" lon="4.92207">
        <ele>299</ele>
        <time>2017-04-21T10:11:21Z</time>
      </trkpt>
      <trkpt lat="45.9814" lon="4.92212">
        <ele>299</ele>
        <time>2017-04-21T10:11:22Z</time>
      </trkpt>
      <trkpt lat="45.98135" lon="4.92218">
        <ele>299</ele>
        <time>2017-04-21T10:11:23Z</time>
      </trkpt>
      <trkpt lat="45.98131" lon="4.92223">
        <ele>299</ele>
        <time>2017-04-21T10:11:24Z</time>
      </trkpt>
      <trkpt lat="45.98126" lon="4.92228">
        <ele>299</ele>
        <time>2017-04-21T10:11:25Z</time>
      </trkpt>
      <trkpt lat="45.98122" lon="4.92233">
        <ele>299</ele>
        <time>2017-04-21T10:11:26Z</time>
      </trkpt>
      <trkpt lat="45.98118" lon="4.92238">
        <ele>299</ele>
        <time>2017-04-21T10:11:27Z</time>
      </trkpt>
      <trkpt lat="45.98115" lon="4.92243">
        <ele>299</ele>
        <time>2017-04-21T10:11:28Z</time>
      </trkpt>
      <trkpt lat="45.98111" lon="4.92248">
        <ele>299</ele>
        <time>2017-04-21T10:11:29Z</time>
      </trkpt>
      <trkpt lat="45.98107" lon="4.92252">
        <ele>300</ele>
        <time>2017-04-21T10:11:30Z</time>
      </trkpt>
      <trkpt lat="45.98103" lon="4.92257">
        <ele>300</ele>
        <time>2017-04-21T10:11:31Z</time>
      </trkpt>
      <trkpt lat="45.981" lon="4.92262">
        <ele>300</ele>
        <time>2017-04-21T10:11:32Z</time>
      </trkpt>
      <trkpt lat="45.98096" lon="4.92266">
        <ele>300</ele>
        <time>2017-04-21T10:11:33Z</time>
      </trkpt>
      <trkpt lat="45.98092" lon="4.92271">
        <ele>300</ele>
        <time>2017-04-21T10:11:34Z</time>
      </trkpt>
      <trkpt lat="45.98088" lon="4.92276">
        <ele>300</ele>
        <time>2017-04-21T10:11:35Z</time>
      </trkpt>
      <trkpt lat="45.98084" lon="4.92281">
        <ele>300</ele>
        <time>2017-04-21T10:11:36Z</time>
      </trkpt>
      <trkpt lat="45.98079" lon="4.92285">
        <ele>299</ele>
        <time>2017-04-21T10:11:37Z</time>
      </trkpt>
      <trkpt lat="45.98075" lon="4.9229">
        <ele>299</ele>
        <time>2017-04-21T10:11:38Z</time>
      </trkpt>
      <trkpt lat="45.98071" lon="4.92295">
        <ele>299</ele>
        <time>2017-04-21T10:11:39Z</time>
      </trkpt>
      <trkpt lat="45.98066" lon="4.923">
        <ele>299</ele>
        <time>2017-04-21T10:11:40Z</time>
      </trkpt>
      <trkpt lat="45.98062" lon="4.92306">
        <ele>299</ele>
        <time>2017-04-21T10:11:41Z</time>
      </trkpt>
      <trkpt lat="45.98058" lon="4.92311">
        <ele>299</ele>
        <time>2017-04-21T10:11:42Z</time>
      </trkpt>
      <trkpt lat="45.98053" lon="4.92316">
        <ele>299</ele>
        <time>2017-04-21T10:11:43Z</time>
      </trkpt>
      <trkpt lat="45.98049" lon="4.92321">
        <ele>299</ele>
        <time>2017-04-21T10:11:44Z</time>
      </trkpt>
      <trkpt lat="45.98045" lon="4.92326">
        <ele>299</ele>
        <time>2017-04-21T10:11:45Z</time>
      </trkpt>
      <trkpt lat="45.98041" lon="4.92332">
        <ele>299</ele>
        <time>2017-04-21T10:11:46Z</time>
      </trkpt>
      <trkpt lat="45.98038" lon="4.92337">
        <ele>299</ele>
        <time>2017-04-21T10:11:47Z</time>
      </trkpt>
      <trkpt lat="45.98034" lon="4.92342">
        <ele>299</ele>
        <time>2017-04-21T10:11:48Z</time>
      </trkpt>
      <trkpt lat="45.98031" lon="4.92347">
        <ele>299</ele>
        <time>2017-04-21T10:11:49Z</time>
      </trkpt>
      <trkpt lat="45.98027" lon="4.92352">
        <ele>298</ele>
        <time>2017-04-21T10:11:50Z</time>
      </trkpt>
      <trkpt lat="45.98023" lon="4.92356">
        <ele>298</ele>
        <time>2017-04-21T10:11:51Z</time>
      </trkpt>
      <trkpt lat="45.9802" lon="4.92361">
        <ele>298</ele>
        <time>2017-04-21T10:11:52Z</time>
      </trkpt>
      <trkpt lat="45.98016" lon="4.92366">
        <ele>298</ele>
        <time>2017-04-21T10:11:53Z</time>
      </trkpt>
      <trkpt lat="45.98012" lon="4.92371">
        <ele>298</ele>
        <time>2017-04-21T10:11:54Z</time>
      </trkpt>
      <trkpt lat="45.98008" lon="4.92376">
        <ele>298</ele>
        <time>2017-04-21T10:11:55Z</time>
      </trkpt>
      <trkpt lat="45.98004" lon="4.9238">
        <ele>298</ele>
        <time>2017-04-21T10:11:56Z</time>
      </trkpt>
      <trkpt lat="45.98" lon="4.92385">
        <ele>298</ele>
        <time>2017-04-21T10:11:57Z</time>
      </trkpt>
      <trkpt lat="45.97997" lon="4.9239">
        <ele>298</ele>
        <time>2017-04-21T10:11:58Z</time>
      </trkpt>
      <trkpt lat="45.97993" lon="4.92395">
        <ele>298</ele>
        <time>2017-04-21T10:11:59Z</time>
      </trkpt>
      <trkpt lat="45.97989" lon="4.924">
        <ele>298</ele>
        <time>2017-04-21T10:12:00Z</time>
      </trkpt>
      <trkpt lat="45.97985" lon="4.92404">
        <ele>298</ele>
        <time>2017-04-21T10:12:01Z</time>
      </trkpt>
      <trkpt lat="45.97981" lon="4.92409">
        <ele>298</ele>
        <time>2017-04-21T10:12:02Z</time>
      </trkpt>
      <trkpt lat="45.97977" lon="4.92414">
        <ele>298</ele>
        <time>2017-04-21T10:12:03Z</time>
      </trkpt>
      <trkpt lat="45.97973" lon="4.92419">
        <ele>298</ele>
        <time>2017-04-21T10:12:04Z</time>
      </trkpt>
      <trkpt lat="45.97969" lon="4.92424">
        <ele>298</ele>
        <time>2017-04-21T10:12:05Z</time>
      </trkpt>
      <trkpt lat="45.97965" lon="4.92428">
        <ele>298</ele>
        <time>2017-04-21T10:12:06Z</time>
      </trkpt>
      <trkpt lat="45.97961" lon="4.92433">
        <ele>298</ele>
        <time>2017-04-21T10:12:07Z</time>
      </trkpt>
      <trkpt lat="45.97956" lon="4.92437">
        <ele>299</ele>
        <time>2017-04-21T10:12:08Z</time>
      </trkpt>
      <trkpt lat="45.97952" lon="4.92441">
        <ele>299</ele>
        <time>2017-04-21T10:12:09Z</time>
      </trkpt>
      <trkpt lat="45.97948" lon="4.92445">
        <ele>299</ele>
        <time>2017-04-21T10:12:10Z</time>
      </trkpt>
      <trkpt lat="45.97945" lon="4.9245">
        <ele>299</ele>
        <time>2017-04-21T10:12:11Z</time>
      </trkpt>
      <trkpt lat="45.97941" lon="4.92455">
        <ele>299</ele>
        <time>2017-04-21T10:12:12Z</time>
      </trkpt>
      <trkpt lat="45.97937" lon="4.9246">
        <ele>299</ele>
        <time>2017-04-21T10:12:13Z</time>
      </trkpt>
      <trkpt lat="45.97933" lon="4.92465">
        <ele>299</ele>
        <time>2017-04-21T10:12:14Z</time>
      </trkpt>
      <trkpt lat="45.97929" lon="4.9247">
        <ele>299</ele>
        <time>2017-04-21T10:12:15Z</time>
      </trkpt>
      <trkpt lat="45.97924" lon="4.92476">
        <ele>299</ele>
        <time>2017-04-21T10:12:16Z</time>
      </trkpt>
      <trkpt lat="45.9792" lon="4.92481">
        <ele>299</ele>
        <time>2017-04-21T10:12:17Z</time>
      </trkpt>
      <trkpt lat="45.97915" lon="4.92487">
        <ele>299</ele>
        <time>2017-04-21T10:12:18Z</time>
      </trkpt>
      <trkpt lat="45.97911" lon="4.92493">
        <ele>299</ele>
        <time>2017-04-21T10:12:19Z</time>
      </trkpt>
      <trkpt lat="45.97906" lon="4.92498">
        <ele>299</ele>
        <time>2017-04-21T10:12:20Z</time>
      </trkpt>
      <trkpt lat="45.97902" lon="4.92503">
        <ele>299</ele>
        <time>2017-04-21T10:12:21Z</time>
      </trkpt>
      <trkpt lat="45.97898" lon="4.92507">
        <ele>299</ele>
        <time>2017-04-21T10:12:22Z</time>
      </trkpt>
      <trkpt lat="45.97894" lon="4.92512">
        <ele>300</ele>
        <time>2017-04-21T10:12:23Z</time>
      </trkpt>
      <trkpt lat="45.9789" lon="4.92517">
        <ele>300</ele>
        <time>2017-04-21T10:12:24Z</time>
      </trkpt>
      <trkpt lat="45.97887" lon="4.92521">
        <ele>300</ele>
        <time>2017-04-21T10:12:25Z</time>
      </trkpt>
      <trkpt lat="45.97883" lon="4.92526">
        <ele>300</ele>
        <time>2017-04-21T10:12:26Z</time>
      </trkpt>
      <trkpt lat="45.9788" lon="4.9253">
        <ele>300</ele>
        <time>2017-04-21T10:12:27Z</time>
      </trkpt>
      <trkpt lat="45.97876" lon="4.92534">
        <ele>300</ele>
        <time>2017-04-21T10:12:28Z</time>
      </trkpt>
      <trkpt lat="45.97873" lon="4.92539">
        <ele>300</ele>
        <time>2017-04-21T10:12:29Z</time>
      </trkpt>
      <trkpt lat="45.97869" lon="4.92543">
        <ele>300</ele>
        <time>2017-04-21T10:12:30Z</time>
      </trkpt>
      <trkpt lat="45.97866" lon="4.92547">
        <ele>300</ele>
        <time>2017-04-21T10:12:31Z</time>
      </trkpt>
      <trkpt lat="45.97862" lon="4.92551">
        <ele>300</ele>
        <time>2017-04-21T10:12:32Z</time>
      </trkpt>
      <trkpt lat="45.97858" lon="4.92556">
        <ele>300</ele>
        <time>2017-04-21T10:12:33Z</time>
      </trkpt>
      <trkpt lat="45.97855" lon="4.92561">
        <ele>300</ele>
        <time>2017-04-21T10:12:34Z</time>
      </trkpt>
      <trkpt lat="45.97851" lon="4.92565">
        <ele>300</ele>
        <time>2017-04-21T10:12:35Z</time>
      </trkpt>
      <trkpt lat="45.97847" lon="4.9257">
        <ele>300</ele>
        <time>2017-04-21T10:12:36Z</time>
      </trkpt>
      <trkpt lat="45.97843" lon="4.92575">
        <ele>300</ele>
        <time>2017-04-21T10:12:37Z</time>
      </trkpt>
      <trkpt lat="45.97839" lon="4.92579">
        <ele>300</ele>
        <time>2017-04-21T10:12:38Z</time>
      </trkpt>
      <trkpt lat="45.97835" lon="4.92584">
        <ele>300</ele>
        <time>2017-04-21T10:12:39Z</time>
      </trkpt>
      <trkpt lat="45.97832" lon="4.92589">
        <ele>300</ele>
        <time>2017-04-21T10:12:40Z</time>
      </trkpt>
      <trkpt lat="45.97828" lon="4.92593">
        <ele>300</ele>
        <time>2017-04-21T10:12:41Z</time>
      </trkpt>
      <trkpt lat="45.97824" lon="4.92598">
        <ele>300</ele>
        <time>2017-04-21T10:12:42Z</time>
      </trkpt>
      <trkpt lat="45.9782" lon="4.92603">
        <ele>300</ele>
        <time>2017-04-21T10:12:43Z</time>
      </trkpt>
      <trkpt lat="45.97817" lon="4.92608">
        <ele>300</ele>
        <time>2017-04-21T10:12:44Z</time>
      </trkpt>
      <trkpt lat="45.97814" lon="4.92613">
        <ele>300</ele>
        <time>2017-04-21T10:12:45Z</time>
      </trkpt>
      <trkpt lat="45.9781" lon="4.92617">
        <ele>300</ele>
        <time>2017-04-21T10:12:46Z</time>
      </trkpt>
      <trkpt lat="45.97807" lon="4.92622">
        <ele>300</ele>
        <time>2017-04-21T10:12:47Z</time>
      </trkpt>
      <trkpt lat="45.97803" lon="4.92626">
        <ele>301</ele>
        <time>2017-04-21T10:12:48Z</time>
      </trkpt>
      <trkpt lat="45.97799" lon="4.9263">
        <ele>301</ele>
        <time>2017-04-21T10:12:49Z</time>
      </trkpt>
      <trkpt lat="45.97796" lon="4.92635">
        <ele>301</ele>
        <time>2017-04-21T10:12:50Z</time>
      </trkpt>
      <trkpt lat="45.9779" lon="4.92643">
        <ele>300</ele>
        <time>2017-04-21T10:12:52Z</time>
      </trkpt>
      <trkpt lat="45.97789" lon="4.92646">
        <ele>300</ele>
        <time>2017-04-21T10:12:53Z</time>
      </trkpt>
      <trkpt lat="45.97785" lon="4.92655">
        <ele>300</ele>
        <time>2017-04-21T10:13:59Z</time>
      </trkpt>
      <trkpt lat="45.97783" lon="4.92656">
        <ele>300</ele>
        <time>2017-04-21T10:14:00Z</time>
      </trkpt>
      <trkpt lat="45.97775" lon="4.92663">
        <ele>300</ele>
        <time>2017-04-21T10:14:03Z</time>
      </trkpt>
      <trkpt lat="45.97772" lon="4.92666">
        <ele>300</ele>
        <time>2017-04-21T10:14:04Z</time>
      </trkpt>
      <trkpt lat="45.97765" lon="4.92673">
        <ele>300</ele>
        <time>2017-04-21T10:14:06Z</time>
      </trkpt>
      <trkpt lat="45.97762" lon="4.92677">
        <ele>300</ele>
        <time>2017-04-21T10:14:07Z</time>
      </trkpt>
      <trkpt lat="45.97758" lon="4.92681">
        <ele>300</ele>
        <time>2017-04-21T10:14:08Z</time>
      </trkpt>
      <trkpt lat="45.97755" lon="4.92686">
        <ele>300</ele>
        <time>2017-04-21T10:14:09Z</time>
      </trkpt>
      <trkpt lat="45.97751" lon="4.9269">
        <ele>300</ele>
        <time>2017-04-21T10:14:10Z</time>
      </trkpt>
      <trkpt lat="45.97747" lon="4.92695">
        <ele>301</ele>
        <time>2017-04-21T10:14:11Z</time>
      </trkpt>
      <trkpt lat="45.97744" lon="4.927">
        <ele>301</ele>
        <time>2017-04-21T10:14:12Z</time>
      </trkpt>
      <trkpt lat="45.9774" lon="4.92704">
        <ele>301</ele>
        <time>2017-04-21T10:14:13Z</time>
      </trkpt>
      <trkpt lat="45.97736" lon="4.92709">
        <ele>301</ele>
        <time>2017-04-21T10:14:14Z</time>
      </trkpt>
      <trkpt lat="45.97732" lon="4.92714">
        <ele>301</ele>
        <time>2017-04-21T10:14:15Z</time>
      </trkpt>
      <trkpt lat="45.97728" lon="4.92719">
        <ele>301</ele>
        <time>2017-04-21T10:14:16Z</time>
      </trkpt>
      <trkpt lat="45.97724" lon="4.92724">
        <ele>301</ele>
        <time>2017-04-21T10:14:17Z</time>
      </trkpt>
      <trkpt lat="45.97721" lon="4.92729">
        <ele>301</ele>
        <time>2017-04-21T10:14:18Z</time>
      </trkpt>
      <trkpt lat="45.97717" lon="4.92733">
        <ele>301</ele>
        <time>2017-04-21T10:14:19Z</time>
      </trkpt>
      <trkpt lat="45.97713" lon="4.92738">
        <ele>301</ele>
        <time>2017-04-21T10:14:20Z</time>
      </trkpt>
      <trkpt lat="45.9771" lon="4.92742">
        <ele>301</ele>
        <time>2017-04-21T10:14:21Z</time>
      </trkpt>
      <trkpt lat="45.97707" lon="4.92746">
        <ele>302</ele>
        <time>2017-04-21T10:14:22Z</time>
      </trkpt>
      <trkpt lat="45.97703" lon="4.92752">
        <ele>301</ele>
        <time>2017-04-21T10:14:23Z</time>
      </trkpt>
      <trkpt lat="45.97699" lon="4.92757">
        <ele>301</ele>
        <time>2017-04-21T10:14:24Z</time>
      </trkpt>
      <trkpt lat="45.97695" lon="4.92763">
        <ele>301</ele>
        <time>2017-04-21T10:14:25Z</time>
      </trkpt>
      <trkpt lat="45.97691" lon="4.92768">
        <ele>301</ele>
        <time>2017-04-21T10:14:26Z</time>
      </trkpt>
      <trkpt lat="45.97687" lon="4.92774">
        <ele>301</ele>
        <time>2017-04-21T10:14:27Z</time>
      </trkpt>
      <trkpt lat="45.97682" lon="4.9278">
        <ele>301</ele>
        <time>2017-04-21T10:14:28Z</time>
      </trkpt>
      <trkpt lat="45.97677" lon="4.92785">
        <ele>301</ele>
        <time>2017-04-21T10:14:29Z</time>
      </trkpt>
      <trkpt lat="45.97673" lon="4.9279">
        <ele>301</ele>
        <time>2017-04-21T10:14:30Z</time>
      </trkpt>
      <trkpt lat="45.97669" lon="4.92795">
        <ele>301</ele>
        <time>2017-04-21T10:14:31Z</time>
      </trkpt>
      <trkpt lat="45.97665" lon="4.92801">
        <ele>300</ele>
        <time>2017-04-21T10:14:32Z</time>
      </trkpt>
      <trkpt lat="45.97661" lon="4.92806">
        <ele>300</ele>
        <time>2017-04-21T10:14:33Z</time>
      </trkpt>
      <trkpt lat="45.97657" lon="4.92811">
        <ele>300</ele>
        <time>2017-04-21T10:14:34Z</time>
      </trkpt>
      <trkpt lat="45.97653" lon="4.92816">
        <ele>300</ele>
        <time>2017-04-21T10:14:35Z</time>
      </trkpt>
      <trkpt lat="45.97649" lon="4.9282">
        <ele>300</ele>
        <time>2017-04-21T10:14:36Z</time>
      </trkpt>
      <trkpt lat="45.97645" lon="4.92825">
        <ele>300</ele>
        <time>2017-04-21T10:14:37Z</time>
      </trkpt>
      <trkpt lat="45.97641" lon="4.9283">
        <ele>300</ele>
        <time>2017-04-21T10:14:38Z</time>
      </trkpt>
      <trkpt lat="45.97637" lon="4.92835">
        <ele>298</ele>
        <time>2017-04-21T10:14:39Z</time>
      </trkpt>
      <trkpt lat="45.97633" lon="4.92839">
        <ele>298</ele>
        <time>2017-04-21T10:14:40Z</time>
      </trkpt>
      <trkpt lat="45.97629" lon="4.92844">
        <ele>298</ele>
        <time>2017-04-21T10:14:41Z</time>
      </trkpt>
      <trkpt lat="45.97626" lon="4.92848">
        <ele>298</ele>
        <time>2017-04-21T10:14:42Z</time>
      </trkpt>
      <trkpt lat="45.97622" lon="4.92853">
        <ele>298</ele>
        <time>2017-04-21T10:14:43Z</time>
      </trkpt>
      <trkpt lat="45.97618" lon="4.92858">
        <ele>298</ele>
        <time>2017-04-21T10:14:44Z</time>
      </trkpt>
      <trkpt lat="45.97615" lon="4.92862">
        <ele>298</ele>
        <time>2017-04-21T10:14:45Z</time>
      </trkpt>
      <trkpt lat="45.97611" lon="4.92867">
        <ele>298</ele>
        <time>2017-04-21T10:14:46Z</time>
      </trkpt>
      <trkpt lat="45.97607" lon="4.92872">
        <ele>298</ele>
        <time>2017-04-21T10:14:47Z</time>
      </trkpt>
      <trkpt lat="45.97603" lon="4.92878">
        <ele>298</ele>
        <time>2017-04-21T10:14:48Z</time>
      </trkpt>
      <trkpt lat="45.97598" lon="4.92883">
        <ele>298</ele>
        <time>2017-04-21T10:14:49Z</time>
      </trkpt>
      <trkpt lat="45.97594" lon="4.92888">
        <ele>298</ele>
        <time>2017-04-21T10:14:50Z</time>
      </trkpt>
      <trkpt lat="45.97589" lon="4.92893">
        <ele>298</ele>
        <time>2017-04-21T10:14:51Z</time>
      </trkpt>
      <trkpt lat="45.97585" lon="4.92899">
        <ele>298</ele>
        <time>2017-04-21T10:14:52Z</time>
      </trkpt>
      <trkpt lat="45.97581" lon="4.92905">
        <ele>298</ele>
        <time>2017-04-21T10:14:53Z</time>
      </trkpt>
      <trkpt lat="45.97577" lon="4.9291">
        <ele>298</ele>
        <time>2017-04-21T10:14:54Z</time>
      </trkpt>
      <trkpt lat="45.97572" lon="4.92915">
        <ele>298</ele>
        <time>2017-04-21T10:14:55Z</time>
      </trkpt>
      <trkpt lat="45.97567" lon="4.9292">
        <ele>298</ele>
        <time>2017-04-21T10:14:56Z</time>
      </trkpt>
      <trkpt lat="45.97563" lon="4.92925">
        <ele>298</ele>
        <time>2017-04-21T10:14:57Z</time>
      </trkpt>
      <trkpt lat="45.97558" lon="4.92929">
        <ele>298</ele>
        <time>2017-04-21T10:14:58Z</time>
      </trkpt>
      <trkpt lat="45.97554" lon="4.92934">
        <ele>299</ele>
        <time>2017-04-21T10:14:59Z</time>
      </trkpt>
      <trkpt lat="45.9755" lon="4.92938">
        <ele>299</ele>
        <time>2017-04-21T10:15:00Z</time>
      </trkpt>
      <trkpt lat="45.97546" lon="4.92943">
        <ele>299</ele>
        <time>2017-04-21T10:15:01Z</time>
      </trkpt>
      <trkpt lat="45.97542" lon="4.92948">
        <ele>299</ele>
        <time>2017-04-21T10:15:02Z</time>
      </trkpt>
      <trkpt lat="45.97539" lon="4.92953">
        <ele>299</ele>
        <time>2017-04-21T10:15:03Z</time>
      </trkpt>
      <trkpt lat="45.97535" lon="4.92957">
        <ele>299</ele>
        <time>2017-04-21T10:15:04Z</time>
      </trkpt>
      <trkpt lat="45.97531" lon="4.92961">
        <ele>299</ele>
        <time>2017-04-21T10:15:05Z</time>
      </trkpt>
      <trkpt lat="45.97527" lon="4.92966">
        <ele>299</ele>
        <time>2017-04-21T10:15:06Z</time>
      </trkpt>
      <trkpt lat="45.97523" lon="4.9297">
        <ele>299</ele>
        <time>2017-04-21T10:15:07Z</time>
      </trkpt>
      <trkpt lat="45.97519" lon="4.92975">
        <ele>299</ele>
        <time>2017-04-21T10:15:08Z</time>
      </trkpt>
      <trkpt lat="45.97515" lon="4.9298">
        <ele>299</ele>
        <time>2017-04-21T10:15:09Z</time>
      </trkpt>
      <trkpt lat="45.97511" lon="4.92985">
        <ele>299</ele>
        <time>2017-04-21T10:15:10Z</time>
      </trkpt>
      <trkpt lat="45.97507" lon="4.92989">
        <ele>299</ele>
        <time>2017-04-21T10:15:11Z</time>
      </trkpt>
      <trkpt lat="45.97502" lon="4.92994">
        <ele>299</ele>
        <time>2017-04-21T10:15:12Z</time>
      </trkpt>
      <trkpt lat="45.97498" lon="4.92999">
        <ele>299</ele>
        <time>2017-04-21T10:15:13Z</time>
      </trkpt>
      <trkpt lat="45.97494" lon="4.93004">
        <ele>299</ele>
        <time>2017-04-21T10:15:14Z</time>
      </trkpt>
      <trkpt lat="45.9749" lon="4.93009">
        <ele>299</ele>
        <time>2017-04-21T10:15:15Z</time>
      </trkpt>
      <trkpt lat="45.97486" lon="4.93014">
        <ele>299</ele>
        <time>2017-04-21T10:15:16Z</time>
      </trkpt>
      <trkpt lat="45.97482" lon="4.93019">
        <ele>299</ele>
        <time>2017-04-21T10:15:17Z</time>
      </trkpt>
      <trkpt lat="45.97477" lon="4.93024">
        <ele>299</ele>
        <time>2017-04-21T10:15:18Z</time>
      </trkpt>
      <trkpt lat="45.97474" lon="4.93028">
        <ele>299</ele>
        <time>2017-04-21T10:15:19Z</time>
      </trkpt>
      <trkpt lat="45.9747" lon="4.93033">
        <ele>299</ele>
        <time>2017-04-21T10:15:20Z</time>
      </trkpt>
      <trkpt lat="45.97465" lon="4.93038">
        <ele>299</ele>
        <time>2017-04-21T10:15:21Z</time>
      </trkpt>
      <trkpt lat="45.97461" lon="4.93043">
        <ele>299</ele>
        <time>2017-04-21T10:15:22Z</time>
      </trkpt>
      <trkpt lat="45.97457" lon="4.93048">
        <ele>299</ele>
        <time>2017-04-21T10:15:23Z</time>
      </trkpt>
      <trkpt lat="45.97452" lon="4.93054">
        <ele>299</ele>
        <time>2017-04-21T10:15:24Z</time>
      </trkpt>
      <trkpt lat="45.97448" lon="4.93059">
        <ele>299</ele>
        <time>2017-04-21T10:15:25Z</time>
      </trkpt>
      <trkpt lat="45.97443" lon="4.93065">
        <ele>299</ele>
        <time>2017-04-21T10:15:26Z</time>
      </trkpt>
      <trkpt lat="45.97439" lon="4.9307">
        <ele>299</ele>
        <time>2017-04-21T10:15:27Z</time>
      </trkpt>
      <trkpt lat="45.97435" lon="4.93076">
        <ele>299</ele>
        <time>2017-04-21T10:15:28Z</time>
      </trkpt>
      <trkpt lat="45.97431" lon="4.93081">
        <ele>299</ele>
        <time>2017-04-21T10:15:29Z</time>
      </trkpt>
      <trkpt lat="45.97427" lon="4.93086">
        <ele>299</ele>
        <time>2017-04-21T10:15:30Z</time>
      </trkpt>
      <trkpt lat="45.97423" lon="4.93091">
        <ele>299</ele>
        <time>2017-04-21T10:15:31Z</time>
      </trkpt>
      <trkpt lat="45.9742" lon="4.93095">
        <ele>299</ele>
        <time>2017-04-21T10:15:32Z</time>
      </trkpt>
      <trkpt lat="45.97416" lon="4.931">
        <ele>299</ele>
        <time>2017-04-21T10:15:33Z</time>
      </trkpt>
      <trkpt lat="45.97412" lon="4.93105">
        <ele>300</ele>
        <time>2017-04-21T10:15:34Z</time>
      </trkpt>
      <trkpt lat="45.97408" lon="4.9311">
        <ele>300</ele>
        <time>2017-04-21T10:15:35Z</time>
      </trkpt>
      <trkpt lat="45.97404" lon="4.93114">
        <ele>300</ele>
        <time>2017-04-21T10:15:36Z</time>
      </trkpt>
      <trkpt lat="45.974" lon="4.93118">
        <ele>300</ele>
        <time>2017-04-21T10:15:37Z</time>
      </trkpt>
      <trkpt lat="45.97397" lon="4.93122">
        <ele>300</ele>
        <time>2017-04-21T10:15:38Z</time>
      </trkpt>
      <trkpt lat="45.97393" lon="4.93126">
        <ele>300</ele>
        <time>2017-04-21T10:15:39Z</time>
      </trkpt>
      <trkpt lat="45.97389" lon="4.93131">
        <ele>300</ele>
        <time>2017-04-21T10:15:40Z</time>
      </trkpt>
      <trkpt lat="45.97386" lon="4.93135">
        <ele>300</ele>
        <time>2017-04-21T10:15:41Z</time>
      </trkpt>
      <trkpt lat="45.97383" lon="4.9314">
        <ele>300</ele>
        <time>2017-04-21T10:15:42Z</time>
      </trkpt>
      <trkpt lat="45.97379" lon="4.93144">
        <ele>300</ele>
        <time>2017-04-21T10:15:43Z</time>
      </trkpt>
      <trkpt lat="45.97376" lon="4.93149">
        <ele>300</ele>
        <time>2017-04-21T10:15:44Z</time>
      </trkpt>
      <trkpt lat="45.97372" lon="4.93153">
        <ele>300</ele>
        <time>2017-04-21T10:15:45Z</time>
      </trkpt>
      <trkpt lat="45.97365" lon="4.93161">
        <ele>300</ele>
        <time>2017-04-21T10:15:47Z</time>
      </trkpt>
      <trkpt lat="45.97362" lon="4.93165">
        <ele>300</ele>
        <time>2017-04-21T10:15:48Z</time>
      </trkpt>
      <trkpt lat="45.97359" lon="4.93169">
        <ele>301</ele>
        <time>2017-04-21T10:15:49Z</time>
      </trkpt>
      <trkpt lat="45.97355" lon="4.93174">
        <ele>301</ele>
        <time>2017-04-21T10:15:50Z</time>
      </trkpt>
      <trkpt lat="45.97352" lon="4.93179">
        <ele>301</ele>
        <time>2017-04-21T10:15:51Z</time>
      </trkpt>
      <trkpt lat="45.97349" lon="4.93183">
        <ele>301</ele>
        <time>2017-04-21T10:15:52Z</time>
      </trkpt>
      <trkpt lat="45.97345" lon="4.93188">
        <ele>301</ele>
        <time>2017-04-21T10:15:53Z</time>
      </trkpt>
      <trkpt lat="45.97342" lon="4.93192">
        <ele>301</ele>
        <time>2017-04-21T10:15:54Z</time>
      </trkpt>
      <trkpt lat="45.97339" lon="4.93197">
        <ele>301</ele>
        <time>2017-04-21T10:15:55Z</time>
      </trkpt>
      <trkpt lat="45.97335" lon="4.93201">
        <ele>302</ele>
        <time>2017-04-21T10:15:56Z</time>
      </trkpt>
      <trkpt lat="45.97331" lon="4.93205">
        <ele>301</ele>
        <time>2017-04-21T10:15:57Z</time>
      </trkpt>
      <trkpt lat="45.97328" lon="4.93209">
        <ele>302</ele>
        <time>2017-04-21T10:15:58Z</time>
      </trkpt>
      <trkpt lat="45.97321" lon="4.93217">
        <ele>302</ele>
        <time>2017-04-21T10:16:00Z</time>
      </trkpt>
      <trkpt lat="45.97317" lon="4.93222">
        <ele>302</ele>
        <time>2017-04-21T10:16:01Z</time>
      </trkpt>
      <trkpt lat="45.97313" lon="4.93226">
        <ele>302</ele>
        <time>2017-04-21T10:16:02Z</time>
      </trkpt>
      <trkpt lat="45.9731" lon="4.93231">
        <ele>302</ele>
        <time>2017-04-21T10:16:03Z</time>
      </trkpt>
      <trkpt lat="45.97303" lon="4.93239">
        <ele>302</ele>
        <time>2017-04-21T10:16:05Z</time>
      </trkpt>
      <trkpt lat="45.97299" lon="4.93244">
        <ele>302</ele>
        <time>2017-04-21T10:16:06Z</time>
      </trkpt>
      <trkpt lat="45.97295" lon="4.93249">
        <ele>301</ele>
        <time>2017-04-21T10:16:07Z</time>
      </trkpt>
      <trkpt lat="45.97291" lon="4.93253">
        <ele>302</ele>
        <time>2017-04-21T10:16:08Z</time>
      </trkpt>
      <trkpt lat="45.97287" lon="4.93258">
        <ele>302</ele>
        <time>2017-04-21T10:16:09Z</time>
      </trkpt>
      <trkpt lat="45.97282" lon="4.93263">
        <ele>302</ele>
        <time>2017-04-21T10:16:10Z</time>
      </trkpt>
      <trkpt lat="45.97278" lon="4.93269">
        <ele>302</ele>
        <time>2017-04-21T10:16:11Z</time>
      </trkpt>
      <trkpt lat="45.97272" lon="4.93274">
        <ele>302</ele>
        <time>2017-04-21T10:16:12Z</time>
      </trkpt>
      <trkpt lat="45.97267" lon="4.93279">
        <ele>302</ele>
        <time>2017-04-21T10:16:13Z</time>
      </trkpt>
      <trkpt lat="45.97262" lon="4.93284">
        <ele>302</ele>
        <time>2017-04-21T10:16:14Z</time>
      </trkpt>
      <trkpt lat="45.97258" lon="4.93288">
        <ele>302</ele>
        <time>2017-04-21T10:16:15Z</time>
      </trkpt>
      <trkpt lat="45.97253" lon="4.93293">
        <ele>302</ele>
        <time>2017-04-21T10:16:16Z</time>
      </trkpt>
      <trkpt lat="45.97249" lon="4.93297">
        <ele>300</ele>
        <time>2017-04-21T10:16:17Z</time>
      </trkpt>
      <trkpt lat="45.97245" lon="4.93301">
        <ele>300</ele>
        <time>2017-04-21T10:16:18Z</time>
      </trkpt>
      <trkpt lat="45.97241" lon="4.93305">
        <ele>300</ele>
        <time>2017-04-21T10:16:19Z</time>
      </trkpt>
      <trkpt lat="45.97237" lon="4.9331">
        <ele>300</ele>
        <time>2017-04-21T10:16:20Z</time>
      </trkpt>
      <trkpt lat="45.97234" lon="4.93315">
        <ele>300</ele>
        <time>2017-04-21T10:16:21Z</time>
      </trkpt>
      <trkpt lat="45.9723" lon="4.9332">
        <ele>301</ele>
        <time>2017-04-21T10:16:22Z</time>
      </trkpt>
      <trkpt lat="45.97227" lon="4.93325">
        <ele>300</ele>
        <time>2017-04-21T10:16:23Z</time>
      </trkpt>
      <trkpt lat="45.97224" lon="4.93331">
        <ele>300</ele>
        <time>2017-04-21T10:16:24Z</time>
      </trkpt>
      <trkpt lat="45.9722" lon="4.93337">
        <ele>301</ele>
        <time>2017-04-21T10:16:25Z</time>
      </trkpt>
      <trkpt lat="45.97215" lon="4.93342">
        <ele>301</ele>
        <time>2017-04-21T10:16:26Z</time>
      </trkpt>
      <trkpt lat="45.97212" lon="4.93347">
        <ele>301</ele>
        <time>2017-04-21T10:16:27Z</time>
      </trkpt>
      <trkpt lat="45.97207" lon="4.93352">
        <ele>301</ele>
        <time>2017-04-21T10:16:28Z</time>
      </trkpt>
      <trkpt lat="45.97203" lon="4.93357">
        <ele>301</ele>
        <time>2017-04-21T10:16:29Z</time>
      </trkpt>
      <trkpt lat="45.97199" lon="4.93362">
        <ele>301</ele>
        <time>2017-04-21T10:16:30Z</time>
      </trkpt>
      <trkpt lat="45.97195" lon="4.93367">
        <ele>301</ele>
        <time>2017-04-21T10:16:31Z</time>
      </trkpt>
      <trkpt lat="45.97191" lon="4.93372">
        <ele>301</ele>
        <time>2017-04-21T10:16:32Z</time>
      </trkpt>
      <trkpt lat="45.97187" lon="4.93376">
        <ele>301</ele>
        <time>2017-04-21T10:16:33Z</time>
      </trkpt>
      <trkpt lat="45.97184" lon="4.9338">
        <ele>301</ele>
        <time>2017-04-21T10:16:34Z</time>
      </trkpt>
      <trkpt lat="45.97178" lon="4.9339">
        <ele>301</ele>
        <time>2017-04-21T10:16:36Z</time>
      </trkpt>
      <trkpt lat="45.97176" lon="4.93394">
        <ele>301</ele>
        <time>2017-04-21T10:16:37Z</time>
      </trkpt>
      <trkpt lat="45.9717" lon="4.93401">
        <ele>302</ele>
        <time>2017-04-21T10:16:39Z</time>
      </trkpt>
      <trkpt lat="45.97167" lon="4.93405">
        <ele>301</ele>
        <time>2017-04-21T10:16:40Z</time>
      </trkpt>
      <trkpt lat="45.97161" lon="4.93413">
        <ele>302</ele>
        <time>2017-04-21T10:16:42Z</time>
      </trkpt>
      <trkpt lat="45.97158" lon="4.93416">
        <ele>301</ele>
        <time>2017-04-21T10:16:43Z</time>
      </trkpt>
      <trkpt lat="45.97152" lon="4.93424">
        <ele>302</ele>
        <time>2017-04-21T10:16:45Z</time>
      </trkpt>
      <trkpt lat="45.97149" lon="4.93427">
        <ele>302</ele>
        <time>2017-04-21T10:16:46Z</time>
      </trkpt>
      <trkpt lat="45.97143" lon="4.93435">
        <ele>301</ele>
        <time>2017-04-21T10:16:48Z</time>
      </trkpt>
      <trkpt lat="45.9714" lon="4.9344">
        <ele>301</ele>
        <time>2017-04-21T10:16:49Z</time>
      </trkpt>
      <trkpt lat="45.97134" lon="4.93449">
        <ele>301</ele>
        <time>2017-04-21T10:16:51Z</time>
      </trkpt>
      <trkpt lat="45.97131" lon="4.93454">
        <ele>301</ele>
        <time>2017-04-21T10:16:52Z</time>
      </trkpt>
      <trkpt lat="45.97127" lon="4.93459">
        <ele>301</ele>
        <time>2017-04-21T10:16:53Z</time>
      </trkpt>
      <trkpt lat="45.97124" lon="4.93463">
        <ele>301</ele>
        <time>2017-04-21T10:16:54Z</time>
      </trkpt>
      <trkpt lat="45.97121" lon="4.93468">
        <ele>301</ele>
        <time>2017-04-21T10:16:55Z</time>
      </trkpt>
      <trkpt lat="45.97118" lon="4.93473">
        <ele>301</ele>
        <time>2017-04-21T10:16:56Z</time>
      </trkpt>
      <trkpt lat="45.97115" lon="4.93477">
        <ele>301</ele>
        <time>2017-04-21T10:16:57Z</time>
      </trkpt>
      <trkpt lat="45.97111" lon="4.93481">
        <ele>301</ele>
        <time>2017-04-21T10:16:58Z</time>
      </trkpt>
      <trkpt lat="45.97107" lon="4.93486">
        <ele>301</ele>
        <time>2017-04-21T10:16:59Z</time>
      </trkpt>
      <trkpt lat="45.97104" lon="4.9349">
        <ele>301</ele>
        <time>2017-04-21T10:17:00Z</time>
      </trkpt>
      <trkpt lat="45.97101" lon="4.93495">
        <ele>301</ele>
        <time>2017-04-21T10:17:01Z</time>
      </trkpt>
      <trkpt lat="45.97097" lon="4.93501">
        <ele>301</ele>
        <time>2017-04-21T10:17:02Z</time>
      </trkpt>
      <trkpt lat="45.97093" lon="4.93506">
        <ele>301</ele>
        <time>2017-04-21T10:17:03Z</time>
      </trkpt>
      <trkpt lat="45.97088" lon="4.93512">
        <ele>301</ele>
        <time>2017-04-21T10:17:04Z</time>
      </trkpt>
      <trkpt lat="45.97084" lon="4.93518">
        <ele>301</ele>
        <time>2017-04-21T10:17:05Z</time>
      </trkpt>
      <trkpt lat="45.97079" lon="4.93526">
        <ele>299</ele>
        <time>2017-04-21T10:17:06Z</time>
      </trkpt>
      <trkpt lat="45.97074" lon="4.93533">
        <ele>299</ele>
        <time>2017-04-21T10:17:07Z</time>
      </trkpt>
      <trkpt lat="45.9707" lon="4.9354">
        <ele>299</ele>
        <time>2017-04-21T10:17:08Z</time>
      </trkpt>
      <trkpt lat="45.97065" lon="4.93545">
        <ele>299</ele>
        <time>2017-04-21T10:17:09Z</time>
      </trkpt>
      <trkpt lat="45.97059" lon="4.9355">
        <ele>299</ele>
        <time>2017-04-21T10:17:10Z</time>
      </trkpt>
      <trkpt lat="45.97055" lon="4.93555">
        <ele>299</ele>
        <time>2017-04-21T10:17:11Z</time>
      </trkpt>
      <trkpt lat="45.9705" lon="4.9356">
        <ele>299</ele>
        <time>2017-04-21T10:17:12Z</time>
      </trkpt>
      <trkpt lat="45.97046" lon="4.93566">
        <ele>299</ele>
        <time>2017-04-21T10:17:13Z</time>
      </trkpt>
      <trkpt lat="45.97042" lon="4.9357">
        <ele>299</ele>
        <time>2017-04-21T10:17:14Z</time>
      </trkpt>
      <trkpt lat="45.97038" lon="4.93575">
        <ele>299</ele>
        <time>2017-04-21T10:17:15Z</time>
      </trkpt>
      <trkpt lat="45.97035" lon="4.9358">
        <ele>299</ele>
        <time>2017-04-21T10:17:16Z</time>
      </trkpt>
      <trkpt lat="45.97031" lon="4.93585">
        <ele>300</ele>
        <time>2017-04-21T10:17:17Z</time>
      </trkpt>
      <trkpt lat="45.97028" lon="4.9359">
        <ele>300</ele>
        <time>2017-04-21T10:17:18Z</time>
      </trkpt>
      <trkpt lat="45.97024" lon="4.93595">
        <ele>300</ele>
        <time>2017-04-21T10:17:19Z</time>
      </trkpt>
      <trkpt lat="45.9702" lon="4.93599">
        <ele>300</ele>
        <time>2017-04-21T10:17:20Z</time>
      </trkpt>
      <trkpt lat="45.97016" lon="4.93604">
        <ele>300</ele>
        <time>2017-04-21T10:17:21Z</time>
      </trkpt>
      <trkpt lat="45.97013" lon="4.93609">
        <ele>300</ele>
        <time>2017-04-21T10:17:22Z</time>
      </trkpt>
      <trkpt lat="45.97009" lon="4.93614">
        <ele>300</ele>
        <time>2017-04-21T10:17:23Z</time>
      </trkpt>
      <trkpt lat="45.97004" lon="4.93619">
        <ele>300</ele>
        <time>2017-04-21T10:17:24Z</time>
      </trkpt>
      <trkpt lat="45.97" lon="4.93624">
        <ele>300</ele>
        <time>2017-04-21T10:17:25Z</time>
      </trkpt>
      <trkpt lat="45.96996" lon="4.93629">
        <ele>299</ele>
        <time>2017-04-21T10:17:26Z</time>
      </trkpt>
      <trkpt lat="45.96992" lon="4.93633">
        <ele>299</ele>
        <time>2017-04-21T10:17:27Z</time>
      </trkpt>
      <trkpt lat="45.96988" lon="4.93639">
        <ele>299</ele>
        <time>2017-04-21T10:17:28Z</time>
      </trkpt>
      <trkpt lat="45.96983" lon="4.93644">
        <ele>299</ele>
        <time>2017-04-21T10:17:29Z</time>
      </trkpt>
      <trkpt lat="45.96979" lon="4.93649">
        <ele>299</ele>
        <time>2017-04-21T10:17:30Z</time>
      </trkpt>
      <trkpt lat="45.96975" lon="4.93654">
        <ele>299</ele>
        <time>2017-04-21T10:17:31Z</time>
      </trkpt>
      <trkpt lat="45.96971" lon="4.93659">
        <ele>299</ele>
        <time>2017-04-21T10:17:32Z</time>
      </trkpt>
      <trkpt lat="45.96966" lon="4.93664">
        <ele>299</ele>
        <time>2017-04-21T10:17:33Z</time>
      </trkpt>
      <trkpt lat="45.96962" lon="4.93669">
        <ele>298</ele>
        <time>2017-04-21T10:17:34Z</time>
      </trkpt>
      <trkpt lat="45.96957" lon="4.93674">
        <ele>298</ele>
        <time>2017-04-21T10:17:35Z</time>
      </trkpt>
      <trkpt lat="45.96954" lon="4.93678">
        <ele>298</ele>
        <time>2017-04-21T10:17:36Z</time>
      </trkpt>
      <trkpt lat="45.96948" lon="4.93683">
        <ele>298</ele>
        <time>2017-04-21T10:17:37Z</time>
      </trkpt>
      <trkpt lat="45.96944" lon="4.93688">
        <ele>298</ele>
        <time>2017-04-21T10:17:38Z</time>
      </trkpt>
      <trkpt lat="45.9694" lon="4.93693">
        <ele>298</ele>
        <time>2017-04-21T10:17:39Z</time>
      </trkpt>
      <trkpt lat="45.96936" lon="4.93698">
        <ele>298</ele>
        <time>2017-04-21T10:17:40Z</time>
      </trkpt>
      <trkpt lat="45.96932" lon="4.93702">
        <ele>298</ele>
        <time>2017-04-21T10:17:41Z</time>
      </trkpt>
      <trkpt lat="45.96927" lon="4.93707">
        <ele>298</ele>
        <time>2017-04-21T10:17:42Z</time>
      </trkpt>
      <trkpt lat="45.96921" lon="4.93712">
        <ele>298</ele>
        <time>2017-04-21T10:17:43Z</time>
      </trkpt>
      <trkpt lat="45.96915" lon="4.93717">
        <ele>297</ele>
        <time>2017-04-21T10:17:44Z</time>
      </trkpt>
      <trkpt lat="45.96908" lon="4.93722">
        <ele>297</ele>
        <time>2017-04-21T10:17:45Z</time>
      </trkpt>
      <trkpt lat="45.96902" lon="4.93726">
        <ele>297</ele>
        <time>2017-04-21T10:17:46Z</time>
      </trkpt>
      <trkpt lat="45.96895" lon="4.9373">
        <ele>297</ele>
        <time>2017-04-21T10:17:47Z</time>
      </trkpt>
      <trkpt lat="45.96888" lon="4.93733">
        <ele>297</ele>
        <time>2017-04-21T10:17:48Z</time>
      </trkpt>
      <trkpt lat="45.96881" lon="4.93736">
        <ele>297</ele>
        <time>2017-04-21T10:17:49Z</time>
      </trkpt>
      <trkpt lat="45.96875" lon="4.93738">
        <ele>297</ele>
        <time>2017-04-21T10:17:50Z</time>
      </trkpt>
      <trkpt lat="45.96869" lon="4.93741">
        <ele>297</ele>
        <time>2017-04-21T10:17:51Z</time>
      </trkpt>
      <trkpt lat="45.96862" lon="4.93743">
        <ele>297</ele>
        <time>2017-04-21T10:17:52Z</time>
      </trkpt>
      <trkpt lat="45.96856" lon="4.93746">
        <ele>297</ele>
        <time>2017-04-21T10:17:53Z</time>
      </trkpt>
      <trkpt lat="45.9685" lon="4.93748">
        <ele>296</ele>
        <time>2017-04-21T10:17:54Z</time>
      </trkpt>
      <trkpt lat="45.96843" lon="4.93751">
        <ele>296</ele>
        <time>2017-04-21T10:17:55Z</time>
      </trkpt>
      <trkpt lat="45.96837" lon="4.93753">
        <ele>296</ele>
        <time>2017-04-21T10:17:56Z</time>
      </trkpt>
      <trkpt lat="45.9683" lon="4.93756">
        <ele>296</ele>
        <time>2017-04-21T10:17:57Z</time>
      </trkpt>
      <trkpt lat="45.96824" lon="4.93758">
        <ele>296</ele>
        <time>2017-04-21T10:17:58Z</time>
      </trkpt>
      <trkpt lat="45.96818" lon="4.9376">
        <ele>296</ele>
        <time>2017-04-21T10:17:59Z</time>
      </trkpt>
      <trkpt lat="45.96811" lon="4.93762">
        <ele>295</ele>
        <time>2017-04-21T10:18:00Z</time>
      </trkpt>
      <trkpt lat="45.96805" lon="4.93765">
        <ele>295</ele>
        <time>2017-04-21T10:18:01Z</time>
      </trkpt>
      <trkpt lat="45.96798" lon="4.93767">
        <ele>295</ele>
        <time>2017-04-21T10:18:02Z</time>
      </trkpt>
      <trkpt lat="45.96792" lon="4.93768">
        <ele>295</ele>
        <time>2017-04-21T10:18:03Z</time>
      </trkpt>
      <trkpt lat="45.96785" lon="4.9377">
        <ele>295</ele>
        <time>2017-04-21T10:18:04Z</time>
      </trkpt>
      <trkpt lat="45.96779" lon="4.93772">
        <ele>295</ele>
        <time>2017-04-21T10:18:05Z</time>
      </trkpt>
      <trkpt lat="45.96772" lon="4.93774">
        <ele>295</ele>
        <time>2017-04-21T10:18:06Z</time>
      </trkpt>
      <trkpt lat="45.96766" lon="4.93776">
        <ele>295</ele>
        <time>2017-04-21T10:18:07Z</time>
      </trkpt>
      <trkpt lat="45.96759" lon="4.93777">
        <ele>295</ele>
        <time>2017-04-21T10:18:08Z</time>
      </trkpt>
      <trkpt lat="45.96752" lon="4.93779">
        <ele>295</ele>
        <time>2017-04-21T10:18:09Z</time>
      </trkpt>
      <trkpt lat="45.96745" lon="4.93781">
        <ele>295</ele>
        <time>2017-04-21T10:18:10Z</time>
      </trkpt>
      <trkpt lat="45.96739" lon="4.93783">
        <ele>296</ele>
        <time>2017-04-21T10:18:11Z</time>
      </trkpt>
      <trkpt lat="45.96733" lon="4.93785">
        <ele>296</ele>
        <time>2017-04-21T10:18:12Z</time>
      </trkpt>
      <trkpt lat="45.96727" lon="4.93787">
        <ele>296</ele>
        <time>2017-04-21T10:18:13Z</time>
      </trkpt>
      <trkpt lat="45.96721" lon="4.93789">
        <ele>296</ele>
        <time>2017-04-21T10:18:14Z</time>
      </trkpt>
      <trkpt lat="45.96716" lon="4.93791">
        <ele>296</ele>
        <time>2017-04-21T10:18:15Z</time>
      </trkpt>
      <trkpt lat="45.96711" lon="4.93793">
        <ele>296</ele>
        <time>2017-04-21T10:18:16Z</time>
      </trkpt>
      <trkpt lat="45.96706" lon="4.93795">
        <ele>296</ele>
        <time>2017-04-21T10:18:17Z</time>
      </trkpt>
      <trkpt lat="45.96701" lon="4.93796">
        <ele>296</ele>
        <time>2017-04-21T10:18:18Z</time>
      </trkpt>
      <trkpt lat="45.96695" lon="4.93798">
        <ele>297</ele>
        <time>2017-04-21T10:18:19Z</time>
      </trkpt>
      <trkpt lat="45.9669" lon="4.938">
        <ele>297</ele>
        <time>2017-04-21T10:18:20Z</time>
      </trkpt>
      <trkpt lat="45.96684" lon="4.93802">
        <ele>297</ele>
        <time>2017-04-21T10:18:21Z</time>
      </trkpt>
      <trkpt lat="45.96678" lon="4.93804">
        <ele>297</ele>
        <time>2017-04-21T10:18:22Z</time>
      </trkpt>
      <trkpt lat="45.96673" lon="4.93806">
        <ele>297</ele>
        <time>2017-04-21T10:18:23Z</time>
      </trkpt>
      <trkpt lat="45.96667" lon="4.93808">
        <ele>297</ele>
        <time>2017-04-21T10:18:24Z</time>
      </trkpt>
      <trkpt lat="45.96662" lon="4.9381">
        <ele>297</ele>
        <time>2017-04-21T10:18:25Z</time>
      </trkpt>
      <trkpt lat="45.96657" lon="4.93812">
        <ele>297</ele>
        <time>2017-04-21T10:18:26Z</time>
      </trkpt>
      <trkpt lat="45.96651" lon="4.93814">
        <ele>297</ele>
        <time>2017-04-21T10:18:27Z</time>
      </trkpt>
      <trkpt lat="45.96645" lon="4.93816">
        <ele>297</ele>
        <time>2017-04-21T10:18:28Z</time>
      </trkpt>
      <trkpt lat="45.9664" lon="4.93818">
        <ele>297</ele>
        <time>2017-04-21T10:18:29Z</time>
      </trkpt>
      <trkpt lat="45.96635" lon="4.9382">
        <ele>297</ele>
        <time>2017-04-21T10:18:30Z</time>
      </trkpt>
      <trkpt lat="45.9663" lon="4.93822">
        <ele>297</ele>
        <time>2017-04-21T10:18:31Z</time>
      </trkpt>
      <trkpt lat="45.96624" lon="4.93823">
        <ele>297</ele>
        <time>2017-04-21T10:18:32Z</time>
      </trkpt>
      <trkpt lat="45.96619" lon="4.93825">
        <ele>297</ele>
        <time>2017-04-21T10:18:33Z</time>
      </trkpt>
      <trkpt lat="45.96614" lon="4.93827">
        <ele>297</ele>
        <time>2017-04-21T10:18:34Z</time>
      </trkpt>
      <trkpt lat="45.96608" lon="4.93829">
        <ele>297</ele>
        <time>2017-04-21T10:18:35Z</time>
      </trkpt>
      <trkpt lat="45.96602" lon="4.93831">
        <ele>297</ele>
        <time>2017-04-21T10:18:36Z</time>
      </trkpt>
      <trkpt lat="45.96596" lon="4.93834">
        <ele>296</ele>
        <time>2017-04-21T10:18:37Z</time>
      </trkpt>
      <trkpt lat="45.9659" lon="4.93836">
        <ele>296</ele>
        <time>2017-04-21T10:18:38Z</time>
      </trkpt>
      <trkpt lat="45.96584" lon="4.93838">
        <ele>296</ele>
        <time>2017-04-21T10:18:39Z</time>
      </trkpt>
      <trkpt lat="45.96577" lon="4.9384">
        <ele>296</ele>
        <time>2017-04-21T10:18:40Z</time>
      </trkpt>
      <trkpt lat="45.96571" lon="4.93842">
        <ele>296</ele>
        <time>2017-04-21T10:18:41Z</time>
      </trkpt>
      <trkpt lat="45.96565" lon="4.93844">
        <ele>296</ele>
        <time>2017-04-21T10:18:42Z</time>
      </trkpt>
      <trkpt lat="45.96558" lon="4.93846">
        <ele>296</ele>
        <time>2017-04-21T10:18:43Z</time>
      </trkpt>
      <trkpt lat="45.96552" lon="4.93848">
        <ele>296</ele>
        <time>2017-04-21T10:18:44Z</time>
      </trkpt>
      <trkpt lat="45.96547" lon="4.9385">
        <ele>296</ele>
        <time>2017-04-21T10:18:45Z</time>
      </trkpt>
      <trkpt lat="45.96541" lon="4.93851">
        <ele>296</ele>
        <time>2017-04-21T10:18:46Z</time>
      </trkpt>
      <trkpt lat="45.96535" lon="4.93854">
        <ele>296</ele>
        <time>2017-04-21T10:18:47Z</time>
      </trkpt>
      <trkpt lat="45.96529" lon="4.93856">
        <ele>296</ele>
        <time>2017-04-21T10:18:48Z</time>
      </trkpt>
      <trkpt lat="45.96524" lon="4.93857">
        <ele>296</ele>
        <time>2017-04-21T10:18:49Z</time>
      </trkpt>
      <trkpt lat="45.96518" lon="4.9386">
        <ele>296</ele>
        <time>2017-04-21T10:18:50Z</time>
      </trkpt>
      <trkpt lat="45.96513" lon="4.93862">
        <ele>296</ele>
        <time>2017-04-21T10:18:51Z</time>
      </trkpt>
      <trkpt lat="45.96507" lon="4.93864">
        <ele>296</ele>
        <time>2017-04-21T10:18:52Z</time>
      </trkpt>
      <trkpt lat="45.96502" lon="4.93865">
        <ele>296</ele>
        <time>2017-04-21T10:18:53Z</time>
      </trkpt>
      <trkpt lat="45.96497" lon="4.93867">
        <ele>296</ele>
        <time>2017-04-21T10:18:54Z</time>
      </trkpt>
      <trkpt lat="45.96492" lon="4.93869">
        <ele>296</ele>
        <time>2017-04-21T10:18:55Z</time>
      </trkpt>
      <trkpt lat="45.96486" lon="4.93871">
        <ele>296</ele>
        <time>2017-04-21T10:18:56Z</time>
      </trkpt>
      <trkpt lat="45.96481" lon="4.93873">
        <ele>296</ele>
        <time>2017-04-21T10:18:57Z</time>
      </trkpt>
      <trkpt lat="45.96476" lon="4.93875">
        <ele>296</ele>
        <time>2017-04-21T10:18:58Z</time>
      </trkpt>
      <trkpt lat="45.96471" lon="4.93876">
        <ele>295</ele>
        <time>2017-04-21T10:18:59Z</time>
      </trkpt>
      <trkpt lat="45.96466" lon="4.93878">
        <ele>295</ele>
        <time>2017-04-21T10:19:00Z</time>
      </trkpt>
      <trkpt lat="45.96461" lon="4.9388">
        <ele>295</ele>
        <time>2017-04-21T10:19:01Z</time>
      </trkpt>
      <trkpt lat="45.96455" lon="4.93882">
        <ele>296</ele>
        <time>2017-04-21T10:19:02Z</time>
      </trkpt>
      <trkpt lat="45.9645" lon="4.93884">
        <ele>296</ele>
        <time>2017-04-21T10:19:03Z</time>
      </trkpt>
      <trkpt lat="45.96445" lon="4.93886">
        <ele>296</ele>
        <time>2017-04-21T10:19:04Z</time>
      </trkpt>
      <trkpt lat="45.96439" lon="4.93888">
        <ele>296</ele>
        <time>2017-04-21T10:19:05Z</time>
      </trkpt>
      <trkpt lat="45.96434" lon="4.9389">
        <ele>296</ele>
        <time>2017-04-21T10:19:06Z</time>
      </trkpt>
      <trkpt lat="45.96429" lon="4.93891">
        <ele>296</ele>
        <time>2017-04-21T10:19:07Z</time>
      </trkpt>
      <trkpt lat="45.96423" lon="4.93893">
        <ele>296</ele>
        <time>2017-04-21T10:19:08Z</time>
      </trkpt>
      <trkpt lat="45.96418" lon="4.93895">
        <ele>296</ele>
        <time>2017-04-21T10:19:09Z</time>
      </trkpt>
      <trkpt lat="45.96413" lon="4.93897">
        <ele>295</ele>
        <time>2017-04-21T10:19:10Z</time>
      </trkpt>
      <trkpt lat="45.96407" lon="4.93899">
        <ele>295</ele>
        <time>2017-04-21T10:19:11Z</time>
      </trkpt>
      <trkpt lat="45.96401" lon="4.93901">
        <ele>295</ele>
        <time>2017-04-21T10:19:12Z</time>
      </trkpt>
      <trkpt lat="45.96395" lon="4.93903">
        <ele>295</ele>
        <time>2017-04-21T10:19:13Z</time>
      </trkpt>
      <trkpt lat="45.96389" lon="4.93905">
        <ele>294</ele>
        <time>2017-04-21T10:19:14Z</time>
      </trkpt>
      <trkpt lat="45.96383" lon="4.93908">
        <ele>294</ele>
        <time>2017-04-21T10:19:15Z</time>
      </trkpt>
      <trkpt lat="45.96376" lon="4.9391">
        <ele>294</ele>
        <time>2017-04-21T10:19:16Z</time>
      </trkpt>
      <trkpt lat="45.9637" lon="4.93913">
        <ele>294</ele>
        <time>2017-04-21T10:19:17Z</time>
      </trkpt>
      <trkpt lat="45.96363" lon="4.93915">
        <ele>294</ele>
        <time>2017-04-21T10:19:18Z</time>
      </trkpt>
      <trkpt lat="45.96356" lon="4.93917">
        <ele>294</ele>
        <time>2017-04-21T10:19:19Z</time>
      </trkpt>
      <trkpt lat="45.96349" lon="4.9392">
        <ele>293</ele>
        <time>2017-04-21T10:19:20Z</time>
      </trkpt>
      <trkpt lat="45.96343" lon="4.93922">
        <ele>293</ele>
        <time>2017-04-21T10:19:21Z</time>
      </trkpt>
      <trkpt lat="45.96336" lon="4.93924">
        <ele>293</ele>
        <time>2017-04-21T10:19:22Z</time>
      </trkpt>
      <trkpt lat="45.9633" lon="4.93927">
        <ele>292</ele>
        <time>2017-04-21T10:19:23Z</time>
      </trkpt>
      <trkpt lat="45.96323" lon="4.93929">
        <ele>292</ele>
        <time>2017-04-21T10:19:24Z</time>
      </trkpt>
      <trkpt lat="45.96316" lon="4.93931">
        <ele>292</ele>
        <time>2017-04-21T10:19:25Z</time>
      </trkpt>
      <trkpt lat="45.9631" lon="4.93933">
        <ele>292</ele>
        <time>2017-04-21T10:19:26Z</time>
      </trkpt>
      <trkpt lat="45.96303" lon="4.93936">
        <ele>292</ele>
        <time>2017-04-21T10:19:27Z</time>
      </trkpt>
      <trkpt lat="45.96297" lon="4.93938">
        <ele>292</ele>
        <time>2017-04-21T10:19:28Z</time>
      </trkpt>
      <trkpt lat="45.9629" lon="4.9394">
        <ele>292</ele>
        <time>2017-04-21T10:19:29Z</time>
      </trkpt>
      <trkpt lat="45.96284" lon="4.93942">
        <ele>291</ele>
        <time>2017-04-21T10:19:30Z</time>
      </trkpt>
      <trkpt lat="45.96278" lon="4.93945">
        <ele>291</ele>
        <time>2017-04-21T10:19:31Z</time>
      </trkpt>
      <trkpt lat="45.96271" lon="4.93947">
        <ele>291</ele>
        <time>2017-04-21T10:19:32Z</time>
      </trkpt>
      <trkpt lat="45.96265" lon="4.9395">
        <ele>291</ele>
        <time>2017-04-21T10:19:33Z</time>
      </trkpt>
      <trkpt lat="45.96259" lon="4.93953">
        <ele>291</ele>
        <time>2017-04-21T10:19:34Z</time>
      </trkpt>
      <trkpt lat="45.96253" lon="4.93956">
        <ele>291</ele>
        <time>2017-04-21T10:19:35Z</time>
      </trkpt>
      <trkpt lat="45.96247" lon="4.9396">
        <ele>290</ele>
        <time>2017-04-21T10:19:36Z</time>
      </trkpt>
      <trkpt lat="45.96242" lon="4.93964">
        <ele>290</ele>
        <time>2017-04-21T10:19:37Z</time>
      </trkpt>
      <trkpt lat="45.96237" lon="4.93968">
        <ele>290</ele>
        <time>2017-04-21T10:19:38Z</time>
      </trkpt>
      <trkpt lat="45.96231" lon="4.93972">
        <ele>290</ele>
        <time>2017-04-21T10:19:39Z</time>
      </trkpt>
      <trkpt lat="45.96226" lon="4.93977">
        <ele>290</ele>
        <time>2017-04-21T10:19:40Z</time>
      </trkpt>
      <trkpt lat="45.9622" lon="4.9398">
        <ele>290</ele>
        <time>2017-04-21T10:19:41Z</time>
      </trkpt>
      <trkpt lat="45.96215" lon="4.93985">
        <ele>290</ele>
        <time>2017-04-21T10:19:42Z</time>
      </trkpt>
      <trkpt lat="45.9621" lon="4.9399">
        <ele>290</ele>
        <time>2017-04-21T10:19:43Z</time>
      </trkpt>
      <trkpt lat="45.96205" lon="4.93995">
        <ele>290</ele>
        <time>2017-04-21T10:19:44Z</time>
      </trkpt>
      <trkpt lat="45.962" lon="4.94">
        <ele>290</ele>
        <time>2017-04-21T10:19:45Z</time>
      </trkpt>
      <trkpt lat="45.96195" lon="4.94005">
        <ele>290</ele>
        <time>2017-04-21T10:19:46Z</time>
      </trkpt>
      <trkpt lat="45.9619" lon="4.94009">
        <ele>290</ele>
        <time>2017-04-21T10:19:47Z</time>
      </trkpt>
      <trkpt lat="45.96185" lon="4.94013">
        <ele>290</ele>
        <time>2017-04-21T10:19:48Z</time>
      </trkpt>
      <trkpt lat="45.96179" lon="4.94017">
        <ele>290</ele>
        <time>2017-04-21T10:19:49Z</time>
      </trkpt>
      <trkpt lat="45.96174" lon="4.94022">
        <ele>290</ele>
        <time>2017-04-21T10:19:50Z</time>
      </trkpt>
      <trkpt lat="45.96169" lon="4.94026">
        <ele>290</ele>
        <time>2017-04-21T10:19:51Z</time>
      </trkpt>
      <trkpt lat="45.96164" lon="4.94031">
        <ele>290</ele>
        <time>2017-04-21T10:19:52Z</time>
      </trkpt>
      <trkpt lat="45.96159" lon="4.94035">
        <ele>290</ele>
        <time>2017-04-21T10:19:53Z</time>
      </trkpt>
      <trkpt lat="45.96155" lon="4.9404">
        <ele>290</ele>
        <time>2017-04-21T10:19:54Z</time>
      </trkpt>
      <trkpt lat="45.9615" lon="4.94045">
        <ele>290</ele>
        <time>2017-04-21T10:19:55Z</time>
      </trkpt>
      <trkpt lat="45.96144" lon="4.94049">
        <ele>290</ele>
        <time>2017-04-21T10:19:56Z</time>
      </trkpt>
      <trkpt lat="45.96139" lon="4.94053">
        <ele>290</ele>
        <time>2017-04-21T10:19:57Z</time>
      </trkpt>
      <trkpt lat="45.96133" lon="4.94057">
        <ele>290</ele>
        <time>2017-04-21T10:19:58Z</time>
      </trkpt>
      <trkpt lat="45.96127" lon="4.94062">
        <ele>290</ele>
        <time>2017-04-21T10:19:59Z</time>
      </trkpt>
      <trkpt lat="45.96122" lon="4.94066">
        <ele>290</ele>
        <time>2017-04-21T10:20:00Z</time>
      </trkpt>
      <trkpt lat="45.96116" lon="4.94071">
        <ele>290</ele>
        <time>2017-04-21T10:20:01Z</time>
      </trkpt>
      <trkpt lat="45.96111" lon="4.94075">
        <ele>291</ele>
        <time>2017-04-21T10:20:02Z</time>
      </trkpt>
      <trkpt lat="45.96106" lon="4.9408">
        <ele>291</ele>
        <time>2017-04-21T10:20:03Z</time>
      </trkpt>
      <trkpt lat="45.961" lon="4.94085">
        <ele>291</ele>
        <time>2017-04-21T10:20:04Z</time>
      </trkpt>
      <trkpt lat="45.96095" lon="4.94089">
        <ele>291</ele>
        <time>2017-04-21T10:20:05Z</time>
      </trkpt>
      <trkpt lat="45.9609" lon="4.94093">
        <ele>291</ele>
        <time>2017-04-21T10:20:06Z</time>
      </trkpt>
      <trkpt lat="45.96085" lon="4.94097">
        <ele>291</ele>
        <time>2017-04-21T10:20:07Z</time>
      </trkpt>
      <trkpt lat="45.9608" lon="4.94101">
        <ele>291</ele>
        <time>2017-04-21T10:20:08Z</time>
      </trkpt>
      <trkpt lat="45.96075" lon="4.94105">
        <ele>291</ele>
        <time>2017-04-21T10:20:09Z</time>
      </trkpt>
      <trkpt lat="45.96069" lon="4.94109">
        <ele>291</ele>
        <time>2017-04-21T10:20:10Z</time>
      </trkpt>
      <trkpt lat="45.96064" lon="4.94113">
        <ele>291</ele>
        <time>2017-04-21T10:20:11Z</time>
      </trkpt>
      <trkpt lat="45.96059" lon="4.94116">
        <ele>291</ele>
        <time>2017-04-21T10:20:12Z</time>
      </trkpt>
      <trkpt lat="45.96054" lon="4.94119">
        <ele>291</ele>
        <time>2017-04-21T10:20:13Z</time>
      </trkpt>
      <trkpt lat="45.96048" lon="4.94122">
        <ele>291</ele>
        <time>2017-04-21T10:20:14Z</time>
      </trkpt>
      <trkpt lat="45.96043" lon="4.94125">
        <ele>291</ele>
        <time>2017-04-21T10:20:15Z</time>
      </trkpt>
      <trkpt lat="45.96038" lon="4.94126">
        <ele>291</ele>
        <time>2017-04-21T10:20:16Z</time>
      </trkpt>
      <trkpt lat="45.96033" lon="4.94127">
        <ele>291</ele>
        <time>2017-04-21T10:20:17Z</time>
      </trkpt>
      <trkpt lat="45.96028" lon="4.94126">
        <ele>291</ele>
        <time>2017-04-21T10:20:18Z</time>
      </trkpt>
      <trkpt lat="45.96022" lon="4.94126">
        <ele>291</ele>
        <time>2017-04-21T10:20:19Z</time>
      </trkpt>
      <trkpt lat="45.96016" lon="4.94125">
        <ele>291</ele>
        <time>2017-04-21T10:20:20Z</time>
      </trkpt>
      <trkpt lat="45.96011" lon="4.94123">
        <ele>291</ele>
        <time>2017-04-21T10:20:21Z</time>
      </trkpt>
      <trkpt lat="45.96005" lon="4.94121">
        <ele>291</ele>
        <time>2017-04-21T10:20:22Z</time>
      </trkpt>
      <trkpt lat="45.95999" lon="4.94119">
        <ele>291</ele>
        <time>2017-04-21T10:20:23Z</time>
      </trkpt>
      <trkpt lat="45.95993" lon="4.94117">
        <ele>291</ele>
        <time>2017-04-21T10:20:24Z</time>
      </trkpt>
      <trkpt lat="45.95988" lon="4.94116">
        <ele>292</ele>
        <time>2017-04-21T10:20:25Z</time>
      </trkpt>
      <trkpt lat="45.95982" lon="4.94115">
        <ele>292</ele>
        <time>2017-04-21T10:20:26Z</time>
      </trkpt>
      <trkpt lat="45.95976" lon="4.94114">
        <ele>292</ele>
        <time>2017-04-21T10:20:27Z</time>
      </trkpt>
      <trkpt lat="45.9597" lon="4.94113">
        <ele>292</ele>
        <time>2017-04-21T10:20:28Z</time>
      </trkpt>
      <trkpt lat="45.95964" lon="4.94112">
        <ele>292</ele>
        <time>2017-04-21T10:20:29Z</time>
      </trkpt>
      <trkpt lat="45.95958" lon="4.9411">
        <ele>292</ele>
        <time>2017-04-21T10:20:30Z</time>
      </trkpt>
      <trkpt lat="45.95953" lon="4.94109">
        <ele>292</ele>
        <time>2017-04-21T10:20:31Z</time>
      </trkpt>
      <trkpt lat="45.95948" lon="4.94107">
        <ele>292</ele>
        <time>2017-04-21T10:20:32Z</time>
      </trkpt>
      <trkpt lat="45.95942" lon="4.94106">
        <ele>292</ele>
        <time>2017-04-21T10:20:33Z</time>
      </trkpt>
      <trkpt lat="45.95937" lon="4.94105">
        <ele>292</ele>
        <time>2017-04-21T10:20:34Z</time>
      </trkpt>
      <trkpt lat="45.95932" lon="4.94103">
        <ele>292</ele>
        <time>2017-04-21T10:20:35Z</time>
      </trkpt>
      <trkpt lat="45.95927" lon="4.94102">
        <ele>292</ele>
        <time>2017-04-21T10:20:36Z</time>
      </trkpt>
      <trkpt lat="45.95923" lon="4.94101">
        <ele>292</ele>
        <time>2017-04-21T10:20:37Z</time>
      </trkpt>
      <trkpt lat="45.95918" lon="4.94099">
        <ele>292</ele>
        <time>2017-04-21T10:20:38Z</time>
      </trkpt>
      <trkpt lat="45.95913" lon="4.94098">
        <ele>293</ele>
        <time>2017-04-21T10:20:39Z</time>
      </trkpt>
      <trkpt lat="45.95909" lon="4.94097">
        <ele>293</ele>
        <time>2017-04-21T10:20:40Z</time>
      </trkpt>
      <trkpt lat="45.95904" lon="4.94096">
        <ele>293</ele>
        <time>2017-04-21T10:20:41Z</time>
      </trkpt>
      <trkpt lat="45.959" lon="4.94095">
        <ele>293</ele>
        <time>2017-04-21T10:20:42Z</time>
      </trkpt>
      <trkpt lat="45.95891" lon="4.94094">
        <ele>293</ele>
        <time>2017-04-21T10:20:44Z</time>
      </trkpt>
      <trkpt lat="45.95886" lon="4.94093">
        <ele>293</ele>
        <time>2017-04-21T10:20:45Z</time>
      </trkpt>
      <trkpt lat="45.9588" lon="4.94092">
        <ele>293</ele>
        <time>2017-04-21T10:20:46Z</time>
      </trkpt>
      <trkpt lat="45.95875" lon="4.94091">
        <ele>293</ele>
        <time>2017-04-21T10:20:47Z</time>
      </trkpt>
      <trkpt lat="45.9587" lon="4.9409">
        <ele>293</ele>
        <time>2017-04-21T10:20:48Z</time>
      </trkpt>
      <trkpt lat="45.95864" lon="4.94088">
        <ele>293</ele>
        <time>2017-04-21T10:20:49Z</time>
      </trkpt>
      <trkpt lat="45.95858" lon="4.94087">
        <ele>294</ele>
        <time>2017-04-21T10:20:50Z</time>
      </trkpt>
      <trkpt lat="45.95853" lon="4.94085">
        <ele>294</ele>
        <time>2017-04-21T10:20:51Z</time>
      </trkpt>
      <trkpt lat="45.95848" lon="4.94084">
        <ele>294</ele>
        <time>2017-04-21T10:20:52Z</time>
      </trkpt>
      <trkpt lat="45.95842" lon="4.94083">
        <ele>294</ele>
        <time>2017-04-21T10:20:53Z</time>
      </trkpt>
      <trkpt lat="45.95837" lon="4.94081">
        <ele>294</ele>
        <time>2017-04-21T10:20:54Z</time>
      </trkpt>
      <trkpt lat="45.95832" lon="4.9408">
        <ele>294</ele>
        <time>2017-04-21T10:20:55Z</time>
      </trkpt>
      <trkpt lat="45.95826" lon="4.94079">
        <ele>294</ele>
        <time>2017-04-21T10:20:56Z</time>
      </trkpt>
      <trkpt lat="45.95821" lon="4.94078">
        <ele>294</ele>
        <time>2017-04-21T10:20:57Z</time>
      </trkpt>
      <trkpt lat="45.95816" lon="4.94077">
        <ele>294</ele>
        <time>2017-04-21T10:20:58Z</time>
      </trkpt>
      <trkpt lat="45.95811" lon="4.94076">
        <ele>294</ele>
        <time>2017-04-21T10:20:59Z</time>
      </trkpt>
      <trkpt lat="45.95806" lon="4.94075">
        <ele>294</ele>
        <time>2017-04-21T10:21:00Z</time>
      </trkpt>
      <trkpt lat="45.95802" lon="4.94074">
        <ele>294</ele>
        <time>2017-04-21T10:21:01Z</time>
      </trkpt>
      <trkpt lat="45.95793" lon="4.94071">
        <ele>294</ele>
        <time>2017-04-21T10:21:03Z</time>
      </trkpt>
      <trkpt lat="45.95789" lon="4.9407">
        <ele>294</ele>
        <time>2017-04-21T10:21:04Z</time>
      </trkpt>
      <trkpt lat="45.95781" lon="4.94068">
        <ele>294</ele>
        <time>2017-04-21T10:21:06Z</time>
      </trkpt>
      <trkpt lat="45.95776" lon="4.94067">
        <ele>294</ele>
        <time>2017-04-21T10:21:07Z</time>
      </trkpt>
      <trkpt lat="45.95767" lon="4.94064">
        <ele>294</ele>
        <time>2017-04-21T10:21:09Z</time>
      </trkpt>
      <trkpt lat="45.95763" lon="4.94063">
        <ele>294</ele>
        <time>2017-04-21T10:21:10Z</time>
      </trkpt>
      <trkpt lat="45.95758" lon="4.94063">
        <ele>294</ele>
        <time>2017-04-21T10:21:11Z</time>
      </trkpt>
      <trkpt lat="45.95753" lon="4.94063">
        <ele>295</ele>
        <time>2017-04-21T10:21:12Z</time>
      </trkpt>
      <trkpt lat="45.95748" lon="4.94062">
        <ele>295</ele>
        <time>2017-04-21T10:21:13Z</time>
      </trkpt>
      <trkpt lat="45.95743" lon="4.94061">
        <ele>295</ele>
        <time>2017-04-21T10:21:14Z</time>
      </trkpt>
      <trkpt lat="45.95738" lon="4.9406">
        <ele>295</ele>
        <time>2017-04-21T10:21:15Z</time>
      </trkpt>
      <trkpt lat="45.95733" lon="4.94058">
        <ele>295</ele>
        <time>2017-04-21T10:21:16Z</time>
      </trkpt>
      <trkpt lat="45.95728" lon="4.94055">
        <ele>295</ele>
        <time>2017-04-21T10:21:17Z</time>
      </trkpt>
      <trkpt lat="45.95723" lon="4.94054">
        <ele>295</ele>
        <time>2017-04-21T10:21:18Z</time>
      </trkpt>
      <trkpt lat="45.95718" lon="4.94052">
        <ele>295</ele>
        <time>2017-04-21T10:21:19Z</time>
      </trkpt>
      <trkpt lat="45.95713" lon="4.94051">
        <ele>295</ele>
        <time>2017-04-21T10:21:20Z</time>
      </trkpt>
      <trkpt lat="45.95708" lon="4.9405">
        <ele>295</ele>
        <time>2017-04-21T10:21:21Z</time>
      </trkpt>
      <trkpt lat="45.95703" lon="4.94049">
        <ele>295</ele>
        <time>2017-04-21T10:21:22Z</time>
      </trkpt>
      <trkpt lat="45.95698" lon="4.94048">
        <ele>295</ele>
        <time>2017-04-21T10:21:23Z</time>
      </trkpt>
      <trkpt lat="45.95693" lon="4.94047">
        <ele>295</ele>
        <time>2017-04-21T10:21:24Z</time>
      </trkpt>
      <trkpt lat="45.95684" lon="4.94046">
        <ele>295</ele>
        <time>2017-04-21T10:21:26Z</time>
      </trkpt>
      <trkpt lat="45.9568" lon="4.94044">
        <ele>295</ele>
        <time>2017-04-21T10:21:27Z</time>
      </trkpt>
      <trkpt lat="45.95675" lon="4.94042">
        <ele>295</ele>
        <time>2017-04-21T10:21:28Z</time>
      </trkpt>
      <trkpt lat="45.95672" lon="4.94037">
        <ele>295</ele>
        <time>2017-04-21T10:21:29Z</time>
      </trkpt>
      <trkpt lat="45.95671" lon="4.94026">
        <ele>295</ele>
        <time>2017-04-21T10:21:31Z</time>
      </trkpt>
      <trkpt lat="45.95671" lon="4.9402">
        <ele>295</ele>
        <time>2017-04-21T10:21:32Z</time>
      </trkpt>
      <trkpt lat="45.95671" lon="4.94008">
        <ele>296</ele>
        <time>2017-04-21T10:21:34Z</time>
      </trkpt>
      <trkpt lat="45.9567" lon="4.94001">
        <ele>296</ele>
        <time>2017-04-21T10:21:35Z</time>
      </trkpt>
      <trkpt lat="45.95665" lon="4.93993">
        <ele>295</ele>
        <time>2017-04-21T10:21:37Z</time>
      </trkpt>
      <trkpt lat="45.95661" lon="4.9399">
        <ele>295</ele>
        <time>2017-04-21T10:21:38Z</time>
      </trkpt>
      <trkpt lat="45.95654" lon="4.93986">
        <ele>295</ele>
        <time>2017-04-21T10:21:40Z</time>
      </trkpt>
      <trkpt lat="45.9565" lon="4.93982">
        <ele>294</ele>
        <time>2017-04-21T10:21:41Z</time>
      </trkpt>
      <trkpt lat="45.95647" lon="4.9397">
        <ele>294</ele>
        <time>2017-04-21T10:21:43Z</time>
      </trkpt>
      <trkpt lat="45.95646" lon="4.93962">
        <ele>294</ele>
        <time>2017-04-21T10:21:44Z</time>
      </trkpt>
      <trkpt lat="45.95645" lon="4.9395">
        <ele>294</ele>
        <time>2017-04-21T10:21:45Z</time>
      </trkpt>
      <trkpt lat="45.95644" lon="4.9394">
        <ele>294</ele>
        <time>2017-04-21T10:21:46Z</time>
      </trkpt>
      <trkpt lat="45.95644" lon="4.93931">
        <ele>294</ele>
        <time>2017-04-21T10:21:47Z</time>
      </trkpt>
      <trkpt lat="45.95644" lon="4.93922">
        <ele>294</ele>
        <time>2017-04-21T10:21:48Z</time>
      </trkpt>
      <trkpt lat="45.95645" lon="4.93911">
        <ele>292</ele>
        <time>2017-04-21T10:21:49Z</time>
      </trkpt>
      <trkpt lat="45.95645" lon="4.939">
        <ele>292</ele>
        <time>2017-04-21T10:21:50Z</time>
      </trkpt>
      <trkpt lat="45.95646" lon="4.93891">
        <ele>291</ele>
        <time>2017-04-21T10:21:51Z</time>
      </trkpt>
      <trkpt lat="45.95646" lon="4.93883">
        <ele>291</ele>
        <time>2017-04-21T10:21:52Z</time>
      </trkpt>
      <trkpt lat="45.95646" lon="4.93875">
        <ele>291</ele>
        <time>2017-04-21T10:21:53Z</time>
      </trkpt>
      <trkpt lat="45.95643" lon="4.93869">
        <ele>291</ele>
        <time>2017-04-21T10:21:54Z</time>
      </trkpt>
      <trkpt lat="45.95639" lon="4.93864">
        <ele>290</ele>
        <time>2017-04-21T10:21:55Z</time>
      </trkpt>
      <trkpt lat="45.95635" lon="4.9386">
        <ele>290</ele>
        <time>2017-04-21T10:21:56Z</time>
      </trkpt>
      <trkpt lat="45.9563" lon="4.93856">
        <ele>290</ele>
        <time>2017-04-21T10:21:57Z</time>
      </trkpt>
      <trkpt lat="45.95625" lon="4.93852">
        <ele>290</ele>
        <time>2017-04-21T10:21:58Z</time>
      </trkpt>
      <trkpt lat="45.9562" lon="4.93848">
        <ele>290</ele>
        <time>2017-04-21T10:21:59Z</time>
      </trkpt>
      <trkpt lat="45.95615" lon="4.93844">
        <ele>290</ele>
        <time>2017-04-21T10:22:00Z</time>
      </trkpt>
      <trkpt lat="45.9561" lon="4.9384">
        <ele>290</ele>
        <time>2017-04-21T10:22:01Z</time>
      </trkpt>
      <trkpt lat="45.95605" lon="4.93835">
        <ele>290</ele>
        <time>2017-04-21T10:22:02Z</time>
      </trkpt>
      <trkpt lat="45.95601" lon="4.93831">
        <ele>289</ele>
        <time>2017-04-21T10:22:03Z</time>
      </trkpt>
      <trkpt lat="45.95596" lon="4.93827">
        <ele>289</ele>
        <time>2017-04-21T10:22:04Z</time>
      </trkpt>
      <trkpt lat="45.95592" lon="4.93823">
        <ele>289</ele>
        <time>2017-04-21T10:22:05Z</time>
      </trkpt>
      <trkpt lat="45.95588" lon="4.93819">
        <ele>289</ele>
        <time>2017-04-21T10:22:06Z</time>
      </trkpt>
      <trkpt lat="45.95584" lon="4.93815">
        <ele>289</ele>
        <time>2017-04-21T10:22:07Z</time>
      </trkpt>
      <trkpt lat="45.95579" lon="4.93811">
        <ele>290</ele>
        <time>2017-04-21T10:22:08Z</time>
      </trkpt>
      <trkpt lat="45.95575" lon="4.93807">
        <ele>290</ele>
        <time>2017-04-21T10:22:09Z</time>
      </trkpt>
      <trkpt lat="45.95571" lon="4.93801">
        <ele>290</ele>
        <time>2017-04-21T10:22:10Z</time>
      </trkpt>
      <trkpt lat="45.95567" lon="4.93795">
        <ele>290</ele>
        <time>2017-04-21T10:22:11Z</time>
      </trkpt>
      <trkpt lat="45.95565" lon="4.93788">
        <ele>290</ele>
        <time>2017-04-21T10:22:12Z</time>
      </trkpt>
      <trkpt lat="45.95563" lon="4.9378">
        <ele>290</ele>
        <time>2017-04-21T10:22:13Z</time>
      </trkpt>
      <trkpt lat="45.95563" lon="4.93772">
        <ele>290</ele>
        <time>2017-04-21T10:22:14Z</time>
      </trkpt>
      <trkpt lat="45.95562" lon="4.93764">
        <ele>290</ele>
        <time>2017-04-21T10:22:15Z</time>
      </trkpt>
      <trkpt lat="45.95562" lon="4.93757">
        <ele>290</ele>
        <time>2017-04-21T10:22:16Z</time>
      </trkpt>
      <trkpt lat="45.95561" lon="4.93749">
        <ele>290</ele>
        <time>2017-04-21T10:22:17Z</time>
      </trkpt>
      <trkpt lat="45.95561" lon="4.93743">
        <ele>290</ele>
        <time>2017-04-21T10:22:18Z</time>
      </trkpt>
      <trkpt lat="45.95561" lon="4.93736">
        <ele>290</ele>
        <time>2017-04-21T10:22:19Z</time>
      </trkpt>
      <trkpt lat="45.95561" lon="4.93729">
        <ele>290</ele>
        <time>2017-04-21T10:22:20Z</time>
      </trkpt>
      <trkpt lat="45.95561" lon="4.93722">
        <ele>290</ele>
        <time>2017-04-21T10:22:21Z</time>
      </trkpt>
      <trkpt lat="45.95561" lon="4.93715">
        <ele>290</ele>
        <time>2017-04-21T10:22:22Z</time>
      </trkpt>
      <trkpt lat="45.95561" lon="4.93708">
        <ele>290</ele>
        <time>2017-04-21T10:22:23Z</time>
      </trkpt>
      <trkpt lat="45.95561" lon="4.93701">
        <ele>290</ele>
        <time>2017-04-21T10:22:24Z</time>
      </trkpt>
      <trkpt lat="45.95561" lon="4.93693">
        <ele>290</ele>
        <time>2017-04-21T10:22:25Z</time>
      </trkpt>
      <trkpt lat="45.95561" lon="4.93686">
        <ele>290</ele>
        <time>2017-04-21T10:22:26Z</time>
      </trkpt>
      <trkpt lat="45.95562" lon="4.93679">
        <ele>289</ele>
        <time>2017-04-21T10:22:27Z</time>
      </trkpt>
      <trkpt lat="45.95563" lon="4.93671">
        <ele>289</ele>
        <time>2017-04-21T10:22:28Z</time>
      </trkpt>
      <trkpt lat="45.95563" lon="4.93664">
        <ele>289</ele>
        <time>2017-04-21T10:22:29Z</time>
      </trkpt>
      <trkpt lat="45.95563" lon="4.93656">
        <ele>289</ele>
        <time>2017-04-21T10:22:30Z</time>
      </trkpt>
      <trkpt lat="45.95562" lon="4.93648">
        <ele>289</ele>
        <time>2017-04-21T10:22:31Z</time>
      </trkpt>
      <trkpt lat="45.95562" lon="4.93641">
        <ele>289</ele>
        <time>2017-04-21T10:22:32Z</time>
      </trkpt>
      <trkpt lat="45.95563" lon="4.93634">
        <ele>289</ele>
        <time>2017-04-21T10:22:33Z</time>
      </trkpt>
      <trkpt lat="45.95564" lon="4.93627">
        <ele>289</ele>
        <time>2017-04-21T10:22:34Z</time>
      </trkpt>
      <trkpt lat="45.95565" lon="4.9362">
        <ele>289</ele>
        <time>2017-04-21T10:22:35Z</time>
      </trkpt>
      <trkpt lat="45.95565" lon="4.93612">
        <ele>289</ele>
        <time>2017-04-21T10:22:36Z</time>
      </trkpt>
      <trkpt lat="45.95566" lon="4.93605">
        <ele>289</ele>
        <time>2017-04-21T10:22:37Z</time>
      </trkpt>
      <trkpt lat="45.95567" lon="4.93597">
        <ele>289</ele>
        <time>2017-04-21T10:22:38Z</time>
      </trkpt>
      <trkpt lat="45.95567" lon="4.9359">
        <ele>289</ele>
        <time>2017-04-21T10:22:39Z</time>
      </trkpt>
      <trkpt lat="45.95568" lon="4.93582">
        <ele>289</ele>
        <time>2017-04-21T10:22:40Z</time>
      </trkpt>
      <trkpt lat="45.95568" lon="4.93574">
        <ele>289</ele>
        <time>2017-04-21T10:22:41Z</time>
      </trkpt>
      <trkpt lat="45.95568" lon="4.93567">
        <ele>289</ele>
        <time>2017-04-21T10:22:42Z</time>
      </trkpt>
      <trkpt lat="45.95569" lon="4.9356">
        <ele>289</ele>
        <time>2017-04-21T10:22:43Z</time>
      </trkpt>
      <trkpt lat="45.95569" lon="4.93553">
        <ele>289</ele>
        <time>2017-04-21T10:22:44Z</time>
      </trkpt>
      <trkpt lat="45.95569" lon="4.93545">
        <ele>289</ele>
        <time>2017-04-21T10:22:45Z</time>
      </trkpt>
      <trkpt lat="45.95569" lon="4.93537">
        <ele>290</ele>
        <time>2017-04-21T10:22:46Z</time>
      </trkpt>
      <trkpt lat="45.95569" lon="4.93529">
        <ele>290</ele>
        <time>2017-04-21T10:22:47Z</time>
      </trkpt>
      <trkpt lat="45.95567" lon="4.9352">
        <ele>290</ele>
        <time>2017-04-21T10:22:48Z</time>
      </trkpt>
      <trkpt lat="45.95565" lon="4.93512">
        <ele>290</ele>
        <time>2017-04-21T10:22:49Z</time>
      </trkpt>
      <trkpt lat="45.95564" lon="4.93505">
        <ele>290</ele>
        <time>2017-04-21T10:22:50Z</time>
      </trkpt>
      <trkpt lat="45.95561" lon="4.93497">
        <ele>290</ele>
        <time>2017-04-21T10:22:51Z</time>
      </trkpt>
      <trkpt lat="45.95559" lon="4.9349">
        <ele>289</ele>
        <time>2017-04-21T10:22:52Z</time>
      </trkpt>
      <trkpt lat="45.95556" lon="4.93483">
        <ele>289</ele>
        <time>2017-04-21T10:22:53Z</time>
      </trkpt>
      <trkpt lat="45.95553" lon="4.93476">
        <ele>289</ele>
        <time>2017-04-21T10:22:54Z</time>
      </trkpt>
      <trkpt lat="45.95551" lon="4.9347">
        <ele>289</ele>
        <time>2017-04-21T10:22:55Z</time>
      </trkpt>
      <trkpt lat="45.95548" lon="4.93464">
        <ele>289</ele>
        <time>2017-04-21T10:22:56Z</time>
      </trkpt>
      <trkpt lat="45.95546" lon="4.93458">
        <ele>289</ele>
        <time>2017-04-21T10:22:57Z</time>
      </trkpt>
      <trkpt lat="45.95544" lon="4.93452">
        <ele>289</ele>
        <time>2017-04-21T10:22:58Z</time>
      </trkpt>
      <trkpt lat="45.95541" lon="4.93446">
        <ele>289</ele>
        <time>2017-04-21T10:22:59Z</time>
      </trkpt>
      <trkpt lat="45.95538" lon="4.93439">
        <ele>289</ele>
        <time>2017-04-21T10:23:00Z</time>
      </trkpt>
      <trkpt lat="45.95535" lon="4.93432">
        <ele>289</ele>
        <time>2017-04-21T10:23:01Z</time>
      </trkpt>
      <trkpt lat="45.95532" lon="4.93425">
        <ele>289</ele>
        <time>2017-04-21T10:23:02Z</time>
      </trkpt>
      <trkpt lat="45.9553" lon="4.93419">
        <ele>289</ele>
        <time>2017-04-21T10:23:03Z</time>
      </trkpt>
      <trkpt lat="45.95527" lon="4.93413">
        <ele>289</ele>
        <time>2017-04-21T10:23:04Z</time>
      </trkpt>
      <trkpt lat="45.95525" lon="4.93407">
        <ele>289</ele>
        <time>2017-04-21T10:23:05Z</time>
      </trkpt>
      <trkpt lat="45.95522" lon="4.93401">
        <ele>289</ele>
        <time>2017-04-21T10:23:06Z</time>
      </trkpt>
      <trkpt lat="45.9552" lon="4.93395">
        <ele>289</ele>
        <time>2017-04-21T10:23:07Z</time>
      </trkpt>
      <trkpt lat="45.95518" lon="4.9339">
        <ele>289</ele>
        <time>2017-04-21T10:23:08Z</time>
      </trkpt>
      <trkpt lat="45.95515" lon="4.93383">
        <ele>289</ele>
        <time>2017-04-21T10:23:09Z</time>
      </trkpt>
      <trkpt lat="45.95512" lon="4.93377">
        <ele>289</ele>
        <time>2017-04-21T10:23:10Z</time>
      </trkpt>
      <trkpt lat="45.95509" lon="4.93369">
        <ele>289</ele>
        <time>2017-04-21T10:23:11Z</time>
      </trkpt>
      <trkpt lat="45.95506" lon="4.93363">
        <ele>289</ele>
        <time>2017-04-21T10:23:12Z</time>
      </trkpt>
      <trkpt lat="45.95503" lon="4.93355">
        <ele>289</ele>
        <time>2017-04-21T10:23:13Z</time>
      </trkpt>
      <trkpt lat="45.955" lon="4.93348">
        <ele>289</ele>
        <time>2017-04-21T10:23:14Z</time>
      </trkpt>
      <trkpt lat="45.95496" lon="4.93341">
        <ele>289</ele>
        <time>2017-04-21T10:23:15Z</time>
      </trkpt>
      <trkpt lat="45.95493" lon="4.93333">
        <ele>289</ele>
        <time>2017-04-21T10:23:16Z</time>
      </trkpt>
      <trkpt lat="45.95489" lon="4.93325">
        <ele>290</ele>
        <time>2017-04-21T10:23:17Z</time>
      </trkpt>
      <trkpt lat="45.95486" lon="4.93318">
        <ele>290</ele>
        <time>2017-04-21T10:23:18Z</time>
      </trkpt>
      <trkpt lat="45.95483" lon="4.93309">
        <ele>290</ele>
        <time>2017-04-21T10:23:19Z</time>
      </trkpt>
      <trkpt lat="45.9548" lon="4.93302">
        <ele>290</ele>
        <time>2017-04-21T10:23:20Z</time>
      </trkpt>
      <trkpt lat="45.95477" lon="4.93295">
        <ele>290</ele>
        <time>2017-04-21T10:23:21Z</time>
      </trkpt>
      <trkpt lat="45.95475" lon="4.93288">
        <ele>290</ele>
        <time>2017-04-21T10:23:22Z</time>
      </trkpt>
      <trkpt lat="45.95473" lon="4.93282">
        <ele>290</ele>
        <time>2017-04-21T10:23:23Z</time>
      </trkpt>
      <trkpt lat="45.95471" lon="4.93276">
        <ele>290</ele>
        <time>2017-04-21T10:23:24Z</time>
      </trkpt>
      <trkpt lat="45.95467" lon="4.93265">
        <ele>290</ele>
        <time>2017-04-21T10:23:26Z</time>
      </trkpt>
      <trkpt lat="45.95465" lon="4.93259">
        <ele>290</ele>
        <time>2017-04-21T10:23:27Z</time>
      </trkpt>
      <trkpt lat="45.95463" lon="4.93253">
        <ele>290</ele>
        <time>2017-04-21T10:23:28Z</time>
      </trkpt>
      <trkpt lat="45.95461" lon="4.93247">
        <ele>290</ele>
        <time>2017-04-21T10:23:29Z</time>
      </trkpt>
      <trkpt lat="45.95458" lon="4.93241">
        <ele>291</ele>
        <time>2017-04-21T10:23:30Z</time>
      </trkpt>
      <trkpt lat="45.95456" lon="4.93235">
        <ele>291</ele>
        <time>2017-04-21T10:23:31Z</time>
      </trkpt>
      <trkpt lat="45.95453" lon="4.93229">
        <ele>291</ele>
        <time>2017-04-21T10:23:32Z</time>
      </trkpt>
      <trkpt lat="45.95451" lon="4.93222">
        <ele>291</ele>
        <time>2017-04-21T10:23:33Z</time>
      </trkpt>
      <trkpt lat="45.95448" lon="4.93215">
        <ele>291</ele>
        <time>2017-04-21T10:23:34Z</time>
      </trkpt>
      <trkpt lat="45.95447" lon="4.93208">
        <ele>291</ele>
        <time>2017-04-21T10:23:35Z</time>
      </trkpt>
      <trkpt lat="45.95448" lon="4.932">
        <ele>291</ele>
        <time>2017-04-21T10:23:36Z</time>
      </trkpt>
      <trkpt lat="45.95448" lon="4.93193">
        <ele>291</ele>
        <time>2017-04-21T10:23:37Z</time>
      </trkpt>
      <trkpt lat="45.95451" lon="4.93186">
        <ele>291</ele>
        <time>2017-04-21T10:23:38Z</time>
      </trkpt>
      <trkpt lat="45.95454" lon="4.9318">
        <ele>291</ele>
        <time>2017-04-21T10:23:39Z</time>
      </trkpt>
      <trkpt lat="45.95457" lon="4.93175">
        <ele>291</ele>
        <time>2017-04-21T10:23:40Z</time>
      </trkpt>
      <trkpt lat="45.9546" lon="4.93171">
        <ele>290</ele>
        <time>2017-04-21T10:23:41Z</time>
      </trkpt>
      <trkpt lat="45.95468" lon="4.93163">
        <ele>290</ele>
        <time>2017-04-21T10:23:43Z</time>
      </trkpt>
      <trkpt lat="45.95471" lon="4.9316">
        <ele>290</ele>
        <time>2017-04-21T10:23:44Z</time>
      </trkpt>
      <trkpt lat="45.95477" lon="4.93154">
        <ele>290</ele>
        <time>2017-04-21T10:23:46Z</time>
      </trkpt>
      <trkpt lat="45.9548" lon="4.93151">
        <ele>290</ele>
        <time>2017-04-21T10:23:47Z</time>
      </trkpt>
      <trkpt lat="45.95485" lon="4.93144">
        <ele>290</ele>
        <time>2017-04-21T10:23:49Z</time>
      </trkpt>
      <trkpt lat="45.95488" lon="4.93141">
        <ele>290</ele>
        <time>2017-04-21T10:23:50Z</time>
      </trkpt>
      <trkpt lat="45.95494" lon="4.93135">
        <ele>290</ele>
        <time>2017-04-21T10:23:52Z</time>
      </trkpt>
      <trkpt lat="45.95497" lon="4.93132">
        <ele>290</ele>
        <time>2017-04-21T10:23:53Z</time>
      </trkpt>
      <trkpt lat="45.95503" lon="4.93126">
        <ele>289</ele>
        <time>2017-04-21T10:23:55Z</time>
      </trkpt>
      <trkpt lat="45.95506" lon="4.93122">
        <ele>289</ele>
        <time>2017-04-21T10:23:56Z</time>
      </trkpt>
      <trkpt lat="45.95509" lon="4.93118">
        <ele>289</ele>
        <time>2017-04-21T10:23:57Z</time>
      </trkpt>
      <trkpt lat="45.95513" lon="4.93114">
        <ele>289</ele>
        <time>2017-04-21T10:23:58Z</time>
      </trkpt>
      <trkpt lat="45.95517" lon="4.93108">
        <ele>289</ele>
        <time>2017-04-21T10:23:59Z</time>
      </trkpt>
      <trkpt lat="45.95521" lon="4.93101">
        <ele>290</ele>
        <time>2017-04-21T10:24:00Z</time>
      </trkpt>
      <trkpt lat="45.95525" lon="4.93094">
        <ele>290</ele>
        <time>2017-04-21T10:24:01Z</time>
      </trkpt>
      <trkpt lat="45.95528" lon="4.93087">
        <ele>290</ele>
        <time>2017-04-21T10:24:02Z</time>
      </trkpt>
      <trkpt lat="45.95531" lon="4.93079">
        <ele>290</ele>
        <time>2017-04-21T10:24:03Z</time>
      </trkpt>
      <trkpt lat="45.95533" lon="4.93071">
        <ele>290</ele>
        <time>2017-04-21T10:24:04Z</time>
      </trkpt>
      <trkpt lat="45.95534" lon="4.93063">
        <ele>290</ele>
        <time>2017-04-21T10:24:05Z</time>
      </trkpt>
      <trkpt lat="45.95535" lon="4.93056">
        <ele>290</ele>
        <time>2017-04-21T10:24:06Z</time>
      </trkpt>
      <trkpt lat="45.95536" lon="4.93049">
        <ele>290</ele>
        <time>2017-04-21T10:24:07Z</time>
      </trkpt>
      <trkpt lat="45.95538" lon="4.93041">
        <ele>290</ele>
        <time>2017-04-21T10:24:08Z</time>
      </trkpt>
      <trkpt lat="45.9554" lon="4.93034">
        <ele>291</ele>
        <time>2017-04-21T10:24:09Z</time>
      </trkpt>
      <trkpt lat="45.95541" lon="4.93027">
        <ele>291</ele>
        <time>2017-04-21T10:24:10Z</time>
      </trkpt>
      <trkpt lat="45.95543" lon="4.9302">
        <ele>291</ele>
        <time>2017-04-21T10:24:11Z</time>
      </trkpt>
      <trkpt lat="45.95544" lon="4.93013">
        <ele>291</ele>
        <time>2017-04-21T10:24:12Z</time>
      </trkpt>
      <trkpt lat="45.95545" lon="4.93007">
        <ele>291</ele>
        <time>2017-04-21T10:24:13Z</time>
      </trkpt>
      <trkpt lat="45.95547" lon="4.93001">
        <ele>291</ele>
        <time>2017-04-21T10:24:14Z</time>
      </trkpt>
      <trkpt lat="45.95548" lon="4.92989">
        <ele>292</ele>
        <time>2017-04-21T10:24:16Z</time>
      </trkpt>
      <trkpt lat="45.9555" lon="4.92982">
        <ele>292</ele>
        <time>2017-04-21T10:24:17Z</time>
      </trkpt>
      <trkpt lat="45.95551" lon="4.92976">
        <ele>292</ele>
        <time>2017-04-21T10:24:18Z</time>
      </trkpt>
      <trkpt lat="45.95553" lon="4.92969">
        <ele>292</ele>
        <time>2017-04-21T10:24:19Z</time>
      </trkpt>
      <trkpt lat="45.95555" lon="4.92962">
        <ele>292</ele>
        <time>2017-04-21T10:24:20Z</time>
      </trkpt>
      <trkpt lat="45.95556" lon="4.92954">
        <ele>292</ele>
        <time>2017-04-21T10:24:21Z</time>
      </trkpt>
      <trkpt lat="45.95557" lon="4.92947">
        <ele>292</ele>
        <time>2017-04-21T10:24:22Z</time>
      </trkpt>
      <trkpt lat="45.95558" lon="4.92939">
        <ele>292</ele>
        <time>2017-04-21T10:24:23Z</time>
      </trkpt>
      <trkpt lat="45.9556" lon="4.92931">
        <ele>292</ele>
        <time>2017-04-21T10:24:24Z</time>
      </trkpt>
      <trkpt lat="45.95561" lon="4.92923">
        <ele>293</ele>
        <time>2017-04-21T10:24:25Z</time>
      </trkpt>
      <trkpt lat="45.95562" lon="4.92916">
        <ele>293</ele>
        <time>2017-04-21T10:24:26Z</time>
      </trkpt>
      <trkpt lat="45.95563" lon="4.92908">
        <ele>293</ele>
        <time>2017-04-21T10:24:27Z</time>
      </trkpt>
      <trkpt lat="45.95565" lon="4.92901">
        <ele>293</ele>
        <time>2017-04-21T10:24:28Z</time>
      </trkpt>
      <trkpt lat="45.95566" lon="4.92894">
        <ele>293</ele>
        <time>2017-04-21T10:24:29Z</time>
      </trkpt>
      <trkpt lat="45.95567" lon="4.92887">
        <ele>294</ele>
        <time>2017-04-21T10:24:30Z</time>
      </trkpt>
      <trkpt lat="45.95568" lon="4.9288">
        <ele>294</ele>
        <time>2017-04-21T10:24:31Z</time>
      </trkpt>
      <trkpt lat="45.9557" lon="4.92873">
        <ele>294</ele>
        <time>2017-04-21T10:24:32Z</time>
      </trkpt>
      <trkpt lat="45.95571" lon="4.92865">
        <ele>294</ele>
        <time>2017-04-21T10:24:33Z</time>
      </trkpt>
      <trkpt lat="45.95572" lon="4.92858">
        <ele>294</ele>
        <time>2017-04-21T10:24:34Z</time>
      </trkpt>
      <trkpt lat="45.95573" lon="4.9285">
        <ele>294</ele>
        <time>2017-04-21T10:24:35Z</time>
      </trkpt>
      <trkpt lat="45.95574" lon="4.92842">
        <ele>294</ele>
        <time>2017-04-21T10:24:36Z</time>
      </trkpt>
      <trkpt lat="45.95576" lon="4.92834">
        <ele>295</ele>
        <time>2017-04-21T10:24:37Z</time>
      </trkpt>
      <trkpt lat="45.95577" lon="4.92826">
        <ele>295</ele>
        <time>2017-04-21T10:24:38Z</time>
      </trkpt>
      <trkpt lat="45.95578" lon="4.92818">
        <ele>295</ele>
        <time>2017-04-21T10:24:39Z</time>
      </trkpt>
      <trkpt lat="45.9558" lon="4.9281">
        <ele>294</ele>
        <time>2017-04-21T10:24:40Z</time>
      </trkpt>
      <trkpt lat="45.95581" lon="4.92803">
        <ele>294</ele>
        <time>2017-04-21T10:24:41Z</time>
      </trkpt>
      <trkpt lat="45.95582" lon="4.92795">
        <ele>294</ele>
        <time>2017-04-21T10:24:42Z</time>
      </trkpt>
      <trkpt lat="45.95584" lon="4.92788">
        <ele>295</ele>
        <time>2017-04-21T10:24:43Z</time>
      </trkpt>
      <trkpt lat="45.95585" lon="4.9278">
        <ele>295</ele>
        <time>2017-04-21T10:24:44Z</time>
      </trkpt>
      <trkpt lat="45.95587" lon="4.92773">
        <ele>295</ele>
        <time>2017-04-21T10:24:45Z</time>
      </trkpt>
      <trkpt lat="45.95588" lon="4.92766">
        <ele>295</ele>
        <time>2017-04-21T10:24:46Z</time>
      </trkpt>
      <trkpt lat="45.95589" lon="4.92759">
        <ele>295</ele>
        <time>2017-04-21T10:24:47Z</time>
      </trkpt>
      <trkpt lat="45.9559" lon="4.92752">
        <ele>295</ele>
        <time>2017-04-21T10:24:48Z</time>
      </trkpt>
      <trkpt lat="45.95592" lon="4.92745">
        <ele>295</ele>
        <time>2017-04-21T10:24:49Z</time>
      </trkpt>
      <trkpt lat="45.95593" lon="4.92737">
        <ele>295</ele>
        <time>2017-04-21T10:24:50Z</time>
      </trkpt>
      <trkpt lat="45.95595" lon="4.9273">
        <ele>295</ele>
        <time>2017-04-21T10:24:51Z</time>
      </trkpt>
      <trkpt lat="45.95596" lon="4.92722">
        <ele>295</ele>
        <time>2017-04-21T10:24:52Z</time>
      </trkpt>
      <trkpt lat="45.95597" lon="4.92714">
        <ele>295</ele>
        <time>2017-04-21T10:24:53Z</time>
      </trkpt>
      <trkpt lat="45.95599" lon="4.92707">
        <ele>295</ele>
        <time>2017-04-21T10:24:54Z</time>
      </trkpt>
      <trkpt lat="45.956" lon="4.92699">
        <ele>295</ele>
        <time>2017-04-21T10:24:55Z</time>
      </trkpt>
      <trkpt lat="45.95601" lon="4.92691">
        <ele>295</ele>
        <time>2017-04-21T10:24:56Z</time>
      </trkpt>
      <trkpt lat="45.95603" lon="4.92683">
        <ele>295</ele>
        <time>2017-04-21T10:24:57Z</time>
      </trkpt>
      <trkpt lat="45.95605" lon="4.92675">
        <ele>294</ele>
        <time>2017-04-21T10:24:58Z</time>
      </trkpt>
      <trkpt lat="45.95607" lon="4.92668">
        <ele>294</ele>
        <time>2017-04-21T10:24:59Z</time>
      </trkpt>
      <trkpt lat="45.95609" lon="4.92661">
        <ele>294</ele>
        <time>2017-04-21T10:25:00Z</time>
      </trkpt>
      <trkpt lat="45.9561" lon="4.92654">
        <ele>294</ele>
        <time>2017-04-21T10:25:01Z</time>
      </trkpt>
      <trkpt lat="45.95611" lon="4.92647">
        <ele>294</ele>
        <time>2017-04-21T10:25:02Z</time>
      </trkpt>
      <trkpt lat="45.95612" lon="4.92641">
        <ele>294</ele>
        <time>2017-04-21T10:25:03Z</time>
      </trkpt>
      <trkpt lat="45.95614" lon="4.92634">
        <ele>294</ele>
        <time>2017-04-21T10:25:04Z</time>
      </trkpt>
      <trkpt lat="45.95615" lon="4.92627">
        <ele>294</ele>
        <time>2017-04-21T10:25:05Z</time>
      </trkpt>
      <trkpt lat="45.95615" lon="4.9262">
        <ele>294</ele>
        <time>2017-04-21T10:25:06Z</time>
      </trkpt>
      <trkpt lat="45.95616" lon="4.92612">
        <ele>294</ele>
        <time>2017-04-21T10:25:07Z</time>
      </trkpt>
      <trkpt lat="45.95618" lon="4.92603">
        <ele>294</ele>
        <time>2017-04-21T10:25:08Z</time>
      </trkpt>
      <trkpt lat="45.95621" lon="4.92594">
        <ele>294</ele>
        <time>2017-04-21T10:25:09Z</time>
      </trkpt>
      <trkpt lat="45.95623" lon="4.92584">
        <ele>294</ele>
        <time>2017-04-21T10:25:10Z</time>
      </trkpt>
      <trkpt lat="45.95624" lon="4.92574">
        <ele>294</ele>
        <time>2017-04-21T10:25:11Z</time>
      </trkpt>
      <trkpt lat="45.95625" lon="4.92564">
        <ele>294</ele>
        <time>2017-04-21T10:25:12Z</time>
      </trkpt>
      <trkpt lat="45.95627" lon="4.92555">
        <ele>294</ele>
        <time>2017-04-21T10:25:13Z</time>
      </trkpt>
      <trkpt lat="45.95628" lon="4.92547">
        <ele>294</ele>
        <time>2017-04-21T10:25:14Z</time>
      </trkpt>
      <trkpt lat="45.9563" lon="4.92539">
        <ele>294</ele>
        <time>2017-04-21T10:25:15Z</time>
      </trkpt>
      <trkpt lat="45.95631" lon="4.9253">
        <ele>294</ele>
        <time>2017-04-21T10:25:16Z</time>
      </trkpt>
      <trkpt lat="45.95632" lon="4.92522">
        <ele>294</ele>
        <time>2017-04-21T10:25:17Z</time>
      </trkpt>
      <trkpt lat="45.95633" lon="4.92515">
        <ele>294</ele>
        <time>2017-04-21T10:25:18Z</time>
      </trkpt>
      <trkpt lat="45.95634" lon="4.92507">
        <ele>294</ele>
        <time>2017-04-21T10:25:19Z</time>
      </trkpt>
      <trkpt lat="45.95636" lon="4.925">
        <ele>293</ele>
        <time>2017-04-21T10:25:20Z</time>
      </trkpt>
      <trkpt lat="45.95637" lon="4.92492">
        <ele>293</ele>
        <time>2017-04-21T10:25:21Z</time>
      </trkpt>
      <trkpt lat="45.95639" lon="4.92484">
        <ele>293</ele>
        <time>2017-04-21T10:25:22Z</time>
      </trkpt>
      <trkpt lat="45.95641" lon="4.92477">
        <ele>293</ele>
        <time>2017-04-21T10:25:23Z</time>
      </trkpt>
      <trkpt lat="45.95644" lon="4.92469">
        <ele>293</ele>
        <time>2017-04-21T10:25:24Z</time>
      </trkpt>
      <trkpt lat="45.95645" lon="4.92462">
        <ele>293</ele>
        <time>2017-04-21T10:25:25Z</time>
      </trkpt>
      <trkpt lat="45.95645" lon="4.92455">
        <ele>293</ele>
        <time>2017-04-21T10:25:26Z</time>
      </trkpt>
      <trkpt lat="45.95646" lon="4.92447">
        <ele>293</ele>
        <time>2017-04-21T10:25:27Z</time>
      </trkpt>
      <trkpt lat="45.95647" lon="4.9244">
        <ele>293</ele>
        <time>2017-04-21T10:25:28Z</time>
      </trkpt>
      <trkpt lat="45.95647" lon="4.92432">
        <ele>293</ele>
        <time>2017-04-21T10:25:29Z</time>
      </trkpt>
      <trkpt lat="45.95648" lon="4.92424">
        <ele>293</ele>
        <time>2017-04-21T10:25:30Z</time>
      </trkpt>
      <trkpt lat="45.9565" lon="4.92416">
        <ele>293</ele>
        <time>2017-04-21T10:25:31Z</time>
      </trkpt>
      <trkpt lat="45.9565" lon="4.92408">
        <ele>293</ele>
        <time>2017-04-21T10:25:32Z</time>
      </trkpt>
      <trkpt lat="45.95651" lon="4.92399">
        <ele>293</ele>
        <time>2017-04-21T10:25:33Z</time>
      </trkpt>
      <trkpt lat="45.95652" lon="4.92391">
        <ele>293</ele>
        <time>2017-04-21T10:25:34Z</time>
      </trkpt>
      <trkpt lat="45.95653" lon="4.92381">
        <ele>293</ele>
        <time>2017-04-21T10:25:35Z</time>
      </trkpt>
      <trkpt lat="45.95653" lon="4.92372">
        <ele>293</ele>
        <time>2017-04-21T10:25:36Z</time>
      </trkpt>
      <trkpt lat="45.95653" lon="4.92363">
        <ele>293</ele>
        <time>2017-04-21T10:25:37Z</time>
      </trkpt>
      <trkpt lat="45.95654" lon="4.92355">
        <ele>293</ele>
        <time>2017-04-21T10:25:38Z</time>
      </trkpt>
      <trkpt lat="45.95654" lon="4.92347">
        <ele>293</ele>
        <time>2017-04-21T10:25:39Z</time>
      </trkpt>
      <trkpt lat="45.95655" lon="4.92339">
        <ele>293</ele>
        <time>2017-04-21T10:25:40Z</time>
      </trkpt>
      <trkpt lat="45.95656" lon="4.92332">
        <ele>293</ele>
        <time>2017-04-21T10:25:41Z</time>
      </trkpt>
      <trkpt lat="45.95656" lon="4.92325">
        <ele>293</ele>
        <time>2017-04-21T10:25:42Z</time>
      </trkpt>
      <trkpt lat="45.95657" lon="4.92318">
        <ele>293</ele>
        <time>2017-04-21T10:25:43Z</time>
      </trkpt>
      <trkpt lat="45.95657" lon="4.92311">
        <ele>293</ele>
        <time>2017-04-21T10:25:44Z</time>
      </trkpt>
      <trkpt lat="45.95657" lon="4.92303">
        <ele>293</ele>
        <time>2017-04-21T10:25:45Z</time>
      </trkpt>
      <trkpt lat="45.95657" lon="4.92296">
        <ele>293</ele>
        <time>2017-04-21T10:25:46Z</time>
      </trkpt>
      <trkpt lat="45.95657" lon="4.92288">
        <ele>293</ele>
        <time>2017-04-21T10:25:47Z</time>
      </trkpt>
      <trkpt lat="45.95657" lon="4.9228">
        <ele>293</ele>
        <time>2017-04-21T10:25:48Z</time>
      </trkpt>
      <trkpt lat="45.95658" lon="4.92272">
        <ele>294</ele>
        <time>2017-04-21T10:25:49Z</time>
      </trkpt>
      <trkpt lat="45.95658" lon="4.92264">
        <ele>294</ele>
        <time>2017-04-21T10:25:50Z</time>
      </trkpt>
      <trkpt lat="45.95658" lon="4.92256">
        <ele>294</ele>
        <time>2017-04-21T10:25:51Z</time>
      </trkpt>
      <trkpt lat="45.95659" lon="4.92249">
        <ele>294</ele>
        <time>2017-04-21T10:25:52Z</time>
      </trkpt>
      <trkpt lat="45.95658" lon="4.92242">
        <ele>294</ele>
        <time>2017-04-21T10:25:53Z</time>
      </trkpt>
      <trkpt lat="45.95659" lon="4.92234">
        <ele>294</ele>
        <time>2017-04-21T10:25:54Z</time>
      </trkpt>
      <trkpt lat="45.95659" lon="4.92224">
        <ele>294</ele>
        <time>2017-04-21T10:25:55Z</time>
      </trkpt>
      <trkpt lat="45.95659" lon="4.92216">
        <ele>294</ele>
        <time>2017-04-21T10:25:56Z</time>
      </trkpt>
      <trkpt lat="45.95659" lon="4.92206">
        <ele>294</ele>
        <time>2017-04-21T10:25:57Z</time>
      </trkpt>
      <trkpt lat="45.9566" lon="4.92197">
        <ele>295</ele>
        <time>2017-04-21T10:25:58Z</time>
      </trkpt>
      <trkpt lat="45.9566" lon="4.92189">
        <ele>295</ele>
        <time>2017-04-21T10:25:59Z</time>
      </trkpt>
      <trkpt lat="45.95661" lon="4.9218">
        <ele>295</ele>
        <time>2017-04-21T10:26:00Z</time>
      </trkpt>
      <trkpt lat="45.95661" lon="4.92172">
        <ele>296</ele>
        <time>2017-04-21T10:26:01Z</time>
      </trkpt>
      <trkpt lat="45.95661" lon="4.92164">
        <ele>296</ele>
        <time>2017-04-21T10:26:02Z</time>
      </trkpt>
      <trkpt lat="45.95661" lon="4.92156">
        <ele>296</ele>
        <time>2017-04-21T10:26:03Z</time>
      </trkpt>
      <trkpt lat="45.95661" lon="4.92149">
        <ele>296</ele>
        <time>2017-04-21T10:26:04Z</time>
      </trkpt>
      <trkpt lat="45.95661" lon="4.92143">
        <ele>296</ele>
        <time>2017-04-21T10:26:05Z</time>
      </trkpt>
      <trkpt lat="45.95661" lon="4.92137">
        <ele>296</ele>
        <time>2017-04-21T10:26:06Z</time>
      </trkpt>
      <trkpt lat="45.95661" lon="4.9213">
        <ele>296</ele>
        <time>2017-04-21T10:26:07Z</time>
      </trkpt>
      <trkpt lat="45.95661" lon="4.92124">
        <ele>296</ele>
        <time>2017-04-21T10:26:08Z</time>
      </trkpt>
      <trkpt lat="45.95661" lon="4.92116">
        <ele>296</ele>
        <time>2017-04-21T10:26:09Z</time>
      </trkpt>
      <trkpt lat="45.95662" lon="4.92108">
        <ele>296</ele>
        <time>2017-04-21T10:26:10Z</time>
      </trkpt>
      <trkpt lat="45.95662" lon="4.921">
        <ele>297</ele>
        <time>2017-04-21T10:26:11Z</time>
      </trkpt>
      <trkpt lat="45.95661" lon="4.92091">
        <ele>298</ele>
        <time>2017-04-21T10:26:12Z</time>
      </trkpt>
      <trkpt lat="45.95662" lon="4.92084">
        <ele>298</ele>
        <time>2017-04-21T10:26:13Z</time>
      </trkpt>
      <trkpt lat="45.95662" lon="4.92077">
        <ele>298</ele>
        <time>2017-04-21T10:26:14Z</time>
      </trkpt>
      <trkpt lat="45.95662" lon="4.9207">
        <ele>297</ele>
        <time>2017-04-21T10:26:15Z</time>
      </trkpt>
      <trkpt lat="45.95663" lon="4.92057">
        <ele>297</ele>
        <time>2017-04-21T10:26:17Z</time>
      </trkpt>
      <trkpt lat="45.95663" lon="4.9205">
        <ele>297</ele>
        <time>2017-04-21T10:26:18Z</time>
      </trkpt>
      <trkpt lat="45.95663" lon="4.92038">
        <ele>297</ele>
        <time>2017-04-21T10:26:20Z</time>
      </trkpt>
      <trkpt lat="45.95661" lon="4.92032">
        <ele>297</ele>
        <time>2017-04-21T10:26:21Z</time>
      </trkpt>
      <trkpt lat="45.95657" lon="4.92021">
        <ele>297</ele>
        <time>2017-04-21T10:26:23Z</time>
      </trkpt>
      <trkpt lat="45.95656" lon="4.92017">
        <ele>297</ele>
        <time>2017-04-21T10:26:24Z</time>
      </trkpt>
      <trkpt lat="45.95652" lon="4.92012">
        <ele>297</ele>
        <time>2017-04-21T10:26:25Z</time>
      </trkpt>
      <trkpt lat="45.95648" lon="4.92007">
        <ele>297</ele>
        <time>2017-04-21T10:26:26Z</time>
      </trkpt>
      <trkpt lat="45.95645" lon="4.92002">
        <ele>296</ele>
        <time>2017-04-21T10:26:27Z</time>
      </trkpt>
      <trkpt lat="45.95641" lon="4.91997">
        <ele>296</ele>
        <time>2017-04-21T10:26:28Z</time>
      </trkpt>
      <trkpt lat="45.95637" lon="4.91993">
        <ele>296</ele>
        <time>2017-04-21T10:26:29Z</time>
      </trkpt>
      <trkpt lat="45.95633" lon="4.91988">
        <ele>295</ele>
        <time>2017-04-21T10:26:30Z</time>
      </trkpt>
      <trkpt lat="45.95629" lon="4.91984">
        <ele>295</ele>
        <time>2017-04-21T10:26:31Z</time>
      </trkpt>
      <trkpt lat="45.95625" lon="4.9198">
        <ele>295</ele>
        <time>2017-04-21T10:26:32Z</time>
      </trkpt>
      <trkpt lat="45.95621" lon="4.91975">
        <ele>295</ele>
        <time>2017-04-21T10:26:33Z</time>
      </trkpt>
      <trkpt lat="45.95617" lon="4.9197">
        <ele>295</ele>
        <time>2017-04-21T10:26:34Z</time>
      </trkpt>
      <trkpt lat="45.95613" lon="4.91966">
        <ele>295</ele>
        <time>2017-04-21T10:26:35Z</time>
      </trkpt>
      <trkpt lat="45.95609" lon="4.91962">
        <ele>294</ele>
        <time>2017-04-21T10:26:36Z</time>
      </trkpt>
      <trkpt lat="45.95605" lon="4.91958">
        <ele>294</ele>
        <time>2017-04-21T10:26:37Z</time>
      </trkpt>
      <trkpt lat="45.956" lon="4.91954">
        <ele>294</ele>
        <time>2017-04-21T10:26:38Z</time>
      </trkpt>
      <trkpt lat="45.95597" lon="4.91951">
        <ele>294</ele>
        <time>2017-04-21T10:26:39Z</time>
      </trkpt>
      <trkpt lat="45.95592" lon="4.91947">
        <ele>294</ele>
        <time>2017-04-21T10:26:40Z</time>
      </trkpt>
      <trkpt lat="45.95585" lon="4.91939">
        <ele>294</ele>
        <time>2017-04-21T10:26:42Z</time>
      </trkpt>
      <trkpt lat="45.95581" lon="4.91935">
        <ele>293</ele>
        <time>2017-04-21T10:26:43Z</time>
      </trkpt>
      <trkpt lat="45.95575" lon="4.91931">
        <ele>293</ele>
        <time>2017-04-21T10:26:44Z</time>
      </trkpt>
      <trkpt lat="45.95569" lon="4.91929">
        <ele>293</ele>
        <time>2017-04-21T10:26:45Z</time>
      </trkpt>
      <trkpt lat="45.95563" lon="4.91925">
        <ele>293</ele>
        <time>2017-04-21T10:26:46Z</time>
      </trkpt>
      <trkpt lat="45.95557" lon="4.91921">
        <ele>293</ele>
        <time>2017-04-21T10:26:47Z</time>
      </trkpt>
      <trkpt lat="45.95552" lon="4.91917">
        <ele>294</ele>
        <time>2017-04-21T10:26:48Z</time>
      </trkpt>
      <trkpt lat="45.95547" lon="4.91913">
        <ele>294</ele>
        <time>2017-04-21T10:26:49Z</time>
      </trkpt>
      <trkpt lat="45.95542" lon="4.9191">
        <ele>294</ele>
        <time>2017-04-21T10:26:50Z</time>
      </trkpt>
      <trkpt lat="45.95537" lon="4.91907">
        <ele>294</ele>
        <time>2017-04-21T10:26:51Z</time>
      </trkpt>
      <trkpt lat="45.95532" lon="4.91904">
        <ele>294</ele>
        <time>2017-04-21T10:26:52Z</time>
      </trkpt>
      <trkpt lat="45.95527" lon="4.91899">
        <ele>294</ele>
        <time>2017-04-21T10:26:53Z</time>
      </trkpt>
      <trkpt lat="45.95522" lon="4.91895">
        <ele>294</ele>
        <time>2017-04-21T10:26:54Z</time>
      </trkpt>
      <trkpt lat="45.95516" lon="4.91891">
        <ele>294</ele>
        <time>2017-04-21T10:26:55Z</time>
      </trkpt>
      <trkpt lat="45.9551" lon="4.91888">
        <ele>294</ele>
        <time>2017-04-21T10:26:56Z</time>
      </trkpt>
      <trkpt lat="45.95505" lon="4.91883">
        <ele>294</ele>
        <time>2017-04-21T10:26:57Z</time>
      </trkpt>
      <trkpt lat="45.955" lon="4.91879">
        <ele>294</ele>
        <time>2017-04-21T10:26:58Z</time>
      </trkpt>
      <trkpt lat="45.95494" lon="4.91874">
        <ele>294</ele>
        <time>2017-04-21T10:26:59Z</time>
      </trkpt>
      <trkpt lat="45.95489" lon="4.9187">
        <ele>294</ele>
        <time>2017-04-21T10:27:00Z</time>
      </trkpt>
      <trkpt lat="45.95484" lon="4.91865">
        <ele>295</ele>
        <time>2017-04-21T10:27:01Z</time>
      </trkpt>
      <trkpt lat="45.9548" lon="4.91861">
        <ele>295</ele>
        <time>2017-04-21T10:27:02Z</time>
      </trkpt>
      <trkpt lat="45.95476" lon="4.91856">
        <ele>295</ele>
        <time>2017-04-21T10:27:03Z</time>
      </trkpt>
      <trkpt lat="45.95472" lon="4.91852">
        <ele>295</ele>
        <time>2017-04-21T10:27:04Z</time>
      </trkpt>
      <trkpt lat="45.95468" lon="4.91847">
        <ele>295</ele>
        <time>2017-04-21T10:27:05Z</time>
      </trkpt>
      <trkpt lat="45.95463" lon="4.91843">
        <ele>295</ele>
        <time>2017-04-21T10:27:06Z</time>
      </trkpt>
      <trkpt lat="45.9546" lon="4.91838">
        <ele>295</ele>
        <time>2017-04-21T10:27:07Z</time>
      </trkpt>
      <trkpt lat="45.95457" lon="4.91832">
        <ele>297</ele>
        <time>2017-04-21T10:27:08Z</time>
      </trkpt>
      <trkpt lat="45.95453" lon="4.91826">
        <ele>297</ele>
        <time>2017-04-21T10:27:09Z</time>
      </trkpt>
      <trkpt lat="45.9545" lon="4.91821">
        <ele>297</ele>
        <time>2017-04-21T10:27:10Z</time>
      </trkpt>
      <trkpt lat="45.95447" lon="4.91815">
        <ele>297</ele>
        <time>2017-04-21T10:27:11Z</time>
      </trkpt>
      <trkpt lat="45.95445" lon="4.91809">
        <ele>297</ele>
        <time>2017-04-21T10:27:12Z</time>
      </trkpt>
      <trkpt lat="45.95442" lon="4.91802">
        <ele>297</ele>
        <time>2017-04-21T10:27:13Z</time>
      </trkpt>
      <trkpt lat="45.95439" lon="4.91796">
        <ele>298</ele>
        <time>2017-04-21T10:27:14Z</time>
      </trkpt>
      <trkpt lat="45.95436" lon="4.91789">
        <ele>298</ele>
        <time>2017-04-21T10:27:15Z</time>
      </trkpt>
      <trkpt lat="45.95434" lon="4.91783">
        <ele>298</ele>
        <time>2017-04-21T10:27:16Z</time>
      </trkpt>
      <trkpt lat="45.95431" lon="4.91777">
        <ele>298</ele>
        <time>2017-04-21T10:27:17Z</time>
      </trkpt>
      <trkpt lat="45.95429" lon="4.91771">
        <ele>298</ele>
        <time>2017-04-21T10:27:18Z</time>
      </trkpt>
      <trkpt lat="45.95426" lon="4.91765">
        <ele>298</ele>
        <time>2017-04-21T10:27:19Z</time>
      </trkpt>
      <trkpt lat="45.95423" lon="4.91758">
        <ele>298</ele>
        <time>2017-04-21T10:27:20Z</time>
      </trkpt>
      <trkpt lat="45.9542" lon="4.91751">
        <ele>298</ele>
        <time>2017-04-21T10:27:21Z</time>
      </trkpt>
      <trkpt lat="45.95416" lon="4.91739">
        <ele>298</ele>
        <time>2017-04-21T10:27:23Z</time>
      </trkpt>
      <trkpt lat="45.95415" lon="4.91735">
        <ele>299</ele>
        <time>2017-04-21T10:27:24Z</time>
      </trkpt>
      <trkpt lat="45.95411" lon="4.91727">
        <ele>299</ele>
        <time>2017-04-21T10:27:26Z</time>
      </trkpt>
      <trkpt lat="45.95409" lon="4.91723">
        <ele>299</ele>
        <time>2017-04-21T10:27:27Z</time>
      </trkpt>
      <trkpt lat="45.95406" lon="4.91715">
        <ele>299</ele>
        <time>2017-04-21T10:27:29Z</time>
      </trkpt>
      <trkpt lat="45.95404" lon="4.91711">
        <ele>299</ele>
        <time>2017-04-21T10:27:30Z</time>
      </trkpt>
      <trkpt lat="45.954" lon="4.917">
        <ele>299</ele>
        <time>2017-04-21T10:27:33Z</time>
      </trkpt>
      <trkpt lat="45.95399" lon="4.91697">
        <ele>299</ele>
        <time>2017-04-21T10:27:34Z</time>
      </trkpt>
      <trkpt lat="45.95396" lon="4.91686">
        <ele>300</ele>
        <time>2017-04-21T10:27:37Z</time>
      </trkpt>
      <trkpt lat="45.95395" lon="4.91683">
        <ele>300</ele>
        <time>2017-04-21T10:27:38Z</time>
      </trkpt>
      <trkpt lat="45.95391" lon="4.91673">
        <ele>300</ele>
        <time>2017-04-21T10:27:41Z</time>
      </trkpt>
      <trkpt lat="45.9539" lon="4.91669">
        <ele>300</ele>
        <time>2017-04-21T10:27:42Z</time>
      </trkpt>
      <trkpt lat="45.95387" lon="4.91661">
        <ele>301</ele>
        <time>2017-04-21T10:27:44Z</time>
      </trkpt>
      <trkpt lat="45.95385" lon="4.91658">
        <ele>301</ele>
        <time>2017-04-21T10:27:45Z</time>
      </trkpt>
      <trkpt lat="45.95383" lon="4.91649">
        <ele>301</ele>
        <time>2017-04-21T10:27:47Z</time>
      </trkpt>
      <trkpt lat="45.95381" lon="4.91645">
        <ele>301</ele>
        <time>2017-04-21T10:27:48Z</time>
      </trkpt>
      <trkpt lat="45.95379" lon="4.91636">
        <ele>301</ele>
        <time>2017-04-21T10:27:50Z</time>
      </trkpt>
      <trkpt lat="45.95378" lon="4.91631">
        <ele>301</ele>
        <time>2017-04-21T10:27:51Z</time>
      </trkpt>
      <trkpt lat="45.95376" lon="4.91621">
        <ele>301</ele>
        <time>2017-04-21T10:27:53Z</time>
      </trkpt>
      <trkpt lat="45.95376" lon="4.91615">
        <ele>301</ele>
        <time>2017-04-21T10:27:54Z</time>
      </trkpt>
      <trkpt lat="45.95374" lon="4.91605">
        <ele>300</ele>
        <time>2017-04-21T10:27:56Z</time>
      </trkpt>
      <trkpt lat="45.95371" lon="4.916">
        <ele>300</ele>
        <time>2017-04-21T10:27:57Z</time>
      </trkpt>
      <trkpt lat="45.95368" lon="4.91595">
        <ele>300</ele>
        <time>2017-04-21T10:27:58Z</time>
      </trkpt>
      <trkpt lat="45.95366" lon="4.91589">
        <ele>300</ele>
        <time>2017-04-21T10:27:59Z</time>
      </trkpt>
      <trkpt lat="45.95363" lon="4.91578">
        <ele>300</ele>
        <time>2017-04-21T10:28:01Z</time>
      </trkpt>
      <trkpt lat="45.95362" lon="4.91574">
        <ele>300</ele>
        <time>2017-04-21T10:28:02Z</time>
      </trkpt>
      <trkpt lat="45.95361" lon="4.91564">
        <ele>300</ele>
        <time>2017-04-21T10:28:04Z</time>
      </trkpt>
      <trkpt lat="45.9536" lon="4.9156">
        <ele>300</ele>
        <time>2017-04-21T10:28:05Z</time>
      </trkpt>
      <trkpt lat="45.95358" lon="4.9155">
        <ele>300</ele>
        <time>2017-04-21T10:28:07Z</time>
      </trkpt>
      <trkpt lat="45.95356" lon="4.91545">
        <ele>300</ele>
        <time>2017-04-21T10:28:08Z</time>
      </trkpt>
      <trkpt lat="45.95353" lon="4.91534">
        <ele>299</ele>
        <time>2017-04-21T10:28:10Z</time>
      </trkpt>
      <trkpt lat="45.95352" lon="4.91529">
        <ele>299</ele>
        <time>2017-04-21T10:28:11Z</time>
      </trkpt>
      <trkpt lat="45.9535" lon="4.91524">
        <ele>299</ele>
        <time>2017-04-21T10:28:12Z</time>
      </trkpt>
      <trkpt lat="45.95348" lon="4.91517">
        <ele>299</ele>
        <time>2017-04-21T10:28:13Z</time>
      </trkpt>
      <trkpt lat="45.95345" lon="4.91506">
        <ele>299</ele>
        <time>2017-04-21T10:28:15Z</time>
      </trkpt>
      <trkpt lat="45.95343" lon="4.91499">
        <ele>298</ele>
        <time>2017-04-21T10:28:16Z</time>
      </trkpt>
      <trkpt lat="45.9534" lon="4.91488">
        <ele>298</ele>
        <time>2017-04-21T10:28:18Z</time>
      </trkpt>
      <trkpt lat="45.95338" lon="4.91482">
        <ele>298</ele>
        <time>2017-04-21T10:28:19Z</time>
      </trkpt>
      <trkpt lat="45.95335" lon="4.91472">
        <ele>298</ele>
        <time>2017-04-21T10:28:21Z</time>
      </trkpt>
      <trkpt lat="45.95334" lon="4.91466">
        <ele>298</ele>
        <time>2017-04-21T10:28:22Z</time>
      </trkpt>
      <trkpt lat="45.95332" lon="4.91458">
        <ele>298</ele>
        <time>2017-04-21T10:28:24Z</time>
      </trkpt>
      <trkpt lat="45.95331" lon="4.91454">
        <ele>298</ele>
        <time>2017-04-21T10:28:25Z</time>
      </trkpt>
      <trkpt lat="45.95329" lon="4.91445">
        <ele>298</ele>
        <time>2017-04-21T10:28:27Z</time>
      </trkpt>
      <trkpt lat="45.95327" lon="4.91441">
        <ele>298</ele>
        <time>2017-04-21T10:28:28Z</time>
      </trkpt>
      <trkpt lat="45.95324" lon="4.91431">
        <ele>298</ele>
        <time>2017-04-21T10:28:30Z</time>
      </trkpt>
      <trkpt lat="45.95323" lon="4.91429">
        <ele>298</ele>
        <time>2017-04-21T10:28:31Z</time>
      </trkpt>
      <trkpt lat="45.9532" lon="4.91417">
        <ele>298</ele>
        <time>2017-04-21T10:28:34Z</time>
      </trkpt>
      <trkpt lat="45.95321" lon="4.91415">
        <ele>298</ele>
        <time>2017-04-21T10:28:35Z</time>
      </trkpt>
      <trkpt lat="45.9532" lon="4.91404">
        <ele>298</ele>
        <time>2017-04-21T10:28:38Z</time>
      </trkpt>
      <trkpt lat="45.95319" lon="4.91401">
        <ele>298</ele>
        <time>2017-04-21T10:28:39Z</time>
      </trkpt>
      <trkpt lat="45.95316" lon="4.9139">
        <ele>298</ele>
        <time>2017-04-21T10:28:42Z</time>
      </trkpt>
      <trkpt lat="45.95314" lon="4.91386">
        <ele>298</ele>
        <time>2017-04-21T10:28:43Z</time>
      </trkpt>
      <trkpt lat="45.95312" lon="4.91374">
        <ele>298</ele>
        <time>2017-04-21T10:28:46Z</time>
      </trkpt>
      <trkpt lat="45.95311" lon="4.9137">
        <ele>298</ele>
        <time>2017-04-21T10:28:47Z</time>
      </trkpt>
      <trkpt lat="45.95308" lon="4.91358">
        <ele>298</ele>
        <time>2017-04-21T10:28:50Z</time>
      </trkpt>
      <trkpt lat="45.95307" lon="4.91353">
        <ele>298</ele>
        <time>2017-04-21T10:28:51Z</time>
      </trkpt>
      <trkpt lat="45.95304" lon="4.91342">
        <ele>298</ele>
        <time>2017-04-21T10:28:54Z</time>
      </trkpt>
      <trkpt lat="45.95305" lon="4.91339">
        <ele>298</ele>
        <time>2017-04-21T10:28:55Z</time>
      </trkpt>
      <trkpt lat="45.95304" lon="4.91329">
        <ele>298</ele>
        <time>2017-04-21T10:28:58Z</time>
      </trkpt>
      <trkpt lat="45.95304" lon="4.91325">
        <ele>298</ele>
        <time>2017-04-21T10:28:59Z</time>
      </trkpt>
      <trkpt lat="45.95301" lon="4.91313">
        <ele>298</ele>
        <time>2017-04-21T10:29:03Z</time>
      </trkpt>
      <trkpt lat="45.95301" lon="4.9131">
        <ele>298</ele>
        <time>2017-04-21T10:29:04Z</time>
      </trkpt>
      <trkpt lat="45.953" lon="4.913">
        <ele>298</ele>
        <time>2017-04-21T10:29:07Z</time>
      </trkpt>
      <trkpt lat="45.95299" lon="4.91297">
        <ele>298</ele>
        <time>2017-04-21T10:29:08Z</time>
      </trkpt>
      <trkpt lat="45.95297" lon="4.91287">
        <ele>298</ele>
        <time>2017-04-21T10:29:11Z</time>
      </trkpt>
      <trkpt lat="45.95297" lon="4.91284">
        <ele>298</ele>
        <time>2017-04-21T10:29:12Z</time>
      </trkpt>
      <trkpt lat="45.95294" lon="4.91272">
        <ele>298</ele>
        <time>2017-04-21T10:29:16Z</time>
      </trkpt>
      <trkpt lat="45.95293" lon="4.91269">
        <ele>298</ele>
        <time>2017-04-21T10:29:17Z</time>
      </trkpt>
      <trkpt lat="45.95289" lon="4.9126">
        <ele>298</ele>
        <time>2017-04-21T10:29:20Z</time>
      </trkpt>
      <trkpt lat="45.95287" lon="4.91258">
        <ele>298</ele>
        <time>2017-04-21T10:29:21Z</time>
      </trkpt>
      <trkpt lat="45.95283" lon="4.91248">
        <ele>299</ele>
        <time>2017-04-21T10:29:25Z</time>
      </trkpt>
      <trkpt lat="45.95282" lon="4.91246">
        <ele>299</ele>
        <time>2017-04-21T10:29:26Z</time>
      </trkpt>
      <trkpt lat="45.95278" lon="4.91238">
        <ele>299</ele>
        <time>2017-04-21T10:29:29Z</time>
      </trkpt>
      <trkpt lat="45.95276" lon="4.91233">
        <ele>299</ele>
        <time>2017-04-21T10:29:30Z</time>
      </trkpt>
      <trkpt lat="45.95272" lon="4.91225">
        <ele>299</ele>
        <time>2017-04-21T10:29:32Z</time>
      </trkpt>
      <trkpt lat="45.9527" lon="4.91221">
        <ele>299</ele>
        <time>2017-04-21T10:29:33Z</time>
      </trkpt>
      <trkpt lat="45.95266" lon="4.9121">
        <ele>299</ele>
        <time>2017-04-21T10:29:36Z</time>
      </trkpt>
      <trkpt lat="45.95266" lon="4.91204">
        <ele>299</ele>
        <time>2017-04-21T10:29:37Z</time>
      </trkpt>
      <trkpt lat="45.95261" lon="4.91194">
        <ele>299</ele>
        <time>2017-04-21T10:29:41Z</time>
      </trkpt>
      <trkpt lat="45.9526" lon="4.91191">
        <ele>299</ele>
        <time>2017-04-21T10:29:42Z</time>
      </trkpt>
      <trkpt lat="45.95256" lon="4.91183">
        <ele>299</ele>
        <time>2017-04-21T10:29:44Z</time>
      </trkpt>
      <trkpt lat="45.95255" lon="4.91179">
        <ele>299</ele>
        <time>2017-04-21T10:29:45Z</time>
      </trkpt>
      <trkpt lat="45.95252" lon="4.91171">
        <ele>299</ele>
        <time>2017-04-21T10:29:47Z</time>
      </trkpt>
      <trkpt lat="45.95251" lon="4.91167">
        <ele>299</ele>
        <time>2017-04-21T10:29:48Z</time>
      </trkpt>
      <trkpt lat="45.95248" lon="4.91156">
        <ele>299</ele>
        <time>2017-04-21T10:29:51Z</time>
      </trkpt>
      <trkpt lat="45.95246" lon="4.91154">
        <ele>299</ele>
        <time>2017-04-21T10:29:52Z</time>
      </trkpt>
      <trkpt lat="45.95239" lon="4.91145">
        <ele>298</ele>
        <time>2017-04-21T10:29:56Z</time>
      </trkpt>
      <trkpt lat="45.95237" lon="4.91143">
        <ele>298</ele>
        <time>2017-04-21T10:29:57Z</time>
      </trkpt>
      <trkpt lat="45.95232" lon="4.91135">
        <ele>298</ele>
        <time>2017-04-21T10:30:00Z</time>
      </trkpt>
      <trkpt lat="45.9523" lon="4.91132">
        <ele>298</ele>
        <time>2017-04-21T10:30:01Z</time>
      </trkpt>
      <trkpt lat="45.95224" lon="4.91127">
        <ele>298</ele>
        <time>2017-04-21T10:30:04Z</time>
      </trkpt>
      <trkpt lat="45.95221" lon="4.91126">
        <ele>298</ele>
        <time>2017-04-21T10:30:05Z</time>
      </trkpt>
      <trkpt lat="45.95215" lon="4.91125">
        <ele>298</ele>
        <time>2017-04-21T10:30:07Z</time>
      </trkpt>
      <trkpt lat="45.95212" lon="4.91124">
        <ele>298</ele>
        <time>2017-04-21T10:30:08Z</time>
      </trkpt>
      <trkpt lat="45.95205" lon="4.91123">
        <ele>298</ele>
        <time>2017-04-21T10:30:10Z</time>
      </trkpt>
      <trkpt lat="45.95203" lon="4.91122">
        <ele>298</ele>
        <time>2017-04-21T10:30:11Z</time>
      </trkpt>
      <trkpt lat="45.95198" lon="4.91116">
        <ele>298</ele>
        <time>2017-04-21T10:30:14Z</time>
      </trkpt>
      <trkpt lat="45.95196" lon="4.91112">
        <ele>297</ele>
        <time>2017-04-21T10:30:15Z</time>
      </trkpt>
      <trkpt lat="45.95192" lon="4.91104">
        <ele>297</ele>
        <time>2017-04-21T10:30:17Z</time>
      </trkpt>
      <trkpt lat="45.95191" lon="4.911">
        <ele>297</ele>
        <time>2017-04-21T10:30:18Z</time>
      </trkpt>
      <trkpt lat="45.95186" lon="4.91089">
        <ele>297</ele>
        <time>2017-04-21T10:30:21Z</time>
      </trkpt>
      <trkpt lat="45.95185" lon="4.91087">
        <ele>297</ele>
        <time>2017-04-21T10:30:22Z</time>
      </trkpt>
      <trkpt lat="45.95183" lon="4.91083">
        <ele>297</ele>
        <time>2017-04-21T10:30:24Z</time>
      </trkpt>
      <trkpt lat="45.95182" lon="4.91083">
        <ele>297</ele>
        <time>2017-04-21T10:30:25Z</time>
      </trkpt>
      <trkpt lat="45.95181" lon="4.9108">
        <ele>297</ele>
        <time>2017-04-21T10:35:47Z</time>
      </trkpt>
      <trkpt lat="45.95182" lon="4.91072">
        <ele>297</ele>
        <time>2017-04-21T10:35:48Z</time>
      </trkpt>
      <trkpt lat="45.95187" lon="4.91063">
        <ele>297</ele>
        <time>2017-04-21T10:35:58Z</time>
      </trkpt>
      <trkpt lat="45.95189" lon="4.91062">
        <ele>297</ele>
        <time>2017-04-21T10:35:59Z</time>
      </trkpt>
      <trkpt lat="45.95195" lon="4.91055">
        <ele>297</ele>
        <time>2017-04-21T10:36:11Z</time>
      </trkpt>
      <trkpt lat="45.95196" lon="4.91054">
        <ele>297</ele>
        <time>2017-04-21T10:36:12Z</time>
      </trkpt>
      <trkpt lat="45.95193" lon="4.91042">
        <ele>297</ele>
        <time>2017-04-21T10:36:20Z</time>
      </trkpt>
      <trkpt lat="45.95192" lon="4.91039">
        <ele>297</ele>
        <time>2017-04-21T10:36:21Z</time>
      </trkpt>
      <trkpt lat="45.95189" lon="4.91031">
        <ele>297</ele>
        <time>2017-04-21T10:36:23Z</time>
      </trkpt>
      <trkpt lat="45.95187" lon="4.91025">
        <ele>297</ele>
        <time>2017-04-21T10:36:24Z</time>
      </trkpt>
      <trkpt lat="45.95185" lon="4.91013">
        <ele>297</ele>
        <time>2017-04-21T10:36:26Z</time>
      </trkpt>
      <trkpt lat="45.95184" lon="4.91007">
        <ele>298</ele>
        <time>2017-04-21T10:36:27Z</time>
      </trkpt>
      <trkpt lat="45.95183" lon="4.90994">
        <ele>298</ele>
        <time>2017-04-21T10:36:29Z</time>
      </trkpt>
      <trkpt lat="45.95183" lon="4.90988">
        <ele>298</ele>
        <time>2017-04-21T10:36:30Z</time>
      </trkpt>
      <trkpt lat="45.95179" lon="4.9098">
        <ele>298</ele>
        <time>2017-04-21T10:36:31Z</time>
      </trkpt>
      <trkpt lat="45.95179" lon="4.90973">
        <ele>298</ele>
        <time>2017-04-21T10:36:32Z</time>
      </trkpt>
      <trkpt lat="45.95179" lon="4.90962">
        <ele>298</ele>
        <time>2017-04-21T10:36:34Z</time>
      </trkpt>
      <trkpt lat="45.95179" lon="4.90956">
        <ele>297</ele>
        <time>2017-04-21T10:36:35Z</time>
      </trkpt>
      <trkpt lat="45.95179" lon="4.90949">
        <ele>297</ele>
        <time>2017-04-21T10:36:36Z</time>
      </trkpt>
      <trkpt lat="45.9518" lon="4.90942">
        <ele>297</ele>
        <time>2017-04-21T10:36:37Z</time>
      </trkpt>
      <trkpt lat="45.95181" lon="4.90935">
        <ele>297</ele>
        <time>2017-04-21T10:36:38Z</time>
      </trkpt>
      <trkpt lat="45.95182" lon="4.90928">
        <ele>297</ele>
        <time>2017-04-21T10:36:39Z</time>
      </trkpt>
      <trkpt lat="45.95183" lon="4.90922">
        <ele>297</ele>
        <time>2017-04-21T10:36:40Z</time>
      </trkpt>
      <trkpt lat="45.95183" lon="4.90916">
        <ele>298</ele>
        <time>2017-04-21T10:36:41Z</time>
      </trkpt>
      <trkpt lat="45.95184" lon="4.90909">
        <ele>298</ele>
        <time>2017-04-21T10:36:42Z</time>
      </trkpt>
      <trkpt lat="45.95185" lon="4.90903">
        <ele>298</ele>
        <time>2017-04-21T10:36:43Z</time>
      </trkpt>
      <trkpt lat="45.95187" lon="4.90891">
        <ele>298</ele>
        <time>2017-04-21T10:36:45Z</time>
      </trkpt>
      <trkpt lat="45.95187" lon="4.90884">
        <ele>298</ele>
        <time>2017-04-21T10:36:46Z</time>
      </trkpt>
      <trkpt lat="45.95188" lon="4.90871">
        <ele>298</ele>
        <time>2017-04-21T10:36:48Z</time>
      </trkpt>
      <trkpt lat="45.95189" lon="4.90865">
        <ele>298</ele>
        <time>2017-04-21T10:36:49Z</time>
      </trkpt>
      <trkpt lat="45.9519" lon="4.90858">
        <ele>298</ele>
        <time>2017-04-21T10:36:50Z</time>
      </trkpt>
      <trkpt lat="45.95183" lon="4.90846">
        <ele>298</ele>
        <time>2017-04-21T10:36:51Z</time>
      </trkpt>
      <trkpt lat="45.9518" lon="4.90837">
        <ele>298</ele>
        <time>2017-04-21T10:36:52Z</time>
      </trkpt>
      <trkpt lat="45.9518" lon="4.9083">
        <ele>298</ele>
        <time>2017-04-21T10:36:53Z</time>
      </trkpt>
      <trkpt lat="45.95179" lon="4.90823">
        <ele>298</ele>
        <time>2017-04-21T10:36:54Z</time>
      </trkpt>
      <trkpt lat="45.95179" lon="4.90817">
        <ele>298</ele>
        <time>2017-04-21T10:36:55Z</time>
      </trkpt>
      <trkpt lat="45.95178" lon="4.90806">
        <ele>298</ele>
        <time>2017-04-21T10:36:57Z</time>
      </trkpt>
      <trkpt lat="45.95177" lon="4.908">
        <ele>298</ele>
        <time>2017-04-21T10:36:58Z</time>
      </trkpt>
      <trkpt lat="45.95175" lon="4.90789">
        <ele>298</ele>
        <time>2017-04-21T10:37:00Z</time>
      </trkpt>
      <trkpt lat="45.95175" lon="4.90782">
        <ele>298</ele>
        <time>2017-04-21T10:37:01Z</time>
      </trkpt>
      <trkpt lat="45.95174" lon="4.90776">
        <ele>298</ele>
        <time>2017-04-21T10:37:02Z</time>
      </trkpt>
      <trkpt lat="45.95174" lon="4.90768">
        <ele>298</ele>
        <time>2017-04-21T10:37:03Z</time>
      </trkpt>
      <trkpt lat="45.95175" lon="4.9076">
        <ele>298</ele>
        <time>2017-04-21T10:37:04Z</time>
      </trkpt>
      <trkpt lat="45.95175" lon="4.90752">
        <ele>298</ele>
        <time>2017-04-21T10:37:05Z</time>
      </trkpt>
      <trkpt lat="45.95176" lon="4.90744">
        <ele>297</ele>
        <time>2017-04-21T10:37:06Z</time>
      </trkpt>
      <trkpt lat="45.95177" lon="4.90735">
        <ele>297</ele>
        <time>2017-04-21T10:37:07Z</time>
      </trkpt>
      <trkpt lat="45.95177" lon="4.90727">
        <ele>297</ele>
        <time>2017-04-21T10:37:08Z</time>
      </trkpt>
      <trkpt lat="45.95178" lon="4.90719">
        <ele>297</ele>
        <time>2017-04-21T10:37:09Z</time>
      </trkpt>
      <trkpt lat="45.95179" lon="4.90711">
        <ele>297</ele>
        <time>2017-04-21T10:37:10Z</time>
      </trkpt>
      <trkpt lat="45.95178" lon="4.90704">
        <ele>297</ele>
        <time>2017-04-21T10:37:11Z</time>
      </trkpt>
      <trkpt lat="45.95178" lon="4.90696">
        <ele>297</ele>
        <time>2017-04-21T10:37:12Z</time>
      </trkpt>
      <trkpt lat="45.95178" lon="4.90689">
        <ele>297</ele>
        <time>2017-04-21T10:37:13Z</time>
      </trkpt>
      <trkpt lat="45.95179" lon="4.90681">
        <ele>296</ele>
        <time>2017-04-21T10:37:14Z</time>
      </trkpt>
      <trkpt lat="45.95179" lon="4.90674">
        <ele>296</ele>
        <time>2017-04-21T10:37:15Z</time>
      </trkpt>
      <trkpt lat="45.95178" lon="4.90666">
        <ele>295</ele>
        <time>2017-04-21T10:37:16Z</time>
      </trkpt>
      <trkpt lat="45.95178" lon="4.90658">
        <ele>295</ele>
        <time>2017-04-21T10:37:17Z</time>
      </trkpt>
      <trkpt lat="45.95178" lon="4.9065">
        <ele>295</ele>
        <time>2017-04-21T10:37:18Z</time>
      </trkpt>
      <trkpt lat="45.95178" lon="4.90641">
        <ele>295</ele>
        <time>2017-04-21T10:37:19Z</time>
      </trkpt>
      <trkpt lat="45.95178" lon="4.90633">
        <ele>295</ele>
        <time>2017-04-21T10:37:20Z</time>
      </trkpt>
      <trkpt lat="45.95176" lon="4.90624">
        <ele>295</ele>
        <time>2017-04-21T10:37:21Z</time>
      </trkpt>
      <trkpt lat="45.95176" lon="4.90616">
        <ele>295</ele>
        <time>2017-04-21T10:37:22Z</time>
      </trkpt>
      <trkpt lat="45.95176" lon="4.90608">
        <ele>295</ele>
        <time>2017-04-21T10:37:23Z</time>
      </trkpt>
      <trkpt lat="45.95176" lon="4.906">
        <ele>294</ele>
        <time>2017-04-21T10:37:24Z</time>
      </trkpt>
      <trkpt lat="45.95177" lon="4.90593">
        <ele>294</ele>
        <time>2017-04-21T10:37:25Z</time>
      </trkpt>
      <trkpt lat="45.95177" lon="4.90586">
        <ele>294</ele>
        <time>2017-04-21T10:37:26Z</time>
      </trkpt>
      <trkpt lat="45.95177" lon="4.90579">
        <ele>293</ele>
        <time>2017-04-21T10:37:27Z</time>
      </trkpt>
      <trkpt lat="45.95177" lon="4.90573">
        <ele>293</ele>
        <time>2017-04-21T10:37:28Z</time>
      </trkpt>
      <trkpt lat="45.95177" lon="4.90565">
        <ele>293</ele>
        <time>2017-04-21T10:37:29Z</time>
      </trkpt>
      <trkpt lat="45.95177" lon="4.90558">
        <ele>293</ele>
        <time>2017-04-21T10:37:30Z</time>
      </trkpt>
      <trkpt lat="45.95177" lon="4.90549">
        <ele>293</ele>
        <time>2017-04-21T10:37:31Z</time>
      </trkpt>
      <trkpt lat="45.95177" lon="4.90541">
        <ele>293</ele>
        <time>2017-04-21T10:37:32Z</time>
      </trkpt>
      <trkpt lat="45.95178" lon="4.90532">
        <ele>293</ele>
        <time>2017-04-21T10:37:33Z</time>
      </trkpt>
      <trkpt lat="45.95179" lon="4.90524">
        <ele>292</ele>
        <time>2017-04-21T10:37:34Z</time>
      </trkpt>
      <trkpt lat="45.95181" lon="4.90515">
        <ele>292</ele>
        <time>2017-04-21T10:37:35Z</time>
      </trkpt>
      <trkpt lat="45.95182" lon="4.90506">
        <ele>292</ele>
        <time>2017-04-21T10:37:36Z</time>
      </trkpt>
      <trkpt lat="45.95183" lon="4.90497">
        <ele>291</ele>
        <time>2017-04-21T10:37:37Z</time>
      </trkpt>
      <trkpt lat="45.95184" lon="4.90489">
        <ele>291</ele>
        <time>2017-04-21T10:37:38Z</time>
      </trkpt>
      <trkpt lat="45.95185" lon="4.9048">
        <ele>290</ele>
        <time>2017-04-21T10:37:39Z</time>
      </trkpt>
      <trkpt lat="45.95186" lon="4.90472">
        <ele>290</ele>
        <time>2017-04-21T10:37:40Z</time>
      </trkpt>
      <trkpt lat="45.95187" lon="4.90463">
        <ele>290</ele>
        <time>2017-04-21T10:37:41Z</time>
      </trkpt>
      <trkpt lat="45.95188" lon="4.90455">
        <ele>290</ele>
        <time>2017-04-21T10:37:42Z</time>
      </trkpt>
      <trkpt lat="45.95188" lon="4.90447">
        <ele>290</ele>
        <time>2017-04-21T10:37:43Z</time>
      </trkpt>
      <trkpt lat="45.95188" lon="4.90439">
        <ele>290</ele>
        <time>2017-04-21T10:37:44Z</time>
      </trkpt>
      <trkpt lat="45.95188" lon="4.90431">
        <ele>289</ele>
        <time>2017-04-21T10:37:45Z</time>
      </trkpt>
      <trkpt lat="45.95188" lon="4.90422">
        <ele>289</ele>
        <time>2017-04-21T10:37:46Z</time>
      </trkpt>
      <trkpt lat="45.95189" lon="4.90414">
        <ele>288</ele>
        <time>2017-04-21T10:37:47Z</time>
      </trkpt>
      <trkpt lat="45.9519" lon="4.90405">
        <ele>288</ele>
        <time>2017-04-21T10:37:48Z</time>
      </trkpt>
      <trkpt lat="45.95191" lon="4.90396">
        <ele>288</ele>
        <time>2017-04-21T10:37:49Z</time>
      </trkpt>
      <trkpt lat="45.95192" lon="4.90388">
        <ele>288</ele>
        <time>2017-04-21T10:37:50Z</time>
      </trkpt>
      <trkpt lat="45.95194" lon="4.9038">
        <ele>288</ele>
        <time>2017-04-21T10:37:51Z</time>
      </trkpt>
      <trkpt lat="45.95196" lon="4.90372">
        <ele>288</ele>
        <time>2017-04-21T10:37:52Z</time>
      </trkpt>
      <trkpt lat="45.95198" lon="4.90363">
        <ele>288</ele>
        <time>2017-04-21T10:37:53Z</time>
      </trkpt>
      <trkpt lat="45.95199" lon="4.90356">
        <ele>288</ele>
        <time>2017-04-21T10:37:54Z</time>
      </trkpt>
      <trkpt lat="45.95201" lon="4.90349">
        <ele>288</ele>
        <time>2017-04-21T10:37:55Z</time>
      </trkpt>
      <trkpt lat="45.95203" lon="4.90341">
        <ele>288</ele>
        <time>2017-04-21T10:37:56Z</time>
      </trkpt>
      <trkpt lat="45.95204" lon="4.90334">
        <ele>288</ele>
        <time>2017-04-21T10:37:57Z</time>
      </trkpt>
      <trkpt lat="45.95206" lon="4.90326">
        <ele>287</ele>
        <time>2017-04-21T10:37:58Z</time>
      </trkpt>
      <trkpt lat="45.95207" lon="4.90319">
        <ele>287</ele>
        <time>2017-04-21T10:37:59Z</time>
      </trkpt>
      <trkpt lat="45.95209" lon="4.90312">
        <ele>287</ele>
        <time>2017-04-21T10:38:00Z</time>
      </trkpt>
      <trkpt lat="45.9521" lon="4.90304">
        <ele>287</ele>
        <time>2017-04-21T10:38:01Z</time>
      </trkpt>
      <trkpt lat="45.95212" lon="4.90296">
        <ele>287</ele>
        <time>2017-04-21T10:38:02Z</time>
      </trkpt>
      <trkpt lat="45.95214" lon="4.90288">
        <ele>287</ele>
        <time>2017-04-21T10:38:03Z</time>
      </trkpt>
      <trkpt lat="45.95215" lon="4.9028">
        <ele>287</ele>
        <time>2017-04-21T10:38:04Z</time>
      </trkpt>
      <trkpt lat="45.95215" lon="4.90272">
        <ele>287</ele>
        <time>2017-04-21T10:38:05Z</time>
      </trkpt>
      <trkpt lat="45.95215" lon="4.90264">
        <ele>287</ele>
        <time>2017-04-21T10:38:06Z</time>
      </trkpt>
      <trkpt lat="45.95215" lon="4.90256">
        <ele>287</ele>
        <time>2017-04-21T10:38:07Z</time>
      </trkpt>
      <trkpt lat="45.95214" lon="4.90248">
        <ele>286</ele>
        <time>2017-04-21T10:38:08Z</time>
      </trkpt>
      <trkpt lat="45.95214" lon="4.90239">
        <ele>286</ele>
        <time>2017-04-21T10:38:09Z</time>
      </trkpt>
      <trkpt lat="45.95213" lon="4.90232">
        <ele>286</ele>
        <time>2017-04-21T10:38:10Z</time>
      </trkpt>
      <trkpt lat="45.95212" lon="4.90224">
        <ele>286</ele>
        <time>2017-04-21T10:38:11Z</time>
      </trkpt>
      <trkpt lat="45.95211" lon="4.90216">
        <ele>286</ele>
        <time>2017-04-21T10:38:12Z</time>
      </trkpt>
      <trkpt lat="45.9521" lon="4.90207">
        <ele>286</ele>
        <time>2017-04-21T10:38:13Z</time>
      </trkpt>
      <trkpt lat="45.95209" lon="4.90199">
        <ele>286</ele>
        <time>2017-04-21T10:38:14Z</time>
      </trkpt>
      <trkpt lat="45.95208" lon="4.90191">
        <ele>287</ele>
        <time>2017-04-21T10:38:15Z</time>
      </trkpt>
      <trkpt lat="45.95205" lon="4.90183">
        <ele>287</ele>
        <time>2017-04-21T10:38:16Z</time>
      </trkpt>
      <trkpt lat="45.95202" lon="4.90177">
        <ele>287</ele>
        <time>2017-04-21T10:38:17Z</time>
      </trkpt>
      <trkpt lat="45.95197" lon="4.90172">
        <ele>287</ele>
        <time>2017-04-21T10:38:18Z</time>
      </trkpt>
      <trkpt lat="45.95192" lon="4.90169">
        <ele>287</ele>
        <time>2017-04-21T10:38:19Z</time>
      </trkpt>
      <trkpt lat="45.95186" lon="4.90169">
        <ele>287</ele>
        <time>2017-04-21T10:38:20Z</time>
      </trkpt>
      <trkpt lat="45.95181" lon="4.9017">
        <ele>287</ele>
        <time>2017-04-21T10:38:21Z</time>
      </trkpt>
      <trkpt lat="45.95175" lon="4.90171">
        <ele>287</ele>
        <time>2017-04-21T10:38:22Z</time>
      </trkpt>
      <trkpt lat="45.9517" lon="4.90172">
        <ele>287</ele>
        <time>2017-04-21T10:38:23Z</time>
      </trkpt>
      <trkpt lat="45.95165" lon="4.90173">
        <ele>287</ele>
        <time>2017-04-21T10:38:24Z</time>
      </trkpt>
      <trkpt lat="45.9516" lon="4.90174">
        <ele>287</ele>
        <time>2017-04-21T10:38:25Z</time>
      </trkpt>
      <trkpt lat="45.95154" lon="4.90175">
        <ele>287</ele>
        <time>2017-04-21T10:38:26Z</time>
      </trkpt>
      <trkpt lat="45.95148" lon="4.90174">
        <ele>287</ele>
        <time>2017-04-21T10:38:27Z</time>
      </trkpt>
      <trkpt lat="45.95141" lon="4.90171">
        <ele>287</ele>
        <time>2017-04-21T10:38:28Z</time>
      </trkpt>
      <trkpt lat="45.95135" lon="4.90169">
        <ele>287</ele>
        <time>2017-04-21T10:38:29Z</time>
      </trkpt>
      <trkpt lat="45.95129" lon="4.90165">
        <ele>286</ele>
        <time>2017-04-21T10:38:30Z</time>
      </trkpt>
      <trkpt lat="45.95123" lon="4.90162">
        <ele>286</ele>
        <time>2017-04-21T10:38:31Z</time>
      </trkpt>
      <trkpt lat="45.95117" lon="4.90157">
        <ele>286</ele>
        <time>2017-04-21T10:38:32Z</time>
      </trkpt>
      <trkpt lat="45.95112" lon="4.90152">
        <ele>286</ele>
        <time>2017-04-21T10:38:33Z</time>
      </trkpt>
      <trkpt lat="45.95106" lon="4.90147">
        <ele>286</ele>
        <time>2017-04-21T10:38:34Z</time>
      </trkpt>
      <trkpt lat="45.95101" lon="4.90141">
        <ele>286</ele>
        <time>2017-04-21T10:38:35Z</time>
      </trkpt>
      <trkpt lat="45.95096" lon="4.90135">
        <ele>286</ele>
        <time>2017-04-21T10:38:36Z</time>
      </trkpt>
      <trkpt lat="45.95091" lon="4.9013">
        <ele>286</ele>
        <time>2017-04-21T10:38:37Z</time>
      </trkpt>
      <trkpt lat="45.95087" lon="4.90124">
        <ele>286</ele>
        <time>2017-04-21T10:38:38Z</time>
      </trkpt>
      <trkpt lat="45.95082" lon="4.90118">
        <ele>285</ele>
        <time>2017-04-21T10:38:39Z</time>
      </trkpt>
      <trkpt lat="45.95077" lon="4.90112">
        <ele>285</ele>
        <time>2017-04-21T10:38:40Z</time>
      </trkpt>
      <trkpt lat="45.95073" lon="4.90106">
        <ele>285</ele>
        <time>2017-04-21T10:38:41Z</time>
      </trkpt>
      <trkpt lat="45.95068" lon="4.90099">
        <ele>285</ele>
        <time>2017-04-21T10:38:42Z</time>
      </trkpt>
      <trkpt lat="45.95064" lon="4.90092">
        <ele>285</ele>
        <time>2017-04-21T10:38:43Z</time>
      </trkpt>
      <trkpt lat="45.95059" lon="4.90086">
        <ele>285</ele>
        <time>2017-04-21T10:38:44Z</time>
      </trkpt>
      <trkpt lat="45.95054" lon="4.9008">
        <ele>285</ele>
        <time>2017-04-21T10:38:45Z</time>
      </trkpt>
      <trkpt lat="45.95049" lon="4.90074">
        <ele>285</ele>
        <time>2017-04-21T10:38:46Z</time>
      </trkpt>
      <trkpt lat="45.95044" lon="4.90067">
        <ele>285</ele>
        <time>2017-04-21T10:38:47Z</time>
      </trkpt>
      <trkpt lat="45.95039" lon="4.9006">
        <ele>285</ele>
        <time>2017-04-21T10:38:48Z</time>
      </trkpt>
      <trkpt lat="45.95034" lon="4.90052">
        <ele>285</ele>
        <time>2017-04-21T10:38:49Z</time>
      </trkpt>
      <trkpt lat="45.95029" lon="4.90044">
        <ele>284</ele>
        <time>2017-04-21T10:38:50Z</time>
      </trkpt>
      <trkpt lat="45.95024" lon="4.90036">
        <ele>284</ele>
        <time>2017-04-21T10:38:51Z</time>
      </trkpt>
      <trkpt lat="45.95019" lon="4.90027">
        <ele>284</ele>
        <time>2017-04-21T10:38:52Z</time>
      </trkpt>
      <trkpt lat="45.95014" lon="4.90019">
        <ele>284</ele>
        <time>2017-04-21T10:38:53Z</time>
      </trkpt>
      <trkpt lat="45.95009" lon="4.90009">
        <ele>284</ele>
        <time>2017-04-21T10:38:54Z</time>
      </trkpt>
      <trkpt lat="45.95005" lon="4.90001">
        <ele>283</ele>
        <time>2017-04-21T10:38:55Z</time>
      </trkpt>
      <trkpt lat="45.95" lon="4.89993">
        <ele>283</ele>
        <time>2017-04-21T10:38:56Z</time>
      </trkpt>
      <trkpt lat="45.94996" lon="4.89985">
        <ele>283</ele>
        <time>2017-04-21T10:38:57Z</time>
      </trkpt>
      <trkpt lat="45.94991" lon="4.89978">
        <ele>284</ele>
        <time>2017-04-21T10:38:58Z</time>
      </trkpt>
      <trkpt lat="45.94987" lon="4.8997">
        <ele>284</ele>
        <time>2017-04-21T10:38:59Z</time>
      </trkpt>
      <trkpt lat="45.94983" lon="4.89963">
        <ele>284</ele>
        <time>2017-04-21T10:39:00Z</time>
      </trkpt>
      <trkpt lat="45.94978" lon="4.89957">
        <ele>284</ele>
        <time>2017-04-21T10:39:01Z</time>
      </trkpt>
      <trkpt lat="45.94974" lon="4.8995">
        <ele>284</ele>
        <time>2017-04-21T10:39:02Z</time>
      </trkpt>
      <trkpt lat="45.9497" lon="4.89944">
        <ele>284</ele>
        <time>2017-04-21T10:39:03Z</time>
      </trkpt>
      <trkpt lat="45.94965" lon="4.89939">
        <ele>284</ele>
        <time>2017-04-21T10:39:04Z</time>
      </trkpt>
      <trkpt lat="45.94961" lon="4.89934">
        <ele>284</ele>
        <time>2017-04-21T10:39:05Z</time>
      </trkpt>
      <trkpt lat="45.94957" lon="4.89929">
        <ele>284</ele>
        <time>2017-04-21T10:39:06Z</time>
      </trkpt>
      <trkpt lat="45.94953" lon="4.89924">
        <ele>284</ele>
        <time>2017-04-21T10:39:07Z</time>
      </trkpt>
      <trkpt lat="45.94949" lon="4.89919">
        <ele>284</ele>
        <time>2017-04-21T10:39:08Z</time>
      </trkpt>
      <trkpt lat="45.94945" lon="4.89914">
        <ele>284</ele>
        <time>2017-04-21T10:39:09Z</time>
      </trkpt>
      <trkpt lat="45.94941" lon="4.89908">
        <ele>284</ele>
        <time>2017-04-21T10:39:10Z</time>
      </trkpt>
      <trkpt lat="45.94937" lon="4.89902">
        <ele>284</ele>
        <time>2017-04-21T10:39:11Z</time>
      </trkpt>
      <trkpt lat="45.94933" lon="4.89896">
        <ele>284</ele>
        <time>2017-04-21T10:39:12Z</time>
      </trkpt>
      <trkpt lat="45.94931" lon="4.89889">
        <ele>284</ele>
        <time>2017-04-21T10:39:13Z</time>
      </trkpt>
      <trkpt lat="45.94928" lon="4.89881">
        <ele>284</ele>
        <time>2017-04-21T10:39:14Z</time>
      </trkpt>
      <trkpt lat="45.94925" lon="4.89873">
        <ele>284</ele>
        <time>2017-04-21T10:39:15Z</time>
      </trkpt>
      <trkpt lat="45.94923" lon="4.89864">
        <ele>284</ele>
        <time>2017-04-21T10:39:16Z</time>
      </trkpt>
      <trkpt lat="45.94922" lon="4.89856">
        <ele>284</ele>
        <time>2017-04-21T10:39:17Z</time>
      </trkpt>
      <trkpt lat="45.94921" lon="4.89847">
        <ele>284</ele>
        <time>2017-04-21T10:39:18Z</time>
      </trkpt>
      <trkpt lat="45.94921" lon="4.89838">
        <ele>284</ele>
        <time>2017-04-21T10:39:19Z</time>
      </trkpt>
      <trkpt lat="45.94922" lon="4.89828">
        <ele>284</ele>
        <time>2017-04-21T10:39:20Z</time>
      </trkpt>
      <trkpt lat="45.94923" lon="4.89819">
        <ele>284</ele>
        <time>2017-04-21T10:39:21Z</time>
      </trkpt>
      <trkpt lat="45.94924" lon="4.8981">
        <ele>284</ele>
        <time>2017-04-21T10:39:22Z</time>
      </trkpt>
      <trkpt lat="45.94926" lon="4.89801">
        <ele>284</ele>
        <time>2017-04-21T10:39:23Z</time>
      </trkpt>
      <trkpt lat="45.94927" lon="4.89792">
        <ele>284</ele>
        <time>2017-04-21T10:39:24Z</time>
      </trkpt>
      <trkpt lat="45.94928" lon="4.89782">
        <ele>284</ele>
        <time>2017-04-21T10:39:25Z</time>
      </trkpt>
      <trkpt lat="45.94929" lon="4.89773">
        <ele>284</ele>
        <time>2017-04-21T10:39:26Z</time>
      </trkpt>
      <trkpt lat="45.94931" lon="4.89765">
        <ele>284</ele>
        <time>2017-04-21T10:39:27Z</time>
      </trkpt>
      <trkpt lat="45.94933" lon="4.89757">
        <ele>284</ele>
        <time>2017-04-21T10:39:28Z</time>
      </trkpt>
      <trkpt lat="45.94935" lon="4.89749">
        <ele>285</ele>
        <time>2017-04-21T10:39:29Z</time>
      </trkpt>
      <trkpt lat="45.94937" lon="4.89741">
        <ele>285</ele>
        <time>2017-04-21T10:39:30Z</time>
      </trkpt>
      <trkpt lat="45.9494" lon="4.89734">
        <ele>284</ele>
        <time>2017-04-21T10:39:31Z</time>
      </trkpt>
      <trkpt lat="45.94942" lon="4.89727">
        <ele>284</ele>
        <time>2017-04-21T10:39:32Z</time>
      </trkpt>
      <trkpt lat="45.94944" lon="4.89719">
        <ele>284</ele>
        <time>2017-04-21T10:39:33Z</time>
      </trkpt>
      <trkpt lat="45.94946" lon="4.89712">
        <ele>284</ele>
        <time>2017-04-21T10:39:34Z</time>
      </trkpt>
      <trkpt lat="45.94948" lon="4.89705">
        <ele>284</ele>
        <time>2017-04-21T10:39:35Z</time>
      </trkpt>
      <trkpt lat="45.9495" lon="4.89698">
        <ele>284</ele>
        <time>2017-04-21T10:39:36Z</time>
      </trkpt>
      <trkpt lat="45.94952" lon="4.8969">
        <ele>284</ele>
        <time>2017-04-21T10:39:37Z</time>
      </trkpt>
      <trkpt lat="45.94954" lon="4.89683">
        <ele>284</ele>
        <time>2017-04-21T10:39:38Z</time>
      </trkpt>
      <trkpt lat="45.94956" lon="4.89675">
        <ele>284</ele>
        <time>2017-04-21T10:39:39Z</time>
      </trkpt>
      <trkpt lat="45.94958" lon="4.89668">
        <ele>284</ele>
        <time>2017-04-21T10:39:40Z</time>
      </trkpt>
      <trkpt lat="45.9496" lon="4.89661">
        <ele>285</ele>
        <time>2017-04-21T10:39:41Z</time>
      </trkpt>
      <trkpt lat="45.94963" lon="4.89654">
        <ele>285</ele>
        <time>2017-04-21T10:39:42Z</time>
      </trkpt>
      <trkpt lat="45.94965" lon="4.89646">
        <ele>285</ele>
        <time>2017-04-21T10:39:43Z</time>
      </trkpt>
      <trkpt lat="45.94967" lon="4.89639">
        <ele>285</ele>
        <time>2017-04-21T10:39:44Z</time>
      </trkpt>
      <trkpt lat="45.94969" lon="4.89631">
        <ele>285</ele>
        <time>2017-04-21T10:39:45Z</time>
      </trkpt>
      <trkpt lat="45.94971" lon="4.89624">
        <ele>285</ele>
        <time>2017-04-21T10:39:46Z</time>
      </trkpt>
      <trkpt lat="45.94973" lon="4.89616">
        <ele>285</ele>
        <time>2017-04-21T10:39:47Z</time>
      </trkpt>
      <trkpt lat="45.94976" lon="4.89608">
        <ele>285</ele>
        <time>2017-04-21T10:39:48Z</time>
      </trkpt>
      <trkpt lat="45.94978" lon="4.89601">
        <ele>285</ele>
        <time>2017-04-21T10:39:49Z</time>
      </trkpt>
      <trkpt lat="45.9498" lon="4.89594">
        <ele>284</ele>
        <time>2017-04-21T10:39:50Z</time>
      </trkpt>
      <trkpt lat="45.94982" lon="4.89586">
        <ele>284</ele>
        <time>2017-04-21T10:39:51Z</time>
      </trkpt>
      <trkpt lat="45.94984" lon="4.89579">
        <ele>284</ele>
        <time>2017-04-21T10:39:52Z</time>
      </trkpt>
      <trkpt lat="45.94985" lon="4.89572">
        <ele>285</ele>
        <time>2017-04-21T10:39:53Z</time>
      </trkpt>
      <trkpt lat="45.94987" lon="4.89564">
        <ele>285</ele>
        <time>2017-04-21T10:39:54Z</time>
      </trkpt>
      <trkpt lat="45.94989" lon="4.89557">
        <ele>285</ele>
        <time>2017-04-21T10:39:55Z</time>
      </trkpt>
      <trkpt lat="45.94992" lon="4.8955">
        <ele>285</ele>
        <time>2017-04-21T10:39:56Z</time>
      </trkpt>
      <trkpt lat="45.94994" lon="4.89543">
        <ele>284</ele>
        <time>2017-04-21T10:39:57Z</time>
      </trkpt>
      <trkpt lat="45.94998" lon="4.89535">
        <ele>284</ele>
        <time>2017-04-21T10:39:58Z</time>
      </trkpt>
      <trkpt lat="45.95003" lon="4.89529">
        <ele>283</ele>
        <time>2017-04-21T10:39:59Z</time>
      </trkpt>
      <trkpt lat="45.95008" lon="4.89525">
        <ele>283</ele>
        <time>2017-04-21T10:40:00Z</time>
      </trkpt>
      <trkpt lat="45.95013" lon="4.89521">
        <ele>283</ele>
        <time>2017-04-21T10:40:01Z</time>
      </trkpt>
      <trkpt lat="45.95019" lon="4.89519">
        <ele>283</ele>
        <time>2017-04-21T10:40:02Z</time>
      </trkpt>
      <trkpt lat="45.95025" lon="4.89518">
        <ele>283</ele>
        <time>2017-04-21T10:40:03Z</time>
      </trkpt>
      <trkpt lat="45.95031" lon="4.89517">
        <ele>283</ele>
        <time>2017-04-21T10:40:04Z</time>
      </trkpt>
      <trkpt lat="45.95037" lon="4.89516">
        <ele>283</ele>
        <time>2017-04-21T10:40:05Z</time>
      </trkpt>
      <trkpt lat="45.95043" lon="4.89514">
        <ele>283</ele>
        <time>2017-04-21T10:40:06Z</time>
      </trkpt>
      <trkpt lat="45.95048" lon="4.89513">
        <ele>283</ele>
        <time>2017-04-21T10:40:07Z</time>
      </trkpt>
      <trkpt lat="45.95054" lon="4.89511">
        <ele>283</ele>
        <time>2017-04-21T10:40:08Z</time>
      </trkpt>
      <trkpt lat="45.95061" lon="4.89509">
        <ele>282</ele>
        <time>2017-04-21T10:40:09Z</time>
      </trkpt>
      <trkpt lat="45.95067" lon="4.89506">
        <ele>282</ele>
        <time>2017-04-21T10:40:10Z</time>
      </trkpt>
      <trkpt lat="45.95073" lon="4.89502">
        <ele>282</ele>
        <time>2017-04-21T10:40:11Z</time>
      </trkpt>
      <trkpt lat="45.95078" lon="4.89495">
        <ele>282</ele>
        <time>2017-04-21T10:40:12Z</time>
      </trkpt>
      <trkpt lat="45.95081" lon="4.89487">
        <ele>282</ele>
        <time>2017-04-21T10:40:13Z</time>
      </trkpt>
      <trkpt lat="45.95082" lon="4.89478">
        <ele>282</ele>
        <time>2017-04-21T10:40:14Z</time>
      </trkpt>
      <trkpt lat="45.95081" lon="4.89469">
        <ele>282</ele>
        <time>2017-04-21T10:40:15Z</time>
      </trkpt>
      <trkpt lat="45.9508" lon="4.89461">
        <ele>282</ele>
        <time>2017-04-21T10:40:16Z</time>
      </trkpt>
      <trkpt lat="45.95078" lon="4.89453">
        <ele>282</ele>
        <time>2017-04-21T10:40:17Z</time>
      </trkpt>
      <trkpt lat="45.95076" lon="4.89445">
        <ele>282</ele>
        <time>2017-04-21T10:40:18Z</time>
      </trkpt>
      <trkpt lat="45.95075" lon="4.89438">
        <ele>282</ele>
        <time>2017-04-21T10:40:19Z</time>
      </trkpt>
      <trkpt lat="45.95073" lon="4.8943">
        <ele>282</ele>
        <time>2017-04-21T10:40:20Z</time>
      </trkpt>
      <trkpt lat="45.95072" lon="4.89423">
        <ele>282</ele>
        <time>2017-04-21T10:40:21Z</time>
      </trkpt>
      <trkpt lat="45.95071" lon="4.89415">
        <ele>282</ele>
        <time>2017-04-21T10:40:22Z</time>
      </trkpt>
      <trkpt lat="45.95071" lon="4.89408">
        <ele>283</ele>
        <time>2017-04-21T10:40:23Z</time>
      </trkpt>
      <trkpt lat="45.9507" lon="4.894">
        <ele>283</ele>
        <time>2017-04-21T10:40:24Z</time>
      </trkpt>
      <trkpt lat="45.95069" lon="4.89392">
        <ele>283</ele>
        <time>2017-04-21T10:40:25Z</time>
      </trkpt>
      <trkpt lat="45.95069" lon="4.89383">
        <ele>283</ele>
        <time>2017-04-21T10:40:26Z</time>
      </trkpt>
      <trkpt lat="45.95069" lon="4.89375">
        <ele>283</ele>
        <time>2017-04-21T10:40:27Z</time>
      </trkpt>
      <trkpt lat="45.95068" lon="4.89367">
        <ele>283</ele>
        <time>2017-04-21T10:40:28Z</time>
      </trkpt>
      <trkpt lat="45.95068" lon="4.89358">
        <ele>283</ele>
        <time>2017-04-21T10:40:29Z</time>
      </trkpt>
      <trkpt lat="45.95068" lon="4.8935">
        <ele>283</ele>
        <time>2017-04-21T10:40:30Z</time>
      </trkpt>
      <trkpt lat="45.95067" lon="4.89342">
        <ele>283</ele>
        <time>2017-04-21T10:40:31Z</time>
      </trkpt>
      <trkpt lat="45.95067" lon="4.89333">
        <ele>283</ele>
        <time>2017-04-21T10:40:32Z</time>
      </trkpt>
      <trkpt lat="45.95067" lon="4.89326">
        <ele>283</ele>
        <time>2017-04-21T10:40:33Z</time>
      </trkpt>
      <trkpt lat="45.95067" lon="4.89318">
        <ele>283</ele>
        <time>2017-04-21T10:40:34Z</time>
      </trkpt>
      <trkpt lat="45.95068" lon="4.89311">
        <ele>283</ele>
        <time>2017-04-21T10:40:35Z</time>
      </trkpt>
      <trkpt lat="45.95068" lon="4.89304">
        <ele>283</ele>
        <time>2017-04-21T10:40:36Z</time>
      </trkpt>
      <trkpt lat="45.95069" lon="4.89296">
        <ele>283</ele>
        <time>2017-04-21T10:40:37Z</time>
      </trkpt>
      <trkpt lat="45.95069" lon="4.89289">
        <ele>283</ele>
        <time>2017-04-21T10:40:38Z</time>
      </trkpt>
      <trkpt lat="45.95069" lon="4.89282">
        <ele>283</ele>
        <time>2017-04-21T10:40:39Z</time>
      </trkpt>
      <trkpt lat="45.95069" lon="4.89274">
        <ele>283</ele>
        <time>2017-04-21T10:40:40Z</time>
      </trkpt>
      <trkpt lat="45.95069" lon="4.89267">
        <ele>283</ele>
        <time>2017-04-21T10:40:41Z</time>
      </trkpt>
      <trkpt lat="45.9507" lon="4.89259">
        <ele>283</ele>
        <time>2017-04-21T10:40:42Z</time>
      </trkpt>
      <trkpt lat="45.95069" lon="4.89252">
        <ele>283</ele>
        <time>2017-04-21T10:40:43Z</time>
      </trkpt>
      <trkpt lat="45.95069" lon="4.89244">
        <ele>284</ele>
        <time>2017-04-21T10:40:44Z</time>
      </trkpt>
      <trkpt lat="45.95069" lon="4.89236">
        <ele>284</ele>
        <time>2017-04-21T10:40:45Z</time>
      </trkpt>
      <trkpt lat="45.9507" lon="4.89229">
        <ele>284</ele>
        <time>2017-04-21T10:40:46Z</time>
      </trkpt>
      <trkpt lat="45.9507" lon="4.89221">
        <ele>284</ele>
        <time>2017-04-21T10:40:47Z</time>
      </trkpt>
      <trkpt lat="45.9507" lon="4.89213">
        <ele>284</ele>
        <time>2017-04-21T10:40:48Z</time>
      </trkpt>
      <trkpt lat="45.95071" lon="4.89205">
        <ele>284</ele>
        <time>2017-04-21T10:40:49Z</time>
      </trkpt>
      <trkpt lat="45.95072" lon="4.89198">
        <ele>284</ele>
        <time>2017-04-21T10:40:50Z</time>
      </trkpt>
      <trkpt lat="45.95073" lon="4.89192">
        <ele>284</ele>
        <time>2017-04-21T10:40:51Z</time>
      </trkpt>
      <trkpt lat="45.95073" lon="4.89185">
        <ele>284</ele>
        <time>2017-04-21T10:40:52Z</time>
      </trkpt>
      <trkpt lat="45.95073" lon="4.89178">
        <ele>284</ele>
        <time>2017-04-21T10:40:53Z</time>
      </trkpt>
      <trkpt lat="45.95074" lon="4.89171">
        <ele>284</ele>
        <time>2017-04-21T10:40:54Z</time>
      </trkpt>
      <trkpt lat="45.95075" lon="4.89164">
        <ele>284</ele>
        <time>2017-04-21T10:40:55Z</time>
      </trkpt>
      <trkpt lat="45.95076" lon="4.89156">
        <ele>284</ele>
        <time>2017-04-21T10:40:56Z</time>
      </trkpt>
      <trkpt lat="45.95077" lon="4.89148">
        <ele>285</ele>
        <time>2017-04-21T10:40:57Z</time>
      </trkpt>
      <trkpt lat="45.95077" lon="4.8914">
        <ele>285</ele>
        <time>2017-04-21T10:40:58Z</time>
      </trkpt>
      <trkpt lat="45.95078" lon="4.89132">
        <ele>285</ele>
        <time>2017-04-21T10:40:59Z</time>
      </trkpt>
      <trkpt lat="45.95079" lon="4.89124">
        <ele>285</ele>
        <time>2017-04-21T10:41:00Z</time>
      </trkpt>
      <trkpt lat="45.9508" lon="4.89115">
        <ele>285</ele>
        <time>2017-04-21T10:41:01Z</time>
      </trkpt>
      <trkpt lat="45.9508" lon="4.89107">
        <ele>285</ele>
        <time>2017-04-21T10:41:02Z</time>
      </trkpt>
      <trkpt lat="45.9508" lon="4.89099">
        <ele>284</ele>
        <time>2017-04-21T10:41:03Z</time>
      </trkpt>
      <trkpt lat="45.9508" lon="4.89091">
        <ele>284</ele>
        <time>2017-04-21T10:41:04Z</time>
      </trkpt>
      <trkpt lat="45.9508" lon="4.89083">
        <ele>284</ele>
        <time>2017-04-21T10:41:05Z</time>
      </trkpt>
      <trkpt lat="45.9508" lon="4.89076">
        <ele>284</ele>
        <time>2017-04-21T10:41:06Z</time>
      </trkpt>
      <trkpt lat="45.95081" lon="4.89068">
        <ele>285</ele>
        <time>2017-04-21T10:41:07Z</time>
      </trkpt>
      <trkpt lat="45.95082" lon="4.89062">
        <ele>285</ele>
        <time>2017-04-21T10:41:08Z</time>
      </trkpt>
      <trkpt lat="45.95083" lon="4.89055">
        <ele>285</ele>
        <time>2017-04-21T10:41:09Z</time>
      </trkpt>
      <trkpt lat="45.95085" lon="4.89048">
        <ele>284</ele>
        <time>2017-04-21T10:41:10Z</time>
      </trkpt>
      <trkpt lat="45.95085" lon="4.89041">
        <ele>284</ele>
        <time>2017-04-21T10:41:11Z</time>
      </trkpt>
      <trkpt lat="45.95086" lon="4.89035">
        <ele>284</ele>
        <time>2017-04-21T10:41:12Z</time>
      </trkpt>
      <trkpt lat="45.95087" lon="4.89028">
        <ele>284</ele>
        <time>2017-04-21T10:41:13Z</time>
      </trkpt>
      <trkpt lat="45.95088" lon="4.89021">
        <ele>284</ele>
        <time>2017-04-21T10:41:14Z</time>
      </trkpt>
      <trkpt lat="45.95089" lon="4.89015">
        <ele>284</ele>
        <time>2017-04-21T10:41:15Z</time>
      </trkpt>
      <trkpt lat="45.9509" lon="4.89008">
        <ele>284</ele>
        <time>2017-04-21T10:41:16Z</time>
      </trkpt>
      <trkpt lat="45.9509" lon="4.89">
        <ele>285</ele>
        <time>2017-04-21T10:41:17Z</time>
      </trkpt>
      <trkpt lat="45.95091" lon="4.88993">
        <ele>285</ele>
        <time>2017-04-21T10:41:18Z</time>
      </trkpt>
      <trkpt lat="45.95091" lon="4.88986">
        <ele>285</ele>
        <time>2017-04-21T10:41:19Z</time>
      </trkpt>
      <trkpt lat="45.95091" lon="4.88978">
        <ele>285</ele>
        <time>2017-04-21T10:41:20Z</time>
      </trkpt>
      <trkpt lat="45.95092" lon="4.88971">
        <ele>284</ele>
        <time>2017-04-21T10:41:21Z</time>
      </trkpt>
      <trkpt lat="45.95092" lon="4.88963">
        <ele>284</ele>
        <time>2017-04-21T10:41:22Z</time>
      </trkpt>
      <trkpt lat="45.95092" lon="4.88956">
        <ele>285</ele>
        <time>2017-04-21T10:41:23Z</time>
      </trkpt>
      <trkpt lat="45.95093" lon="4.88949">
        <ele>285</ele>
        <time>2017-04-21T10:41:24Z</time>
      </trkpt>
      <trkpt lat="45.95094" lon="4.88942">
        <ele>285</ele>
        <time>2017-04-21T10:41:25Z</time>
      </trkpt>
      <trkpt lat="45.95094" lon="4.88935">
        <ele>285</ele>
        <time>2017-04-21T10:41:26Z</time>
      </trkpt>
      <trkpt lat="45.95094" lon="4.88929">
        <ele>285</ele>
        <time>2017-04-21T10:41:27Z</time>
      </trkpt>
      <trkpt lat="45.95095" lon="4.88922">
        <ele>285</ele>
        <time>2017-04-21T10:41:28Z</time>
      </trkpt>
      <trkpt lat="45.95095" lon="4.88915">
        <ele>285</ele>
        <time>2017-04-21T10:41:29Z</time>
      </trkpt>
      <trkpt lat="45.95096" lon="4.88909">
        <ele>285</ele>
        <time>2017-04-21T10:41:30Z</time>
      </trkpt>
      <trkpt lat="45.95096" lon="4.88901">
        <ele>285</ele>
        <time>2017-04-21T10:41:31Z</time>
      </trkpt>
      <trkpt lat="45.95097" lon="4.88894">
        <ele>285</ele>
        <time>2017-04-21T10:41:32Z</time>
      </trkpt>
      <trkpt lat="45.95097" lon="4.88886">
        <ele>285</ele>
        <time>2017-04-21T10:41:33Z</time>
      </trkpt>
      <trkpt lat="45.95097" lon="4.88879">
        <ele>285</ele>
        <time>2017-04-21T10:41:34Z</time>
      </trkpt>
      <trkpt lat="45.95098" lon="4.88872">
        <ele>285</ele>
        <time>2017-04-21T10:41:35Z</time>
      </trkpt>
      <trkpt lat="45.95099" lon="4.88861">
        <ele>285</ele>
        <time>2017-04-21T10:41:37Z</time>
      </trkpt>
      <trkpt lat="45.951" lon="4.88855">
        <ele>285</ele>
        <time>2017-04-21T10:41:38Z</time>
      </trkpt>
      <trkpt lat="45.95101" lon="4.88849">
        <ele>285</ele>
        <time>2017-04-21T10:41:39Z</time>
      </trkpt>
      <trkpt lat="45.95101" lon="4.88842">
        <ele>286</ele>
        <time>2017-04-21T10:41:40Z</time>
      </trkpt>
      <trkpt lat="45.95102" lon="4.88835">
        <ele>286</ele>
        <time>2017-04-21T10:41:41Z</time>
      </trkpt>
      <trkpt lat="45.95102" lon="4.88829">
        <ele>286</ele>
        <time>2017-04-21T10:41:42Z</time>
      </trkpt>
      <trkpt lat="45.95103" lon="4.88822">
        <ele>286</ele>
        <time>2017-04-21T10:41:43Z</time>
      </trkpt>
      <trkpt lat="45.95103" lon="4.88814">
        <ele>286</ele>
        <time>2017-04-21T10:41:44Z</time>
      </trkpt>
      <trkpt lat="45.95103" lon="4.88808">
        <ele>286</ele>
        <time>2017-04-21T10:41:45Z</time>
      </trkpt>
      <trkpt lat="45.95104" lon="4.88801">
        <ele>286</ele>
        <time>2017-04-21T10:41:46Z</time>
      </trkpt>
      <trkpt lat="45.95104" lon="4.88795">
        <ele>287</ele>
        <time>2017-04-21T10:41:47Z</time>
      </trkpt>
      <trkpt lat="45.95105" lon="4.88788">
        <ele>287</ele>
        <time>2017-04-21T10:41:48Z</time>
      </trkpt>
      <trkpt lat="45.95106" lon="4.88782">
        <ele>287</ele>
        <time>2017-04-21T10:41:49Z</time>
      </trkpt>
      <trkpt lat="45.95107" lon="4.88775">
        <ele>287</ele>
        <time>2017-04-21T10:41:50Z</time>
      </trkpt>
      <trkpt lat="45.95108" lon="4.88762">
        <ele>287</ele>
        <time>2017-04-21T10:41:52Z</time>
      </trkpt>
      <trkpt lat="45.95108" lon="4.88756">
        <ele>287</ele>
        <time>2017-04-21T10:41:53Z</time>
      </trkpt>
      <trkpt lat="45.95109" lon="4.88744">
        <ele>288</ele>
        <time>2017-04-21T10:41:55Z</time>
      </trkpt>
      <trkpt lat="45.95108" lon="4.88737">
        <ele>288</ele>
        <time>2017-04-21T10:41:56Z</time>
      </trkpt>
      <trkpt lat="45.95108" lon="4.88725">
        <ele>289</ele>
        <time>2017-04-21T10:41:58Z</time>
      </trkpt>
      <trkpt lat="45.95108" lon="4.88719">
        <ele>289</ele>
        <time>2017-04-21T10:41:59Z</time>
      </trkpt>
      <trkpt lat="45.95107" lon="4.88706">
        <ele>289</ele>
        <time>2017-04-21T10:42:01Z</time>
      </trkpt>
      <trkpt lat="45.95107" lon="4.88699">
        <ele>289</ele>
        <time>2017-04-21T10:42:02Z</time>
      </trkpt>
      <trkpt lat="45.95108" lon="4.88687">
        <ele>289</ele>
        <time>2017-04-21T10:42:04Z</time>
      </trkpt>
      <trkpt lat="45.95108" lon="4.88681">
        <ele>289</ele>
        <time>2017-04-21T10:42:05Z</time>
      </trkpt>
      <trkpt lat="45.95109" lon="4.88669">
        <ele>289</ele>
        <time>2017-04-21T10:42:07Z</time>
      </trkpt>
      <trkpt lat="45.9511" lon="4.88664">
        <ele>290</ele>
        <time>2017-04-21T10:42:08Z</time>
      </trkpt>
      <trkpt lat="45.9511" lon="4.88652">
        <ele>290</ele>
        <time>2017-04-21T10:42:10Z</time>
      </trkpt>
      <trkpt lat="45.95109" lon="4.88647">
        <ele>290</ele>
        <time>2017-04-21T10:42:11Z</time>
      </trkpt>
      <trkpt lat="45.9511" lon="4.88637">
        <ele>290</ele>
        <time>2017-04-21T10:42:13Z</time>
      </trkpt>
      <trkpt lat="45.9511" lon="4.8863">
        <ele>290</ele>
        <time>2017-04-21T10:42:14Z</time>
      </trkpt>
      <trkpt lat="45.95111" lon="4.88619">
        <ele>290</ele>
        <time>2017-04-21T10:42:16Z</time>
      </trkpt>
      <trkpt lat="45.95112" lon="4.88614">
        <ele>290</ele>
        <time>2017-04-21T10:42:17Z</time>
      </trkpt>
      <trkpt lat="45.95112" lon="4.88604">
        <ele>290</ele>
        <time>2017-04-21T10:42:19Z</time>
      </trkpt>
      <trkpt lat="45.95113" lon="4.88598">
        <ele>290</ele>
        <time>2017-04-21T10:42:20Z</time>
      </trkpt>
      <trkpt lat="45.95113" lon="4.88586">
        <ele>290</ele>
        <time>2017-04-21T10:42:22Z</time>
      </trkpt>
      <trkpt lat="45.95113" lon="4.8858">
        <ele>291</ele>
        <time>2017-04-21T10:42:23Z</time>
      </trkpt>
      <trkpt lat="45.95112" lon="4.88568">
        <ele>291</ele>
        <time>2017-04-21T10:42:25Z</time>
      </trkpt>
      <trkpt lat="45.95111" lon="4.88562">
        <ele>291</ele>
        <time>2017-04-21T10:42:26Z</time>
      </trkpt>
      <trkpt lat="45.9511" lon="4.88555">
        <ele>291</ele>
        <time>2017-04-21T10:42:27Z</time>
      </trkpt>
      <trkpt lat="45.9511" lon="4.88549">
        <ele>291</ele>
        <time>2017-04-21T10:42:28Z</time>
      </trkpt>
      <trkpt lat="45.95109" lon="4.88542">
        <ele>291</ele>
        <time>2017-04-21T10:42:29Z</time>
      </trkpt>
      <trkpt lat="45.95108" lon="4.88536">
        <ele>291</ele>
        <time>2017-04-21T10:42:30Z</time>
      </trkpt>
      <trkpt lat="45.95107" lon="4.88529">
        <ele>291</ele>
        <time>2017-04-21T10:42:31Z</time>
      </trkpt>
      <trkpt lat="45.95106" lon="4.88521">
        <ele>291</ele>
        <time>2017-04-21T10:42:32Z</time>
      </trkpt>
      <trkpt lat="45.95105" lon="4.88514">
        <ele>291</ele>
        <time>2017-04-21T10:42:33Z</time>
      </trkpt>
      <trkpt lat="45.95104" lon="4.88507">
        <ele>290</ele>
        <time>2017-04-21T10:42:34Z</time>
      </trkpt>
      <trkpt lat="45.95101" lon="4.88495">
        <ele>291</ele>
        <time>2017-04-21T10:42:36Z</time>
      </trkpt>
      <trkpt lat="45.951" lon="4.8849">
        <ele>291</ele>
        <time>2017-04-21T10:42:37Z</time>
      </trkpt>
      <trkpt lat="45.95098" lon="4.88478">
        <ele>291</ele>
        <time>2017-04-21T10:42:39Z</time>
      </trkpt>
      <trkpt lat="45.95098" lon="4.88471">
        <ele>291</ele>
        <time>2017-04-21T10:42:40Z</time>
      </trkpt>
      <trkpt lat="45.95098" lon="4.88465">
        <ele>291</ele>
        <time>2017-04-21T10:42:41Z</time>
      </trkpt>
      <trkpt lat="45.95098" lon="4.88458">
        <ele>291</ele>
        <time>2017-04-21T10:42:42Z</time>
      </trkpt>
      <trkpt lat="45.95098" lon="4.88451">
        <ele>291</ele>
        <time>2017-04-21T10:42:43Z</time>
      </trkpt>
      <trkpt lat="45.95098" lon="4.88444">
        <ele>291</ele>
        <time>2017-04-21T10:42:44Z</time>
      </trkpt>
      <trkpt lat="45.95101" lon="4.88432">
        <ele>291</ele>
        <time>2017-04-21T10:42:46Z</time>
      </trkpt>
      <trkpt lat="45.95102" lon="4.88427">
        <ele>291</ele>
        <time>2017-04-21T10:42:47Z</time>
      </trkpt>
      <trkpt lat="45.95103" lon="4.88416">
        <ele>290</ele>
        <time>2017-04-21T10:42:49Z</time>
      </trkpt>
      <trkpt lat="45.95104" lon="4.88409">
        <ele>291</ele>
        <time>2017-04-21T10:42:50Z</time>
      </trkpt>
      <trkpt lat="45.95104" lon="4.88401">
        <ele>291</ele>
        <time>2017-04-21T10:42:51Z</time>
      </trkpt>
      <trkpt lat="45.95105" lon="4.88394">
        <ele>291</ele>
        <time>2017-04-21T10:42:52Z</time>
      </trkpt>
      <trkpt lat="45.95107" lon="4.88388">
        <ele>291</ele>
        <time>2017-04-21T10:42:53Z</time>
      </trkpt>
      <trkpt lat="45.95108" lon="4.88381">
        <ele>290</ele>
        <time>2017-04-21T10:42:54Z</time>
      </trkpt>
      <trkpt lat="45.95109" lon="4.88375">
        <ele>290</ele>
        <time>2017-04-21T10:42:55Z</time>
      </trkpt>
      <trkpt lat="45.95111" lon="4.88367">
        <ele>290</ele>
        <time>2017-04-21T10:42:56Z</time>
      </trkpt>
      <trkpt lat="45.95112" lon="4.8836">
        <ele>290</ele>
        <time>2017-04-21T10:42:57Z</time>
      </trkpt>
      <trkpt lat="45.95113" lon="4.88352">
        <ele>290</ele>
        <time>2017-04-21T10:42:58Z</time>
      </trkpt>
      <trkpt lat="45.95114" lon="4.88344">
        <ele>290</ele>
        <time>2017-04-21T10:42:59Z</time>
      </trkpt>
      <trkpt lat="45.95115" lon="4.88336">
        <ele>290</ele>
        <time>2017-04-21T10:43:00Z</time>
      </trkpt>
      <trkpt lat="45.95116" lon="4.88328">
        <ele>289</ele>
        <time>2017-04-21T10:43:01Z</time>
      </trkpt>
      <trkpt lat="45.95118" lon="4.88319">
        <ele>289</ele>
        <time>2017-04-21T10:43:02Z</time>
      </trkpt>
      <trkpt lat="45.95119" lon="4.88311">
        <ele>289</ele>
        <time>2017-04-21T10:43:03Z</time>
      </trkpt>
      <trkpt lat="45.9512" lon="4.88303">
        <ele>289</ele>
        <time>2017-04-21T10:43:04Z</time>
      </trkpt>
      <trkpt lat="45.95122" lon="4.88296">
        <ele>289</ele>
        <time>2017-04-21T10:43:05Z</time>
      </trkpt>
      <trkpt lat="45.95122" lon="4.8829">
        <ele>289</ele>
        <time>2017-04-21T10:43:06Z</time>
      </trkpt>
      <trkpt lat="45.95123" lon="4.88279">
        <ele>289</ele>
        <time>2017-04-21T10:43:08Z</time>
      </trkpt>
      <trkpt lat="45.95124" lon="4.88273">
        <ele>289</ele>
        <time>2017-04-21T10:43:09Z</time>
      </trkpt>
      <trkpt lat="45.95124" lon="4.88262">
        <ele>289</ele>
        <time>2017-04-21T10:43:11Z</time>
      </trkpt>
      <trkpt lat="45.95124" lon="4.88258">
        <ele>289</ele>
        <time>2017-04-21T10:43:12Z</time>
      </trkpt>
      <trkpt lat="45.95124" lon="4.88246">
        <ele>287</ele>
        <time>2017-04-21T10:43:15Z</time>
      </trkpt>
      <trkpt lat="45.95124" lon="4.88241">
        <ele>287</ele>
        <time>2017-04-21T10:43:16Z</time>
      </trkpt>
      <trkpt lat="45.95124" lon="4.88229">
        <ele>287</ele>
        <time>2017-04-21T10:43:18Z</time>
      </trkpt>
      <trkpt lat="45.95125" lon="4.88222">
        <ele>287</ele>
        <time>2017-04-21T10:43:19Z</time>
      </trkpt>
      <trkpt lat="45.95127" lon="4.88214">
        <ele>287</ele>
        <time>2017-04-21T10:43:20Z</time>
      </trkpt>
      <trkpt lat="45.95129" lon="4.88207">
        <ele>287</ele>
        <time>2017-04-21T10:43:21Z</time>
      </trkpt>
      <trkpt lat="45.95132" lon="4.88201">
        <ele>287</ele>
        <time>2017-04-21T10:43:22Z</time>
      </trkpt>
      <trkpt lat="45.95136" lon="4.88194">
        <ele>287</ele>
        <time>2017-04-21T10:43:23Z</time>
      </trkpt>
      <trkpt lat="45.95141" lon="4.88189">
        <ele>286</ele>
        <time>2017-04-21T10:43:24Z</time>
      </trkpt>
      <trkpt lat="45.95145" lon="4.88184">
        <ele>286</ele>
        <time>2017-04-21T10:43:25Z</time>
      </trkpt>
      <trkpt lat="45.9515" lon="4.8818">
        <ele>286</ele>
        <time>2017-04-21T10:43:26Z</time>
      </trkpt>
      <trkpt lat="45.95155" lon="4.88177">
        <ele>286</ele>
        <time>2017-04-21T10:43:27Z</time>
      </trkpt>
      <trkpt lat="45.9516" lon="4.88174">
        <ele>286</ele>
        <time>2017-04-21T10:43:28Z</time>
      </trkpt>
      <trkpt lat="45.95165" lon="4.88169">
        <ele>285</ele>
        <time>2017-04-21T10:43:29Z</time>
      </trkpt>
      <trkpt lat="45.95168" lon="4.88162">
        <ele>284</ele>
        <time>2017-04-21T10:43:30Z</time>
      </trkpt>
      <trkpt lat="45.9517" lon="4.88155">
        <ele>284</ele>
        <time>2017-04-21T10:43:31Z</time>
      </trkpt>
      <trkpt lat="45.95171" lon="4.88147">
        <ele>283</ele>
        <time>2017-04-21T10:43:32Z</time>
      </trkpt>
      <trkpt lat="45.95173" lon="4.88139">
        <ele>283</ele>
        <time>2017-04-21T10:43:33Z</time>
      </trkpt>
      <trkpt lat="45.95175" lon="4.88132">
        <ele>283</ele>
        <time>2017-04-21T10:43:34Z</time>
      </trkpt>
      <trkpt lat="45.95177" lon="4.88124">
        <ele>282</ele>
        <time>2017-04-21T10:43:35Z</time>
      </trkpt>
      <trkpt lat="45.95178" lon="4.88116">
        <ele>282</ele>
        <time>2017-04-21T10:43:36Z</time>
      </trkpt>
      <trkpt lat="45.9518" lon="4.88107">
        <ele>282</ele>
        <time>2017-04-21T10:43:37Z</time>
      </trkpt>
      <trkpt lat="45.95181" lon="4.88099">
        <ele>282</ele>
        <time>2017-04-21T10:43:38Z</time>
      </trkpt>
      <trkpt lat="45.95183" lon="4.88091">
        <ele>282</ele>
        <time>2017-04-21T10:43:39Z</time>
      </trkpt>
      <trkpt lat="45.95185" lon="4.88083">
        <ele>281</ele>
        <time>2017-04-21T10:43:40Z</time>
      </trkpt>
      <trkpt lat="45.95187" lon="4.88075">
        <ele>281</ele>
        <time>2017-04-21T10:43:41Z</time>
      </trkpt>
      <trkpt lat="45.95189" lon="4.88066">
        <ele>281</ele>
        <time>2017-04-21T10:43:42Z</time>
      </trkpt>
      <trkpt lat="45.95192" lon="4.88057">
        <ele>281</ele>
        <time>2017-04-21T10:43:43Z</time>
      </trkpt>
      <trkpt lat="45.95195" lon="4.88049">
        <ele>281</ele>
        <time>2017-04-21T10:43:44Z</time>
      </trkpt>
      <trkpt lat="45.95199" lon="4.88041">
        <ele>281</ele>
        <time>2017-04-21T10:43:45Z</time>
      </trkpt>
      <trkpt lat="45.95203" lon="4.88033">
        <ele>281</ele>
        <time>2017-04-21T10:43:46Z</time>
      </trkpt>
      <trkpt lat="45.95208" lon="4.88026">
        <ele>281</ele>
        <time>2017-04-21T10:43:47Z</time>
      </trkpt>
      <trkpt lat="45.95213" lon="4.88019">
        <ele>281</ele>
        <time>2017-04-21T10:43:48Z</time>
      </trkpt>
      <trkpt lat="45.95218" lon="4.88012">
        <ele>281</ele>
        <time>2017-04-21T10:43:49Z</time>
      </trkpt>
      <trkpt lat="45.95222" lon="4.88006">
        <ele>281</ele>
        <time>2017-04-21T10:43:50Z</time>
      </trkpt>
      <trkpt lat="45.95226" lon="4.87999">
        <ele>281</ele>
        <time>2017-04-21T10:43:51Z</time>
      </trkpt>
      <trkpt lat="45.9523" lon="4.87993">
        <ele>281</ele>
        <time>2017-04-21T10:43:52Z</time>
      </trkpt>
      <trkpt lat="45.95234" lon="4.87987">
        <ele>281</ele>
        <time>2017-04-21T10:43:53Z</time>
      </trkpt>
      <trkpt lat="45.95238" lon="4.87982">
        <ele>281</ele>
        <time>2017-04-21T10:43:54Z</time>
      </trkpt>
      <trkpt lat="45.95242" lon="4.87976">
        <ele>282</ele>
        <time>2017-04-21T10:43:55Z</time>
      </trkpt>
      <trkpt lat="45.95245" lon="4.8797">
        <ele>282</ele>
        <time>2017-04-21T10:43:56Z</time>
      </trkpt>
      <trkpt lat="45.95249" lon="4.87964">
        <ele>282</ele>
        <time>2017-04-21T10:43:57Z</time>
      </trkpt>
      <trkpt lat="45.95252" lon="4.87958">
        <ele>280</ele>
        <time>2017-04-21T10:43:58Z</time>
      </trkpt>
      <trkpt lat="45.95256" lon="4.8795">
        <ele>280</ele>
        <time>2017-04-21T10:43:59Z</time>
      </trkpt>
      <trkpt lat="45.95258" lon="4.87942">
        <ele>280</ele>
        <time>2017-04-21T10:44:00Z</time>
      </trkpt>
      <trkpt lat="45.9526" lon="4.87934">
        <ele>281</ele>
        <time>2017-04-21T10:44:01Z</time>
      </trkpt>
      <trkpt lat="45.95261" lon="4.87925">
        <ele>281</ele>
        <time>2017-04-21T10:44:02Z</time>
      </trkpt>
      <trkpt lat="45.95262" lon="4.87916">
        <ele>282</ele>
        <time>2017-04-21T10:44:03Z</time>
      </trkpt>
      <trkpt lat="45.95262" lon="4.87906">
        <ele>281</ele>
        <time>2017-04-21T10:44:04Z</time>
      </trkpt>
      <trkpt lat="45.95261" lon="4.87896">
        <ele>281</ele>
        <time>2017-04-21T10:44:05Z</time>
      </trkpt>
      <trkpt lat="45.95259" lon="4.87888">
        <ele>281</ele>
        <time>2017-04-21T10:44:06Z</time>
      </trkpt>
      <trkpt lat="45.95257" lon="4.87879">
        <ele>281</ele>
        <time>2017-04-21T10:44:07Z</time>
      </trkpt>
      <trkpt lat="45.95255" lon="4.87871">
        <ele>281</ele>
        <time>2017-04-21T10:44:08Z</time>
      </trkpt>
      <trkpt lat="45.95253" lon="4.87864">
        <ele>281</ele>
        <time>2017-04-21T10:44:09Z</time>
      </trkpt>
      <trkpt lat="45.95251" lon="4.87856">
        <ele>281</ele>
        <time>2017-04-21T10:44:10Z</time>
      </trkpt>
      <trkpt lat="45.95249" lon="4.87849">
        <ele>283</ele>
        <time>2017-04-21T10:44:11Z</time>
      </trkpt>
      <trkpt lat="45.95247" lon="4.87841">
        <ele>283</ele>
        <time>2017-04-21T10:44:12Z</time>
      </trkpt>
      <trkpt lat="45.95246" lon="4.87833">
        <ele>282</ele>
        <time>2017-04-21T10:44:13Z</time>
      </trkpt>
      <trkpt lat="45.95245" lon="4.87824">
        <ele>282</ele>
        <time>2017-04-21T10:44:14Z</time>
      </trkpt>
      <trkpt lat="45.95244" lon="4.87815">
        <ele>282</ele>
        <time>2017-04-21T10:44:15Z</time>
      </trkpt>
      <trkpt lat="45.95242" lon="4.87807">
        <ele>282</ele>
        <time>2017-04-21T10:44:16Z</time>
      </trkpt>
      <trkpt lat="45.95241" lon="4.87798">
        <ele>282</ele>
        <time>2017-04-21T10:44:17Z</time>
      </trkpt>
      <trkpt lat="45.9524" lon="4.87789">
        <ele>282</ele>
        <time>2017-04-21T10:44:18Z</time>
      </trkpt>
      <trkpt lat="45.95238" lon="4.8778">
        <ele>282</ele>
        <time>2017-04-21T10:44:19Z</time>
      </trkpt>
      <trkpt lat="45.95236" lon="4.87771">
        <ele>282</ele>
        <time>2017-04-21T10:44:20Z</time>
      </trkpt>
      <trkpt lat="45.95235" lon="4.87762">
        <ele>281</ele>
        <time>2017-04-21T10:44:21Z</time>
      </trkpt>
      <trkpt lat="45.95233" lon="4.87754">
        <ele>281</ele>
        <time>2017-04-21T10:44:22Z</time>
      </trkpt>
      <trkpt lat="45.95231" lon="4.87745">
        <ele>280</ele>
        <time>2017-04-21T10:44:23Z</time>
      </trkpt>
      <trkpt lat="45.9523" lon="4.87737">
        <ele>280</ele>
        <time>2017-04-21T10:44:24Z</time>
      </trkpt>
      <trkpt lat="45.95228" lon="4.87729">
        <ele>280</ele>
        <time>2017-04-21T10:44:25Z</time>
      </trkpt>
      <trkpt lat="45.95226" lon="4.87721">
        <ele>280</ele>
        <time>2017-04-21T10:44:26Z</time>
      </trkpt>
      <trkpt lat="45.95224" lon="4.87713">
        <ele>279</ele>
        <time>2017-04-21T10:44:27Z</time>
      </trkpt>
      <trkpt lat="45.95221" lon="4.87706">
        <ele>279</ele>
        <time>2017-04-21T10:44:28Z</time>
      </trkpt>
      <trkpt lat="45.9522" lon="4.87697">
        <ele>279</ele>
        <time>2017-04-21T10:44:29Z</time>
      </trkpt>
      <trkpt lat="45.95219" lon="4.87688">
        <ele>279</ele>
        <time>2017-04-21T10:44:30Z</time>
      </trkpt>
      <trkpt lat="45.95217" lon="4.87678">
        <ele>279</ele>
        <time>2017-04-21T10:44:31Z</time>
      </trkpt>
      <trkpt lat="45.95216" lon="4.87668">
        <ele>279</ele>
        <time>2017-04-21T10:44:32Z</time>
      </trkpt>
      <trkpt lat="45.95215" lon="4.87659">
        <ele>277</ele>
        <time>2017-04-21T10:44:33Z</time>
      </trkpt>
      <trkpt lat="45.95213" lon="4.87649">
        <ele>276</ele>
        <time>2017-04-21T10:44:34Z</time>
      </trkpt>
      <trkpt lat="45.95213" lon="4.87639">
        <ele>276</ele>
        <time>2017-04-21T10:44:35Z</time>
      </trkpt>
      <trkpt lat="45.95213" lon="4.87628">
        <ele>276</ele>
        <time>2017-04-21T10:44:36Z</time>
      </trkpt>
      <trkpt lat="45.95212" lon="4.87617">
        <ele>276</ele>
        <time>2017-04-21T10:44:37Z</time>
      </trkpt>
      <trkpt lat="45.95211" lon="4.87605">
        <ele>276</ele>
        <time>2017-04-21T10:44:38Z</time>
      </trkpt>
      <trkpt lat="45.9521" lon="4.87594">
        <ele>276</ele>
        <time>2017-04-21T10:44:39Z</time>
      </trkpt>
      <trkpt lat="45.9521" lon="4.87582">
        <ele>274</ele>
        <time>2017-04-21T10:44:40Z</time>
      </trkpt>
      <trkpt lat="45.95209" lon="4.8757">
        <ele>274</ele>
        <time>2017-04-21T10:44:41Z</time>
      </trkpt>
      <trkpt lat="45.95208" lon="4.87557">
        <ele>274</ele>
        <time>2017-04-21T10:44:42Z</time>
      </trkpt>
      <trkpt lat="45.95207" lon="4.87545">
        <ele>274</ele>
        <time>2017-04-21T10:44:43Z</time>
      </trkpt>
      <trkpt lat="45.95205" lon="4.87534">
        <ele>274</ele>
        <time>2017-04-21T10:44:44Z</time>
      </trkpt>
      <trkpt lat="45.95203" lon="4.87523">
        <ele>274</ele>
        <time>2017-04-21T10:44:45Z</time>
      </trkpt>
      <trkpt lat="45.952" lon="4.87512">
        <ele>273</ele>
        <time>2017-04-21T10:44:46Z</time>
      </trkpt>
      <trkpt lat="45.95197" lon="4.87501">
        <ele>273</ele>
        <time>2017-04-21T10:44:47Z</time>
      </trkpt>
      <trkpt lat="45.95195" lon="4.87491">
        <ele>272</ele>
        <time>2017-04-21T10:44:48Z</time>
      </trkpt>
      <trkpt lat="45.95193" lon="4.8748">
        <ele>272</ele>
        <time>2017-04-21T10:44:49Z</time>
      </trkpt>
      <trkpt lat="45.95191" lon="4.8747">
        <ele>272</ele>
        <time>2017-04-21T10:44:50Z</time>
      </trkpt>
      <trkpt lat="45.95188" lon="4.87461">
        <ele>272</ele>
        <time>2017-04-21T10:44:51Z</time>
      </trkpt>
      <trkpt lat="45.95186" lon="4.87452">
        <ele>272</ele>
        <time>2017-04-21T10:44:52Z</time>
      </trkpt>
      <trkpt lat="45.95184" lon="4.87442">
        <ele>272</ele>
        <time>2017-04-21T10:44:53Z</time>
      </trkpt>
      <trkpt lat="45.95181" lon="4.87433">
        <ele>271</ele>
        <time>2017-04-21T10:44:54Z</time>
      </trkpt>
      <trkpt lat="45.9518" lon="4.87423">
        <ele>271</ele>
        <time>2017-04-21T10:44:55Z</time>
      </trkpt>
      <trkpt lat="45.95178" lon="4.87414">
        <ele>271</ele>
        <time>2017-04-21T10:44:56Z</time>
      </trkpt>
      <trkpt lat="45.95176" lon="4.87406">
        <ele>271</ele>
        <time>2017-04-21T10:44:57Z</time>
      </trkpt>
      <trkpt lat="45.95173" lon="4.87398">
        <ele>271</ele>
        <time>2017-04-21T10:44:58Z</time>
      </trkpt>
      <trkpt lat="45.95171" lon="4.87389">
        <ele>271</ele>
        <time>2017-04-21T10:44:59Z</time>
      </trkpt>
      <trkpt lat="45.9517" lon="4.8738">
        <ele>271</ele>
        <time>2017-04-21T10:45:00Z</time>
      </trkpt>
      <trkpt lat="45.95168" lon="4.87371">
        <ele>271</ele>
        <time>2017-04-21T10:45:01Z</time>
      </trkpt>
      <trkpt lat="45.95165" lon="4.87363">
        <ele>272</ele>
        <time>2017-04-21T10:45:02Z</time>
      </trkpt>
      <trkpt lat="45.95163" lon="4.87354">
        <ele>272</ele>
        <time>2017-04-21T10:45:03Z</time>
      </trkpt>
      <trkpt lat="45.95161" lon="4.87346">
        <ele>272</ele>
        <time>2017-04-21T10:45:04Z</time>
      </trkpt>
      <trkpt lat="45.95159" lon="4.87337">
        <ele>272</ele>
        <time>2017-04-21T10:45:05Z</time>
      </trkpt>
      <trkpt lat="45.95157" lon="4.87329">
        <ele>272</ele>
        <time>2017-04-21T10:45:06Z</time>
      </trkpt>
      <trkpt lat="45.95155" lon="4.87321">
        <ele>273</ele>
        <time>2017-04-21T10:45:07Z</time>
      </trkpt>
      <trkpt lat="45.95153" lon="4.87312">
        <ele>273</ele>
        <time>2017-04-21T10:45:08Z</time>
      </trkpt>
      <trkpt lat="45.95151" lon="4.87304">
        <ele>274</ele>
        <time>2017-04-21T10:45:09Z</time>
      </trkpt>
      <trkpt lat="45.95149" lon="4.87296">
        <ele>274</ele>
        <time>2017-04-21T10:45:10Z</time>
      </trkpt>
      <trkpt lat="45.95147" lon="4.87288">
        <ele>274</ele>
        <time>2017-04-21T10:45:11Z</time>
      </trkpt>
      <trkpt lat="45.95145" lon="4.87281">
        <ele>274</ele>
        <time>2017-04-21T10:45:12Z</time>
      </trkpt>
      <trkpt lat="45.95143" lon="4.87273">
        <ele>274</ele>
        <time>2017-04-21T10:45:13Z</time>
      </trkpt>
      <trkpt lat="45.95141" lon="4.87266">
        <ele>274</ele>
        <time>2017-04-21T10:45:14Z</time>
      </trkpt>
      <trkpt lat="45.95139" lon="4.87259">
        <ele>274</ele>
        <time>2017-04-21T10:45:15Z</time>
      </trkpt>
      <trkpt lat="45.95137" lon="4.87251">
        <ele>275</ele>
        <time>2017-04-21T10:45:16Z</time>
      </trkpt>
      <trkpt lat="45.95136" lon="4.87244">
        <ele>276</ele>
        <time>2017-04-21T10:45:17Z</time>
      </trkpt>
      <trkpt lat="45.95134" lon="4.87236">
        <ele>276</ele>
        <time>2017-04-21T10:45:18Z</time>
      </trkpt>
      <trkpt lat="45.95133" lon="4.87229">
        <ele>276</ele>
        <time>2017-04-21T10:45:19Z</time>
      </trkpt>
      <trkpt lat="45.95131" lon="4.87222">
        <ele>276</ele>
        <time>2017-04-21T10:45:20Z</time>
      </trkpt>
      <trkpt lat="45.9513" lon="4.87214">
        <ele>276</ele>
        <time>2017-04-21T10:45:21Z</time>
      </trkpt>
      <trkpt lat="45.95128" lon="4.87207">
        <ele>276</ele>
        <time>2017-04-21T10:45:22Z</time>
      </trkpt>
      <trkpt lat="45.95126" lon="4.872">
        <ele>276</ele>
        <time>2017-04-21T10:45:23Z</time>
      </trkpt>
      <trkpt lat="45.95125" lon="4.87193">
        <ele>276</ele>
        <time>2017-04-21T10:45:24Z</time>
      </trkpt>
      <trkpt lat="45.95124" lon="4.87186">
        <ele>276</ele>
        <time>2017-04-21T10:45:25Z</time>
      </trkpt>
      <trkpt lat="45.95122" lon="4.87179">
        <ele>276</ele>
        <time>2017-04-21T10:45:26Z</time>
      </trkpt>
      <trkpt lat="45.9512" lon="4.87172">
        <ele>277</ele>
        <time>2017-04-21T10:45:27Z</time>
      </trkpt>
      <trkpt lat="45.95118" lon="4.87164">
        <ele>277</ele>
        <time>2017-04-21T10:45:28Z</time>
      </trkpt>
      <trkpt lat="45.95117" lon="4.87156">
        <ele>277</ele>
        <time>2017-04-21T10:45:29Z</time>
      </trkpt>
      <trkpt lat="45.95115" lon="4.87148">
        <ele>277</ele>
        <time>2017-04-21T10:45:30Z</time>
      </trkpt>
      <trkpt lat="45.95113" lon="4.8714">
        <ele>277</ele>
        <time>2017-04-21T10:45:31Z</time>
      </trkpt>
      <trkpt lat="45.95111" lon="4.87132">
        <ele>277</ele>
        <time>2017-04-21T10:45:32Z</time>
      </trkpt>
      <trkpt lat="45.95109" lon="4.87124">
        <ele>277</ele>
        <time>2017-04-21T10:45:33Z</time>
      </trkpt>
      <trkpt lat="45.95107" lon="4.87117">
        <ele>277</ele>
        <time>2017-04-21T10:45:34Z</time>
      </trkpt>
      <trkpt lat="45.95105" lon="4.8711">
        <ele>277</ele>
        <time>2017-04-21T10:45:35Z</time>
      </trkpt>
      <trkpt lat="45.95104" lon="4.87103">
        <ele>277</ele>
        <time>2017-04-21T10:45:36Z</time>
      </trkpt>
      <trkpt lat="45.95102" lon="4.87096">
        <ele>277</ele>
        <time>2017-04-21T10:45:37Z</time>
      </trkpt>
      <trkpt lat="45.95101" lon="4.87089">
        <ele>277</ele>
        <time>2017-04-21T10:45:38Z</time>
      </trkpt>
      <trkpt lat="45.95099" lon="4.87083">
        <ele>277</ele>
        <time>2017-04-21T10:45:39Z</time>
      </trkpt>
      <trkpt lat="45.95097" lon="4.87076">
        <ele>277</ele>
        <time>2017-04-21T10:45:40Z</time>
      </trkpt>
      <trkpt lat="45.95095" lon="4.8707">
        <ele>277</ele>
        <time>2017-04-21T10:45:41Z</time>
      </trkpt>
      <trkpt lat="45.95093" lon="4.87064">
        <ele>277</ele>
        <time>2017-04-21T10:45:42Z</time>
      </trkpt>
      <trkpt lat="45.9509" lon="4.87058">
        <ele>277</ele>
        <time>2017-04-21T10:45:43Z</time>
      </trkpt>
      <trkpt lat="45.95087" lon="4.87053">
        <ele>277</ele>
        <time>2017-04-21T10:45:44Z</time>
      </trkpt>
      <trkpt lat="45.95085" lon="4.87047">
        <ele>277</ele>
        <time>2017-04-21T10:45:45Z</time>
      </trkpt>
      <trkpt lat="45.95082" lon="4.87042">
        <ele>277</ele>
        <time>2017-04-21T10:45:46Z</time>
      </trkpt>
      <trkpt lat="45.95079" lon="4.87037">
        <ele>277</ele>
        <time>2017-04-21T10:45:47Z</time>
      </trkpt>
      <trkpt lat="45.95076" lon="4.87031">
        <ele>277</ele>
        <time>2017-04-21T10:45:48Z</time>
      </trkpt>
      <trkpt lat="45.95073" lon="4.87025">
        <ele>277</ele>
        <time>2017-04-21T10:45:49Z</time>
      </trkpt>
      <trkpt lat="45.95069" lon="4.87019">
        <ele>277</ele>
        <time>2017-04-21T10:45:50Z</time>
      </trkpt>
      <trkpt lat="45.95066" lon="4.87013">
        <ele>277</ele>
        <time>2017-04-21T10:45:51Z</time>
      </trkpt>
      <trkpt lat="45.95062" lon="4.87007">
        <ele>277</ele>
        <time>2017-04-21T10:45:52Z</time>
      </trkpt>
      <trkpt lat="45.95059" lon="4.87">
        <ele>276</ele>
        <time>2017-04-21T10:45:53Z</time>
      </trkpt>
      <trkpt lat="45.95056" lon="4.86993">
        <ele>276</ele>
        <time>2017-04-21T10:45:54Z</time>
      </trkpt>
      <trkpt lat="45.95053" lon="4.86987">
        <ele>276</ele>
        <time>2017-04-21T10:45:55Z</time>
      </trkpt>
      <trkpt lat="45.9505" lon="4.8698">
        <ele>276</ele>
        <time>2017-04-21T10:45:56Z</time>
      </trkpt>
      <trkpt lat="45.95048" lon="4.86973">
        <ele>276</ele>
        <time>2017-04-21T10:45:57Z</time>
      </trkpt>
      <trkpt lat="45.95046" lon="4.86966">
        <ele>276</ele>
        <time>2017-04-21T10:45:58Z</time>
      </trkpt>
      <trkpt lat="45.95044" lon="4.86959">
        <ele>276</ele>
        <time>2017-04-21T10:45:59Z</time>
      </trkpt>
      <trkpt lat="45.95042" lon="4.86952">
        <ele>276</ele>
        <time>2017-04-21T10:46:00Z</time>
      </trkpt>
      <trkpt lat="45.95039" lon="4.86945">
        <ele>276</ele>
        <time>2017-04-21T10:46:01Z</time>
      </trkpt>
      <trkpt lat="45.95037" lon="4.86938">
        <ele>276</ele>
        <time>2017-04-21T10:46:02Z</time>
      </trkpt>
      <trkpt lat="45.95035" lon="4.8693">
        <ele>276</ele>
        <time>2017-04-21T10:46:03Z</time>
      </trkpt>
      <trkpt lat="45.95032" lon="4.86922">
        <ele>276</ele>
        <time>2017-04-21T10:46:04Z</time>
      </trkpt>
      <trkpt lat="45.95029" lon="4.86914">
        <ele>275</ele>
        <time>2017-04-21T10:46:05Z</time>
      </trkpt>
      <trkpt lat="45.95027" lon="4.86906">
        <ele>275</ele>
        <time>2017-04-21T10:46:06Z</time>
      </trkpt>
      <trkpt lat="45.95025" lon="4.86898">
        <ele>275</ele>
        <time>2017-04-21T10:46:07Z</time>
      </trkpt>
      <trkpt lat="45.95022" lon="4.86889">
        <ele>275</ele>
        <time>2017-04-21T10:46:08Z</time>
      </trkpt>
      <trkpt lat="45.95019" lon="4.86881">
        <ele>275</ele>
        <time>2017-04-21T10:46:09Z</time>
      </trkpt>
      <trkpt lat="45.95017" lon="4.86873">
        <ele>275</ele>
        <time>2017-04-21T10:46:10Z</time>
      </trkpt>
      <trkpt lat="45.95014" lon="4.86865">
        <ele>275</ele>
        <time>2017-04-21T10:46:11Z</time>
      </trkpt>
      <trkpt lat="45.95012" lon="4.86858">
        <ele>275</ele>
        <time>2017-04-21T10:46:12Z</time>
      </trkpt>
      <trkpt lat="45.9501" lon="4.86852">
        <ele>275</ele>
        <time>2017-04-21T10:46:13Z</time>
      </trkpt>
      <trkpt lat="45.95007" lon="4.86845">
        <ele>276</ele>
        <time>2017-04-21T10:46:14Z</time>
      </trkpt>
      <trkpt lat="45.95005" lon="4.86839">
        <ele>276</ele>
        <time>2017-04-21T10:46:15Z</time>
      </trkpt>
      <trkpt lat="45.95002" lon="4.86833">
        <ele>276</ele>
        <time>2017-04-21T10:46:16Z</time>
      </trkpt>
      <trkpt lat="45.94999" lon="4.86826">
        <ele>276</ele>
        <time>2017-04-21T10:46:17Z</time>
      </trkpt>
      <trkpt lat="45.94996" lon="4.86819">
        <ele>276</ele>
        <time>2017-04-21T10:46:18Z</time>
      </trkpt>
      <trkpt lat="45.94993" lon="4.86812">
        <ele>276</ele>
        <time>2017-04-21T10:46:19Z</time>
      </trkpt>
      <trkpt lat="45.9499" lon="4.86805">
        <ele>276</ele>
        <time>2017-04-21T10:46:20Z</time>
      </trkpt>
      <trkpt lat="45.94987" lon="4.86799">
        <ele>276</ele>
        <time>2017-04-21T10:46:21Z</time>
      </trkpt>
      <trkpt lat="45.94983" lon="4.86792">
        <ele>276</ele>
        <time>2017-04-21T10:46:22Z</time>
      </trkpt>
      <trkpt lat="45.9498" lon="4.86785">
        <ele>275</ele>
        <time>2017-04-21T10:46:23Z</time>
      </trkpt>
      <trkpt lat="45.94976" lon="4.86779">
        <ele>275</ele>
        <time>2017-04-21T10:46:24Z</time>
      </trkpt>
      <trkpt lat="45.94972" lon="4.86772">
        <ele>275</ele>
        <time>2017-04-21T10:46:25Z</time>
      </trkpt>
      <trkpt lat="45.94968" lon="4.86765">
        <ele>275</ele>
        <time>2017-04-21T10:46:26Z</time>
      </trkpt>
      <trkpt lat="45.94964" lon="4.86758">
        <ele>275</ele>
        <time>2017-04-21T10:46:27Z</time>
      </trkpt>
      <trkpt lat="45.9496" lon="4.86751">
        <ele>275</ele>
        <time>2017-04-21T10:46:28Z</time>
      </trkpt>
      <trkpt lat="45.94957" lon="4.86743">
        <ele>275</ele>
        <time>2017-04-21T10:46:29Z</time>
      </trkpt>
      <trkpt lat="45.94954" lon="4.86736">
        <ele>275</ele>
        <time>2017-04-21T10:46:30Z</time>
      </trkpt>
      <trkpt lat="45.94952" lon="4.86729">
        <ele>275</ele>
        <time>2017-04-21T10:46:31Z</time>
      </trkpt>
      <trkpt lat="45.94949" lon="4.86721">
        <ele>275</ele>
        <time>2017-04-21T10:46:32Z</time>
      </trkpt>
      <trkpt lat="45.94947" lon="4.86714">
        <ele>275</ele>
        <time>2017-04-21T10:46:33Z</time>
      </trkpt>
      <trkpt lat="45.94945" lon="4.86706">
        <ele>275</ele>
        <time>2017-04-21T10:46:34Z</time>
      </trkpt>
      <trkpt lat="45.94944" lon="4.86699">
        <ele>276</ele>
        <time>2017-04-21T10:46:35Z</time>
      </trkpt>
      <trkpt lat="45.94943" lon="4.86692">
        <ele>276</ele>
        <time>2017-04-21T10:46:36Z</time>
      </trkpt>
      <trkpt lat="45.94942" lon="4.86685">
        <ele>276</ele>
        <time>2017-04-21T10:46:37Z</time>
      </trkpt>
      <trkpt lat="45.94941" lon="4.86678">
        <ele>276</ele>
        <time>2017-04-21T10:46:38Z</time>
      </trkpt>
      <trkpt lat="45.94941" lon="4.86671">
        <ele>276</ele>
        <time>2017-04-21T10:46:39Z</time>
      </trkpt>
      <trkpt lat="45.94942" lon="4.86663">
        <ele>276</ele>
        <time>2017-04-21T10:46:40Z</time>
      </trkpt>
      <trkpt lat="45.94944" lon="4.86655">
        <ele>276</ele>
        <time>2017-04-21T10:46:41Z</time>
      </trkpt>
      <trkpt lat="45.94946" lon="4.86648">
        <ele>276</ele>
        <time>2017-04-21T10:46:42Z</time>
      </trkpt>
      <trkpt lat="45.94949" lon="4.86641">
        <ele>276</ele>
        <time>2017-04-21T10:46:43Z</time>
      </trkpt>
      <trkpt lat="45.94953" lon="4.86635">
        <ele>276</ele>
        <time>2017-04-21T10:46:44Z</time>
      </trkpt>
      <trkpt lat="45.94958" lon="4.86629">
        <ele>276</ele>
        <time>2017-04-21T10:46:45Z</time>
      </trkpt>
      <trkpt lat="45.94963" lon="4.86625">
        <ele>275</ele>
        <time>2017-04-21T10:46:46Z</time>
      </trkpt>
      <trkpt lat="45.94968" lon="4.86621">
        <ele>275</ele>
        <time>2017-04-21T10:46:47Z</time>
      </trkpt>
      <trkpt lat="45.94974" lon="4.86619">
        <ele>275</ele>
        <time>2017-04-21T10:46:48Z</time>
      </trkpt>
      <trkpt lat="45.9498" lon="4.86618">
        <ele>275</ele>
        <time>2017-04-21T10:46:49Z</time>
      </trkpt>
      <trkpt lat="45.94985" lon="4.86618">
        <ele>275</ele>
        <time>2017-04-21T10:46:50Z</time>
      </trkpt>
      <trkpt lat="45.94991" lon="4.86618">
        <ele>275</ele>
        <time>2017-04-21T10:46:51Z</time>
      </trkpt>
      <trkpt lat="45.94997" lon="4.86616">
        <ele>275</ele>
        <time>2017-04-21T10:46:52Z</time>
      </trkpt>
      <trkpt lat="45.95002" lon="4.86614">
        <ele>273</ele>
        <time>2017-04-21T10:46:53Z</time>
      </trkpt>
      <trkpt lat="45.95008" lon="4.86611">
        <ele>273</ele>
        <time>2017-04-21T10:46:55Z</time>
      </trkpt>
      <trkpt lat="45.9501" lon="4.8661">
        <ele>273</ele>
        <time>2017-04-21T10:46:56Z</time>
      </trkpt>
      <trkpt lat="45.95013" lon="4.86611">
        <ele>273</ele>
        <time>2017-04-21T10:47:04Z</time>
      </trkpt>
      <trkpt lat="45.95015" lon="4.86611">
        <ele>273</ele>
        <time>2017-04-21T10:47:05Z</time>
      </trkpt>
      <trkpt lat="45.95023" lon="4.86609">
        <ele>273</ele>
        <time>2017-04-21T10:47:08Z</time>
      </trkpt>
      <trkpt lat="45.95027" lon="4.86609">
        <ele>273</ele>
        <time>2017-04-21T10:47:09Z</time>
      </trkpt>
      <trkpt lat="45.95031" lon="4.86608">
        <ele>273</ele>
        <time>2017-04-21T10:47:10Z</time>
      </trkpt>
      <trkpt lat="45.95036" lon="4.86607">
        <ele>273</ele>
        <time>2017-04-21T10:47:11Z</time>
      </trkpt>
      <trkpt lat="45.95041" lon="4.86606">
        <ele>273</ele>
        <time>2017-04-21T10:47:12Z</time>
      </trkpt>
      <trkpt lat="45.95047" lon="4.86604">
        <ele>272</ele>
        <time>2017-04-21T10:47:13Z</time>
      </trkpt>
      <trkpt lat="45.95053" lon="4.86602">
        <ele>272</ele>
        <time>2017-04-21T10:47:14Z</time>
      </trkpt>
      <trkpt lat="45.95059" lon="4.866">
        <ele>272</ele>
        <time>2017-04-21T10:47:15Z</time>
      </trkpt>
      <trkpt lat="45.95065" lon="4.86598">
        <ele>272</ele>
        <time>2017-04-21T10:47:16Z</time>
      </trkpt>
      <trkpt lat="45.95071" lon="4.86596">
        <ele>272</ele>
        <time>2017-04-21T10:47:17Z</time>
      </trkpt>
      <trkpt lat="45.95077" lon="4.86594">
        <ele>272</ele>
        <time>2017-04-21T10:47:18Z</time>
      </trkpt>
      <trkpt lat="45.95084" lon="4.86593">
        <ele>271</ele>
        <time>2017-04-21T10:47:19Z</time>
      </trkpt>
      <trkpt lat="45.95091" lon="4.86592">
        <ele>271</ele>
        <time>2017-04-21T10:47:20Z</time>
      </trkpt>
      <trkpt lat="45.95098" lon="4.86591">
        <ele>271</ele>
        <time>2017-04-21T10:47:21Z</time>
      </trkpt>
      <trkpt lat="45.95105" lon="4.8659">
        <ele>271</ele>
        <time>2017-04-21T10:47:22Z</time>
      </trkpt>
      <trkpt lat="45.95111" lon="4.86589">
        <ele>271</ele>
        <time>2017-04-21T10:47:23Z</time>
      </trkpt>
      <trkpt lat="45.95118" lon="4.86587">
        <ele>270</ele>
        <time>2017-04-21T10:47:24Z</time>
      </trkpt>
      <trkpt lat="45.95125" lon="4.86586">
        <ele>270</ele>
        <time>2017-04-21T10:47:25Z</time>
      </trkpt>
      <trkpt lat="45.95131" lon="4.86585">
        <ele>270</ele>
        <time>2017-04-21T10:47:26Z</time>
      </trkpt>
      <trkpt lat="45.95138" lon="4.86584">
        <ele>270</ele>
        <time>2017-04-21T10:47:27Z</time>
      </trkpt>
      <trkpt lat="45.95145" lon="4.86583">
        <ele>270</ele>
        <time>2017-04-21T10:47:28Z</time>
      </trkpt>
      <trkpt lat="45.95152" lon="4.86583">
        <ele>269</ele>
        <time>2017-04-21T10:47:29Z</time>
      </trkpt>
      <trkpt lat="45.95159" lon="4.86582">
        <ele>269</ele>
        <time>2017-04-21T10:47:30Z</time>
      </trkpt>
      <trkpt lat="45.95166" lon="4.86581">
        <ele>269</ele>
        <time>2017-04-21T10:47:31Z</time>
      </trkpt>
      <trkpt lat="45.95173" lon="4.8658">
        <ele>269</ele>
        <time>2017-04-21T10:47:32Z</time>
      </trkpt>
      <trkpt lat="45.9518" lon="4.8658">
        <ele>269</ele>
        <time>2017-04-21T10:47:33Z</time>
      </trkpt>
      <trkpt lat="45.95187" lon="4.86579">
        <ele>269</ele>
        <time>2017-04-21T10:47:34Z</time>
      </trkpt>
      <trkpt lat="45.95195" lon="4.86579">
        <ele>268</ele>
        <time>2017-04-21T10:47:35Z</time>
      </trkpt>
      <trkpt lat="45.95202" lon="4.86579">
        <ele>268</ele>
        <time>2017-04-21T10:47:36Z</time>
      </trkpt>
      <trkpt lat="45.9521" lon="4.86579">
        <ele>268</ele>
        <time>2017-04-21T10:47:37Z</time>
      </trkpt>
      <trkpt lat="45.95218" lon="4.86581">
        <ele>268</ele>
        <time>2017-04-21T10:47:38Z</time>
      </trkpt>
      <trkpt lat="45.95225" lon="4.86582">
        <ele>268</ele>
        <time>2017-04-21T10:47:39Z</time>
      </trkpt>
      <trkpt lat="45.95233" lon="4.86583">
        <ele>268</ele>
        <time>2017-04-21T10:47:40Z</time>
      </trkpt>
      <trkpt lat="45.9524" lon="4.86584">
        <ele>268</ele>
        <time>2017-04-21T10:47:41Z</time>
      </trkpt>
      <trkpt lat="45.95247" lon="4.86585">
        <ele>268</ele>
        <time>2017-04-21T10:47:42Z</time>
      </trkpt>
      <trkpt lat="45.95252" lon="4.86585">
        <ele>268</ele>
        <time>2017-04-21T10:47:43Z</time>
      </trkpt>
      <trkpt lat="45.9526" lon="4.86581">
        <ele>268</ele>
        <time>2017-04-21T10:47:45Z</time>
      </trkpt>
      <trkpt lat="45.95262" lon="4.86578">
        <ele>267</ele>
        <time>2017-04-21T10:47:46Z</time>
      </trkpt>
      <trkpt lat="45.95263" lon="4.86568">
        <ele>267</ele>
        <time>2017-04-21T10:47:48Z</time>
      </trkpt>
      <trkpt lat="45.95261" lon="4.86563">
        <ele>267</ele>
        <time>2017-04-21T10:47:49Z</time>
      </trkpt>
      <trkpt lat="45.95258" lon="4.86558">
        <ele>267</ele>
        <time>2017-04-21T10:47:50Z</time>
      </trkpt>
      <trkpt lat="45.95255" lon="4.86553">
        <ele>267</ele>
        <time>2017-04-21T10:47:51Z</time>
      </trkpt>
      <trkpt lat="45.95251" lon="4.86548">
        <ele>267</ele>
        <time>2017-04-21T10:47:52Z</time>
      </trkpt>
      <trkpt lat="45.95247" lon="4.86544">
        <ele>268</ele>
        <time>2017-04-21T10:47:53Z</time>
      </trkpt>
      <trkpt lat="45.95242" lon="4.8654">
        <ele>268</ele>
        <time>2017-04-21T10:47:54Z</time>
      </trkpt>
      <trkpt lat="45.95238" lon="4.86536">
        <ele>268</ele>
        <time>2017-04-21T10:47:55Z</time>
      </trkpt>
      <trkpt lat="45.95234" lon="4.86531">
        <ele>268</ele>
        <time>2017-04-21T10:47:56Z</time>
      </trkpt>
      <trkpt lat="45.95229" lon="4.86527">
        <ele>268</ele>
        <time>2017-04-21T10:47:57Z</time>
      </trkpt>
      <trkpt lat="45.95225" lon="4.86522">
        <ele>268</ele>
        <time>2017-04-21T10:47:58Z</time>
      </trkpt>
      <trkpt lat="45.95221" lon="4.86517">
        <ele>268</ele>
        <time>2017-04-21T10:47:59Z</time>
      </trkpt>
      <trkpt lat="45.95215" lon="4.86508">
        <ele>268</ele>
        <time>2017-04-21T10:48:01Z</time>
      </trkpt>
      <trkpt lat="45.95212" lon="4.86504">
        <ele>268</ele>
        <time>2017-04-21T10:48:02Z</time>
      </trkpt>
      <trkpt lat="45.95208" lon="4.865">
        <ele>268</ele>
        <time>2017-04-21T10:48:03Z</time>
      </trkpt>
      <trkpt lat="45.95204" lon="4.86495">
        <ele>268</ele>
        <time>2017-04-21T10:48:04Z</time>
      </trkpt>
      <trkpt lat="45.95201" lon="4.86491">
        <ele>268</ele>
        <time>2017-04-21T10:48:05Z</time>
      </trkpt>
      <trkpt lat="45.95198" lon="4.86486">
        <ele>268</ele>
        <time>2017-04-21T10:48:06Z</time>
      </trkpt>
      <trkpt lat="45.95194" lon="4.86481">
        <ele>268</ele>
        <time>2017-04-21T10:48:07Z</time>
      </trkpt>
      <trkpt lat="45.9519" lon="4.86477">
        <ele>268</ele>
        <time>2017-04-21T10:48:08Z</time>
      </trkpt>
      <trkpt lat="45.95187" lon="4.86473">
        <ele>268</ele>
        <time>2017-04-21T10:48:09Z</time>
      </trkpt>
      <trkpt lat="45.95183" lon="4.86468">
        <ele>268</ele>
        <time>2017-04-21T10:48:10Z</time>
      </trkpt>
      <trkpt lat="45.9518" lon="4.86464">
        <ele>268</ele>
        <time>2017-04-21T10:48:11Z</time>
      </trkpt>
      <trkpt lat="45.95176" lon="4.86459">
        <ele>268</ele>
        <time>2017-04-21T10:48:12Z</time>
      </trkpt>
      <trkpt lat="45.95173" lon="4.86454">
        <ele>268</ele>
        <time>2017-04-21T10:48:13Z</time>
      </trkpt>
      <trkpt lat="45.9517" lon="4.8645">
        <ele>268</ele>
        <time>2017-04-21T10:48:14Z</time>
      </trkpt>
      <trkpt lat="45.95163" lon="4.86441">
        <ele>268</ele>
        <time>2017-04-21T10:48:16Z</time>
      </trkpt>
      <trkpt lat="45.9516" lon="4.86438">
        <ele>268</ele>
        <time>2017-04-21T10:48:17Z</time>
      </trkpt>
      <trkpt lat="45.95153" lon="4.8643">
        <ele>268</ele>
        <time>2017-04-21T10:48:19Z</time>
      </trkpt>
      <trkpt lat="45.95149" lon="4.86425">
        <ele>268</ele>
        <time>2017-04-21T10:48:20Z</time>
      </trkpt>
      <trkpt lat="45.95145" lon="4.8642">
        <ele>268</ele>
        <time>2017-04-21T10:48:21Z</time>
      </trkpt>
      <trkpt lat="45.95141" lon="4.86415">
        <ele>268</ele>
        <time>2017-04-21T10:48:22Z</time>
      </trkpt>
      <trkpt lat="45.95137" lon="4.86409">
        <ele>268</ele>
        <time>2017-04-21T10:48:23Z</time>
      </trkpt>
      <trkpt lat="45.95133" lon="4.86404">
        <ele>268</ele>
        <time>2017-04-21T10:48:24Z</time>
      </trkpt>
      <trkpt lat="45.95129" lon="4.86399">
        <ele>268</ele>
        <time>2017-04-21T10:48:25Z</time>
      </trkpt>
      <trkpt lat="45.95125" lon="4.86394">
        <ele>269</ele>
        <time>2017-04-21T10:48:26Z</time>
      </trkpt>
      <trkpt lat="45.95121" lon="4.86389">
        <ele>269</ele>
        <time>2017-04-21T10:48:27Z</time>
      </trkpt>
      <trkpt lat="45.95117" lon="4.86384">
        <ele>269</ele>
        <time>2017-04-21T10:48:28Z</time>
      </trkpt>
      <trkpt lat="45.95113" lon="4.86379">
        <ele>269</ele>
        <time>2017-04-21T10:48:29Z</time>
      </trkpt>
      <trkpt lat="45.95109" lon="4.86374">
        <ele>269</ele>
        <time>2017-04-21T10:48:30Z</time>
      </trkpt>
      <trkpt lat="45.95105" lon="4.86369">
        <ele>269</ele>
        <time>2017-04-21T10:48:31Z</time>
      </trkpt>
      <trkpt lat="45.95102" lon="4.86365">
        <ele>269</ele>
        <time>2017-04-21T10:48:32Z</time>
      </trkpt>
      <trkpt lat="45.95098" lon="4.8636">
        <ele>269</ele>
        <time>2017-04-21T10:48:33Z</time>
      </trkpt>
      <trkpt lat="45.95094" lon="4.86356">
        <ele>269</ele>
        <time>2017-04-21T10:48:34Z</time>
      </trkpt>
      <trkpt lat="45.95091" lon="4.86351">
        <ele>269</ele>
        <time>2017-04-21T10:48:35Z</time>
      </trkpt>
      <trkpt lat="45.95087" lon="4.86346">
        <ele>269</ele>
        <time>2017-04-21T10:48:36Z</time>
      </trkpt>
      <trkpt lat="45.95083" lon="4.86341">
        <ele>270</ele>
        <time>2017-04-21T10:48:37Z</time>
      </trkpt>
      <trkpt lat="45.9508" lon="4.86336">
        <ele>269</ele>
        <time>2017-04-21T10:48:38Z</time>
      </trkpt>
      <trkpt lat="45.95076" lon="4.86332">
        <ele>270</ele>
        <time>2017-04-21T10:48:39Z</time>
      </trkpt>
      <trkpt lat="45.95072" lon="4.86327">
        <ele>270</ele>
        <time>2017-04-21T10:48:40Z</time>
      </trkpt>
      <trkpt lat="45.95068" lon="4.86322">
        <ele>270</ele>
        <time>2017-04-21T10:48:41Z</time>
      </trkpt>
      <trkpt lat="45.95065" lon="4.86318">
        <ele>270</ele>
        <time>2017-04-21T10:48:42Z</time>
      </trkpt>
      <trkpt lat="45.9506" lon="4.86313">
        <ele>271</ele>
        <time>2017-04-21T10:48:43Z</time>
      </trkpt>
      <trkpt lat="45.95056" lon="4.86308">
        <ele>271</ele>
        <time>2017-04-21T10:48:44Z</time>
      </trkpt>
      <trkpt lat="45.95051" lon="4.86303">
        <ele>271</ele>
        <time>2017-04-21T10:48:45Z</time>
      </trkpt>
      <trkpt lat="45.95047" lon="4.86298">
        <ele>271</ele>
        <time>2017-04-21T10:48:46Z</time>
      </trkpt>
      <trkpt lat="45.95043" lon="4.86293">
        <ele>271</ele>
        <time>2017-04-21T10:48:47Z</time>
      </trkpt>
      <trkpt lat="45.95039" lon="4.86288">
        <ele>271</ele>
        <time>2017-04-21T10:48:48Z</time>
      </trkpt>
      <trkpt lat="45.95035" lon="4.86283">
        <ele>271</ele>
        <time>2017-04-21T10:48:49Z</time>
      </trkpt>
      <trkpt lat="45.95031" lon="4.86278">
        <ele>271</ele>
        <time>2017-04-21T10:48:50Z</time>
      </trkpt>
      <trkpt lat="45.95027" lon="4.86273">
        <ele>271</ele>
        <time>2017-04-21T10:48:51Z</time>
      </trkpt>
      <trkpt lat="45.95023" lon="4.86269">
        <ele>271</ele>
        <time>2017-04-21T10:48:52Z</time>
      </trkpt>
      <trkpt lat="45.95019" lon="4.86265">
        <ele>271</ele>
        <time>2017-04-21T10:48:53Z</time>
      </trkpt>
      <trkpt lat="45.95016" lon="4.8626">
        <ele>271</ele>
        <time>2017-04-21T10:48:54Z</time>
      </trkpt>
      <trkpt lat="45.95013" lon="4.86256">
        <ele>272</ele>
        <time>2017-04-21T10:48:55Z</time>
      </trkpt>
      <trkpt lat="45.95009" lon="4.86252">
        <ele>272</ele>
        <time>2017-04-21T10:48:56Z</time>
      </trkpt>
      <trkpt lat="45.95006" lon="4.86248">
        <ele>272</ele>
        <time>2017-04-21T10:48:57Z</time>
      </trkpt>
      <trkpt lat="45.95002" lon="4.86243">
        <ele>272</ele>
        <time>2017-04-21T10:48:58Z</time>
      </trkpt>
      <trkpt lat="45.94999" lon="4.86239">
        <ele>272</ele>
        <time>2017-04-21T10:48:59Z</time>
      </trkpt>
      <trkpt lat="45.94995" lon="4.86234">
        <ele>272</ele>
        <time>2017-04-21T10:49:00Z</time>
      </trkpt>
      <trkpt lat="45.94992" lon="4.8623">
        <ele>272</ele>
        <time>2017-04-21T10:49:01Z</time>
      </trkpt>
      <trkpt lat="45.94989" lon="4.86225">
        <ele>272</ele>
        <time>2017-04-21T10:49:02Z</time>
      </trkpt>
      <trkpt lat="45.94985" lon="4.86221">
        <ele>272</ele>
        <time>2017-04-21T10:49:03Z</time>
      </trkpt>
      <trkpt lat="45.94982" lon="4.86216">
        <ele>272</ele>
        <time>2017-04-21T10:49:04Z</time>
      </trkpt>
      <trkpt lat="45.94975" lon="4.86208">
        <ele>272</ele>
        <time>2017-04-21T10:49:06Z</time>
      </trkpt>
      <trkpt lat="45.94972" lon="4.86204">
        <ele>272</ele>
        <time>2017-04-21T10:49:07Z</time>
      </trkpt>
      <trkpt lat="45.94968" lon="4.86199">
        <ele>272</ele>
        <time>2017-04-21T10:49:08Z</time>
      </trkpt>
      <trkpt lat="45.94965" lon="4.86195">
        <ele>272</ele>
        <time>2017-04-21T10:49:09Z</time>
      </trkpt>
      <trkpt lat="45.94958" lon="4.86187">
        <ele>273</ele>
        <time>2017-04-21T10:49:11Z</time>
      </trkpt>
      <trkpt lat="45.94955" lon="4.86183">
        <ele>273</ele>
        <time>2017-04-21T10:49:12Z</time>
      </trkpt>
      <trkpt lat="45.94951" lon="4.86178">
        <ele>273</ele>
        <time>2017-04-21T10:49:13Z</time>
      </trkpt>
      <trkpt lat="45.94948" lon="4.86174">
        <ele>273</ele>
        <time>2017-04-21T10:49:14Z</time>
      </trkpt>
      <trkpt lat="45.94941" lon="4.86165">
        <ele>273</ele>
        <time>2017-04-21T10:49:16Z</time>
      </trkpt>
      <trkpt lat="45.94938" lon="4.86161">
        <ele>273</ele>
        <time>2017-04-21T10:49:17Z</time>
      </trkpt>
      <trkpt lat="45.94934" lon="4.86156">
        <ele>273</ele>
        <time>2017-04-21T10:49:18Z</time>
      </trkpt>
      <trkpt lat="45.94931" lon="4.86151">
        <ele>273</ele>
        <time>2017-04-21T10:49:19Z</time>
      </trkpt>
      <trkpt lat="45.94927" lon="4.86147">
        <ele>273</ele>
        <time>2017-04-21T10:49:20Z</time>
      </trkpt>
      <trkpt lat="45.94923" lon="4.86142">
        <ele>273</ele>
        <time>2017-04-21T10:49:21Z</time>
      </trkpt>
      <trkpt lat="45.9492" lon="4.86136">
        <ele>273</ele>
        <time>2017-04-21T10:49:22Z</time>
      </trkpt>
      <trkpt lat="45.94917" lon="4.86131">
        <ele>274</ele>
        <time>2017-04-21T10:49:23Z</time>
      </trkpt>
      <trkpt lat="45.94914" lon="4.86125">
        <ele>274</ele>
        <time>2017-04-21T10:49:24Z</time>
      </trkpt>
      <trkpt lat="45.94911" lon="4.8612">
        <ele>274</ele>
        <time>2017-04-21T10:49:25Z</time>
      </trkpt>
      <trkpt lat="45.94908" lon="4.86115">
        <ele>274</ele>
        <time>2017-04-21T10:49:26Z</time>
      </trkpt>
      <trkpt lat="45.94905" lon="4.86109">
        <ele>274</ele>
        <time>2017-04-21T10:49:27Z</time>
      </trkpt>
      <trkpt lat="45.94903" lon="4.86103">
        <ele>274</ele>
        <time>2017-04-21T10:49:28Z</time>
      </trkpt>
      <trkpt lat="45.94901" lon="4.86097">
        <ele>274</ele>
        <time>2017-04-21T10:49:29Z</time>
      </trkpt>
      <trkpt lat="45.94898" lon="4.8609">
        <ele>274</ele>
        <time>2017-04-21T10:49:30Z</time>
      </trkpt>
      <trkpt lat="45.94896" lon="4.86084">
        <ele>274</ele>
        <time>2017-04-21T10:49:31Z</time>
      </trkpt>
      <trkpt lat="45.94894" lon="4.86077">
        <ele>274</ele>
        <time>2017-04-21T10:49:32Z</time>
      </trkpt>
      <trkpt lat="45.94892" lon="4.86071">
        <ele>274</ele>
        <time>2017-04-21T10:49:33Z</time>
      </trkpt>
      <trkpt lat="45.9489" lon="4.86065">
        <ele>274</ele>
        <time>2017-04-21T10:49:34Z</time>
      </trkpt>
      <trkpt lat="45.94888" lon="4.86058">
        <ele>274</ele>
        <time>2017-04-21T10:49:35Z</time>
      </trkpt>
      <trkpt lat="45.94885" lon="4.86047">
        <ele>274</ele>
        <time>2017-04-21T10:49:37Z</time>
      </trkpt>
      <trkpt lat="45.94884" lon="4.86041">
        <ele>274</ele>
        <time>2017-04-21T10:49:38Z</time>
      </trkpt>
      <trkpt lat="45.94882" lon="4.86034">
        <ele>274</ele>
        <time>2017-04-21T10:49:39Z</time>
      </trkpt>
      <trkpt lat="45.94881" lon="4.86028">
        <ele>274</ele>
        <time>2017-04-21T10:49:40Z</time>
      </trkpt>
      <trkpt lat="45.94879" lon="4.86021">
        <ele>274</ele>
        <time>2017-04-21T10:49:41Z</time>
      </trkpt>
      <trkpt lat="45.94877" lon="4.86015">
        <ele>274</ele>
        <time>2017-04-21T10:49:42Z</time>
      </trkpt>
      <trkpt lat="45.94875" lon="4.86008">
        <ele>274</ele>
        <time>2017-04-21T10:49:43Z</time>
      </trkpt>
      <trkpt lat="45.94874" lon="4.86002">
        <ele>274</ele>
        <time>2017-04-21T10:49:44Z</time>
      </trkpt>
      <trkpt lat="45.94872" lon="4.85995">
        <ele>275</ele>
        <time>2017-04-21T10:49:45Z</time>
      </trkpt>
      <trkpt lat="45.9487" lon="4.85989">
        <ele>275</ele>
        <time>2017-04-21T10:49:46Z</time>
      </trkpt>
      <trkpt lat="45.94868" lon="4.85983">
        <ele>275</ele>
        <time>2017-04-21T10:49:47Z</time>
      </trkpt>
      <trkpt lat="45.94866" lon="4.85976">
        <ele>275</ele>
        <time>2017-04-21T10:49:48Z</time>
      </trkpt>
      <trkpt lat="45.94865" lon="4.85969">
        <ele>275</ele>
        <time>2017-04-21T10:49:49Z</time>
      </trkpt>
      <trkpt lat="45.94863" lon="4.85962">
        <ele>275</ele>
        <time>2017-04-21T10:49:50Z</time>
      </trkpt>
      <trkpt lat="45.94861" lon="4.85955">
        <ele>275</ele>
        <time>2017-04-21T10:49:51Z</time>
      </trkpt>
      <trkpt lat="45.94859" lon="4.85948">
        <ele>275</ele>
        <time>2017-04-21T10:49:52Z</time>
      </trkpt>
      <trkpt lat="45.94857" lon="4.85941">
        <ele>275</ele>
        <time>2017-04-21T10:49:53Z</time>
      </trkpt>
      <trkpt lat="45.94855" lon="4.85933">
        <ele>275</ele>
        <time>2017-04-21T10:49:54Z</time>
      </trkpt>
      <trkpt lat="45.94853" lon="4.85926">
        <ele>275</ele>
        <time>2017-04-21T10:49:55Z</time>
      </trkpt>
      <trkpt lat="45.94851" lon="4.85919">
        <ele>275</ele>
        <time>2017-04-21T10:49:56Z</time>
      </trkpt>
      <trkpt lat="45.9485" lon="4.85913">
        <ele>275</ele>
        <time>2017-04-21T10:49:57Z</time>
      </trkpt>
      <trkpt lat="45.94848" lon="4.85906">
        <ele>276</ele>
        <time>2017-04-21T10:49:58Z</time>
      </trkpt>
      <trkpt lat="45.94845" lon="4.85895">
        <ele>276</ele>
        <time>2017-04-21T10:50:00Z</time>
      </trkpt>
      <trkpt lat="45.94843" lon="4.85889">
        <ele>276</ele>
        <time>2017-04-21T10:50:01Z</time>
      </trkpt>
      <trkpt lat="45.94842" lon="4.85883">
        <ele>276</ele>
        <time>2017-04-21T10:50:02Z</time>
      </trkpt>
      <trkpt lat="45.9484" lon="4.85876">
        <ele>276</ele>
        <time>2017-04-21T10:50:03Z</time>
      </trkpt>
      <trkpt lat="45.94838" lon="4.8587">
        <ele>276</ele>
        <time>2017-04-21T10:50:04Z</time>
      </trkpt>
      <trkpt lat="45.94836" lon="4.85864">
        <ele>276</ele>
        <time>2017-04-21T10:50:05Z</time>
      </trkpt>
      <trkpt lat="45.94835" lon="4.85858">
        <ele>276</ele>
        <time>2017-04-21T10:50:06Z</time>
      </trkpt>
      <trkpt lat="45.94833" lon="4.85852">
        <ele>277</ele>
        <time>2017-04-21T10:50:07Z</time>
      </trkpt>
      <trkpt lat="45.94831" lon="4.85845">
        <ele>277</ele>
        <time>2017-04-21T10:50:08Z</time>
      </trkpt>
      <trkpt lat="45.94829" lon="4.85839">
        <ele>277</ele>
        <time>2017-04-21T10:50:09Z</time>
      </trkpt>
      <trkpt lat="45.94828" lon="4.85833">
        <ele>277</ele>
        <time>2017-04-21T10:50:10Z</time>
      </trkpt>
      <trkpt lat="45.94826" lon="4.85827">
        <ele>277</ele>
        <time>2017-04-21T10:50:11Z</time>
      </trkpt>
      <trkpt lat="45.94824" lon="4.85821">
        <ele>278</ele>
        <time>2017-04-21T10:50:12Z</time>
      </trkpt>
      <trkpt lat="45.94822" lon="4.85815">
        <ele>278</ele>
        <time>2017-04-21T10:50:13Z</time>
      </trkpt>
      <trkpt lat="45.9482" lon="4.85809">
        <ele>278</ele>
        <time>2017-04-21T10:50:14Z</time>
      </trkpt>
      <trkpt lat="45.94819" lon="4.85802">
        <ele>278</ele>
        <time>2017-04-21T10:50:15Z</time>
      </trkpt>
      <trkpt lat="45.94818" lon="4.85795">
        <ele>278</ele>
        <time>2017-04-21T10:50:16Z</time>
      </trkpt>
      <trkpt lat="45.94817" lon="4.85789">
        <ele>278</ele>
        <time>2017-04-21T10:50:17Z</time>
      </trkpt>
      <trkpt lat="45.94815" lon="4.85782">
        <ele>278</ele>
        <time>2017-04-21T10:50:18Z</time>
      </trkpt>
      <trkpt lat="45.94814" lon="4.85776">
        <ele>278</ele>
        <time>2017-04-21T10:50:19Z</time>
      </trkpt>
      <trkpt lat="45.94811" lon="4.85764">
        <ele>278</ele>
        <time>2017-04-21T10:50:21Z</time>
      </trkpt>
      <trkpt lat="45.9481" lon="4.85759">
        <ele>278</ele>
        <time>2017-04-21T10:50:22Z</time>
      </trkpt>
      <trkpt lat="45.94808" lon="4.85753">
        <ele>278</ele>
        <time>2017-04-21T10:50:23Z</time>
      </trkpt>
      <trkpt lat="45.94807" lon="4.85746">
        <ele>279</ele>
        <time>2017-04-21T10:50:24Z</time>
      </trkpt>
      <trkpt lat="45.94805" lon="4.8574">
        <ele>279</ele>
        <time>2017-04-21T10:50:25Z</time>
      </trkpt>
      <trkpt lat="45.94803" lon="4.85734">
        <ele>280</ele>
        <time>2017-04-21T10:50:26Z</time>
      </trkpt>
      <trkpt lat="45.94802" lon="4.85727">
        <ele>280</ele>
        <time>2017-04-21T10:50:27Z</time>
      </trkpt>
      <trkpt lat="45.948" lon="4.85721">
        <ele>280</ele>
        <time>2017-04-21T10:50:28Z</time>
      </trkpt>
      <trkpt lat="45.94798" lon="4.85714">
        <ele>280</ele>
        <time>2017-04-21T10:50:29Z</time>
      </trkpt>
      <trkpt lat="45.94796" lon="4.85708">
        <ele>280</ele>
        <time>2017-04-21T10:50:30Z</time>
      </trkpt>
      <trkpt lat="45.94794" lon="4.85701">
        <ele>280</ele>
        <time>2017-04-21T10:50:31Z</time>
      </trkpt>
      <trkpt lat="45.94792" lon="4.85694">
        <ele>280</ele>
        <time>2017-04-21T10:50:32Z</time>
      </trkpt>
      <trkpt lat="45.94791" lon="4.85687">
        <ele>280</ele>
        <time>2017-04-21T10:50:33Z</time>
      </trkpt>
      <trkpt lat="45.94789" lon="4.85681">
        <ele>280</ele>
        <time>2017-04-21T10:50:34Z</time>
      </trkpt>
      <trkpt lat="45.94787" lon="4.85675">
        <ele>280</ele>
        <time>2017-04-21T10:50:35Z</time>
      </trkpt>
      <trkpt lat="45.94785" lon="4.85668">
        <ele>280</ele>
        <time>2017-04-21T10:50:36Z</time>
      </trkpt>
      <trkpt lat="45.94784" lon="4.85662">
        <ele>281</ele>
        <time>2017-04-21T10:50:37Z</time>
      </trkpt>
      <trkpt lat="45.94782" lon="4.85655">
        <ele>281</ele>
        <time>2017-04-21T10:50:38Z</time>
      </trkpt>
      <trkpt lat="45.9478" lon="4.85649">
        <ele>281</ele>
        <time>2017-04-21T10:50:39Z</time>
      </trkpt>
      <trkpt lat="45.94778" lon="4.85643">
        <ele>281</ele>
        <time>2017-04-21T10:50:40Z</time>
      </trkpt>
      <trkpt lat="45.94777" lon="4.85636">
        <ele>281</ele>
        <time>2017-04-21T10:50:41Z</time>
      </trkpt>
      <trkpt lat="45.94775" lon="4.85629">
        <ele>280</ele>
        <time>2017-04-21T10:50:42Z</time>
      </trkpt>
      <trkpt lat="45.94774" lon="4.85622">
        <ele>280</ele>
        <time>2017-04-21T10:50:43Z</time>
      </trkpt>
      <trkpt lat="45.94772" lon="4.85615">
        <ele>280</ele>
        <time>2017-04-21T10:50:44Z</time>
      </trkpt>
      <trkpt lat="45.94771" lon="4.85608">
        <ele>280</ele>
        <time>2017-04-21T10:50:45Z</time>
      </trkpt>
      <trkpt lat="45.9477" lon="4.85601">
        <ele>280</ele>
        <time>2017-04-21T10:50:46Z</time>
      </trkpt>
      <trkpt lat="45.94768" lon="4.85593">
        <ele>280</ele>
        <time>2017-04-21T10:50:47Z</time>
      </trkpt>
      <trkpt lat="45.94767" lon="4.85585">
        <ele>280</ele>
        <time>2017-04-21T10:50:48Z</time>
      </trkpt>
      <trkpt lat="45.94765" lon="4.85577">
        <ele>279</ele>
        <time>2017-04-21T10:50:49Z</time>
      </trkpt>
      <trkpt lat="45.94763" lon="4.85568">
        <ele>279</ele>
        <time>2017-04-21T10:50:50Z</time>
      </trkpt>
      <trkpt lat="45.94762" lon="4.8556">
        <ele>278</ele>
        <time>2017-04-21T10:50:51Z</time>
      </trkpt>
      <trkpt lat="45.94761" lon="4.85551">
        <ele>278</ele>
        <time>2017-04-21T10:50:52Z</time>
      </trkpt>
      <trkpt lat="45.94759" lon="4.85541">
        <ele>278</ele>
        <time>2017-04-21T10:50:53Z</time>
      </trkpt>
      <trkpt lat="45.94758" lon="4.85531">
        <ele>278</ele>
        <time>2017-04-21T10:50:54Z</time>
      </trkpt>
      <trkpt lat="45.94756" lon="4.8552">
        <ele>277</ele>
        <time>2017-04-21T10:50:55Z</time>
      </trkpt>
      <trkpt lat="45.94755" lon="4.85509">
        <ele>277</ele>
        <time>2017-04-21T10:50:56Z</time>
      </trkpt>
      <trkpt lat="45.94753" lon="4.85499">
        <ele>276</ele>
        <time>2017-04-21T10:50:57Z</time>
      </trkpt>
      <trkpt lat="45.94751" lon="4.85488">
        <ele>276</ele>
        <time>2017-04-21T10:50:58Z</time>
      </trkpt>
      <trkpt lat="45.9475" lon="4.85477">
        <ele>275</ele>
        <time>2017-04-21T10:50:59Z</time>
      </trkpt>
      <trkpt lat="45.94748" lon="4.85466">
        <ele>274</ele>
        <time>2017-04-21T10:51:00Z</time>
      </trkpt>
      <trkpt lat="45.94747" lon="4.85455">
        <ele>274</ele>
        <time>2017-04-21T10:51:01Z</time>
      </trkpt>
      <trkpt lat="45.94746" lon="4.85444">
        <ele>274</ele>
        <time>2017-04-21T10:51:02Z</time>
      </trkpt>
      <trkpt lat="45.94744" lon="4.85433">
        <ele>273</ele>
        <time>2017-04-21T10:51:03Z</time>
      </trkpt>
      <trkpt lat="45.94743" lon="4.85422">
        <ele>273</ele>
        <time>2017-04-21T10:51:04Z</time>
      </trkpt>
      <trkpt lat="45.94741" lon="4.85411">
        <ele>272</ele>
        <time>2017-04-21T10:51:05Z</time>
      </trkpt>
      <trkpt lat="45.9474" lon="4.854">
        <ele>272</ele>
        <time>2017-04-21T10:51:06Z</time>
      </trkpt>
      <trkpt lat="45.94739" lon="4.8539">
        <ele>272</ele>
        <time>2017-04-21T10:51:07Z</time>
      </trkpt>
      <trkpt lat="45.94738" lon="4.85379">
        <ele>271</ele>
        <time>2017-04-21T10:51:08Z</time>
      </trkpt>
      <trkpt lat="45.94737" lon="4.8537">
        <ele>271</ele>
        <time>2017-04-21T10:51:09Z</time>
      </trkpt>
      <trkpt lat="45.94736" lon="4.8536">
        <ele>271</ele>
        <time>2017-04-21T10:51:10Z</time>
      </trkpt>
      <trkpt lat="45.94734" lon="4.8535">
        <ele>271</ele>
        <time>2017-04-21T10:51:11Z</time>
      </trkpt>
      <trkpt lat="45.94733" lon="4.85341">
        <ele>271</ele>
        <time>2017-04-21T10:51:12Z</time>
      </trkpt>
      <trkpt lat="45.94733" lon="4.85332">
        <ele>270</ele>
        <time>2017-04-21T10:51:13Z</time>
      </trkpt>
      <trkpt lat="45.94732" lon="4.85323">
        <ele>270</ele>
        <time>2017-04-21T10:51:14Z</time>
      </trkpt>
      <trkpt lat="45.94731" lon="4.85315">
        <ele>270</ele>
        <time>2017-04-21T10:51:15Z</time>
      </trkpt>
      <trkpt lat="45.94729" lon="4.85306">
        <ele>270</ele>
        <time>2017-04-21T10:51:16Z</time>
      </trkpt>
      <trkpt lat="45.94729" lon="4.85297">
        <ele>270</ele>
        <time>2017-04-21T10:51:17Z</time>
      </trkpt>
      <trkpt lat="45.94728" lon="4.85287">
        <ele>269</ele>
        <time>2017-04-21T10:51:18Z</time>
      </trkpt>
      <trkpt lat="45.94727" lon="4.85278">
        <ele>269</ele>
        <time>2017-04-21T10:51:19Z</time>
      </trkpt>
      <trkpt lat="45.94726" lon="4.85268">
        <ele>269</ele>
        <time>2017-04-21T10:51:20Z</time>
      </trkpt>
      <trkpt lat="45.94726" lon="4.85257">
        <ele>269</ele>
        <time>2017-04-21T10:51:21Z</time>
      </trkpt>
      <trkpt lat="45.94725" lon="4.85247">
        <ele>269</ele>
        <time>2017-04-21T10:51:22Z</time>
      </trkpt>
      <trkpt lat="45.94723" lon="4.85237">
        <ele>269</ele>
        <time>2017-04-21T10:51:23Z</time>
      </trkpt>
      <trkpt lat="45.94722" lon="4.85227">
        <ele>269</ele>
        <time>2017-04-21T10:51:24Z</time>
      </trkpt>
      <trkpt lat="45.94721" lon="4.85218">
        <ele>269</ele>
        <time>2017-04-21T10:51:25Z</time>
      </trkpt>
      <trkpt lat="45.9472" lon="4.85209">
        <ele>269</ele>
        <time>2017-04-21T10:51:26Z</time>
      </trkpt>
      <trkpt lat="45.94719" lon="4.852">
        <ele>269</ele>
        <time>2017-04-21T10:51:27Z</time>
      </trkpt>
      <trkpt lat="45.94718" lon="4.85191">
        <ele>269</ele>
        <time>2017-04-21T10:51:28Z</time>
      </trkpt>
      <trkpt lat="45.94717" lon="4.85182">
        <ele>269</ele>
        <time>2017-04-21T10:51:29Z</time>
      </trkpt>
      <trkpt lat="45.94716" lon="4.85174">
        <ele>269</ele>
        <time>2017-04-21T10:51:30Z</time>
      </trkpt>
      <trkpt lat="45.94715" lon="4.85166">
        <ele>269</ele>
        <time>2017-04-21T10:51:31Z</time>
      </trkpt>
      <trkpt lat="45.94714" lon="4.85158">
        <ele>269</ele>
        <time>2017-04-21T10:51:32Z</time>
      </trkpt>
      <trkpt lat="45.94713" lon="4.8515">
        <ele>269</ele>
        <time>2017-04-21T10:51:33Z</time>
      </trkpt>
      <trkpt lat="45.94712" lon="4.85142">
        <ele>269</ele>
        <time>2017-04-21T10:51:34Z</time>
      </trkpt>
      <trkpt lat="45.94711" lon="4.85133">
        <ele>269</ele>
        <time>2017-04-21T10:51:35Z</time>
      </trkpt>
      <trkpt lat="45.9471" lon="4.85125">
        <ele>269</ele>
        <time>2017-04-21T10:51:36Z</time>
      </trkpt>
      <trkpt lat="45.94709" lon="4.85116">
        <ele>269</ele>
        <time>2017-04-21T10:51:37Z</time>
      </trkpt>
      <trkpt lat="45.94708" lon="4.85107">
        <ele>269</ele>
        <time>2017-04-21T10:51:38Z</time>
      </trkpt>
      <trkpt lat="45.94707" lon="4.85099">
        <ele>269</ele>
        <time>2017-04-21T10:51:39Z</time>
      </trkpt>
      <trkpt lat="45.94706" lon="4.8509">
        <ele>269</ele>
        <time>2017-04-21T10:51:40Z</time>
      </trkpt>
      <trkpt lat="45.94705" lon="4.85081">
        <ele>269</ele>
        <time>2017-04-21T10:51:41Z</time>
      </trkpt>
      <trkpt lat="45.94704" lon="4.85072">
        <ele>269</ele>
        <time>2017-04-21T10:51:42Z</time>
      </trkpt>
      <trkpt lat="45.94703" lon="4.85063">
        <ele>269</ele>
        <time>2017-04-21T10:51:43Z</time>
      </trkpt>
      <trkpt lat="45.94702" lon="4.85055">
        <ele>269</ele>
        <time>2017-04-21T10:51:44Z</time>
      </trkpt>
      <trkpt lat="45.94702" lon="4.85047">
        <ele>269</ele>
        <time>2017-04-21T10:51:45Z</time>
      </trkpt>
      <trkpt lat="45.94701" lon="4.85039">
        <ele>269</ele>
        <time>2017-04-21T10:51:46Z</time>
      </trkpt>
      <trkpt lat="45.94701" lon="4.85031">
        <ele>269</ele>
        <time>2017-04-21T10:51:47Z</time>
      </trkpt>
      <trkpt lat="45.947" lon="4.85023">
        <ele>269</ele>
        <time>2017-04-21T10:51:48Z</time>
      </trkpt>
      <trkpt lat="45.94699" lon="4.85016">
        <ele>269</ele>
        <time>2017-04-21T10:51:49Z</time>
      </trkpt>
      <trkpt lat="45.94698" lon="4.85008">
        <ele>269</ele>
        <time>2017-04-21T10:51:50Z</time>
      </trkpt>
      <trkpt lat="45.94697" lon="4.85">
        <ele>269</ele>
        <time>2017-04-21T10:51:51Z</time>
      </trkpt>
      <trkpt lat="45.94697" lon="4.84992">
        <ele>269</ele>
        <time>2017-04-21T10:51:52Z</time>
      </trkpt>
      <trkpt lat="45.94696" lon="4.84984">
        <ele>269</ele>
        <time>2017-04-21T10:51:53Z</time>
      </trkpt>
      <trkpt lat="45.94695" lon="4.84976">
        <ele>269</ele>
        <time>2017-04-21T10:51:54Z</time>
      </trkpt>
      <trkpt lat="45.94694" lon="4.84968">
        <ele>269</ele>
        <time>2017-04-21T10:51:55Z</time>
      </trkpt>
      <trkpt lat="45.94693" lon="4.8496">
        <ele>269</ele>
        <time>2017-04-21T10:51:56Z</time>
      </trkpt>
      <trkpt lat="45.94692" lon="4.84951">
        <ele>269</ele>
        <time>2017-04-21T10:51:57Z</time>
      </trkpt>
      <trkpt lat="45.94691" lon="4.84943">
        <ele>269</ele>
        <time>2017-04-21T10:51:58Z</time>
      </trkpt>
      <trkpt lat="45.9469" lon="4.84935">
        <ele>269</ele>
        <time>2017-04-21T10:51:59Z</time>
      </trkpt>
      <trkpt lat="45.94689" lon="4.84926">
        <ele>269</ele>
        <time>2017-04-21T10:52:00Z</time>
      </trkpt>
      <trkpt lat="45.94689" lon="4.84918">
        <ele>269</ele>
        <time>2017-04-21T10:52:01Z</time>
      </trkpt>
      <trkpt lat="45.94688" lon="4.8491">
        <ele>269</ele>
        <time>2017-04-21T10:52:02Z</time>
      </trkpt>
      <trkpt lat="45.94687" lon="4.84902">
        <ele>269</ele>
        <time>2017-04-21T10:52:03Z</time>
      </trkpt>
      <trkpt lat="45.94686" lon="4.84894">
        <ele>268</ele>
        <time>2017-04-21T10:52:04Z</time>
      </trkpt>
      <trkpt lat="45.94685" lon="4.84886">
        <ele>268</ele>
        <time>2017-04-21T10:52:05Z</time>
      </trkpt>
      <trkpt lat="45.94685" lon="4.84877">
        <ele>268</ele>
        <time>2017-04-21T10:52:06Z</time>
      </trkpt>
      <trkpt lat="45.94683" lon="4.84868">
        <ele>268</ele>
        <time>2017-04-21T10:52:07Z</time>
      </trkpt>
      <trkpt lat="45.94683" lon="4.8486">
        <ele>268</ele>
        <time>2017-04-21T10:52:08Z</time>
      </trkpt>
      <trkpt lat="45.94682" lon="4.8485">
        <ele>268</ele>
        <time>2017-04-21T10:52:09Z</time>
      </trkpt>
      <trkpt lat="45.94681" lon="4.84841">
        <ele>268</ele>
        <time>2017-04-21T10:52:10Z</time>
      </trkpt>
      <trkpt lat="45.9468" lon="4.84831">
        <ele>268</ele>
        <time>2017-04-21T10:52:11Z</time>
      </trkpt>
      <trkpt lat="45.9468" lon="4.84822">
        <ele>268</ele>
        <time>2017-04-21T10:52:12Z</time>
      </trkpt>
      <trkpt lat="45.94679" lon="4.84812">
        <ele>268</ele>
        <time>2017-04-21T10:52:13Z</time>
      </trkpt>
      <trkpt lat="45.94678" lon="4.84803">
        <ele>268</ele>
        <time>2017-04-21T10:52:14Z</time>
      </trkpt>
      <trkpt lat="45.94677" lon="4.84794">
        <ele>268</ele>
        <time>2017-04-21T10:52:15Z</time>
      </trkpt>
      <trkpt lat="45.94676" lon="4.84785">
        <ele>269</ele>
        <time>2017-04-21T10:52:16Z</time>
      </trkpt>
      <trkpt lat="45.94676" lon="4.84776">
        <ele>269</ele>
        <time>2017-04-21T10:52:17Z</time>
      </trkpt>
      <trkpt lat="45.94675" lon="4.84767">
        <ele>269</ele>
        <time>2017-04-21T10:52:18Z</time>
      </trkpt>
      <trkpt lat="45.94675" lon="4.84759">
        <ele>269</ele>
        <time>2017-04-21T10:52:19Z</time>
      </trkpt>
      <trkpt lat="45.94673" lon="4.8475">
        <ele>269</ele>
        <time>2017-04-21T10:52:20Z</time>
      </trkpt>
      <trkpt lat="45.94673" lon="4.84742">
        <ele>269</ele>
        <time>2017-04-21T10:52:21Z</time>
      </trkpt>
      <trkpt lat="45.94673" lon="4.84733">
        <ele>269</ele>
        <time>2017-04-21T10:52:22Z</time>
      </trkpt>
      <trkpt lat="45.94673" lon="4.84725">
        <ele>269</ele>
        <time>2017-04-21T10:52:23Z</time>
      </trkpt>
      <trkpt lat="45.94672" lon="4.84717">
        <ele>269</ele>
        <time>2017-04-21T10:52:24Z</time>
      </trkpt>
      <trkpt lat="45.94673" lon="4.84708">
        <ele>269</ele>
        <time>2017-04-21T10:52:25Z</time>
      </trkpt>
      <trkpt lat="45.94672" lon="4.847">
        <ele>269</ele>
        <time>2017-04-21T10:52:26Z</time>
      </trkpt>
      <trkpt lat="45.94672" lon="4.84693">
        <ele>269</ele>
        <time>2017-04-21T10:52:27Z</time>
      </trkpt>
      <trkpt lat="45.94672" lon="4.84685">
        <ele>269</ele>
        <time>2017-04-21T10:52:28Z</time>
      </trkpt>
      <trkpt lat="45.94672" lon="4.84677">
        <ele>269</ele>
        <time>2017-04-21T10:52:29Z</time>
      </trkpt>
      <trkpt lat="45.94672" lon="4.84669">
        <ele>269</ele>
        <time>2017-04-21T10:52:30Z</time>
      </trkpt>
      <trkpt lat="45.94671" lon="4.8466">
        <ele>269</ele>
        <time>2017-04-21T10:52:31Z</time>
      </trkpt>
      <trkpt lat="45.94671" lon="4.84651">
        <ele>268</ele>
        <time>2017-04-21T10:52:32Z</time>
      </trkpt>
      <trkpt lat="45.94671" lon="4.84642">
        <ele>268</ele>
        <time>2017-04-21T10:52:33Z</time>
      </trkpt>
      <trkpt lat="45.9467" lon="4.84632">
        <ele>268</ele>
        <time>2017-04-21T10:52:34Z</time>
      </trkpt>
      <trkpt lat="45.9467" lon="4.84623">
        <ele>268</ele>
        <time>2017-04-21T10:52:35Z</time>
      </trkpt>
      <trkpt lat="45.94669" lon="4.84613">
        <ele>268</ele>
        <time>2017-04-21T10:52:36Z</time>
      </trkpt>
      <trkpt lat="45.94669" lon="4.84604">
        <ele>268</ele>
        <time>2017-04-21T10:52:37Z</time>
      </trkpt>
      <trkpt lat="45.94668" lon="4.84595">
        <ele>268</ele>
        <time>2017-04-21T10:52:38Z</time>
      </trkpt>
      <trkpt lat="45.94667" lon="4.84586">
        <ele>268</ele>
        <time>2017-04-21T10:52:39Z</time>
      </trkpt>
      <trkpt lat="45.94667" lon="4.84578">
        <ele>268</ele>
        <time>2017-04-21T10:52:40Z</time>
      </trkpt>
      <trkpt lat="45.94667" lon="4.8457">
        <ele>268</ele>
        <time>2017-04-21T10:52:41Z</time>
      </trkpt>
      <trkpt lat="45.94667" lon="4.84562">
        <ele>268</ele>
        <time>2017-04-21T10:52:42Z</time>
      </trkpt>
      <trkpt lat="45.94666" lon="4.84554">
        <ele>268</ele>
        <time>2017-04-21T10:52:43Z</time>
      </trkpt>
      <trkpt lat="45.94666" lon="4.84546">
        <ele>268</ele>
        <time>2017-04-21T10:52:44Z</time>
      </trkpt>
      <trkpt lat="45.94665" lon="4.84539">
        <ele>268</ele>
        <time>2017-04-21T10:52:45Z</time>
      </trkpt>
      <trkpt lat="45.94664" lon="4.84532">
        <ele>268</ele>
        <time>2017-04-21T10:52:46Z</time>
      </trkpt>
      <trkpt lat="45.94664" lon="4.84524">
        <ele>268</ele>
        <time>2017-04-21T10:52:47Z</time>
      </trkpt>
      <trkpt lat="45.94663" lon="4.84517">
        <ele>268</ele>
        <time>2017-04-21T10:52:48Z</time>
      </trkpt>
      <trkpt lat="45.94662" lon="4.84509">
        <ele>268</ele>
        <time>2017-04-21T10:52:49Z</time>
      </trkpt>
      <trkpt lat="45.94661" lon="4.84502">
        <ele>268</ele>
        <time>2017-04-21T10:52:50Z</time>
      </trkpt>
      <trkpt lat="45.94661" lon="4.84494">
        <ele>268</ele>
        <time>2017-04-21T10:52:51Z</time>
      </trkpt>
      <trkpt lat="45.9466" lon="4.84487">
        <ele>268</ele>
        <time>2017-04-21T10:52:52Z</time>
      </trkpt>
      <trkpt lat="45.94659" lon="4.84479">
        <ele>268</ele>
        <time>2017-04-21T10:52:53Z</time>
      </trkpt>
      <trkpt lat="45.94659" lon="4.84472">
        <ele>268</ele>
        <time>2017-04-21T10:52:54Z</time>
      </trkpt>
      <trkpt lat="45.94658" lon="4.84465">
        <ele>268</ele>
        <time>2017-04-21T10:52:55Z</time>
      </trkpt>
      <trkpt lat="45.94656" lon="4.84458">
        <ele>268</ele>
        <time>2017-04-21T10:52:56Z</time>
      </trkpt>
      <trkpt lat="45.94656" lon="4.84451">
        <ele>268</ele>
        <time>2017-04-21T10:52:57Z</time>
      </trkpt>
      <trkpt lat="45.94655" lon="4.84443">
        <ele>268</ele>
        <time>2017-04-21T10:52:58Z</time>
      </trkpt>
      <trkpt lat="45.94654" lon="4.84435">
        <ele>268</ele>
        <time>2017-04-21T10:52:59Z</time>
      </trkpt>
      <trkpt lat="45.94653" lon="4.84427">
        <ele>268</ele>
        <time>2017-04-21T10:53:00Z</time>
      </trkpt>
      <trkpt lat="45.94653" lon="4.84419">
        <ele>268</ele>
        <time>2017-04-21T10:53:01Z</time>
      </trkpt>
      <trkpt lat="45.94651" lon="4.84411">
        <ele>268</ele>
        <time>2017-04-21T10:53:02Z</time>
      </trkpt>
      <trkpt lat="45.9465" lon="4.84403">
        <ele>268</ele>
        <time>2017-04-21T10:53:03Z</time>
      </trkpt>
      <trkpt lat="45.94649" lon="4.84395">
        <ele>268</ele>
        <time>2017-04-21T10:53:04Z</time>
      </trkpt>
      <trkpt lat="45.94648" lon="4.84387">
        <ele>268</ele>
        <time>2017-04-21T10:53:05Z</time>
      </trkpt>
      <trkpt lat="45.94647" lon="4.84379">
        <ele>268</ele>
        <time>2017-04-21T10:53:06Z</time>
      </trkpt>
      <trkpt lat="45.94646" lon="4.84371">
        <ele>268</ele>
        <time>2017-04-21T10:53:07Z</time>
      </trkpt>
      <trkpt lat="45.94645" lon="4.84364">
        <ele>268</ele>
        <time>2017-04-21T10:53:08Z</time>
      </trkpt>
      <trkpt lat="45.94644" lon="4.84356">
        <ele>268</ele>
        <time>2017-04-21T10:53:09Z</time>
      </trkpt>
      <trkpt lat="45.94643" lon="4.84349">
        <ele>268</ele>
        <time>2017-04-21T10:53:10Z</time>
      </trkpt>
      <trkpt lat="45.94642" lon="4.84342">
        <ele>268</ele>
        <time>2017-04-21T10:53:11Z</time>
      </trkpt>
      <trkpt lat="45.94641" lon="4.84335">
        <ele>268</ele>
        <time>2017-04-21T10:53:12Z</time>
      </trkpt>
      <trkpt lat="45.9464" lon="4.84328">
        <ele>268</ele>
        <time>2017-04-21T10:53:13Z</time>
      </trkpt>
      <trkpt lat="45.94639" lon="4.8432">
        <ele>269</ele>
        <time>2017-04-21T10:53:14Z</time>
      </trkpt>
      <trkpt lat="45.94638" lon="4.84312">
        <ele>269</ele>
        <time>2017-04-21T10:53:15Z</time>
      </trkpt>
      <trkpt lat="45.94636" lon="4.84304">
        <ele>269</ele>
        <time>2017-04-21T10:53:16Z</time>
      </trkpt>
      <trkpt lat="45.94635" lon="4.84295">
        <ele>269</ele>
        <time>2017-04-21T10:53:17Z</time>
      </trkpt>
      <trkpt lat="45.94634" lon="4.84286">
        <ele>269</ele>
        <time>2017-04-21T10:53:18Z</time>
      </trkpt>
      <trkpt lat="45.94633" lon="4.84277">
        <ele>269</ele>
        <time>2017-04-21T10:53:19Z</time>
      </trkpt>
      <trkpt lat="45.94632" lon="4.84268">
        <ele>269</ele>
        <time>2017-04-21T10:53:20Z</time>
      </trkpt>
      <trkpt lat="45.9463" lon="4.84259">
        <ele>269</ele>
        <time>2017-04-21T10:53:21Z</time>
      </trkpt>
      <trkpt lat="45.94628" lon="4.84249">
        <ele>269</ele>
        <time>2017-04-21T10:53:22Z</time>
      </trkpt>
      <trkpt lat="45.94627" lon="4.84239">
        <ele>269</ele>
        <time>2017-04-21T10:53:23Z</time>
      </trkpt>
      <trkpt lat="45.94625" lon="4.84229">
        <ele>269</ele>
        <time>2017-04-21T10:53:24Z</time>
      </trkpt>
      <trkpt lat="45.94624" lon="4.8422">
        <ele>269</ele>
        <time>2017-04-21T10:53:25Z</time>
      </trkpt>
      <trkpt lat="45.94623" lon="4.8421">
        <ele>269</ele>
        <time>2017-04-21T10:53:26Z</time>
      </trkpt>
      <trkpt lat="45.94622" lon="4.84201">
        <ele>269</ele>
        <time>2017-04-21T10:53:27Z</time>
      </trkpt>
      <trkpt lat="45.9462" lon="4.84191">
        <ele>269</ele>
        <time>2017-04-21T10:53:28Z</time>
      </trkpt>
      <trkpt lat="45.94619" lon="4.84181">
        <ele>269</ele>
        <time>2017-04-21T10:53:29Z</time>
      </trkpt>
      <trkpt lat="45.94618" lon="4.84172">
        <ele>269</ele>
        <time>2017-04-21T10:53:30Z</time>
      </trkpt>
      <trkpt lat="45.94617" lon="4.84162">
        <ele>269</ele>
        <time>2017-04-21T10:53:31Z</time>
      </trkpt>
      <trkpt lat="45.94615" lon="4.84152">
        <ele>269</ele>
        <time>2017-04-21T10:53:32Z</time>
      </trkpt>
      <trkpt lat="45.94614" lon="4.84143">
        <ele>269</ele>
        <time>2017-04-21T10:53:33Z</time>
      </trkpt>
      <trkpt lat="45.94612" lon="4.84133">
        <ele>269</ele>
        <time>2017-04-21T10:53:34Z</time>
      </trkpt>
      <trkpt lat="45.94611" lon="4.84124">
        <ele>269</ele>
        <time>2017-04-21T10:53:35Z</time>
      </trkpt>
      <trkpt lat="45.94609" lon="4.84115">
        <ele>269</ele>
        <time>2017-04-21T10:53:36Z</time>
      </trkpt>
      <trkpt lat="45.94608" lon="4.84105">
        <ele>269</ele>
        <time>2017-04-21T10:53:37Z</time>
      </trkpt>
      <trkpt lat="45.94606" lon="4.84096">
        <ele>269</ele>
        <time>2017-04-21T10:53:38Z</time>
      </trkpt>
      <trkpt lat="45.94604" lon="4.84086">
        <ele>269</ele>
        <time>2017-04-21T10:53:39Z</time>
      </trkpt>
      <trkpt lat="45.94603" lon="4.84077">
        <ele>269</ele>
        <time>2017-04-21T10:53:40Z</time>
      </trkpt>
      <trkpt lat="45.94601" lon="4.84067">
        <ele>269</ele>
        <time>2017-04-21T10:53:41Z</time>
      </trkpt>
      <trkpt lat="45.94599" lon="4.84058">
        <ele>269</ele>
        <time>2017-04-21T10:53:42Z</time>
      </trkpt>
      <trkpt lat="45.94598" lon="4.84048">
        <ele>269</ele>
        <time>2017-04-21T10:53:43Z</time>
      </trkpt>
      <trkpt lat="45.94597" lon="4.84039">
        <ele>269</ele>
        <time>2017-04-21T10:53:44Z</time>
      </trkpt>
      <trkpt lat="45.94595" lon="4.8403">
        <ele>269</ele>
        <time>2017-04-21T10:53:45Z</time>
      </trkpt>
      <trkpt lat="45.94593" lon="4.84022">
        <ele>269</ele>
        <time>2017-04-21T10:53:46Z</time>
      </trkpt>
      <trkpt lat="45.94592" lon="4.84013">
        <ele>269</ele>
        <time>2017-04-21T10:53:47Z</time>
      </trkpt>
      <trkpt lat="45.94591" lon="4.84005">
        <ele>269</ele>
        <time>2017-04-21T10:53:48Z</time>
      </trkpt>
      <trkpt lat="45.9459" lon="4.83996">
        <ele>269</ele>
        <time>2017-04-21T10:53:49Z</time>
      </trkpt>
      <trkpt lat="45.94588" lon="4.83988">
        <ele>269</ele>
        <time>2017-04-21T10:53:50Z</time>
      </trkpt>
      <trkpt lat="45.94587" lon="4.83978">
        <ele>268</ele>
        <time>2017-04-21T10:53:51Z</time>
      </trkpt>
      <trkpt lat="45.94586" lon="4.83969">
        <ele>268</ele>
        <time>2017-04-21T10:53:52Z</time>
      </trkpt>
      <trkpt lat="45.94584" lon="4.83958">
        <ele>268</ele>
        <time>2017-04-21T10:53:53Z</time>
      </trkpt>
      <trkpt lat="45.94582" lon="4.83948">
        <ele>269</ele>
        <time>2017-04-21T10:53:54Z</time>
      </trkpt>
      <trkpt lat="45.9458" lon="4.83937">
        <ele>269</ele>
        <time>2017-04-21T10:53:55Z</time>
      </trkpt>
      <trkpt lat="45.94578" lon="4.83925">
        <ele>268</ele>
        <time>2017-04-21T10:53:56Z</time>
      </trkpt>
      <trkpt lat="45.94577" lon="4.83913">
        <ele>268</ele>
        <time>2017-04-21T10:53:57Z</time>
      </trkpt>
      <trkpt lat="45.94575" lon="4.83902">
        <ele>268</ele>
        <time>2017-04-21T10:53:58Z</time>
      </trkpt>
      <trkpt lat="45.94574" lon="4.8389">
        <ele>267</ele>
        <time>2017-04-21T10:53:59Z</time>
      </trkpt>
      <trkpt lat="45.94572" lon="4.83878">
        <ele>267</ele>
        <time>2017-04-21T10:54:00Z</time>
      </trkpt>
      <trkpt lat="45.94571" lon="4.83866">
        <ele>267</ele>
        <time>2017-04-21T10:54:01Z</time>
      </trkpt>
      <trkpt lat="45.94569" lon="4.83854">
        <ele>266</ele>
        <time>2017-04-21T10:54:02Z</time>
      </trkpt>
      <trkpt lat="45.94567" lon="4.83841">
        <ele>266</ele>
        <time>2017-04-21T10:54:03Z</time>
      </trkpt>
      <trkpt lat="45.94566" lon="4.83829">
        <ele>265</ele>
        <time>2017-04-21T10:54:04Z</time>
      </trkpt>
      <trkpt lat="45.94564" lon="4.83817">
        <ele>264</ele>
        <time>2017-04-21T10:54:05Z</time>
      </trkpt>
      <trkpt lat="45.94562" lon="4.83805">
        <ele>264</ele>
        <time>2017-04-21T10:54:06Z</time>
      </trkpt>
      <trkpt lat="45.9456" lon="4.83792">
        <ele>264</ele>
        <time>2017-04-21T10:54:07Z</time>
      </trkpt>
      <trkpt lat="45.94558" lon="4.8378">
        <ele>264</ele>
        <time>2017-04-21T10:54:08Z</time>
      </trkpt>
      <trkpt lat="45.94556" lon="4.83768">
        <ele>263</ele>
        <time>2017-04-21T10:54:09Z</time>
      </trkpt>
      <trkpt lat="45.94555" lon="4.83756">
        <ele>263</ele>
        <time>2017-04-21T10:54:10Z</time>
      </trkpt>
      <trkpt lat="45.94553" lon="4.83744">
        <ele>262</ele>
        <time>2017-04-21T10:54:11Z</time>
      </trkpt>
      <trkpt lat="45.94552" lon="4.83733">
        <ele>262</ele>
        <time>2017-04-21T10:54:12Z</time>
      </trkpt>
      <trkpt lat="45.9455" lon="4.83722">
        <ele>262</ele>
        <time>2017-04-21T10:54:13Z</time>
      </trkpt>
      <trkpt lat="45.94548" lon="4.83711">
        <ele>262</ele>
        <time>2017-04-21T10:54:14Z</time>
      </trkpt>
      <trkpt lat="45.94546" lon="4.837">
        <ele>262</ele>
        <time>2017-04-21T10:54:15Z</time>
      </trkpt>
      <trkpt lat="45.94545" lon="4.83689">
        <ele>262</ele>
        <time>2017-04-21T10:54:16Z</time>
      </trkpt>
      <trkpt lat="45.94543" lon="4.83679">
        <ele>262</ele>
        <time>2017-04-21T10:54:17Z</time>
      </trkpt>
      <trkpt lat="45.94541" lon="4.83668">
        <ele>262</ele>
        <time>2017-04-21T10:54:18Z</time>
      </trkpt>
      <trkpt lat="45.94539" lon="4.83659">
        <ele>261</ele>
        <time>2017-04-21T10:54:19Z</time>
      </trkpt>
      <trkpt lat="45.94538" lon="4.83649">
        <ele>261</ele>
        <time>2017-04-21T10:54:20Z</time>
      </trkpt>
      <trkpt lat="45.94536" lon="4.83639">
        <ele>261</ele>
        <time>2017-04-21T10:54:21Z</time>
      </trkpt>
      <trkpt lat="45.94535" lon="4.8363">
        <ele>261</ele>
        <time>2017-04-21T10:54:22Z</time>
      </trkpt>
      <trkpt lat="45.94533" lon="4.83621">
        <ele>261</ele>
        <time>2017-04-21T10:54:23Z</time>
      </trkpt>
      <trkpt lat="45.94531" lon="4.83613">
        <ele>261</ele>
        <time>2017-04-21T10:54:24Z</time>
      </trkpt>
      <trkpt lat="45.9453" lon="4.83604">
        <ele>261</ele>
        <time>2017-04-21T10:54:25Z</time>
      </trkpt>
      <trkpt lat="45.94527" lon="4.83595">
        <ele>261</ele>
        <time>2017-04-21T10:54:26Z</time>
      </trkpt>
      <trkpt lat="45.94525" lon="4.83585">
        <ele>261</ele>
        <time>2017-04-21T10:54:27Z</time>
      </trkpt>
      <trkpt lat="45.94522" lon="4.83576">
        <ele>261</ele>
        <time>2017-04-21T10:54:28Z</time>
      </trkpt>
      <trkpt lat="45.94519" lon="4.83567">
        <ele>261</ele>
        <time>2017-04-21T10:54:29Z</time>
      </trkpt>
      <trkpt lat="45.94515" lon="4.83559">
        <ele>261</ele>
        <time>2017-04-21T10:54:30Z</time>
      </trkpt>
      <trkpt lat="45.94512" lon="4.83551">
        <ele>261</ele>
        <time>2017-04-21T10:54:31Z</time>
      </trkpt>
      <trkpt lat="45.94507" lon="4.83543">
        <ele>261</ele>
        <time>2017-04-21T10:54:32Z</time>
      </trkpt>
      <trkpt lat="45.94503" lon="4.83536">
        <ele>262</ele>
        <time>2017-04-21T10:54:33Z</time>
      </trkpt>
      <trkpt lat="45.94499" lon="4.83529">
        <ele>262</ele>
        <time>2017-04-21T10:54:34Z</time>
      </trkpt>
      <trkpt lat="45.94495" lon="4.83522">
        <ele>262</ele>
        <time>2017-04-21T10:54:35Z</time>
      </trkpt>
      <trkpt lat="45.94491" lon="4.83515">
        <ele>262</ele>
        <time>2017-04-21T10:54:36Z</time>
      </trkpt>
      <trkpt lat="45.94488" lon="4.83508">
        <ele>262</ele>
        <time>2017-04-21T10:54:37Z</time>
      </trkpt>
      <trkpt lat="45.94484" lon="4.83501">
        <ele>262</ele>
        <time>2017-04-21T10:54:38Z</time>
      </trkpt>
      <trkpt lat="45.9448" lon="4.83495">
        <ele>263</ele>
        <time>2017-04-21T10:54:39Z</time>
      </trkpt>
      <trkpt lat="45.94476" lon="4.83489">
        <ele>263</ele>
        <time>2017-04-21T10:54:40Z</time>
      </trkpt>
      <trkpt lat="45.94473" lon="4.83482">
        <ele>263</ele>
        <time>2017-04-21T10:54:41Z</time>
      </trkpt>
      <trkpt lat="45.94469" lon="4.83476">
        <ele>263</ele>
        <time>2017-04-21T10:54:42Z</time>
      </trkpt>
      <trkpt lat="45.94465" lon="4.83469">
        <ele>263</ele>
        <time>2017-04-21T10:54:43Z</time>
      </trkpt>
      <trkpt lat="45.94461" lon="4.83463">
        <ele>263</ele>
        <time>2017-04-21T10:54:44Z</time>
      </trkpt>
      <trkpt lat="45.94457" lon="4.83457">
        <ele>263</ele>
        <time>2017-04-21T10:54:45Z</time>
      </trkpt>
      <trkpt lat="45.94453" lon="4.8345">
        <ele>263</ele>
        <time>2017-04-21T10:54:46Z</time>
      </trkpt>
      <trkpt lat="45.94449" lon="4.83443">
        <ele>263</ele>
        <time>2017-04-21T10:54:47Z</time>
      </trkpt>
      <trkpt lat="45.94446" lon="4.83436">
        <ele>263</ele>
        <time>2017-04-21T10:54:48Z</time>
      </trkpt>
      <trkpt lat="45.94442" lon="4.83429">
        <ele>264</ele>
        <time>2017-04-21T10:54:49Z</time>
      </trkpt>
      <trkpt lat="45.94439" lon="4.83422">
        <ele>264</ele>
        <time>2017-04-21T10:54:50Z</time>
      </trkpt>
      <trkpt lat="45.94435" lon="4.83415">
        <ele>264</ele>
        <time>2017-04-21T10:54:51Z</time>
      </trkpt>
      <trkpt lat="45.94432" lon="4.83408">
        <ele>264</ele>
        <time>2017-04-21T10:54:52Z</time>
      </trkpt>
      <trkpt lat="45.94428" lon="4.83401">
        <ele>264</ele>
        <time>2017-04-21T10:54:53Z</time>
      </trkpt>
      <trkpt lat="45.94424" lon="4.83393">
        <ele>264</ele>
        <time>2017-04-21T10:54:54Z</time>
      </trkpt>
      <trkpt lat="45.94422" lon="4.83387">
        <ele>264</ele>
        <time>2017-04-21T10:54:55Z</time>
      </trkpt>
      <trkpt lat="45.94419" lon="4.8338">
        <ele>264</ele>
        <time>2017-04-21T10:54:56Z</time>
      </trkpt>
      <trkpt lat="45.94416" lon="4.83374">
        <ele>264</ele>
        <time>2017-04-21T10:54:57Z</time>
      </trkpt>
      <trkpt lat="45.94413" lon="4.83368">
        <ele>264</ele>
        <time>2017-04-21T10:54:58Z</time>
      </trkpt>
      <trkpt lat="45.94409" lon="4.83362">
        <ele>264</ele>
        <time>2017-04-21T10:54:59Z</time>
      </trkpt>
      <trkpt lat="45.94406" lon="4.83355">
        <ele>263</ele>
        <time>2017-04-21T10:55:00Z</time>
      </trkpt>
      <trkpt lat="45.94403" lon="4.83349">
        <ele>263</ele>
        <time>2017-04-21T10:55:01Z</time>
      </trkpt>
      <trkpt lat="45.944" lon="4.83342">
        <ele>263</ele>
        <time>2017-04-21T10:55:02Z</time>
      </trkpt>
      <trkpt lat="45.94397" lon="4.83335">
        <ele>263</ele>
        <time>2017-04-21T10:55:03Z</time>
      </trkpt>
      <trkpt lat="45.94395" lon="4.83328">
        <ele>264</ele>
        <time>2017-04-21T10:55:04Z</time>
      </trkpt>
      <trkpt lat="45.94392" lon="4.83321">
        <ele>264</ele>
        <time>2017-04-21T10:55:05Z</time>
      </trkpt>
      <trkpt lat="45.9439" lon="4.83314">
        <ele>264</ele>
        <time>2017-04-21T10:55:06Z</time>
      </trkpt>
      <trkpt lat="45.94388" lon="4.83307">
        <ele>264</ele>
        <time>2017-04-21T10:55:07Z</time>
      </trkpt>
      <trkpt lat="45.94386" lon="4.833">
        <ele>264</ele>
        <time>2017-04-21T10:55:08Z</time>
      </trkpt>
      <trkpt lat="45.94383" lon="4.83293">
        <ele>264</ele>
        <time>2017-04-21T10:55:09Z</time>
      </trkpt>
      <trkpt lat="45.94381" lon="4.83286">
        <ele>264</ele>
        <time>2017-04-21T10:55:10Z</time>
      </trkpt>
      <trkpt lat="45.94379" lon="4.83278">
        <ele>264</ele>
        <time>2017-04-21T10:55:11Z</time>
      </trkpt>
      <trkpt lat="45.94376" lon="4.83271">
        <ele>264</ele>
        <time>2017-04-21T10:55:12Z</time>
      </trkpt>
      <trkpt lat="45.94373" lon="4.83264">
        <ele>264</ele>
        <time>2017-04-21T10:55:13Z</time>
      </trkpt>
      <trkpt lat="45.94371" lon="4.83257">
        <ele>265</ele>
        <time>2017-04-21T10:55:14Z</time>
      </trkpt>
      <trkpt lat="45.94368" lon="4.8325">
        <ele>265</ele>
        <time>2017-04-21T10:55:15Z</time>
      </trkpt>
      <trkpt lat="45.94366" lon="4.83244">
        <ele>265</ele>
        <time>2017-04-21T10:55:16Z</time>
      </trkpt>
      <trkpt lat="45.94364" lon="4.83237">
        <ele>265</ele>
        <time>2017-04-21T10:55:17Z</time>
      </trkpt>
      <trkpt lat="45.94361" lon="4.8323">
        <ele>266</ele>
        <time>2017-04-21T10:55:18Z</time>
      </trkpt>
      <trkpt lat="45.94359" lon="4.83224">
        <ele>266</ele>
        <time>2017-04-21T10:55:19Z</time>
      </trkpt>
      <trkpt lat="45.94357" lon="4.83218">
        <ele>266</ele>
        <time>2017-04-21T10:55:20Z</time>
      </trkpt>
      <trkpt lat="45.94355" lon="4.83211">
        <ele>266</ele>
        <time>2017-04-21T10:55:21Z</time>
      </trkpt>
      <trkpt lat="45.94353" lon="4.83204">
        <ele>266</ele>
        <time>2017-04-21T10:55:22Z</time>
      </trkpt>
      <trkpt lat="45.94351" lon="4.83197">
        <ele>266</ele>
        <time>2017-04-21T10:55:23Z</time>
      </trkpt>
      <trkpt lat="45.94348" lon="4.8319">
        <ele>266</ele>
        <time>2017-04-21T10:55:24Z</time>
      </trkpt>
      <trkpt lat="45.94346" lon="4.83183">
        <ele>266</ele>
        <time>2017-04-21T10:55:25Z</time>
      </trkpt>
      <trkpt lat="45.94344" lon="4.83176">
        <ele>266</ele>
        <time>2017-04-21T10:55:26Z</time>
      </trkpt>
      <trkpt lat="45.94341" lon="4.83169">
        <ele>266</ele>
        <time>2017-04-21T10:55:27Z</time>
      </trkpt>
      <trkpt lat="45.94339" lon="4.83161">
        <ele>266</ele>
        <time>2017-04-21T10:55:28Z</time>
      </trkpt>
      <trkpt lat="45.94336" lon="4.83154">
        <ele>266</ele>
        <time>2017-04-21T10:55:29Z</time>
      </trkpt>
      <trkpt lat="45.94333" lon="4.83146">
        <ele>266</ele>
        <time>2017-04-21T10:55:30Z</time>
      </trkpt>
      <trkpt lat="45.9433" lon="4.83139">
        <ele>266</ele>
        <time>2017-04-21T10:55:31Z</time>
      </trkpt>
      <trkpt lat="45.94327" lon="4.83132">
        <ele>266</ele>
        <time>2017-04-21T10:55:32Z</time>
      </trkpt>
      <trkpt lat="45.94325" lon="4.83125">
        <ele>266</ele>
        <time>2017-04-21T10:55:33Z</time>
      </trkpt>
      <trkpt lat="45.94323" lon="4.83118">
        <ele>266</ele>
        <time>2017-04-21T10:55:34Z</time>
      </trkpt>
      <trkpt lat="45.9432" lon="4.83111">
        <ele>266</ele>
        <time>2017-04-21T10:55:35Z</time>
      </trkpt>
      <trkpt lat="45.94318" lon="4.83104">
        <ele>266</ele>
        <time>2017-04-21T10:55:36Z</time>
      </trkpt>
      <trkpt lat="45.94316" lon="4.83097">
        <ele>266</ele>
        <time>2017-04-21T10:55:37Z</time>
      </trkpt>
      <trkpt lat="45.94314" lon="4.8309">
        <ele>266</ele>
        <time>2017-04-21T10:55:38Z</time>
      </trkpt>
      <trkpt lat="45.94312" lon="4.83083">
        <ele>266</ele>
        <time>2017-04-21T10:55:39Z</time>
      </trkpt>
      <trkpt lat="45.9431" lon="4.83076">
        <ele>266</ele>
        <time>2017-04-21T10:55:40Z</time>
      </trkpt>
      <trkpt lat="45.94308" lon="4.83069">
        <ele>266</ele>
        <time>2017-04-21T10:55:41Z</time>
      </trkpt>
      <trkpt lat="45.94307" lon="4.83062">
        <ele>266</ele>
        <time>2017-04-21T10:55:42Z</time>
      </trkpt>
      <trkpt lat="45.94305" lon="4.83055">
        <ele>266</ele>
        <time>2017-04-21T10:55:43Z</time>
      </trkpt>
      <trkpt lat="45.94303" lon="4.83047">
        <ele>266</ele>
        <time>2017-04-21T10:55:44Z</time>
      </trkpt>
      <trkpt lat="45.94302" lon="4.8304">
        <ele>266</ele>
        <time>2017-04-21T10:55:45Z</time>
      </trkpt>
      <trkpt lat="45.943" lon="4.83033">
        <ele>266</ele>
        <time>2017-04-21T10:55:46Z</time>
      </trkpt>
      <trkpt lat="45.94299" lon="4.83025">
        <ele>266</ele>
        <time>2017-04-21T10:55:47Z</time>
      </trkpt>
      <trkpt lat="45.94298" lon="4.83018">
        <ele>266</ele>
        <time>2017-04-21T10:55:48Z</time>
      </trkpt>
      <trkpt lat="45.94297" lon="4.83011">
        <ele>266</ele>
        <time>2017-04-21T10:55:49Z</time>
      </trkpt>
      <trkpt lat="45.94295" lon="4.83004">
        <ele>266</ele>
        <time>2017-04-21T10:55:50Z</time>
      </trkpt>
      <trkpt lat="45.94293" lon="4.82997">
        <ele>265</ele>
        <time>2017-04-21T10:55:51Z</time>
      </trkpt>
      <trkpt lat="45.94291" lon="4.8299">
        <ele>265</ele>
        <time>2017-04-21T10:55:52Z</time>
      </trkpt>
      <trkpt lat="45.94289" lon="4.82983">
        <ele>265</ele>
        <time>2017-04-21T10:55:53Z</time>
      </trkpt>
      <trkpt lat="45.94287" lon="4.82976">
        <ele>265</ele>
        <time>2017-04-21T10:55:54Z</time>
      </trkpt>
      <trkpt lat="45.94285" lon="4.82969">
        <ele>265</ele>
        <time>2017-04-21T10:55:55Z</time>
      </trkpt>
      <trkpt lat="45.94282" lon="4.82962">
        <ele>265</ele>
        <time>2017-04-21T10:55:56Z</time>
      </trkpt>
      <trkpt lat="45.9428" lon="4.82956">
        <ele>265</ele>
        <time>2017-04-21T10:55:57Z</time>
      </trkpt>
      <trkpt lat="45.94279" lon="4.82949">
        <ele>265</ele>
        <time>2017-04-21T10:55:58Z</time>
      </trkpt>
      <trkpt lat="45.9428" lon="4.82941">
        <ele>265</ele>
        <time>2017-04-21T10:55:59Z</time>
      </trkpt>
      <trkpt lat="45.94282" lon="4.82934">
        <ele>265</ele>
        <time>2017-04-21T10:56:00Z</time>
      </trkpt>
      <trkpt lat="45.94284" lon="4.82927">
        <ele>265</ele>
        <time>2017-04-21T10:56:01Z</time>
      </trkpt>
      <trkpt lat="45.94285" lon="4.8292">
        <ele>265</ele>
        <time>2017-04-21T10:56:02Z</time>
      </trkpt>
      <trkpt lat="45.94286" lon="4.82913">
        <ele>265</ele>
        <time>2017-04-21T10:56:03Z</time>
      </trkpt>
      <trkpt lat="45.94288" lon="4.82905">
        <ele>265</ele>
        <time>2017-04-21T10:56:04Z</time>
      </trkpt>
      <trkpt lat="45.94289" lon="4.82898">
        <ele>265</ele>
        <time>2017-04-21T10:56:05Z</time>
      </trkpt>
      <trkpt lat="45.94289" lon="4.8289">
        <ele>265</ele>
        <time>2017-04-21T10:56:06Z</time>
      </trkpt>
      <trkpt lat="45.9429" lon="4.82883">
        <ele>265</ele>
        <time>2017-04-21T10:56:07Z</time>
      </trkpt>
      <trkpt lat="45.9429" lon="4.82875">
        <ele>265</ele>
        <time>2017-04-21T10:56:08Z</time>
      </trkpt>
      <trkpt lat="45.9429" lon="4.82867">
        <ele>265</ele>
        <time>2017-04-21T10:56:09Z</time>
      </trkpt>
      <trkpt lat="45.9429" lon="4.82859">
        <ele>265</ele>
        <time>2017-04-21T10:56:10Z</time>
      </trkpt>
      <trkpt lat="45.94291" lon="4.82851">
        <ele>265</ele>
        <time>2017-04-21T10:56:11Z</time>
      </trkpt>
      <trkpt lat="45.94291" lon="4.82843">
        <ele>265</ele>
        <time>2017-04-21T10:56:12Z</time>
      </trkpt>
      <trkpt lat="45.94291" lon="4.82835">
        <ele>265</ele>
        <time>2017-04-21T10:56:13Z</time>
      </trkpt>
      <trkpt lat="45.94291" lon="4.82828">
        <ele>265</ele>
        <time>2017-04-21T10:56:14Z</time>
      </trkpt>
      <trkpt lat="45.94291" lon="4.8282">
        <ele>265</ele>
        <time>2017-04-21T10:56:15Z</time>
      </trkpt>
      <trkpt lat="45.94291" lon="4.82812">
        <ele>265</ele>
        <time>2017-04-21T10:56:16Z</time>
      </trkpt>
      <trkpt lat="45.94291" lon="4.82804">
        <ele>265</ele>
        <time>2017-04-21T10:56:17Z</time>
      </trkpt>
      <trkpt lat="45.94291" lon="4.82795">
        <ele>265</ele>
        <time>2017-04-21T10:56:18Z</time>
      </trkpt>
      <trkpt lat="45.94292" lon="4.82787">
        <ele>265</ele>
        <time>2017-04-21T10:56:19Z</time>
      </trkpt>
      <trkpt lat="45.94292" lon="4.82779">
        <ele>265</ele>
        <time>2017-04-21T10:56:20Z</time>
      </trkpt>
      <trkpt lat="45.94292" lon="4.8277">
        <ele>265</ele>
        <time>2017-04-21T10:56:21Z</time>
      </trkpt>
      <trkpt lat="45.94292" lon="4.82762">
        <ele>265</ele>
        <time>2017-04-21T10:56:22Z</time>
      </trkpt>
      <trkpt lat="45.94292" lon="4.82754">
        <ele>265</ele>
        <time>2017-04-21T10:56:23Z</time>
      </trkpt>
      <trkpt lat="45.94292" lon="4.82746">
        <ele>265</ele>
        <time>2017-04-21T10:56:24Z</time>
      </trkpt>
      <trkpt lat="45.94292" lon="4.82739">
        <ele>265</ele>
        <time>2017-04-21T10:56:25Z</time>
      </trkpt>
      <trkpt lat="45.94292" lon="4.8273">
        <ele>265</ele>
        <time>2017-04-21T10:56:26Z</time>
      </trkpt>
      <trkpt lat="45.94292" lon="4.82722">
        <ele>265</ele>
        <time>2017-04-21T10:56:27Z</time>
      </trkpt>
      <trkpt lat="45.94294" lon="4.82714">
        <ele>265</ele>
        <time>2017-04-21T10:56:28Z</time>
      </trkpt>
      <trkpt lat="45.94294" lon="4.82705">
        <ele>265</ele>
        <time>2017-04-21T10:56:29Z</time>
      </trkpt>
      <trkpt lat="45.94295" lon="4.82696">
        <ele>265</ele>
        <time>2017-04-21T10:56:30Z</time>
      </trkpt>
      <trkpt lat="45.94295" lon="4.82687">
        <ele>265</ele>
        <time>2017-04-21T10:56:31Z</time>
      </trkpt>
      <trkpt lat="45.94295" lon="4.82678">
        <ele>265</ele>
        <time>2017-04-21T10:56:32Z</time>
      </trkpt>
      <trkpt lat="45.94296" lon="4.82669">
        <ele>265</ele>
        <time>2017-04-21T10:56:33Z</time>
      </trkpt>
      <trkpt lat="45.94296" lon="4.8266">
        <ele>265</ele>
        <time>2017-04-21T10:56:34Z</time>
      </trkpt>
      <trkpt lat="45.94296" lon="4.82651">
        <ele>265</ele>
        <time>2017-04-21T10:56:35Z</time>
      </trkpt>
      <trkpt lat="45.94296" lon="4.82642">
        <ele>265</ele>
        <time>2017-04-21T10:56:36Z</time>
      </trkpt>
      <trkpt lat="45.94295" lon="4.82634">
        <ele>265</ele>
        <time>2017-04-21T10:56:37Z</time>
      </trkpt>
      <trkpt lat="45.94295" lon="4.82626">
        <ele>265</ele>
        <time>2017-04-21T10:56:38Z</time>
      </trkpt>
      <trkpt lat="45.94295" lon="4.82618">
        <ele>265</ele>
        <time>2017-04-21T10:56:39Z</time>
      </trkpt>
      <trkpt lat="45.94295" lon="4.8261">
        <ele>265</ele>
        <time>2017-04-21T10:56:40Z</time>
      </trkpt>
      <trkpt lat="45.94296" lon="4.82603">
        <ele>265</ele>
        <time>2017-04-21T10:56:41Z</time>
      </trkpt>
      <trkpt lat="45.94296" lon="4.82594">
        <ele>265</ele>
        <time>2017-04-21T10:56:42Z</time>
      </trkpt>
      <trkpt lat="45.94296" lon="4.82585">
        <ele>265</ele>
        <time>2017-04-21T10:56:43Z</time>
      </trkpt>
      <trkpt lat="45.94296" lon="4.82576">
        <ele>264</ele>
        <time>2017-04-21T10:56:44Z</time>
      </trkpt>
      <trkpt lat="45.94296" lon="4.82567">
        <ele>264</ele>
        <time>2017-04-21T10:56:45Z</time>
      </trkpt>
      <trkpt lat="45.94296" lon="4.82558">
        <ele>264</ele>
        <time>2017-04-21T10:56:46Z</time>
      </trkpt>
      <trkpt lat="45.94296" lon="4.82549">
        <ele>264</ele>
        <time>2017-04-21T10:56:47Z</time>
      </trkpt>
      <trkpt lat="45.94296" lon="4.82539">
        <ele>264</ele>
        <time>2017-04-21T10:56:48Z</time>
      </trkpt>
      <trkpt lat="45.94296" lon="4.82529">
        <ele>264</ele>
        <time>2017-04-21T10:56:49Z</time>
      </trkpt>
      <trkpt lat="45.94296" lon="4.8252">
        <ele>264</ele>
        <time>2017-04-21T10:56:50Z</time>
      </trkpt>
      <trkpt lat="45.94296" lon="4.82511">
        <ele>264</ele>
        <time>2017-04-21T10:56:51Z</time>
      </trkpt>
      <trkpt lat="45.94295" lon="4.82503">
        <ele>264</ele>
        <time>2017-04-21T10:56:52Z</time>
      </trkpt>
      <trkpt lat="45.94295" lon="4.82494">
        <ele>264</ele>
        <time>2017-04-21T10:56:53Z</time>
      </trkpt>
      <trkpt lat="45.94295" lon="4.82485">
        <ele>264</ele>
        <time>2017-04-21T10:56:54Z</time>
      </trkpt>
      <trkpt lat="45.94295" lon="4.82477">
        <ele>264</ele>
        <time>2017-04-21T10:56:55Z</time>
      </trkpt>
      <trkpt lat="45.94294" lon="4.82468">
        <ele>264</ele>
        <time>2017-04-21T10:56:56Z</time>
      </trkpt>
      <trkpt lat="45.94294" lon="4.82459">
        <ele>264</ele>
        <time>2017-04-21T10:56:57Z</time>
      </trkpt>
      <trkpt lat="45.94294" lon="4.82451">
        <ele>264</ele>
        <time>2017-04-21T10:56:58Z</time>
      </trkpt>
      <trkpt lat="45.94293" lon="4.82442">
        <ele>264</ele>
        <time>2017-04-21T10:56:59Z</time>
      </trkpt>
      <trkpt lat="45.94293" lon="4.82433">
        <ele>264</ele>
        <time>2017-04-21T10:57:00Z</time>
      </trkpt>
      <trkpt lat="45.94293" lon="4.82423">
        <ele>264</ele>
        <time>2017-04-21T10:57:01Z</time>
      </trkpt>
      <trkpt lat="45.94292" lon="4.82414">
        <ele>264</ele>
        <time>2017-04-21T10:57:02Z</time>
      </trkpt>
      <trkpt lat="45.94292" lon="4.82404">
        <ele>264</ele>
        <time>2017-04-21T10:57:03Z</time>
      </trkpt>
      <trkpt lat="45.94291" lon="4.82394">
        <ele>264</ele>
        <time>2017-04-21T10:57:04Z</time>
      </trkpt>
      <trkpt lat="45.94291" lon="4.82384">
        <ele>264</ele>
        <time>2017-04-21T10:57:05Z</time>
      </trkpt>
      <trkpt lat="45.9429" lon="4.82374">
        <ele>264</ele>
        <time>2017-04-21T10:57:06Z</time>
      </trkpt>
      <trkpt lat="45.9429" lon="4.82364">
        <ele>264</ele>
        <time>2017-04-21T10:57:07Z</time>
      </trkpt>
      <trkpt lat="45.94289" lon="4.82355">
        <ele>264</ele>
        <time>2017-04-21T10:57:08Z</time>
      </trkpt>
      <trkpt lat="45.94289" lon="4.82345">
        <ele>264</ele>
        <time>2017-04-21T10:57:09Z</time>
      </trkpt>
      <trkpt lat="45.94288" lon="4.82336">
        <ele>264</ele>
        <time>2017-04-21T10:57:10Z</time>
      </trkpt>
      <trkpt lat="45.94288" lon="4.82326">
        <ele>265</ele>
        <time>2017-04-21T10:57:11Z</time>
      </trkpt>
      <trkpt lat="45.94287" lon="4.82316">
        <ele>265</ele>
        <time>2017-04-21T10:57:12Z</time>
      </trkpt>
      <trkpt lat="45.94287" lon="4.82307">
        <ele>265</ele>
        <time>2017-04-21T10:57:13Z</time>
      </trkpt>
      <trkpt lat="45.94287" lon="4.82297">
        <ele>265</ele>
        <time>2017-04-21T10:57:14Z</time>
      </trkpt>
      <trkpt lat="45.94286" lon="4.82288">
        <ele>265</ele>
        <time>2017-04-21T10:57:15Z</time>
      </trkpt>
      <trkpt lat="45.94286" lon="4.82278">
        <ele>265</ele>
        <time>2017-04-21T10:57:16Z</time>
      </trkpt>
      <trkpt lat="45.94285" lon="4.82269">
        <ele>265</ele>
        <time>2017-04-21T10:57:17Z</time>
      </trkpt>
      <trkpt lat="45.94285" lon="4.8226">
        <ele>265</ele>
        <time>2017-04-21T10:57:18Z</time>
      </trkpt>
      <trkpt lat="45.94284" lon="4.82251">
        <ele>265</ele>
        <time>2017-04-21T10:57:19Z</time>
      </trkpt>
      <trkpt lat="45.94284" lon="4.82241">
        <ele>264</ele>
        <time>2017-04-21T10:57:20Z</time>
      </trkpt>
      <trkpt lat="45.94283" lon="4.82231">
        <ele>264</ele>
        <time>2017-04-21T10:57:21Z</time>
      </trkpt>
      <trkpt lat="45.94283" lon="4.82221">
        <ele>264</ele>
        <time>2017-04-21T10:57:22Z</time>
      </trkpt>
      <trkpt lat="45.94282" lon="4.82212">
        <ele>264</ele>
        <time>2017-04-21T10:57:23Z</time>
      </trkpt>
      <trkpt lat="45.94281" lon="4.82201">
        <ele>264</ele>
        <time>2017-04-21T10:57:24Z</time>
      </trkpt>
      <trkpt lat="45.9428" lon="4.82191">
        <ele>264</ele>
        <time>2017-04-21T10:57:25Z</time>
      </trkpt>
      <trkpt lat="45.94278" lon="4.82181">
        <ele>264</ele>
        <time>2017-04-21T10:57:26Z</time>
      </trkpt>
      <trkpt lat="45.94276" lon="4.82171">
        <ele>264</ele>
        <time>2017-04-21T10:57:27Z</time>
      </trkpt>
      <trkpt lat="45.94274" lon="4.82161">
        <ele>263</ele>
        <time>2017-04-21T10:57:28Z</time>
      </trkpt>
      <trkpt lat="45.94272" lon="4.82151">
        <ele>263</ele>
        <time>2017-04-21T10:57:29Z</time>
      </trkpt>
      <trkpt lat="45.94271" lon="4.82141">
        <ele>263</ele>
        <time>2017-04-21T10:57:30Z</time>
      </trkpt>
      <trkpt lat="45.94269" lon="4.82131">
        <ele>263</ele>
        <time>2017-04-21T10:57:31Z</time>
      </trkpt>
      <trkpt lat="45.94267" lon="4.82122">
        <ele>263</ele>
        <time>2017-04-21T10:57:32Z</time>
      </trkpt>
      <trkpt lat="45.94265" lon="4.82113">
        <ele>263</ele>
        <time>2017-04-21T10:57:33Z</time>
      </trkpt>
      <trkpt lat="45.94263" lon="4.82104">
        <ele>262</ele>
        <time>2017-04-21T10:57:34Z</time>
      </trkpt>
      <trkpt lat="45.94261" lon="4.82095">
        <ele>262</ele>
        <time>2017-04-21T10:57:35Z</time>
      </trkpt>
      <trkpt lat="45.94259" lon="4.82086">
        <ele>262</ele>
        <time>2017-04-21T10:57:36Z</time>
      </trkpt>
      <trkpt lat="45.94257" lon="4.82078">
        <ele>262</ele>
        <time>2017-04-21T10:57:37Z</time>
      </trkpt>
      <trkpt lat="45.94255" lon="4.82069">
        <ele>262</ele>
        <time>2017-04-21T10:57:38Z</time>
      </trkpt>
      <trkpt lat="45.94252" lon="4.8206">
        <ele>262</ele>
        <time>2017-04-21T10:57:39Z</time>
      </trkpt>
      <trkpt lat="45.9425" lon="4.8205">
        <ele>262</ele>
        <time>2017-04-21T10:57:40Z</time>
      </trkpt>
      <trkpt lat="45.94248" lon="4.8204">
        <ele>263</ele>
        <time>2017-04-21T10:57:41Z</time>
      </trkpt>
      <trkpt lat="45.94246" lon="4.8203">
        <ele>263</ele>
        <time>2017-04-21T10:57:42Z</time>
      </trkpt>
      <trkpt lat="45.94244" lon="4.82021">
        <ele>263</ele>
        <time>2017-04-21T10:57:43Z</time>
      </trkpt>
      <trkpt lat="45.94242" lon="4.82011">
        <ele>263</ele>
        <time>2017-04-21T10:57:44Z</time>
      </trkpt>
      <trkpt lat="45.9424" lon="4.82001">
        <ele>263</ele>
        <time>2017-04-21T10:57:45Z</time>
      </trkpt>
      <trkpt lat="45.94238" lon="4.81992">
        <ele>263</ele>
        <time>2017-04-21T10:57:46Z</time>
      </trkpt>
      <trkpt lat="45.94236" lon="4.81983">
        <ele>263</ele>
        <time>2017-04-21T10:57:47Z</time>
      </trkpt>
      <trkpt lat="45.94234" lon="4.81974">
        <ele>263</ele>
        <time>2017-04-21T10:57:48Z</time>
      </trkpt>
      <trkpt lat="45.94232" lon="4.81966">
        <ele>264</ele>
        <time>2017-04-21T10:57:49Z</time>
      </trkpt>
      <trkpt lat="45.94231" lon="4.81957">
        <ele>264</ele>
        <time>2017-04-21T10:57:50Z</time>
      </trkpt>
      <trkpt lat="45.94229" lon="4.81948">
        <ele>264</ele>
        <time>2017-04-21T10:57:51Z</time>
      </trkpt>
      <trkpt lat="45.94228" lon="4.81941">
        <ele>264</ele>
        <time>2017-04-21T10:57:52Z</time>
      </trkpt>
      <trkpt lat="45.94226" lon="4.81933">
        <ele>264</ele>
        <time>2017-04-21T10:57:53Z</time>
      </trkpt>
      <trkpt lat="45.94224" lon="4.81925">
        <ele>264</ele>
        <time>2017-04-21T10:57:54Z</time>
      </trkpt>
      <trkpt lat="45.94223" lon="4.81917">
        <ele>264</ele>
        <time>2017-04-21T10:57:55Z</time>
      </trkpt>
      <trkpt lat="45.94221" lon="4.81909">
        <ele>264</ele>
        <time>2017-04-21T10:57:56Z</time>
      </trkpt>
      <trkpt lat="45.94219" lon="4.81901">
        <ele>265</ele>
        <time>2017-04-21T10:57:57Z</time>
      </trkpt>
      <trkpt lat="45.94217" lon="4.81893">
        <ele>265</ele>
        <time>2017-04-21T10:57:58Z</time>
      </trkpt>
      <trkpt lat="45.94215" lon="4.81885">
        <ele>265</ele>
        <time>2017-04-21T10:57:59Z</time>
      </trkpt>
      <trkpt lat="45.94213" lon="4.81877">
        <ele>265</ele>
        <time>2017-04-21T10:58:00Z</time>
      </trkpt>
      <trkpt lat="45.94211" lon="4.81868">
        <ele>265</ele>
        <time>2017-04-21T10:58:01Z</time>
      </trkpt>
      <trkpt lat="45.94209" lon="4.8186">
        <ele>265</ele>
        <time>2017-04-21T10:58:02Z</time>
      </trkpt>
      <trkpt lat="45.94207" lon="4.81852">
        <ele>265</ele>
        <time>2017-04-21T10:58:03Z</time>
      </trkpt>
      <trkpt lat="45.94206" lon="4.81844">
        <ele>266</ele>
        <time>2017-04-21T10:58:04Z</time>
      </trkpt>
      <trkpt lat="45.94204" lon="4.81837">
        <ele>266</ele>
        <time>2017-04-21T10:58:05Z</time>
      </trkpt>
      <trkpt lat="45.94203" lon="4.81829">
        <ele>266</ele>
        <time>2017-04-21T10:58:06Z</time>
      </trkpt>
      <trkpt lat="45.94202" lon="4.81821">
        <ele>266</ele>
        <time>2017-04-21T10:58:07Z</time>
      </trkpt>
      <trkpt lat="45.94202" lon="4.81813">
        <ele>266</ele>
        <time>2017-04-21T10:58:08Z</time>
      </trkpt>
      <trkpt lat="45.94202" lon="4.81805">
        <ele>266</ele>
        <time>2017-04-21T10:58:09Z</time>
      </trkpt>
      <trkpt lat="45.94202" lon="4.81796">
        <ele>266</ele>
        <time>2017-04-21T10:58:10Z</time>
      </trkpt>
      <trkpt lat="45.94204" lon="4.81788">
        <ele>266</ele>
        <time>2017-04-21T10:58:11Z</time>
      </trkpt>
      <trkpt lat="45.94205" lon="4.8178">
        <ele>266</ele>
        <time>2017-04-21T10:58:12Z</time>
      </trkpt>
      <trkpt lat="45.94207" lon="4.81773">
        <ele>265</ele>
        <time>2017-04-21T10:58:13Z</time>
      </trkpt>
      <trkpt lat="45.94209" lon="4.81766">
        <ele>265</ele>
        <time>2017-04-21T10:58:14Z</time>
      </trkpt>
      <trkpt lat="45.94212" lon="4.81759">
        <ele>265</ele>
        <time>2017-04-21T10:58:15Z</time>
      </trkpt>
      <trkpt lat="45.94216" lon="4.81754">
        <ele>265</ele>
        <time>2017-04-21T10:58:16Z</time>
      </trkpt>
      <trkpt lat="45.94219" lon="4.81748">
        <ele>265</ele>
        <time>2017-04-21T10:58:17Z</time>
      </trkpt>
      <trkpt lat="45.94221" lon="4.81741">
        <ele>265</ele>
        <time>2017-04-21T10:58:18Z</time>
      </trkpt>
      <trkpt lat="45.94222" lon="4.81734">
        <ele>265</ele>
        <time>2017-04-21T10:58:19Z</time>
      </trkpt>
      <trkpt lat="45.94221" lon="4.81726">
        <ele>266</ele>
        <time>2017-04-21T10:58:20Z</time>
      </trkpt>
      <trkpt lat="45.94218" lon="4.81719">
        <ele>266</ele>
        <time>2017-04-21T10:58:21Z</time>
      </trkpt>
      <trkpt lat="45.94215" lon="4.81714">
        <ele>266</ele>
        <time>2017-04-21T10:58:22Z</time>
      </trkpt>
      <trkpt lat="45.9421" lon="4.8171">
        <ele>266</ele>
        <time>2017-04-21T10:58:23Z</time>
      </trkpt>
      <trkpt lat="45.94205" lon="4.81706">
        <ele>266</ele>
        <time>2017-04-21T10:58:24Z</time>
      </trkpt>
      <trkpt lat="45.942" lon="4.81703">
        <ele>267</ele>
        <time>2017-04-21T10:58:25Z</time>
      </trkpt>
      <trkpt lat="45.94194" lon="4.81699">
        <ele>267</ele>
        <time>2017-04-21T10:58:26Z</time>
      </trkpt>
      <trkpt lat="45.9419" lon="4.81694">
        <ele>267</ele>
        <time>2017-04-21T10:58:27Z</time>
      </trkpt>
      <trkpt lat="45.94185" lon="4.81687">
        <ele>267</ele>
        <time>2017-04-21T10:58:28Z</time>
      </trkpt>
      <trkpt lat="45.94181" lon="4.81679">
        <ele>268</ele>
        <time>2017-04-21T10:58:29Z</time>
      </trkpt>
      <trkpt lat="45.94178" lon="4.8167">
        <ele>268</ele>
        <time>2017-04-21T10:58:30Z</time>
      </trkpt>
      <trkpt lat="45.94175" lon="4.81659">
        <ele>268</ele>
        <time>2017-04-21T10:58:31Z</time>
      </trkpt>
      <trkpt lat="45.94172" lon="4.81647">
        <ele>268</ele>
        <time>2017-04-21T10:58:32Z</time>
      </trkpt>
      <trkpt lat="45.94169" lon="4.81636">
        <ele>268</ele>
        <time>2017-04-21T10:58:33Z</time>
      </trkpt>
      <trkpt lat="45.94167" lon="4.81625">
        <ele>267</ele>
        <time>2017-04-21T10:58:34Z</time>
      </trkpt>
      <trkpt lat="45.94164" lon="4.81613">
        <ele>267</ele>
        <time>2017-04-21T10:58:35Z</time>
      </trkpt>
      <trkpt lat="45.94162" lon="4.81601">
        <ele>267</ele>
        <time>2017-04-21T10:58:36Z</time>
      </trkpt>
      <trkpt lat="45.9416" lon="4.81589">
        <ele>267</ele>
        <time>2017-04-21T10:58:37Z</time>
      </trkpt>
      <trkpt lat="45.94158" lon="4.81577">
        <ele>266</ele>
        <time>2017-04-21T10:58:38Z</time>
      </trkpt>
      <trkpt lat="45.94156" lon="4.81565">
        <ele>265</ele>
        <time>2017-04-21T10:58:39Z</time>
      </trkpt>
      <trkpt lat="45.94155" lon="4.81552">
        <ele>264</ele>
        <time>2017-04-21T10:58:40Z</time>
      </trkpt>
      <trkpt lat="45.94154" lon="4.8154">
        <ele>264</ele>
        <time>2017-04-21T10:58:41Z</time>
      </trkpt>
      <trkpt lat="45.94153" lon="4.81527">
        <ele>263</ele>
        <time>2017-04-21T10:58:42Z</time>
      </trkpt>
      <trkpt lat="45.94153" lon="4.81513">
        <ele>263</ele>
        <time>2017-04-21T10:58:43Z</time>
      </trkpt>
      <trkpt lat="45.94153" lon="4.815">
        <ele>263</ele>
        <time>2017-04-21T10:58:44Z</time>
      </trkpt>
      <trkpt lat="45.94153" lon="4.81487">
        <ele>259</ele>
        <time>2017-04-21T10:58:45Z</time>
      </trkpt>
      <trkpt lat="45.94153" lon="4.81473">
        <ele>258</ele>
        <time>2017-04-21T10:58:46Z</time>
      </trkpt>
      <trkpt lat="45.94154" lon="4.81459">
        <ele>257</ele>
        <time>2017-04-21T10:58:47Z</time>
      </trkpt>
      <trkpt lat="45.94157" lon="4.81443">
        <ele>256</ele>
        <time>2017-04-21T10:58:48Z</time>
      </trkpt>
      <trkpt lat="45.94159" lon="4.81428">
        <ele>256</ele>
        <time>2017-04-21T10:58:49Z</time>
      </trkpt>
      <trkpt lat="45.94161" lon="4.81413">
        <ele>254</ele>
        <time>2017-04-21T10:58:50Z</time>
      </trkpt>
      <trkpt lat="45.94162" lon="4.81399">
        <ele>252</ele>
        <time>2017-04-21T10:58:51Z</time>
      </trkpt>
      <trkpt lat="45.94163" lon="4.81384">
        <ele>251</ele>
        <time>2017-04-21T10:58:52Z</time>
      </trkpt>
      <trkpt lat="45.94163" lon="4.8137">
        <ele>251</ele>
        <time>2017-04-21T10:58:53Z</time>
      </trkpt>
      <trkpt lat="45.94164" lon="4.81356">
        <ele>251</ele>
        <time>2017-04-21T10:58:54Z</time>
      </trkpt>
      <trkpt lat="45.94165" lon="4.8134">
        <ele>251</ele>
        <time>2017-04-21T10:58:55Z</time>
      </trkpt>
      <trkpt lat="45.94165" lon="4.81326">
        <ele>250</ele>
        <time>2017-04-21T10:58:56Z</time>
      </trkpt>
      <trkpt lat="45.94166" lon="4.8131">
        <ele>248</ele>
        <time>2017-04-21T10:58:57Z</time>
      </trkpt>
      <trkpt lat="45.94165" lon="4.81294">
        <ele>247</ele>
        <time>2017-04-21T10:58:58Z</time>
      </trkpt>
      <trkpt lat="45.94163" lon="4.81279">
        <ele>247</ele>
        <time>2017-04-21T10:58:59Z</time>
      </trkpt>
      <trkpt lat="45.94161" lon="4.81264">
        <ele>248</ele>
        <time>2017-04-21T10:59:00Z</time>
      </trkpt>
      <trkpt lat="45.94158" lon="4.81248">
        <ele>248</ele>
        <time>2017-04-21T10:59:01Z</time>
      </trkpt>
      <trkpt lat="45.94154" lon="4.81234">
        <ele>246</ele>
        <time>2017-04-21T10:59:02Z</time>
      </trkpt>
      <trkpt lat="45.9415" lon="4.81218">
        <ele>245</ele>
        <time>2017-04-21T10:59:03Z</time>
      </trkpt>
      <trkpt lat="45.94146" lon="4.81203">
        <ele>244</ele>
        <time>2017-04-21T10:59:04Z</time>
      </trkpt>
      <trkpt lat="45.94142" lon="4.81188">
        <ele>244</ele>
        <time>2017-04-21T10:59:05Z</time>
      </trkpt>
      <trkpt lat="45.94138" lon="4.81173">
        <ele>244</ele>
        <time>2017-04-21T10:59:06Z</time>
      </trkpt>
      <trkpt lat="45.94132" lon="4.8116">
        <ele>243</ele>
        <time>2017-04-21T10:59:07Z</time>
      </trkpt>
      <trkpt lat="45.94126" lon="4.81147">
        <ele>243</ele>
        <time>2017-04-21T10:59:08Z</time>
      </trkpt>
      <trkpt lat="45.94119" lon="4.81135">
        <ele>243</ele>
        <time>2017-04-21T10:59:09Z</time>
      </trkpt>
      <trkpt lat="45.94114" lon="4.81122">
        <ele>242</ele>
        <time>2017-04-21T10:59:10Z</time>
      </trkpt>
      <trkpt lat="45.94108" lon="4.8111">
        <ele>242</ele>
        <time>2017-04-21T10:59:11Z</time>
      </trkpt>
      <trkpt lat="45.94102" lon="4.81097">
        <ele>241</ele>
        <time>2017-04-21T10:59:12Z</time>
      </trkpt>
      <trkpt lat="45.94095" lon="4.81084">
        <ele>240</ele>
        <time>2017-04-21T10:59:13Z</time>
      </trkpt>
      <trkpt lat="45.9409" lon="4.81071">
        <ele>241</ele>
        <time>2017-04-21T10:59:14Z</time>
      </trkpt>
      <trkpt lat="45.94085" lon="4.81057">
        <ele>243</ele>
        <time>2017-04-21T10:59:15Z</time>
      </trkpt>
      <trkpt lat="45.94081" lon="4.81043">
        <ele>233</ele>
        <time>2017-04-21T10:59:16Z</time>
      </trkpt>
      <trkpt lat="45.94077" lon="4.81029">
        <ele>234</ele>
        <time>2017-04-21T10:59:17Z</time>
      </trkpt>
      <trkpt lat="45.94074" lon="4.81014">
        <ele>235</ele>
        <time>2017-04-21T10:59:18Z</time>
      </trkpt>
      <trkpt lat="45.94072" lon="4.81">
        <ele>236</ele>
        <time>2017-04-21T10:59:19Z</time>
      </trkpt>
      <trkpt lat="45.9407" lon="4.80985">
        <ele>234</ele>
        <time>2017-04-21T10:59:20Z</time>
      </trkpt>
      <trkpt lat="45.94068" lon="4.80969">
        <ele>233</ele>
        <time>2017-04-21T10:59:21Z</time>
      </trkpt>
      <trkpt lat="45.94066" lon="4.80954">
        <ele>232</ele>
        <time>2017-04-21T10:59:22Z</time>
      </trkpt>
      <trkpt lat="45.94065" lon="4.80938">
        <ele>233</ele>
        <time>2017-04-21T10:59:23Z</time>
      </trkpt>
      <trkpt lat="45.94062" lon="4.80923">
        <ele>233</ele>
        <time>2017-04-21T10:59:24Z</time>
      </trkpt>
      <trkpt lat="45.9406" lon="4.80909">
        <ele>232</ele>
        <time>2017-04-21T10:59:25Z</time>
      </trkpt>
      <trkpt lat="45.94058" lon="4.80894">
        <ele>231</ele>
        <time>2017-04-21T10:59:26Z</time>
      </trkpt>
      <trkpt lat="45.94056" lon="4.80878">
        <ele>230</ele>
        <time>2017-04-21T10:59:27Z</time>
      </trkpt>
      <trkpt lat="45.94054" lon="4.80863">
        <ele>230</ele>
        <time>2017-04-21T10:59:28Z</time>
      </trkpt>
      <trkpt lat="45.94053" lon="4.80847">
        <ele>231</ele>
        <time>2017-04-21T10:59:29Z</time>
      </trkpt>
      <trkpt lat="45.94051" lon="4.80832">
        <ele>230</ele>
        <time>2017-04-21T10:59:30Z</time>
      </trkpt>
      <trkpt lat="45.94049" lon="4.80816">
        <ele>229</ele>
        <time>2017-04-21T10:59:31Z</time>
      </trkpt>
      <trkpt lat="45.94047" lon="4.80799">
        <ele>229</ele>
        <time>2017-04-21T10:59:32Z</time>
      </trkpt>
      <trkpt lat="45.94045" lon="4.80784">
        <ele>228</ele>
        <time>2017-04-21T10:59:33Z</time>
      </trkpt>
      <trkpt lat="45.94043" lon="4.8077">
        <ele>228</ele>
        <time>2017-04-21T10:59:34Z</time>
      </trkpt>
      <trkpt lat="45.94041" lon="4.80756">
        <ele>228</ele>
        <time>2017-04-21T10:59:35Z</time>
      </trkpt>
      <trkpt lat="45.9404" lon="4.80743">
        <ele>227</ele>
        <time>2017-04-21T10:59:36Z</time>
      </trkpt>
      <trkpt lat="45.94038" lon="4.80729">
        <ele>226</ele>
        <time>2017-04-21T10:59:37Z</time>
      </trkpt>
      <trkpt lat="45.94037" lon="4.80714">
        <ele>226</ele>
        <time>2017-04-21T10:59:38Z</time>
      </trkpt>
      <trkpt lat="45.94035" lon="4.807">
        <ele>226</ele>
        <time>2017-04-21T10:59:39Z</time>
      </trkpt>
      <trkpt lat="45.94033" lon="4.80686">
        <ele>225</ele>
        <time>2017-04-21T10:59:40Z</time>
      </trkpt>
      <trkpt lat="45.94031" lon="4.80672">
        <ele>224</ele>
        <time>2017-04-21T10:59:41Z</time>
      </trkpt>
      <trkpt lat="45.94028" lon="4.80657">
        <ele>224</ele>
        <time>2017-04-21T10:59:42Z</time>
      </trkpt>
      <trkpt lat="45.94026" lon="4.80643">
        <ele>224</ele>
        <time>2017-04-21T10:59:43Z</time>
      </trkpt>
      <trkpt lat="45.94025" lon="4.80627">
        <ele>225</ele>
        <time>2017-04-21T10:59:44Z</time>
      </trkpt>
      <trkpt lat="45.94023" lon="4.80612">
        <ele>224</ele>
        <time>2017-04-21T10:59:45Z</time>
      </trkpt>
      <trkpt lat="45.94022" lon="4.80597">
        <ele>224</ele>
        <time>2017-04-21T10:59:46Z</time>
      </trkpt>
      <trkpt lat="45.94021" lon="4.80582">
        <ele>223</ele>
        <time>2017-04-21T10:59:47Z</time>
      </trkpt>
      <trkpt lat="45.9402" lon="4.80566">
        <ele>224</ele>
        <time>2017-04-21T10:59:48Z</time>
      </trkpt>
      <trkpt lat="45.9402" lon="4.8055">
        <ele>225</ele>
        <time>2017-04-21T10:59:49Z</time>
      </trkpt>
      <trkpt lat="45.94019" lon="4.80534">
        <ele>224</ele>
        <time>2017-04-21T10:59:50Z</time>
      </trkpt>
      <trkpt lat="45.94018" lon="4.80518">
        <ele>224</ele>
        <time>2017-04-21T10:59:51Z</time>
      </trkpt>
      <trkpt lat="45.94018" lon="4.80502">
        <ele>223</ele>
        <time>2017-04-21T10:59:52Z</time>
      </trkpt>
      <trkpt lat="45.94019" lon="4.80485">
        <ele>223</ele>
        <time>2017-04-21T10:59:53Z</time>
      </trkpt>
      <trkpt lat="45.94018" lon="4.80468">
        <ele>223</ele>
        <time>2017-04-21T10:59:54Z</time>
      </trkpt>
      <trkpt lat="45.94017" lon="4.80451">
        <ele>223</ele>
        <time>2017-04-21T10:59:55Z</time>
      </trkpt>
      <trkpt lat="45.94014" lon="4.80436">
        <ele>222</ele>
        <time>2017-04-21T10:59:56Z</time>
      </trkpt>
      <trkpt lat="45.94011" lon="4.80419">
        <ele>219</ele>
        <time>2017-04-21T10:59:57Z</time>
      </trkpt>
      <trkpt lat="45.94008" lon="4.80404">
        <ele>217</ele>
        <time>2017-04-21T10:59:58Z</time>
      </trkpt>
      <trkpt lat="45.94003" lon="4.80389">
        <ele>217</ele>
        <time>2017-04-21T10:59:59Z</time>
      </trkpt>
      <trkpt lat="45.93999" lon="4.80374">
        <ele>208</ele>
        <time>2017-04-21T11:00:00Z</time>
      </trkpt>
      <trkpt lat="45.93994" lon="4.80359">
        <ele>207</ele>
        <time>2017-04-21T11:00:01Z</time>
      </trkpt>
      <trkpt lat="45.9399" lon="4.80342">
        <ele>206</ele>
        <time>2017-04-21T11:00:02Z</time>
      </trkpt>
      <trkpt lat="45.93985" lon="4.80326">
        <ele>204</ele>
        <time>2017-04-21T11:00:03Z</time>
      </trkpt>
      <trkpt lat="45.93982" lon="4.8031">
        <ele>203</ele>
        <time>2017-04-21T11:00:04Z</time>
      </trkpt>
      <trkpt lat="45.93977" lon="4.80293">
        <ele>203</ele>
        <time>2017-04-21T11:00:05Z</time>
      </trkpt>
      <trkpt lat="45.93973" lon="4.80278">
        <ele>202</ele>
        <time>2017-04-21T11:00:06Z</time>
      </trkpt>
      <trkpt lat="45.93968" lon="4.80263">
        <ele>202</ele>
        <time>2017-04-21T11:00:07Z</time>
      </trkpt>
      <trkpt lat="45.93965" lon="4.80248">
        <ele>204</ele>
        <time>2017-04-21T11:00:08Z</time>
      </trkpt>
      <trkpt lat="45.93961" lon="4.80232">
        <ele>204</ele>
        <time>2017-04-21T11:00:09Z</time>
      </trkpt>
      <trkpt lat="45.93957" lon="4.80218">
        <ele>205</ele>
        <time>2017-04-21T11:00:10Z</time>
      </trkpt>
      <trkpt lat="45.93954" lon="4.80203">
        <ele>205</ele>
        <time>2017-04-21T11:00:11Z</time>
      </trkpt>
      <trkpt lat="45.9395" lon="4.80189">
        <ele>206</ele>
        <time>2017-04-21T11:00:12Z</time>
      </trkpt>
      <trkpt lat="45.93947" lon="4.80175">
        <ele>206</ele>
        <time>2017-04-21T11:00:13Z</time>
      </trkpt>
      <trkpt lat="45.93945" lon="4.80162">
        <ele>208</ele>
        <time>2017-04-21T11:00:14Z</time>
      </trkpt>
      <trkpt lat="45.93943" lon="4.80149">
        <ele>208</ele>
        <time>2017-04-21T11:00:15Z</time>
      </trkpt>
      <trkpt lat="45.93942" lon="4.80136">
        <ele>208</ele>
        <time>2017-04-21T11:00:16Z</time>
      </trkpt>
      <trkpt lat="45.9394" lon="4.80124">
        <ele>208</ele>
        <time>2017-04-21T11:00:17Z</time>
      </trkpt>
      <trkpt lat="45.93939" lon="4.80111">
        <ele>208</ele>
        <time>2017-04-21T11:00:18Z</time>
      </trkpt>
      <trkpt lat="45.93939" lon="4.80099">
        <ele>208</ele>
        <time>2017-04-21T11:00:19Z</time>
      </trkpt>
      <trkpt lat="45.93938" lon="4.80087">
        <ele>208</ele>
        <time>2017-04-21T11:00:20Z</time>
      </trkpt>
      <trkpt lat="45.93938" lon="4.80076">
        <ele>207</ele>
        <time>2017-04-21T11:00:21Z</time>
      </trkpt>
      <trkpt lat="45.93938" lon="4.80064">
        <ele>207</ele>
        <time>2017-04-21T11:00:22Z</time>
      </trkpt>
      <trkpt lat="45.93939" lon="4.80053">
        <ele>207</ele>
        <time>2017-04-21T11:00:23Z</time>
      </trkpt>
      <trkpt lat="45.9394" lon="4.80042">
        <ele>207</ele>
        <time>2017-04-21T11:00:24Z</time>
      </trkpt>
      <trkpt lat="45.93941" lon="4.80032">
        <ele>207</ele>
        <time>2017-04-21T11:00:25Z</time>
      </trkpt>
      <trkpt lat="45.93942" lon="4.80021">
        <ele>206</ele>
        <time>2017-04-21T11:00:26Z</time>
      </trkpt>
      <trkpt lat="45.93943" lon="4.80011">
        <ele>206</ele>
        <time>2017-04-21T11:00:27Z</time>
      </trkpt>
      <trkpt lat="45.93945" lon="4.80001">
        <ele>206</ele>
        <time>2017-04-21T11:00:28Z</time>
      </trkpt>
      <trkpt lat="45.93946" lon="4.79991">
        <ele>205</ele>
        <time>2017-04-21T11:00:29Z</time>
      </trkpt>
      <trkpt lat="45.93947" lon="4.79981">
        <ele>205</ele>
        <time>2017-04-21T11:00:30Z</time>
      </trkpt>
      <trkpt lat="45.93949" lon="4.79972">
        <ele>205</ele>
        <time>2017-04-21T11:00:31Z</time>
      </trkpt>
      <trkpt lat="45.9395" lon="4.79963">
        <ele>205</ele>
        <time>2017-04-21T11:00:32Z</time>
      </trkpt>
      <trkpt lat="45.93951" lon="4.79953">
        <ele>205</ele>
        <time>2017-04-21T11:00:33Z</time>
      </trkpt>
      <trkpt lat="45.93953" lon="4.79943">
        <ele>205</ele>
        <time>2017-04-21T11:00:34Z</time>
      </trkpt>
      <trkpt lat="45.93954" lon="4.79933">
        <ele>205</ele>
        <time>2017-04-21T11:00:35Z</time>
      </trkpt>
      <trkpt lat="45.93956" lon="4.79924">
        <ele>205</ele>
        <time>2017-04-21T11:00:36Z</time>
      </trkpt>
      <trkpt lat="45.93957" lon="4.79914">
        <ele>205</ele>
        <time>2017-04-21T11:00:37Z</time>
      </trkpt>
      <trkpt lat="45.93959" lon="4.79905">
        <ele>206</ele>
        <time>2017-04-21T11:00:38Z</time>
      </trkpt>
      <trkpt lat="45.9396" lon="4.79897">
        <ele>206</ele>
        <time>2017-04-21T11:00:39Z</time>
      </trkpt>
      <trkpt lat="45.93961" lon="4.79889">
        <ele>206</ele>
        <time>2017-04-21T11:00:40Z</time>
      </trkpt>
      <trkpt lat="45.93961" lon="4.79881">
        <ele>206</ele>
        <time>2017-04-21T11:00:41Z</time>
      </trkpt>
      <trkpt lat="45.93963" lon="4.79872">
        <ele>206</ele>
        <time>2017-04-21T11:00:42Z</time>
      </trkpt>
      <trkpt lat="45.93964" lon="4.79863">
        <ele>206</ele>
        <time>2017-04-21T11:00:43Z</time>
      </trkpt>
      <trkpt lat="45.93965" lon="4.79854">
        <ele>206</ele>
        <time>2017-04-21T11:00:44Z</time>
      </trkpt>
      <trkpt lat="45.93966" lon="4.79845">
        <ele>206</ele>
        <time>2017-04-21T11:00:45Z</time>
      </trkpt>
      <trkpt lat="45.93968" lon="4.79835">
        <ele>206</ele>
        <time>2017-04-21T11:00:46Z</time>
      </trkpt>
      <trkpt lat="45.9397" lon="4.79826">
        <ele>207</ele>
        <time>2017-04-21T11:00:47Z</time>
      </trkpt>
      <trkpt lat="45.93971" lon="4.79816">
        <ele>207</ele>
        <time>2017-04-21T11:00:48Z</time>
      </trkpt>
      <trkpt lat="45.93973" lon="4.79807">
        <ele>207</ele>
        <time>2017-04-21T11:00:49Z</time>
      </trkpt>
      <trkpt lat="45.93974" lon="4.79797">
        <ele>206</ele>
        <time>2017-04-21T11:00:50Z</time>
      </trkpt>
      <trkpt lat="45.93974" lon="4.79787">
        <ele>206</ele>
        <time>2017-04-21T11:00:51Z</time>
      </trkpt>
      <trkpt lat="45.93974" lon="4.79778">
        <ele>206</ele>
        <time>2017-04-21T11:00:52Z</time>
      </trkpt>
      <trkpt lat="45.93974" lon="4.79769">
        <ele>206</ele>
        <time>2017-04-21T11:00:53Z</time>
      </trkpt>
      <trkpt lat="45.93974" lon="4.7976">
        <ele>206</ele>
        <time>2017-04-21T11:00:54Z</time>
      </trkpt>
      <trkpt lat="45.93973" lon="4.7975">
        <ele>206</ele>
        <time>2017-04-21T11:00:55Z</time>
      </trkpt>
      <trkpt lat="45.93972" lon="4.79741">
        <ele>207</ele>
        <time>2017-04-21T11:00:56Z</time>
      </trkpt>
      <trkpt lat="45.93971" lon="4.79732">
        <ele>207</ele>
        <time>2017-04-21T11:00:57Z</time>
      </trkpt>
      <trkpt lat="45.93971" lon="4.79723">
        <ele>207</ele>
        <time>2017-04-21T11:00:58Z</time>
      </trkpt>
      <trkpt lat="45.93969" lon="4.79714">
        <ele>207</ele>
        <time>2017-04-21T11:00:59Z</time>
      </trkpt>
      <trkpt lat="45.93968" lon="4.79705">
        <ele>207</ele>
        <time>2017-04-21T11:01:00Z</time>
      </trkpt>
      <trkpt lat="45.93968" lon="4.79696">
        <ele>207</ele>
        <time>2017-04-21T11:01:01Z</time>
      </trkpt>
      <trkpt lat="45.93967" lon="4.79686">
        <ele>207</ele>
        <time>2017-04-21T11:01:02Z</time>
      </trkpt>
      <trkpt lat="45.93966" lon="4.79676">
        <ele>207</ele>
        <time>2017-04-21T11:01:03Z</time>
      </trkpt>
      <trkpt lat="45.93965" lon="4.79666">
        <ele>207</ele>
        <time>2017-04-21T11:01:04Z</time>
      </trkpt>
      <trkpt lat="45.93965" lon="4.79657">
        <ele>207</ele>
        <time>2017-04-21T11:01:05Z</time>
      </trkpt>
      <trkpt lat="45.93964" lon="4.79647">
        <ele>207</ele>
        <time>2017-04-21T11:01:06Z</time>
      </trkpt>
      <trkpt lat="45.93963" lon="4.79637">
        <ele>207</ele>
        <time>2017-04-21T11:01:07Z</time>
      </trkpt>
      <trkpt lat="45.93962" lon="4.79628">
        <ele>207</ele>
        <time>2017-04-21T11:01:08Z</time>
      </trkpt>
      <trkpt lat="45.93961" lon="4.79619">
        <ele>207</ele>
        <time>2017-04-21T11:01:09Z</time>
      </trkpt>
      <trkpt lat="45.93961" lon="4.79609">
        <ele>207</ele>
        <time>2017-04-21T11:01:10Z</time>
      </trkpt>
      <trkpt lat="45.9396" lon="4.79599">
        <ele>207</ele>
        <time>2017-04-21T11:01:11Z</time>
      </trkpt>
      <trkpt lat="45.93958" lon="4.7959">
        <ele>207</ele>
        <time>2017-04-21T11:01:12Z</time>
      </trkpt>
      <trkpt lat="45.93957" lon="4.7958">
        <ele>205</ele>
        <time>2017-04-21T11:01:13Z</time>
      </trkpt>
      <trkpt lat="45.93956" lon="4.7957">
        <ele>205</ele>
        <time>2017-04-21T11:01:14Z</time>
      </trkpt>
      <trkpt lat="45.93956" lon="4.7956">
        <ele>205</ele>
        <time>2017-04-21T11:01:15Z</time>
      </trkpt>
      <trkpt lat="45.93955" lon="4.7955">
        <ele>205</ele>
        <time>2017-04-21T11:01:16Z</time>
      </trkpt>
      <trkpt lat="45.93955" lon="4.79539">
        <ele>205</ele>
        <time>2017-04-21T11:01:17Z</time>
      </trkpt>
      <trkpt lat="45.93954" lon="4.79529">
        <ele>204</ele>
        <time>2017-04-21T11:01:18Z</time>
      </trkpt>
      <trkpt lat="45.93954" lon="4.79518">
        <ele>204</ele>
        <time>2017-04-21T11:01:19Z</time>
      </trkpt>
      <trkpt lat="45.93954" lon="4.79507">
        <ele>204</ele>
        <time>2017-04-21T11:01:20Z</time>
      </trkpt>
      <trkpt lat="45.93954" lon="4.79495">
        <ele>203</ele>
        <time>2017-04-21T11:01:21Z</time>
      </trkpt>
      <trkpt lat="45.93953" lon="4.79484">
        <ele>203</ele>
        <time>2017-04-21T11:01:22Z</time>
      </trkpt>
      <trkpt lat="45.93954" lon="4.79472">
        <ele>203</ele>
        <time>2017-04-21T11:01:23Z</time>
      </trkpt>
      <trkpt lat="45.93953" lon="4.79461">
        <ele>203</ele>
        <time>2017-04-21T11:01:24Z</time>
      </trkpt>
      <trkpt lat="45.93953" lon="4.79449">
        <ele>203</ele>
        <time>2017-04-21T11:01:25Z</time>
      </trkpt>
      <trkpt lat="45.93953" lon="4.79437">
        <ele>202</ele>
        <time>2017-04-21T11:01:26Z</time>
      </trkpt>
      <trkpt lat="45.93953" lon="4.79426">
        <ele>202</ele>
        <time>2017-04-21T11:01:27Z</time>
      </trkpt>
      <trkpt lat="45.93952" lon="4.79414">
        <ele>201</ele>
        <time>2017-04-21T11:01:28Z</time>
      </trkpt>
      <trkpt lat="45.93952" lon="4.79403">
        <ele>201</ele>
        <time>2017-04-21T11:01:29Z</time>
      </trkpt>
      <trkpt lat="45.93951" lon="4.79393">
        <ele>201</ele>
        <time>2017-04-21T11:01:30Z</time>
      </trkpt>
      <trkpt lat="45.93951" lon="4.79381">
        <ele>201</ele>
        <time>2017-04-21T11:01:31Z</time>
      </trkpt>
      <trkpt lat="45.93952" lon="4.7937">
        <ele>201</ele>
        <time>2017-04-21T11:01:32Z</time>
      </trkpt>
      <trkpt lat="45.93951" lon="4.79359">
        <ele>200</ele>
        <time>2017-04-21T11:01:33Z</time>
      </trkpt>
      <trkpt lat="45.93951" lon="4.79348">
        <ele>200</ele>
        <time>2017-04-21T11:01:34Z</time>
      </trkpt>
      <trkpt lat="45.93951" lon="4.79337">
        <ele>200</ele>
        <time>2017-04-21T11:01:35Z</time>
      </trkpt>
      <trkpt lat="45.93951" lon="4.79325">
        <ele>198</ele>
        <time>2017-04-21T11:01:36Z</time>
      </trkpt>
      <trkpt lat="45.93951" lon="4.79314">
        <ele>198</ele>
        <time>2017-04-21T11:01:37Z</time>
      </trkpt>
      <trkpt lat="45.93951" lon="4.79302">
        <ele>198</ele>
        <time>2017-04-21T11:01:38Z</time>
      </trkpt>
      <trkpt lat="45.93951" lon="4.79292">
        <ele>198</ele>
        <time>2017-04-21T11:01:39Z</time>
      </trkpt>
      <trkpt lat="45.93951" lon="4.79281">
        <ele>198</ele>
        <time>2017-04-21T11:01:40Z</time>
      </trkpt>
      <trkpt lat="45.93951" lon="4.7927">
        <ele>198</ele>
        <time>2017-04-21T11:01:41Z</time>
      </trkpt>
      <trkpt lat="45.93951" lon="4.79259">
        <ele>198</ele>
        <time>2017-04-21T11:01:42Z</time>
      </trkpt>
      <trkpt lat="45.93951" lon="4.79248">
        <ele>197</ele>
        <time>2017-04-21T11:01:43Z</time>
      </trkpt>
      <trkpt lat="45.93951" lon="4.79237">
        <ele>197</ele>
        <time>2017-04-21T11:01:44Z</time>
      </trkpt>
      <trkpt lat="45.9395" lon="4.79227">
        <ele>197</ele>
        <time>2017-04-21T11:01:45Z</time>
      </trkpt>
      <trkpt lat="45.9395" lon="4.79216">
        <ele>197</ele>
        <time>2017-04-21T11:01:46Z</time>
      </trkpt>
      <trkpt lat="45.9395" lon="4.79205">
        <ele>197</ele>
        <time>2017-04-21T11:01:47Z</time>
      </trkpt>
      <trkpt lat="45.93949" lon="4.79194">
        <ele>197</ele>
        <time>2017-04-21T11:01:48Z</time>
      </trkpt>
      <trkpt lat="45.93949" lon="4.79183">
        <ele>197</ele>
        <time>2017-04-21T11:01:49Z</time>
      </trkpt>
      <trkpt lat="45.93949" lon="4.79172">
        <ele>197</ele>
        <time>2017-04-21T11:01:50Z</time>
      </trkpt>
      <trkpt lat="45.93948" lon="4.7916">
        <ele>196</ele>
        <time>2017-04-21T11:01:51Z</time>
      </trkpt>
      <trkpt lat="45.93948" lon="4.79149">
        <ele>196</ele>
        <time>2017-04-21T11:01:52Z</time>
      </trkpt>
      <trkpt lat="45.93948" lon="4.79137">
        <ele>197</ele>
        <time>2017-04-21T11:01:53Z</time>
      </trkpt>
      <trkpt lat="45.93948" lon="4.79125">
        <ele>197</ele>
        <time>2017-04-21T11:01:54Z</time>
      </trkpt>
      <trkpt lat="45.93947" lon="4.79113">
        <ele>196</ele>
        <time>2017-04-21T11:01:55Z</time>
      </trkpt>
      <trkpt lat="45.93947" lon="4.79101">
        <ele>196</ele>
        <time>2017-04-21T11:01:56Z</time>
      </trkpt>
      <trkpt lat="45.93947" lon="4.79089">
        <ele>196</ele>
        <time>2017-04-21T11:01:57Z</time>
      </trkpt>
      <trkpt lat="45.93946" lon="4.79078">
        <ele>195</ele>
        <time>2017-04-21T11:01:58Z</time>
      </trkpt>
      <trkpt lat="45.93945" lon="4.79067">
        <ele>195</ele>
        <time>2017-04-21T11:01:59Z</time>
      </trkpt>
      <trkpt lat="45.93944" lon="4.79055">
        <ele>195</ele>
        <time>2017-04-21T11:02:00Z</time>
      </trkpt>
      <trkpt lat="45.93944" lon="4.79045">
        <ele>195</ele>
        <time>2017-04-21T11:02:01Z</time>
      </trkpt>
      <trkpt lat="45.93943" lon="4.79034">
        <ele>195</ele>
        <time>2017-04-21T11:02:02Z</time>
      </trkpt>
      <trkpt lat="45.93943" lon="4.79023">
        <ele>195</ele>
        <time>2017-04-21T11:02:03Z</time>
      </trkpt>
      <trkpt lat="45.93943" lon="4.79012">
        <ele>195</ele>
        <time>2017-04-21T11:02:04Z</time>
      </trkpt>
      <trkpt lat="45.93942" lon="4.79002">
        <ele>194</ele>
        <time>2017-04-21T11:02:05Z</time>
      </trkpt>
      <trkpt lat="45.93941" lon="4.78991">
        <ele>193</ele>
        <time>2017-04-21T11:02:06Z</time>
      </trkpt>
      <trkpt lat="45.9394" lon="4.7898">
        <ele>194</ele>
        <time>2017-04-21T11:02:07Z</time>
      </trkpt>
      <trkpt lat="45.9394" lon="4.78969">
        <ele>194</ele>
        <time>2017-04-21T11:02:08Z</time>
      </trkpt>
      <trkpt lat="45.9394" lon="4.78959">
        <ele>194</ele>
        <time>2017-04-21T11:02:09Z</time>
      </trkpt>
      <trkpt lat="45.93939" lon="4.78948">
        <ele>194</ele>
        <time>2017-04-21T11:02:10Z</time>
      </trkpt>
      <trkpt lat="45.93939" lon="4.78938">
        <ele>193</ele>
        <time>2017-04-21T11:02:11Z</time>
      </trkpt>
      <trkpt lat="45.93939" lon="4.78927">
        <ele>193</ele>
        <time>2017-04-21T11:02:12Z</time>
      </trkpt>
      <trkpt lat="45.93939" lon="4.78917">
        <ele>193</ele>
        <time>2017-04-21T11:02:13Z</time>
      </trkpt>
      <trkpt lat="45.93938" lon="4.78906">
        <ele>193</ele>
        <time>2017-04-21T11:02:14Z</time>
      </trkpt>
      <trkpt lat="45.93938" lon="4.78896">
        <ele>193</ele>
        <time>2017-04-21T11:02:15Z</time>
      </trkpt>
      <trkpt lat="45.93938" lon="4.78885">
        <ele>193</ele>
        <time>2017-04-21T11:02:16Z</time>
      </trkpt>
      <trkpt lat="45.93938" lon="4.78875">
        <ele>194</ele>
        <time>2017-04-21T11:02:17Z</time>
      </trkpt>
      <trkpt lat="45.93937" lon="4.78864">
        <ele>194</ele>
        <time>2017-04-21T11:02:18Z</time>
      </trkpt>
      <trkpt lat="45.93937" lon="4.78854">
        <ele>193</ele>
        <time>2017-04-21T11:02:19Z</time>
      </trkpt>
      <trkpt lat="45.93936" lon="4.78843">
        <ele>193</ele>
        <time>2017-04-21T11:02:20Z</time>
      </trkpt>
      <trkpt lat="45.93935" lon="4.78833">
        <ele>193</ele>
        <time>2017-04-21T11:02:21Z</time>
      </trkpt>
      <trkpt lat="45.93935" lon="4.78823">
        <ele>193</ele>
        <time>2017-04-21T11:02:22Z</time>
      </trkpt>
      <trkpt lat="45.93935" lon="4.78812">
        <ele>194</ele>
        <time>2017-04-21T11:02:23Z</time>
      </trkpt>
      <trkpt lat="45.93935" lon="4.78803">
        <ele>194</ele>
        <time>2017-04-21T11:02:24Z</time>
      </trkpt>
      <trkpt lat="45.93935" lon="4.78793">
        <ele>194</ele>
        <time>2017-04-21T11:02:25Z</time>
      </trkpt>
      <trkpt lat="45.93935" lon="4.78785">
        <ele>194</ele>
        <time>2017-04-21T11:02:26Z</time>
      </trkpt>
      <trkpt lat="45.93936" lon="4.78775">
        <ele>194</ele>
        <time>2017-04-21T11:02:27Z</time>
      </trkpt>
      <trkpt lat="45.93935" lon="4.78766">
        <ele>193</ele>
        <time>2017-04-21T11:02:28Z</time>
      </trkpt>
      <trkpt lat="45.93935" lon="4.78758">
        <ele>193</ele>
        <time>2017-04-21T11:02:29Z</time>
      </trkpt>
      <trkpt lat="45.93935" lon="4.78749">
        <ele>193</ele>
        <time>2017-04-21T11:02:30Z</time>
      </trkpt>
      <trkpt lat="45.93935" lon="4.78741">
        <ele>193</ele>
        <time>2017-04-21T11:02:31Z</time>
      </trkpt>
      <trkpt lat="45.93935" lon="4.78732">
        <ele>193</ele>
        <time>2017-04-21T11:02:32Z</time>
      </trkpt>
      <trkpt lat="45.93934" lon="4.78724">
        <ele>194</ele>
        <time>2017-04-21T11:02:33Z</time>
      </trkpt>
      <trkpt lat="45.93935" lon="4.78716">
        <ele>194</ele>
        <time>2017-04-21T11:02:34Z</time>
      </trkpt>
      <trkpt lat="45.93934" lon="4.78708">
        <ele>194</ele>
        <time>2017-04-21T11:02:35Z</time>
      </trkpt>
      <trkpt lat="45.93934" lon="4.78701">
        <ele>194</ele>
        <time>2017-04-21T11:02:36Z</time>
      </trkpt>
      <trkpt lat="45.93934" lon="4.78694">
        <ele>194</ele>
        <time>2017-04-21T11:02:37Z</time>
      </trkpt>
      <trkpt lat="45.93934" lon="4.78687">
        <ele>193</ele>
        <time>2017-04-21T11:02:38Z</time>
      </trkpt>
      <trkpt lat="45.93935" lon="4.7868">
        <ele>193</ele>
        <time>2017-04-21T11:02:39Z</time>
      </trkpt>
      <trkpt lat="45.93935" lon="4.78673">
        <ele>193</ele>
        <time>2017-04-21T11:02:40Z</time>
      </trkpt>
      <trkpt lat="45.93935" lon="4.78665">
        <ele>194</ele>
        <time>2017-04-21T11:02:41Z</time>
      </trkpt>
      <trkpt lat="45.93936" lon="4.78658">
        <ele>194</ele>
        <time>2017-04-21T11:02:42Z</time>
      </trkpt>
      <trkpt lat="45.93936" lon="4.78651">
        <ele>194</ele>
        <time>2017-04-21T11:02:43Z</time>
      </trkpt>
      <trkpt lat="45.93936" lon="4.78643">
        <ele>195</ele>
        <time>2017-04-21T11:02:44Z</time>
      </trkpt>
      <trkpt lat="45.93936" lon="4.78636">
        <ele>195</ele>
        <time>2017-04-21T11:02:45Z</time>
      </trkpt>
      <trkpt lat="45.93936" lon="4.78628">
        <ele>195</ele>
        <time>2017-04-21T11:02:46Z</time>
      </trkpt>
      <trkpt lat="45.93936" lon="4.7862">
        <ele>196</ele>
        <time>2017-04-21T11:02:47Z</time>
      </trkpt>
      <trkpt lat="45.93936" lon="4.78613">
        <ele>196</ele>
        <time>2017-04-21T11:02:48Z</time>
      </trkpt>
      <trkpt lat="45.93935" lon="4.78606">
        <ele>195</ele>
        <time>2017-04-21T11:02:49Z</time>
      </trkpt>
      <trkpt lat="45.93935" lon="4.78599">
        <ele>195</ele>
        <time>2017-04-21T11:02:50Z</time>
      </trkpt>
      <trkpt lat="45.93935" lon="4.78587">
        <ele>195</ele>
        <time>2017-04-21T11:02:52Z</time>
      </trkpt>
      <trkpt lat="45.93934" lon="4.78581">
        <ele>196</ele>
        <time>2017-04-21T11:02:53Z</time>
      </trkpt>
      <trkpt lat="45.93933" lon="4.7857">
        <ele>196</ele>
        <time>2017-04-21T11:02:55Z</time>
      </trkpt>
      <trkpt lat="45.93932" lon="4.78565">
        <ele>196</ele>
        <time>2017-04-21T11:02:56Z</time>
      </trkpt>
      <trkpt lat="45.9393" lon="4.78554">
        <ele>197</ele>
        <time>2017-04-21T11:02:58Z</time>
      </trkpt>
      <trkpt lat="45.9393" lon="4.78547">
        <ele>197</ele>
        <time>2017-04-21T11:02:59Z</time>
      </trkpt>
      <trkpt lat="45.9393" lon="4.78541">
        <ele>197</ele>
        <time>2017-04-21T11:03:00Z</time>
      </trkpt>
      <trkpt lat="45.9393" lon="4.78534">
        <ele>197</ele>
        <time>2017-04-21T11:03:01Z</time>
      </trkpt>
      <trkpt lat="45.9393" lon="4.78527">
        <ele>197</ele>
        <time>2017-04-21T11:03:02Z</time>
      </trkpt>
      <trkpt lat="45.9393" lon="4.78521">
        <ele>197</ele>
        <time>2017-04-21T11:03:03Z</time>
      </trkpt>
      <trkpt lat="45.93931" lon="4.78509">
        <ele>197</ele>
        <time>2017-04-21T11:03:05Z</time>
      </trkpt>
      <trkpt lat="45.93932" lon="4.78503">
        <ele>197</ele>
        <time>2017-04-21T11:03:06Z</time>
      </trkpt>
      <trkpt lat="45.93933" lon="4.78496">
        <ele>197</ele>
        <time>2017-04-21T11:03:07Z</time>
      </trkpt>
      <trkpt lat="45.93935" lon="4.78489">
        <ele>197</ele>
        <time>2017-04-21T11:03:08Z</time>
      </trkpt>
      <trkpt lat="45.93936" lon="4.78483">
        <ele>197</ele>
        <time>2017-04-21T11:03:09Z</time>
      </trkpt>
      <trkpt lat="45.93938" lon="4.78476">
        <ele>197</ele>
        <time>2017-04-21T11:03:10Z</time>
      </trkpt>
      <trkpt lat="45.93939" lon="4.78468">
        <ele>197</ele>
        <time>2017-04-21T11:03:11Z</time>
      </trkpt>
      <trkpt lat="45.9394" lon="4.78461">
        <ele>197</ele>
        <time>2017-04-21T11:03:12Z</time>
      </trkpt>
      <trkpt lat="45.93941" lon="4.78454">
        <ele>197</ele>
        <time>2017-04-21T11:03:13Z</time>
      </trkpt>
      <trkpt lat="45.93943" lon="4.78447">
        <ele>197</ele>
        <time>2017-04-21T11:03:14Z</time>
      </trkpt>
      <trkpt lat="45.93943" lon="4.78439">
        <ele>197</ele>
        <time>2017-04-21T11:03:15Z</time>
      </trkpt>
      <trkpt lat="45.93944" lon="4.78432">
        <ele>197</ele>
        <time>2017-04-21T11:03:16Z</time>
      </trkpt>
      <trkpt lat="45.93945" lon="4.78424">
        <ele>197</ele>
        <time>2017-04-21T11:03:17Z</time>
      </trkpt>
      <trkpt lat="45.93946" lon="4.78417">
        <ele>197</ele>
        <time>2017-04-21T11:03:18Z</time>
      </trkpt>
      <trkpt lat="45.93947" lon="4.7841">
        <ele>196</ele>
        <time>2017-04-21T11:03:19Z</time>
      </trkpt>
      <trkpt lat="45.93949" lon="4.78402">
        <ele>196</ele>
        <time>2017-04-21T11:03:20Z</time>
      </trkpt>
      <trkpt lat="45.9395" lon="4.78395">
        <ele>196</ele>
        <time>2017-04-21T11:03:21Z</time>
      </trkpt>
      <trkpt lat="45.93951" lon="4.78387">
        <ele>196</ele>
        <time>2017-04-21T11:03:22Z</time>
      </trkpt>
      <trkpt lat="45.93952" lon="4.7838">
        <ele>196</ele>
        <time>2017-04-21T11:03:23Z</time>
      </trkpt>
      <trkpt lat="45.93953" lon="4.78373">
        <ele>196</ele>
        <time>2017-04-21T11:03:24Z</time>
      </trkpt>
      <trkpt lat="45.93954" lon="4.78366">
        <ele>196</ele>
        <time>2017-04-21T11:03:25Z</time>
      </trkpt>
      <trkpt lat="45.93955" lon="4.78358">
        <ele>196</ele>
        <time>2017-04-21T11:03:26Z</time>
      </trkpt>
      <trkpt lat="45.93956" lon="4.78351">
        <ele>196</ele>
        <time>2017-04-21T11:03:27Z</time>
      </trkpt>
      <trkpt lat="45.93957" lon="4.78343">
        <ele>196</ele>
        <time>2017-04-21T11:03:28Z</time>
      </trkpt>
      <trkpt lat="45.93958" lon="4.78336">
        <ele>196</ele>
        <time>2017-04-21T11:03:29Z</time>
      </trkpt>
      <trkpt lat="45.9396" lon="4.78329">
        <ele>195</ele>
        <time>2017-04-21T11:03:30Z</time>
      </trkpt>
      <trkpt lat="45.93961" lon="4.78322">
        <ele>195</ele>
        <time>2017-04-21T11:03:31Z</time>
      </trkpt>
      <trkpt lat="45.93961" lon="4.78315">
        <ele>195</ele>
        <time>2017-04-21T11:03:32Z</time>
      </trkpt>
      <trkpt lat="45.93963" lon="4.78303">
        <ele>195</ele>
        <time>2017-04-21T11:03:34Z</time>
      </trkpt>
      <trkpt lat="45.93964" lon="4.78296">
        <ele>195</ele>
        <time>2017-04-21T11:03:35Z</time>
      </trkpt>
      <trkpt lat="45.93965" lon="4.78288">
        <ele>195</ele>
        <time>2017-04-21T11:03:36Z</time>
      </trkpt>
      <trkpt lat="45.93967" lon="4.78281">
        <ele>195</ele>
        <time>2017-04-21T11:03:37Z</time>
      </trkpt>
      <trkpt lat="45.93968" lon="4.78273">
        <ele>196</ele>
        <time>2017-04-21T11:03:38Z</time>
      </trkpt>
      <trkpt lat="45.93969" lon="4.78265">
        <ele>196</ele>
        <time>2017-04-21T11:03:39Z</time>
      </trkpt>
      <trkpt lat="45.9397" lon="4.78257">
        <ele>196</ele>
        <time>2017-04-21T11:03:40Z</time>
      </trkpt>
      <trkpt lat="45.9397" lon="4.7825">
        <ele>196</ele>
        <time>2017-04-21T11:03:41Z</time>
      </trkpt>
      <trkpt lat="45.93972" lon="4.78243">
        <ele>196</ele>
        <time>2017-04-21T11:03:42Z</time>
      </trkpt>
      <trkpt lat="45.93972" lon="4.78235">
        <ele>196</ele>
        <time>2017-04-21T11:03:43Z</time>
      </trkpt>
      <trkpt lat="45.93973" lon="4.78228">
        <ele>196</ele>
        <time>2017-04-21T11:03:44Z</time>
      </trkpt>
      <trkpt lat="45.93974" lon="4.78221">
        <ele>196</ele>
        <time>2017-04-21T11:03:45Z</time>
      </trkpt>
      <trkpt lat="45.93975" lon="4.78213">
        <ele>196</ele>
        <time>2017-04-21T11:03:46Z</time>
      </trkpt>
      <trkpt lat="45.93976" lon="4.78206">
        <ele>197</ele>
        <time>2017-04-21T11:03:47Z</time>
      </trkpt>
      <trkpt lat="45.93977" lon="4.782">
        <ele>197</ele>
        <time>2017-04-21T11:03:48Z</time>
      </trkpt>
      <trkpt lat="45.93979" lon="4.78193">
        <ele>197</ele>
        <time>2017-04-21T11:03:49Z</time>
      </trkpt>
      <trkpt lat="45.93981" lon="4.78186">
        <ele>198</ele>
        <time>2017-04-21T11:03:50Z</time>
      </trkpt>
      <trkpt lat="45.93983" lon="4.78179">
        <ele>198</ele>
        <time>2017-04-21T11:03:51Z</time>
      </trkpt>
      <trkpt lat="45.93987" lon="4.78169">
        <ele>199</ele>
        <time>2017-04-21T11:03:53Z</time>
      </trkpt>
      <trkpt lat="45.93989" lon="4.78164">
        <ele>199</ele>
        <time>2017-04-21T11:03:54Z</time>
      </trkpt>
      <trkpt lat="45.9399" lon="4.78152">
        <ele>198</ele>
        <time>2017-04-21T11:03:56Z</time>
      </trkpt>
      <trkpt lat="45.93989" lon="4.78146">
        <ele>198</ele>
        <time>2017-04-21T11:03:57Z</time>
      </trkpt>
      <trkpt lat="45.9399" lon="4.7814">
        <ele>198</ele>
        <time>2017-04-21T11:03:58Z</time>
      </trkpt>
      <trkpt lat="45.93991" lon="4.78132">
        <ele>197</ele>
        <time>2017-04-21T11:03:59Z</time>
      </trkpt>
      <trkpt lat="45.93992" lon="4.78125">
        <ele>197</ele>
        <time>2017-04-21T11:04:00Z</time>
      </trkpt>
      <trkpt lat="45.93993" lon="4.78119">
        <ele>197</ele>
        <time>2017-04-21T11:04:01Z</time>
      </trkpt>
      <trkpt lat="45.93993" lon="4.78112">
        <ele>197</ele>
        <time>2017-04-21T11:04:02Z</time>
      </trkpt>
      <trkpt lat="45.93994" lon="4.78105">
        <ele>197</ele>
        <time>2017-04-21T11:04:03Z</time>
      </trkpt>
      <trkpt lat="45.93995" lon="4.78098">
        <ele>198</ele>
        <time>2017-04-21T11:04:04Z</time>
      </trkpt>
      <trkpt lat="45.93997" lon="4.7809">
        <ele>198</ele>
        <time>2017-04-21T11:04:05Z</time>
      </trkpt>
      <trkpt lat="45.93998" lon="4.78083">
        <ele>198</ele>
        <time>2017-04-21T11:04:06Z</time>
      </trkpt>
      <trkpt lat="45.93999" lon="4.78075">
        <ele>197</ele>
        <time>2017-04-21T11:04:07Z</time>
      </trkpt>
      <trkpt lat="45.94" lon="4.78067">
        <ele>196</ele>
        <time>2017-04-21T11:04:08Z</time>
      </trkpt>
      <trkpt lat="45.94001" lon="4.78059">
        <ele>201</ele>
        <time>2017-04-21T11:04:09Z</time>
      </trkpt>
      <trkpt lat="45.94002" lon="4.78052">
        <ele>201</ele>
        <time>2017-04-21T11:04:10Z</time>
      </trkpt>
      <trkpt lat="45.94004" lon="4.78045">
        <ele>201</ele>
        <time>2017-04-21T11:04:11Z</time>
      </trkpt>
      <trkpt lat="45.94006" lon="4.78038">
        <ele>201</ele>
        <time>2017-04-21T11:04:12Z</time>
      </trkpt>
      <trkpt lat="45.94007" lon="4.78031">
        <ele>201</ele>
        <time>2017-04-21T11:04:13Z</time>
      </trkpt>
      <trkpt lat="45.94009" lon="4.78023">
        <ele>200</ele>
        <time>2017-04-21T11:04:14Z</time>
      </trkpt>
      <trkpt lat="45.9401" lon="4.78015">
        <ele>200</ele>
        <time>2017-04-21T11:04:15Z</time>
      </trkpt>
      <trkpt lat="45.94011" lon="4.78007">
        <ele>199</ele>
        <time>2017-04-21T11:04:16Z</time>
      </trkpt>
      <trkpt lat="45.94012" lon="4.77999">
        <ele>198</ele>
        <time>2017-04-21T11:04:17Z</time>
      </trkpt>
      <trkpt lat="45.94013" lon="4.77991">
        <ele>199</ele>
        <time>2017-04-21T11:04:18Z</time>
      </trkpt>
      <trkpt lat="45.94014" lon="4.77982">
        <ele>199</ele>
        <time>2017-04-21T11:04:19Z</time>
      </trkpt>
      <trkpt lat="45.94016" lon="4.77973">
        <ele>200</ele>
        <time>2017-04-21T11:04:20Z</time>
      </trkpt>
      <trkpt lat="45.94018" lon="4.77965">
        <ele>200</ele>
        <time>2017-04-21T11:04:21Z</time>
      </trkpt>
      <trkpt lat="45.9402" lon="4.77956">
        <ele>200</ele>
        <time>2017-04-21T11:04:22Z</time>
      </trkpt>
      <trkpt lat="45.94022" lon="4.77949">
        <ele>200</ele>
        <time>2017-04-21T11:04:23Z</time>
      </trkpt>
      <trkpt lat="45.94023" lon="4.77942">
        <ele>200</ele>
        <time>2017-04-21T11:04:24Z</time>
      </trkpt>
      <trkpt lat="45.94023" lon="4.77936">
        <ele>199</ele>
        <time>2017-04-21T11:04:25Z</time>
      </trkpt>
      <trkpt lat="45.94017" lon="4.77928">
        <ele>198</ele>
        <time>2017-04-21T11:04:27Z</time>
      </trkpt>
      <trkpt lat="45.94012" lon="4.77927">
        <ele>198</ele>
        <time>2017-04-21T11:04:28Z</time>
      </trkpt>
      <trkpt lat="45.94007" lon="4.77928">
        <ele>197</ele>
        <time>2017-04-21T11:04:29Z</time>
      </trkpt>
      <trkpt lat="45.94001" lon="4.77929">
        <ele>197</ele>
        <time>2017-04-21T11:04:30Z</time>
      </trkpt>
      <trkpt lat="45.93995" lon="4.77931">
        <ele>192</ele>
        <time>2017-04-21T11:04:31Z</time>
      </trkpt>
      <trkpt lat="45.93988" lon="4.77934">
        <ele>192</ele>
        <time>2017-04-21T11:04:32Z</time>
      </trkpt>
      <trkpt lat="45.93981" lon="4.77939">
        <ele>191</ele>
        <time>2017-04-21T11:04:33Z</time>
      </trkpt>
      <trkpt lat="45.93974" lon="4.77945">
        <ele>191</ele>
        <time>2017-04-21T11:04:34Z</time>
      </trkpt>
      <trkpt lat="45.93966" lon="4.7795">
        <ele>190</ele>
        <time>2017-04-21T11:04:35Z</time>
      </trkpt>
      <trkpt lat="45.93958" lon="4.77955">
        <ele>190</ele>
        <time>2017-04-21T11:04:36Z</time>
      </trkpt>
      <trkpt lat="45.9395" lon="4.77961">
        <ele>190</ele>
        <time>2017-04-21T11:04:37Z</time>
      </trkpt>
      <trkpt lat="45.93941" lon="4.77967">
        <ele>189</ele>
        <time>2017-04-21T11:04:38Z</time>
      </trkpt>
      <trkpt lat="45.93933" lon="4.77974">
        <ele>189</ele>
        <time>2017-04-21T11:04:39Z</time>
      </trkpt>
      <trkpt lat="45.93926" lon="4.7798">
        <ele>188</ele>
        <time>2017-04-21T11:04:40Z</time>
      </trkpt>
      <trkpt lat="45.93919" lon="4.77986">
        <ele>188</ele>
        <time>2017-04-21T11:04:41Z</time>
      </trkpt>
      <trkpt lat="45.93912" lon="4.77993">
        <ele>184</ele>
        <time>2017-04-21T11:04:42Z</time>
      </trkpt>
      <trkpt lat="45.93907" lon="4.77999">
        <ele>184</ele>
        <time>2017-04-21T11:04:43Z</time>
      </trkpt>
      <trkpt lat="45.93901" lon="4.78009">
        <ele>185</ele>
        <time>2017-04-21T11:04:45Z</time>
      </trkpt>
      <trkpt lat="45.93897" lon="4.78012">
        <ele>185</ele>
        <time>2017-04-21T11:04:46Z</time>
      </trkpt>
      <trkpt lat="45.93889" lon="4.78016">
        <ele>184</ele>
        <time>2017-04-21T11:04:48Z</time>
      </trkpt>
      <trkpt lat="45.93884" lon="4.78016">
        <ele>184</ele>
        <time>2017-04-21T11:04:49Z</time>
      </trkpt>
      <trkpt lat="45.93876" lon="4.78014">
        <ele>183</ele>
        <time>2017-04-21T11:04:52Z</time>
      </trkpt>
      <trkpt lat="45.93876" lon="4.78014">
        <ele>183</ele>
        <time>2017-04-21T11:04:53Z</time>
      </trkpt>
      <trkpt lat="45.9387" lon="4.78013">
        <ele>183</ele>
        <time>2017-04-21T11:05:01Z</time>
      </trkpt>
      <trkpt lat="45.93867" lon="4.78013">
        <ele>183</ele>
        <time>2017-04-21T11:05:02Z</time>
      </trkpt>
      <trkpt lat="45.9386" lon="4.78005">
        <ele>182</ele>
        <time>2017-04-21T11:05:04Z</time>
      </trkpt>
      <trkpt lat="45.93855" lon="4.78002">
        <ele>182</ele>
        <time>2017-04-21T11:05:05Z</time>
      </trkpt>
      <trkpt lat="45.9385" lon="4.77999">
        <ele>179</ele>
        <time>2017-04-21T11:05:06Z</time>
      </trkpt>
      <trkpt lat="45.93845" lon="4.77995">
        <ele>179</ele>
        <time>2017-04-21T11:05:07Z</time>
      </trkpt>
      <trkpt lat="45.93841" lon="4.77991">
        <ele>179</ele>
        <time>2017-04-21T11:05:08Z</time>
      </trkpt>
      <trkpt lat="45.93837" lon="4.77986">
        <ele>178</ele>
        <time>2017-04-21T11:05:09Z</time>
      </trkpt>
      <trkpt lat="45.93834" lon="4.77981">
        <ele>178</ele>
        <time>2017-04-21T11:05:10Z</time>
      </trkpt>
      <trkpt lat="45.93831" lon="4.77975">
        <ele>173</ele>
        <time>2017-04-21T11:05:11Z</time>
      </trkpt>
      <trkpt lat="45.93827" lon="4.77969">
        <ele>172</ele>
        <time>2017-04-21T11:05:12Z</time>
      </trkpt>
      <trkpt lat="45.93823" lon="4.77963">
        <ele>171</ele>
        <time>2017-04-21T11:05:13Z</time>
      </trkpt>
      <trkpt lat="45.93819" lon="4.77957">
        <ele>170</ele>
        <time>2017-04-21T11:05:14Z</time>
      </trkpt>
      <trkpt lat="45.93815" lon="4.77951">
        <ele>170</ele>
        <time>2017-04-21T11:05:15Z</time>
      </trkpt>
      <trkpt lat="45.93811" lon="4.77945">
        <ele>169</ele>
        <time>2017-04-21T11:05:16Z</time>
      </trkpt>
      <trkpt lat="45.93806" lon="4.77939">
        <ele>169</ele>
        <time>2017-04-21T11:05:17Z</time>
      </trkpt>
      <trkpt lat="45.93802" lon="4.77934">
        <ele>168</ele>
        <time>2017-04-21T11:05:18Z</time>
      </trkpt>
      <trkpt lat="45.93798" lon="4.77929">
        <ele>168</ele>
        <time>2017-04-21T11:05:19Z</time>
      </trkpt>
      <trkpt lat="45.93793" lon="4.77924">
        <ele>168</ele>
        <time>2017-04-21T11:05:20Z</time>
      </trkpt>
      <trkpt lat="45.93789" lon="4.77918">
        <ele>168</ele>
        <time>2017-04-21T11:05:21Z</time>
      </trkpt>
      <trkpt lat="45.93784" lon="4.77913">
        <ele>166</ele>
        <time>2017-04-21T11:05:22Z</time>
      </trkpt>
      <trkpt lat="45.9378" lon="4.77907">
        <ele>166</ele>
        <time>2017-04-21T11:05:23Z</time>
      </trkpt>
      <trkpt lat="45.93776" lon="4.77903">
        <ele>166</ele>
        <time>2017-04-21T11:05:24Z</time>
      </trkpt>
      <trkpt lat="45.93772" lon="4.77898">
        <ele>166</ele>
        <time>2017-04-21T11:05:25Z</time>
      </trkpt>
      <trkpt lat="45.93768" lon="4.77893">
        <ele>166</ele>
        <time>2017-04-21T11:05:26Z</time>
      </trkpt>
      <trkpt lat="45.93765" lon="4.77888">
        <ele>166</ele>
        <time>2017-04-21T11:05:27Z</time>
      </trkpt>
      <trkpt lat="45.93761" lon="4.77883">
        <ele>166</ele>
        <time>2017-04-21T11:05:28Z</time>
      </trkpt>
      <trkpt lat="45.93756" lon="4.77878">
        <ele>166</ele>
        <time>2017-04-21T11:05:29Z</time>
      </trkpt>
      <trkpt lat="45.93752" lon="4.77873">
        <ele>166</ele>
        <time>2017-04-21T11:05:30Z</time>
      </trkpt>
      <trkpt lat="45.93748" lon="4.77868">
        <ele>167</ele>
        <time>2017-04-21T11:05:31Z</time>
      </trkpt>
      <trkpt lat="45.93744" lon="4.77861">
        <ele>167</ele>
        <time>2017-04-21T11:05:32Z</time>
      </trkpt>
      <trkpt lat="45.93739" lon="4.77855">
        <ele>167</ele>
        <time>2017-04-21T11:05:33Z</time>
      </trkpt>
      <trkpt lat="45.93735" lon="4.77849">
        <ele>167</ele>
        <time>2017-04-21T11:05:34Z</time>
      </trkpt>
      <trkpt lat="45.93731" lon="4.77844">
        <ele>167</ele>
        <time>2017-04-21T11:05:35Z</time>
      </trkpt>
      <trkpt lat="45.93727" lon="4.77838">
        <ele>167</ele>
        <time>2017-04-21T11:05:36Z</time>
      </trkpt>
      <trkpt lat="45.93723" lon="4.77833">
        <ele>168</ele>
        <time>2017-04-21T11:05:37Z</time>
      </trkpt>
      <trkpt lat="45.93719" lon="4.77828">
        <ele>168</ele>
        <time>2017-04-21T11:05:38Z</time>
      </trkpt>
      <trkpt lat="45.93715" lon="4.77823">
        <ele>169</ele>
        <time>2017-04-21T11:05:39Z</time>
      </trkpt>
      <trkpt lat="45.93712" lon="4.77818">
        <ele>169</ele>
        <time>2017-04-21T11:05:40Z</time>
      </trkpt>
      <trkpt lat="45.93708" lon="4.77813">
        <ele>169</ele>
        <time>2017-04-21T11:05:41Z</time>
      </trkpt>
      <trkpt lat="45.93704" lon="4.77807">
        <ele>169</ele>
        <time>2017-04-21T11:05:42Z</time>
      </trkpt>
      <trkpt lat="45.937" lon="4.77802">
        <ele>169</ele>
        <time>2017-04-21T11:05:43Z</time>
      </trkpt>
      <trkpt lat="45.93696" lon="4.77797">
        <ele>169</ele>
        <time>2017-04-21T11:05:44Z</time>
      </trkpt>
      <trkpt lat="45.93692" lon="4.77792">
        <ele>169</ele>
        <time>2017-04-21T11:05:45Z</time>
      </trkpt>
      <trkpt lat="45.93688" lon="4.77786">
        <ele>170</ele>
        <time>2017-04-21T11:05:46Z</time>
      </trkpt>
      <trkpt lat="45.93684" lon="4.77781">
        <ele>170</ele>
        <time>2017-04-21T11:05:47Z</time>
      </trkpt>
      <trkpt lat="45.93679" lon="4.77774">
        <ele>170</ele>
        <time>2017-04-21T11:05:48Z</time>
      </trkpt>
      <trkpt lat="45.93675" lon="4.77768">
        <ele>170</ele>
        <time>2017-04-21T11:05:49Z</time>
      </trkpt>
      <trkpt lat="45.9367" lon="4.7776">
        <ele>170</ele>
        <time>2017-04-21T11:05:50Z</time>
      </trkpt>
      <trkpt lat="45.93666" lon="4.77753">
        <ele>171</ele>
        <time>2017-04-21T11:05:51Z</time>
      </trkpt>
      <trkpt lat="45.93661" lon="4.77745">
        <ele>171</ele>
        <time>2017-04-21T11:05:52Z</time>
      </trkpt>
      <trkpt lat="45.93656" lon="4.77737">
        <ele>170</ele>
        <time>2017-04-21T11:05:53Z</time>
      </trkpt>
      <trkpt lat="45.93652" lon="4.77729">
        <ele>170</ele>
        <time>2017-04-21T11:05:54Z</time>
      </trkpt>
      <trkpt lat="45.93647" lon="4.77721">
        <ele>170</ele>
        <time>2017-04-21T11:05:55Z</time>
      </trkpt>
      <trkpt lat="45.93642" lon="4.77712">
        <ele>170</ele>
        <time>2017-04-21T11:05:56Z</time>
      </trkpt>
      <trkpt lat="45.93638" lon="4.77702">
        <ele>170</ele>
        <time>2017-04-21T11:05:57Z</time>
      </trkpt>
      <trkpt lat="45.93633" lon="4.77693">
        <ele>169</ele>
        <time>2017-04-21T11:05:58Z</time>
      </trkpt>
      <trkpt lat="45.93629" lon="4.77683">
        <ele>169</ele>
        <time>2017-04-21T11:05:59Z</time>
      </trkpt>
      <trkpt lat="45.93625" lon="4.77674">
        <ele>169</ele>
        <time>2017-04-21T11:06:00Z</time>
      </trkpt>
      <trkpt lat="45.93621" lon="4.77664">
        <ele>169</ele>
        <time>2017-04-21T11:06:01Z</time>
      </trkpt>
      <trkpt lat="45.93617" lon="4.77654">
        <ele>169</ele>
        <time>2017-04-21T11:06:02Z</time>
      </trkpt>
      <trkpt lat="45.93613" lon="4.77645">
        <ele>169</ele>
        <time>2017-04-21T11:06:03Z</time>
      </trkpt>
      <trkpt lat="45.93609" lon="4.77635">
        <ele>169</ele>
        <time>2017-04-21T11:06:04Z</time>
      </trkpt>
      <trkpt lat="45.93605" lon="4.77626">
        <ele>169</ele>
        <time>2017-04-21T11:06:05Z</time>
      </trkpt>
      <trkpt lat="45.93601" lon="4.77616">
        <ele>170</ele>
        <time>2017-04-21T11:06:06Z</time>
      </trkpt>
      <trkpt lat="45.93598" lon="4.77606">
        <ele>170</ele>
        <time>2017-04-21T11:06:07Z</time>
      </trkpt>
      <trkpt lat="45.93594" lon="4.77597">
        <ele>170</ele>
        <time>2017-04-21T11:06:08Z</time>
      </trkpt>
      <trkpt lat="45.93591" lon="4.77588">
        <ele>170</ele>
        <time>2017-04-21T11:06:09Z</time>
      </trkpt>
      <trkpt lat="45.93588" lon="4.77578">
        <ele>170</ele>
        <time>2017-04-21T11:06:10Z</time>
      </trkpt>
      <trkpt lat="45.93585" lon="4.77569">
        <ele>170</ele>
        <time>2017-04-21T11:06:11Z</time>
      </trkpt>
      <trkpt lat="45.93582" lon="4.7756">
        <ele>169</ele>
        <time>2017-04-21T11:06:12Z</time>
      </trkpt>
      <trkpt lat="45.9358" lon="4.77552">
        <ele>169</ele>
        <time>2017-04-21T11:06:13Z</time>
      </trkpt>
      <trkpt lat="45.93577" lon="4.77543">
        <ele>169</ele>
        <time>2017-04-21T11:06:14Z</time>
      </trkpt>
      <trkpt lat="45.93575" lon="4.77534">
        <ele>169</ele>
        <time>2017-04-21T11:06:15Z</time>
      </trkpt>
      <trkpt lat="45.93573" lon="4.77525">
        <ele>169</ele>
        <time>2017-04-21T11:06:16Z</time>
      </trkpt>
      <trkpt lat="45.9357" lon="4.77517">
        <ele>169</ele>
        <time>2017-04-21T11:06:17Z</time>
      </trkpt>
      <trkpt lat="45.93568" lon="4.77508">
        <ele>169</ele>
        <time>2017-04-21T11:06:18Z</time>
      </trkpt>
      <trkpt lat="45.93566" lon="4.775">
        <ele>169</ele>
        <time>2017-04-21T11:06:19Z</time>
      </trkpt>
      <trkpt lat="45.93565" lon="4.77492">
        <ele>169</ele>
        <time>2017-04-21T11:06:20Z</time>
      </trkpt>
      <trkpt lat="45.93563" lon="4.77484">
        <ele>169</ele>
        <time>2017-04-21T11:06:21Z</time>
      </trkpt>
      <trkpt lat="45.93561" lon="4.77475">
        <ele>169</ele>
        <time>2017-04-21T11:06:22Z</time>
      </trkpt>
      <trkpt lat="45.93559" lon="4.77467">
        <ele>169</ele>
        <time>2017-04-21T11:06:23Z</time>
      </trkpt>
      <trkpt lat="45.93557" lon="4.77459">
        <ele>169</ele>
        <time>2017-04-21T11:06:24Z</time>
      </trkpt>
      <trkpt lat="45.93555" lon="4.77451">
        <ele>169</ele>
        <time>2017-04-21T11:06:25Z</time>
      </trkpt>
      <trkpt lat="45.93553" lon="4.77442">
        <ele>169</ele>
        <time>2017-04-21T11:06:26Z</time>
      </trkpt>
      <trkpt lat="45.93551" lon="4.77434">
        <ele>169</ele>
        <time>2017-04-21T11:06:27Z</time>
      </trkpt>
      <trkpt lat="45.93549" lon="4.77426">
        <ele>170</ele>
        <time>2017-04-21T11:06:28Z</time>
      </trkpt>
      <trkpt lat="45.93547" lon="4.77417">
        <ele>170</ele>
        <time>2017-04-21T11:06:29Z</time>
      </trkpt>
      <trkpt lat="45.93545" lon="4.77408">
        <ele>170</ele>
        <time>2017-04-21T11:06:30Z</time>
      </trkpt>
      <trkpt lat="45.93542" lon="4.774">
        <ele>170</ele>
        <time>2017-04-21T11:06:31Z</time>
      </trkpt>
      <trkpt lat="45.9354" lon="4.77392">
        <ele>170</ele>
        <time>2017-04-21T11:06:32Z</time>
      </trkpt>
      <trkpt lat="45.93539" lon="4.77384">
        <ele>170</ele>
        <time>2017-04-21T11:06:33Z</time>
      </trkpt>
      <trkpt lat="45.93538" lon="4.77378">
        <ele>170</ele>
        <time>2017-04-21T11:06:34Z</time>
      </trkpt>
      <trkpt lat="45.93536" lon="4.7737">
        <ele>170</ele>
        <time>2017-04-21T11:06:35Z</time>
      </trkpt>
      <trkpt lat="45.93535" lon="4.77361">
        <ele>170</ele>
        <time>2017-04-21T11:06:36Z</time>
      </trkpt>
      <trkpt lat="45.93534" lon="4.77352">
        <ele>170</ele>
        <time>2017-04-21T11:06:37Z</time>
      </trkpt>
      <trkpt lat="45.93532" lon="4.77343">
        <ele>170</ele>
        <time>2017-04-21T11:06:38Z</time>
      </trkpt>
      <trkpt lat="45.9353" lon="4.77334">
        <ele>170</ele>
        <time>2017-04-21T11:06:39Z</time>
      </trkpt>
      <trkpt lat="45.93527" lon="4.77325">
        <ele>170</ele>
        <time>2017-04-21T11:06:40Z</time>
      </trkpt>
      <trkpt lat="45.93525" lon="4.77316">
        <ele>170</ele>
        <time>2017-04-21T11:06:41Z</time>
      </trkpt>
      <trkpt lat="45.93523" lon="4.77307">
        <ele>170</ele>
        <time>2017-04-21T11:06:42Z</time>
      </trkpt>
      <trkpt lat="45.93521" lon="4.77299">
        <ele>170</ele>
        <time>2017-04-21T11:06:43Z</time>
      </trkpt>
      <trkpt lat="45.93519" lon="4.77291">
        <ele>170</ele>
        <time>2017-04-21T11:06:44Z</time>
      </trkpt>
      <trkpt lat="45.93517" lon="4.77284">
        <ele>170</ele>
        <time>2017-04-21T11:06:45Z</time>
      </trkpt>
      <trkpt lat="45.93516" lon="4.77276">
        <ele>170</ele>
        <time>2017-04-21T11:06:46Z</time>
      </trkpt>
      <trkpt lat="45.93515" lon="4.77269">
        <ele>170</ele>
        <time>2017-04-21T11:06:47Z</time>
      </trkpt>
      <trkpt lat="45.93513" lon="4.77261">
        <ele>170</ele>
        <time>2017-04-21T11:06:48Z</time>
      </trkpt>
      <trkpt lat="45.93511" lon="4.77254">
        <ele>170</ele>
        <time>2017-04-21T11:06:49Z</time>
      </trkpt>
      <trkpt lat="45.93509" lon="4.77247">
        <ele>170</ele>
        <time>2017-04-21T11:06:50Z</time>
      </trkpt>
      <trkpt lat="45.93507" lon="4.7724">
        <ele>169</ele>
        <time>2017-04-21T11:06:51Z</time>
      </trkpt>
      <trkpt lat="45.93505" lon="4.77232">
        <ele>169</ele>
        <time>2017-04-21T11:06:52Z</time>
      </trkpt>
      <trkpt lat="45.93504" lon="4.77224">
        <ele>169</ele>
        <time>2017-04-21T11:06:53Z</time>
      </trkpt>
      <trkpt lat="45.93502" lon="4.77216">
        <ele>169</ele>
        <time>2017-04-21T11:06:54Z</time>
      </trkpt>
      <trkpt lat="45.93501" lon="4.77208">
        <ele>169</ele>
        <time>2017-04-21T11:06:55Z</time>
      </trkpt>
      <trkpt lat="45.93499" lon="4.772">
        <ele>169</ele>
        <time>2017-04-21T11:06:56Z</time>
      </trkpt>
      <trkpt lat="45.93497" lon="4.77192">
        <ele>169</ele>
        <time>2017-04-21T11:06:57Z</time>
      </trkpt>
      <trkpt lat="45.93495" lon="4.77184">
        <ele>169</ele>
        <time>2017-04-21T11:06:58Z</time>
      </trkpt>
      <trkpt lat="45.93494" lon="4.77175">
        <ele>169</ele>
        <time>2017-04-21T11:06:59Z</time>
      </trkpt>
      <trkpt lat="45.93492" lon="4.77167">
        <ele>169</ele>
        <time>2017-04-21T11:07:00Z</time>
      </trkpt>
      <trkpt lat="45.9349" lon="4.77158">
        <ele>169</ele>
        <time>2017-04-21T11:07:01Z</time>
      </trkpt>
      <trkpt lat="45.93488" lon="4.77149">
        <ele>169</ele>
        <time>2017-04-21T11:07:02Z</time>
      </trkpt>
      <trkpt lat="45.93486" lon="4.7714">
        <ele>169</ele>
        <time>2017-04-21T11:07:03Z</time>
      </trkpt>
      <trkpt lat="45.93484" lon="4.77132">
        <ele>169</ele>
        <time>2017-04-21T11:07:04Z</time>
      </trkpt>
      <trkpt lat="45.93483" lon="4.77124">
        <ele>169</ele>
        <time>2017-04-21T11:07:05Z</time>
      </trkpt>
      <trkpt lat="45.93481" lon="4.77116">
        <ele>169</ele>
        <time>2017-04-21T11:07:06Z</time>
      </trkpt>
      <trkpt lat="45.93479" lon="4.77109">
        <ele>169</ele>
        <time>2017-04-21T11:07:07Z</time>
      </trkpt>
      <trkpt lat="45.93478" lon="4.77101">
        <ele>169</ele>
        <time>2017-04-21T11:07:08Z</time>
      </trkpt>
      <trkpt lat="45.93477" lon="4.77093">
        <ele>169</ele>
        <time>2017-04-21T11:07:09Z</time>
      </trkpt>
      <trkpt lat="45.93475" lon="4.77087">
        <ele>169</ele>
        <time>2017-04-21T11:07:10Z</time>
      </trkpt>
      <trkpt lat="45.93474" lon="4.7708">
        <ele>170</ele>
        <time>2017-04-21T11:07:11Z</time>
      </trkpt>
      <trkpt lat="45.93472" lon="4.77074">
        <ele>170</ele>
        <time>2017-04-21T11:07:12Z</time>
      </trkpt>
      <trkpt lat="45.93471" lon="4.77068">
        <ele>170</ele>
        <time>2017-04-21T11:07:13Z</time>
      </trkpt>
      <trkpt lat="45.93469" lon="4.77061">
        <ele>170</ele>
        <time>2017-04-21T11:07:14Z</time>
      </trkpt>
      <trkpt lat="45.93468" lon="4.77054">
        <ele>170</ele>
        <time>2017-04-21T11:07:15Z</time>
      </trkpt>
      <trkpt lat="45.93467" lon="4.77047">
        <ele>170</ele>
        <time>2017-04-21T11:07:16Z</time>
      </trkpt>
      <trkpt lat="45.93465" lon="4.7704">
        <ele>170</ele>
        <time>2017-04-21T11:07:17Z</time>
      </trkpt>
      <trkpt lat="45.93464" lon="4.77032">
        <ele>170</ele>
        <time>2017-04-21T11:07:18Z</time>
      </trkpt>
      <trkpt lat="45.93463" lon="4.77024">
        <ele>170</ele>
        <time>2017-04-21T11:07:19Z</time>
      </trkpt>
      <trkpt lat="45.93462" lon="4.77017">
        <ele>170</ele>
        <time>2017-04-21T11:07:20Z</time>
      </trkpt>
      <trkpt lat="45.9346" lon="4.77009">
        <ele>170</ele>
        <time>2017-04-21T11:07:21Z</time>
      </trkpt>
      <trkpt lat="45.9346" lon="4.77001">
        <ele>170</ele>
        <time>2017-04-21T11:07:22Z</time>
      </trkpt>
      <trkpt lat="45.93458" lon="4.76993">
        <ele>170</ele>
        <time>2017-04-21T11:07:23Z</time>
      </trkpt>
      <trkpt lat="45.93458" lon="4.76985">
        <ele>170</ele>
        <time>2017-04-21T11:07:24Z</time>
      </trkpt>
      <trkpt lat="45.93456" lon="4.76977">
        <ele>170</ele>
        <time>2017-04-21T11:07:25Z</time>
      </trkpt>
      <trkpt lat="45.93455" lon="4.7697">
        <ele>170</ele>
        <time>2017-04-21T11:07:26Z</time>
      </trkpt>
      <trkpt lat="45.93454" lon="4.76962">
        <ele>170</ele>
        <time>2017-04-21T11:07:27Z</time>
      </trkpt>
      <trkpt lat="45.93454" lon="4.76955">
        <ele>170</ele>
        <time>2017-04-21T11:07:28Z</time>
      </trkpt>
      <trkpt lat="45.93453" lon="4.76948">
        <ele>170</ele>
        <time>2017-04-21T11:07:29Z</time>
      </trkpt>
      <trkpt lat="45.93451" lon="4.7694">
        <ele>170</ele>
        <time>2017-04-21T11:07:30Z</time>
      </trkpt>
      <trkpt lat="45.9345" lon="4.76932">
        <ele>170</ele>
        <time>2017-04-21T11:07:31Z</time>
      </trkpt>
      <trkpt lat="45.93449" lon="4.76925">
        <ele>170</ele>
        <time>2017-04-21T11:07:32Z</time>
      </trkpt>
      <trkpt lat="45.93448" lon="4.76918">
        <ele>170</ele>
        <time>2017-04-21T11:07:33Z</time>
      </trkpt>
      <trkpt lat="45.93446" lon="4.76911">
        <ele>170</ele>
        <time>2017-04-21T11:07:34Z</time>
      </trkpt>
      <trkpt lat="45.93444" lon="4.76904">
        <ele>170</ele>
        <time>2017-04-21T11:07:35Z</time>
      </trkpt>
      <trkpt lat="45.93442" lon="4.76896">
        <ele>170</ele>
        <time>2017-04-21T11:07:36Z</time>
      </trkpt>
      <trkpt lat="45.9344" lon="4.76889">
        <ele>170</ele>
        <time>2017-04-21T11:07:37Z</time>
      </trkpt>
      <trkpt lat="45.93438" lon="4.76883">
        <ele>171</ele>
        <time>2017-04-21T11:07:38Z</time>
      </trkpt>
      <trkpt lat="45.93436" lon="4.76875">
        <ele>171</ele>
        <time>2017-04-21T11:07:39Z</time>
      </trkpt>
      <trkpt lat="45.93434" lon="4.76868">
        <ele>171</ele>
        <time>2017-04-21T11:07:40Z</time>
      </trkpt>
      <trkpt lat="45.93431" lon="4.76862">
        <ele>171</ele>
        <time>2017-04-21T11:07:41Z</time>
      </trkpt>
      <trkpt lat="45.93428" lon="4.76855">
        <ele>171</ele>
        <time>2017-04-21T11:07:42Z</time>
      </trkpt>
      <trkpt lat="45.93426" lon="4.76849">
        <ele>171</ele>
        <time>2017-04-21T11:07:43Z</time>
      </trkpt>
      <trkpt lat="45.93422" lon="4.76843">
        <ele>171</ele>
        <time>2017-04-21T11:07:44Z</time>
      </trkpt>
      <trkpt lat="45.93419" lon="4.76837">
        <ele>172</ele>
        <time>2017-04-21T11:07:45Z</time>
      </trkpt>
      <trkpt lat="45.93416" lon="4.7683">
        <ele>172</ele>
        <time>2017-04-21T11:07:46Z</time>
      </trkpt>
      <trkpt lat="45.93413" lon="4.76824">
        <ele>172</ele>
        <time>2017-04-21T11:07:47Z</time>
      </trkpt>
      <trkpt lat="45.93409" lon="4.76818">
        <ele>172</ele>
        <time>2017-04-21T11:07:48Z</time>
      </trkpt>
      <trkpt lat="45.93405" lon="4.76813">
        <ele>172</ele>
        <time>2017-04-21T11:07:49Z</time>
      </trkpt>
      <trkpt lat="45.93402" lon="4.76807">
        <ele>172</ele>
        <time>2017-04-21T11:07:50Z</time>
      </trkpt>
      <trkpt lat="45.93397" lon="4.76802">
        <ele>172</ele>
        <time>2017-04-21T11:07:51Z</time>
      </trkpt>
      <trkpt lat="45.93393" lon="4.76797">
        <ele>172</ele>
        <time>2017-04-21T11:07:52Z</time>
      </trkpt>
      <trkpt lat="45.93389" lon="4.76792">
        <ele>172</ele>
        <time>2017-04-21T11:07:53Z</time>
      </trkpt>
      <trkpt lat="45.93385" lon="4.76787">
        <ele>172</ele>
        <time>2017-04-21T11:07:54Z</time>
      </trkpt>
      <trkpt lat="45.9338" lon="4.76783">
        <ele>172</ele>
        <time>2017-04-21T11:07:55Z</time>
      </trkpt>
      <trkpt lat="45.93375" lon="4.76778">
        <ele>172</ele>
        <time>2017-04-21T11:07:56Z</time>
      </trkpt>
      <trkpt lat="45.9337" lon="4.76774">
        <ele>172</ele>
        <time>2017-04-21T11:07:57Z</time>
      </trkpt>
      <trkpt lat="45.93366" lon="4.7677">
        <ele>172</ele>
        <time>2017-04-21T11:07:58Z</time>
      </trkpt>
      <trkpt lat="45.93361" lon="4.76765">
        <ele>172</ele>
        <time>2017-04-21T11:07:59Z</time>
      </trkpt>
      <trkpt lat="45.93357" lon="4.7676">
        <ele>172</ele>
        <time>2017-04-21T11:08:00Z</time>
      </trkpt>
      <trkpt lat="45.93352" lon="4.76754">
        <ele>172</ele>
        <time>2017-04-21T11:08:01Z</time>
      </trkpt>
      <trkpt lat="45.93347" lon="4.76749">
        <ele>172</ele>
        <time>2017-04-21T11:08:02Z</time>
      </trkpt>
      <trkpt lat="45.93342" lon="4.76744">
        <ele>173</ele>
        <time>2017-04-21T11:08:03Z</time>
      </trkpt>
      <trkpt lat="45.93337" lon="4.76739">
        <ele>173</ele>
        <time>2017-04-21T11:08:04Z</time>
      </trkpt>
      <trkpt lat="45.93332" lon="4.76734">
        <ele>172</ele>
        <time>2017-04-21T11:08:05Z</time>
      </trkpt>
      <trkpt lat="45.93327" lon="4.76729">
        <ele>172</ele>
        <time>2017-04-21T11:08:06Z</time>
      </trkpt>
      <trkpt lat="45.93322" lon="4.76723">
        <ele>172</ele>
        <time>2017-04-21T11:08:07Z</time>
      </trkpt>
      <trkpt lat="45.93317" lon="4.76718">
        <ele>172</ele>
        <time>2017-04-21T11:08:08Z</time>
      </trkpt>
      <trkpt lat="45.93312" lon="4.76713">
        <ele>172</ele>
        <time>2017-04-21T11:08:09Z</time>
      </trkpt>
      <trkpt lat="45.93307" lon="4.76709">
        <ele>172</ele>
        <time>2017-04-21T11:08:10Z</time>
      </trkpt>
      <trkpt lat="45.93302" lon="4.76704">
        <ele>172</ele>
        <time>2017-04-21T11:08:11Z</time>
      </trkpt>
      <trkpt lat="45.93297" lon="4.767">
        <ele>172</ele>
        <time>2017-04-21T11:08:12Z</time>
      </trkpt>
      <trkpt lat="45.93292" lon="4.76696">
        <ele>172</ele>
        <time>2017-04-21T11:08:13Z</time>
      </trkpt>
      <trkpt lat="45.93288" lon="4.76693">
        <ele>172</ele>
        <time>2017-04-21T11:08:14Z</time>
      </trkpt>
      <trkpt lat="45.93284" lon="4.76688">
        <ele>172</ele>
        <time>2017-04-21T11:08:15Z</time>
      </trkpt>
      <trkpt lat="45.93279" lon="4.76684">
        <ele>172</ele>
        <time>2017-04-21T11:08:16Z</time>
      </trkpt>
      <trkpt lat="45.93275" lon="4.76681">
        <ele>172</ele>
        <time>2017-04-21T11:08:17Z</time>
      </trkpt>
      <trkpt lat="45.9327" lon="4.76678">
        <ele>172</ele>
        <time>2017-04-21T11:08:18Z</time>
      </trkpt>
      <trkpt lat="45.93266" lon="4.76676">
        <ele>172</ele>
        <time>2017-04-21T11:08:19Z</time>
      </trkpt>
      <trkpt lat="45.93262" lon="4.76672">
        <ele>172</ele>
        <time>2017-04-21T11:08:20Z</time>
      </trkpt>
      <trkpt lat="45.93257" lon="4.76668">
        <ele>172</ele>
        <time>2017-04-21T11:08:21Z</time>
      </trkpt>
      <trkpt lat="45.93253" lon="4.76665">
        <ele>172</ele>
        <time>2017-04-21T11:08:22Z</time>
      </trkpt>
      <trkpt lat="45.93248" lon="4.76662">
        <ele>172</ele>
        <time>2017-04-21T11:08:23Z</time>
      </trkpt>
      <trkpt lat="45.93244" lon="4.76658">
        <ele>171</ele>
        <time>2017-04-21T11:08:24Z</time>
      </trkpt>
      <trkpt lat="45.9324" lon="4.76653">
        <ele>171</ele>
        <time>2017-04-21T11:08:25Z</time>
      </trkpt>
      <trkpt lat="45.93235" lon="4.76649">
        <ele>171</ele>
        <time>2017-04-21T11:08:26Z</time>
      </trkpt>
      <trkpt lat="45.93231" lon="4.76646">
        <ele>171</ele>
        <time>2017-04-21T11:08:27Z</time>
      </trkpt>
      <trkpt lat="45.93227" lon="4.76641">
        <ele>171</ele>
        <time>2017-04-21T11:08:28Z</time>
      </trkpt>
      <trkpt lat="45.93223" lon="4.76636">
        <ele>171</ele>
        <time>2017-04-21T11:08:29Z</time>
      </trkpt>
      <trkpt lat="45.93219" lon="4.76632">
        <ele>171</ele>
        <time>2017-04-21T11:08:30Z</time>
      </trkpt>
      <trkpt lat="45.93214" lon="4.76627">
        <ele>170</ele>
        <time>2017-04-21T11:08:31Z</time>
      </trkpt>
      <trkpt lat="45.93209" lon="4.76623">
        <ele>170</ele>
        <time>2017-04-21T11:08:32Z</time>
      </trkpt>
      <trkpt lat="45.93204" lon="4.76617">
        <ele>170</ele>
        <time>2017-04-21T11:08:33Z</time>
      </trkpt>
      <trkpt lat="45.93199" lon="4.76611">
        <ele>170</ele>
        <time>2017-04-21T11:08:34Z</time>
      </trkpt>
      <trkpt lat="45.93194" lon="4.76605">
        <ele>170</ele>
        <time>2017-04-21T11:08:35Z</time>
      </trkpt>
      <trkpt lat="45.93189" lon="4.76599">
        <ele>171</ele>
        <time>2017-04-21T11:08:36Z</time>
      </trkpt>
      <trkpt lat="45.93184" lon="4.76594">
        <ele>171</ele>
        <time>2017-04-21T11:08:37Z</time>
      </trkpt>
      <trkpt lat="45.9318" lon="4.76587">
        <ele>171</ele>
        <time>2017-04-21T11:08:38Z</time>
      </trkpt>
      <trkpt lat="45.93175" lon="4.76582">
        <ele>170</ele>
        <time>2017-04-21T11:08:39Z</time>
      </trkpt>
      <trkpt lat="45.9317" lon="4.76577">
        <ele>170</ele>
        <time>2017-04-21T11:08:40Z</time>
      </trkpt>
      <trkpt lat="45.93165" lon="4.76572">
        <ele>171</ele>
        <time>2017-04-21T11:08:41Z</time>
      </trkpt>
      <trkpt lat="45.93159" lon="4.76567">
        <ele>170</ele>
        <time>2017-04-21T11:08:42Z</time>
      </trkpt>
      <trkpt lat="45.93155" lon="4.76563">
        <ele>170</ele>
        <time>2017-04-21T11:08:43Z</time>
      </trkpt>
      <trkpt lat="45.93151" lon="4.76558">
        <ele>170</ele>
        <time>2017-04-21T11:08:44Z</time>
      </trkpt>
      <trkpt lat="45.93147" lon="4.76554">
        <ele>170</ele>
        <time>2017-04-21T11:08:45Z</time>
      </trkpt>
      <trkpt lat="45.93143" lon="4.76551">
        <ele>170</ele>
        <time>2017-04-21T11:08:46Z</time>
      </trkpt>
      <trkpt lat="45.93139" lon="4.76547">
        <ele>170</ele>
        <time>2017-04-21T11:08:47Z</time>
      </trkpt>
      <trkpt lat="45.93135" lon="4.76544">
        <ele>170</ele>
        <time>2017-04-21T11:08:48Z</time>
      </trkpt>
      <trkpt lat="45.9313" lon="4.7654">
        <ele>170</ele>
        <time>2017-04-21T11:08:49Z</time>
      </trkpt>
      <trkpt lat="45.93125" lon="4.76536">
        <ele>170</ele>
        <time>2017-04-21T11:08:50Z</time>
      </trkpt>
      <trkpt lat="45.9312" lon="4.76532">
        <ele>170</ele>
        <time>2017-04-21T11:08:51Z</time>
      </trkpt>
      <trkpt lat="45.93115" lon="4.76529">
        <ele>170</ele>
        <time>2017-04-21T11:08:52Z</time>
      </trkpt>
      <trkpt lat="45.9311" lon="4.76525">
        <ele>170</ele>
        <time>2017-04-21T11:08:53Z</time>
      </trkpt>
      <trkpt lat="45.93105" lon="4.7652">
        <ele>170</ele>
        <time>2017-04-21T11:08:54Z</time>
      </trkpt>
      <trkpt lat="45.931" lon="4.76515">
        <ele>170</ele>
        <time>2017-04-21T11:08:55Z</time>
      </trkpt>
      <trkpt lat="45.93094" lon="4.7651">
        <ele>170</ele>
        <time>2017-04-21T11:08:56Z</time>
      </trkpt>
      <trkpt lat="45.93089" lon="4.76506">
        <ele>170</ele>
        <time>2017-04-21T11:08:57Z</time>
      </trkpt>
      <trkpt lat="45.93085" lon="4.76502">
        <ele>170</ele>
        <time>2017-04-21T11:08:58Z</time>
      </trkpt>
      <trkpt lat="45.93081" lon="4.76497">
        <ele>170</ele>
        <time>2017-04-21T11:08:59Z</time>
      </trkpt>
      <trkpt lat="45.93077" lon="4.76494">
        <ele>170</ele>
        <time>2017-04-21T11:09:00Z</time>
      </trkpt>
      <trkpt lat="45.93072" lon="4.76489">
        <ele>169</ele>
        <time>2017-04-21T11:09:01Z</time>
      </trkpt>
      <trkpt lat="45.93068" lon="4.76485">
        <ele>169</ele>
        <time>2017-04-21T11:09:02Z</time>
      </trkpt>
      <trkpt lat="45.93064" lon="4.76481">
        <ele>169</ele>
        <time>2017-04-21T11:09:03Z</time>
      </trkpt>
      <trkpt lat="45.9306" lon="4.76478">
        <ele>169</ele>
        <time>2017-04-21T11:09:04Z</time>
      </trkpt>
      <trkpt lat="45.93055" lon="4.76474">
        <ele>169</ele>
        <time>2017-04-21T11:09:05Z</time>
      </trkpt>
      <trkpt lat="45.93052" lon="4.7647">
        <ele>169</ele>
        <time>2017-04-21T11:09:06Z</time>
      </trkpt>
      <trkpt lat="45.93048" lon="4.76467">
        <ele>169</ele>
        <time>2017-04-21T11:09:07Z</time>
      </trkpt>
      <trkpt lat="45.93043" lon="4.76463">
        <ele>169</ele>
        <time>2017-04-21T11:09:08Z</time>
      </trkpt>
      <trkpt lat="45.93039" lon="4.76458">
        <ele>169</ele>
        <time>2017-04-21T11:09:09Z</time>
      </trkpt>
      <trkpt lat="45.93034" lon="4.76455">
        <ele>169</ele>
        <time>2017-04-21T11:09:10Z</time>
      </trkpt>
      <trkpt lat="45.9303" lon="4.7645">
        <ele>169</ele>
        <time>2017-04-21T11:09:11Z</time>
      </trkpt>
      <trkpt lat="45.93025" lon="4.76445">
        <ele>169</ele>
        <time>2017-04-21T11:09:12Z</time>
      </trkpt>
      <trkpt lat="45.93022" lon="4.76442">
        <ele>169</ele>
        <time>2017-04-21T11:09:13Z</time>
      </trkpt>
      <trkpt lat="45.93014" lon="4.76435">
        <ele>169</ele>
        <time>2017-04-21T11:09:15Z</time>
      </trkpt>
      <trkpt lat="45.93011" lon="4.76431">
        <ele>169</ele>
        <time>2017-04-21T11:09:16Z</time>
      </trkpt>
      <trkpt lat="45.93004" lon="4.76424">
        <ele>169</ele>
        <time>2017-04-21T11:09:18Z</time>
      </trkpt>
      <trkpt lat="45.93" lon="4.7642">
        <ele>169</ele>
        <time>2017-04-21T11:09:19Z</time>
      </trkpt>
      <trkpt lat="45.92996" lon="4.76415">
        <ele>169</ele>
        <time>2017-04-21T11:09:20Z</time>
      </trkpt>
      <trkpt lat="45.92992" lon="4.76412">
        <ele>169</ele>
        <time>2017-04-21T11:09:21Z</time>
      </trkpt>
      <trkpt lat="45.92987" lon="4.76407">
        <ele>169</ele>
        <time>2017-04-21T11:09:22Z</time>
      </trkpt>
      <trkpt lat="45.92982" lon="4.76403">
        <ele>169</ele>
        <time>2017-04-21T11:09:23Z</time>
      </trkpt>
      <trkpt lat="45.92978" lon="4.76399">
        <ele>169</ele>
        <time>2017-04-21T11:09:24Z</time>
      </trkpt>
      <trkpt lat="45.92974" lon="4.76396">
        <ele>169</ele>
        <time>2017-04-21T11:09:25Z</time>
      </trkpt>
      <trkpt lat="45.9297" lon="4.76391">
        <ele>169</ele>
        <time>2017-04-21T11:09:26Z</time>
      </trkpt>
      <trkpt lat="45.92965" lon="4.76387">
        <ele>169</ele>
        <time>2017-04-21T11:09:27Z</time>
      </trkpt>
      <trkpt lat="45.92961" lon="4.76383">
        <ele>169</ele>
        <time>2017-04-21T11:09:28Z</time>
      </trkpt>
      <trkpt lat="45.92957" lon="4.76378">
        <ele>169</ele>
        <time>2017-04-21T11:09:29Z</time>
      </trkpt>
      <trkpt lat="45.92952" lon="4.76374">
        <ele>169</ele>
        <time>2017-04-21T11:09:30Z</time>
      </trkpt>
      <trkpt lat="45.92948" lon="4.7637">
        <ele>169</ele>
        <time>2017-04-21T11:09:31Z</time>
      </trkpt>
      <trkpt lat="45.92943" lon="4.76365">
        <ele>169</ele>
        <time>2017-04-21T11:09:32Z</time>
      </trkpt>
      <trkpt lat="45.92938" lon="4.7636">
        <ele>169</ele>
        <time>2017-04-21T11:09:33Z</time>
      </trkpt>
      <trkpt lat="45.92933" lon="4.76355">
        <ele>169</ele>
        <time>2017-04-21T11:09:34Z</time>
      </trkpt>
      <trkpt lat="45.92928" lon="4.7635">
        <ele>169</ele>
        <time>2017-04-21T11:09:35Z</time>
      </trkpt>
      <trkpt lat="45.92924" lon="4.76345">
        <ele>169</ele>
        <time>2017-04-21T11:09:36Z</time>
      </trkpt>
      <trkpt lat="45.92919" lon="4.7634">
        <ele>169</ele>
        <time>2017-04-21T11:09:37Z</time>
      </trkpt>
      <trkpt lat="45.92914" lon="4.76336">
        <ele>169</ele>
        <time>2017-04-21T11:09:38Z</time>
      </trkpt>
      <trkpt lat="45.92911" lon="4.76331">
        <ele>169</ele>
        <time>2017-04-21T11:09:39Z</time>
      </trkpt>
      <trkpt lat="45.92907" lon="4.76323">
        <ele>169</ele>
        <time>2017-04-21T11:09:40Z</time>
      </trkpt>
      <trkpt lat="45.92902" lon="4.76319">
        <ele>169</ele>
        <time>2017-04-21T11:09:41Z</time>
      </trkpt>
      <trkpt lat="45.92898" lon="4.76314">
        <ele>169</ele>
        <time>2017-04-21T11:09:42Z</time>
      </trkpt>
      <trkpt lat="45.92893" lon="4.76311">
        <ele>169</ele>
        <time>2017-04-21T11:09:43Z</time>
      </trkpt>
      <trkpt lat="45.92889" lon="4.76307">
        <ele>169</ele>
        <time>2017-04-21T11:09:44Z</time>
      </trkpt>
      <trkpt lat="45.92884" lon="4.76303">
        <ele>169</ele>
        <time>2017-04-21T11:09:45Z</time>
      </trkpt>
      <trkpt lat="45.9288" lon="4.76299">
        <ele>169</ele>
        <time>2017-04-21T11:09:46Z</time>
      </trkpt>
      <trkpt lat="45.92875" lon="4.76295">
        <ele>169</ele>
        <time>2017-04-21T11:09:47Z</time>
      </trkpt>
      <trkpt lat="45.92871" lon="4.7629">
        <ele>169</ele>
        <time>2017-04-21T11:09:48Z</time>
      </trkpt>
      <trkpt lat="45.92867" lon="4.76285">
        <ele>169</ele>
        <time>2017-04-21T11:09:49Z</time>
      </trkpt>
      <trkpt lat="45.92862" lon="4.7628">
        <ele>169</ele>
        <time>2017-04-21T11:09:50Z</time>
      </trkpt>
      <trkpt lat="45.92858" lon="4.76275">
        <ele>169</ele>
        <time>2017-04-21T11:09:51Z</time>
      </trkpt>
      <trkpt lat="45.92854" lon="4.76271">
        <ele>169</ele>
        <time>2017-04-21T11:09:52Z</time>
      </trkpt>
      <trkpt lat="45.9285" lon="4.76267">
        <ele>169</ele>
        <time>2017-04-21T11:09:53Z</time>
      </trkpt>
      <trkpt lat="45.92845" lon="4.76262">
        <ele>169</ele>
        <time>2017-04-21T11:09:54Z</time>
      </trkpt>
      <trkpt lat="45.92841" lon="4.76258">
        <ele>169</ele>
        <time>2017-04-21T11:09:55Z</time>
      </trkpt>
      <trkpt lat="45.92836" lon="4.76254">
        <ele>169</ele>
        <time>2017-04-21T11:09:56Z</time>
      </trkpt>
      <trkpt lat="45.92832" lon="4.76249">
        <ele>169</ele>
        <time>2017-04-21T11:09:57Z</time>
      </trkpt>
      <trkpt lat="45.92828" lon="4.76245">
        <ele>169</ele>
        <time>2017-04-21T11:09:58Z</time>
      </trkpt>
      <trkpt lat="45.92823" lon="4.76241">
        <ele>168</ele>
        <time>2017-04-21T11:09:59Z</time>
      </trkpt>
      <trkpt lat="45.92819" lon="4.76236">
        <ele>168</ele>
        <time>2017-04-21T11:10:00Z</time>
      </trkpt>
      <trkpt lat="45.92814" lon="4.76232">
        <ele>168</ele>
        <time>2017-04-21T11:10:01Z</time>
      </trkpt>
      <trkpt lat="45.92809" lon="4.76227">
        <ele>168</ele>
        <time>2017-04-21T11:10:02Z</time>
      </trkpt>
      <trkpt lat="45.92805" lon="4.76222">
        <ele>168</ele>
        <time>2017-04-21T11:10:03Z</time>
      </trkpt>
      <trkpt lat="45.92801" lon="4.76217">
        <ele>168</ele>
        <time>2017-04-21T11:10:04Z</time>
      </trkpt>
      <trkpt lat="45.92796" lon="4.76213">
        <ele>168</ele>
        <time>2017-04-21T11:10:05Z</time>
      </trkpt>
      <trkpt lat="45.92792" lon="4.76209">
        <ele>168</ele>
        <time>2017-04-21T11:10:06Z</time>
      </trkpt>
      <trkpt lat="45.92788" lon="4.76205">
        <ele>168</ele>
        <time>2017-04-21T11:10:07Z</time>
      </trkpt>
      <trkpt lat="45.92784" lon="4.76202">
        <ele>168</ele>
        <time>2017-04-21T11:10:08Z</time>
      </trkpt>
      <trkpt lat="45.92779" lon="4.76198">
        <ele>168</ele>
        <time>2017-04-21T11:10:09Z</time>
      </trkpt>
      <trkpt lat="45.92775" lon="4.76194">
        <ele>168</ele>
        <time>2017-04-21T11:10:10Z</time>
      </trkpt>
      <trkpt lat="45.9277" lon="4.76188">
        <ele>168</ele>
        <time>2017-04-21T11:10:11Z</time>
      </trkpt>
      <trkpt lat="45.92767" lon="4.76184">
        <ele>167</ele>
        <time>2017-04-21T11:10:12Z</time>
      </trkpt>
      <trkpt lat="45.92762" lon="4.76179">
        <ele>167</ele>
        <time>2017-04-21T11:10:13Z</time>
      </trkpt>
      <trkpt lat="45.92758" lon="4.76176">
        <ele>167</ele>
        <time>2017-04-21T11:10:14Z</time>
      </trkpt>
      <trkpt lat="45.92753" lon="4.76172">
        <ele>167</ele>
        <time>2017-04-21T11:10:15Z</time>
      </trkpt>
      <trkpt lat="45.92748" lon="4.76167">
        <ele>167</ele>
        <time>2017-04-21T11:10:16Z</time>
      </trkpt>
      <trkpt lat="45.92743" lon="4.76164">
        <ele>167</ele>
        <time>2017-04-21T11:10:17Z</time>
      </trkpt>
      <trkpt lat="45.92738" lon="4.7616">
        <ele>168</ele>
        <time>2017-04-21T11:10:18Z</time>
      </trkpt>
      <trkpt lat="45.92734" lon="4.76157">
        <ele>168</ele>
        <time>2017-04-21T11:10:19Z</time>
      </trkpt>
      <trkpt lat="45.9273" lon="4.76154">
        <ele>168</ele>
        <time>2017-04-21T11:10:20Z</time>
      </trkpt>
      <trkpt lat="45.92725" lon="4.76151">
        <ele>168</ele>
        <time>2017-04-21T11:10:21Z</time>
      </trkpt>
      <trkpt lat="45.92721" lon="4.76148">
        <ele>168</ele>
        <time>2017-04-21T11:10:22Z</time>
      </trkpt>
      <trkpt lat="45.92716" lon="4.76145">
        <ele>168</ele>
        <time>2017-04-21T11:10:23Z</time>
      </trkpt>
      <trkpt lat="45.92712" lon="4.76142">
        <ele>168</ele>
        <time>2017-04-21T11:10:24Z</time>
      </trkpt>
      <trkpt lat="45.92707" lon="4.76138">
        <ele>169</ele>
        <time>2017-04-21T11:10:25Z</time>
      </trkpt>
      <trkpt lat="45.92702" lon="4.76135">
        <ele>169</ele>
        <time>2017-04-21T11:10:26Z</time>
      </trkpt>
      <trkpt lat="45.92697" lon="4.7613">
        <ele>169</ele>
        <time>2017-04-21T11:10:27Z</time>
      </trkpt>
      <trkpt lat="45.92693" lon="4.76126">
        <ele>169</ele>
        <time>2017-04-21T11:10:28Z</time>
      </trkpt>
      <trkpt lat="45.92688" lon="4.76122">
        <ele>169</ele>
        <time>2017-04-21T11:10:29Z</time>
      </trkpt>
      <trkpt lat="45.92684" lon="4.76118">
        <ele>169</ele>
        <time>2017-04-21T11:10:30Z</time>
      </trkpt>
      <trkpt lat="45.92679" lon="4.76114">
        <ele>169</ele>
        <time>2017-04-21T11:10:31Z</time>
      </trkpt>
      <trkpt lat="45.92675" lon="4.7611">
        <ele>169</ele>
        <time>2017-04-21T11:10:32Z</time>
      </trkpt>
      <trkpt lat="45.9267" lon="4.76106">
        <ele>169</ele>
        <time>2017-04-21T11:10:33Z</time>
      </trkpt>
      <trkpt lat="45.92666" lon="4.76102">
        <ele>170</ele>
        <time>2017-04-21T11:10:34Z</time>
      </trkpt>
      <trkpt lat="45.92662" lon="4.76098">
        <ele>170</ele>
        <time>2017-04-21T11:10:35Z</time>
      </trkpt>
      <trkpt lat="45.92657" lon="4.76094">
        <ele>170</ele>
        <time>2017-04-21T11:10:36Z</time>
      </trkpt>
      <trkpt lat="45.92653" lon="4.7609">
        <ele>170</ele>
        <time>2017-04-21T11:10:37Z</time>
      </trkpt>
      <trkpt lat="45.92648" lon="4.76087">
        <ele>170</ele>
        <time>2017-04-21T11:10:38Z</time>
      </trkpt>
      <trkpt lat="45.92644" lon="4.76083">
        <ele>170</ele>
        <time>2017-04-21T11:10:39Z</time>
      </trkpt>
      <trkpt lat="45.9264" lon="4.7608">
        <ele>170</ele>
        <time>2017-04-21T11:10:40Z</time>
      </trkpt>
      <trkpt lat="45.92635" lon="4.76076">
        <ele>170</ele>
        <time>2017-04-21T11:10:41Z</time>
      </trkpt>
      <trkpt lat="45.9263" lon="4.76072">
        <ele>170</ele>
        <time>2017-04-21T11:10:42Z</time>
      </trkpt>
      <trkpt lat="45.92626" lon="4.76069">
        <ele>170</ele>
        <time>2017-04-21T11:10:43Z</time>
      </trkpt>
      <trkpt lat="45.92621" lon="4.76065">
        <ele>171</ele>
        <time>2017-04-21T11:10:44Z</time>
      </trkpt>
      <trkpt lat="45.92617" lon="4.76062">
        <ele>171</ele>
        <time>2017-04-21T11:10:45Z</time>
      </trkpt>
      <trkpt lat="45.92612" lon="4.76059">
        <ele>171</ele>
        <time>2017-04-21T11:10:46Z</time>
      </trkpt>
      <trkpt lat="45.92608" lon="4.76056">
        <ele>171</ele>
        <time>2017-04-21T11:10:47Z</time>
      </trkpt>
      <trkpt lat="45.926" lon="4.76049">
        <ele>171</ele>
        <time>2017-04-21T11:10:49Z</time>
      </trkpt>
      <trkpt lat="45.92596" lon="4.76046">
        <ele>171</ele>
        <time>2017-04-21T11:10:50Z</time>
      </trkpt>
      <trkpt lat="45.92592" lon="4.76042">
        <ele>171</ele>
        <time>2017-04-21T11:10:51Z</time>
      </trkpt>
      <trkpt lat="45.92588" lon="4.76039">
        <ele>171</ele>
        <time>2017-04-21T11:10:52Z</time>
      </trkpt>
      <trkpt lat="45.92584" lon="4.76036">
        <ele>171</ele>
        <time>2017-04-21T11:10:53Z</time>
      </trkpt>
      <trkpt lat="45.9258" lon="4.76034">
        <ele>172</ele>
        <time>2017-04-21T11:10:54Z</time>
      </trkpt>
      <trkpt lat="45.92572" lon="4.76028">
        <ele>172</ele>
        <time>2017-04-21T11:10:56Z</time>
      </trkpt>
      <trkpt lat="45.92568" lon="4.76024">
        <ele>172</ele>
        <time>2017-04-21T11:10:57Z</time>
      </trkpt>
      <trkpt lat="45.92561" lon="4.76019">
        <ele>172</ele>
        <time>2017-04-21T11:10:59Z</time>
      </trkpt>
      <trkpt lat="45.92557" lon="4.76016">
        <ele>172</ele>
        <time>2017-04-21T11:11:00Z</time>
      </trkpt>
      <trkpt lat="45.92552" lon="4.76013">
        <ele>172</ele>
        <time>2017-04-21T11:11:01Z</time>
      </trkpt>
      <trkpt lat="45.92548" lon="4.7601">
        <ele>172</ele>
        <time>2017-04-21T11:11:02Z</time>
      </trkpt>
      <trkpt lat="45.92544" lon="4.76007">
        <ele>172</ele>
        <time>2017-04-21T11:11:03Z</time>
      </trkpt>
      <trkpt lat="45.9254" lon="4.76004">
        <ele>172</ele>
        <time>2017-04-21T11:11:04Z</time>
      </trkpt>
      <trkpt lat="45.92535" lon="4.76001">
        <ele>172</ele>
        <time>2017-04-21T11:11:05Z</time>
      </trkpt>
      <trkpt lat="45.92531" lon="4.75998">
        <ele>172</ele>
        <time>2017-04-21T11:11:06Z</time>
      </trkpt>
      <trkpt lat="45.92527" lon="4.75995">
        <ele>172</ele>
        <time>2017-04-21T11:11:07Z</time>
      </trkpt>
      <trkpt lat="45.92523" lon="4.75992">
        <ele>172</ele>
        <time>2017-04-21T11:11:08Z</time>
      </trkpt>
      <trkpt lat="45.92518" lon="4.75989">
        <ele>172</ele>
        <time>2017-04-21T11:11:09Z</time>
      </trkpt>
      <trkpt lat="45.92514" lon="4.75986">
        <ele>172</ele>
        <time>2017-04-21T11:11:10Z</time>
      </trkpt>
      <trkpt lat="45.92509" lon="4.75983">
        <ele>172</ele>
        <time>2017-04-21T11:11:11Z</time>
      </trkpt>
      <trkpt lat="45.92504" lon="4.7598">
        <ele>172</ele>
        <time>2017-04-21T11:11:12Z</time>
      </trkpt>
      <trkpt lat="45.925" lon="4.75976">
        <ele>172</ele>
        <time>2017-04-21T11:11:13Z</time>
      </trkpt>
      <trkpt lat="45.92495" lon="4.75973">
        <ele>172</ele>
        <time>2017-04-21T11:11:14Z</time>
      </trkpt>
      <trkpt lat="45.9249" lon="4.7597">
        <ele>172</ele>
        <time>2017-04-21T11:11:15Z</time>
      </trkpt>
      <trkpt lat="45.92485" lon="4.75967">
        <ele>172</ele>
        <time>2017-04-21T11:11:16Z</time>
      </trkpt>
      <trkpt lat="45.9248" lon="4.75963">
        <ele>172</ele>
        <time>2017-04-21T11:11:17Z</time>
      </trkpt>
      <trkpt lat="45.92475" lon="4.7596">
        <ele>172</ele>
        <time>2017-04-21T11:11:18Z</time>
      </trkpt>
      <trkpt lat="45.92471" lon="4.75957">
        <ele>172</ele>
        <time>2017-04-21T11:11:19Z</time>
      </trkpt>
      <trkpt lat="45.92467" lon="4.75954">
        <ele>172</ele>
        <time>2017-04-21T11:11:20Z</time>
      </trkpt>
      <trkpt lat="45.92461" lon="4.7595">
        <ele>172</ele>
        <time>2017-04-21T11:11:21Z</time>
      </trkpt>
      <trkpt lat="45.92456" lon="4.75947">
        <ele>172</ele>
        <time>2017-04-21T11:11:22Z</time>
      </trkpt>
      <trkpt lat="45.92451" lon="4.75943">
        <ele>172</ele>
        <time>2017-04-21T11:11:23Z</time>
      </trkpt>
      <trkpt lat="45.92445" lon="4.7594">
        <ele>172</ele>
        <time>2017-04-21T11:11:24Z</time>
      </trkpt>
      <trkpt lat="45.9244" lon="4.75936">
        <ele>172</ele>
        <time>2017-04-21T11:11:25Z</time>
      </trkpt>
      <trkpt lat="45.92435" lon="4.75933">
        <ele>172</ele>
        <time>2017-04-21T11:11:26Z</time>
      </trkpt>
      <trkpt lat="45.92429" lon="4.75929">
        <ele>172</ele>
        <time>2017-04-21T11:11:27Z</time>
      </trkpt>
      <trkpt lat="45.92422" lon="4.75925">
        <ele>172</ele>
        <time>2017-04-21T11:11:28Z</time>
      </trkpt>
      <trkpt lat="45.92417" lon="4.75921">
        <ele>172</ele>
        <time>2017-04-21T11:11:29Z</time>
      </trkpt>
      <trkpt lat="45.92411" lon="4.75917">
        <ele>172</ele>
        <time>2017-04-21T11:11:30Z</time>
      </trkpt>
      <trkpt lat="45.92405" lon="4.75913">
        <ele>172</ele>
        <time>2017-04-21T11:11:31Z</time>
      </trkpt>
      <trkpt lat="45.92399" lon="4.75909">
        <ele>173</ele>
        <time>2017-04-21T11:11:32Z</time>
      </trkpt>
      <trkpt lat="45.92393" lon="4.75904">
        <ele>173</ele>
        <time>2017-04-21T11:11:33Z</time>
      </trkpt>
      <trkpt lat="45.92387" lon="4.759">
        <ele>173</ele>
        <time>2017-04-21T11:11:34Z</time>
      </trkpt>
      <trkpt lat="45.92381" lon="4.75895">
        <ele>173</ele>
        <time>2017-04-21T11:11:35Z</time>
      </trkpt>
      <trkpt lat="45.92376" lon="4.75891">
        <ele>173</ele>
        <time>2017-04-21T11:11:36Z</time>
      </trkpt>
      <trkpt lat="45.9237" lon="4.75887">
        <ele>173</ele>
        <time>2017-04-21T11:11:37Z</time>
      </trkpt>
      <trkpt lat="45.92365" lon="4.75883">
        <ele>173</ele>
        <time>2017-04-21T11:11:38Z</time>
      </trkpt>
      <trkpt lat="45.92359" lon="4.7588">
        <ele>173</ele>
        <time>2017-04-21T11:11:39Z</time>
      </trkpt>
      <trkpt lat="45.92354" lon="4.75876">
        <ele>173</ele>
        <time>2017-04-21T11:11:40Z</time>
      </trkpt>
      <trkpt lat="45.92349" lon="4.75873">
        <ele>173</ele>
        <time>2017-04-21T11:11:41Z</time>
      </trkpt>
      <trkpt lat="45.92344" lon="4.7587">
        <ele>173</ele>
        <time>2017-04-21T11:11:42Z</time>
      </trkpt>
      <trkpt lat="45.92339" lon="4.75868">
        <ele>173</ele>
        <time>2017-04-21T11:11:43Z</time>
      </trkpt>
      <trkpt lat="45.92334" lon="4.75865">
        <ele>173</ele>
        <time>2017-04-21T11:11:44Z</time>
      </trkpt>
      <trkpt lat="45.92329" lon="4.75862">
        <ele>173</ele>
        <time>2017-04-21T11:11:45Z</time>
      </trkpt>
      <trkpt lat="45.92324" lon="4.75859">
        <ele>173</ele>
        <time>2017-04-21T11:11:46Z</time>
      </trkpt>
      <trkpt lat="45.9232" lon="4.75855">
        <ele>173</ele>
        <time>2017-04-21T11:11:47Z</time>
      </trkpt>
      <trkpt lat="45.92316" lon="4.75853">
        <ele>173</ele>
        <time>2017-04-21T11:11:48Z</time>
      </trkpt>
      <trkpt lat="45.92311" lon="4.7585">
        <ele>173</ele>
        <time>2017-04-21T11:11:49Z</time>
      </trkpt>
      <trkpt lat="45.92305" lon="4.75848">
        <ele>173</ele>
        <time>2017-04-21T11:11:50Z</time>
      </trkpt>
      <trkpt lat="45.923" lon="4.75844">
        <ele>173</ele>
        <time>2017-04-21T11:11:51Z</time>
      </trkpt>
      <trkpt lat="45.92295" lon="4.75841">
        <ele>173</ele>
        <time>2017-04-21T11:11:52Z</time>
      </trkpt>
      <trkpt lat="45.92289" lon="4.75837">
        <ele>173</ele>
        <time>2017-04-21T11:11:53Z</time>
      </trkpt>
      <trkpt lat="45.92283" lon="4.75834">
        <ele>173</ele>
        <time>2017-04-21T11:11:54Z</time>
      </trkpt>
      <trkpt lat="45.92278" lon="4.75829">
        <ele>174</ele>
        <time>2017-04-21T11:11:55Z</time>
      </trkpt>
      <trkpt lat="45.92273" lon="4.75824">
        <ele>174</ele>
        <time>2017-04-21T11:11:56Z</time>
      </trkpt>
      <trkpt lat="45.92268" lon="4.75818">
        <ele>174</ele>
        <time>2017-04-21T11:11:57Z</time>
      </trkpt>
      <trkpt lat="45.92264" lon="4.75811">
        <ele>174</ele>
        <time>2017-04-21T11:11:58Z</time>
      </trkpt>
      <trkpt lat="45.92261" lon="4.75804">
        <ele>174</ele>
        <time>2017-04-21T11:11:59Z</time>
      </trkpt>
      <trkpt lat="45.92258" lon="4.75796">
        <ele>174</ele>
        <time>2017-04-21T11:12:00Z</time>
      </trkpt>
      <trkpt lat="45.92256" lon="4.75788">
        <ele>174</ele>
        <time>2017-04-21T11:12:01Z</time>
      </trkpt>
      <trkpt lat="45.92255" lon="4.75779">
        <ele>174</ele>
        <time>2017-04-21T11:12:02Z</time>
      </trkpt>
      <trkpt lat="45.92253" lon="4.75771">
        <ele>174</ele>
        <time>2017-04-21T11:12:03Z</time>
      </trkpt>
      <trkpt lat="45.92252" lon="4.75762">
        <ele>174</ele>
        <time>2017-04-21T11:12:04Z</time>
      </trkpt>
      <trkpt lat="45.92251" lon="4.75754">
        <ele>174</ele>
        <time>2017-04-21T11:12:05Z</time>
      </trkpt>
      <trkpt lat="45.9225" lon="4.75746">
        <ele>174</ele>
        <time>2017-04-21T11:12:06Z</time>
      </trkpt>
      <trkpt lat="45.92248" lon="4.75739">
        <ele>174</ele>
        <time>2017-04-21T11:12:07Z</time>
      </trkpt>
      <trkpt lat="45.92246" lon="4.75731">
        <ele>174</ele>
        <time>2017-04-21T11:12:08Z</time>
      </trkpt>
      <trkpt lat="45.92243" lon="4.75723">
        <ele>174</ele>
        <time>2017-04-21T11:12:09Z</time>
      </trkpt>
      <trkpt lat="45.9224" lon="4.75716">
        <ele>174</ele>
        <time>2017-04-21T11:12:10Z</time>
      </trkpt>
      <trkpt lat="45.92236" lon="4.75709">
        <ele>174</ele>
        <time>2017-04-21T11:12:11Z</time>
      </trkpt>
      <trkpt lat="45.92232" lon="4.75703">
        <ele>174</ele>
        <time>2017-04-21T11:12:12Z</time>
      </trkpt>
      <trkpt lat="45.92228" lon="4.75698">
        <ele>174</ele>
        <time>2017-04-21T11:12:13Z</time>
      </trkpt>
      <trkpt lat="45.92224" lon="4.75692">
        <ele>174</ele>
        <time>2017-04-21T11:12:14Z</time>
      </trkpt>
      <trkpt lat="45.92218" lon="4.75687">
        <ele>174</ele>
        <time>2017-04-21T11:12:15Z</time>
      </trkpt>
      <trkpt lat="45.92213" lon="4.75683">
        <ele>174</ele>
        <time>2017-04-21T11:12:16Z</time>
      </trkpt>
      <trkpt lat="45.92208" lon="4.75678">
        <ele>174</ele>
        <time>2017-04-21T11:12:17Z</time>
      </trkpt>
      <trkpt lat="45.92204" lon="4.75674">
        <ele>174</ele>
        <time>2017-04-21T11:12:18Z</time>
      </trkpt>
      <trkpt lat="45.92199" lon="4.7567">
        <ele>174</ele>
        <time>2017-04-21T11:12:19Z</time>
      </trkpt>
      <trkpt lat="45.92195" lon="4.75665">
        <ele>174</ele>
        <time>2017-04-21T11:12:20Z</time>
      </trkpt>
      <trkpt lat="45.9219" lon="4.75661">
        <ele>174</ele>
        <time>2017-04-21T11:12:21Z</time>
      </trkpt>
      <trkpt lat="45.92185" lon="4.75657">
        <ele>174</ele>
        <time>2017-04-21T11:12:22Z</time>
      </trkpt>
      <trkpt lat="45.9218" lon="4.75652">
        <ele>174</ele>
        <time>2017-04-21T11:12:23Z</time>
      </trkpt>
      <trkpt lat="45.92175" lon="4.75648">
        <ele>174</ele>
        <time>2017-04-21T11:12:24Z</time>
      </trkpt>
      <trkpt lat="45.9217" lon="4.75643">
        <ele>174</ele>
        <time>2017-04-21T11:12:25Z</time>
      </trkpt>
      <trkpt lat="45.92165" lon="4.75638">
        <ele>174</ele>
        <time>2017-04-21T11:12:26Z</time>
      </trkpt>
      <trkpt lat="45.9216" lon="4.75633">
        <ele>174</ele>
        <time>2017-04-21T11:12:27Z</time>
      </trkpt>
      <trkpt lat="45.92155" lon="4.75629">
        <ele>174</ele>
        <time>2017-04-21T11:12:28Z</time>
      </trkpt>
      <trkpt lat="45.9215" lon="4.75624">
        <ele>174</ele>
        <time>2017-04-21T11:12:29Z</time>
      </trkpt>
      <trkpt lat="45.92146" lon="4.75619">
        <ele>174</ele>
        <time>2017-04-21T11:12:30Z</time>
      </trkpt>
      <trkpt lat="45.92141" lon="4.75614">
        <ele>174</ele>
        <time>2017-04-21T11:12:31Z</time>
      </trkpt>
      <trkpt lat="45.92137" lon="4.75609">
        <ele>174</ele>
        <time>2017-04-21T11:12:32Z</time>
      </trkpt>
      <trkpt lat="45.92133" lon="4.75605">
        <ele>174</ele>
        <time>2017-04-21T11:12:33Z</time>
      </trkpt>
      <trkpt lat="45.92129" lon="4.75601">
        <ele>174</ele>
        <time>2017-04-21T11:12:34Z</time>
      </trkpt>
      <trkpt lat="45.92125" lon="4.75596">
        <ele>174</ele>
        <time>2017-04-21T11:12:35Z</time>
      </trkpt>
      <trkpt lat="45.92121" lon="4.75592">
        <ele>174</ele>
        <time>2017-04-21T11:12:36Z</time>
      </trkpt>
      <trkpt lat="45.92117" lon="4.75588">
        <ele>174</ele>
        <time>2017-04-21T11:12:37Z</time>
      </trkpt>
      <trkpt lat="45.92114" lon="4.75582">
        <ele>174</ele>
        <time>2017-04-21T11:12:38Z</time>
      </trkpt>
      <trkpt lat="45.92112" lon="4.7557">
        <ele>174</ele>
        <time>2017-04-21T11:12:40Z</time>
      </trkpt>
      <trkpt lat="45.92114" lon="4.75564">
        <ele>174</ele>
        <time>2017-04-21T11:12:41Z</time>
      </trkpt>
      <trkpt lat="45.92117" lon="4.75559">
        <ele>174</ele>
        <time>2017-04-21T11:12:42Z</time>
      </trkpt>
      <trkpt lat="45.9212" lon="4.75554">
        <ele>174</ele>
        <time>2017-04-21T11:12:43Z</time>
      </trkpt>
      <trkpt lat="45.92123" lon="4.75548">
        <ele>174</ele>
        <time>2017-04-21T11:12:44Z</time>
      </trkpt>
      <trkpt lat="45.92126" lon="4.75541">
        <ele>174</ele>
        <time>2017-04-21T11:12:45Z</time>
      </trkpt>
      <trkpt lat="45.9213" lon="4.75535">
        <ele>174</ele>
        <time>2017-04-21T11:12:46Z</time>
      </trkpt>
      <trkpt lat="45.92133" lon="4.75528">
        <ele>174</ele>
        <time>2017-04-21T11:12:47Z</time>
      </trkpt>
      <trkpt lat="45.92137" lon="4.75521">
        <ele>174</ele>
        <time>2017-04-21T11:12:48Z</time>
      </trkpt>
      <trkpt lat="45.9214" lon="4.75513">
        <ele>174</ele>
        <time>2017-04-21T11:12:49Z</time>
      </trkpt>
      <trkpt lat="45.92143" lon="4.75506">
        <ele>175</ele>
        <time>2017-04-21T11:12:50Z</time>
      </trkpt>
      <trkpt lat="45.92146" lon="4.75497">
        <ele>175</ele>
        <time>2017-04-21T11:12:51Z</time>
      </trkpt>
      <trkpt lat="45.92149" lon="4.75489">
        <ele>176</ele>
        <time>2017-04-21T11:12:52Z</time>
      </trkpt>
      <trkpt lat="45.92153" lon="4.75481">
        <ele>176</ele>
        <time>2017-04-21T11:12:53Z</time>
      </trkpt>
      <trkpt lat="45.92156" lon="4.75473">
        <ele>176</ele>
        <time>2017-04-21T11:12:54Z</time>
      </trkpt>
      <trkpt lat="45.92159" lon="4.75465">
        <ele>176</ele>
        <time>2017-04-21T11:12:55Z</time>
      </trkpt>
      <trkpt lat="45.92162" lon="4.75457">
        <ele>176</ele>
        <time>2017-04-21T11:12:56Z</time>
      </trkpt>
      <trkpt lat="45.92165" lon="4.7545">
        <ele>176</ele>
        <time>2017-04-21T11:12:57Z</time>
      </trkpt>
      <trkpt lat="45.92168" lon="4.75442">
        <ele>177</ele>
        <time>2017-04-21T11:12:58Z</time>
      </trkpt>
      <trkpt lat="45.92171" lon="4.75435">
        <ele>177</ele>
        <time>2017-04-21T11:12:59Z</time>
      </trkpt>
      <trkpt lat="45.92174" lon="4.75428">
        <ele>177</ele>
        <time>2017-04-21T11:13:00Z</time>
      </trkpt>
      <trkpt lat="45.92177" lon="4.75421">
        <ele>177</ele>
        <time>2017-04-21T11:13:01Z</time>
      </trkpt>
      <trkpt lat="45.9218" lon="4.75414">
        <ele>177</ele>
        <time>2017-04-21T11:13:02Z</time>
      </trkpt>
      <trkpt lat="45.92183" lon="4.75407">
        <ele>177</ele>
        <time>2017-04-21T11:13:03Z</time>
      </trkpt>
      <trkpt lat="45.92186" lon="4.75401">
        <ele>177</ele>
        <time>2017-04-21T11:13:04Z</time>
      </trkpt>
      <trkpt lat="45.92189" lon="4.75394">
        <ele>177</ele>
        <time>2017-04-21T11:13:05Z</time>
      </trkpt>
      <trkpt lat="45.92191" lon="4.75387">
        <ele>177</ele>
        <time>2017-04-21T11:13:06Z</time>
      </trkpt>
      <trkpt lat="45.92194" lon="4.7538">
        <ele>177</ele>
        <time>2017-04-21T11:13:07Z</time>
      </trkpt>
      <trkpt lat="45.92197" lon="4.75373">
        <ele>177</ele>
        <time>2017-04-21T11:13:08Z</time>
      </trkpt>
      <trkpt lat="45.92199" lon="4.75366">
        <ele>177</ele>
        <time>2017-04-21T11:13:09Z</time>
      </trkpt>
      <trkpt lat="45.92201" lon="4.75359">
        <ele>177</ele>
        <time>2017-04-21T11:13:10Z</time>
      </trkpt>
      <trkpt lat="45.92203" lon="4.75352">
        <ele>177</ele>
        <time>2017-04-21T11:13:11Z</time>
      </trkpt>
      <trkpt lat="45.92205" lon="4.75344">
        <ele>177</ele>
        <time>2017-04-21T11:13:12Z</time>
      </trkpt>
      <trkpt lat="45.92206" lon="4.75336">
        <ele>177</ele>
        <time>2017-04-21T11:13:13Z</time>
      </trkpt>
      <trkpt lat="45.92208" lon="4.75328">
        <ele>176</ele>
        <time>2017-04-21T11:13:14Z</time>
      </trkpt>
      <trkpt lat="45.92209" lon="4.75319">
        <ele>176</ele>
        <time>2017-04-21T11:13:15Z</time>
      </trkpt>
      <trkpt lat="45.9221" lon="4.7531">
        <ele>176</ele>
        <time>2017-04-21T11:13:16Z</time>
      </trkpt>
      <trkpt lat="45.9221" lon="4.75302">
        <ele>176</ele>
        <time>2017-04-21T11:13:17Z</time>
      </trkpt>
      <trkpt lat="45.92211" lon="4.75294">
        <ele>176</ele>
        <time>2017-04-21T11:13:18Z</time>
      </trkpt>
      <trkpt lat="45.92211" lon="4.75285">
        <ele>176</ele>
        <time>2017-04-21T11:13:19Z</time>
      </trkpt>
      <trkpt lat="45.92212" lon="4.75276">
        <ele>176</ele>
        <time>2017-04-21T11:13:20Z</time>
      </trkpt>
      <trkpt lat="45.92212" lon="4.75266">
        <ele>176</ele>
        <time>2017-04-21T11:13:21Z</time>
      </trkpt>
      <trkpt lat="45.92212" lon="4.75256">
        <ele>175</ele>
        <time>2017-04-21T11:13:22Z</time>
      </trkpt>
      <trkpt lat="45.92213" lon="4.75246">
        <ele>175</ele>
        <time>2017-04-21T11:13:23Z</time>
      </trkpt>
      <trkpt lat="45.92214" lon="4.75236">
        <ele>175</ele>
        <time>2017-04-21T11:13:24Z</time>
      </trkpt>
      <trkpt lat="45.92215" lon="4.75226">
        <ele>175</ele>
        <time>2017-04-21T11:13:25Z</time>
      </trkpt>
      <trkpt lat="45.92216" lon="4.75216">
        <ele>175</ele>
        <time>2017-04-21T11:13:26Z</time>
      </trkpt>
      <trkpt lat="45.92217" lon="4.75206">
        <ele>175</ele>
        <time>2017-04-21T11:13:27Z</time>
      </trkpt>
      <trkpt lat="45.92218" lon="4.75196">
        <ele>175</ele>
        <time>2017-04-21T11:13:28Z</time>
      </trkpt>
      <trkpt lat="45.92221" lon="4.75187">
        <ele>175</ele>
        <time>2017-04-21T11:13:29Z</time>
      </trkpt>
      <trkpt lat="45.92224" lon="4.75177">
        <ele>175</ele>
        <time>2017-04-21T11:13:30Z</time>
      </trkpt>
      <trkpt lat="45.92227" lon="4.75168">
        <ele>175</ele>
        <time>2017-04-21T11:13:31Z</time>
      </trkpt>
      <trkpt lat="45.92232" lon="4.7516">
        <ele>174</ele>
        <time>2017-04-21T11:13:32Z</time>
      </trkpt>
      <trkpt lat="45.92236" lon="4.75151">
        <ele>174</ele>
        <time>2017-04-21T11:13:33Z</time>
      </trkpt>
      <trkpt lat="45.92241" lon="4.75143">
        <ele>174</ele>
        <time>2017-04-21T11:13:34Z</time>
      </trkpt>
      <trkpt lat="45.92246" lon="4.75136">
        <ele>174</ele>
        <time>2017-04-21T11:13:35Z</time>
      </trkpt>
      <trkpt lat="45.9225" lon="4.75129">
        <ele>174</ele>
        <time>2017-04-21T11:13:36Z</time>
      </trkpt>
      <trkpt lat="45.92255" lon="4.75123">
        <ele>174</ele>
        <time>2017-04-21T11:13:37Z</time>
      </trkpt>
      <trkpt lat="45.9226" lon="4.75116">
        <ele>174</ele>
        <time>2017-04-21T11:13:38Z</time>
      </trkpt>
      <trkpt lat="45.92265" lon="4.7511">
        <ele>174</ele>
        <time>2017-04-21T11:13:39Z</time>
      </trkpt>
      <trkpt lat="45.9227" lon="4.75105">
        <ele>174</ele>
        <time>2017-04-21T11:13:40Z</time>
      </trkpt>
      <trkpt lat="45.92275" lon="4.75099">
        <ele>173</ele>
        <time>2017-04-21T11:13:41Z</time>
      </trkpt>
      <trkpt lat="45.92279" lon="4.75093">
        <ele>173</ele>
        <time>2017-04-21T11:13:42Z</time>
      </trkpt>
      <trkpt lat="45.92284" lon="4.75087">
        <ele>173</ele>
        <time>2017-04-21T11:13:43Z</time>
      </trkpt>
      <trkpt lat="45.92288" lon="4.75082">
        <ele>172</ele>
        <time>2017-04-21T11:13:44Z</time>
      </trkpt>
      <trkpt lat="45.92294" lon="4.75076">
        <ele>172</ele>
        <time>2017-04-21T11:13:45Z</time>
      </trkpt>
      <trkpt lat="45.92299" lon="4.75069">
        <ele>172</ele>
        <time>2017-04-21T11:13:46Z</time>
      </trkpt>
      <trkpt lat="45.92304" lon="4.75062">
        <ele>172</ele>
        <time>2017-04-21T11:13:47Z</time>
      </trkpt>
      <trkpt lat="45.9231" lon="4.75054">
        <ele>172</ele>
        <time>2017-04-21T11:13:48Z</time>
      </trkpt>
      <trkpt lat="45.92315" lon="4.75047">
        <ele>172</ele>
        <time>2017-04-21T11:13:49Z</time>
      </trkpt>
      <trkpt lat="45.92319" lon="4.75039">
        <ele>171</ele>
        <time>2017-04-21T11:13:50Z</time>
      </trkpt>
      <trkpt lat="45.92324" lon="4.75031">
        <ele>171</ele>
        <time>2017-04-21T11:13:51Z</time>
      </trkpt>
      <trkpt lat="45.92328" lon="4.75023">
        <ele>171</ele>
        <time>2017-04-21T11:13:52Z</time>
      </trkpt>
      <trkpt lat="45.92332" lon="4.75015">
        <ele>171</ele>
        <time>2017-04-21T11:13:53Z</time>
      </trkpt>
      <trkpt lat="45.92335" lon="4.75007">
        <ele>170</ele>
        <time>2017-04-21T11:13:54Z</time>
      </trkpt>
      <trkpt lat="45.92339" lon="4.74999">
        <ele>170</ele>
        <time>2017-04-21T11:13:55Z</time>
      </trkpt>
      <trkpt lat="45.92343" lon="4.74992">
        <ele>170</ele>
        <time>2017-04-21T11:13:56Z</time>
      </trkpt>
      <trkpt lat="45.92346" lon="4.74984">
        <ele>170</ele>
        <time>2017-04-21T11:13:57Z</time>
      </trkpt>
      <trkpt lat="45.92349" lon="4.74976">
        <ele>170</ele>
        <time>2017-04-21T11:13:58Z</time>
      </trkpt>
      <trkpt lat="45.92352" lon="4.74969">
        <ele>170</ele>
        <time>2017-04-21T11:13:59Z</time>
      </trkpt>
      <trkpt lat="45.92355" lon="4.74961">
        <ele>170</ele>
        <time>2017-04-21T11:14:00Z</time>
      </trkpt>
      <trkpt lat="45.92358" lon="4.74954">
        <ele>170</ele>
        <time>2017-04-21T11:14:01Z</time>
      </trkpt>
      <trkpt lat="45.92361" lon="4.74947">
        <ele>170</ele>
        <time>2017-04-21T11:14:02Z</time>
      </trkpt>
      <trkpt lat="45.92364" lon="4.7494">
        <ele>170</ele>
        <time>2017-04-21T11:14:03Z</time>
      </trkpt>
      <trkpt lat="45.92367" lon="4.74932">
        <ele>170</ele>
        <time>2017-04-21T11:14:04Z</time>
      </trkpt>
      <trkpt lat="45.9237" lon="4.74925">
        <ele>170</ele>
        <time>2017-04-21T11:14:05Z</time>
      </trkpt>
      <trkpt lat="45.92373" lon="4.74918">
        <ele>170</ele>
        <time>2017-04-21T11:14:06Z</time>
      </trkpt>
      <trkpt lat="45.92375" lon="4.7491">
        <ele>171</ele>
        <time>2017-04-21T11:14:07Z</time>
      </trkpt>
      <trkpt lat="45.92378" lon="4.74902">
        <ele>171</ele>
        <time>2017-04-21T11:14:08Z</time>
      </trkpt>
      <trkpt lat="45.92381" lon="4.74895">
        <ele>171</ele>
        <time>2017-04-21T11:14:09Z</time>
      </trkpt>
      <trkpt lat="45.92384" lon="4.74887">
        <ele>171</ele>
        <time>2017-04-21T11:14:10Z</time>
      </trkpt>
      <trkpt lat="45.92387" lon="4.7488">
        <ele>171</ele>
        <time>2017-04-21T11:14:11Z</time>
      </trkpt>
      <trkpt lat="45.9239" lon="4.74872">
        <ele>171</ele>
        <time>2017-04-21T11:14:12Z</time>
      </trkpt>
      <trkpt lat="45.92392" lon="4.74864">
        <ele>171</ele>
        <time>2017-04-21T11:14:13Z</time>
      </trkpt>
      <trkpt lat="45.92395" lon="4.74856">
        <ele>171</ele>
        <time>2017-04-21T11:14:14Z</time>
      </trkpt>
      <trkpt lat="45.92397" lon="4.74848">
        <ele>171</ele>
        <time>2017-04-21T11:14:15Z</time>
      </trkpt>
      <trkpt lat="45.924" lon="4.74839">
        <ele>171</ele>
        <time>2017-04-21T11:14:16Z</time>
      </trkpt>
      <trkpt lat="45.92402" lon="4.74831">
        <ele>171</ele>
        <time>2017-04-21T11:14:17Z</time>
      </trkpt>
      <trkpt lat="45.92404" lon="4.74822">
        <ele>171</ele>
        <time>2017-04-21T11:14:18Z</time>
      </trkpt>
      <trkpt lat="45.92406" lon="4.74813">
        <ele>171</ele>
        <time>2017-04-21T11:14:19Z</time>
      </trkpt>
      <trkpt lat="45.92408" lon="4.74805">
        <ele>171</ele>
        <time>2017-04-21T11:14:20Z</time>
      </trkpt>
      <trkpt lat="45.9241" lon="4.74798">
        <ele>171</ele>
        <time>2017-04-21T11:14:21Z</time>
      </trkpt>
      <trkpt lat="45.92411" lon="4.7479">
        <ele>171</ele>
        <time>2017-04-21T11:14:22Z</time>
      </trkpt>
      <trkpt lat="45.92413" lon="4.74783">
        <ele>171</ele>
        <time>2017-04-21T11:14:23Z</time>
      </trkpt>
      <trkpt lat="45.92415" lon="4.74775">
        <ele>171</ele>
        <time>2017-04-21T11:14:24Z</time>
      </trkpt>
      <trkpt lat="45.92417" lon="4.74767">
        <ele>171</ele>
        <time>2017-04-21T11:14:25Z</time>
      </trkpt>
      <trkpt lat="45.92419" lon="4.74759">
        <ele>172</ele>
        <time>2017-04-21T11:14:26Z</time>
      </trkpt>
      <trkpt lat="45.92422" lon="4.74752">
        <ele>172</ele>
        <time>2017-04-21T11:14:27Z</time>
      </trkpt>
      <trkpt lat="45.92425" lon="4.74744">
        <ele>172</ele>
        <time>2017-04-21T11:14:28Z</time>
      </trkpt>
      <trkpt lat="45.92427" lon="4.74736">
        <ele>171</ele>
        <time>2017-04-21T11:14:29Z</time>
      </trkpt>
      <trkpt lat="45.9243" lon="4.74729">
        <ele>171</ele>
        <time>2017-04-21T11:14:30Z</time>
      </trkpt>
      <trkpt lat="45.92433" lon="4.74721">
        <ele>171</ele>
        <time>2017-04-21T11:14:31Z</time>
      </trkpt>
      <trkpt lat="45.92436" lon="4.74714">
        <ele>171</ele>
        <time>2017-04-21T11:14:32Z</time>
      </trkpt>
      <trkpt lat="45.92439" lon="4.74706">
        <ele>171</ele>
        <time>2017-04-21T11:14:33Z</time>
      </trkpt>
      <trkpt lat="45.92442" lon="4.74699">
        <ele>171</ele>
        <time>2017-04-21T11:14:34Z</time>
      </trkpt>
      <trkpt lat="45.92445" lon="4.74693">
        <ele>171</ele>
        <time>2017-04-21T11:14:35Z</time>
      </trkpt>
      <trkpt lat="45.92448" lon="4.74686">
        <ele>171</ele>
        <time>2017-04-21T11:14:36Z</time>
      </trkpt>
      <trkpt lat="45.92452" lon="4.74679">
        <ele>171</ele>
        <time>2017-04-21T11:14:37Z</time>
      </trkpt>
      <trkpt lat="45.92455" lon="4.74672">
        <ele>171</ele>
        <time>2017-04-21T11:14:38Z</time>
      </trkpt>
      <trkpt lat="45.92458" lon="4.74666">
        <ele>171</ele>
        <time>2017-04-21T11:14:39Z</time>
      </trkpt>
      <trkpt lat="45.92462" lon="4.74659">
        <ele>171</ele>
        <time>2017-04-21T11:14:40Z</time>
      </trkpt>
      <trkpt lat="45.92465" lon="4.74653">
        <ele>171</ele>
        <time>2017-04-21T11:14:41Z</time>
      </trkpt>
      <trkpt lat="45.92469" lon="4.74648">
        <ele>171</ele>
        <time>2017-04-21T11:14:42Z</time>
      </trkpt>
      <trkpt lat="45.92472" lon="4.74643">
        <ele>171</ele>
        <time>2017-04-21T11:14:43Z</time>
      </trkpt>
      <trkpt lat="45.92477" lon="4.74638">
        <ele>171</ele>
        <time>2017-04-21T11:14:44Z</time>
      </trkpt>
      <trkpt lat="45.92481" lon="4.74632">
        <ele>171</ele>
        <time>2017-04-21T11:14:45Z</time>
      </trkpt>
      <trkpt lat="45.92485" lon="4.74626">
        <ele>171</ele>
        <time>2017-04-21T11:14:46Z</time>
      </trkpt>
      <trkpt lat="45.92488" lon="4.7462">
        <ele>171</ele>
        <time>2017-04-21T11:14:47Z</time>
      </trkpt>
      <trkpt lat="45.92492" lon="4.74615">
        <ele>171</ele>
        <time>2017-04-21T11:14:48Z</time>
      </trkpt>
      <trkpt lat="45.92497" lon="4.74609">
        <ele>171</ele>
        <time>2017-04-21T11:14:49Z</time>
      </trkpt>
      <trkpt lat="45.92501" lon="4.74603">
        <ele>171</ele>
        <time>2017-04-21T11:14:50Z</time>
      </trkpt>
      <trkpt lat="45.92506" lon="4.74597">
        <ele>171</ele>
        <time>2017-04-21T11:14:51Z</time>
      </trkpt>
      <trkpt lat="45.92511" lon="4.74591">
        <ele>171</ele>
        <time>2017-04-21T11:14:52Z</time>
      </trkpt>
      <trkpt lat="45.92516" lon="4.74585">
        <ele>171</ele>
        <time>2017-04-21T11:14:53Z</time>
      </trkpt>
      <trkpt lat="45.92521" lon="4.74579">
        <ele>171</ele>
        <time>2017-04-21T11:14:54Z</time>
      </trkpt>
      <trkpt lat="45.92525" lon="4.74574">
        <ele>171</ele>
        <time>2017-04-21T11:14:55Z</time>
      </trkpt>
      <trkpt lat="45.9253" lon="4.74568">
        <ele>171</ele>
        <time>2017-04-21T11:14:56Z</time>
      </trkpt>
      <trkpt lat="45.92534" lon="4.74562">
        <ele>171</ele>
        <time>2017-04-21T11:14:57Z</time>
      </trkpt>
      <trkpt lat="45.92538" lon="4.74556">
        <ele>171</ele>
        <time>2017-04-21T11:14:58Z</time>
      </trkpt>
      <trkpt lat="45.92541" lon="4.7455">
        <ele>171</ele>
        <time>2017-04-21T11:14:59Z</time>
      </trkpt>
      <trkpt lat="45.92545" lon="4.74544">
        <ele>170</ele>
        <time>2017-04-21T11:15:00Z</time>
      </trkpt>
      <trkpt lat="45.92548" lon="4.74537">
        <ele>170</ele>
        <time>2017-04-21T11:15:01Z</time>
      </trkpt>
      <trkpt lat="45.92552" lon="4.74531">
        <ele>170</ele>
        <time>2017-04-21T11:15:02Z</time>
      </trkpt>
      <trkpt lat="45.92555" lon="4.74524">
        <ele>170</ele>
        <time>2017-04-21T11:15:03Z</time>
      </trkpt>
      <trkpt lat="45.92558" lon="4.74518">
        <ele>170</ele>
        <time>2017-04-21T11:15:04Z</time>
      </trkpt>
      <trkpt lat="45.92562" lon="4.74511">
        <ele>170</ele>
        <time>2017-04-21T11:15:05Z</time>
      </trkpt>
      <trkpt lat="45.92565" lon="4.74505">
        <ele>170</ele>
        <time>2017-04-21T11:15:06Z</time>
      </trkpt>
      <trkpt lat="45.92569" lon="4.74498">
        <ele>170</ele>
        <time>2017-04-21T11:15:07Z</time>
      </trkpt>
      <trkpt lat="45.92573" lon="4.74492">
        <ele>170</ele>
        <time>2017-04-21T11:15:08Z</time>
      </trkpt>
      <trkpt lat="45.92576" lon="4.74485">
        <ele>170</ele>
        <time>2017-04-21T11:15:09Z</time>
      </trkpt>
      <trkpt lat="45.9258" lon="4.74479">
        <ele>170</ele>
        <time>2017-04-21T11:15:10Z</time>
      </trkpt>
      <trkpt lat="45.92584" lon="4.74472">
        <ele>170</ele>
        <time>2017-04-21T11:15:11Z</time>
      </trkpt>
      <trkpt lat="45.92587" lon="4.74465">
        <ele>170</ele>
        <time>2017-04-21T11:15:12Z</time>
      </trkpt>
      <trkpt lat="45.92591" lon="4.74459">
        <ele>170</ele>
        <time>2017-04-21T11:15:13Z</time>
      </trkpt>
      <trkpt lat="45.92594" lon="4.74452">
        <ele>170</ele>
        <time>2017-04-21T11:15:14Z</time>
      </trkpt>
      <trkpt lat="45.92598" lon="4.74446">
        <ele>170</ele>
        <time>2017-04-21T11:15:15Z</time>
      </trkpt>
      <trkpt lat="45.92601" lon="4.7444">
        <ele>170</ele>
        <time>2017-04-21T11:15:16Z</time>
      </trkpt>
      <trkpt lat="45.92605" lon="4.74434">
        <ele>170</ele>
        <time>2017-04-21T11:15:17Z</time>
      </trkpt>
      <trkpt lat="45.92608" lon="4.74428">
        <ele>170</ele>
        <time>2017-04-21T11:15:18Z</time>
      </trkpt>
      <trkpt lat="45.92612" lon="4.74422">
        <ele>170</ele>
        <time>2017-04-21T11:15:19Z</time>
      </trkpt>
      <trkpt lat="45.92615" lon="4.74415">
        <ele>170</ele>
        <time>2017-04-21T11:15:20Z</time>
      </trkpt>
      <trkpt lat="45.92619" lon="4.74409">
        <ele>170</ele>
        <time>2017-04-21T11:15:21Z</time>
      </trkpt>
      <trkpt lat="45.92623" lon="4.74402">
        <ele>170</ele>
        <time>2017-04-21T11:15:22Z</time>
      </trkpt>
      <trkpt lat="45.92626" lon="4.74395">
        <ele>170</ele>
        <time>2017-04-21T11:15:23Z</time>
      </trkpt>
      <trkpt lat="45.9263" lon="4.74388">
        <ele>170</ele>
        <time>2017-04-21T11:15:24Z</time>
      </trkpt>
      <trkpt lat="45.92634" lon="4.74381">
        <ele>170</ele>
        <time>2017-04-21T11:15:25Z</time>
      </trkpt>
      <trkpt lat="45.92637" lon="4.74374">
        <ele>171</ele>
        <time>2017-04-21T11:15:26Z</time>
      </trkpt>
      <trkpt lat="45.92641" lon="4.74368">
        <ele>171</ele>
        <time>2017-04-21T11:15:27Z</time>
      </trkpt>
      <trkpt lat="45.92645" lon="4.74362">
        <ele>171</ele>
        <time>2017-04-21T11:15:28Z</time>
      </trkpt>
      <trkpt lat="45.92648" lon="4.74356">
        <ele>171</ele>
        <time>2017-04-21T11:15:29Z</time>
      </trkpt>
      <trkpt lat="45.92651" lon="4.7435">
        <ele>171</ele>
        <time>2017-04-21T11:15:30Z</time>
      </trkpt>
      <trkpt lat="45.92654" lon="4.74344">
        <ele>171</ele>
        <time>2017-04-21T11:15:31Z</time>
      </trkpt>
      <trkpt lat="45.92657" lon="4.74339">
        <ele>171</ele>
        <time>2017-04-21T11:15:32Z</time>
      </trkpt>
      <trkpt lat="45.9266" lon="4.74333">
        <ele>171</ele>
        <time>2017-04-21T11:15:33Z</time>
      </trkpt>
      <trkpt lat="45.92663" lon="4.74327">
        <ele>171</ele>
        <time>2017-04-21T11:15:34Z</time>
      </trkpt>
      <trkpt lat="45.92666" lon="4.74321">
        <ele>171</ele>
        <time>2017-04-21T11:15:35Z</time>
      </trkpt>
      <trkpt lat="45.9267" lon="4.74316">
        <ele>171</ele>
        <time>2017-04-21T11:15:36Z</time>
      </trkpt>
      <trkpt lat="45.92673" lon="4.7431">
        <ele>171</ele>
        <time>2017-04-21T11:15:37Z</time>
      </trkpt>
      <trkpt lat="45.92676" lon="4.74303">
        <ele>171</ele>
        <time>2017-04-21T11:15:38Z</time>
      </trkpt>
      <trkpt lat="45.9268" lon="4.74297">
        <ele>171</ele>
        <time>2017-04-21T11:15:39Z</time>
      </trkpt>
      <trkpt lat="45.92684" lon="4.74291">
        <ele>171</ele>
        <time>2017-04-21T11:15:40Z</time>
      </trkpt>
      <trkpt lat="45.92687" lon="4.74284">
        <ele>171</ele>
        <time>2017-04-21T11:15:41Z</time>
      </trkpt>
      <trkpt lat="45.92691" lon="4.74278">
        <ele>171</ele>
        <time>2017-04-21T11:15:42Z</time>
      </trkpt>
      <trkpt lat="45.92694" lon="4.74272">
        <ele>171</ele>
        <time>2017-04-21T11:15:43Z</time>
      </trkpt>
      <trkpt lat="45.92698" lon="4.74265">
        <ele>171</ele>
        <time>2017-04-21T11:15:44Z</time>
      </trkpt>
      <trkpt lat="45.92702" lon="4.74259">
        <ele>171</ele>
        <time>2017-04-21T11:15:45Z</time>
      </trkpt>
      <trkpt lat="45.92705" lon="4.74253">
        <ele>171</ele>
        <time>2017-04-21T11:15:46Z</time>
      </trkpt>
      <trkpt lat="45.92709" lon="4.74247">
        <ele>171</ele>
        <time>2017-04-21T11:15:47Z</time>
      </trkpt>
      <trkpt lat="45.92713" lon="4.74241">
        <ele>171</ele>
        <time>2017-04-21T11:15:48Z</time>
      </trkpt>
      <trkpt lat="45.92717" lon="4.74235">
        <ele>171</ele>
        <time>2017-04-21T11:15:49Z</time>
      </trkpt>
      <trkpt lat="45.9272" lon="4.7423">
        <ele>171</ele>
        <time>2017-04-21T11:15:50Z</time>
      </trkpt>
      <trkpt lat="45.92724" lon="4.74225">
        <ele>171</ele>
        <time>2017-04-21T11:15:51Z</time>
      </trkpt>
      <trkpt lat="45.92728" lon="4.7422">
        <ele>171</ele>
        <time>2017-04-21T11:15:52Z</time>
      </trkpt>
      <trkpt lat="45.92732" lon="4.74215">
        <ele>171</ele>
        <time>2017-04-21T11:15:53Z</time>
      </trkpt>
      <trkpt lat="45.92736" lon="4.74209">
        <ele>171</ele>
        <time>2017-04-21T11:15:54Z</time>
      </trkpt>
      <trkpt lat="45.9274" lon="4.74203">
        <ele>171</ele>
        <time>2017-04-21T11:15:55Z</time>
      </trkpt>
      <trkpt lat="45.92745" lon="4.74197">
        <ele>171</ele>
        <time>2017-04-21T11:15:56Z</time>
      </trkpt>
      <trkpt lat="45.9275" lon="4.74191">
        <ele>172</ele>
        <time>2017-04-21T11:15:57Z</time>
      </trkpt>
      <trkpt lat="45.92755" lon="4.74185">
        <ele>172</ele>
        <time>2017-04-21T11:15:58Z</time>
      </trkpt>
      <trkpt lat="45.92761" lon="4.74179">
        <ele>172</ele>
        <time>2017-04-21T11:15:59Z</time>
      </trkpt>
      <trkpt lat="45.92766" lon="4.74173">
        <ele>172</ele>
        <time>2017-04-21T11:16:00Z</time>
      </trkpt>
      <trkpt lat="45.92771" lon="4.74167">
        <ele>172</ele>
        <time>2017-04-21T11:16:01Z</time>
      </trkpt>
      <trkpt lat="45.92776" lon="4.74161">
        <ele>172</ele>
        <time>2017-04-21T11:16:02Z</time>
      </trkpt>
      <trkpt lat="45.92781" lon="4.74156">
        <ele>172</ele>
        <time>2017-04-21T11:16:03Z</time>
      </trkpt>
      <trkpt lat="45.92785" lon="4.74151">
        <ele>172</ele>
        <time>2017-04-21T11:16:04Z</time>
      </trkpt>
      <trkpt lat="45.9279" lon="4.74146">
        <ele>172</ele>
        <time>2017-04-21T11:16:05Z</time>
      </trkpt>
      <trkpt lat="45.92794" lon="4.7414">
        <ele>172</ele>
        <time>2017-04-21T11:16:06Z</time>
      </trkpt>
      <trkpt lat="45.92799" lon="4.74135">
        <ele>172</ele>
        <time>2017-04-21T11:16:07Z</time>
      </trkpt>
      <trkpt lat="45.92805" lon="4.74129">
        <ele>172</ele>
        <time>2017-04-21T11:16:08Z</time>
      </trkpt>
      <trkpt lat="45.9281" lon="4.74124">
        <ele>172</ele>
        <time>2017-04-21T11:16:09Z</time>
      </trkpt>
      <trkpt lat="45.92816" lon="4.74118">
        <ele>172</ele>
        <time>2017-04-21T11:16:10Z</time>
      </trkpt>
      <trkpt lat="45.92821" lon="4.74112">
        <ele>172</ele>
        <time>2017-04-21T11:16:11Z</time>
      </trkpt>
      <trkpt lat="45.92826" lon="4.74106">
        <ele>171</ele>
        <time>2017-04-21T11:16:12Z</time>
      </trkpt>
      <trkpt lat="45.92831" lon="4.741">
        <ele>171</ele>
        <time>2017-04-21T11:16:13Z</time>
      </trkpt>
      <trkpt lat="45.92836" lon="4.74095">
        <ele>171</ele>
        <time>2017-04-21T11:16:14Z</time>
      </trkpt>
      <trkpt lat="45.92841" lon="4.74089">
        <ele>171</ele>
        <time>2017-04-21T11:16:15Z</time>
      </trkpt>
      <trkpt lat="45.92845" lon="4.74084">
        <ele>171</ele>
        <time>2017-04-21T11:16:16Z</time>
      </trkpt>
      <trkpt lat="45.9285" lon="4.74078">
        <ele>172</ele>
        <time>2017-04-21T11:16:17Z</time>
      </trkpt>
      <trkpt lat="45.92854" lon="4.74073">
        <ele>172</ele>
        <time>2017-04-21T11:16:18Z</time>
      </trkpt>
      <trkpt lat="45.92858" lon="4.74068">
        <ele>172</ele>
        <time>2017-04-21T11:16:19Z</time>
      </trkpt>
      <trkpt lat="45.92862" lon="4.74063">
        <ele>172</ele>
        <time>2017-04-21T11:16:20Z</time>
      </trkpt>
      <trkpt lat="45.92866" lon="4.74058">
        <ele>172</ele>
        <time>2017-04-21T11:16:21Z</time>
      </trkpt>
      <trkpt lat="45.9287" lon="4.74054">
        <ele>172</ele>
        <time>2017-04-21T11:16:22Z</time>
      </trkpt>
      <trkpt lat="45.92874" lon="4.74051">
        <ele>172</ele>
        <time>2017-04-21T11:16:23Z</time>
      </trkpt>
      <trkpt lat="45.92882" lon="4.74048">
        <ele>172</ele>
        <time>2017-04-21T11:16:25Z</time>
      </trkpt>
      <trkpt lat="45.92887" lon="4.74048">
        <ele>172</ele>
        <time>2017-04-21T11:16:26Z</time>
      </trkpt>
      <trkpt lat="45.92891" lon="4.74049">
        <ele>172</ele>
        <time>2017-04-21T11:16:27Z</time>
      </trkpt>
      <trkpt lat="45.92896" lon="4.7405">
        <ele>172</ele>
        <time>2017-04-21T11:16:28Z</time>
      </trkpt>
      <trkpt lat="45.92901" lon="4.74049">
        <ele>172</ele>
        <time>2017-04-21T11:16:29Z</time>
      </trkpt>
      <trkpt lat="45.92906" lon="4.74047">
        <ele>172</ele>
        <time>2017-04-21T11:16:30Z</time>
      </trkpt>
      <trkpt lat="45.92911" lon="4.74042">
        <ele>172</ele>
        <time>2017-04-21T11:16:31Z</time>
      </trkpt>
      <trkpt lat="45.92914" lon="4.74035">
        <ele>172</ele>
        <time>2017-04-21T11:16:32Z</time>
      </trkpt>
      <trkpt lat="45.92916" lon="4.74027">
        <ele>172</ele>
        <time>2017-04-21T11:16:33Z</time>
      </trkpt>
      <trkpt lat="45.92917" lon="4.74019">
        <ele>172</ele>
        <time>2017-04-21T11:16:34Z</time>
      </trkpt>
      <trkpt lat="45.92917" lon="4.74011">
        <ele>172</ele>
        <time>2017-04-21T11:16:35Z</time>
      </trkpt>
      <trkpt lat="45.92916" lon="4.74003">
        <ele>172</ele>
        <time>2017-04-21T11:16:36Z</time>
      </trkpt>
      <trkpt lat="45.92914" lon="4.73996">
        <ele>172</ele>
        <time>2017-04-21T11:16:37Z</time>
      </trkpt>
      <trkpt lat="45.9291" lon="4.7399">
        <ele>172</ele>
        <time>2017-04-21T11:16:38Z</time>
      </trkpt>
      <trkpt lat="45.92906" lon="4.73985">
        <ele>172</ele>
        <time>2017-04-21T11:16:39Z</time>
      </trkpt>
      <trkpt lat="45.92902" lon="4.73982">
        <ele>172</ele>
        <time>2017-04-21T11:16:40Z</time>
      </trkpt>
      <trkpt lat="45.92897" lon="4.73979">
        <ele>172</ele>
        <time>2017-04-21T11:16:41Z</time>
      </trkpt>
      <trkpt lat="45.92892" lon="4.73976">
        <ele>172</ele>
        <time>2017-04-21T11:16:42Z</time>
      </trkpt>
      <trkpt lat="45.92888" lon="4.73971">
        <ele>172</ele>
        <time>2017-04-21T11:16:43Z</time>
      </trkpt>
      <trkpt lat="45.92884" lon="4.73964">
        <ele>172</ele>
        <time>2017-04-21T11:16:44Z</time>
      </trkpt>
      <trkpt lat="45.92883" lon="4.73955">
        <ele>172</ele>
        <time>2017-04-21T11:16:45Z</time>
      </trkpt>
      <trkpt lat="45.92883" lon="4.73946">
        <ele>172</ele>
        <time>2017-04-21T11:16:46Z</time>
      </trkpt>
      <trkpt lat="45.92883" lon="4.73936">
        <ele>172</ele>
        <time>2017-04-21T11:16:47Z</time>
      </trkpt>
      <trkpt lat="45.92882" lon="4.73926">
        <ele>172</ele>
        <time>2017-04-21T11:16:48Z</time>
      </trkpt>
      <trkpt lat="45.92881" lon="4.73916">
        <ele>173</ele>
        <time>2017-04-21T11:16:49Z</time>
      </trkpt>
      <trkpt lat="45.9288" lon="4.73906">
        <ele>173</ele>
        <time>2017-04-21T11:16:50Z</time>
      </trkpt>
      <trkpt lat="45.92878" lon="4.73897">
        <ele>173</ele>
        <time>2017-04-21T11:16:51Z</time>
      </trkpt>
      <trkpt lat="45.92876" lon="4.73887">
        <ele>173</ele>
        <time>2017-04-21T11:16:52Z</time>
      </trkpt>
      <trkpt lat="45.92874" lon="4.73878">
        <ele>173</ele>
        <time>2017-04-21T11:16:53Z</time>
      </trkpt>
      <trkpt lat="45.92873" lon="4.73869">
        <ele>173</ele>
        <time>2017-04-21T11:16:54Z</time>
      </trkpt>
      <trkpt lat="45.9287" lon="4.73861">
        <ele>173</ele>
        <time>2017-04-21T11:16:55Z</time>
      </trkpt>
      <trkpt lat="45.92869" lon="4.73851">
        <ele>173</ele>
        <time>2017-04-21T11:16:56Z</time>
      </trkpt>
      <trkpt lat="45.92868" lon="4.73844">
        <ele>173</ele>
        <time>2017-04-21T11:16:57Z</time>
      </trkpt>
      <trkpt lat="45.92865" lon="4.73836">
        <ele>173</ele>
        <time>2017-04-21T11:16:58Z</time>
      </trkpt>
      <trkpt lat="45.92864" lon="4.73828">
        <ele>173</ele>
        <time>2017-04-21T11:16:59Z</time>
      </trkpt>
      <trkpt lat="45.92862" lon="4.73819">
        <ele>173</ele>
        <time>2017-04-21T11:17:00Z</time>
      </trkpt>
      <trkpt lat="45.9286" lon="4.73812">
        <ele>173</ele>
        <time>2017-04-21T11:17:01Z</time>
      </trkpt>
      <trkpt lat="45.92857" lon="4.73806">
        <ele>173</ele>
        <time>2017-04-21T11:17:02Z</time>
      </trkpt>
      <trkpt lat="45.92854" lon="4.738">
        <ele>173</ele>
        <time>2017-04-21T11:17:03Z</time>
      </trkpt>
      <trkpt lat="45.92849" lon="4.73794">
        <ele>173</ele>
        <time>2017-04-21T11:17:04Z</time>
      </trkpt>
      <trkpt lat="45.92845" lon="4.73791">
        <ele>173</ele>
        <time>2017-04-21T11:17:05Z</time>
      </trkpt>
      <trkpt lat="45.9284" lon="4.73787">
        <ele>173</ele>
        <time>2017-04-21T11:17:06Z</time>
      </trkpt>
      <trkpt lat="45.92835" lon="4.73783">
        <ele>173</ele>
        <time>2017-04-21T11:17:07Z</time>
      </trkpt>
      <trkpt lat="45.9283" lon="4.7378">
        <ele>173</ele>
        <time>2017-04-21T11:17:08Z</time>
      </trkpt>
      <trkpt lat="45.92824" lon="4.73777">
        <ele>173</ele>
        <time>2017-04-21T11:17:09Z</time>
      </trkpt>
      <trkpt lat="45.92818" lon="4.73774">
        <ele>173</ele>
        <time>2017-04-21T11:17:10Z</time>
      </trkpt>
      <trkpt lat="45.92813" lon="4.73772">
        <ele>173</ele>
        <time>2017-04-21T11:17:11Z</time>
      </trkpt>
      <trkpt lat="45.92807" lon="4.73769">
        <ele>173</ele>
        <time>2017-04-21T11:17:12Z</time>
      </trkpt>
      <trkpt lat="45.92802" lon="4.73767">
        <ele>173</ele>
        <time>2017-04-21T11:17:13Z</time>
      </trkpt>
      <trkpt lat="45.92797" lon="4.73763">
        <ele>173</ele>
        <time>2017-04-21T11:17:14Z</time>
      </trkpt>
      <trkpt lat="45.92792" lon="4.73759">
        <ele>173</ele>
        <time>2017-04-21T11:17:15Z</time>
      </trkpt>
      <trkpt lat="45.92787" lon="4.73754">
        <ele>173</ele>
        <time>2017-04-21T11:17:16Z</time>
      </trkpt>
      <trkpt lat="45.92784" lon="4.73749">
        <ele>172</ele>
        <time>2017-04-21T11:17:17Z</time>
      </trkpt>
      <trkpt lat="45.92781" lon="4.73743">
        <ele>172</ele>
        <time>2017-04-21T11:17:18Z</time>
      </trkpt>
      <trkpt lat="45.92777" lon="4.73738">
        <ele>172</ele>
        <time>2017-04-21T11:17:19Z</time>
      </trkpt>
      <trkpt lat="45.92773" lon="4.73734">
        <ele>172</ele>
        <time>2017-04-21T11:17:20Z</time>
      </trkpt>
      <trkpt lat="45.92768" lon="4.73731">
        <ele>172</ele>
        <time>2017-04-21T11:17:21Z</time>
      </trkpt>
      <trkpt lat="45.92763" lon="4.73729">
        <ele>172</ele>
        <time>2017-04-21T11:17:22Z</time>
      </trkpt>
      <trkpt lat="45.92758" lon="4.73727">
        <ele>172</ele>
        <time>2017-04-21T11:17:23Z</time>
      </trkpt>
      <trkpt lat="45.92753" lon="4.73725">
        <ele>172</ele>
        <time>2017-04-21T11:17:24Z</time>
      </trkpt>
      <trkpt lat="45.92747" lon="4.73723">
        <ele>173</ele>
        <time>2017-04-21T11:17:25Z</time>
      </trkpt>
      <trkpt lat="45.9274" lon="4.73723">
        <ele>173</ele>
        <time>2017-04-21T11:17:26Z</time>
      </trkpt>
      <trkpt lat="45.92734" lon="4.73722">
        <ele>173</ele>
        <time>2017-04-21T11:17:27Z</time>
      </trkpt>
      <trkpt lat="45.92728" lon="4.73722">
        <ele>173</ele>
        <time>2017-04-21T11:17:28Z</time>
      </trkpt>
      <trkpt lat="45.92722" lon="4.73721">
        <ele>173</ele>
        <time>2017-04-21T11:17:29Z</time>
      </trkpt>
      <trkpt lat="45.92717" lon="4.73719">
        <ele>173</ele>
        <time>2017-04-21T11:17:30Z</time>
      </trkpt>
      <trkpt lat="45.92711" lon="4.73718">
        <ele>173</ele>
        <time>2017-04-21T11:17:31Z</time>
      </trkpt>
      <trkpt lat="45.92706" lon="4.73717">
        <ele>173</ele>
        <time>2017-04-21T11:17:32Z</time>
      </trkpt>
      <trkpt lat="45.927" lon="4.73716">
        <ele>173</ele>
        <time>2017-04-21T11:17:33Z</time>
      </trkpt>
      <trkpt lat="45.92695" lon="4.73715">
        <ele>173</ele>
        <time>2017-04-21T11:17:34Z</time>
      </trkpt>
      <trkpt lat="45.92689" lon="4.73714">
        <ele>173</ele>
        <time>2017-04-21T11:17:35Z</time>
      </trkpt>
      <trkpt lat="45.92683" lon="4.73713">
        <ele>173</ele>
        <time>2017-04-21T11:17:36Z</time>
      </trkpt>
      <trkpt lat="45.92677" lon="4.73711">
        <ele>173</ele>
        <time>2017-04-21T11:17:37Z</time>
      </trkpt>
      <trkpt lat="45.9267" lon="4.73708">
        <ele>174</ele>
        <time>2017-04-21T11:17:38Z</time>
      </trkpt>
      <trkpt lat="45.92664" lon="4.73705">
        <ele>173</ele>
        <time>2017-04-21T11:17:39Z</time>
      </trkpt>
      <trkpt lat="45.92658" lon="4.73701">
        <ele>173</ele>
        <time>2017-04-21T11:17:40Z</time>
      </trkpt>
      <trkpt lat="45.92654" lon="4.73698">
        <ele>173</ele>
        <time>2017-04-21T11:17:41Z</time>
      </trkpt>
      <trkpt lat="45.92649" lon="4.73694">
        <ele>173</ele>
        <time>2017-04-21T11:17:42Z</time>
      </trkpt>
      <trkpt lat="45.92645" lon="4.7369">
        <ele>173</ele>
        <time>2017-04-21T11:17:43Z</time>
      </trkpt>
      <trkpt lat="45.9264" lon="4.73685">
        <ele>173</ele>
        <time>2017-04-21T11:17:44Z</time>
      </trkpt>
      <trkpt lat="45.92637" lon="4.7368">
        <ele>173</ele>
        <time>2017-04-21T11:17:45Z</time>
      </trkpt>
      <trkpt lat="45.92633" lon="4.73674">
        <ele>173</ele>
        <time>2017-04-21T11:17:46Z</time>
      </trkpt>
      <trkpt lat="45.9263" lon="4.73667">
        <ele>173</ele>
        <time>2017-04-21T11:17:47Z</time>
      </trkpt>
      <trkpt lat="45.92627" lon="4.73659">
        <ele>173</ele>
        <time>2017-04-21T11:17:48Z</time>
      </trkpt>
      <trkpt lat="45.92624" lon="4.73651">
        <ele>173</ele>
        <time>2017-04-21T11:17:49Z</time>
      </trkpt>
      <trkpt lat="45.92621" lon="4.73644">
        <ele>173</ele>
        <time>2017-04-21T11:17:50Z</time>
      </trkpt>
      <trkpt lat="45.92616" lon="4.73638">
        <ele>173</ele>
        <time>2017-04-21T11:17:51Z</time>
      </trkpt>
      <trkpt lat="45.92612" lon="4.73631">
        <ele>173</ele>
        <time>2017-04-21T11:17:52Z</time>
      </trkpt>
      <trkpt lat="45.92607" lon="4.73626">
        <ele>173</ele>
        <time>2017-04-21T11:17:53Z</time>
      </trkpt>
      <trkpt lat="45.92601" lon="4.73623">
        <ele>173</ele>
        <time>2017-04-21T11:17:54Z</time>
      </trkpt>
      <trkpt lat="45.92595" lon="4.73622">
        <ele>173</ele>
        <time>2017-04-21T11:17:55Z</time>
      </trkpt>
      <trkpt lat="45.92587" lon="4.73621">
        <ele>173</ele>
        <time>2017-04-21T11:17:56Z</time>
      </trkpt>
      <trkpt lat="45.92581" lon="4.73621">
        <ele>173</ele>
        <time>2017-04-21T11:17:57Z</time>
      </trkpt>
      <trkpt lat="45.92575" lon="4.73622">
        <ele>173</ele>
        <time>2017-04-21T11:17:58Z</time>
      </trkpt>
      <trkpt lat="45.9257" lon="4.73623">
        <ele>173</ele>
        <time>2017-04-21T11:17:59Z</time>
      </trkpt>
      <trkpt lat="45.92565" lon="4.73623">
        <ele>173</ele>
        <time>2017-04-21T11:18:00Z</time>
      </trkpt>
      <trkpt lat="45.92557" lon="4.73629">
        <ele>173</ele>
        <time>2017-04-21T11:18:02Z</time>
      </trkpt>
      <trkpt lat="45.92553" lon="4.73631">
        <ele>173</ele>
        <time>2017-04-21T11:18:03Z</time>
      </trkpt>
      <trkpt lat="45.92548" lon="4.73633">
        <ele>173</ele>
        <time>2017-04-21T11:18:04Z</time>
      </trkpt>
      <trkpt lat="45.92544" lon="4.73634">
        <ele>173</ele>
        <time>2017-04-21T11:18:05Z</time>
      </trkpt>
      <trkpt lat="45.92539" lon="4.73636">
        <ele>173</ele>
        <time>2017-04-21T11:18:06Z</time>
      </trkpt>
      <trkpt lat="45.92534" lon="4.73637">
        <ele>173</ele>
        <time>2017-04-21T11:18:07Z</time>
      </trkpt>
      <trkpt lat="45.92528" lon="4.73638">
        <ele>173</ele>
        <time>2017-04-21T11:18:08Z</time>
      </trkpt>
      <trkpt lat="45.92523" lon="4.73638">
        <ele>173</ele>
        <time>2017-04-21T11:18:09Z</time>
      </trkpt>
      <trkpt lat="45.92518" lon="4.73638">
        <ele>173</ele>
        <time>2017-04-21T11:18:10Z</time>
      </trkpt>
      <trkpt lat="45.92514" lon="4.73638">
        <ele>173</ele>
        <time>2017-04-21T11:18:11Z</time>
      </trkpt>
      <trkpt lat="45.92509" lon="4.73638">
        <ele>174</ele>
        <time>2017-04-21T11:18:12Z</time>
      </trkpt>
      <trkpt lat="45.92504" lon="4.73639">
        <ele>174</ele>
        <time>2017-04-21T11:18:13Z</time>
      </trkpt>
      <trkpt lat="45.925" lon="4.73639">
        <ele>174</ele>
        <time>2017-04-21T11:18:14Z</time>
      </trkpt>
      <trkpt lat="45.92495" lon="4.73639">
        <ele>174</ele>
        <time>2017-04-21T11:18:15Z</time>
      </trkpt>
      <trkpt lat="45.92486" lon="4.73639">
        <ele>174</ele>
        <time>2017-04-21T11:18:17Z</time>
      </trkpt>
      <trkpt lat="45.92482" lon="4.7364">
        <ele>174</ele>
        <time>2017-04-21T11:18:18Z</time>
      </trkpt>
      <trkpt lat="45.92474" lon="4.73644">
        <ele>174</ele>
        <time>2017-04-21T11:18:20Z</time>
      </trkpt>
      <trkpt lat="45.92471" lon="4.73648">
        <ele>174</ele>
        <time>2017-04-21T11:18:21Z</time>
      </trkpt>
      <trkpt lat="45.92469" lon="4.73659">
        <ele>174</ele>
        <time>2017-04-21T11:18:23Z</time>
      </trkpt>
      <trkpt lat="45.92469" lon="4.73665">
        <ele>174</ele>
        <time>2017-04-21T11:18:24Z</time>
      </trkpt>
      <trkpt lat="45.92468" lon="4.73676">
        <ele>174</ele>
        <time>2017-04-21T11:18:26Z</time>
      </trkpt>
      <trkpt lat="45.92467" lon="4.7368">
        <ele>174</ele>
        <time>2017-04-21T11:18:27Z</time>
      </trkpt>
      <trkpt lat="45.92465" lon="4.73692">
        <ele>174</ele>
        <time>2017-04-21T11:18:30Z</time>
      </trkpt>
      <trkpt lat="45.92464" lon="4.73696">
        <ele>174</ele>
        <time>2017-04-21T11:18:31Z</time>
      </trkpt>
      <trkpt lat="45.92463" lon="4.73702">
        <ele>174</ele>
        <time>2017-04-21T11:18:33Z</time>
      </trkpt>
      <trkpt lat="45.92462" lon="4.73703">
        <ele>174</ele>
        <time>2017-04-21T11:18:34Z</time>
      </trkpt>
      <trkpt lat="45.92463" lon="4.73705">
        <ele>174</ele>
        <time>2017-04-21T11:19:30.562Z</time>
      </trkpt>
    </trkseg>
  </trk>
</gpx>